<?xml version='1.0' encoding='UTF-8'?><gpx version="1.1" creator="JPX - https://github.com/jenetics/jpx" xmlns="http://www.topografix.com/GPX/1/1"><trk><trkseg><trkpt lat="43.54247158134159" lon="11.082571792067252"><ele>151.0</ele><time>2026-03-29T09:44:50.005Z</time></trkpt><trkpt lat="43.542459600109105" lon="11.082467328865937"><ele>151.0</ele><time>2026-03-29T09:44:52.005Z</time></trkpt><trkpt lat="43.542453009106204" lon="11.082315854930325"><ele>151.0</ele><time>2026-03-29T09:44:54.005Z</time></trkpt><trkpt lat="43.54246913671443" lon="11.082146525226381"><ele>151.0</ele><time>2026-03-29T09:44:56.005Z</time></trkpt><trkpt lat="43.542464094233395" lon="11.082044269515551"><ele>151.0</ele><time>2026-03-29T09:44:57.005Z</time></trkpt><trkpt lat="43.542458456358816" lon="11.08194046433211"><ele>150.8</ele><time>2026-03-29T09:44:58.005Z</time></trkpt><trkpt lat="43.54243072191665" lon="11.081820037991644"><ele>150.6</ele><time>2026-03-29T09:44:59.005Z</time></trkpt><trkpt lat="43.54242193145495" lon="11.08168416234644"><ele>150.4</ele><time>2026-03-29T09:45:00.005Z</time></trkpt><trkpt lat="43.5424139990769" lon="11.081537280951693"><ele>150.2</ele><time>2026-03-29T09:45:01.005Z</time></trkpt><trkpt lat="43.54240833359086" lon="11.081409276051172"><ele>150.0</ele><time>2026-03-29T09:45:02.005Z</time></trkpt><trkpt lat="43.54239909850025" lon="11.08128745375249"><ele>149.2</ele><time>2026-03-29T09:45:03.005Z</time></trkpt><trkpt lat="43.54239172295807" lon="11.081152014593586"><ele>148.4</ele><time>2026-03-29T09:45:04.005Z</time></trkpt><trkpt lat="43.54238266489854" lon="11.081007872014222"><ele>147.6</ele><time>2026-03-29T09:45:05.005Z</time></trkpt><trkpt lat="43.54237570884754" lon="11.08089063329603"><ele>146.8</ele><time>2026-03-29T09:45:06.005Z</time></trkpt><trkpt lat="43.54237474437442" lon="11.080781316075234"><ele>146.0</ele><time>2026-03-29T09:45:07.005Z</time></trkpt><trkpt lat="43.542364161623595" lon="11.080663905918499"><ele>145.6</ele><time>2026-03-29T09:45:08.005Z</time></trkpt><trkpt lat="43.54235585847539" lon="11.080542972517247"><ele>145.2</ele><time>2026-03-29T09:45:09.005Z</time></trkpt><trkpt lat="43.542345533414554" lon="11.080424319411447"><ele>144.8</ele><time>2026-03-29T09:45:10.005Z</time></trkpt><trkpt lat="43.54234057412737" lon="11.08030653694895"><ele>144.4</ele><time>2026-03-29T09:45:11.005Z</time></trkpt><trkpt lat="43.54233619933165" lon="11.080178771002153"><ele>144.0</ele><time>2026-03-29T09:45:12.005Z</time></trkpt><trkpt lat="43.54233089274294" lon="11.080044843530436"><ele>143.5</ele><time>2026-03-29T09:45:13.005Z</time></trkpt><trkpt lat="43.54232268035777" lon="11.079912042094517"><ele>143.0</ele><time>2026-03-29T09:45:14.005Z</time></trkpt><trkpt lat="43.54231548875434" lon="11.079783580425627"><ele>142.5</ele><time>2026-03-29T09:45:15.005Z</time></trkpt><trkpt lat="43.54230727597511" lon="11.07967276666249"><ele>142.0</ele><time>2026-03-29T09:45:16.005Z</time></trkpt><trkpt lat="43.542296509072145" lon="11.079583104391945"><ele>141.5</ele><time>2026-03-29T09:45:17.005Z</time></trkpt><trkpt lat="43.54226542915885" lon="11.079502414092941"><ele>141.0</ele><time>2026-03-29T09:45:18.005Z</time></trkpt><trkpt lat="43.542216638668904" lon="11.079445316310002"><ele>141.0</ele><time>2026-03-29T09:45:19.005Z</time></trkpt><trkpt lat="43.54215628749737" lon="11.0794053981515"><ele>141.0</ele><time>2026-03-29T09:45:20.005Z</time></trkpt><trkpt lat="43.54206983094968" lon="11.079363385060374"><ele>141.0</ele><time>2026-03-29T09:45:21.005Z</time></trkpt><trkpt lat="43.54196167015096" lon="11.079316619368127"><ele>141.0</ele><time>2026-03-29T09:45:22.005Z</time></trkpt><trkpt lat="43.541814278685706" lon="11.079277011237318"><ele>141.0</ele><time>2026-03-29T09:45:23.005Z</time></trkpt><trkpt lat="43.54169179644407" lon="11.079219504825861"><ele>141.5</ele><time>2026-03-29T09:45:24.005Z</time></trkpt><trkpt lat="43.541567197988485" lon="11.079156000717894"><ele>142.0</ele><time>2026-03-29T09:45:25.005Z</time></trkpt><trkpt lat="43.541440972318334" lon="11.079088494538855"><ele>142.5</ele><time>2026-03-29T09:45:26.005Z</time></trkpt><trkpt lat="43.54132312243575" lon="11.07901987062097"><ele>143.0</ele><time>2026-03-29T09:45:27.005Z</time></trkpt><trkpt lat="43.54122097530671" lon="11.078956924278339"><ele>143.66666666666666</ele><time>2026-03-29T09:45:28.005Z</time></trkpt><trkpt lat="43.54112704019876" lon="11.078902287775005"><ele>144.33333333333331</ele><time>2026-03-29T09:45:29.005Z</time></trkpt><trkpt lat="43.54105968876368" lon="11.07883553587546"><ele>145.0</ele><time>2026-03-29T09:45:30.005Z</time></trkpt><trkpt lat="43.54100223011313" lon="11.078796596990514"><ele>145.66666666666666</ele><time>2026-03-29T09:45:31.005Z</time></trkpt><trkpt lat="43.540985021793084" lon="11.078708731256986"><ele>146.33333333333334</ele><time>2026-03-29T09:45:32.005Z</time></trkpt><trkpt lat="43.54092469511947" lon="11.078600877521618"><ele>147.0</ele><time>2026-03-29T09:45:34.005Z</time></trkpt><trkpt lat="43.54083511747693" lon="11.078592031677553"><ele>147.0</ele><time>2026-03-29T09:45:36.005Z</time></trkpt><trkpt lat="43.54075236005137" lon="11.07859523064041"><ele>147.0</ele><time>2026-03-29T09:45:39.005Z</time></trkpt><trkpt lat="43.540808738814654" lon="11.078633884180883"><ele>147.0</ele><time>2026-03-29T09:45:53.005Z</time></trkpt><trkpt lat="43.54087688207665" lon="11.07864072068961"><ele>147.0</ele><time>2026-03-29T09:45:55.005Z</time></trkpt><trkpt lat="43.540954023245355" lon="11.078650237316186"><ele>147.0</ele><time>2026-03-29T09:45:58.005Z</time></trkpt><trkpt lat="43.541001109224496" lon="11.07858816098071"><ele>147.0</ele><time>2026-03-29T09:46:02.005Z</time></trkpt><trkpt lat="43.54098405300489" lon="11.078472486137787"><ele>147.0</ele><time>2026-03-29T09:46:06.005Z</time></trkpt><trkpt lat="43.54097319688371" lon="11.078357388681965"><ele>147.2</ele><time>2026-03-29T09:46:09.005Z</time></trkpt><trkpt lat="43.54097984884273" lon="11.078265840588832"><ele>147.39999999999998</ele><time>2026-03-29T09:46:15.005Z</time></trkpt><trkpt lat="43.54095552930241" lon="11.078143113981618"><ele>147.60000000000002</ele><time>2026-03-29T09:46:28.007Z</time></trkpt><trkpt lat="43.54094209481968" lon="11.078019167761369"><ele>147.8</ele><time>2026-03-29T09:46:30.007Z</time></trkpt><trkpt lat="43.54093844935247" lon="11.07789772966844"><ele>148.0</ele><time>2026-03-29T09:46:32.007Z</time></trkpt><trkpt lat="43.540922216301105" lon="11.077739370215522"><ele>148.0</ele><time>2026-03-29T09:46:34.007Z</time></trkpt><trkpt lat="43.54091496895151" lon="11.077619977300424"><ele>148.0</ele><time>2026-03-29T09:46:35.007Z</time></trkpt><trkpt lat="43.540951747616084" lon="11.077496845899152"><ele>148.0</ele><time>2026-03-29T09:46:36.007Z</time></trkpt><trkpt lat="43.54091683345983" lon="11.077383201075714"><ele>148.0</ele><time>2026-03-29T09:46:37.007Z</time></trkpt><trkpt lat="43.54090608021935" lon="11.07728415450561"><ele>148.0</ele><time>2026-03-29T09:46:38.007Z</time></trkpt><trkpt lat="43.54089655368928" lon="11.07717056491559"><ele>148.0</ele><time>2026-03-29T09:46:39.007Z</time></trkpt><trkpt lat="43.54088607308654" lon="11.077023221698292"><ele>148.20000000000002</ele><time>2026-03-29T09:46:40.007Z</time></trkpt><trkpt lat="43.54087946663814" lon="11.07686776330869"><ele>148.4</ele><time>2026-03-29T09:46:41.007Z</time></trkpt><trkpt lat="43.54085764348997" lon="11.076717541590416"><ele>148.60000000000002</ele><time>2026-03-29T09:46:42.007Z</time></trkpt><trkpt lat="43.5408443932599" lon="11.076594748056198"><ele>148.8</ele><time>2026-03-29T09:46:43.007Z</time></trkpt><trkpt lat="43.54083522688335" lon="11.076489207274895"><ele>149.0</ele><time>2026-03-29T09:46:44.007Z</time></trkpt><trkpt lat="43.54082225777868" lon="11.076366569302577"><ele>149.0</ele><time>2026-03-29T09:46:45.007Z</time></trkpt><trkpt lat="43.54081466749736" lon="11.076265161624809"><ele>149.0</ele><time>2026-03-29T09:46:46.007Z</time></trkpt><trkpt lat="43.540812292716666" lon="11.076151215303215"><ele>149.0</ele><time>2026-03-29T09:46:47.007Z</time></trkpt><trkpt lat="43.54082185780668" lon="11.076030471904097"><ele>149.0</ele><time>2026-03-29T09:46:48.007Z</time></trkpt><trkpt lat="43.54081328634721" lon="11.07591839743584"><ele>149.0</ele><time>2026-03-29T09:46:49.007Z</time></trkpt><trkpt lat="43.54079716187209" lon="11.075827060064537"><ele>149.0</ele><time>2026-03-29T09:46:50.007Z</time></trkpt><trkpt lat="43.54080393203863" lon="11.075679827738623"><ele>149.2</ele><time>2026-03-29T09:46:52.007Z</time></trkpt><trkpt lat="43.5407257941983" lon="11.075653716813186"><ele>149.4</ele><time>2026-03-29T09:46:53.007Z</time></trkpt><trkpt lat="43.54058460192425" lon="11.075596203101917"><ele>149.6</ele><time>2026-03-29T09:46:55.007Z</time></trkpt><trkpt lat="43.54049111859024" lon="11.07556596872012"><ele>149.8</ele><time>2026-03-29T09:46:56.007Z</time></trkpt><trkpt lat="43.54038890369521" lon="11.075507337966537"><ele>150.0</ele><time>2026-03-29T09:46:57.007Z</time></trkpt><trkpt lat="43.54027440898014" lon="11.07543597744102"><ele>150.0</ele><time>2026-03-29T09:46:58.007Z</time></trkpt><trkpt lat="43.540163255595544" lon="11.07537339795982"><ele>150.0</ele><time>2026-03-29T09:46:59.007Z</time></trkpt><trkpt lat="43.540063466299124" lon="11.075316430096086"><ele>150.0</ele><time>2026-03-29T09:47:00.007Z</time></trkpt><trkpt lat="43.53998000883939" lon="11.075270150782094"><ele>150.0</ele><time>2026-03-29T09:47:01.007Z</time></trkpt><trkpt lat="43.53989874572764" lon="11.075221080016096"><ele>150.0</ele><time>2026-03-29T09:47:02.007Z</time></trkpt><trkpt lat="43.539812539597314" lon="11.075176128568415"><ele>150.0</ele><time>2026-03-29T09:47:03.007Z</time></trkpt><trkpt lat="43.53974182863989" lon="11.075139468797383"><ele>150.0</ele><time>2026-03-29T09:47:04.007Z</time></trkpt><trkpt lat="43.53965799726815" lon="11.07509895309086"><ele>150.0</ele><time>2026-03-29T09:47:05.007Z</time></trkpt><trkpt lat="43.53957562135641" lon="11.075037849077177"><ele>150.0</ele><time>2026-03-29T09:47:06.006Z</time></trkpt><trkpt lat="43.5394832216904" lon="11.07495225822702"><ele>150.0</ele><time>2026-03-29T09:47:07.006Z</time></trkpt><trkpt lat="43.539383580055244" lon="11.07489868555906"><ele>150.6</ele><time>2026-03-29T09:47:08.006Z</time></trkpt><trkpt lat="43.5392891670954" lon="11.07484792425526"><ele>151.2</ele><time>2026-03-29T09:47:09.006Z</time></trkpt><trkpt lat="43.539188841858625" lon="11.074799875673934"><ele>151.8</ele><time>2026-03-29T09:47:10.006Z</time></trkpt><trkpt lat="43.539094669287586" lon="11.074754022994673"><ele>152.4</ele><time>2026-03-29T09:47:11.006Z</time></trkpt><trkpt lat="43.539034435090905" lon="11.074693155466202"><ele>153.0</ele><time>2026-03-29T09:47:12.006Z</time></trkpt><trkpt lat="43.53898909149109" lon="11.074621567943165"><ele>153.0</ele><time>2026-03-29T09:47:13.006Z</time></trkpt><trkpt lat="43.538929896066485" lon="11.074538139336065"><ele>153.0</ele><time>2026-03-29T09:47:14.006Z</time></trkpt><trkpt lat="43.538860135617895" lon="11.07444142509913"><ele>153.0</ele><time>2026-03-29T09:47:15.006Z</time></trkpt><trkpt lat="43.53877145816402" lon="11.074358371530336"><ele>153.0</ele><time>2026-03-29T09:47:16.006Z</time></trkpt><trkpt lat="43.53869119954179" lon="11.074265684456877"><ele>153.0</ele><time>2026-03-29T09:47:17.006Z</time></trkpt><trkpt lat="43.538613022475836" lon="11.07417948558768"><ele>152.66666666666666</ele><time>2026-03-29T09:47:18.006Z</time></trkpt><trkpt lat="43.53854609653591" lon="11.074094909241426"><ele>152.33333333333334</ele><time>2026-03-29T09:47:19.006Z</time></trkpt><trkpt lat="43.53846588137168" lon="11.074030955595891"><ele>152.0</ele><time>2026-03-29T09:47:20.006Z</time></trkpt><trkpt lat="43.538404085902044" lon="11.073974355685147"><ele>151.66666666666669</ele><time>2026-03-29T09:47:21.006Z</time></trkpt><trkpt lat="43.53834089144814" lon="11.07391629274548"><ele>151.33333333333334</ele><time>2026-03-29T09:47:22.006Z</time></trkpt><trkpt lat="43.53827221083251" lon="11.073853807871805"><ele>151.0</ele><time>2026-03-29T09:47:23.006Z</time></trkpt><trkpt lat="43.53819460317108" lon="11.073767424355232"><ele>151.0</ele><time>2026-03-29T09:47:24.006Z</time></trkpt><trkpt lat="43.5381037281818" lon="11.073682775328914"><ele>151.0</ele><time>2026-03-29T09:47:25.006Z</time></trkpt><trkpt lat="43.53801554472244" lon="11.07360039658623"><ele>151.0</ele><time>2026-03-29T09:47:26.006Z</time></trkpt><trkpt lat="43.53792713721544" lon="11.0735237928085"><ele>151.0</ele><time>2026-03-29T09:47:27.006Z</time></trkpt><trkpt lat="43.53785299107552" lon="11.073453482833074"><ele>151.0</ele><time>2026-03-29T09:47:28.006Z</time></trkpt><trkpt lat="43.53777751305018" lon="11.073376752868322"><ele>150.8</ele><time>2026-03-29T09:47:29.006Z</time></trkpt><trkpt lat="43.53769972000412" lon="11.073283469418936"><ele>150.6</ele><time>2026-03-29T09:47:30.006Z</time></trkpt><trkpt lat="43.53762723658918" lon="11.073181926351506"><ele>150.4</ele><time>2026-03-29T09:47:31.006Z</time></trkpt><trkpt lat="43.53758130332023" lon="11.073037984653167"><ele>150.2</ele><time>2026-03-29T09:47:32.006Z</time></trkpt><trkpt lat="43.537538907670594" lon="11.072908247308101"><ele>150.0</ele><time>2026-03-29T09:47:33.006Z</time></trkpt><trkpt lat="43.53750139643313" lon="11.072787772383817"><ele>150.0</ele><time>2026-03-29T09:47:34.006Z</time></trkpt><trkpt lat="43.537464458506925" lon="11.072660331542192"><ele>150.0</ele><time>2026-03-29T09:47:35.006Z</time></trkpt><trkpt lat="43.537423209284164" lon="11.072535474663768"><ele>150.0</ele><time>2026-03-29T09:47:36.006Z</time></trkpt><trkpt lat="43.53738141118492" lon="11.07239941622953"><ele>150.0</ele><time>2026-03-29T09:47:37.006Z</time></trkpt><trkpt lat="43.537341551160665" lon="11.07226328622996"><ele>150.0</ele><time>2026-03-29T09:47:38.006Z</time></trkpt><trkpt lat="43.53732102614325" lon="11.072149146067808"><ele>150.16666666666666</ele><time>2026-03-29T09:47:39.006Z</time></trkpt><trkpt lat="43.5372950829757" lon="11.07205499535448"><ele>150.33333333333334</ele><time>2026-03-29T09:47:40.006Z</time></trkpt><trkpt lat="43.53727348767208" lon="11.071959718725374"><ele>150.5</ele><time>2026-03-29T09:47:41.006Z</time></trkpt><trkpt lat="43.53725342731914" lon="11.071872979569704"><ele>150.66666666666669</ele><time>2026-03-29T09:47:42.006Z</time></trkpt><trkpt lat="43.53723286624616" lon="11.071786115349184"><ele>150.83333333333334</ele><time>2026-03-29T09:47:43.006Z</time></trkpt><trkpt lat="43.53722611185401" lon="11.071661931481643"><ele>151.0</ele><time>2026-03-29T09:47:45.006Z</time></trkpt><trkpt lat="43.53709701806933" lon="11.071656580896187"><ele>150.2</ele><time>2026-03-29T09:47:46.006Z</time></trkpt><trkpt lat="43.53697050000146" lon="11.07159026578632"><ele>149.39999999999998</ele><time>2026-03-29T09:47:48.006Z</time></trkpt><trkpt lat="43.536892917795015" lon="11.071539553151505"><ele>148.6</ele><time>2026-03-29T09:47:49.006Z</time></trkpt><trkpt lat="43.53682002657784" lon="11.071486200147639"><ele>147.79999999999998</ele><time>2026-03-29T09:47:50.006Z</time></trkpt><trkpt lat="43.536753534592506" lon="11.071435079389413"><ele>147.0</ele><time>2026-03-29T09:47:51.006Z</time></trkpt><trkpt lat="43.53668808380259" lon="11.07138131093593"><ele>147.0</ele><time>2026-03-29T09:47:52.006Z</time></trkpt><trkpt lat="43.53660636300813" lon="11.071323287438629"><ele>147.0</ele><time>2026-03-29T09:47:53.006Z</time></trkpt><trkpt lat="43.53653762788845" lon="11.071275432922015"><ele>147.0</ele><time>2026-03-29T09:47:54.006Z</time></trkpt><trkpt lat="43.53646817214204" lon="11.071239379606501"><ele>147.0</ele><time>2026-03-29T09:47:55.006Z</time></trkpt><trkpt lat="43.536394634810925" lon="11.071200242339673"><ele>147.0</ele><time>2026-03-29T09:47:56.006Z</time></trkpt><trkpt lat="43.53630231611113" lon="11.071158053285467"><ele>147.0</ele><time>2026-03-29T09:47:57.006Z</time></trkpt><trkpt lat="43.53620444893902" lon="11.071121789335594"><ele>146.2</ele><time>2026-03-29T09:47:58.006Z</time></trkpt><trkpt lat="43.53612712232622" lon="11.071087430706395"><ele>145.39999999999998</ele><time>2026-03-29T09:47:59.006Z</time></trkpt><trkpt lat="43.53605774463112" lon="11.071051501477744"><ele>144.60000000000002</ele><time>2026-03-29T09:48:00.006Z</time></trkpt><trkpt lat="43.53598443849087" lon="11.071023640054939"><ele>143.8</ele><time>2026-03-29T09:48:01.006Z</time></trkpt><trkpt lat="43.53585383669869" lon="11.07096307433663"><ele>143.0</ele><time>2026-03-29T09:48:03.006Z</time></trkpt><trkpt lat="43.53572984800251" lon="11.070897438710038"><ele>143.0</ele><time>2026-03-29T09:48:05.006Z</time></trkpt><trkpt lat="43.535653734760544" lon="11.070865583049514"><ele>143.0</ele><time>2026-03-29T09:48:06.006Z</time></trkpt><trkpt lat="43.535581522150416" lon="11.070840087732238"><ele>143.0</ele><time>2026-03-29T09:48:07.006Z</time></trkpt><trkpt lat="43.5354987556919" lon="11.07080122718789"><ele>143.0</ele><time>2026-03-29T09:48:08.006Z</time></trkpt><trkpt lat="43.53540729597271" lon="11.070768444533044"><ele>143.0</ele><time>2026-03-29T09:48:09.006Z</time></trkpt><trkpt lat="43.53534321574591" lon="11.070737279870913"><ele>143.0</ele><time>2026-03-29T09:48:10.006Z</time></trkpt><trkpt lat="43.53523487295248" lon="11.070690813327648"><ele>144.4</ele><time>2026-03-29T09:48:12.006Z</time></trkpt><trkpt lat="43.5351693800713" lon="11.07065764139983"><ele>145.8</ele><time>2026-03-29T09:48:13.006Z</time></trkpt><trkpt lat="43.535061852518915" lon="11.070593006486545"><ele>147.2</ele><time>2026-03-29T09:48:15.006Z</time></trkpt><trkpt lat="43.53501239664628" lon="11.070444598721979"><ele>148.6</ele><time>2026-03-29T09:48:17.006Z</time></trkpt><trkpt lat="43.53497836684394" lon="11.07033819258793"><ele>150.0</ele><time>2026-03-29T09:48:18.006Z</time></trkpt><trkpt lat="43.534946266662274" lon="11.070215586896191"><ele>150.0</ele><time>2026-03-29T09:48:19.006Z</time></trkpt><trkpt lat="43.53491137472824" lon="11.070097308100795"><ele>150.0</ele><time>2026-03-29T09:48:20.006Z</time></trkpt><trkpt lat="43.53487770765704" lon="11.069973076686683"><ele>150.0</ele><time>2026-03-29T09:48:21.006Z</time></trkpt><trkpt lat="43.534851983596084" lon="11.069840971758417"><ele>150.0</ele><time>2026-03-29T09:48:22.006Z</time></trkpt><trkpt lat="43.534816066514125" lon="11.069713559215712"><ele>150.0</ele><time>2026-03-29T09:48:23.009Z</time></trkpt><trkpt lat="43.53479101306915" lon="11.069572825510544"><ele>148.5</ele><time>2026-03-29T09:48:24.008Z</time></trkpt><trkpt lat="43.53475717526345" lon="11.06941869319995"><ele>147.0</ele><time>2026-03-29T09:48:25.008Z</time></trkpt><trkpt lat="43.53472100120269" lon="11.069263565342359"><ele>145.5</ele><time>2026-03-29T09:48:26.008Z</time></trkpt><trkpt lat="43.53468470418368" lon="11.069108596374319"><ele>144.0</ele><time>2026-03-29T09:48:27.009Z</time></trkpt><trkpt lat="43.53464596880867" lon="11.068973425819928"><ele>142.8</ele><time>2026-03-29T09:48:28.009Z</time></trkpt><trkpt lat="43.53460511893797" lon="11.06884628081576"><ele>141.60000000000002</ele><time>2026-03-29T09:48:29.009Z</time></trkpt><trkpt lat="43.53455849796955" lon="11.068707333673665"><ele>140.4</ele><time>2026-03-29T09:48:30.008Z</time></trkpt><trkpt lat="43.53450959417125" lon="11.068577646428281"><ele>139.20000000000002</ele><time>2026-03-29T09:48:31.008Z</time></trkpt><trkpt lat="43.53445637585462" lon="11.068469525852684"><ele>138.0</ele><time>2026-03-29T09:48:32.008Z</time></trkpt><trkpt lat="43.53440711401229" lon="11.068407553956662"><ele>140.6</ele><time>2026-03-29T09:48:33.009Z</time></trkpt><trkpt lat="43.53432778697244" lon="11.068354349268946"><ele>143.20000000000002</ele><time>2026-03-29T09:48:35.008Z</time></trkpt><trkpt lat="43.53429130002648" lon="11.068282879780366"><ele>145.8</ele><time>2026-03-29T09:48:37.009Z</time></trkpt><trkpt lat="43.534250472080124" lon="11.068118341161815"><ele>148.4</ele><time>2026-03-29T09:48:39.009Z</time></trkpt><trkpt lat="43.53422042807936" lon="11.067977227187285"><ele>151.0</ele><time>2026-03-29T09:48:41.009Z</time></trkpt><trkpt lat="43.534175887808004" lon="11.067828441176111"><ele>151.0</ele><time>2026-03-29T09:48:43.009Z</time></trkpt><trkpt lat="43.53410230165991" lon="11.067687560417587"><ele>151.0</ele><time>2026-03-29T09:48:45.009Z</time></trkpt><trkpt lat="43.53404571866952" lon="11.067626977179595"><ele>151.0</ele><time>2026-03-29T09:48:46.009Z</time></trkpt><trkpt lat="43.533992562279714" lon="11.067569412833814"><ele>151.0</ele><time>2026-03-29T09:48:47.009Z</time></trkpt><trkpt lat="43.533907947349654" lon="11.067470252046501"><ele>151.0</ele><time>2026-03-29T09:48:49.009Z</time></trkpt><trkpt lat="43.533821091223494" lon="11.067355116301222"><ele>149.16666666666669</ele><time>2026-03-29T09:48:51.009Z</time></trkpt><trkpt lat="43.53376523097584" lon="11.06728789422685"><ele>147.33333333333334</ele><time>2026-03-29T09:48:52.009Z</time></trkpt><trkpt lat="43.533710489180066" lon="11.067215585586002"><ele>145.5</ele><time>2026-03-29T09:48:53.009Z</time></trkpt><trkpt lat="43.53365916044271" lon="11.06716127464583"><ele>143.66666666666666</ele><time>2026-03-29T09:48:54.008Z</time></trkpt><trkpt lat="43.53359275817192" lon="11.067071007965774"><ele>141.83333333333331</ele><time>2026-03-29T09:48:56.008Z</time></trkpt><trkpt lat="43.53352778812563" lon="11.06695670145029"><ele>140.0</ele><time>2026-03-29T09:48:58.008Z</time></trkpt><trkpt lat="43.533483936646" lon="11.066882239039941"><ele>140.0</ele><time>2026-03-29T09:48:59.008Z</time></trkpt><trkpt lat="43.533430622494265" lon="11.066793997554935"><ele>140.0</ele><time>2026-03-29T09:49:00.008Z</time></trkpt><trkpt lat="43.533387734260444" lon="11.066714116896124"><ele>140.0</ele><time>2026-03-29T09:49:01.008Z</time></trkpt><trkpt lat="43.533342914208816" lon="11.06663011984087"><ele>140.0</ele><time>2026-03-29T09:49:02.008Z</time></trkpt><trkpt lat="43.53329555646995" lon="11.066548131549792"><ele>140.0</ele><time>2026-03-29T09:49:03.008Z</time></trkpt><trkpt lat="43.53321147304466" lon="11.06643527889637"><ele>140.0</ele><time>2026-03-29T09:49:05.008Z</time></trkpt><trkpt lat="43.53315856591352" lon="11.066370059428758"><ele>138.66666666666666</ele><time>2026-03-29T09:49:06.008Z</time></trkpt><trkpt lat="43.53309654776814" lon="11.06631474229332"><ele>137.33333333333331</ele><time>2026-03-29T09:49:07.008Z</time></trkpt><trkpt lat="43.53304162866103" lon="11.066244554467849"><ele>136.0</ele><time>2026-03-29T09:49:08.008Z</time></trkpt><trkpt lat="43.532983729167476" lon="11.06618434717426"><ele>134.66666666666666</ele><time>2026-03-29T09:49:09.008Z</time></trkpt><trkpt lat="43.53292058554026" lon="11.066125946595704"><ele>133.33333333333334</ele><time>2026-03-29T09:49:10.008Z</time></trkpt><trkpt lat="43.532815026665574" lon="11.066024191929507"><ele>132.0</ele><time>2026-03-29T09:49:12.008Z</time></trkpt><trkpt lat="43.532756759094404" lon="11.0659639758672"><ele>130.16666666666666</ele><time>2026-03-29T09:49:13.008Z</time></trkpt><trkpt lat="43.53269603012126" lon="11.065901665237252"><ele>128.33333333333334</ele><time>2026-03-29T09:49:14.008Z</time></trkpt><trkpt lat="43.53263496118054" lon="11.065838791126987"><ele>126.5</ele><time>2026-03-29T09:49:15.008Z</time></trkpt><trkpt lat="43.532569144316035" lon="11.065768461006146"><ele>124.66666666666667</ele><time>2026-03-29T09:49:16.008Z</time></trkpt><trkpt lat="43.53250034045964" lon="11.0656952273083"><ele>122.83333333333334</ele><time>2026-03-29T09:49:17.008Z</time></trkpt><trkpt lat="43.53243071662278" lon="11.065626121589455"><ele>121.0</ele><time>2026-03-29T09:49:18.008Z</time></trkpt><trkpt lat="43.532359404884396" lon="11.065555489283451"><ele>120.00000000000001</ele><time>2026-03-29T09:49:19.008Z</time></trkpt><trkpt lat="43.532285811743606" lon="11.06548830006789"><ele>119.0</ele><time>2026-03-29T09:49:20.008Z</time></trkpt><trkpt lat="43.532211693786124" lon="11.065411945980843"><ele>118.0</ele><time>2026-03-29T09:49:21.008Z</time></trkpt><trkpt lat="43.53215224776255" lon="11.06534278909569"><ele>117.0</ele><time>2026-03-29T09:49:22.008Z</time></trkpt><trkpt lat="43.53208402200972" lon="11.065267998892695"><ele>116.00000000000001</ele><time>2026-03-29T09:49:23.008Z</time></trkpt><trkpt lat="43.53200659373218" lon="11.065202462953389"><ele>115.0</ele><time>2026-03-29T09:49:24.008Z</time></trkpt><trkpt lat="43.53192641767312" lon="11.06511633979876"><ele>113.6</ele><time>2026-03-29T09:49:25.008Z</time></trkpt><trkpt lat="43.53183803496903" lon="11.065025977093466"><ele>112.2</ele><time>2026-03-29T09:49:26.008Z</time></trkpt><trkpt lat="43.53176335172498" lon="11.064953317515206"><ele>110.80000000000001</ele><time>2026-03-29T09:49:27.008Z</time></trkpt><trkpt lat="43.53168973768462" lon="11.064874757416911"><ele>109.4</ele><time>2026-03-29T09:49:28.008Z</time></trkpt><trkpt lat="43.53162809681853" lon="11.064807549794027"><ele>108.0</ele><time>2026-03-29T09:49:29.008Z</time></trkpt><trkpt lat="43.53156135122649" lon="11.064727922528032"><ele>107.83333333333333</ele><time>2026-03-29T09:49:30.008Z</time></trkpt><trkpt lat="43.531493768488" lon="11.064648670693503"><ele>107.66666666666666</ele><time>2026-03-29T09:49:31.008Z</time></trkpt><trkpt lat="43.53143313274721" lon="11.064576053813548"><ele>107.5</ele><time>2026-03-29T09:49:32.008Z</time></trkpt><trkpt lat="43.53138777686713" lon="11.064486831382268"><ele>107.33333333333333</ele><time>2026-03-29T09:49:33.008Z</time></trkpt><trkpt lat="43.5313430943868" lon="11.064393855564044"><ele>107.16666666666666</ele><time>2026-03-29T09:49:34.008Z</time></trkpt><trkpt lat="43.531317365860474" lon="11.064280946712886"><ele>107.0</ele><time>2026-03-29T09:49:35.008Z</time></trkpt><trkpt lat="43.53130728091698" lon="11.064184602159614"><ele>105.49999999999999</ele><time>2026-03-29T09:49:36.008Z</time></trkpt><trkpt lat="43.53129778692881" lon="11.064064052761236"><ele>104.0</ele><time>2026-03-29T09:49:37.008Z</time></trkpt><trkpt lat="43.53128957991426" lon="11.063940197322971"><ele>102.5</ele><time>2026-03-29T09:49:38.008Z</time></trkpt><trkpt lat="43.531270771831025" lon="11.063832998892533"><ele>101.0</ele><time>2026-03-29T09:49:39.008Z</time></trkpt><trkpt lat="43.53125106267436" lon="11.063727868354922"><ele>99.49999999999999</ele><time>2026-03-29T09:49:40.008Z</time></trkpt><trkpt lat="43.5312332604166" lon="11.063628041710588"><ele>98.0</ele><time>2026-03-29T09:49:41.008Z</time></trkpt><trkpt lat="43.53120718808862" lon="11.063467886337635"><ele>96.83333333333333</ele><time>2026-03-29T09:49:43.008Z</time></trkpt><trkpt lat="43.53117300147792" lon="11.063368243737143"><ele>95.66666666666666</ele><time>2026-03-29T09:49:45.008Z</time></trkpt><trkpt lat="43.531094435008356" lon="11.06334868485927"><ele>94.5</ele><time>2026-03-29T09:49:47.008Z</time></trkpt><trkpt lat="43.53100370537979" lon="11.063443171847181"><ele>93.33333333333333</ele><time>2026-03-29T09:49:49.008Z</time></trkpt><trkpt lat="43.53095035814237" lon="11.06351077836542"><ele>92.16666666666666</ele><time>2026-03-29T09:49:50.008Z</time></trkpt><trkpt lat="43.53089540619955" lon="11.063567634662165"><ele>91.0</ele><time>2026-03-29T09:49:51.008Z</time></trkpt><trkpt lat="43.53082746731365" lon="11.063597412504347"><ele>91.0</ele><time>2026-03-29T09:49:52.008Z</time></trkpt><trkpt lat="43.5307608711481" lon="11.063586895972206"><ele>91.0</ele><time>2026-03-29T09:49:53.008Z</time></trkpt><trkpt lat="43.53069651133224" lon="11.063530275405197"><ele>91.0</ele><time>2026-03-29T09:49:54.008Z</time></trkpt><trkpt lat="43.530634547368265" lon="11.063451134225494"><ele>91.0</ele><time>2026-03-29T09:49:55.008Z</time></trkpt><trkpt lat="43.53058434644539" lon="11.063387070016281"><ele>91.0</ele><time>2026-03-29T09:49:56.008Z</time></trkpt><trkpt lat="43.53052230120796" lon="11.063327937768053"><ele>91.0</ele><time>2026-03-29T09:49:57.008Z</time></trkpt><trkpt lat="43.53045717365932" lon="11.063259379515559"><ele>89.66666666666666</ele><time>2026-03-29T09:49:58.008Z</time></trkpt><trkpt lat="43.53041413716337" lon="11.063175275472318"><ele>88.33333333333333</ele><time>2026-03-29T09:49:59.008Z</time></trkpt><trkpt lat="43.53038017156595" lon="11.063069117087315"><ele>87.0</ele><time>2026-03-29T09:50:00.008Z</time></trkpt><trkpt lat="43.53035082198616" lon="11.062943809308644"><ele>85.66666666666667</ele><time>2026-03-29T09:50:01.008Z</time></trkpt><trkpt lat="43.5303144071999" lon="11.062807358293393"><ele>84.33333333333334</ele><time>2026-03-29T09:50:02.008Z</time></trkpt><trkpt lat="43.53028748469203" lon="11.062708068071547"><ele>83.0</ele><time>2026-03-29T09:50:03.008Z</time></trkpt><trkpt lat="43.53025398854535" lon="11.0626006274467"><ele>82.0</ele><time>2026-03-29T09:50:05.008Z</time></trkpt><trkpt lat="43.53019017699172" lon="11.06255987143678"><ele>81.0</ele><time>2026-03-29T09:50:09.008Z</time></trkpt><trkpt lat="43.53009907322958" lon="11.062664436369408"><ele>80.0</ele><time>2026-03-29T09:50:11.008Z</time></trkpt><trkpt lat="43.53008043867839" lon="11.062758850594928"><ele>79.0</ele><time>2026-03-29T09:50:12.008Z</time></trkpt><trkpt lat="43.53006123315968" lon="11.06284339774183"><ele>78.0</ele><time>2026-03-29T09:50:13.008Z</time></trkpt><trkpt lat="43.53003441662258" lon="11.06296768127128"><ele>77.0</ele><time>2026-03-29T09:50:15.008Z</time></trkpt><trkpt lat="43.530017509559066" lon="11.063059986236407"><ele>77.0</ele><time>2026-03-29T09:50:22.008Z</time></trkpt><trkpt lat="43.53007197804247" lon="11.06301066367716"><ele>77.0</ele><time>2026-03-29T09:50:42.011Z</time></trkpt><trkpt lat="43.530095361619296" lon="11.062913781898372"><ele>77.0</ele><time>2026-03-29T09:50:43.011Z</time></trkpt><trkpt lat="43.53010982986386" lon="11.062794993263937"><ele>77.0</ele><time>2026-03-29T09:50:44.011Z</time></trkpt><trkpt lat="43.53013361923064" lon="11.06268318369399"><ele>77.0</ele><time>2026-03-29T09:50:45.011Z</time></trkpt><trkpt lat="43.53015093865506" lon="11.062584439595263"><ele>77.0</ele><time>2026-03-29T09:50:46.011Z</time></trkpt><trkpt lat="43.530153278540276" lon="11.062496650374293"><ele>77.0</ele><time>2026-03-29T09:50:47.011Z</time></trkpt><trkpt lat="43.53014869342319" lon="11.062387868273913"><ele>76.33333333333334</ele><time>2026-03-29T09:50:49.011Z</time></trkpt><trkpt lat="43.5300813484286" lon="11.062323813124209"><ele>75.66666666666667</ele><time>2026-03-29T09:50:56.011Z</time></trkpt><trkpt lat="43.5299981722769" lon="11.06225985380042"><ele>75.0</ele><time>2026-03-29T09:50:58.011Z</time></trkpt><trkpt lat="43.52993766002929" lon="11.062206132553088"><ele>74.33333333333333</ele><time>2026-03-29T09:51:00.011Z</time></trkpt><trkpt lat="43.52985983659213" lon="11.062156627826257"><ele>73.66666666666666</ele><time>2026-03-29T09:51:03.011Z</time></trkpt><trkpt lat="43.52978835181859" lon="11.062129795458203"><ele>73.0</ele><time>2026-03-29T09:51:13.011Z</time></trkpt><trkpt lat="43.52972226729381" lon="11.06211322916967"><ele>73.0</ele><time>2026-03-29T09:51:15.011Z</time></trkpt><trkpt lat="43.5296189385815" lon="11.062184312630388"><ele>73.0</ele><time>2026-03-29T09:51:17.011Z</time></trkpt><trkpt lat="43.529571006861495" lon="11.062342616740452"><ele>73.0</ele><time>2026-03-29T09:51:19.011Z</time></trkpt><trkpt lat="43.52955103728696" lon="11.062453044568127"><ele>73.0</ele><time>2026-03-29T09:51:20.011Z</time></trkpt><trkpt lat="43.52951716676614" lon="11.062568976629914"><ele>73.0</ele><time>2026-03-29T09:51:21.011Z</time></trkpt><trkpt lat="43.52950372089549" lon="11.062688826092357"><ele>73.0</ele><time>2026-03-29T09:51:22.011Z</time></trkpt><trkpt lat="43.52948458577005" lon="11.06281588403749"><ele>73.0</ele><time>2026-03-29T09:51:23.011Z</time></trkpt><trkpt lat="43.52947285059297" lon="11.06293754025886"><ele>73.0</ele><time>2026-03-29T09:51:24.011Z</time></trkpt><trkpt lat="43.529455002863266" lon="11.06305740633335"><ele>73.0</ele><time>2026-03-29T09:51:25.011Z</time></trkpt><trkpt lat="43.52942641784639" lon="11.063180020934661"><ele>73.0</ele><time>2026-03-29T09:51:26.01Z</time></trkpt><trkpt lat="43.52939558811406" lon="11.063326931513572"><ele>73.0</ele><time>2026-03-29T09:51:27.01Z</time></trkpt><trkpt lat="43.52937201986968" lon="11.063457768776496"><ele>73.0</ele><time>2026-03-29T09:51:28.01Z</time></trkpt><trkpt lat="43.529337271992006" lon="11.063591112730087"><ele>73.0</ele><time>2026-03-29T09:51:29.01Z</time></trkpt><trkpt lat="43.52932291561922" lon="11.063726315212204"><ele>73.0</ele><time>2026-03-29T09:51:30.01Z</time></trkpt><trkpt lat="43.52931406292574" lon="11.06386008680421"><ele>73.0</ele><time>2026-03-29T09:51:31.01Z</time></trkpt><trkpt lat="43.5293028261494" lon="11.064020315615497"><ele>72.75</ele><time>2026-03-29T09:51:32.01Z</time></trkpt><trkpt lat="43.52928894168093" lon="11.06417966850719"><ele>72.5</ele><time>2026-03-29T09:51:33.01Z</time></trkpt><trkpt lat="43.52927671143991" lon="11.064338074608578"><ele>72.25</ele><time>2026-03-29T09:51:34.01Z</time></trkpt><trkpt lat="43.529264114358014" lon="11.064508577231889"><ele>72.0</ele><time>2026-03-29T09:51:35.01Z</time></trkpt><trkpt lat="43.529244935777335" lon="11.064669032053823"><ele>72.0</ele><time>2026-03-29T09:51:36.01Z</time></trkpt><trkpt lat="43.529228674670925" lon="11.064796782083551"><ele>72.0</ele><time>2026-03-29T09:51:37.01Z</time></trkpt><trkpt lat="43.529203348253304" lon="11.064927292213774"><ele>72.0</ele><time>2026-03-29T09:51:38.01Z</time></trkpt><trkpt lat="43.52919390110754" lon="11.065075978698362"><ele>72.0</ele><time>2026-03-29T09:51:39.01Z</time></trkpt><trkpt lat="43.52916996884146" lon="11.065244245096114"><ele>72.0</ele><time>2026-03-29T09:51:40.01Z</time></trkpt><trkpt lat="43.52914601105161" lon="11.065429578894214"><ele>72.0</ele><time>2026-03-29T09:51:41.01Z</time></trkpt><trkpt lat="43.52913339887742" lon="11.065604049796027"><ele>72.0</ele><time>2026-03-29T09:51:42.01Z</time></trkpt><trkpt lat="43.52911624619674" lon="11.065758864681097"><ele>72.0</ele><time>2026-03-29T09:51:43.01Z</time></trkpt><trkpt lat="43.529093290142505" lon="11.06588375189416"><ele>72.0</ele><time>2026-03-29T09:51:44.01Z</time></trkpt><trkpt lat="43.52908163224255" lon="11.066008205871915"><ele>72.0</ele><time>2026-03-29T09:51:45.01Z</time></trkpt><trkpt lat="43.529065768384065" lon="11.066137958133185"><ele>71.8</ele><time>2026-03-29T09:51:46.01Z</time></trkpt><trkpt lat="43.529048596092515" lon="11.066265929668909"><ele>71.6</ele><time>2026-03-29T09:51:47.01Z</time></trkpt><trkpt lat="43.529026817542544" lon="11.066416449894255"><ele>71.39999999999999</ele><time>2026-03-29T09:51:48.01Z</time></trkpt><trkpt lat="43.52901675036331" lon="11.066570221353166"><ele>71.2</ele><time>2026-03-29T09:51:49.01Z</time></trkpt><trkpt lat="43.5289989401835" lon="11.066729221634267"><ele>71.0</ele><time>2026-03-29T09:51:50.01Z</time></trkpt><trkpt lat="43.52898712045026" lon="11.066901499493357"><ele>71.0</ele><time>2026-03-29T09:51:51.01Z</time></trkpt><trkpt lat="43.52897164762456" lon="11.067065676514858"><ele>71.0</ele><time>2026-03-29T09:51:52.01Z</time></trkpt><trkpt lat="43.528955458349856" lon="11.067224576645376"><ele>71.0</ele><time>2026-03-29T09:51:53.01Z</time></trkpt><trkpt lat="43.52893415723868" lon="11.067358851449402"><ele>71.0</ele><time>2026-03-29T09:51:54.01Z</time></trkpt><trkpt lat="43.52891726288543" lon="11.0674928339293"><ele>71.0</ele><time>2026-03-29T09:51:55.01Z</time></trkpt><trkpt lat="43.528906547502125" lon="11.067642721468719"><ele>71.0</ele><time>2026-03-29T09:51:56.01Z</time></trkpt><trkpt lat="43.528894876446756" lon="11.067782300277361"><ele>71.0</ele><time>2026-03-29T09:51:57.01Z</time></trkpt><trkpt lat="43.5288734085578" lon="11.067938374323326"><ele>71.0</ele><time>2026-03-29T09:51:58.01Z</time></trkpt><trkpt lat="43.52884839299025" lon="11.068100429363952"><ele>71.0</ele><time>2026-03-29T09:51:59.01Z</time></trkpt><trkpt lat="43.52882819417299" lon="11.068269028318973"><ele>71.0</ele><time>2026-03-29T09:52:00.01Z</time></trkpt><trkpt lat="43.528815030572716" lon="11.068424326584468"><ele>71.0</ele><time>2026-03-29T09:52:01.01Z</time></trkpt><trkpt lat="43.52880302388429" lon="11.068565258319277"><ele>71.0</ele><time>2026-03-29T09:52:02.01Z</time></trkpt><trkpt lat="43.528797117711854" lon="11.068694789912186"><ele>71.0</ele><time>2026-03-29T09:52:03.01Z</time></trkpt><trkpt lat="43.52878154548077" lon="11.068795193974054"><ele>71.0</ele><time>2026-03-29T09:52:04.01Z</time></trkpt><trkpt lat="43.52872783170978" lon="11.06891221042093"><ele>71.16666666666667</ele><time>2026-03-29T09:52:06.01Z</time></trkpt><trkpt lat="43.52867648459931" lon="11.0688563297491"><ele>71.33333333333334</ele><time>2026-03-29T09:52:08.01Z</time></trkpt><trkpt lat="43.528587021815326" lon="11.068839247698676"><ele>71.5</ele><time>2026-03-29T09:52:11.01Z</time></trkpt><trkpt lat="43.52847544042084" lon="11.068848918063555"><ele>71.66666666666667</ele><time>2026-03-29T09:52:13.01Z</time></trkpt><trkpt lat="43.52837508868754" lon="11.06883609262741"><ele>71.83333333333333</ele><time>2026-03-29T09:52:14.01Z</time></trkpt><trkpt lat="43.52829646723844" lon="11.068818277846098"><ele>72.0</ele><time>2026-03-29T09:52:15.01Z</time></trkpt><trkpt lat="43.528192847888626" lon="11.068868274689933"><ele>72.0</ele><time>2026-03-29T09:52:17.01Z</time></trkpt><trkpt lat="43.52815758255082" lon="11.068981975761414"><ele>72.0</ele><time>2026-03-29T09:52:19.01Z</time></trkpt><trkpt lat="43.5281055279935" lon="11.069146134126598"><ele>72.0</ele><time>2026-03-29T09:52:21.01Z</time></trkpt><trkpt lat="43.52806553846633" lon="11.06924255075551"><ele>72.0</ele><time>2026-03-29T09:52:22.01Z</time></trkpt><trkpt lat="43.52802548400356" lon="11.06940024542764"><ele>72.0</ele><time>2026-03-29T09:52:24.01Z</time></trkpt><trkpt lat="43.5279668715038" lon="11.069562026742014"><ele>72.0</ele><time>2026-03-29T09:52:26.01Z</time></trkpt><trkpt lat="43.527908209749896" lon="11.06972056874526"><ele>72.0</ele><time>2026-03-29T09:52:28.01Z</time></trkpt><trkpt lat="43.52787411857256" lon="11.069816095402391"><ele>72.0</ele><time>2026-03-29T09:52:29.01Z</time></trkpt><trkpt lat="43.52783851559335" lon="11.069911879515995"><ele>72.0</ele><time>2026-03-29T09:52:30.01Z</time></trkpt><trkpt lat="43.52780686576946" lon="11.070002703076076"><ele>72.0</ele><time>2026-03-29T09:52:31.01Z</time></trkpt><trkpt lat="43.527744631587176" lon="11.070173245339117"><ele>72.0</ele><time>2026-03-29T09:52:33.01Z</time></trkpt><trkpt lat="43.527717641908495" lon="11.070259287505982"><ele>72.0</ele><time>2026-03-29T09:52:34.01Z</time></trkpt><trkpt lat="43.52768138618804" lon="11.070354247190865"><ele>72.0</ele><time>2026-03-29T09:52:35.012Z</time></trkpt><trkpt lat="43.527645561436636" lon="11.070455295366902"><ele>72.0</ele><time>2026-03-29T09:52:36.011Z</time></trkpt><trkpt lat="43.52761570710152" lon="11.070539776688605"><ele>72.0</ele><time>2026-03-29T09:52:37.011Z</time></trkpt><trkpt lat="43.52758220224023" lon="11.070615684888796"><ele>72.0</ele><time>2026-03-29T09:52:38.012Z</time></trkpt><trkpt lat="43.52749628431414" lon="11.070710563987678"><ele>72.0</ele><time>2026-03-29T09:52:40.012Z</time></trkpt><trkpt lat="43.527387186145106" lon="11.070664500319305"><ele>72.0</ele><time>2026-03-29T09:52:42.012Z</time></trkpt><trkpt lat="43.52729407193611" lon="11.070551249188423"><ele>72.0</ele><time>2026-03-29T09:52:44.012Z</time></trkpt><trkpt lat="43.527213195248926" lon="11.070476052694303"><ele>72.0</ele><time>2026-03-29T09:52:45.012Z</time></trkpt><trkpt lat="43.52712126398664" lon="11.070398860933443"><ele>72.0</ele><time>2026-03-29T09:52:46.012Z</time></trkpt><trkpt lat="43.52703352495216" lon="11.070312784738874"><ele>71.66666666666667</ele><time>2026-03-29T09:52:47.012Z</time></trkpt><trkpt lat="43.526951036859096" lon="11.070227836206476"><ele>71.33333333333333</ele><time>2026-03-29T09:52:48.012Z</time></trkpt><trkpt lat="43.526874032672005" lon="11.070159633458458"><ele>71.0</ele><time>2026-03-29T09:52:49.012Z</time></trkpt><trkpt lat="43.526806777761905" lon="11.07009320982108"><ele>70.66666666666666</ele><time>2026-03-29T09:52:50.012Z</time></trkpt><trkpt lat="43.52673841263209" lon="11.070029702031357"><ele>70.33333333333333</ele><time>2026-03-29T09:52:51.012Z</time></trkpt><trkpt lat="43.52668513769268" lon="11.06997286359367"><ele>70.0</ele><time>2026-03-29T09:52:52.012Z</time></trkpt><trkpt lat="43.526574938401346" lon="11.069915666002489"><ele>69.83333333333333</ele><time>2026-03-29T09:52:54.012Z</time></trkpt><trkpt lat="43.52650979734212" lon="11.06991138955389"><ele>69.66666666666666</ele><time>2026-03-29T09:52:55.012Z</time></trkpt><trkpt lat="43.52644722603646" lon="11.069901761170835"><ele>69.5</ele><time>2026-03-29T09:52:56.012Z</time></trkpt><trkpt lat="43.52638265119362" lon="11.069904815116688"><ele>69.33333333333333</ele><time>2026-03-29T09:52:57.012Z</time></trkpt><trkpt lat="43.52631654355884" lon="11.069911158612095"><ele>69.16666666666667</ele><time>2026-03-29T09:52:58.012Z</time></trkpt><trkpt lat="43.52620669175926" lon="11.069900831496632"><ele>69.0</ele><time>2026-03-29T09:53:00.012Z</time></trkpt><trkpt lat="43.52610996853589" lon="11.069814236699939"><ele>69.5</ele><time>2026-03-29T09:53:02.012Z</time></trkpt><trkpt lat="43.52604836033712" lon="11.06976322508497"><ele>70.0</ele><time>2026-03-29T09:53:03.012Z</time></trkpt><trkpt lat="43.52598483894956" lon="11.069708070454997"><ele>70.5</ele><time>2026-03-29T09:53:04.012Z</time></trkpt><trkpt lat="43.52592338675791" lon="11.069662145050666"><ele>71.0</ele><time>2026-03-29T09:53:05.012Z</time></trkpt><trkpt lat="43.525862201227795" lon="11.069610825773724"><ele>71.5</ele><time>2026-03-29T09:53:06.012Z</time></trkpt><trkpt lat="43.52578445913609" lon="11.069608589132647"><ele>72.0</ele><time>2026-03-29T09:53:08.012Z</time></trkpt><trkpt lat="43.52574406543762" lon="11.069729830155739"><ele>72.0</ele><time>2026-03-29T09:53:10.012Z</time></trkpt><trkpt lat="43.52570169689502" lon="11.069858202428849"><ele>72.0</ele><time>2026-03-29T09:53:12.012Z</time></trkpt><trkpt lat="43.52566090677773" lon="11.069946190780817"><ele>72.0</ele><time>2026-03-29T09:53:14.012Z</time></trkpt><trkpt lat="43.5256283321558" lon="11.070038977658523"><ele>72.0</ele><time>2026-03-29T09:53:16.012Z</time></trkpt><trkpt lat="43.52558210229614" lon="11.070178353029654"><ele>72.0</ele><time>2026-03-29T09:53:18.012Z</time></trkpt><trkpt lat="43.52554980958141" lon="11.07027038534782"><ele>72.0</ele><time>2026-03-29T09:53:19.012Z</time></trkpt><trkpt lat="43.525523526056226" lon="11.070355420419693"><ele>71.83333333333333</ele><time>2026-03-29T09:53:20.012Z</time></trkpt><trkpt lat="43.52549283808871" lon="11.070441032950338"><ele>71.66666666666667</ele><time>2026-03-29T09:53:21.012Z</time></trkpt><trkpt lat="43.52545180205149" lon="11.070538914238432"><ele>71.5</ele><time>2026-03-29T09:53:22.012Z</time></trkpt><trkpt lat="43.525403362244965" lon="11.07065667363247"><ele>71.33333333333334</ele><time>2026-03-29T09:53:23.012Z</time></trkpt><trkpt lat="43.525360520029295" lon="11.070776550791683"><ele>71.16666666666667</ele><time>2026-03-29T09:53:24.012Z</time></trkpt><trkpt lat="43.52532513446197" lon="11.070900699912269"><ele>71.0</ele><time>2026-03-29T09:53:25.012Z</time></trkpt><trkpt lat="43.52527872160438" lon="11.071014519785285"><ele>71.5</ele><time>2026-03-29T09:53:26.012Z</time></trkpt><trkpt lat="43.525224737286926" lon="11.071144550212637"><ele>72.0</ele><time>2026-03-29T09:53:27.012Z</time></trkpt><trkpt lat="43.52517162122578" lon="11.071244777267603"><ele>72.5</ele><time>2026-03-29T09:53:28.012Z</time></trkpt><trkpt lat="43.525120092278435" lon="11.071314456115214"><ele>73.0</ele><time>2026-03-29T09:53:29.012Z</time></trkpt><trkpt lat="43.525062372265836" lon="11.071368415600741"><ele>73.5</ele><time>2026-03-29T09:53:30.012Z</time></trkpt><trkpt lat="43.52500047234656" lon="11.071396351131318"><ele>74.0</ele><time>2026-03-29T09:53:31.012Z</time></trkpt><trkpt lat="43.524865939530805" lon="11.071380408302192"><ele>74.0</ele><time>2026-03-29T09:53:33.012Z</time></trkpt><trkpt lat="43.52478031420576" lon="11.071336158536196"><ele>74.0</ele><time>2026-03-29T09:53:34.012Z</time></trkpt><trkpt lat="43.52470264545184" lon="11.071315679199426"><ele>74.0</ele><time>2026-03-29T09:53:35.012Z</time></trkpt><trkpt lat="43.524599302625845" lon="11.071376636858568"><ele>74.0</ele><time>2026-03-29T09:53:37.012Z</time></trkpt><trkpt lat="43.52456223423103" lon="11.071447424254695"><ele>74.0</ele><time>2026-03-29T09:53:38.012Z</time></trkpt><trkpt lat="43.52453061893338" lon="11.071538763733557"><ele>74.0</ele><time>2026-03-29T09:53:39.012Z</time></trkpt><trkpt lat="43.52448992105729" lon="11.07162970165339"><ele>74.5</ele><time>2026-03-29T09:53:40.012Z</time></trkpt><trkpt lat="43.52443763497075" lon="11.071706508991937"><ele>75.0</ele><time>2026-03-29T09:53:41.012Z</time></trkpt><trkpt lat="43.52437431515983" lon="11.071740085887692"><ele>75.5</ele><time>2026-03-29T09:53:42.012Z</time></trkpt><trkpt lat="43.52430469301604" lon="11.07174542584554"><ele>76.0</ele><time>2026-03-29T09:53:43.012Z</time></trkpt><trkpt lat="43.52423130101474" lon="11.071723382599787"><ele>76.5</ele><time>2026-03-29T09:53:44.012Z</time></trkpt><trkpt lat="43.52414752797964" lon="11.071693300507482"><ele>77.0</ele><time>2026-03-29T09:53:45.012Z</time></trkpt><trkpt lat="43.524056939189066" lon="11.071673943417924"><ele>77.0</ele><time>2026-03-29T09:53:46.012Z</time></trkpt><trkpt lat="43.523960715467794" lon="11.071657505535306"><ele>77.0</ele><time>2026-03-29T09:53:47.012Z</time></trkpt><trkpt lat="43.52385254577424" lon="11.07163947316135"><ele>77.0</ele><time>2026-03-29T09:53:48.012Z</time></trkpt><trkpt lat="43.523747196702345" lon="11.071627197711765"><ele>77.0</ele><time>2026-03-29T09:53:49.012Z</time></trkpt><trkpt lat="43.5236543475164" lon="11.071623003505259"><ele>77.0</ele><time>2026-03-29T09:53:50.012Z</time></trkpt><trkpt lat="43.52355912582826" lon="11.071598911374425"><ele>80.0</ele><time>2026-03-29T09:53:51.012Z</time></trkpt><trkpt lat="43.52346005782881" lon="11.071581290956857"><ele>83.0</ele><time>2026-03-29T09:53:52.012Z</time></trkpt><trkpt lat="43.52334220186278" lon="11.071564973465051"><ele>86.0</ele><time>2026-03-29T09:53:53.012Z</time></trkpt><trkpt lat="43.523223453392276" lon="11.071552629552327"><ele>89.0</ele><time>2026-03-29T09:53:54.012Z</time></trkpt><trkpt lat="43.52310910494193" lon="11.071540327572741"><ele>89.0</ele><time>2026-03-29T09:53:55.012Z</time></trkpt><trkpt lat="43.52299953833789" lon="11.071527391423388"><ele>89.0</ele><time>2026-03-29T09:53:56.012Z</time></trkpt><trkpt lat="43.52289555885647" lon="11.071512673525884"><ele>89.0</ele><time>2026-03-29T09:53:57.012Z</time></trkpt><trkpt lat="43.52278883835045" lon="11.071483048441571"><ele>89.0</ele><time>2026-03-29T09:53:58.012Z</time></trkpt><trkpt lat="43.522672820070085" lon="11.071471894651964"><ele>89.0</ele><time>2026-03-29T09:53:59.012Z</time></trkpt><trkpt lat="43.52254034973459" lon="11.071459159209768"><ele>90.33333333333334</ele><time>2026-03-29T09:54:00.012Z</time></trkpt><trkpt lat="43.52241917349436" lon="11.071443323011001"><ele>91.66666666666667</ele><time>2026-03-29T09:54:01.012Z</time></trkpt><trkpt lat="43.52232180971317" lon="11.071430849491392"><ele>93.0</ele><time>2026-03-29T09:54:02.012Z</time></trkpt><trkpt lat="43.522240965527786" lon="11.071438930181493"><ele>94.33333333333334</ele><time>2026-03-29T09:54:03.012Z</time></trkpt><trkpt lat="43.522176211250695" lon="11.07146271050688"><ele>95.66666666666667</ele><time>2026-03-29T09:54:04.012Z</time></trkpt><trkpt lat="43.522128873541995" lon="11.071525451932029"><ele>97.0</ele><time>2026-03-29T09:54:05.012Z</time></trkpt><trkpt lat="43.52210266133897" lon="11.071606715260295"><ele>96.8</ele><time>2026-03-29T09:54:06.012Z</time></trkpt><trkpt lat="43.522088651425335" lon="11.071695326029719"><ele>96.6</ele><time>2026-03-29T09:54:07.012Z</time></trkpt><trkpt lat="43.52206768306084" lon="11.071779293769927"><ele>96.39999999999999</ele><time>2026-03-29T09:54:08.012Z</time></trkpt><trkpt lat="43.52203795365478" lon="11.071909134015165"><ele>96.19999999999999</ele><time>2026-03-29T09:54:09.012Z</time></trkpt><trkpt lat="43.522018687110815" lon="11.072065769837607"><ele>96.0</ele><time>2026-03-29T09:54:10.012Z</time></trkpt><trkpt lat="43.521967664591386" lon="11.07225829711721"><ele>96.0</ele><time>2026-03-29T09:54:11.012Z</time></trkpt><trkpt lat="43.52190555999243" lon="11.072412194777044"><ele>96.0</ele><time>2026-03-29T09:54:12.012Z</time></trkpt><trkpt lat="43.521864629497635" lon="11.072536785989211"><ele>96.0</ele><time>2026-03-29T09:54:13.012Z</time></trkpt><trkpt lat="43.521821027246" lon="11.072681986006435"><ele>96.0</ele><time>2026-03-29T09:54:14.012Z</time></trkpt><trkpt lat="43.52178267458192" lon="11.072845207296957"><ele>96.0</ele><time>2026-03-29T09:54:15.012Z</time></trkpt><trkpt lat="43.52174287085125" lon="11.073010008650671"><ele>96.0</ele><time>2026-03-29T09:54:16.012Z</time></trkpt><trkpt lat="43.521710932334365" lon="11.073124362903274"><ele>96.0</ele><time>2026-03-29T09:54:17.012Z</time></trkpt><trkpt lat="43.52167685071678" lon="11.073240153079697"><ele>96.0</ele><time>2026-03-29T09:54:18.012Z</time></trkpt><trkpt lat="43.521644258327136" lon="11.073360712044492"><ele>96.0</ele><time>2026-03-29T09:54:19.012Z</time></trkpt><trkpt lat="43.5215783090983" lon="11.073493657098462"><ele>95.0</ele><time>2026-03-29T09:54:20.012Z</time></trkpt><trkpt lat="43.52153948162332" lon="11.073633964198896"><ele>94.0</ele><time>2026-03-29T09:54:21.012Z</time></trkpt><trkpt lat="43.52151692390275" lon="11.073766116233191"><ele>93.0</ele><time>2026-03-29T09:54:22.012Z</time></trkpt><trkpt lat="43.52148652016403" lon="11.073891537671887"><ele>92.0</ele><time>2026-03-29T09:54:23.012Z</time></trkpt><trkpt lat="43.521443018404625" lon="11.07403679430377"><ele>91.0</ele><time>2026-03-29T09:54:24.012Z</time></trkpt><trkpt lat="43.521390680288825" lon="11.074168345742976"><ele>91.6</ele><time>2026-03-29T09:54:25.012Z</time></trkpt><trkpt lat="43.521350654220534" lon="11.074303222831622"><ele>92.19999999999999</ele><time>2026-03-29T09:54:26.012Z</time></trkpt><trkpt lat="43.52131099935393" lon="11.07443536684675"><ele>92.80000000000001</ele><time>2026-03-29T09:54:27.012Z</time></trkpt><trkpt lat="43.521275112987986" lon="11.074551607003501"><ele>93.4</ele><time>2026-03-29T09:54:28.012Z</time></trkpt><trkpt lat="43.521238522068586" lon="11.074668860578218"><ele>94.0</ele><time>2026-03-29T09:54:29.012Z</time></trkpt><trkpt lat="43.521203352330325" lon="11.0747787614657"><ele>94.0</ele><time>2026-03-29T09:54:30.012Z</time></trkpt><trkpt lat="43.52116785093967" lon="11.074889699294705"><ele>94.0</ele><time>2026-03-29T09:54:31.012Z</time></trkpt><trkpt lat="43.52113325481942" lon="11.074993696348793"><ele>94.0</ele><time>2026-03-29T09:54:32.012Z</time></trkpt><trkpt lat="43.52110118191584" lon="11.075092305377586"><ele>94.0</ele><time>2026-03-29T09:54:33.012Z</time></trkpt><trkpt lat="43.5210614699475" lon="11.075193750079835"><ele>94.0</ele><time>2026-03-29T09:54:34.011Z</time></trkpt><trkpt lat="43.52100129621423" lon="11.075284576973928"><ele>94.0</ele><time>2026-03-29T09:54:35.011Z</time></trkpt><trkpt lat="43.52091212690422" lon="11.075328787941997"><ele>90.75</ele><time>2026-03-29T09:54:36.011Z</time></trkpt><trkpt lat="43.52081640131655" lon="11.075385313195602"><ele>87.5</ele><time>2026-03-29T09:54:37.011Z</time></trkpt><trkpt lat="43.5207078912877" lon="11.075440360907328"><ele>84.25</ele><time>2026-03-29T09:54:38.011Z</time></trkpt><trkpt lat="43.52058537474631" lon="11.07554014054703"><ele>81.0</ele><time>2026-03-29T09:54:39.011Z</time></trkpt><trkpt lat="43.5204501114633" lon="11.075612788869865"><ele>80.25</ele><time>2026-03-29T09:54:40.011Z</time></trkpt><trkpt lat="43.52032937262283" lon="11.075718355342248"><ele>79.5</ele><time>2026-03-29T09:54:41.014Z</time></trkpt><trkpt lat="43.52020375224422" lon="11.075855149788758"><ele>78.75</ele><time>2026-03-29T09:54:42.014Z</time></trkpt><trkpt lat="43.52010480589346" lon="11.075963048062611"><ele>78.0</ele><time>2026-03-29T09:54:43.014Z</time></trkpt><trkpt lat="43.52002218612348" lon="11.076042859405883"><ele>78.0</ele><time>2026-03-29T09:54:44.013Z</time></trkpt><trkpt lat="43.519957194980414" lon="11.076108764121711"><ele>78.0</ele><time>2026-03-29T09:54:45.013Z</time></trkpt><trkpt lat="43.51986778769207" lon="11.076180141105535"><ele>78.0</ele><time>2026-03-29T09:54:46.013Z</time></trkpt><trkpt lat="43.51975536019303" lon="11.076265067077403"><ele>78.0</ele><time>2026-03-29T09:54:47.013Z</time></trkpt><trkpt lat="43.51962114976506" lon="11.076350535578653"><ele>77.5</ele><time>2026-03-29T09:54:48.013Z</time></trkpt><trkpt lat="43.519497428619644" lon="11.076445938904675"><ele>77.0</ele><time>2026-03-29T09:54:49.013Z</time></trkpt><trkpt lat="43.51937770354507" lon="11.076541753996016"><ele>76.5</ele><time>2026-03-29T09:54:50.014Z</time></trkpt><trkpt lat="43.519281716984295" lon="11.076619906235855"><ele>76.0</ele><time>2026-03-29T09:54:51.013Z</time></trkpt><trkpt lat="43.51918719050452" lon="11.076695196572627"><ele>76.0</ele><time>2026-03-29T09:54:52.013Z</time></trkpt><trkpt lat="43.519093801456215" lon="11.076757349540898"><ele>76.0</ele><time>2026-03-29T09:54:53.013Z</time></trkpt><trkpt lat="43.51897989784276" lon="11.07682104416964"><ele>76.0</ele><time>2026-03-29T09:54:54.013Z</time></trkpt><trkpt lat="43.51887464281509" lon="11.076872276888835"><ele>76.0</ele><time>2026-03-29T09:54:55.013Z</time></trkpt><trkpt lat="43.51877437867551" lon="11.076862401504904"><ele>76.0</ele><time>2026-03-29T09:54:56.013Z</time></trkpt><trkpt lat="43.51867985132676" lon="11.0768668002124"><ele>76.8</ele><time>2026-03-29T09:54:57.013Z</time></trkpt><trkpt lat="43.5185749177482" lon="11.076928688844266"><ele>77.6</ele><time>2026-03-29T09:54:58.013Z</time></trkpt><trkpt lat="43.51846457522444" lon="11.076916182421126"><ele>78.4</ele><time>2026-03-29T09:54:59.013Z</time></trkpt><trkpt lat="43.518353648403405" lon="11.076904585450585"><ele>79.2</ele><time>2026-03-29T09:55:00.013Z</time></trkpt><trkpt lat="43.518276762270155" lon="11.076903140442145"><ele>80.0</ele><time>2026-03-29T09:55:01.013Z</time></trkpt><trkpt lat="43.51819219146402" lon="11.076908006497934"><ele>80.0</ele><time>2026-03-29T09:55:02.013Z</time></trkpt><trkpt lat="43.51809468968884" lon="11.076922626280842"><ele>80.0</ele><time>2026-03-29T09:55:03.013Z</time></trkpt><trkpt lat="43.51797743418736" lon="11.076921075881174"><ele>80.0</ele><time>2026-03-29T09:55:04.013Z</time></trkpt><trkpt lat="43.5178622269934" lon="11.07690836580049"><ele>80.0</ele><time>2026-03-29T09:55:05.013Z</time></trkpt><trkpt lat="43.51777065429555" lon="11.076907096401225"><ele>80.0</ele><time>2026-03-29T09:55:06.013Z</time></trkpt><trkpt lat="43.517652644250035" lon="11.076902807661712"><ele>79.5</ele><time>2026-03-29T09:55:07.013Z</time></trkpt><trkpt lat="43.51752256140935" lon="11.07689929170524"><ele>79.0</ele><time>2026-03-29T09:55:08.013Z</time></trkpt><trkpt lat="43.51737643099566" lon="11.076897994526528"><ele>78.5</ele><time>2026-03-29T09:55:09.013Z</time></trkpt><trkpt lat="43.51724241753791" lon="11.076892736471837"><ele>78.0</ele><time>2026-03-29T09:55:10.013Z</time></trkpt><trkpt lat="43.51714169112713" lon="11.07686326642375"><ele>78.0</ele><time>2026-03-29T09:55:11.013Z</time></trkpt><trkpt lat="43.517028743628444" lon="11.076861119908024"><ele>78.0</ele><time>2026-03-29T09:55:12.013Z</time></trkpt><trkpt lat="43.51694323694274" lon="11.076873383306001"><ele>78.0</ele><time>2026-03-29T09:55:13.013Z</time></trkpt><trkpt lat="43.51684836202163" lon="11.076894757570614"><ele>78.0</ele><time>2026-03-29T09:55:14.013Z</time></trkpt><trkpt lat="43.51676356121476" lon="11.076927444251666"><ele>78.0</ele><time>2026-03-29T09:55:15.013Z</time></trkpt><trkpt lat="43.51666582913808" lon="11.076972385062643"><ele>78.0</ele><time>2026-03-29T09:55:16.013Z</time></trkpt><trkpt lat="43.51656171508694" lon="11.077020832929364"><ele>78.0</ele><time>2026-03-29T09:55:17.013Z</time></trkpt><trkpt lat="43.51645443859039" lon="11.077073389001175"><ele>78.0</ele><time>2026-03-29T09:55:18.013Z</time></trkpt><trkpt lat="43.516335397841004" lon="11.077125241057107"><ele>78.0</ele><time>2026-03-29T09:55:19.013Z</time></trkpt><trkpt lat="43.51621076485218" lon="11.077158330893111"><ele>78.6</ele><time>2026-03-29T09:55:20.013Z</time></trkpt><trkpt lat="43.516084981044024" lon="11.077178015353253"><ele>79.19999999999999</ele><time>2026-03-29T09:55:21.013Z</time></trkpt><trkpt lat="43.51596901482917" lon="11.0772137203912"><ele>79.8</ele><time>2026-03-29T09:55:22.013Z</time></trkpt><trkpt lat="43.515873939081644" lon="11.077229341637766"><ele>80.39999999999999</ele><time>2026-03-29T09:55:23.013Z</time></trkpt><trkpt lat="43.515790207522556" lon="11.077242324929461"><ele>81.0</ele><time>2026-03-29T09:55:24.013Z</time></trkpt><trkpt lat="43.515712584901344" lon="11.077257704540553"><ele>81.0</ele><time>2026-03-29T09:55:25.013Z</time></trkpt><trkpt lat="43.515647231561296" lon="11.077273568912439"><ele>81.0</ele><time>2026-03-29T09:55:26.013Z</time></trkpt><trkpt lat="43.51558683923539" lon="11.077305789993433"><ele>81.0</ele><time>2026-03-29T09:55:27.013Z</time></trkpt><trkpt lat="43.51550938557054" lon="11.077450878196407"><ele>81.0</ele><time>2026-03-29T09:55:29.013Z</time></trkpt><trkpt lat="43.51551040399904" lon="11.07755480335539"><ele>81.0</ele><time>2026-03-29T09:55:30.013Z</time></trkpt><trkpt lat="43.515525000763986" lon="11.077651112410429"><ele>81.0</ele><time>2026-03-29T09:55:31.013Z</time></trkpt><trkpt lat="43.51555010356737" lon="11.077743386089082"><ele>80.16666666666667</ele><time>2026-03-29T09:55:32.013Z</time></trkpt><trkpt lat="43.51560824003141" lon="11.07781103362163"><ele>79.33333333333333</ele><time>2026-03-29T09:55:33.013Z</time></trkpt><trkpt lat="43.51564847929896" lon="11.077909091895252"><ele>78.5</ele><time>2026-03-29T09:55:34.013Z</time></trkpt><trkpt lat="43.515695154435534" lon="11.078015230988832"><ele>77.66666666666666</ele><time>2026-03-29T09:55:35.013Z</time></trkpt><trkpt lat="43.51574067660751" lon="11.078116792431448"><ele>76.83333333333333</ele><time>2026-03-29T09:55:36.013Z</time></trkpt><trkpt lat="43.515774479326836" lon="11.078217008639648"><ele>76.0</ele><time>2026-03-29T09:55:37.013Z</time></trkpt><trkpt lat="43.51578892018923" lon="11.078303733055485"><ele>76.0</ele><time>2026-03-29T09:55:38.013Z</time></trkpt><trkpt lat="43.51573320461362" lon="11.078434569265314"><ele>76.0</ele><time>2026-03-29T09:55:40.013Z</time></trkpt><trkpt lat="43.51561746347921" lon="11.078551870658355"><ele>76.0</ele><time>2026-03-29T09:55:42.013Z</time></trkpt><trkpt lat="43.515547168359355" lon="11.078630290595592"><ele>76.0</ele><time>2026-03-29T09:55:43.013Z</time></trkpt><trkpt lat="43.51546808739744" lon="11.078733703781708"><ele>75.6</ele><time>2026-03-29T09:55:44.013Z</time></trkpt><trkpt lat="43.515378086703116" lon="11.07883792178864"><ele>75.19999999999999</ele><time>2026-03-29T09:55:45.013Z</time></trkpt><trkpt lat="43.51528469982674" lon="11.078947434283805"><ele>74.80000000000001</ele><time>2026-03-29T09:55:46.013Z</time></trkpt><trkpt lat="43.51520440321094" lon="11.079029758565317"><ele>74.4</ele><time>2026-03-29T09:55:47.013Z</time></trkpt><trkpt lat="43.5151443842782" lon="11.079104370404467"><ele>74.0</ele><time>2026-03-29T09:55:48.013Z</time></trkpt><trkpt lat="43.51508825258399" lon="11.079168247969838"><ele>74.0</ele><time>2026-03-29T09:55:49.013Z</time></trkpt><trkpt lat="43.51503637765092" lon="11.079244364219925"><ele>74.0</ele><time>2026-03-29T09:55:50.013Z</time></trkpt><trkpt lat="43.51497467259115" lon="11.079310321634484"><ele>74.0</ele><time>2026-03-29T09:55:51.013Z</time></trkpt><trkpt lat="43.514906591740306" lon="11.079393227014743"><ele>74.0</ele><time>2026-03-29T09:55:52.013Z</time></trkpt><trkpt lat="43.514847919553645" lon="11.079493181169505"><ele>74.0</ele><time>2026-03-29T09:55:53.013Z</time></trkpt><trkpt lat="43.51478971372022" lon="11.079559006624093"><ele>74.0</ele><time>2026-03-29T09:55:54.013Z</time></trkpt><trkpt lat="43.51473399235722" lon="11.079614847574975"><ele>74.0</ele><time>2026-03-29T09:55:55.013Z</time></trkpt><trkpt lat="43.514684040050255" lon="11.079674344250792"><ele>74.0</ele><time>2026-03-29T09:55:56.013Z</time></trkpt><trkpt lat="43.51462420369592" lon="11.079743827839577"><ele>74.0</ele><time>2026-03-29T09:55:57.013Z</time></trkpt><trkpt lat="43.514556255737" lon="11.079820733883137"><ele>74.0</ele><time>2026-03-29T09:55:58.013Z</time></trkpt><trkpt lat="43.514489863151034" lon="11.079910493488114"><ele>74.0</ele><time>2026-03-29T09:55:59.013Z</time></trkpt><trkpt lat="43.51441425018094" lon="11.079998335225524"><ele>74.0</ele><time>2026-03-29T09:56:00.013Z</time></trkpt><trkpt lat="43.5143506963875" lon="11.080068988230023"><ele>74.0</ele><time>2026-03-29T09:56:01.013Z</time></trkpt><trkpt lat="43.51429909927736" lon="11.080133664628782"><ele>74.0</ele><time>2026-03-29T09:56:02.013Z</time></trkpt><trkpt lat="43.51422629509973" lon="11.080192921522231"><ele>74.0</ele><time>2026-03-29T09:56:04.013Z</time></trkpt><trkpt lat="43.51415795131893" lon="11.080223899231141"><ele>74.0</ele><time>2026-03-29T09:56:23.013Z</time></trkpt><trkpt lat="43.51406048073459" lon="11.080260132664794"><ele>74.0</ele><time>2026-03-29T09:56:25.013Z</time></trkpt><trkpt lat="43.5139940979423" lon="11.080274832211678"><ele>74.0</ele><time>2026-03-29T09:56:26.013Z</time></trkpt><trkpt lat="43.513928411650475" lon="11.080294026234032"><ele>74.0</ele><time>2026-03-29T09:56:27.013Z</time></trkpt><trkpt lat="43.51386275207605" lon="11.080308029876758"><ele>74.0</ele><time>2026-03-29T09:56:28.013Z</time></trkpt><trkpt lat="43.51376284192106" lon="11.080336463273937"><ele>74.0</ele><time>2026-03-29T09:56:29.013Z</time></trkpt><trkpt lat="43.513661686707586" lon="11.080389534639323"><ele>74.0</ele><time>2026-03-29T09:56:30.013Z</time></trkpt><trkpt lat="43.51356328669801" lon="11.080424238655258"><ele>74.0</ele><time>2026-03-29T09:56:31.013Z</time></trkpt><trkpt lat="43.513456120854904" lon="11.080463120227511"><ele>74.0</ele><time>2026-03-29T09:56:32.013Z</time></trkpt><trkpt lat="43.51334631537702" lon="11.080510454118917"><ele>74.0</ele><time>2026-03-29T09:56:33.013Z</time></trkpt><trkpt lat="43.5132280765904" lon="11.080554033037957"><ele>74.0</ele><time>2026-03-29T09:56:34.013Z</time></trkpt><trkpt lat="43.51310298938182" lon="11.080600864662843"><ele>74.0</ele><time>2026-03-29T09:56:35.013Z</time></trkpt><trkpt lat="43.51297663067743" lon="11.080645090564056"><ele>73.75</ele><time>2026-03-29T09:56:36.013Z</time></trkpt><trkpt lat="43.512860557986514" lon="11.080700563664399"><ele>73.5</ele><time>2026-03-29T09:56:37.013Z</time></trkpt><trkpt lat="43.512744002429216" lon="11.080753212065328"><ele>73.25</ele><time>2026-03-29T09:56:38.013Z</time></trkpt><trkpt lat="43.51262612016779" lon="11.080798372614256"><ele>73.0</ele><time>2026-03-29T09:56:39.013Z</time></trkpt><trkpt lat="43.51250889235968" lon="11.080849878760741"><ele>73.5</ele><time>2026-03-29T09:56:40.013Z</time></trkpt><trkpt lat="43.51239181658492" lon="11.080896217162914"><ele>74.0</ele><time>2026-03-29T09:56:41.013Z</time></trkpt><trkpt lat="43.51226484918917" lon="11.080941098818029"><ele>74.5</ele><time>2026-03-29T09:56:42.013Z</time></trkpt><trkpt lat="43.51214430563684" lon="11.080990026202253"><ele>75.0</ele><time>2026-03-29T09:56:43.013Z</time></trkpt><trkpt lat="43.51203476007579" lon="11.081034989178063"><ele>75.0</ele><time>2026-03-29T09:56:44.013Z</time></trkpt><trkpt lat="43.511922989263255" lon="11.081060531986887"><ele>75.0</ele><time>2026-03-29T09:56:45.013Z</time></trkpt><trkpt lat="43.51181714063832" lon="11.081064866253087"><ele>75.0</ele><time>2026-03-29T09:56:46.013Z</time></trkpt><trkpt lat="43.51170360729953" lon="11.081013618603045"><ele>75.0</ele><time>2026-03-29T09:56:47.015Z</time></trkpt><trkpt lat="43.51158423081653" lon="11.080951775004227"><ele>75.0</ele><time>2026-03-29T09:56:48.015Z</time></trkpt><trkpt lat="43.511461505364046" lon="11.080900670101395"><ele>75.0</ele><time>2026-03-29T09:56:49.015Z</time></trkpt><trkpt lat="43.51133584666262" lon="11.080829316584799"><ele>75.0</ele><time>2026-03-29T09:56:50.015Z</time></trkpt><trkpt lat="43.511198988848115" lon="11.080750850388222"><ele>75.0</ele><time>2026-03-29T09:56:51.015Z</time></trkpt><trkpt lat="43.51106580794452" lon="11.080682203129347"><ele>75.5</ele><time>2026-03-29T09:56:52.015Z</time></trkpt><trkpt lat="43.51093801616523" lon="11.080619237300803"><ele>76.0</ele><time>2026-03-29T09:56:53.015Z</time></trkpt><trkpt lat="43.510826290554455" lon="11.080573564570216"><ele>76.5</ele><time>2026-03-29T09:56:54.015Z</time></trkpt><trkpt lat="43.51071806762333" lon="11.080537093242182"><ele>77.0</ele><time>2026-03-29T09:56:55.015Z</time></trkpt><trkpt lat="43.510620284705794" lon="11.08051355810484"><ele>77.0</ele><time>2026-03-29T09:56:56.015Z</time></trkpt><trkpt lat="43.51052211111144" lon="11.080519001768124"><ele>77.0</ele><time>2026-03-29T09:56:57.016Z</time></trkpt><trkpt lat="43.51042923212366" lon="11.08051063479704"><ele>77.0</ele><time>2026-03-29T09:56:58.016Z</time></trkpt><trkpt lat="43.51035145923594" lon="11.080612976725444"><ele>77.0</ele><time>2026-03-29T09:56:59.016Z</time></trkpt><trkpt lat="43.51026215377033" lon="11.080702328549496"><ele>77.0</ele><time>2026-03-29T09:57:00.015Z</time></trkpt><trkpt lat="43.51015967543773" lon="11.080781432739736"><ele>76.75</ele><time>2026-03-29T09:57:01.015Z</time></trkpt><trkpt lat="43.5100491344223" lon="11.080885192706875"><ele>76.5</ele><time>2026-03-29T09:57:02.015Z</time></trkpt><trkpt lat="43.50993594303395" lon="11.080993821940593"><ele>76.25</ele><time>2026-03-29T09:57:03.015Z</time></trkpt><trkpt lat="43.50982270169776" lon="11.08113192614919"><ele>76.0</ele><time>2026-03-29T09:57:04.015Z</time></trkpt><trkpt lat="43.50969674301265" lon="11.081255808921304"><ele>76.0</ele><time>2026-03-29T09:57:05.015Z</time></trkpt><trkpt lat="43.509594134914735" lon="11.0813633145345"><ele>76.0</ele><time>2026-03-29T09:57:06.015Z</time></trkpt><trkpt lat="43.50948530798656" lon="11.081445997620273"><ele>76.0</ele><time>2026-03-29T09:57:07.015Z</time></trkpt><trkpt lat="43.50940222928242" lon="11.081517574461145"><ele>76.0</ele><time>2026-03-29T09:57:08.015Z</time></trkpt><trkpt lat="43.50931735261656" lon="11.081573856544493"><ele>76.0</ele><time>2026-03-29T09:57:09.015Z</time></trkpt><trkpt lat="43.50924530354789" lon="11.081605371272827"><ele>76.16666666666666</ele><time>2026-03-29T09:57:10.015Z</time></trkpt><trkpt lat="43.509182624368655" lon="11.08162631342575"><ele>76.33333333333333</ele><time>2026-03-29T09:57:12.015Z</time></trkpt><trkpt lat="43.50914197729249" lon="11.081503687600996"><ele>76.5</ele><time>2026-03-29T09:57:14.015Z</time></trkpt><trkpt lat="43.509079569400996" lon="11.081437251502345"><ele>76.66666666666667</ele><time>2026-03-29T09:57:15.015Z</time></trkpt><trkpt lat="43.509021497474826" lon="11.081355250253907"><ele>76.83333333333334</ele><time>2026-03-29T09:57:16.015Z</time></trkpt><trkpt lat="43.50896191225279" lon="11.081253875567173"><ele>77.0</ele><time>2026-03-29T09:57:17.015Z</time></trkpt><trkpt lat="43.50886712474569" lon="11.081163447704846"><ele>77.0</ele><time>2026-03-29T09:57:18.015Z</time></trkpt><trkpt lat="43.50877658788246" lon="11.081040757445068"><ele>77.0</ele><time>2026-03-29T09:57:19.015Z</time></trkpt><trkpt lat="43.508697355763864" lon="11.080935874249242"><ele>77.0</ele><time>2026-03-29T09:57:20.015Z</time></trkpt><trkpt lat="43.50862705915787" lon="11.080843180995863"><ele>77.0</ele><time>2026-03-29T09:57:21.015Z</time></trkpt><trkpt lat="43.50857227323123" lon="11.080763367258418"><ele>77.0</ele><time>2026-03-29T09:57:22.015Z</time></trkpt><trkpt lat="43.50851674447657" lon="11.080698355187513"><ele>77.16666666666667</ele><time>2026-03-29T09:57:23.015Z</time></trkpt><trkpt lat="43.50846309297765" lon="11.08061848310143"><ele>77.33333333333334</ele><time>2026-03-29T09:57:24.015Z</time></trkpt><trkpt lat="43.5084030304416" lon="11.080528976130891"><ele>77.5</ele><time>2026-03-29T09:57:25.015Z</time></trkpt><trkpt lat="43.50833439154947" lon="11.08043714579879"><ele>77.66666666666667</ele><time>2026-03-29T09:57:26.015Z</time></trkpt><trkpt lat="43.508270973547894" lon="11.08033386852463"><ele>77.83333333333333</ele><time>2026-03-29T09:57:27.015Z</time></trkpt><trkpt lat="43.50821370177432" lon="11.080254164822975"><ele>78.0</ele><time>2026-03-29T09:57:28.015Z</time></trkpt><trkpt lat="43.508164017103205" lon="11.080191159957403"><ele>78.0</ele><time>2026-03-29T09:57:29.015Z</time></trkpt><trkpt lat="43.50808737492637" lon="11.080097903259643"><ele>78.0</ele><time>2026-03-29T09:57:31.015Z</time></trkpt><trkpt lat="43.50799436177979" lon="11.079978567397683"><ele>78.0</ele><time>2026-03-29T09:57:33.015Z</time></trkpt><trkpt lat="43.507893001564796" lon="11.079856263043112"><ele>78.0</ele><time>2026-03-29T09:57:35.015Z</time></trkpt><trkpt lat="43.507819960019674" lon="11.079761860670386"><ele>78.2</ele><time>2026-03-29T09:57:37.015Z</time></trkpt><trkpt lat="43.50772102088458" lon="11.079643264472502"><ele>78.4</ele><time>2026-03-29T09:57:39.015Z</time></trkpt><trkpt lat="43.50766333802876" lon="11.07956943439292"><ele>78.60000000000001</ele><time>2026-03-29T09:57:40.015Z</time></trkpt><trkpt lat="43.50756513405122" lon="11.079448993114394"><ele>78.8</ele><time>2026-03-29T09:57:42.015Z</time></trkpt><trkpt lat="43.50750863823678" lon="11.079385017413339"><ele>79.0</ele><time>2026-03-29T09:57:43.015Z</time></trkpt><trkpt lat="43.50745394736597" lon="11.079325482580195"><ele>79.0</ele><time>2026-03-29T09:57:44.015Z</time></trkpt><trkpt lat="43.50740620326879" lon="11.079255578107007"><ele>79.0</ele><time>2026-03-29T09:57:45.015Z</time></trkpt><trkpt lat="43.50734708199595" lon="11.079153736458208"><ele>79.0</ele><time>2026-03-29T09:57:46.015Z</time></trkpt><trkpt lat="43.50729247585098" lon="11.07903639857872"><ele>79.0</ele><time>2026-03-29T09:57:47.015Z</time></trkpt><trkpt lat="43.507246136474485" lon="11.07891327001231"><ele>79.0</ele><time>2026-03-29T09:57:48.015Z</time></trkpt><trkpt lat="43.50719953581084" lon="11.078789623865173"><ele>79.0</ele><time>2026-03-29T09:57:49.015Z</time></trkpt><trkpt lat="43.50716090196309" lon="11.078689292678538"><ele>79.0</ele><time>2026-03-29T09:57:50.015Z</time></trkpt><trkpt lat="43.50711628859067" lon="11.078617828066085"><ele>79.0</ele><time>2026-03-29T09:57:51.015Z</time></trkpt><trkpt lat="43.507070975488254" lon="11.078542730705955"><ele>79.0</ele><time>2026-03-29T09:57:52.015Z</time></trkpt><trkpt lat="43.5070092895069" lon="11.078476130287642"><ele>79.0</ele><time>2026-03-29T09:57:53.015Z</time></trkpt><trkpt lat="43.50692626687147" lon="11.078431646085232"><ele>79.0</ele><time>2026-03-29T09:57:54.015Z</time></trkpt><trkpt lat="43.50683345800574" lon="11.078414528818664"><ele>79.2</ele><time>2026-03-29T09:57:55.015Z</time></trkpt><trkpt lat="43.50672736943552" lon="11.07838711882862"><ele>79.4</ele><time>2026-03-29T09:57:56.015Z</time></trkpt><trkpt lat="43.50662945742714" lon="11.078355762685986"><ele>79.6</ele><time>2026-03-29T09:57:57.015Z</time></trkpt><trkpt lat="43.506526294354295" lon="11.078315094923578"><ele>79.8</ele><time>2026-03-29T09:57:58.015Z</time></trkpt><trkpt lat="43.506419027616936" lon="11.078284993650739"><ele>80.0</ele><time>2026-03-29T09:57:59.015Z</time></trkpt><trkpt lat="43.50632622769304" lon="11.078252550576554"><ele>80.0</ele><time>2026-03-29T09:58:00.015Z</time></trkpt><trkpt lat="43.5062449484723" lon="11.078228290760439"><ele>80.0</ele><time>2026-03-29T09:58:01.015Z</time></trkpt><trkpt lat="43.50617000016237" lon="11.078200809336925"><ele>80.0</ele><time>2026-03-29T09:58:02.015Z</time></trkpt><trkpt lat="43.50609901383938" lon="11.078172389919576"><ele>80.0</ele><time>2026-03-29T09:58:03.015Z</time></trkpt><trkpt lat="43.50602506839398" lon="11.078151225011878"><ele>80.0</ele><time>2026-03-29T09:58:04.015Z</time></trkpt><trkpt lat="43.50595313248213" lon="11.078153847109135"><ele>80.0</ele><time>2026-03-29T09:58:05.015Z</time></trkpt><trkpt lat="43.50586522802793" lon="11.078149433124532"><ele>81.2</ele><time>2026-03-29T09:58:06.015Z</time></trkpt><trkpt lat="43.505750244708864" lon="11.078131023506979"><ele>82.4</ele><time>2026-03-29T09:58:07.015Z</time></trkpt><trkpt lat="43.50563829914317" lon="11.078094824311835"><ele>83.6</ele><time>2026-03-29T09:58:08.015Z</time></trkpt><trkpt lat="43.50553000314925" lon="11.078052371613884"><ele>84.8</ele><time>2026-03-29T09:58:09.015Z</time></trkpt><trkpt lat="43.50542945729537" lon="11.078011058248165"><ele>86.0</ele><time>2026-03-29T09:58:10.015Z</time></trkpt><trkpt lat="43.50533151336028" lon="11.077977255086443"><ele>86.16666666666667</ele><time>2026-03-29T09:58:11.015Z</time></trkpt><trkpt lat="43.505250463581" lon="11.077948661045902"><ele>86.33333333333334</ele><time>2026-03-29T09:58:12.015Z</time></trkpt><trkpt lat="43.505176657283116" lon="11.077921330321281"><ele>86.5</ele><time>2026-03-29T09:58:13.015Z</time></trkpt><trkpt lat="43.50509752797679" lon="11.0778916911411"><ele>86.66666666666667</ele><time>2026-03-29T09:58:14.015Z</time></trkpt><trkpt lat="43.50501865629434" lon="11.077859777391748"><ele>86.83333333333333</ele><time>2026-03-29T09:58:15.015Z</time></trkpt><trkpt lat="43.50495346166108" lon="11.07782883011017"><ele>87.0</ele><time>2026-03-29T09:58:16.015Z</time></trkpt><trkpt lat="43.504890628080304" lon="11.077802049370689"><ele>87.0</ele><time>2026-03-29T09:58:17.015Z</time></trkpt><trkpt lat="43.504785263283274" lon="11.07776747528598"><ele>87.0</ele><time>2026-03-29T09:58:19.015Z</time></trkpt><trkpt lat="43.50467178700344" lon="11.077740350099436"><ele>87.0</ele><time>2026-03-29T09:58:21.015Z</time></trkpt><trkpt lat="43.50457342028932" lon="11.077698601876055"><ele>87.0</ele><time>2026-03-29T09:58:23.015Z</time></trkpt><trkpt lat="43.504466509972595" lon="11.077687432433454"><ele>87.0</ele><time>2026-03-29T09:58:25.015Z</time></trkpt><trkpt lat="43.504355410321025" lon="11.077661619937414"><ele>86.8</ele><time>2026-03-29T09:58:27.015Z</time></trkpt><trkpt lat="43.50427090424674" lon="11.077642806047276"><ele>86.6</ele><time>2026-03-29T09:58:28.015Z</time></trkpt><trkpt lat="43.50418209671043" lon="11.07761041201821"><ele>86.39999999999999</ele><time>2026-03-29T09:58:29.015Z</time></trkpt><trkpt lat="43.504107960161946" lon="11.07759138247608"><ele>86.19999999999999</ele><time>2026-03-29T09:58:30.015Z</time></trkpt><trkpt lat="43.50397777105157" lon="11.077534411698464"><ele>86.0</ele><time>2026-03-29T09:58:32.015Z</time></trkpt><trkpt lat="43.50390936831481" lon="11.077501951360322"><ele>86.0</ele><time>2026-03-29T09:58:33.015Z</time></trkpt><trkpt lat="43.50384033448398" lon="11.077477662511289"><ele>86.0</ele><time>2026-03-29T09:58:34.015Z</time></trkpt><trkpt lat="43.50377177551561" lon="11.07744848617409"><ele>86.0</ele><time>2026-03-29T09:58:35.015Z</time></trkpt><trkpt lat="43.50370570300436" lon="11.077426590779487"><ele>86.0</ele><time>2026-03-29T09:58:36.015Z</time></trkpt><trkpt lat="43.503636004459416" lon="11.077391466129033"><ele>86.0</ele><time>2026-03-29T09:58:37.015Z</time></trkpt><trkpt lat="43.503550436071755" lon="11.077363413486218"><ele>86.0</ele><time>2026-03-29T09:58:38.015Z</time></trkpt><trkpt lat="43.503465584140535" lon="11.07732598722518"><ele>86.66666666666667</ele><time>2026-03-29T09:58:39.015Z</time></trkpt><trkpt lat="43.50338904898169" lon="11.077297806225072"><ele>87.33333333333334</ele><time>2026-03-29T09:58:40.015Z</time></trkpt><trkpt lat="43.503313546108636" lon="11.077265067765236"><ele>88.0</ele><time>2026-03-29T09:58:41.015Z</time></trkpt><trkpt lat="43.50323235858007" lon="11.07723606089712"><ele>88.66666666666667</ele><time>2026-03-29T09:58:42.015Z</time></trkpt><trkpt lat="43.503154065114934" lon="11.077204266158699"><ele>89.33333333333333</ele><time>2026-03-29T09:58:43.015Z</time></trkpt><trkpt lat="43.50307107606341" lon="11.077169030820667"><ele>90.0</ele><time>2026-03-29T09:58:44.015Z</time></trkpt><trkpt lat="43.502996043596724" lon="11.077138467700173"><ele>90.0</ele><time>2026-03-29T09:58:45.015Z</time></trkpt><trkpt lat="43.50292587857749" lon="11.077119837031066"><ele>90.0</ele><time>2026-03-29T09:58:46.015Z</time></trkpt><trkpt lat="43.50284258330169" lon="11.077088791053303"><ele>90.0</ele><time>2026-03-29T09:58:47.015Z</time></trkpt><trkpt lat="43.50276894113698" lon="11.077058427599205"><ele>90.0</ele><time>2026-03-29T09:58:48.015Z</time></trkpt><trkpt lat="43.50270570805035" lon="11.07703791395671"><ele>90.0</ele><time>2026-03-29T09:58:49.015Z</time></trkpt><trkpt lat="43.50263990999786" lon="11.077022201594088"><ele>90.0</ele><time>2026-03-29T09:58:50.015Z</time></trkpt><trkpt lat="43.502500467306675" lon="11.076983712509374"><ele>89.8</ele><time>2026-03-29T09:58:52.015Z</time></trkpt><trkpt lat="43.50241890835101" lon="11.076943602288095"><ele>89.6</ele><time>2026-03-29T09:58:53.017Z</time></trkpt><trkpt lat="43.5023292682207" lon="11.076911114858078"><ele>89.4</ele><time>2026-03-29T09:58:54.016Z</time></trkpt><trkpt lat="43.50223363935921" lon="11.076860856566057"><ele>89.2</ele><time>2026-03-29T09:58:55.016Z</time></trkpt><trkpt lat="43.502138323768826" lon="11.076835682778498"><ele>89.0</ele><time>2026-03-29T09:58:56.016Z</time></trkpt><trkpt lat="43.50206195240714" lon="11.07679702631684"><ele>88.66666666666667</ele><time>2026-03-29T09:58:57.017Z</time></trkpt><trkpt lat="43.50199482951597" lon="11.07676946668508"><ele>88.33333333333334</ele><time>2026-03-29T09:58:58.017Z</time></trkpt><trkpt lat="43.50193038547629" lon="11.076736882325058"><ele>88.0</ele><time>2026-03-29T09:58:59.017Z</time></trkpt><trkpt lat="43.50186094176665" lon="11.076711265548083"><ele>87.66666666666667</ele><time>2026-03-29T09:59:00.017Z</time></trkpt><trkpt lat="43.501748159894156" lon="11.076645649486148"><ele>87.33333333333333</ele><time>2026-03-29T09:59:02.017Z</time></trkpt><trkpt lat="43.501685749531866" lon="11.076616059848906"><ele>87.0</ele><time>2026-03-29T09:59:03.016Z</time></trkpt><trkpt lat="43.50162291626386" lon="11.076599668365255"><ele>88.19999999999999</ele><time>2026-03-29T09:59:04.016Z</time></trkpt><trkpt lat="43.50151433675642" lon="11.076550227069895"><ele>89.4</ele><time>2026-03-29T09:59:06.017Z</time></trkpt><trkpt lat="43.501444706800214" lon="11.07650384318992"><ele>90.6</ele><time>2026-03-29T09:59:07.017Z</time></trkpt><trkpt lat="43.50135817394377" lon="11.07645737520576"><ele>91.80000000000001</ele><time>2026-03-29T09:59:08.017Z</time></trkpt><trkpt lat="43.50126122324106" lon="11.076413177343328"><ele>93.0</ele><time>2026-03-29T09:59:09.017Z</time></trkpt><trkpt lat="43.50116878649008" lon="11.076372755182556"><ele>93.0</ele><time>2026-03-29T09:59:10.017Z</time></trkpt><trkpt lat="43.50108173922045" lon="11.07633264883374"><ele>93.0</ele><time>2026-03-29T09:59:11.017Z</time></trkpt><trkpt lat="43.50102051319079" lon="11.076291331355108"><ele>93.0</ele><time>2026-03-29T09:59:12.017Z</time></trkpt><trkpt lat="43.500895822173064" lon="11.076213004206355"><ele>93.0</ele><time>2026-03-29T09:59:14.017Z</time></trkpt><trkpt lat="43.500809876343304" lon="11.076145368247271"><ele>93.0</ele><time>2026-03-29T09:59:15.017Z</time></trkpt><trkpt lat="43.50073704993982" lon="11.0760820260629"><ele>93.0</ele><time>2026-03-29T09:59:16.017Z</time></trkpt><trkpt lat="43.500657351257296" lon="11.07600051887405"><ele>93.0</ele><time>2026-03-29T09:59:17.017Z</time></trkpt><trkpt lat="43.50055972003729" lon="11.07591686529186"><ele>93.0</ele><time>2026-03-29T09:59:18.017Z</time></trkpt><trkpt lat="43.50047111352805" lon="11.07582246112019"><ele>93.0</ele><time>2026-03-29T09:59:19.017Z</time></trkpt><trkpt lat="43.50040296463801" lon="11.075741830530312"><ele>93.0</ele><time>2026-03-29T09:59:20.017Z</time></trkpt><trkpt lat="43.500330711226056" lon="11.075654171352953"><ele>93.0</ele><time>2026-03-29T09:59:21.017Z</time></trkpt><trkpt lat="43.50026421163952" lon="11.07558018983466"><ele>93.0</ele><time>2026-03-29T09:59:22.017Z</time></trkpt><trkpt lat="43.500212480741936" lon="11.075516513709859"><ele>93.0</ele><time>2026-03-29T09:59:23.017Z</time></trkpt><trkpt lat="43.50015871660979" lon="11.075455993445118"><ele>93.0</ele><time>2026-03-29T09:59:24.017Z</time></trkpt><trkpt lat="43.50010720970843" lon="11.075385399982002"><ele>93.0</ele><time>2026-03-29T09:59:25.017Z</time></trkpt><trkpt lat="43.50004902311135" lon="11.075314308350894"><ele>93.0</ele><time>2026-03-29T09:59:26.017Z</time></trkpt><trkpt lat="43.49997012145996" lon="11.075216444396194"><ele>93.0</ele><time>2026-03-29T09:59:27.017Z</time></trkpt><trkpt lat="43.49990084127627" lon="11.075133064521612"><ele>93.0</ele><time>2026-03-29T09:59:28.017Z</time></trkpt><trkpt lat="43.499830451684645" lon="11.075050424114735"><ele>93.0</ele><time>2026-03-29T09:59:29.017Z</time></trkpt><trkpt lat="43.499765457505376" lon="11.074976808041935"><ele>93.0</ele><time>2026-03-29T09:59:30.017Z</time></trkpt><trkpt lat="43.499703398373256" lon="11.074888086015939"><ele>93.0</ele><time>2026-03-29T09:59:31.017Z</time></trkpt><trkpt lat="43.4996338266222" lon="11.074802396142097"><ele>93.0</ele><time>2026-03-29T09:59:32.017Z</time></trkpt><trkpt lat="43.49955900476057" lon="11.074702212854834"><ele>93.0</ele><time>2026-03-29T09:59:33.017Z</time></trkpt><trkpt lat="43.49948694721237" lon="11.07461156291117"><ele>93.0</ele><time>2026-03-29T09:59:34.017Z</time></trkpt><trkpt lat="43.49942617708057" lon="11.074526293865837"><ele>93.0</ele><time>2026-03-29T09:59:35.017Z</time></trkpt><trkpt lat="43.49937557629658" lon="11.074449376952083"><ele>93.0</ele><time>2026-03-29T09:59:36.017Z</time></trkpt><trkpt lat="43.49931668787827" lon="11.074375697297127"><ele>93.0</ele><time>2026-03-29T09:59:37.017Z</time></trkpt><trkpt lat="43.49925509657354" lon="11.074302391723277"><ele>93.0</ele><time>2026-03-29T09:59:38.017Z</time></trkpt><trkpt lat="43.49918864537825" lon="11.074220217816467"><ele>93.0</ele><time>2026-03-29T09:59:39.017Z</time></trkpt><trkpt lat="43.49911948830899" lon="11.074137636424846"><ele>93.0</ele><time>2026-03-29T09:59:40.017Z</time></trkpt><trkpt lat="43.499050587760266" lon="11.074048472965929"><ele>93.0</ele><time>2026-03-29T09:59:41.017Z</time></trkpt><trkpt lat="43.49898409627219" lon="11.07396537548539"><ele>93.0</ele><time>2026-03-29T09:59:42.017Z</time></trkpt><trkpt lat="43.49891829868944" lon="11.073867777042665"><ele>93.80000000000001</ele><time>2026-03-29T09:59:43.017Z</time></trkpt><trkpt lat="43.498854315106776" lon="11.07377657122761"><ele>94.6</ele><time>2026-03-29T09:59:44.017Z</time></trkpt><trkpt lat="43.49879651736842" lon="11.07370174569523"><ele>95.4</ele><time>2026-03-29T09:59:45.017Z</time></trkpt><trkpt lat="43.49873192179525" lon="11.073614378547854"><ele>96.19999999999999</ele><time>2026-03-29T09:59:46.017Z</time></trkpt><trkpt lat="43.498659165889805" lon="11.073503551839416"><ele>97.0</ele><time>2026-03-29T09:59:47.017Z</time></trkpt><trkpt lat="43.498593677427394" lon="11.073386779580154"><ele>97.0</ele><time>2026-03-29T09:59:48.016Z</time></trkpt><trkpt lat="43.498517529593244" lon="11.073258306314978"><ele>97.0</ele><time>2026-03-29T09:59:49.016Z</time></trkpt><trkpt lat="43.49845005492113" lon="11.073152374550036"><ele>97.0</ele><time>2026-03-29T09:59:50.016Z</time></trkpt><trkpt lat="43.49838811104707" lon="11.073041390343054"><ele>97.0</ele><time>2026-03-29T09:59:51.016Z</time></trkpt><trkpt lat="43.49832356019378" lon="11.072926863928"><ele>97.0</ele><time>2026-03-29T09:59:52.016Z</time></trkpt><trkpt lat="43.498264144804885" lon="11.072819366902861"><ele>97.0</ele><time>2026-03-29T09:59:53.016Z</time></trkpt><trkpt lat="43.49820916384965" lon="11.07271795473936"><ele>97.0</ele><time>2026-03-29T09:59:54.016Z</time></trkpt><trkpt lat="43.49814942051229" lon="11.072616890502143"><ele>97.0</ele><time>2026-03-29T09:59:55.016Z</time></trkpt><trkpt lat="43.49808601963847" lon="11.072503085384144"><ele>97.0</ele><time>2026-03-29T09:59:56.016Z</time></trkpt><trkpt lat="43.498024407887705" lon="11.072400019890308"><ele>97.0</ele><time>2026-03-29T09:59:57.016Z</time></trkpt><trkpt lat="43.4979615111673" lon="11.07229809591139"><ele>97.33333333333334</ele><time>2026-03-29T09:59:58.016Z</time></trkpt><trkpt lat="43.497913143399444" lon="11.07220954258496"><ele>97.66666666666667</ele><time>2026-03-29T09:59:59.016Z</time></trkpt><trkpt lat="43.497863169982196" lon="11.072123512566984"><ele>98.0</ele><time>2026-03-29T10:00:00.016Z</time></trkpt><trkpt lat="43.49781619802229" lon="11.072046156843651"><ele>98.33333333333334</ele><time>2026-03-29T10:00:01.016Z</time></trkpt><trkpt lat="43.497772933642075" lon="11.071949114009001"><ele>98.66666666666667</ele><time>2026-03-29T10:00:02.016Z</time></trkpt><trkpt lat="43.497745455074174" lon="11.071841295823196"><ele>99.0</ele><time>2026-03-29T10:00:03.016Z</time></trkpt><trkpt lat="43.497719537100465" lon="11.071726308739132"><ele>99.0</ele><time>2026-03-29T10:00:04.016Z</time></trkpt><trkpt lat="43.4976967329101" lon="11.071621056681751"><ele>99.0</ele><time>2026-03-29T10:00:05.016Z</time></trkpt><trkpt lat="43.49768183901503" lon="11.071530944579145"><ele>99.0</ele><time>2026-03-29T10:00:06.016Z</time></trkpt><trkpt lat="43.49765083784493" lon="11.071384475329769"><ele>99.0</ele><time>2026-03-29T10:00:08.016Z</time></trkpt><trkpt lat="43.49759293986193" lon="11.071258241953343"><ele>99.0</ele><time>2026-03-29T10:00:10.016Z</time></trkpt><trkpt lat="43.49756662116278" lon="11.071174476778324"><ele>99.0</ele><time>2026-03-29T10:00:11.016Z</time></trkpt><trkpt lat="43.49752881413314" lon="11.071066866067973"><ele>99.0</ele><time>2026-03-29T10:00:12.016Z</time></trkpt><trkpt lat="43.49748358935991" lon="11.070950022204299"><ele>99.0</ele><time>2026-03-29T10:00:13.016Z</time></trkpt><trkpt lat="43.49744150956904" lon="11.07080845315788"><ele>99.0</ele><time>2026-03-29T10:00:14.016Z</time></trkpt><trkpt lat="43.497399530362046" lon="11.070664723810424"><ele>99.0</ele><time>2026-03-29T10:00:15.016Z</time></trkpt><trkpt lat="43.497362642173286" lon="11.070540385481246"><ele>99.0</ele><time>2026-03-29T10:00:16.016Z</time></trkpt><trkpt lat="43.4973341208858" lon="11.07044609444223"><ele>99.4</ele><time>2026-03-29T10:00:17.016Z</time></trkpt><trkpt lat="43.49730165299407" lon="11.070338345946995"><ele>99.80000000000001</ele><time>2026-03-29T10:00:18.016Z</time></trkpt><trkpt lat="43.497259999689895" lon="11.070209188505475"><ele>100.19999999999999</ele><time>2026-03-29T10:00:19.016Z</time></trkpt><trkpt lat="43.497212154222574" lon="11.070089273542067"><ele>100.6</ele><time>2026-03-29T10:00:20.016Z</time></trkpt><trkpt lat="43.49716524779757" lon="11.069962806706299"><ele>101.0</ele><time>2026-03-29T10:00:21.016Z</time></trkpt><trkpt lat="43.49712217776277" lon="11.069848504515495"><ele>100.8</ele><time>2026-03-29T10:00:22.016Z</time></trkpt><trkpt lat="43.497086706657385" lon="11.069742346512017"><ele>100.6</ele><time>2026-03-29T10:00:23.016Z</time></trkpt><trkpt lat="43.49706236590237" lon="11.06965243937114"><ele>100.4</ele><time>2026-03-29T10:00:24.016Z</time></trkpt><trkpt lat="43.497036409150255" lon="11.069509588247254"><ele>100.2</ele><time>2026-03-29T10:00:26.016Z</time></trkpt><trkpt lat="43.496978567580605" lon="11.069395336434285"><ele>100.0</ele><time>2026-03-29T10:00:28.016Z</time></trkpt><trkpt lat="43.496907375734956" lon="11.069294304343693"><ele>100.00000000000001</ele><time>2026-03-29T10:00:30.016Z</time></trkpt><trkpt lat="43.496853998214554" lon="11.06924816050144"><ele>100.0</ele><time>2026-03-29T10:00:32.016Z</time></trkpt><trkpt lat="43.49679652691864" lon="11.069205668871035"><ele>100.0</ele><time>2026-03-29T10:00:35.016Z</time></trkpt><trkpt lat="43.49670461102268" lon="11.069165402492631"><ele>100.0</ele><time>2026-03-29T10:00:50.016Z</time></trkpt><trkpt lat="43.49664204220651" lon="11.069134390926962"><ele>100.0</ele><time>2026-03-29T10:00:51.016Z</time></trkpt><trkpt lat="43.49657561061753" lon="11.06910171914353"><ele>100.00000000000001</ele><time>2026-03-29T10:00:52.016Z</time></trkpt><trkpt lat="43.496500231355704" lon="11.069072444104084"><ele>100.0</ele><time>2026-03-29T10:00:53.016Z</time></trkpt><trkpt lat="43.49643285738449" lon="11.069041490744432"><ele>100.42857142857143</ele><time>2026-03-29T10:00:54.016Z</time></trkpt><trkpt lat="43.496357861868546" lon="11.06900519659455"><ele>100.85714285714286</ele><time>2026-03-29T10:00:55.016Z</time></trkpt><trkpt lat="43.49628310335638" lon="11.068968544394506"><ele>101.28571428571428</ele><time>2026-03-29T10:00:56.016Z</time></trkpt><trkpt lat="43.49621750298273" lon="11.0689242811103"><ele>101.71428571428572</ele><time>2026-03-29T10:00:57.016Z</time></trkpt><trkpt lat="43.49615961133179" lon="11.06888556119466"><ele>102.14285714285714</ele><time>2026-03-29T10:00:58.016Z</time></trkpt><trkpt lat="43.4961022341982" lon="11.068847002167038"><ele>102.57142857142857</ele><time>2026-03-29T10:00:59.018Z</time></trkpt><trkpt lat="43.496032095045706" lon="11.06881162087279"><ele>103.0</ele><time>2026-03-29T10:01:00.018Z</time></trkpt><trkpt lat="43.495896662877335" lon="11.06877344778528"><ele>108.0</ele><time>2026-03-29T10:01:02.018Z</time></trkpt><trkpt lat="43.49581705134637" lon="11.068746340147129"><ele>113.0</ele><time>2026-03-29T10:01:03.019Z</time></trkpt><trkpt lat="43.495734300179265" lon="11.068703993722513"><ele>118.00000000000001</ele><time>2026-03-29T10:01:04.019Z</time></trkpt><trkpt lat="43.49565909029726" lon="11.068665569548044"><ele>123.0</ele><time>2026-03-29T10:01:05.018Z</time></trkpt><trkpt lat="43.49556060347193" lon="11.068641496404704"><ele>128.0</ele><time>2026-03-29T10:01:07.019Z</time></trkpt><trkpt lat="43.49544287241071" lon="11.068545994322507"><ele>128.20000000000002</ele><time>2026-03-29T10:01:09.018Z</time></trkpt><trkpt lat="43.49536081984419" lon="11.068496404885414"><ele>128.4</ele><time>2026-03-29T10:01:10.018Z</time></trkpt><trkpt lat="43.495270587886495" lon="11.068450868731176"><ele>128.60000000000002</ele><time>2026-03-29T10:01:11.019Z</time></trkpt><trkpt lat="43.49518418700186" lon="11.06840159366828"><ele>128.8</ele><time>2026-03-29T10:01:12.019Z</time></trkpt><trkpt lat="43.49510258026634" lon="11.06832762241897"><ele>129.0</ele><time>2026-03-29T10:01:13.019Z</time></trkpt><trkpt lat="43.49503900496503" lon="11.068234684143407"><ele>133.2</ele><time>2026-03-29T10:01:14.019Z</time></trkpt><trkpt lat="43.49497315021283" lon="11.068138048339533"><ele>137.4</ele><time>2026-03-29T10:01:15.019Z</time></trkpt><trkpt lat="43.49490040639633" lon="11.06804141357369"><ele>141.6</ele><time>2026-03-29T10:01:16.019Z</time></trkpt><trkpt lat="43.494849712915325" lon="11.067939971593274"><ele>145.8</ele><time>2026-03-29T10:01:17.019Z</time></trkpt><trkpt lat="43.49478685873727" lon="11.067847712493602"><ele>150.0</ele><time>2026-03-29T10:01:18.019Z</time></trkpt><trkpt lat="43.49472844320795" lon="11.067759479007252"><ele>150.0</ele><time>2026-03-29T10:01:19.019Z</time></trkpt><trkpt lat="43.494684050305864" lon="11.067685770802534"><ele>150.0</ele><time>2026-03-29T10:01:20.019Z</time></trkpt><trkpt lat="43.49463046911716" lon="11.067614506345684"><ele>150.0</ele><time>2026-03-29T10:01:23.019Z</time></trkpt><trkpt lat="43.494600576539575" lon="11.067531538173752"><ele>150.0</ele><time>2026-03-29T10:01:24.019Z</time></trkpt><trkpt lat="43.494535074172276" lon="11.067393386402431"><ele>150.0</ele><time>2026-03-29T10:01:26.019Z</time></trkpt><trkpt lat="43.49445283882118" lon="11.067335530972745"><ele>150.0</ele><time>2026-03-29T10:01:28.019Z</time></trkpt><trkpt lat="43.494380824175785" lon="11.06729500586706"><ele>151.33333333333334</ele><time>2026-03-29T10:01:29.019Z</time></trkpt><trkpt lat="43.49430335276907" lon="11.067254326601976"><ele>152.66666666666666</ele><time>2026-03-29T10:01:30.019Z</time></trkpt><trkpt lat="43.49421083786708" lon="11.06721065040091"><ele>154.0</ele><time>2026-03-29T10:01:31.019Z</time></trkpt><trkpt lat="43.49413778998516" lon="11.067206108947737"><ele>155.33333333333331</ele><time>2026-03-29T10:01:32.019Z</time></trkpt><trkpt lat="43.494073212680384" lon="11.067197351196734"><ele>156.66666666666666</ele><time>2026-03-29T10:01:33.019Z</time></trkpt><trkpt lat="43.4940081622788" lon="11.067171430773248"><ele>158.0</ele><time>2026-03-29T10:01:34.019Z</time></trkpt><trkpt lat="43.49393741850382" lon="11.067106450918486"><ele>158.0</ele><time>2026-03-29T10:01:35.019Z</time></trkpt><trkpt lat="43.4938694778563" lon="11.067004238303067"><ele>158.0</ele><time>2026-03-29T10:01:36.019Z</time></trkpt><trkpt lat="43.493820154290894" lon="11.066883430506731"><ele>158.0</ele><time>2026-03-29T10:01:37.019Z</time></trkpt><trkpt lat="43.49380236942399" lon="11.066786431727287"><ele>158.0</ele><time>2026-03-29T10:01:38.019Z</time></trkpt><trkpt lat="43.49379403844472" lon="11.066699038847853"><ele>158.0</ele><time>2026-03-29T10:01:39.019Z</time></trkpt><trkpt lat="43.49378353609105" lon="11.06653215100196"><ele>157.4</ele><time>2026-03-29T10:01:41.019Z</time></trkpt><trkpt lat="43.493757960387846" lon="11.066440483366476"><ele>156.8</ele><time>2026-03-29T10:01:42.019Z</time></trkpt><trkpt lat="43.49372746106046" lon="11.066336644588032"><ele>156.2</ele><time>2026-03-29T10:01:43.019Z</time></trkpt><trkpt lat="43.49369667145535" lon="11.066209059520867"><ele>155.6</ele><time>2026-03-29T10:01:44.019Z</time></trkpt><trkpt lat="43.493674302208184" lon="11.06608291652647"><ele>155.0</ele><time>2026-03-29T10:01:45.019Z</time></trkpt><trkpt lat="43.49366987486603" lon="11.065917840012478"><ele>155.0</ele><time>2026-03-29T10:01:47.019Z</time></trkpt><trkpt lat="43.49364892980147" lon="11.065805375077879"><ele>155.0</ele><time>2026-03-29T10:01:48.019Z</time></trkpt><trkpt lat="43.49360640584658" lon="11.06570030148336"><ele>155.0</ele><time>2026-03-29T10:01:49.019Z</time></trkpt><trkpt lat="43.49355903039003" lon="11.06558141361869"><ele>155.0</ele><time>2026-03-29T10:01:50.019Z</time></trkpt><trkpt lat="43.493519833942415" lon="11.065478392552688"><ele>155.0</ele><time>2026-03-29T10:01:51.019Z</time></trkpt><trkpt lat="43.49347807085365" lon="11.0654001396954"><ele>155.0</ele><time>2026-03-29T10:01:52.019Z</time></trkpt><trkpt lat="43.493432644519174" lon="11.065303773074303"><ele>155.66666666666666</ele><time>2026-03-29T10:01:53.019Z</time></trkpt><trkpt lat="43.49339027379417" lon="11.065216207289394"><ele>156.33333333333331</ele><time>2026-03-29T10:01:54.019Z</time></trkpt><trkpt lat="43.493334688418635" lon="11.065122686776109"><ele>157.0</ele><time>2026-03-29T10:01:55.019Z</time></trkpt><trkpt lat="43.49328013207911" lon="11.065031233115816"><ele>157.66666666666666</ele><time>2026-03-29T10:01:56.019Z</time></trkpt><trkpt lat="43.49322676923999" lon="11.064935866609341"><ele>158.33333333333334</ele><time>2026-03-29T10:01:57.019Z</time></trkpt><trkpt lat="43.493184528342276" lon="11.064856271961608"><ele>159.0</ele><time>2026-03-29T10:01:58.019Z</time></trkpt><trkpt lat="43.49314217533092" lon="11.064783067413456"><ele>159.0</ele><time>2026-03-29T10:01:59.019Z</time></trkpt><trkpt lat="43.49306637551221" lon="11.064659539740818"><ele>159.0</ele><time>2026-03-29T10:02:01.019Z</time></trkpt><trkpt lat="43.493015643083815" lon="11.064604542734374"><ele>159.0</ele><time>2026-03-29T10:02:02.019Z</time></trkpt><trkpt lat="43.492959605002696" lon="11.064551980995109"><ele>159.0</ele><time>2026-03-29T10:02:03.019Z</time></trkpt><trkpt lat="43.492894100033425" lon="11.064522982209011"><ele>159.0</ele><time>2026-03-29T10:02:04.019Z</time></trkpt><trkpt lat="43.492826601433805" lon="11.064477925248601"><ele>159.0</ele><time>2026-03-29T10:02:05.019Z</time></trkpt><trkpt lat="43.49273682430366" lon="11.064425059773143"><ele>161.33333333333334</ele><time>2026-03-29T10:02:07.019Z</time></trkpt><trkpt lat="43.49262615171335" lon="11.064394023485734"><ele>163.66666666666666</ele><time>2026-03-29T10:02:09.019Z</time></trkpt><trkpt lat="43.49255748681546" lon="11.064367393783728"><ele>166.0</ele><time>2026-03-29T10:02:10.019Z</time></trkpt><trkpt lat="43.49247155075708" lon="11.064343985854835"><ele>168.33333333333331</ele><time>2026-03-29T10:02:11.019Z</time></trkpt><trkpt lat="43.49239578483361" lon="11.06430818832125"><ele>170.66666666666666</ele><time>2026-03-29T10:02:12.019Z</time></trkpt><trkpt lat="43.4923118882396" lon="11.064261027929032"><ele>173.0</ele><time>2026-03-29T10:02:13.019Z</time></trkpt><trkpt lat="43.492234032318386" lon="11.064221396566234"><ele>173.0</ele><time>2026-03-29T10:02:14.019Z</time></trkpt><trkpt lat="43.4921297118996" lon="11.064160710347975"><ele>173.0</ele><time>2026-03-29T10:02:15.019Z</time></trkpt><trkpt lat="43.49203690750176" lon="11.064127340984475"><ele>173.0</ele><time>2026-03-29T10:02:16.019Z</time></trkpt><trkpt lat="43.491952894328236" lon="11.064097222845232"><ele>173.0</ele><time>2026-03-29T10:02:17.019Z</time></trkpt><trkpt lat="43.49189404944485" lon="11.064050367101302"><ele>173.0</ele><time>2026-03-29T10:02:18.019Z</time></trkpt><trkpt lat="43.49180760389085" lon="11.064014850320625"><ele>173.33333333333331</ele><time>2026-03-29T10:02:20.019Z</time></trkpt><trkpt lat="43.49171818512794" lon="11.064020309584722"><ele>173.66666666666666</ele><time>2026-03-29T10:02:22.019Z</time></trkpt><trkpt lat="43.49161672961528" lon="11.064024804957857"><ele>174.0</ele><time>2026-03-29T10:02:24.019Z</time></trkpt><trkpt lat="43.4915002958438" lon="11.064038429435175"><ele>174.33333333333334</ele><time>2026-03-29T10:02:26.019Z</time></trkpt><trkpt lat="43.49143336505426" lon="11.064034856800768"><ele>174.66666666666669</ele><time>2026-03-29T10:02:27.019Z</time></trkpt><trkpt lat="43.491368120172666" lon="11.064030124508266"><ele>175.0</ele><time>2026-03-29T10:02:28.019Z</time></trkpt><trkpt lat="43.49129933601289" lon="11.064016995488627"><ele>175.5</ele><time>2026-03-29T10:02:29.019Z</time></trkpt><trkpt lat="43.49122995644045" lon="11.063997048193563"><ele>176.0</ele><time>2026-03-29T10:02:30.019Z</time></trkpt><trkpt lat="43.491160039951076" lon="11.063980135911953"><ele>176.5</ele><time>2026-03-29T10:02:31.019Z</time></trkpt><trkpt lat="43.49103795847525" lon="11.063955205856969"><ele>177.0</ele><time>2026-03-29T10:02:33.019Z</time></trkpt><trkpt lat="43.49096013944228" lon="11.063930455909375"><ele>177.5</ele><time>2026-03-29T10:02:34.019Z</time></trkpt><trkpt lat="43.49088610706007" lon="11.063907673280468"><ele>178.0</ele><time>2026-03-29T10:02:35.018Z</time></trkpt><trkpt lat="43.4908009046573" lon="11.063863075735185"><ele>178.0</ele><time>2026-03-29T10:02:36.018Z</time></trkpt><trkpt lat="43.49071036052395" lon="11.063809933272575"><ele>178.0</ele><time>2026-03-29T10:02:37.018Z</time></trkpt><trkpt lat="43.49061164858658" lon="11.063754433577708"><ele>178.0</ele><time>2026-03-29T10:02:38.018Z</time></trkpt><trkpt lat="43.49051458462075" lon="11.063714801297884"><ele>178.0</ele><time>2026-03-29T10:02:39.018Z</time></trkpt><trkpt lat="43.4904245442851" lon="11.06367556971021"><ele>178.0</ele><time>2026-03-29T10:02:40.018Z</time></trkpt><trkpt lat="43.49034869576931" lon="11.063649510975807"><ele>178.66666666666669</ele><time>2026-03-29T10:02:41.018Z</time></trkpt><trkpt lat="43.490287728469156" lon="11.06362671740047"><ele>179.33333333333334</ele><time>2026-03-29T10:02:42.018Z</time></trkpt><trkpt lat="43.49021841355602" lon="11.063601899850285"><ele>180.0</ele><time>2026-03-29T10:02:43.018Z</time></trkpt><trkpt lat="43.49014752878823" lon="11.06355990917357"><ele>180.66666666666666</ele><time>2026-03-29T10:02:44.018Z</time></trkpt><trkpt lat="43.49007562198085" lon="11.063496899956958"><ele>181.33333333333331</ele><time>2026-03-29T10:02:45.018Z</time></trkpt><trkpt lat="43.4900151023093" lon="11.063420943300995"><ele>182.0</ele><time>2026-03-29T10:02:46.018Z</time></trkpt><trkpt lat="43.48994429925295" lon="11.063327271803656"><ele>180.2</ele><time>2026-03-29T10:02:47.018Z</time></trkpt><trkpt lat="43.48986369430729" lon="11.063228067291089"><ele>178.39999999999998</ele><time>2026-03-29T10:02:48.018Z</time></trkpt><trkpt lat="43.48978466110783" lon="11.063125221103872"><ele>176.60000000000002</ele><time>2026-03-29T10:02:49.018Z</time></trkpt><trkpt lat="43.48971882633161" lon="11.063044060298104"><ele>174.8</ele><time>2026-03-29T10:02:50.018Z</time></trkpt><trkpt lat="43.48966792115414" lon="11.062975213111338"><ele>173.0</ele><time>2026-03-29T10:02:51.018Z</time></trkpt><trkpt lat="43.489609025604665" lon="11.062904502560219"><ele>173.4</ele><time>2026-03-29T10:02:52.018Z</time></trkpt><trkpt lat="43.489553507874575" lon="11.062823389479275"><ele>173.8</ele><time>2026-03-29T10:02:53.018Z</time></trkpt><trkpt lat="43.48946410244752" lon="11.06270542181704"><ele>174.2</ele><time>2026-03-29T10:02:55.018Z</time></trkpt><trkpt lat="43.48939073750753" lon="11.062633542161846"><ele>174.6</ele><time>2026-03-29T10:02:57.018Z</time></trkpt><trkpt lat="43.48931976363391" lon="11.06252156559553"><ele>175.0</ele><time>2026-03-29T10:02:59.018Z</time></trkpt><trkpt lat="43.48929398384284" lon="11.062422258612445"><ele>175.0</ele><time>2026-03-29T10:03:00.018Z</time></trkpt><trkpt lat="43.489279873324094" lon="11.062289338625618"><ele>175.0</ele><time>2026-03-29T10:03:01.018Z</time></trkpt><trkpt lat="43.48926332040728" lon="11.062130461531739"><ele>175.0</ele><time>2026-03-29T10:03:02.018Z</time></trkpt><trkpt lat="43.48923863053079" lon="11.061970922012561"><ele>175.0</ele><time>2026-03-29T10:03:03.018Z</time></trkpt><trkpt lat="43.48921845182087" lon="11.061827519221477"><ele>175.0</ele><time>2026-03-29T10:03:04.018Z</time></trkpt><trkpt lat="43.48920111468816" lon="11.061707810173674"><ele>175.0</ele><time>2026-03-29T10:03:05.02Z</time></trkpt><trkpt lat="43.4891897734091" lon="11.061590313172943"><ele>175.0</ele><time>2026-03-29T10:03:06.021Z</time></trkpt><trkpt lat="43.489177917376814" lon="11.061478527422405"><ele>175.0</ele><time>2026-03-29T10:03:07.021Z</time></trkpt><trkpt lat="43.48916327314622" lon="11.061381094845641"><ele>175.0</ele><time>2026-03-29T10:03:08.021Z</time></trkpt><trkpt lat="43.48914840379526" lon="11.061295258850455"><ele>175.0</ele><time>2026-03-29T10:03:09.02Z</time></trkpt><trkpt lat="43.48913733715301" lon="11.06119718702551"><ele>175.0</ele><time>2026-03-29T10:03:10.02Z</time></trkpt><trkpt lat="43.48910793088939" lon="11.061096055048774"><ele>175.0</ele><time>2026-03-29T10:03:11.02Z</time></trkpt><trkpt lat="43.48909297247289" lon="11.061006155342028"><ele>175.0</ele><time>2026-03-29T10:03:12.021Z</time></trkpt><trkpt lat="43.48906560667076" lon="11.060915314058173"><ele>175.0</ele><time>2026-03-29T10:03:13.021Z</time></trkpt><trkpt lat="43.489036533800686" lon="11.060829532249917"><ele>175.0</ele><time>2026-03-29T10:03:14.021Z</time></trkpt><trkpt lat="43.48901672990681" lon="11.060746157440295"><ele>175.0</ele><time>2026-03-29T10:03:15.02Z</time></trkpt><trkpt lat="43.488963315633924" lon="11.06057604052216"><ele>175.0</ele><time>2026-03-29T10:03:17.02Z</time></trkpt><trkpt lat="43.48892048224008" lon="11.06045004136673"><ele>175.4</ele><time>2026-03-29T10:03:18.02Z</time></trkpt><trkpt lat="43.48888720792205" lon="11.060319619985414"><ele>175.8</ele><time>2026-03-29T10:03:19.02Z</time></trkpt><trkpt lat="43.48885718623069" lon="11.0601754745543"><ele>176.2</ele><time>2026-03-29T10:03:20.02Z</time></trkpt><trkpt lat="43.48883165778771" lon="11.060025509448586"><ele>176.6</ele><time>2026-03-29T10:03:21.02Z</time></trkpt><trkpt lat="43.48880096083227" lon="11.059894415877965"><ele>177.0</ele><time>2026-03-29T10:03:22.02Z</time></trkpt><trkpt lat="43.48876420493711" lon="11.059749718484461"><ele>173.2</ele><time>2026-03-29T10:03:23.02Z</time></trkpt><trkpt lat="43.48872855228624" lon="11.059614595712741"><ele>169.39999999999998</ele><time>2026-03-29T10:03:24.02Z</time></trkpt><trkpt lat="43.488694926996246" lon="11.059477807117444"><ele>165.60000000000002</ele><time>2026-03-29T10:03:25.02Z</time></trkpt><trkpt lat="43.48867213156266" lon="11.05934613248738"><ele>161.8</ele><time>2026-03-29T10:03:26.02Z</time></trkpt><trkpt lat="43.48864908135534" lon="11.059211920572553"><ele>158.0</ele><time>2026-03-29T10:03:27.02Z</time></trkpt><trkpt lat="43.48862273384375" lon="11.05908519607476"><ele>158.0</ele><time>2026-03-29T10:03:28.02Z</time></trkpt><trkpt lat="43.48859601193554" lon="11.058960404280882"><ele>158.0</ele><time>2026-03-29T10:03:29.02Z</time></trkpt><trkpt lat="43.48856197695012" lon="11.058841670104442"><ele>158.0</ele><time>2026-03-29T10:03:30.02Z</time></trkpt><trkpt lat="43.488537949181314" lon="11.05872121966323"><ele>158.0</ele><time>2026-03-29T10:03:31.02Z</time></trkpt><trkpt lat="43.48849480084415" lon="11.058617118603504"><ele>158.0</ele><time>2026-03-29T10:03:32.02Z</time></trkpt><trkpt lat="43.48845179671178" lon="11.058530119596691"><ele>158.0</ele><time>2026-03-29T10:03:33.02Z</time></trkpt><trkpt lat="43.488400741480376" lon="11.058470048485255"><ele>158.0</ele><time>2026-03-29T10:03:34.02Z</time></trkpt><trkpt lat="43.488327775322524" lon="11.058365159153437"><ele>158.0</ele><time>2026-03-29T10:03:36.02Z</time></trkpt><trkpt lat="43.48827010924938" lon="11.058297427636644"><ele>158.0</ele><time>2026-03-29T10:03:37.02Z</time></trkpt><trkpt lat="43.48819243112331" lon="11.058274523019591"><ele>158.0</ele><time>2026-03-29T10:03:38.02Z</time></trkpt><trkpt lat="43.48810496419114" lon="11.058290010620862"><ele>158.0</ele><time>2026-03-29T10:03:39.02Z</time></trkpt><trkpt lat="43.488014266665765" lon="11.058355696501076"><ele>158.0</ele><time>2026-03-29T10:03:40.02Z</time></trkpt><trkpt lat="43.48793383765191" lon="11.058406587163988"><ele>158.0</ele><time>2026-03-29T10:03:41.02Z</time></trkpt><trkpt lat="43.4878334364395" lon="11.058441326124806"><ele>158.0</ele><time>2026-03-29T10:03:42.02Z</time></trkpt><trkpt lat="43.48774162497246" lon="11.058466826945828"><ele>158.0</ele><time>2026-03-29T10:03:43.02Z</time></trkpt><trkpt lat="43.487641655025726" lon="11.058478407676906"><ele>158.0</ele><time>2026-03-29T10:03:44.02Z</time></trkpt><trkpt lat="43.487534582354414" lon="11.058498529090095"><ele>155.8</ele><time>2026-03-29T10:03:45.02Z</time></trkpt><trkpt lat="43.48743028722762" lon="11.058539410463883"><ele>153.60000000000002</ele><time>2026-03-29T10:03:46.02Z</time></trkpt><trkpt lat="43.487320653267346" lon="11.058563039436693"><ele>151.39999999999998</ele><time>2026-03-29T10:03:47.02Z</time></trkpt><trkpt lat="43.48720736971718" lon="11.058556121986733"><ele>149.2</ele><time>2026-03-29T10:03:48.02Z</time></trkpt><trkpt lat="43.48710660618017" lon="11.058521748432412"><ele>147.0</ele><time>2026-03-29T10:03:49.02Z</time></trkpt><trkpt lat="43.4870143920632" lon="11.05848602601004"><ele>146.0</ele><time>2026-03-29T10:03:50.02Z</time></trkpt><trkpt lat="43.486917890450975" lon="11.05844643722698"><ele>145.0</ele><time>2026-03-29T10:03:51.02Z</time></trkpt><trkpt lat="43.48682194101851" lon="11.058418184673782"><ele>144.0</ele><time>2026-03-29T10:03:52.02Z</time></trkpt><trkpt lat="43.486725729531265" lon="11.058394661066488"><ele>143.0</ele><time>2026-03-29T10:03:53.02Z</time></trkpt><trkpt lat="43.486646867816425" lon="11.058324795177132"><ele>142.0</ele><time>2026-03-29T10:03:54.02Z</time></trkpt><trkpt lat="43.48657179702617" lon="11.058281255530867"><ele>141.66666666666669</ele><time>2026-03-29T10:03:55.02Z</time></trkpt><trkpt lat="43.48650697149873" lon="11.058231516074063"><ele>141.33333333333334</ele><time>2026-03-29T10:03:56.02Z</time></trkpt><trkpt lat="43.48645274670916" lon="11.058166525737484"><ele>141.0</ele><time>2026-03-29T10:03:57.02Z</time></trkpt><trkpt lat="43.486401387004285" lon="11.058088836261463"><ele>140.66666666666666</ele><time>2026-03-29T10:03:58.02Z</time></trkpt><trkpt lat="43.48634213017561" lon="11.057975177577575"><ele>140.33333333333331</ele><time>2026-03-29T10:03:59.02Z</time></trkpt><trkpt lat="43.486293636622214" lon="11.057819065030086"><ele>140.0</ele><time>2026-03-29T10:04:00.02Z</time></trkpt><trkpt lat="43.486233606028776" lon="11.05765545783519"><ele>139.0</ele><time>2026-03-29T10:04:01.02Z</time></trkpt><trkpt lat="43.48615088936825" lon="11.057490310445928"><ele>138.0</ele><time>2026-03-29T10:04:02.02Z</time></trkpt><trkpt lat="43.48605227243049" lon="11.057334903380141"><ele>137.0</ele><time>2026-03-29T10:04:03.02Z</time></trkpt><trkpt lat="43.48596512047521" lon="11.057239164364026"><ele>136.0</ele><time>2026-03-29T10:04:04.02Z</time></trkpt><trkpt lat="43.48590991822608" lon="11.057134002130024"><ele>136.0</ele><time>2026-03-29T10:04:05.02Z</time></trkpt><trkpt lat="43.485847707862746" lon="11.057042507273996"><ele>136.0</ele><time>2026-03-29T10:04:06.02Z</time></trkpt><trkpt lat="43.48577660553215" lon="11.05695746101699"><ele>136.0</ele><time>2026-03-29T10:04:07.02Z</time></trkpt><trkpt lat="43.48569357934252" lon="11.056858895808086"><ele>136.0</ele><time>2026-03-29T10:04:08.02Z</time></trkpt><trkpt lat="43.485608376000805" lon="11.056750865558568"><ele>136.0</ele><time>2026-03-29T10:04:09.02Z</time></trkpt><trkpt lat="43.485364739656745" lon="11.056499913257907"><ele>134.6</ele><time>2026-03-29T10:04:12.02Z</time></trkpt><trkpt lat="43.48528380905552" lon="11.056470888455264"><ele>133.2</ele><time>2026-03-29T10:04:14.02Z</time></trkpt><trkpt lat="43.48518062400968" lon="11.056487449815812"><ele>131.8</ele><time>2026-03-29T10:04:15.02Z</time></trkpt><trkpt lat="43.48509482795857" lon="11.05656936340114"><ele>130.4</ele><time>2026-03-29T10:04:16.02Z</time></trkpt><trkpt lat="43.485031575479326" lon="11.056592521183282"><ele>129.0</ele><time>2026-03-29T10:04:17.02Z</time></trkpt><trkpt lat="43.48494599367146" lon="11.056544263374555"><ele>128.99999999999997</ele><time>2026-03-29T10:04:19.02Z</time></trkpt><trkpt lat="43.484911103223226" lon="11.056465318070618"><ele>129.0</ele><time>2026-03-29T10:04:20.02Z</time></trkpt><trkpt lat="43.484869424111686" lon="11.056394362933156"><ele>129.0</ele><time>2026-03-29T10:04:21.02Z</time></trkpt><trkpt lat="43.4848223794666" lon="11.05632536291174"><ele>129.0</ele><time>2026-03-29T10:04:22.02Z</time></trkpt><trkpt lat="43.48477602557893" lon="11.056259498603314"><ele>129.0</ele><time>2026-03-29T10:04:23.02Z</time></trkpt><trkpt lat="43.4847310734661" lon="11.056187936493497"><ele>128.99999999999997</ele><time>2026-03-29T10:04:24.02Z</time></trkpt><trkpt lat="43.48468147043736" lon="11.056124271450166"><ele>129.0</ele><time>2026-03-29T10:04:25.02Z</time></trkpt><trkpt lat="43.4845847462597" lon="11.056020724752171"><ele>128.83333333333334</ele><time>2026-03-29T10:04:27.02Z</time></trkpt><trkpt lat="43.48451300617944" lon="11.056054174826912"><ele>128.66666666666666</ele><time>2026-03-29T10:04:28.02Z</time></trkpt><trkpt lat="43.484383431851555" lon="11.056085168776702"><ele>128.5</ele><time>2026-03-29T10:04:30.02Z</time></trkpt><trkpt lat="43.48431135956275" lon="11.056140622818717"><ele>128.33333333333331</ele><time>2026-03-29T10:04:31.02Z</time></trkpt><trkpt lat="43.48425692488211" lon="11.056197504938224"><ele>128.16666666666666</ele><time>2026-03-29T10:04:32.02Z</time></trkpt><trkpt lat="43.48418612780474" lon="11.056263545945772"><ele>128.0</ele><time>2026-03-29T10:04:33.02Z</time></trkpt><trkpt lat="43.48411504145698" lon="11.056304589254035"><ele>128.0</ele><time>2026-03-29T10:04:34.02Z</time></trkpt><trkpt lat="43.48404880725188" lon="11.05632463474481"><ele>128.0</ele><time>2026-03-29T10:04:35.02Z</time></trkpt><trkpt lat="43.48395443515649" lon="11.05625685604348"><ele>128.0</ele><time>2026-03-29T10:04:37.02Z</time></trkpt><trkpt lat="43.48391313606383" lon="11.056155150512797"><ele>128.0</ele><time>2026-03-29T10:04:39.02Z</time></trkpt><trkpt lat="43.48392964245331" lon="11.056046856515605"><ele>128.0</ele><time>2026-03-29T10:04:55.02Z</time></trkpt><trkpt lat="43.483980569137756" lon="11.055905877474025"><ele>128.0</ele><time>2026-03-29T10:04:57.02Z</time></trkpt><trkpt lat="43.48401702828146" lon="11.055815440996048"><ele>128.0</ele><time>2026-03-29T10:04:58.02Z</time></trkpt><trkpt lat="43.48404841951959" lon="11.055707551320088"><ele>128.0</ele><time>2026-03-29T10:04:59.02Z</time></trkpt><trkpt lat="43.48407298302723" lon="11.055573509419599"><ele>128.0</ele><time>2026-03-29T10:05:01.02Z</time></trkpt><trkpt lat="43.48401472814105" lon="11.055409796505003"><ele>128.0</ele><time>2026-03-29T10:05:03.02Z</time></trkpt><trkpt lat="43.48393742854124" lon="11.055374953282612"><ele>129.0</ele><time>2026-03-29T10:05:04.02Z</time></trkpt><trkpt lat="43.4838638470786" lon="11.055319338767882"><ele>130.0</ele><time>2026-03-29T10:05:05.02Z</time></trkpt><trkpt lat="43.483779989216885" lon="11.055253859255188"><ele>131.0</ele><time>2026-03-29T10:05:06.02Z</time></trkpt><trkpt lat="43.48369504389655" lon="11.055178490089759"><ele>132.0</ele><time>2026-03-29T10:05:07.02Z</time></trkpt><trkpt lat="43.48361006464375" lon="11.05509519944034"><ele>133.0</ele><time>2026-03-29T10:05:08.02Z</time></trkpt><trkpt lat="43.483539152963054" lon="11.055030936031518"><ele>136.20000000000002</ele><time>2026-03-29T10:05:09.02Z</time></trkpt><trkpt lat="43.48345920120813" lon="11.054945342351145"><ele>139.4</ele><time>2026-03-29T10:05:10.02Z</time></trkpt><trkpt lat="43.483391244301195" lon="11.054889346099353"><ele>142.60000000000002</ele><time>2026-03-29T10:05:11.022Z</time></trkpt><trkpt lat="43.48331213044532" lon="11.054816877701137"><ele>145.8</ele><time>2026-03-29T10:05:12.022Z</time></trkpt><trkpt lat="43.48321966005567" lon="11.05473305867596"><ele>149.0</ele><time>2026-03-29T10:05:13.022Z</time></trkpt><trkpt lat="43.4831162002271" lon="11.054634805758282"><ele>149.0</ele><time>2026-03-29T10:05:14.022Z</time></trkpt><trkpt lat="43.48301380435552" lon="11.054535960481143"><ele>149.0</ele><time>2026-03-29T10:05:15.022Z</time></trkpt><trkpt lat="43.482909590105756" lon="11.054424930566723"><ele>149.0</ele><time>2026-03-29T10:05:16.022Z</time></trkpt><trkpt lat="43.482806691499434" lon="11.05430777947858"><ele>149.0</ele><time>2026-03-29T10:05:17.022Z</time></trkpt><trkpt lat="43.48272914008707" lon="11.054188091675373"><ele>152.25</ele><time>2026-03-29T10:05:18.021Z</time></trkpt><trkpt lat="43.48268866939537" lon="11.054023707642806"><ele>155.5</ele><time>2026-03-29T10:05:19.021Z</time></trkpt><trkpt lat="43.48262694120783" lon="11.053860593717026"><ele>158.75</ele><time>2026-03-29T10:05:20.022Z</time></trkpt><trkpt lat="43.48256280987847" lon="11.053675985940652"><ele>162.0</ele><time>2026-03-29T10:05:21.022Z</time></trkpt><trkpt lat="43.482512509083854" lon="11.05348287597713"><ele>163.2</ele><time>2026-03-29T10:05:22.022Z</time></trkpt><trkpt lat="43.4824694162282" lon="11.053284591629044"><ele>164.39999999999998</ele><time>2026-03-29T10:05:23.022Z</time></trkpt><trkpt lat="43.48243534070786" lon="11.053121476271897"><ele>165.60000000000002</ele><time>2026-03-29T10:05:24.022Z</time></trkpt><trkpt lat="43.48241577567353" lon="11.05301726812942"><ele>166.8</ele><time>2026-03-29T10:05:25.022Z</time></trkpt><trkpt lat="43.4823831135393" lon="11.052931410618758"><ele>168.0</ele><time>2026-03-29T10:05:26.022Z</time></trkpt><trkpt lat="43.48237583278261" lon="11.052832671231737"><ele>168.0</ele><time>2026-03-29T10:05:27.022Z</time></trkpt><trkpt lat="43.482346298687915" lon="11.052698034295606"><ele>168.0</ele><time>2026-03-29T10:05:28.022Z</time></trkpt><trkpt lat="43.48231833350501" lon="11.052556523291354"><ele>168.0</ele><time>2026-03-29T10:05:29.022Z</time></trkpt><trkpt lat="43.48229208427129" lon="11.052401159763319"><ele>168.0</ele><time>2026-03-29T10:05:30.022Z</time></trkpt><trkpt lat="43.48225976003472" lon="11.052227813920496"><ele>170.5</ele><time>2026-03-29T10:05:31.022Z</time></trkpt><trkpt lat="43.482235588942515" lon="11.052048631243368"><ele>173.0</ele><time>2026-03-29T10:05:32.022Z</time></trkpt><trkpt lat="43.48220121331401" lon="11.051867056792263"><ele>175.5</ele><time>2026-03-29T10:05:33.022Z</time></trkpt><trkpt lat="43.48217705501087" lon="11.051728853545697"><ele>178.0</ele><time>2026-03-29T10:05:34.022Z</time></trkpt><trkpt lat="43.48214891382665" lon="11.051590732008622"><ele>180.60000000000002</ele><time>2026-03-29T10:05:35.022Z</time></trkpt><trkpt lat="43.482108203783575" lon="11.051443405234242"><ele>183.20000000000002</ele><time>2026-03-29T10:05:36.022Z</time></trkpt><trkpt lat="43.48206455817899" lon="11.051332574469669"><ele>185.8</ele><time>2026-03-29T10:05:37.022Z</time></trkpt><trkpt lat="43.48201274748007" lon="11.051218632808292"><ele>188.4</ele><time>2026-03-29T10:05:38.022Z</time></trkpt><trkpt lat="43.48195248590358" lon="11.051112916041594"><ele>191.0</ele><time>2026-03-29T10:05:39.022Z</time></trkpt><trkpt lat="43.48188740357476" lon="11.050985132986245"><ele>191.0</ele><time>2026-03-29T10:05:40.022Z</time></trkpt><trkpt lat="43.48180758209371" lon="11.050828209402821"><ele>191.0</ele><time>2026-03-29T10:05:41.022Z</time></trkpt><trkpt lat="43.481728729885575" lon="11.050658908680973"><ele>191.0</ele><time>2026-03-29T10:05:42.022Z</time></trkpt><trkpt lat="43.48163616593543" lon="11.050463916198149"><ele>194.75</ele><time>2026-03-29T10:05:43.022Z</time></trkpt><trkpt lat="43.48155819751872" lon="11.050277897056828"><ele>198.5</ele><time>2026-03-29T10:05:44.022Z</time></trkpt><trkpt lat="43.481497432213494" lon="11.050124701015502"><ele>202.25</ele><time>2026-03-29T10:05:45.022Z</time></trkpt><trkpt lat="43.481454317289035" lon="11.049989078127822"><ele>206.0</ele><time>2026-03-29T10:05:46.022Z</time></trkpt><trkpt lat="43.481397374397446" lon="11.049845661296326"><ele>207.5</ele><time>2026-03-29T10:05:47.022Z</time></trkpt><trkpt lat="43.48132040278422" lon="11.049695472521746"><ele>209.0</ele><time>2026-03-29T10:05:48.022Z</time></trkpt><trkpt lat="43.48124413477447" lon="11.049543350176501"><ele>210.5</ele><time>2026-03-29T10:05:49.022Z</time></trkpt><trkpt lat="43.48114675321047" lon="11.049402220136782"><ele>212.0</ele><time>2026-03-29T10:05:50.022Z</time></trkpt><trkpt lat="43.48106393367037" lon="11.049254061778788"><ele>212.0</ele><time>2026-03-29T10:05:51.022Z</time></trkpt><trkpt lat="43.480992425536556" lon="11.049134094831958"><ele>212.0</ele><time>2026-03-29T10:05:52.022Z</time></trkpt><trkpt lat="43.48093790620767" lon="11.049046887181431"><ele>212.0</ele><time>2026-03-29T10:05:53.022Z</time></trkpt><trkpt lat="43.48089581133978" lon="11.048937678980034"><ele>212.0</ele><time>2026-03-29T10:05:54.022Z</time></trkpt><trkpt lat="43.48082244534597" lon="11.04882982423289"><ele>212.0</ele><time>2026-03-29T10:05:55.022Z</time></trkpt><trkpt lat="43.48072840668521" lon="11.048708391402906"><ele>212.6</ele><time>2026-03-29T10:05:56.022Z</time></trkpt><trkpt lat="43.48064888116669" lon="11.048569487527972"><ele>213.2</ele><time>2026-03-29T10:05:57.022Z</time></trkpt><trkpt lat="43.48057578076846" lon="11.048436081627752"><ele>213.8</ele><time>2026-03-29T10:05:58.022Z</time></trkpt><trkpt lat="43.48051376460972" lon="11.048343406256883"><ele>214.4</ele><time>2026-03-29T10:05:59.022Z</time></trkpt><trkpt lat="43.480464041444385" lon="11.048258357055843"><ele>215.0</ele><time>2026-03-29T10:06:00.022Z</time></trkpt><trkpt lat="43.480414617040495" lon="11.048142526146751"><ele>220.75</ele><time>2026-03-29T10:06:01.022Z</time></trkpt><trkpt lat="43.48037246134707" lon="11.048029752373449"><ele>226.5</ele><time>2026-03-29T10:06:02.022Z</time></trkpt><trkpt lat="43.48033129352945" lon="11.04787455537055"><ele>232.25</ele><time>2026-03-29T10:06:03.022Z</time></trkpt><trkpt lat="43.48027333756614" lon="11.047720611145099"><ele>238.0</ele><time>2026-03-29T10:06:04.022Z</time></trkpt><trkpt lat="43.48022912287775" lon="11.047570570101406"><ele>239.0</ele><time>2026-03-29T10:06:05.022Z</time></trkpt><trkpt lat="43.480172854744374" lon="11.047410354540673"><ele>240.0</ele><time>2026-03-29T10:06:06.022Z</time></trkpt><trkpt lat="43.48011607112988" lon="11.047254787795351"><ele>241.0</ele><time>2026-03-29T10:06:07.022Z</time></trkpt><trkpt lat="43.480063215487085" lon="11.0470893016759"><ele>242.0</ele><time>2026-03-29T10:06:08.022Z</time></trkpt><trkpt lat="43.47999479205738" lon="11.046923400733194"><ele>242.0</ele><time>2026-03-29T10:06:09.022Z</time></trkpt><trkpt lat="43.47993504226087" lon="11.046796264407824"><ele>242.0</ele><time>2026-03-29T10:06:10.022Z</time></trkpt><trkpt lat="43.47988136761579" lon="11.046706178771602"><ele>242.0</ele><time>2026-03-29T10:06:11.022Z</time></trkpt><trkpt lat="43.47980302151009" lon="11.046616284650275"><ele>242.0</ele><time>2026-03-29T10:06:12.022Z</time></trkpt><trkpt lat="43.479716882568056" lon="11.046522518924226"><ele>242.0</ele><time>2026-03-29T10:06:13.022Z</time></trkpt><trkpt lat="43.47962531602275" lon="11.046421954149077"><ele>244.2</ele><time>2026-03-29T10:06:14.022Z</time></trkpt><trkpt lat="43.47953928149828" lon="11.04631890005328"><ele>246.39999999999998</ele><time>2026-03-29T10:06:15.022Z</time></trkpt><trkpt lat="43.479470752492574" lon="11.046237462675794"><ele>248.60000000000002</ele><time>2026-03-29T10:06:16.022Z</time></trkpt><trkpt lat="43.47941125841618" lon="11.04615323172183"><ele>250.8</ele><time>2026-03-29T10:06:17.022Z</time></trkpt><trkpt lat="43.479350706089726" lon="11.046090398943157"><ele>253.0</ele><time>2026-03-29T10:06:18.022Z</time></trkpt><trkpt lat="43.479253791086016" lon="11.04595831991231"><ele>253.0</ele><time>2026-03-29T10:06:19.022Z</time></trkpt><trkpt lat="43.47915434040626" lon="11.045849662510648"><ele>253.0</ele><time>2026-03-29T10:06:20.022Z</time></trkpt><trkpt lat="43.47906717325897" lon="11.045755080765243"><ele>253.0</ele><time>2026-03-29T10:06:21.022Z</time></trkpt><trkpt lat="43.47899546874651" lon="11.04567239751786"><ele>253.0</ele><time>2026-03-29T10:06:22.022Z</time></trkpt><trkpt lat="43.47892728322058" lon="11.045591968770331"><ele>253.0</ele><time>2026-03-29T10:06:23.022Z</time></trkpt><trkpt lat="43.47887559273002" lon="11.045504915006296"><ele>252.0</ele><time>2026-03-29T10:06:24.022Z</time></trkpt><trkpt lat="43.4788327606339" lon="11.045360911757966"><ele>251.0</ele><time>2026-03-29T10:06:26.022Z</time></trkpt><trkpt lat="43.478806635480794" lon="11.045231314129012"><ele>250.0</ele><time>2026-03-29T10:06:28.022Z</time></trkpt><trkpt lat="43.47869806728609" lon="11.045202931823615"><ele>249.0</ele><time>2026-03-29T10:06:29.022Z</time></trkpt><trkpt lat="43.47860383282756" lon="11.045135613027925"><ele>248.0</ele><time>2026-03-29T10:06:30.022Z</time></trkpt><trkpt lat="43.47848398239822" lon="11.045046567797089"><ele>244.0</ele><time>2026-03-29T10:06:31.022Z</time></trkpt><trkpt lat="43.478354927868004" lon="11.044955117239793"><ele>240.0</ele><time>2026-03-29T10:06:32.022Z</time></trkpt><trkpt lat="43.47825494851682" lon="11.04487634370953"><ele>236.0</ele><time>2026-03-29T10:06:33.022Z</time></trkpt><trkpt lat="43.478179749892604" lon="11.044813483273959"><ele>232.0</ele><time>2026-03-29T10:06:34.022Z</time></trkpt><trkpt lat="43.47808619020476" lon="11.044729044508468"><ele>232.0</ele><time>2026-03-29T10:06:35.022Z</time></trkpt><trkpt lat="43.47798822399977" lon="11.04461689701433"><ele>232.0</ele><time>2026-03-29T10:06:36.022Z</time></trkpt><trkpt lat="43.47787488728528" lon="11.044480368383839"><ele>232.0</ele><time>2026-03-29T10:06:37.022Z</time></trkpt><trkpt lat="43.4777424300904" lon="11.044325339686353"><ele>233.33333333333331</ele><time>2026-03-29T10:06:38.022Z</time></trkpt><trkpt lat="43.47761571146895" lon="11.044102442925189"><ele>234.66666666666669</ele><time>2026-03-29T10:06:39.022Z</time></trkpt><trkpt lat="43.477485748953015" lon="11.04391139835108"><ele>236.0</ele><time>2026-03-29T10:06:40.022Z</time></trkpt><trkpt lat="43.47737560628055" lon="11.043741729900848"><ele>236.0</ele><time>2026-03-29T10:06:41.022Z</time></trkpt><trkpt lat="43.477276984535735" lon="11.043608323548561"><ele>236.0</ele><time>2026-03-29T10:06:42.022Z</time></trkpt><trkpt lat="43.47720279149744" lon="11.043444394607862"><ele>236.0</ele><time>2026-03-29T10:06:43.022Z</time></trkpt><trkpt lat="43.477109837231275" lon="11.04332744359237"><ele>236.0</ele><time>2026-03-29T10:06:44.022Z</time></trkpt><trkpt lat="43.477025204057476" lon="11.043208415989781"><ele>239.25</ele><time>2026-03-29T10:06:45.022Z</time></trkpt><trkpt lat="43.47692032665639" lon="11.043108978763746"><ele>242.5</ele><time>2026-03-29T10:06:46.022Z</time></trkpt><trkpt lat="43.476800858466774" lon="11.043010256083962"><ele>245.75</ele><time>2026-03-29T10:06:47.022Z</time></trkpt><trkpt lat="43.47668559405257" lon="11.042894117805206"><ele>249.0</ele><time>2026-03-29T10:06:48.022Z</time></trkpt><trkpt lat="43.47655790518959" lon="11.042802874641204"><ele>249.0</ele><time>2026-03-29T10:06:49.022Z</time></trkpt><trkpt lat="43.476431913247836" lon="11.042696512065033"><ele>249.0</ele><time>2026-03-29T10:06:50.022Z</time></trkpt><trkpt lat="43.47629251494742" lon="11.04258629813027"><ele>249.0</ele><time>2026-03-29T10:06:51.022Z</time></trkpt><trkpt lat="43.47615283044732" lon="11.042480945231581"><ele>251.0</ele><time>2026-03-29T10:06:52.022Z</time></trkpt><trkpt lat="43.47601490809415" lon="11.042399557579797"><ele>253.0</ele><time>2026-03-29T10:06:53.022Z</time></trkpt><trkpt lat="43.475899191156934" lon="11.04233320826102"><ele>255.0</ele><time>2026-03-29T10:06:54.022Z</time></trkpt><trkpt lat="43.475783398191844" lon="11.04226520833949"><ele>257.0</ele><time>2026-03-29T10:06:55.022Z</time></trkpt><trkpt lat="43.47564490793942" lon="11.042172815806216"><ele>257.0</ele><time>2026-03-29T10:06:56.022Z</time></trkpt><trkpt lat="43.4755014468197" lon="11.042082442559327"><ele>257.0</ele><time>2026-03-29T10:06:57.022Z</time></trkpt><trkpt lat="43.475331509296524" lon="11.041989211438715"><ele>257.0</ele><time>2026-03-29T10:06:58.021Z</time></trkpt><trkpt lat="43.475157770882724" lon="11.041903607947123"><ele>256.33333333333337</ele><time>2026-03-29T10:06:59.021Z</time></trkpt><trkpt lat="43.47497403479237" lon="11.04182896990005"><ele>255.66666666666669</ele><time>2026-03-29T10:07:00.021Z</time></trkpt><trkpt lat="43.47478405092942" lon="11.041756609277751"><ele>255.0</ele><time>2026-03-29T10:07:01.021Z</time></trkpt><trkpt lat="43.47459728035272" lon="11.041679407830093"><ele>256.3333333333333</ele><time>2026-03-29T10:07:02.021Z</time></trkpt><trkpt lat="43.47440848120958" lon="11.041600382318881"><ele>257.66666666666663</ele><time>2026-03-29T10:07:03.021Z</time></trkpt><trkpt lat="43.47421674739176" lon="11.04152257547381"><ele>259.0</ele><time>2026-03-29T10:07:04.021Z</time></trkpt><trkpt lat="43.474024663891186" lon="11.041437147432756"><ele>259.0</ele><time>2026-03-29T10:07:05.021Z</time></trkpt><trkpt lat="43.473829617937255" lon="11.041332530245525"><ele>259.0</ele><time>2026-03-29T10:07:06.021Z</time></trkpt><trkpt lat="43.47364993455764" lon="11.041187725911055"><ele>259.0</ele><time>2026-03-29T10:07:07.021Z</time></trkpt><trkpt lat="43.473472829800954" lon="11.0410590706829"><ele>259.66666666666663</ele><time>2026-03-29T10:07:08.021Z</time></trkpt><trkpt lat="43.473327420036206" lon="11.040928666117978"><ele>260.3333333333333</ele><time>2026-03-29T10:07:09.021Z</time></trkpt><trkpt lat="43.47320565374575" lon="11.040843084859144"><ele>261.0</ele><time>2026-03-29T10:07:10.021Z</time></trkpt><trkpt lat="43.47307997599054" lon="11.04075554284088"><ele>264.3333333333333</ele><time>2026-03-29T10:07:11.021Z</time></trkpt><trkpt lat="43.47293867592262" lon="11.040682895235065"><ele>267.66666666666663</ele><time>2026-03-29T10:07:12.021Z</time></trkpt><trkpt lat="43.47279876123992" lon="11.04060962222323"><ele>271.0</ele><time>2026-03-29T10:07:13.021Z</time></trkpt><trkpt lat="43.47265998853007" lon="11.04053275543782"><ele>271.0</ele><time>2026-03-29T10:07:14.021Z</time></trkpt><trkpt lat="43.472511520074136" lon="11.040451893338401"><ele>271.0</ele><time>2026-03-29T10:07:15.021Z</time></trkpt><trkpt lat="43.47235569280253" lon="11.04038646730251"><ele>271.0</ele><time>2026-03-29T10:07:16.021Z</time></trkpt><trkpt lat="43.47221772363428" lon="11.040325500791122"><ele>274.2</ele><time>2026-03-29T10:07:17.023Z</time></trkpt><trkpt lat="43.47209388631302" lon="11.040287278486085"><ele>277.40000000000003</ele><time>2026-03-29T10:07:18.023Z</time></trkpt><trkpt lat="43.4720080948215" lon="11.04023124221046"><ele>280.6</ele><time>2026-03-29T10:07:19.023Z</time></trkpt><trkpt lat="43.471922349851084" lon="11.040204671622574"><ele>283.8</ele><time>2026-03-29T10:07:20.023Z</time></trkpt><trkpt lat="43.471854603941075" lon="11.040166541227773"><ele>287.0</ele><time>2026-03-29T10:07:22.023Z</time></trkpt><trkpt lat="43.47176427995939" lon="11.040118291974112"><ele>287.0</ele><time>2026-03-29T10:08:31.023Z</time></trkpt><trkpt lat="43.47168960344719" lon="11.040080009506285"><ele>287.0</ele><time>2026-03-29T10:08:33.023Z</time></trkpt><trkpt lat="43.471660116020395" lon="11.039994895005838"><ele>287.0</ele><time>2026-03-29T10:08:34.023Z</time></trkpt><trkpt lat="43.47163470015968" lon="11.039895855866842"><ele>287.0</ele><time>2026-03-29T10:08:35.023Z</time></trkpt><trkpt lat="43.471589773656355" lon="11.039767021314978"><ele>287.0</ele><time>2026-03-29T10:08:36.023Z</time></trkpt><trkpt lat="43.47153772652889" lon="11.039612439028613"><ele>285.2</ele><time>2026-03-29T10:08:37.023Z</time></trkpt><trkpt lat="43.471493996308986" lon="11.039474984516962"><ele>283.4</ele><time>2026-03-29T10:08:38.023Z</time></trkpt><trkpt lat="43.47145524617164" lon="11.039337900856328"><ele>281.6</ele><time>2026-03-29T10:08:39.023Z</time></trkpt><trkpt lat="43.47141649482463" lon="11.03919324197449"><ele>279.8</ele><time>2026-03-29T10:08:40.023Z</time></trkpt><trkpt lat="43.4713854309634" lon="11.039044993509409"><ele>278.0</ele><time>2026-03-29T10:08:41.023Z</time></trkpt><trkpt lat="43.47134446995863" lon="11.03888292090461"><ele>277.4</ele><time>2026-03-29T10:08:42.023Z</time></trkpt><trkpt lat="43.47130505558858" lon="11.038727323645281"><ele>276.8</ele><time>2026-03-29T10:08:43.023Z</time></trkpt><trkpt lat="43.471269521642284" lon="11.038587322288178"><ele>276.2</ele><time>2026-03-29T10:08:44.023Z</time></trkpt><trkpt lat="43.47125672423054" lon="11.03845369744186"><ele>275.6</ele><time>2026-03-29T10:08:45.023Z</time></trkpt><trkpt lat="43.471237701790194" lon="11.038344578016844"><ele>275.0</ele><time>2026-03-29T10:08:46.023Z</time></trkpt><trkpt lat="43.47122808207161" lon="11.038255123164705"><ele>274.7142857142857</ele><time>2026-03-29T10:08:47.023Z</time></trkpt><trkpt lat="43.471214053613224" lon="11.03816691709001"><ele>274.42857142857144</ele><time>2026-03-29T10:08:48.023Z</time></trkpt><trkpt lat="43.47120457899586" lon="11.038074196697881"><ele>274.1428571428571</ele><time>2026-03-29T10:08:49.023Z</time></trkpt><trkpt lat="43.47119626711971" lon="11.037985640029191"><ele>273.8571428571429</ele><time>2026-03-29T10:08:50.023Z</time></trkpt><trkpt lat="43.47119735814727" lon="11.037894550018438"><ele>273.57142857142856</ele><time>2026-03-29T10:08:51.023Z</time></trkpt><trkpt lat="43.471192504319035" lon="11.037802381606168"><ele>273.2857142857143</ele><time>2026-03-29T10:08:52.023Z</time></trkpt><trkpt lat="43.47118281895186" lon="11.037713317579634"><ele>273.0</ele><time>2026-03-29T10:08:53.023Z</time></trkpt><trkpt lat="43.47117447950035" lon="11.037520272417833"><ele>273.0</ele><time>2026-03-29T10:08:55.023Z</time></trkpt><trkpt lat="43.47117210164901" lon="11.037387085467097"><ele>273.0</ele><time>2026-03-29T10:08:56.023Z</time></trkpt><trkpt lat="43.47117579016795" lon="11.037236222362155"><ele>273.0</ele><time>2026-03-29T10:08:57.023Z</time></trkpt><trkpt lat="43.47118644453162" lon="11.03708820105456"><ele>273.0</ele><time>2026-03-29T10:08:58.023Z</time></trkpt><trkpt lat="43.47119705491518" lon="11.036948520116876"><ele>273.0</ele><time>2026-03-29T10:08:59.023Z</time></trkpt><trkpt lat="43.47119637385642" lon="11.03683757643717"><ele>273.0</ele><time>2026-03-29T10:09:00.023Z</time></trkpt><trkpt lat="43.47119876964025" lon="11.036729938956542"><ele>273.0</ele><time>2026-03-29T10:09:01.023Z</time></trkpt><trkpt lat="43.471195944071766" lon="11.036563927070487"><ele>273.0</ele><time>2026-03-29T10:09:03.023Z</time></trkpt><trkpt lat="43.47119527750261" lon="11.036470120810643"><ele>273.0</ele><time>2026-03-29T10:09:04.023Z</time></trkpt><trkpt lat="43.471198978195254" lon="11.036370070635723"><ele>273.0</ele><time>2026-03-29T10:09:05.023Z</time></trkpt><trkpt lat="43.47119464814402" lon="11.036276777150249"><ele>273.0</ele><time>2026-03-29T10:09:06.023Z</time></trkpt><trkpt lat="43.471201752530305" lon="11.036160557202242"><ele>272.8</ele><time>2026-03-29T10:09:07.023Z</time></trkpt><trkpt lat="43.47119598271296" lon="11.036060673639806"><ele>272.6</ele><time>2026-03-29T10:09:08.023Z</time></trkpt><trkpt lat="43.47119183313225" lon="11.035968552235657"><ele>272.4</ele><time>2026-03-29T10:09:09.023Z</time></trkpt><trkpt lat="43.47118299718032" lon="11.035807068632975"><ele>272.2</ele><time>2026-03-29T10:09:11.023Z</time></trkpt><trkpt lat="43.47118184091589" lon="11.035623672113807"><ele>272.0</ele><time>2026-03-29T10:09:13.023Z</time></trkpt><trkpt lat="43.471180948680676" lon="11.03551011790423"><ele>271.33333333333337</ele><time>2026-03-29T10:09:14.023Z</time></trkpt><trkpt lat="43.47118236974272" lon="11.0353850090393"><ele>270.6666666666667</ele><time>2026-03-29T10:09:15.023Z</time></trkpt><trkpt lat="43.47118550823184" lon="11.035284827450292"><ele>270.0</ele><time>2026-03-29T10:09:16.023Z</time></trkpt><trkpt lat="43.47118316333563" lon="11.035191757840815"><ele>269.3333333333333</ele><time>2026-03-29T10:09:17.023Z</time></trkpt><trkpt lat="43.47119178279465" lon="11.035057564418528"><ele>268.66666666666663</ele><time>2026-03-29T10:09:19.023Z</time></trkpt><trkpt lat="43.47119465815142" lon="11.034963832676766"><ele>268.0</ele><time>2026-03-29T10:09:21.023Z</time></trkpt><trkpt lat="43.47113926584698" lon="11.034901760949072"><ele>268.0</ele><time>2026-03-29T10:09:32.025Z</time></trkpt><trkpt lat="43.47115157554304" lon="11.035017568736642"><ele>268.0</ele><time>2026-03-29T10:09:34.025Z</time></trkpt><trkpt lat="43.47114911346186" lon="11.03511117108008"><ele>268.0</ele><time>2026-03-29T10:09:35.026Z</time></trkpt><trkpt lat="43.471144209830804" lon="11.035228410789205"><ele>268.0</ele><time>2026-03-29T10:09:36.025Z</time></trkpt><trkpt lat="43.47115267178293" lon="11.035352748120447"><ele>268.0</ele><time>2026-03-29T10:09:37.025Z</time></trkpt><trkpt lat="43.47116444069807" lon="11.035485911323129"><ele>268.0</ele><time>2026-03-29T10:09:38.025Z</time></trkpt><trkpt lat="43.471171698963246" lon="11.035651572477434"><ele>268.0</ele><time>2026-03-29T10:09:39.025Z</time></trkpt><trkpt lat="43.47116558825129" lon="11.035794713256402"><ele>268.0</ele><time>2026-03-29T10:09:40.025Z</time></trkpt><trkpt lat="43.471167785322926" lon="11.035923088449378"><ele>268.0</ele><time>2026-03-29T10:09:41.025Z</time></trkpt><trkpt lat="43.47117897081093" lon="11.036065642856464"><ele>268.0</ele><time>2026-03-29T10:09:42.025Z</time></trkpt><trkpt lat="43.471181998006635" lon="11.036201136318772"><ele>268.0</ele><time>2026-03-29T10:09:43.025Z</time></trkpt><trkpt lat="43.47118153205672" lon="11.036338709170542"><ele>268.8</ele><time>2026-03-29T10:09:44.025Z</time></trkpt><trkpt lat="43.47118124430088" lon="11.036469028061214"><ele>269.6</ele><time>2026-03-29T10:09:45.025Z</time></trkpt><trkpt lat="43.4711790036681" lon="11.036613785067892"><ele>270.4</ele><time>2026-03-29T10:09:46.025Z</time></trkpt><trkpt lat="43.47117205573311" lon="11.036764098008478"><ele>271.2</ele><time>2026-03-29T10:09:47.025Z</time></trkpt><trkpt lat="43.471169315234334" lon="11.036918138774666"><ele>272.0</ele><time>2026-03-29T10:09:48.025Z</time></trkpt><trkpt lat="43.47115888551107" lon="11.03707918267847"><ele>272.2</ele><time>2026-03-29T10:09:49.025Z</time></trkpt><trkpt lat="43.4711527945904" lon="11.03724457547944"><ele>272.4</ele><time>2026-03-29T10:09:50.025Z</time></trkpt><trkpt lat="43.47115038499164" lon="11.037400542274685"><ele>272.6</ele><time>2026-03-29T10:09:51.025Z</time></trkpt><trkpt lat="43.471150536399186" lon="11.037534678908056"><ele>272.8</ele><time>2026-03-29T10:09:52.025Z</time></trkpt><trkpt lat="43.47115651313279" lon="11.037643725097025"><ele>273.0</ele><time>2026-03-29T10:09:53.025Z</time></trkpt><trkpt lat="43.47115852311752" lon="11.037748859907717"><ele>273.0</ele><time>2026-03-29T10:09:55.025Z</time></trkpt><trkpt lat="43.47114063385319" lon="11.037869855554273"><ele>273.0</ele><time>2026-03-29T10:10:08.025Z</time></trkpt><trkpt lat="43.47117454596157" lon="11.038096909034902"><ele>273.0</ele><time>2026-03-29T10:10:10.025Z</time></trkpt><trkpt lat="43.47118931245987" lon="11.038230092089051"><ele>273.0</ele><time>2026-03-29T10:10:11.025Z</time></trkpt><trkpt lat="43.47121824027791" lon="11.038400698865244"><ele>272.75</ele><time>2026-03-29T10:10:12.025Z</time></trkpt><trkpt lat="43.47125179548542" lon="11.038584606700283"><ele>272.5</ele><time>2026-03-29T10:10:13.025Z</time></trkpt><trkpt lat="43.47128565485465" lon="11.038783161885286"><ele>272.25</ele><time>2026-03-29T10:10:14.025Z</time></trkpt><trkpt lat="43.47132148024827" lon="11.038955433298572"><ele>272.0</ele><time>2026-03-29T10:10:15.025Z</time></trkpt><trkpt lat="43.47136658799962" lon="11.03913467270389"><ele>274.0</ele><time>2026-03-29T10:10:16.025Z</time></trkpt><trkpt lat="43.47142108004124" lon="11.039334205669014"><ele>276.0</ele><time>2026-03-29T10:10:17.025Z</time></trkpt><trkpt lat="43.47148846927952" lon="11.039558016779447"><ele>278.0</ele><time>2026-03-29T10:10:18.025Z</time></trkpt><trkpt lat="43.47156062937554" lon="11.039775284091707"><ele>278.0</ele><time>2026-03-29T10:10:19.025Z</time></trkpt><trkpt lat="43.47162367473216" lon="11.039965792032929"><ele>278.0</ele><time>2026-03-29T10:10:20.025Z</time></trkpt><trkpt lat="43.47167640467653" lon="11.04012551785887"><ele>278.0</ele><time>2026-03-29T10:10:21.025Z</time></trkpt><trkpt lat="43.47172274701975" lon="11.040272055141106"><ele>278.0</ele><time>2026-03-29T10:10:22.025Z</time></trkpt><trkpt lat="43.47177519844318" lon="11.040414418114889"><ele>280.25</ele><time>2026-03-29T10:10:23.025Z</time></trkpt><trkpt lat="43.47182615117922" lon="11.040567570347614"><ele>282.5</ele><time>2026-03-29T10:10:24.025Z</time></trkpt><trkpt lat="43.47188513202677" lon="11.040727015452632"><ele>284.75</ele><time>2026-03-29T10:10:25.025Z</time></trkpt><trkpt lat="43.47194029044094" lon="11.040904783969422"><ele>287.0</ele><time>2026-03-29T10:10:26.025Z</time></trkpt><trkpt lat="43.47198401500394" lon="11.04107042934349"><ele>289.2</ele><time>2026-03-29T10:10:27.025Z</time></trkpt><trkpt lat="43.47199967276299" lon="11.04121060410936"><ele>291.4</ele><time>2026-03-29T10:10:28.025Z</time></trkpt><trkpt lat="43.47197715149984" lon="11.041333136879327"><ele>293.6</ele><time>2026-03-29T10:10:29.025Z</time></trkpt><trkpt lat="43.47191188673495" lon="11.041413163212283"><ele>295.8</ele><time>2026-03-29T10:10:30.025Z</time></trkpt><trkpt lat="43.47183323684247" lon="11.041450411346048"><ele>298.0</ele><time>2026-03-29T10:10:31.025Z</time></trkpt><trkpt lat="43.47174791427494" lon="11.041457755380629"><ele>298.0</ele><time>2026-03-29T10:10:32.025Z</time></trkpt><trkpt lat="43.47168157124829" lon="11.041416081905686"><ele>298.0</ele><time>2026-03-29T10:10:33.025Z</time></trkpt><trkpt lat="43.47161352817409" lon="11.04127967473035"><ele>298.0</ele><time>2026-03-29T10:10:35.025Z</time></trkpt><trkpt lat="43.47157698845792" lon="11.04119399675329"><ele>298.0</ele><time>2026-03-29T10:10:36.025Z</time></trkpt><trkpt lat="43.471532345297454" lon="11.041091262074197"><ele>298.0</ele><time>2026-03-29T10:10:37.025Z</time></trkpt><trkpt lat="43.47146732435848" lon="11.040993277629859"><ele>298.0</ele><time>2026-03-29T10:10:38.025Z</time></trkpt><trkpt lat="43.47141501885758" lon="11.040899412568624"><ele>298.0</ele><time>2026-03-29T10:10:39.025Z</time></trkpt><trkpt lat="43.47135050768123" lon="11.040826008506578"><ele>298.0</ele><time>2026-03-29T10:10:40.025Z</time></trkpt><trkpt lat="43.47123818310892" lon="11.040738548334215"><ele>298.0</ele><time>2026-03-29T10:10:42.025Z</time></trkpt><trkpt lat="43.47116704268113" lon="11.040730100454155"><ele>298.0</ele><time>2026-03-29T10:10:43.025Z</time></trkpt><trkpt lat="43.47106780232914" lon="11.040771421615567"><ele>298.0</ele><time>2026-03-29T10:10:44.025Z</time></trkpt><trkpt lat="43.47100550083817" lon="11.040795467905284"><ele>299.4</ele><time>2026-03-29T10:10:45.025Z</time></trkpt><trkpt lat="43.4708896695667" lon="11.040851692588808"><ele>300.8</ele><time>2026-03-29T10:10:47.025Z</time></trkpt><trkpt lat="43.47076496609423" lon="11.040850466068889"><ele>302.2</ele><time>2026-03-29T10:10:49.025Z</time></trkpt><trkpt lat="43.47068717029919" lon="11.040874495661447"><ele>303.6</ele><time>2026-03-29T10:10:50.025Z</time></trkpt><trkpt lat="43.47061147837459" lon="11.04089582221215"><ele>305.0</ele><time>2026-03-29T10:10:51.025Z</time></trkpt><trkpt lat="43.47054222677652" lon="11.040922286147863"><ele>305.2</ele><time>2026-03-29T10:10:52.025Z</time></trkpt><trkpt lat="43.47042898650388" lon="11.040952344024685"><ele>305.4</ele><time>2026-03-29T10:10:54.025Z</time></trkpt><trkpt lat="43.47030532024072" lon="11.040981045449433"><ele>305.6</ele><time>2026-03-29T10:10:56.025Z</time></trkpt><trkpt lat="43.470238385484784" lon="11.040977130659723"><ele>305.8</ele><time>2026-03-29T10:10:57.025Z</time></trkpt><trkpt lat="43.47016598102793" lon="11.040968367709777"><ele>306.0</ele><time>2026-03-29T10:11:00.025Z</time></trkpt><trkpt lat="43.47009256017595" lon="11.04093755394533"><ele>306.0</ele><time>2026-03-29T10:11:10.025Z</time></trkpt><trkpt lat="43.47002408659446" lon="11.040921717838602"><ele>306.0</ele><time>2026-03-29T10:11:40.027Z</time></trkpt><trkpt lat="43.46995220214409" lon="11.040887667227832"><ele>306.0</ele><time>2026-03-29T10:11:44.027Z</time></trkpt><trkpt lat="43.46988839188022" lon="11.040842810360838"><ele>306.0</ele><time>2026-03-29T10:11:48.027Z</time></trkpt><trkpt lat="43.46978397894085" lon="11.040813579755728"><ele>306.0</ele><time>2026-03-29T10:11:52.027Z</time></trkpt><trkpt lat="43.469680760972736" lon="11.040765931086296"><ele>306.0</ele><time>2026-03-29T10:11:54.027Z</time></trkpt><trkpt lat="43.469617028390125" lon="11.0407468853758"><ele>306.1666666666667</ele><time>2026-03-29T10:11:55.027Z</time></trkpt><trkpt lat="43.46953939291957" lon="11.040722442133662"><ele>306.3333333333333</ele><time>2026-03-29T10:11:56.027Z</time></trkpt><trkpt lat="43.46946147713803" lon="11.040690317989228"><ele>306.5</ele><time>2026-03-29T10:11:57.027Z</time></trkpt><trkpt lat="43.46938782677752" lon="11.040679923668883"><ele>306.66666666666663</ele><time>2026-03-29T10:11:58.027Z</time></trkpt><trkpt lat="43.46931850301181" lon="11.040654074814192"><ele>306.8333333333333</ele><time>2026-03-29T10:11:59.027Z</time></trkpt><trkpt lat="43.46924189884836" lon="11.040629744173847"><ele>307.0</ele><time>2026-03-29T10:12:00.027Z</time></trkpt><trkpt lat="43.4691454987516" lon="11.040601948152876"><ele>306.99999999999994</ele><time>2026-03-29T10:12:01.027Z</time></trkpt><trkpt lat="43.46906635412921" lon="11.040576136468149"><ele>307.0</ele><time>2026-03-29T10:12:02.027Z</time></trkpt><trkpt lat="43.469000874381265" lon="11.040529650006812"><ele>307.0</ele><time>2026-03-29T10:12:03.027Z</time></trkpt><trkpt lat="43.46893845394968" lon="11.040492308290217"><ele>307.0</ele><time>2026-03-29T10:12:04.027Z</time></trkpt><trkpt lat="43.46888220379986" lon="11.040451563170503"><ele>307.0</ele><time>2026-03-29T10:12:05.027Z</time></trkpt><trkpt lat="43.4688120077857" lon="11.0403989888117"><ele>306.99999999999994</ele><time>2026-03-29T10:12:06.027Z</time></trkpt><trkpt lat="43.46874577688062" lon="11.040342586784599"><ele>307.0</ele><time>2026-03-29T10:12:07.027Z</time></trkpt><trkpt lat="43.46864442350413" lon="11.04025291041485"><ele>309.6</ele><time>2026-03-29T10:12:09.027Z</time></trkpt><trkpt lat="43.46852071850152" lon="11.040174412578626"><ele>312.2</ele><time>2026-03-29T10:12:11.027Z</time></trkpt><trkpt lat="43.46840777365823" lon="11.040113626282547"><ele>314.8</ele><time>2026-03-29T10:12:13.027Z</time></trkpt><trkpt lat="43.46833213855644" lon="11.040091830546325"><ele>317.4</ele><time>2026-03-29T10:12:14.027Z</time></trkpt><trkpt lat="43.46825230113661" lon="11.040071415961298"><ele>320.0</ele><time>2026-03-29T10:12:15.027Z</time></trkpt><trkpt lat="43.468182716608744" lon="11.040041784762419"><ele>320.0</ele><time>2026-03-29T10:12:16.027Z</time></trkpt><trkpt lat="43.468064394358564" lon="11.040028450586076"><ele>320.0</ele><time>2026-03-29T10:12:18.027Z</time></trkpt><trkpt lat="43.46798857737502" lon="11.040030220210198"><ele>320.0</ele><time>2026-03-29T10:12:19.027Z</time></trkpt><trkpt lat="43.46790195870663" lon="11.040035007698549"><ele>320.0</ele><time>2026-03-29T10:12:20.027Z</time></trkpt><trkpt lat="43.46781928388371" lon="11.040048684373811"><ele>320.0</ele><time>2026-03-29T10:12:21.027Z</time></trkpt><trkpt lat="43.46775844269092" lon="11.040080584555989"><ele>320.0</ele><time>2026-03-29T10:12:22.027Z</time></trkpt><trkpt lat="43.467681242083856" lon="11.040105337692651"><ele>319.2857142857143</ele><time>2026-03-29T10:12:23.027Z</time></trkpt><trkpt lat="43.467613714026044" lon="11.040123392800115"><ele>318.57142857142856</ele><time>2026-03-29T10:12:24.027Z</time></trkpt><trkpt lat="43.467543530623054" lon="11.04016039848276"><ele>317.8571428571429</ele><time>2026-03-29T10:12:25.027Z</time></trkpt><trkpt lat="43.46747357663361" lon="11.040177627288207"><ele>317.1428571428571</ele><time>2026-03-29T10:12:26.027Z</time></trkpt><trkpt lat="43.46741056778701" lon="11.04021419872063"><ele>316.42857142857144</ele><time>2026-03-29T10:12:27.027Z</time></trkpt><trkpt lat="43.467337122632635" lon="11.040237395478412"><ele>315.7142857142857</ele><time>2026-03-29T10:12:28.027Z</time></trkpt><trkpt lat="43.46727116263147" lon="11.04027299582707"><ele>315.0</ele><time>2026-03-29T10:12:29.027Z</time></trkpt><trkpt lat="43.4671680058434" lon="11.040340373946375"><ele>312.3333333333333</ele><time>2026-03-29T10:12:31.027Z</time></trkpt><trkpt lat="43.46705686140811" lon="11.040431337586645"><ele>309.6666666666667</ele><time>2026-03-29T10:12:33.027Z</time></trkpt><trkpt lat="43.46701203298954" lon="11.040494528516057"><ele>307.0</ele><time>2026-03-29T10:12:34.027Z</time></trkpt><trkpt lat="43.46695246242824" lon="11.040552581335117"><ele>304.33333333333337</ele><time>2026-03-29T10:12:35.027Z</time></trkpt><trkpt lat="43.4669032167842" lon="11.04061495627752"><ele>301.6666666666667</ele><time>2026-03-29T10:12:36.027Z</time></trkpt><trkpt lat="43.466855356045755" lon="11.04067389596312"><ele>299.0</ele><time>2026-03-29T10:12:37.027Z</time></trkpt><trkpt lat="43.46680702653648" lon="11.040748510778876"><ele>299.0</ele><time>2026-03-29T10:12:39.027Z</time></trkpt><trkpt lat="43.466749939904716" lon="11.040805886222666"><ele>299.0</ele><time>2026-03-29T10:12:47.027Z</time></trkpt><trkpt lat="43.466736840047034" lon="11.040721001542988"><ele>299.0</ele><time>2026-03-29T10:13:14.027Z</time></trkpt><trkpt lat="43.46685989972601" lon="11.040741946428435"><ele>299.0</ele><time>2026-03-29T10:51:53Z</time></trkpt><trkpt lat="43.466914092819195" lon="11.040649506596163"><ele>299.0</ele><time>2026-03-29T10:51:56Z</time></trkpt><trkpt lat="43.466981683103405" lon="11.040573799670977"><ele>299.0</ele><time>2026-03-29T10:51:59Z</time></trkpt><trkpt lat="43.46716178906763" lon="11.040415896422147"><ele>301.2857142857143</ele><time>2026-03-29T10:52:16.999Z</time></trkpt><trkpt lat="43.46721978430701" lon="11.040367882835165"><ele>303.57142857142856</ele><time>2026-03-29T10:52:17.999Z</time></trkpt><trkpt lat="43.467282677224325" lon="11.040323304871372"><ele>305.8571428571429</ele><time>2026-03-29T10:52:18.999Z</time></trkpt><trkpt lat="43.46734377124605" lon="11.040278996896422"><ele>308.1428571428571</ele><time>2026-03-29T10:52:19.999Z</time></trkpt><trkpt lat="43.467412321458134" lon="11.040237063785716"><ele>310.42857142857144</ele><time>2026-03-29T10:52:20.999Z</time></trkpt><trkpt lat="43.467476651749706" lon="11.040208841687392"><ele>312.7142857142857</ele><time>2026-03-29T10:52:21.999Z</time></trkpt><trkpt lat="43.4675527756705" lon="11.040182845713414"><ele>315.0</ele><time>2026-03-29T10:52:22.999Z</time></trkpt><trkpt lat="43.46764594935472" lon="11.0401577260009"><ele>315.0</ele><time>2026-03-29T10:52:23.999Z</time></trkpt><trkpt lat="43.46773852132876" lon="11.040116693842212"><ele>315.0</ele><time>2026-03-29T10:52:24.999Z</time></trkpt><trkpt lat="43.4678331282856" lon="11.04008604438122"><ele>315.0</ele><time>2026-03-29T10:52:25.999Z</time></trkpt><trkpt lat="43.46793268149437" lon="11.04007605697318"><ele>315.0</ele><time>2026-03-29T10:52:26.999Z</time></trkpt><trkpt lat="43.46803172281822" lon="11.040065565532053"><ele>315.0</ele><time>2026-03-29T10:52:27.999Z</time></trkpt><trkpt lat="43.468130933150206" lon="11.040074520639829"><ele>316.0</ele><time>2026-03-29T10:52:28.999Z</time></trkpt><trkpt lat="43.46821392027444" lon="11.040091272178888"><ele>317.0</ele><time>2026-03-29T10:52:29.999Z</time></trkpt><trkpt lat="43.46829091198964" lon="11.040122621224487"><ele>318.0</ele><time>2026-03-29T10:52:30.999Z</time></trkpt><trkpt lat="43.46838706441153" lon="11.040146761056707"><ele>319.0</ele><time>2026-03-29T10:52:31.999Z</time></trkpt><trkpt lat="43.46848717225577" lon="11.040199804470577"><ele>320.0</ele><time>2026-03-29T10:52:32.999Z</time></trkpt><trkpt lat="43.46858131389345" lon="11.040274408098398"><ele>320.0</ele><time>2026-03-29T10:52:33.999Z</time></trkpt><trkpt lat="43.46865779422223" lon="11.040346645275802"><ele>320.0</ele><time>2026-03-29T10:52:34.999Z</time></trkpt><trkpt lat="43.468739906678636" lon="11.040416911176594"><ele>320.0</ele><time>2026-03-29T10:52:35.999Z</time></trkpt><trkpt lat="43.46882296300037" lon="11.040483181974372"><ele>320.0</ele><time>2026-03-29T10:52:36.999Z</time></trkpt><trkpt lat="43.46892265132475" lon="11.040568525038688"><ele>320.0</ele><time>2026-03-29T10:52:37.999Z</time></trkpt><trkpt lat="43.46902051010721" lon="11.040631137704546"><ele>317.4</ele><time>2026-03-29T10:52:38.999Z</time></trkpt><trkpt lat="43.469115354635385" lon="11.040672873411514"><ele>314.8</ele><time>2026-03-29T10:52:39.999Z</time></trkpt><trkpt lat="43.46921781919231" lon="11.040698730750773"><ele>312.2</ele><time>2026-03-29T10:52:40.999Z</time></trkpt><trkpt lat="43.46931470804687" lon="11.040721745902278"><ele>309.6</ele><time>2026-03-29T10:52:41.999Z</time></trkpt><trkpt lat="43.469412086481704" lon="11.040766722941347"><ele>307.0</ele><time>2026-03-29T10:52:42.999Z</time></trkpt><trkpt lat="43.469523126423674" lon="11.040785380936452"><ele>306.8</ele><time>2026-03-29T10:52:43.999Z</time></trkpt><trkpt lat="43.46964309583858" lon="11.040796933720774"><ele>306.6</ele><time>2026-03-29T10:52:44.999Z</time></trkpt><trkpt lat="43.46974917214779" lon="11.040824750605301"><ele>306.40000000000003</ele><time>2026-03-29T10:52:45.999Z</time></trkpt><trkpt lat="43.46984009986818" lon="11.040854297352478"><ele>306.2</ele><time>2026-03-29T10:52:46.999Z</time></trkpt><trkpt lat="43.469917786804615" lon="11.0408985882875"><ele>306.0</ele><time>2026-03-29T10:52:47.999Z</time></trkpt><trkpt lat="43.46998826541423" lon="11.04093827378856"><ele>306.0</ele><time>2026-03-29T10:52:48.999Z</time></trkpt><trkpt lat="43.47006350846336" lon="11.040985578025852"><ele>306.0</ele><time>2026-03-29T10:52:49.999Z</time></trkpt><trkpt lat="43.47012389302126" lon="11.041011410212127"><ele>306.0</ele><time>2026-03-29T10:52:50.999Z</time></trkpt><trkpt lat="43.470246546119405" lon="11.04103830954151"><ele>306.0</ele><time>2026-03-29T10:52:52.999Z</time></trkpt><trkpt lat="43.470329403176024" lon="11.041022066510976"><ele>306.0</ele><time>2026-03-29T10:52:53.999Z</time></trkpt><trkpt lat="43.47041453613282" lon="11.041004768378311"><ele>306.0</ele><time>2026-03-29T10:52:54.999Z</time></trkpt><trkpt lat="43.47048563708031" lon="11.040981889837544"><ele>305.8333333333333</ele><time>2026-03-29T10:52:55.999Z</time></trkpt><trkpt lat="43.47056286424432" lon="11.040959445119837"><ele>305.6666666666667</ele><time>2026-03-29T10:52:56.999Z</time></trkpt><trkpt lat="43.47063583448545" lon="11.040948827016122"><ele>305.5</ele><time>2026-03-29T10:52:57.998Z</time></trkpt><trkpt lat="43.47072327305947" lon="11.040923549151357"><ele>305.33333333333337</ele><time>2026-03-29T10:52:58.998Z</time></trkpt><trkpt lat="43.47081900938465" lon="11.040896232336625"><ele>305.1666666666667</ele><time>2026-03-29T10:52:59.998Z</time></trkpt><trkpt lat="43.47091989539523" lon="11.040883260953498"><ele>305.0</ele><time>2026-03-29T10:53:00.998Z</time></trkpt><trkpt lat="43.4710076376354" lon="11.040847687545497"><ele>305.0</ele><time>2026-03-29T10:53:01.998Z</time></trkpt><trkpt lat="43.47108446439321" lon="11.040843884526316"><ele>305.0</ele><time>2026-03-29T10:53:02.998Z</time></trkpt><trkpt lat="43.471155022852244" lon="11.040828461416885"><ele>305.0</ele><time>2026-03-29T10:53:03.998Z</time></trkpt><trkpt lat="43.471280925866054" lon="11.040854675088172"><ele>305.0</ele><time>2026-03-29T10:53:05.998Z</time></trkpt><trkpt lat="43.47138201357344" lon="11.040937830176844"><ele>305.0</ele><time>2026-03-29T10:53:07.998Z</time></trkpt><trkpt lat="43.47141914211835" lon="11.041025041623548"><ele>303.83333333333337</ele><time>2026-03-29T10:53:08.998Z</time></trkpt><trkpt lat="43.471478183275536" lon="11.041094776856664"><ele>302.6666666666667</ele><time>2026-03-29T10:53:09.998Z</time></trkpt><trkpt lat="43.47151649437945" lon="11.041192906712087"><ele>301.5</ele><time>2026-03-29T10:53:10.998Z</time></trkpt><trkpt lat="43.47155777899212" lon="11.041271231451585"><ele>300.3333333333333</ele><time>2026-03-29T10:53:11.998Z</time></trkpt><trkpt lat="43.47158748479638" lon="11.041354666175874"><ele>299.16666666666663</ele><time>2026-03-29T10:53:12.998Z</time></trkpt><trkpt lat="43.47162833717811" lon="11.041429603398806"><ele>298.0</ele><time>2026-03-29T10:53:13.998Z</time></trkpt><trkpt lat="43.47169874247414" lon="11.041563842925047"><ele>298.0</ele><time>2026-03-29T10:53:15.998Z</time></trkpt><trkpt lat="43.47182076257375" lon="11.041617792613396"><ele>298.0</ele><time>2026-03-29T10:53:17.998Z</time></trkpt><trkpt lat="43.47188806622959" lon="11.041594338557378"><ele>298.0</ele><time>2026-03-29T10:53:18.998Z</time></trkpt><trkpt lat="43.47195778920922" lon="11.041542683545796"><ele>298.0</ele><time>2026-03-29T10:53:19.998Z</time></trkpt><trkpt lat="43.47200213631613" lon="11.041453237012881"><ele>298.0</ele><time>2026-03-29T10:53:20.998Z</time></trkpt><trkpt lat="43.47202917919655" lon="11.041322450828238"><ele>298.0</ele><time>2026-03-29T10:53:21.998Z</time></trkpt><trkpt lat="43.47203447675398" lon="11.041163352607327"><ele>298.0</ele><time>2026-03-29T10:53:22.998Z</time></trkpt><trkpt lat="43.47201205318004" lon="11.04100967085754"><ele>298.0</ele><time>2026-03-29T10:53:23.998Z</time></trkpt><trkpt lat="43.471968095292056" lon="11.040887873029233"><ele>298.0</ele><time>2026-03-29T10:53:24.998Z</time></trkpt><trkpt lat="43.47192193756545" lon="11.040779224342485"><ele>298.0</ele><time>2026-03-29T10:53:25.998Z</time></trkpt><trkpt lat="43.47188208013764" lon="11.040675767504302"><ele>296.16666666666663</ele><time>2026-03-29T10:53:26.999Z</time></trkpt><trkpt lat="43.47184949268595" lon="11.04057770749761"><ele>294.3333333333333</ele><time>2026-03-29T10:53:27.999Z</time></trkpt><trkpt lat="43.47181205987417" lon="11.04050363255288"><ele>292.5</ele><time>2026-03-29T10:53:28.999Z</time></trkpt><trkpt lat="43.471791618132485" lon="11.040414816301976"><ele>290.6666666666667</ele><time>2026-03-29T10:53:29.999Z</time></trkpt><trkpt lat="43.471753742685344" lon="11.040295276703285"><ele>288.83333333333337</ele><time>2026-03-29T10:53:31.999Z</time></trkpt><trkpt lat="43.47182163614345" lon="11.040230609419403"><ele>287.0</ele><time>2026-03-29T10:53:33.999Z</time></trkpt><trkpt lat="43.47195028019286" lon="11.04027117380851"><ele>287.0</ele><time>2026-03-29T10:53:35.999Z</time></trkpt><trkpt lat="43.472018588963444" lon="11.040305651372785"><ele>287.0</ele><time>2026-03-29T10:53:36.999Z</time></trkpt><trkpt lat="43.472113174148525" lon="11.040349881682152"><ele>287.0</ele><time>2026-03-29T10:53:37.999Z</time></trkpt><trkpt lat="43.472224302438185" lon="11.040387596257794"><ele>287.0</ele><time>2026-03-29T10:53:38.999Z</time></trkpt><trkpt lat="43.47233514538563" lon="11.040422257234304"><ele>287.0</ele><time>2026-03-29T10:53:39.999Z</time></trkpt><trkpt lat="43.47243756348922" lon="11.040462448917724"><ele>283.0</ele><time>2026-03-29T10:53:40.999Z</time></trkpt><trkpt lat="43.47254991777746" lon="11.040509096991629"><ele>279.0</ele><time>2026-03-29T10:53:41.999Z</time></trkpt><trkpt lat="43.47265309025539" lon="11.040569558741192"><ele>275.0</ele><time>2026-03-29T10:53:42.999Z</time></trkpt><trkpt lat="43.47276664232016" lon="11.040641305400976"><ele>271.0</ele><time>2026-03-29T10:53:43.999Z</time></trkpt><trkpt lat="43.472885048032175" lon="11.040721116585729"><ele>270.75</ele><time>2026-03-29T10:53:44.999Z</time></trkpt><trkpt lat="43.47300375369473" lon="11.04077338376584"><ele>270.5</ele><time>2026-03-29T10:53:45.999Z</time></trkpt><trkpt lat="43.47312117346588" lon="11.040854196306885"><ele>270.25</ele><time>2026-03-29T10:53:46.999Z</time></trkpt><trkpt lat="43.47325176018171" lon="11.040937921023696"><ele>270.0</ele><time>2026-03-29T10:53:47.999Z</time></trkpt><trkpt lat="43.47337794905971" lon="11.04103476976418"><ele>270.0</ele><time>2026-03-29T10:53:48.999Z</time></trkpt><trkpt lat="43.47350881446792" lon="11.04114575556294"><ele>270.0</ele><time>2026-03-29T10:53:49.999Z</time></trkpt><trkpt lat="43.47362903658215" lon="11.04124753908179"><ele>270.0</ele><time>2026-03-29T10:53:50.999Z</time></trkpt><trkpt lat="43.47373101843522" lon="11.041326803531168"><ele>270.0</ele><time>2026-03-29T10:53:51.999Z</time></trkpt><trkpt lat="43.47384150230907" lon="11.041412686157699"><ele>267.25</ele><time>2026-03-29T10:53:52.999Z</time></trkpt><trkpt lat="43.47395742761956" lon="11.041469277879349"><ele>264.5</ele><time>2026-03-29T10:53:53.999Z</time></trkpt><trkpt lat="43.47407724372964" lon="11.04151616904728"><ele>261.75</ele><time>2026-03-29T10:53:54.999Z</time></trkpt><trkpt lat="43.4742113295668" lon="11.041561065585055"><ele>259.0</ele><time>2026-03-29T10:53:55.999Z</time></trkpt><trkpt lat="43.474345111378355" lon="11.04162465678222"><ele>257.66666666666663</ele><time>2026-03-29T10:53:56.999Z</time></trkpt><trkpt lat="43.47448982386341" lon="11.041680297797122"><ele>256.3333333333333</ele><time>2026-03-29T10:53:57.999Z</time></trkpt><trkpt lat="43.474638427135474" lon="11.041746721036345"><ele>255.0</ele><time>2026-03-29T10:53:58.999Z</time></trkpt><trkpt lat="43.47479435526156" lon="11.041810325845892"><ele>255.0</ele><time>2026-03-29T10:53:59.999Z</time></trkpt><trkpt lat="43.47494972779461" lon="11.041874352431515"><ele>255.0</ele><time>2026-03-29T10:54:00.999Z</time></trkpt><trkpt lat="43.475095650623544" lon="11.041938193222814"><ele>255.0</ele><time>2026-03-29T10:54:01.999Z</time></trkpt><trkpt lat="43.47522758619581" lon="11.041995583045567"><ele>255.0</ele><time>2026-03-29T10:54:02.999Z</time></trkpt><trkpt lat="43.47535540453273" lon="11.042043510372427"><ele>255.0</ele><time>2026-03-29T10:54:03.999Z</time></trkpt><trkpt lat="43.475472050557144" lon="11.042110224329354"><ele>255.0</ele><time>2026-03-29T10:54:04.999Z</time></trkpt><trkpt lat="43.47558912014897" lon="11.042171927105707"><ele>255.0</ele><time>2026-03-29T10:54:05.999Z</time></trkpt><trkpt lat="43.47570648486304" lon="11.042248096954255"><ele>255.5</ele><time>2026-03-29T10:54:06.999Z</time></trkpt><trkpt lat="43.475818931756024" lon="11.042322539760923"><ele>256.0</ele><time>2026-03-29T10:54:07.999Z</time></trkpt><trkpt lat="43.47593908825529" lon="11.04240517730789"><ele>256.5</ele><time>2026-03-29T10:54:08.999Z</time></trkpt><trkpt lat="43.47604478046015" lon="11.042462855120458"><ele>257.0</ele><time>2026-03-29T10:54:09.999Z</time></trkpt><trkpt lat="43.47614540983343" lon="11.042520145615809"><ele>255.25</ele><time>2026-03-29T10:54:10.999Z</time></trkpt><trkpt lat="43.47625382633513" lon="11.042591790563304"><ele>253.5</ele><time>2026-03-29T10:54:11.999Z</time></trkpt><trkpt lat="43.47637148078604" lon="11.042679163675388"><ele>251.75</ele><time>2026-03-29T10:54:12.999Z</time></trkpt><trkpt lat="43.47649073302186" lon="11.042773423926949"><ele>250.0</ele><time>2026-03-29T10:54:13.999Z</time></trkpt><trkpt lat="43.47660245845795" lon="11.042910507458114"><ele>249.75</ele><time>2026-03-29T10:54:14.999Z</time></trkpt><trkpt lat="43.47673186506888" lon="11.043016324938563"><ele>249.5</ele><time>2026-03-29T10:54:15.999Z</time></trkpt><trkpt lat="43.47685523806139" lon="11.043113971125287"><ele>249.25</ele><time>2026-03-29T10:54:16.999Z</time></trkpt><trkpt lat="43.47696947425006" lon="11.043216775011489"><ele>249.0</ele><time>2026-03-29T10:54:17.999Z</time></trkpt><trkpt lat="43.47707115552353" lon="11.043324325418654"><ele>245.75</ele><time>2026-03-29T10:54:18.999Z</time></trkpt><trkpt lat="43.47716625022402" lon="11.04346132198568"><ele>242.5</ele><time>2026-03-29T10:54:19.999Z</time></trkpt><trkpt lat="43.47724940699652" lon="11.043620263221895"><ele>239.25</ele><time>2026-03-29T10:54:20.999Z</time></trkpt><trkpt lat="43.47733670839027" lon="11.043776872874059"><ele>236.0</ele><time>2026-03-29T10:54:21.999Z</time></trkpt><trkpt lat="43.47743516416096" lon="11.043935773925275"><ele>236.0</ele><time>2026-03-29T10:54:22.999Z</time></trkpt><trkpt lat="43.47754060759239" lon="11.044090164989822"><ele>236.0</ele><time>2026-03-29T10:54:23.999Z</time></trkpt><trkpt lat="43.47765138626283" lon="11.044244142661869"><ele>236.0</ele><time>2026-03-29T10:54:24.999Z</time></trkpt><trkpt lat="43.47777138235668" lon="11.044400568244061"><ele>235.0</ele><time>2026-03-29T10:54:25.999Z</time></trkpt><trkpt lat="43.4778868472488" lon="11.044554486249337"><ele>234.0</ele><time>2026-03-29T10:54:26.999Z</time></trkpt><trkpt lat="43.47800059176898" lon="11.04470052578577"><ele>233.0</ele><time>2026-03-29T10:54:27.999Z</time></trkpt><trkpt lat="43.478101861066335" lon="11.044816781220998"><ele>232.0</ele><time>2026-03-29T10:54:28.999Z</time></trkpt><trkpt lat="43.47819481561778" lon="11.044905258633616"><ele>234.6</ele><time>2026-03-29T10:54:29.999Z</time></trkpt><trkpt lat="43.4782824530977" lon="11.044985136582534"><ele>237.2</ele><time>2026-03-29T10:54:30.999Z</time></trkpt><trkpt lat="43.47837611129636" lon="11.045048130653644"><ele>239.8</ele><time>2026-03-29T10:54:31.999Z</time></trkpt><trkpt lat="43.478449934938716" lon="11.04511215152698"><ele>242.4</ele><time>2026-03-29T10:54:32.999Z</time></trkpt><trkpt lat="43.47852786947087" lon="11.045168506076175"><ele>245.0</ele><time>2026-03-29T10:54:33.999Z</time></trkpt><trkpt lat="43.478602919611816" lon="11.045218309404817"><ele>245.00000000000003</ele><time>2026-03-29T10:54:34.999Z</time></trkpt><trkpt lat="43.47867086540288" lon="11.045276507279958"><ele>245.0</ele><time>2026-03-29T10:54:35.999Z</time></trkpt><trkpt lat="43.47874641745485" lon="11.045343486880837"><ele>245.0</ele><time>2026-03-29T10:54:36.999Z</time></trkpt><trkpt lat="43.47881021791011" lon="11.045429643208786"><ele>245.0</ele><time>2026-03-29T10:54:37.999Z</time></trkpt><trkpt lat="43.4788621161207" lon="11.045510068694076"><ele>245.00000000000003</ele><time>2026-03-29T10:54:38.999Z</time></trkpt><trkpt lat="43.47889918723279" lon="11.045594021047544"><ele>245.0</ele><time>2026-03-29T10:54:39.999Z</time></trkpt><trkpt lat="43.4789861093048" lon="11.045709897664832"><ele>246.6</ele><time>2026-03-29T10:54:41.998Z</time></trkpt><trkpt lat="43.47908826772001" lon="11.045839132077232"><ele>248.2</ele><time>2026-03-29T10:54:43.998Z</time></trkpt><trkpt lat="43.47915945218801" lon="11.045914846253734"><ele>249.8</ele><time>2026-03-29T10:54:44.998Z</time></trkpt><trkpt lat="43.47923215449916" lon="11.045982342534243"><ele>251.4</ele><time>2026-03-29T10:54:45.998Z</time></trkpt><trkpt lat="43.47928926277311" lon="11.046051059041138"><ele>253.0</ele><time>2026-03-29T10:54:46.998Z</time></trkpt><trkpt lat="43.479341709847546" lon="11.046100954559625"><ele>253.0</ele><time>2026-03-29T10:54:47.998Z</time></trkpt><trkpt lat="43.47943855792632" lon="11.046207428070739"><ele>253.0</ele><time>2026-03-29T10:54:49.998Z</time></trkpt><trkpt lat="43.479489377613994" lon="11.046266554373837"><ele>253.0</ele><time>2026-03-29T10:54:50.998Z</time></trkpt><trkpt lat="43.47957345142059" lon="11.046379580678929"><ele>253.0</ele><time>2026-03-29T10:54:52.998Z</time></trkpt><trkpt lat="43.479635186918216" lon="11.046498753508454"><ele>253.0</ele><time>2026-03-29T10:54:54.998Z</time></trkpt><trkpt lat="43.47968914181823" lon="11.046555155156703"><ele>251.83333333333331</ele><time>2026-03-29T10:54:55.998Z</time></trkpt><trkpt lat="43.47974768546989" lon="11.046627380985187"><ele>250.66666666666666</ele><time>2026-03-29T10:54:56.998Z</time></trkpt><trkpt lat="43.47981421936082" lon="11.04670476404757"><ele>249.5</ele><time>2026-03-29T10:54:57.998Z</time></trkpt><trkpt lat="43.4798714802195" lon="11.046788837190798"><ele>248.33333333333331</ele><time>2026-03-29T10:54:58.998Z</time></trkpt><trkpt lat="43.47992323273908" lon="11.046890965608576"><ele>247.16666666666666</ele><time>2026-03-29T10:54:59.998Z</time></trkpt><trkpt lat="43.47997846253862" lon="11.047001102668204"><ele>246.0</ele><time>2026-03-29T10:55:00.998Z</time></trkpt><trkpt lat="43.48001458310642" lon="11.047125630284553"><ele>245.20000000000002</ele><time>2026-03-29T10:55:01.998Z</time></trkpt><trkpt lat="43.48006190395055" lon="11.047243282208914"><ele>244.40000000000003</ele><time>2026-03-29T10:55:02.998Z</time></trkpt><trkpt lat="43.480115396755686" lon="11.047368413261825"><ele>243.6</ele><time>2026-03-29T10:55:03.998Z</time></trkpt><trkpt lat="43.48015841477033" lon="11.047491392093825"><ele>242.8</ele><time>2026-03-29T10:55:04.998Z</time></trkpt><trkpt lat="43.48020577647659" lon="11.047610284496361"><ele>242.0</ele><time>2026-03-29T10:55:05.998Z</time></trkpt><trkpt lat="43.480253028150514" lon="11.047730055508774"><ele>241.2</ele><time>2026-03-29T10:55:06.998Z</time></trkpt><trkpt lat="43.48028242104385" lon="11.047841196726127"><ele>240.39999999999998</ele><time>2026-03-29T10:55:07.998Z</time></trkpt><trkpt lat="43.48032924738229" lon="11.047967516516746"><ele>239.60000000000002</ele><time>2026-03-29T10:55:08.998Z</time></trkpt><trkpt lat="43.48037492996341" lon="11.048080427872323"><ele>238.8</ele><time>2026-03-29T10:55:09.998Z</time></trkpt><trkpt lat="43.48042561294784" lon="11.048193888504656"><ele>238.0</ele><time>2026-03-29T10:55:10.998Z</time></trkpt><trkpt lat="43.48047419046448" lon="11.048301107709003"><ele>233.4</ele><time>2026-03-29T10:55:11.998Z</time></trkpt><trkpt lat="43.48052355296038" lon="11.048414780198808"><ele>228.8</ele><time>2026-03-29T10:55:12.998Z</time></trkpt><trkpt lat="43.48058027754914" lon="11.048527934948417"><ele>224.2</ele><time>2026-03-29T10:55:13.998Z</time></trkpt><trkpt lat="43.48064745125795" lon="11.048628667770366"><ele>219.6</ele><time>2026-03-29T10:55:14.998Z</time></trkpt><trkpt lat="43.480714149287294" lon="11.048724912593238"><ele>215.0</ele><time>2026-03-29T10:55:15.998Z</time></trkpt><trkpt lat="43.480758121407035" lon="11.048832063582863"><ele>215.00000000000003</ele><time>2026-03-29T10:55:16.998Z</time></trkpt><trkpt lat="43.480817594588196" lon="11.04891415712116"><ele>215.0</ele><time>2026-03-29T10:55:17.998Z</time></trkpt><trkpt lat="43.480865113825004" lon="11.048986819879778"><ele>215.0</ele><time>2026-03-29T10:55:18.998Z</time></trkpt><trkpt lat="43.480940766391384" lon="11.049114948492294"><ele>215.0</ele><time>2026-03-29T10:55:20.998Z</time></trkpt><trkpt lat="43.48099157623464" lon="11.04918095619048"><ele>215.00000000000003</ele><time>2026-03-29T10:55:21.998Z</time></trkpt><trkpt lat="43.481039367815384" lon="11.04926038788215"><ele>215.0</ele><time>2026-03-29T10:55:22.998Z</time></trkpt><trkpt lat="43.48109907665905" lon="11.049376231416748"><ele>214.8</ele><time>2026-03-29T10:55:23.998Z</time></trkpt><trkpt lat="43.481172774040516" lon="11.049473324682776"><ele>214.6</ele><time>2026-03-29T10:55:24.998Z</time></trkpt><trkpt lat="43.481231338424664" lon="11.049583097745144"><ele>214.39999999999998</ele><time>2026-03-29T10:55:25.998Z</time></trkpt><trkpt lat="43.48129455789702" lon="11.049687791493316"><ele>214.2</ele><time>2026-03-29T10:55:26.998Z</time></trkpt><trkpt lat="43.48135879051072" lon="11.049805740287423"><ele>214.0</ele><time>2026-03-29T10:55:27.998Z</time></trkpt><trkpt lat="43.48140973175959" lon="11.049895333347909"><ele>212.39999999999998</ele><time>2026-03-29T10:55:28.998Z</time></trkpt><trkpt lat="43.481452085866906" lon="11.049985659545342"><ele>210.79999999999998</ele><time>2026-03-29T10:55:29.998Z</time></trkpt><trkpt lat="43.481477566553025" lon="11.050109653523515"><ele>209.2</ele><time>2026-03-29T10:55:30.998Z</time></trkpt><trkpt lat="43.481528024081356" lon="11.050245113525083"><ele>207.60000000000002</ele><time>2026-03-29T10:55:31.998Z</time></trkpt><trkpt lat="43.481582627063624" lon="11.050396328010548"><ele>206.0</ele><time>2026-03-29T10:55:32.998Z</time></trkpt><trkpt lat="43.4816249095371" lon="11.050522004450594"><ele>206.00000000000003</ele><time>2026-03-29T10:55:33.998Z</time></trkpt><trkpt lat="43.48167407792527" lon="11.050622205699716"><ele>206.0</ele><time>2026-03-29T10:55:34.998Z</time></trkpt><trkpt lat="43.48172143384112" lon="11.05071789482462"><ele>206.0</ele><time>2026-03-29T10:55:35.999Z</time></trkpt><trkpt lat="43.48177279168576" lon="11.050809319172014"><ele>206.0</ele><time>2026-03-29T10:55:36.999Z</time></trkpt><trkpt lat="43.481821210468944" lon="11.05089893025871"><ele>206.00000000000003</ele><time>2026-03-29T10:55:37.999Z</time></trkpt><trkpt lat="43.4818657618766" lon="11.050985188990445"><ele>206.0</ele><time>2026-03-29T10:55:38.999Z</time></trkpt><trkpt lat="43.48190824691804" lon="11.05108586413522"><ele>204.00000000000003</ele><time>2026-03-29T10:55:39.998Z</time></trkpt><trkpt lat="43.48195928638621" lon="11.051185931270565"><ele>202.0</ele><time>2026-03-29T10:55:40.998Z</time></trkpt><trkpt lat="43.48200635529267" lon="11.051293452448673"><ele>200.0</ele><time>2026-03-29T10:55:41.999Z</time></trkpt><trkpt lat="43.48204569345919" lon="11.05138600458235"><ele>198.0</ele><time>2026-03-29T10:55:42.999Z</time></trkpt><trkpt lat="43.48207891577857" lon="11.051474784035834"><ele>196.00000000000003</ele><time>2026-03-29T10:55:43.999Z</time></trkpt><trkpt lat="43.482120203780404" lon="11.051567455719503"><ele>194.0</ele><time>2026-03-29T10:55:44.999Z</time></trkpt><trkpt lat="43.4821418205081" lon="11.051681607148375"><ele>191.33333333333334</ele><time>2026-03-29T10:55:45.998Z</time></trkpt><trkpt lat="43.48216577403133" lon="11.051779500191321"><ele>188.66666666666669</ele><time>2026-03-29T10:55:46.998Z</time></trkpt><trkpt lat="43.48219009116324" lon="11.051884500427992"><ele>186.0</ele><time>2026-03-29T10:55:47.998Z</time></trkpt><trkpt lat="43.4822116171338" lon="11.051988992389283"><ele>183.33333333333334</ele><time>2026-03-29T10:55:48.999Z</time></trkpt><trkpt lat="43.482224708247394" lon="11.052093452567835"><ele>180.66666666666669</ele><time>2026-03-29T10:55:49.999Z</time></trkpt><trkpt lat="43.48224074304528" lon="11.05218920569737"><ele>178.0</ele><time>2026-03-29T10:55:50.999Z</time></trkpt><trkpt lat="43.4822585108963" lon="11.052301081922632"><ele>178.0</ele><time>2026-03-29T10:55:51.999Z</time></trkpt><trkpt lat="43.4822790331355" lon="11.05240054837463"><ele>178.0</ele><time>2026-03-29T10:55:52.999Z</time></trkpt><trkpt lat="43.4822994272462" lon="11.052508445467186"><ele>178.0</ele><time>2026-03-29T10:55:53.999Z</time></trkpt><trkpt lat="43.48231598457704" lon="11.052621128009266"><ele>178.0</ele><time>2026-03-29T10:55:54.999Z</time></trkpt><trkpt lat="43.48233600427869" lon="11.05272895644599"><ele>178.0</ele><time>2026-03-29T10:55:55.999Z</time></trkpt><trkpt lat="43.482358450487354" lon="11.052847637255159"><ele>178.0</ele><time>2026-03-29T10:55:56.999Z</time></trkpt><trkpt lat="43.4823786993388" lon="11.052949973482496"><ele>176.0</ele><time>2026-03-29T10:55:57.999Z</time></trkpt><trkpt lat="43.482394945729645" lon="11.053066345316537"><ele>174.0</ele><time>2026-03-29T10:55:58.999Z</time></trkpt><trkpt lat="43.48241939909072" lon="11.053174828971608"><ele>172.0</ele><time>2026-03-29T10:55:59.999Z</time></trkpt><trkpt lat="43.482450193535534" lon="11.05331328985086"><ele>170.0</ele><time>2026-03-29T10:56:00.999Z</time></trkpt><trkpt lat="43.4824756848671" lon="11.053445517328687"><ele>168.0</ele><time>2026-03-29T10:56:01.999Z</time></trkpt><trkpt lat="43.4825052899019" lon="11.053570816705967"><ele>167.0</ele><time>2026-03-29T10:56:02.999Z</time></trkpt><trkpt lat="43.48253308278082" lon="11.053682159508163"><ele>166.0</ele><time>2026-03-29T10:56:03.999Z</time></trkpt><trkpt lat="43.482570904317534" lon="11.05378796240521"><ele>165.0</ele><time>2026-03-29T10:56:04.999Z</time></trkpt><trkpt lat="43.482607877272656" lon="11.053876510625843"><ele>164.0</ele><time>2026-03-29T10:56:05.999Z</time></trkpt><trkpt lat="43.482654297828255" lon="11.053974904634467"><ele>163.0</ele><time>2026-03-29T10:56:06.999Z</time></trkpt><trkpt lat="43.482696474965365" lon="11.054076553859986"><ele>162.0</ele><time>2026-03-29T10:56:07.999Z</time></trkpt><trkpt lat="43.482740180210726" lon="11.054170814384817"><ele>160.79999999999998</ele><time>2026-03-29T10:56:08.999Z</time></trkpt><trkpt lat="43.48279002061983" lon="11.054285672917203"><ele>159.6</ele><time>2026-03-29T10:56:09.999Z</time></trkpt><trkpt lat="43.48286508081035" lon="11.05441199202007"><ele>158.39999999999998</ele><time>2026-03-29T10:56:10.999Z</time></trkpt><trkpt lat="43.48294972754797" lon="11.054509327528747"><ele>157.2</ele><time>2026-03-29T10:56:11.999Z</time></trkpt><trkpt lat="43.483040377954296" lon="11.054588801759017"><ele>156.0</ele><time>2026-03-29T10:56:12.999Z</time></trkpt><trkpt lat="43.483143578464926" lon="11.05467461829919"><ele>154.6</ele><time>2026-03-29T10:56:13.999Z</time></trkpt><trkpt lat="43.4832333391271" lon="11.054753230913564"><ele>153.2</ele><time>2026-03-29T10:56:14.999Z</time></trkpt><trkpt lat="43.48332735383639" lon="11.054842561895988"><ele>151.8</ele><time>2026-03-29T10:56:15.999Z</time></trkpt><trkpt lat="43.48340839122245" lon="11.05492088251887"><ele>150.4</ele><time>2026-03-29T10:56:16.999Z</time></trkpt><trkpt lat="43.4834946721833" lon="11.054999479958434"><ele>149.0</ele><time>2026-03-29T10:56:17.999Z</time></trkpt><trkpt lat="43.4835824907663" lon="11.055089075633498"><ele>148.0</ele><time>2026-03-29T10:56:18.999Z</time></trkpt><trkpt lat="43.48366124234674" lon="11.055166336205742"><ele>147.0</ele><time>2026-03-29T10:56:19.999Z</time></trkpt><trkpt lat="43.483736686457895" lon="11.055225928242695"><ele>146.0</ele><time>2026-03-29T10:56:20.999Z</time></trkpt><trkpt lat="43.48380231926904" lon="11.055287702350205"><ele>145.0</ele><time>2026-03-29T10:56:21.999Z</time></trkpt><trkpt lat="43.483853407305496" lon="11.055342704267163"><ele>144.0</ele><time>2026-03-29T10:56:22.999Z</time></trkpt><trkpt lat="43.48391775039271" lon="11.055404041723286"><ele>143.0</ele><time>2026-03-29T10:56:23.998Z</time></trkpt><trkpt lat="43.48397589085985" lon="11.055452172303875"><ele>141.33333333333331</ele><time>2026-03-29T10:56:24.998Z</time></trkpt><trkpt lat="43.48402677692383" lon="11.055510744871315"><ele>139.66666666666666</ele><time>2026-03-29T10:56:25.998Z</time></trkpt><trkpt lat="43.48405138756472" lon="11.055592564049787"><ele>138.0</ele><time>2026-03-29T10:56:26.998Z</time></trkpt><trkpt lat="43.484036694753044" lon="11.055695357045556"><ele>136.33333333333334</ele><time>2026-03-29T10:56:27.998Z</time></trkpt><trkpt lat="43.48399503678795" lon="11.055781200816233"><ele>134.66666666666669</ele><time>2026-03-29T10:56:28.998Z</time></trkpt><trkpt lat="43.483960302370434" lon="11.055879724055528"><ele>133.0</ele><time>2026-03-29T10:56:29.998Z</time></trkpt><trkpt lat="43.48393140126486" lon="11.056000429872658"><ele>132.0</ele><time>2026-03-29T10:56:30.998Z</time></trkpt><trkpt lat="43.48390931806933" lon="11.056089823712746"><ele>131.0</ele><time>2026-03-29T10:56:31.998Z</time></trkpt><trkpt lat="43.48393411367511" lon="11.056251899939939"><ele>130.0</ele><time>2026-03-29T10:56:33.998Z</time></trkpt><trkpt lat="43.48401942783931" lon="11.056329765593466"><ele>129.0</ele><time>2026-03-29T10:56:35.998Z</time></trkpt><trkpt lat="43.484145531645346" lon="11.056310545963246"><ele>128.0</ele><time>2026-03-29T10:56:37.998Z</time></trkpt><trkpt lat="43.48421613984116" lon="11.056264038982523"><ele>127.99999999999999</ele><time>2026-03-29T10:56:38.998Z</time></trkpt><trkpt lat="43.48427901953474" lon="11.05618570729059"><ele>128.0</ele><time>2026-03-29T10:56:39.998Z</time></trkpt><trkpt lat="43.48436876612646" lon="11.056095225687145"><ele>128.0</ele><time>2026-03-29T10:56:40.998Z</time></trkpt><trkpt lat="43.48445511906536" lon="11.056046279602315"><ele>128.0</ele><time>2026-03-29T10:56:41.998Z</time></trkpt><trkpt lat="43.48452069361529" lon="11.056042581251656"><ele>127.99999999999999</ele><time>2026-03-29T10:56:42.998Z</time></trkpt><trkpt lat="43.484590059791586" lon="11.056070770064832"><ele>128.0</ele><time>2026-03-29T10:56:43.998Z</time></trkpt><trkpt lat="43.48465926860483" lon="11.0561091004245"><ele>128.16666666666666</ele><time>2026-03-29T10:56:44.998Z</time></trkpt><trkpt lat="43.48470428697284" lon="11.056172610166739"><ele>128.33333333333331</ele><time>2026-03-29T10:56:45.998Z</time></trkpt><trkpt lat="43.48475163489428" lon="11.056265794608722"><ele>128.5</ele><time>2026-03-29T10:56:46.998Z</time></trkpt><trkpt lat="43.48480792429704" lon="11.056375274514386"><ele>128.66666666666666</ele><time>2026-03-29T10:56:47.998Z</time></trkpt><trkpt lat="43.48486608123278" lon="11.056486727317814"><ele>128.83333333333334</ele><time>2026-03-29T10:56:48.998Z</time></trkpt><trkpt lat="43.48492034248276" lon="11.056555967643062"><ele>129.0</ele><time>2026-03-29T10:56:49.998Z</time></trkpt><trkpt lat="43.48499889809769" lon="11.056617063335372"><ele>129.0</ele><time>2026-03-29T10:56:51.998Z</time></trkpt><trkpt lat="43.4851479449549" lon="11.056592512762656"><ele>129.0</ele><time>2026-03-29T10:56:53.998Z</time></trkpt><trkpt lat="43.48523470797342" lon="11.056549928642696"><ele>129.0</ele><time>2026-03-29T10:56:54.998Z</time></trkpt><trkpt lat="43.48530778966336" lon="11.056515605798868"><ele>129.0</ele><time>2026-03-29T10:56:55.998Z</time></trkpt><trkpt lat="43.48541441522941" lon="11.056604380441797"><ele>129.0</ele><time>2026-03-29T10:56:57.998Z</time></trkpt><trkpt lat="43.48547461476828" lon="11.056688216976868"><ele>130.4</ele><time>2026-03-29T10:56:58.998Z</time></trkpt><trkpt lat="43.485543795802066" lon="11.056783255115635"><ele>131.8</ele><time>2026-03-29T10:56:59.998Z</time></trkpt><trkpt lat="43.485623000855135" lon="11.05686807600024"><ele>133.2</ele><time>2026-03-29T10:57:00.998Z</time></trkpt><trkpt lat="43.48571323030081" lon="11.056935249002423"><ele>134.6</ele><time>2026-03-29T10:57:01.998Z</time></trkpt><trkpt lat="43.48578817791295" lon="11.05703112623634"><ele>136.0</ele><time>2026-03-29T10:57:02.998Z</time></trkpt><trkpt lat="43.48587901289863" lon="11.057190572337069"><ele>136.0</ele><time>2026-03-29T10:57:03.998Z</time></trkpt><trkpt lat="43.485970847394846" lon="11.057357119159121"><ele>136.0</ele><time>2026-03-29T10:57:04.998Z</time></trkpt><trkpt lat="43.486066175071876" lon="11.057519033101572"><ele>136.0</ele><time>2026-03-29T10:57:05.998Z</time></trkpt><trkpt lat="43.486182374009466" lon="11.057689578993708"><ele>137.0</ele><time>2026-03-29T10:57:06.998Z</time></trkpt><trkpt lat="43.48626100688175" lon="11.057866204090992"><ele>138.0</ele><time>2026-03-29T10:57:07.998Z</time></trkpt><trkpt lat="43.4863177982824" lon="11.058013778710922"><ele>139.0</ele><time>2026-03-29T10:57:08.998Z</time></trkpt><trkpt lat="43.48636766431994" lon="11.058146300810407"><ele>140.0</ele><time>2026-03-29T10:57:09.998Z</time></trkpt><trkpt lat="43.486422860048386" lon="11.058240660635477"><ele>140.4</ele><time>2026-03-29T10:57:10.998Z</time></trkpt><trkpt lat="43.48649189887091" lon="11.058307069314543"><ele>140.8</ele><time>2026-03-29T10:57:11.998Z</time></trkpt><trkpt lat="43.48656048215999" lon="11.05835529029991"><ele>141.2</ele><time>2026-03-29T10:57:12.998Z</time></trkpt><trkpt lat="43.48664288423007" lon="11.058399852234862"><ele>141.6</ele><time>2026-03-29T10:57:13.998Z</time></trkpt><trkpt lat="43.48674881190016" lon="11.058426332174477"><ele>142.0</ele><time>2026-03-29T10:57:14.998Z</time></trkpt><trkpt lat="43.486871596574964" lon="11.05848063907127"><ele>142.0</ele><time>2026-03-29T10:57:15.998Z</time></trkpt><trkpt lat="43.487010432435" lon="11.058513152769105"><ele>142.0</ele><time>2026-03-29T10:57:16.998Z</time></trkpt><trkpt lat="43.48714760596018" lon="11.058548049604369"><ele>142.0</ele><time>2026-03-29T10:57:17.998Z</time></trkpt><trkpt lat="43.487293136611676" lon="11.058568285839868"><ele>142.0</ele><time>2026-03-29T10:57:18.998Z</time></trkpt><trkpt lat="43.48743776624148" lon="11.058565544609147"><ele>143.25</ele><time>2026-03-29T10:57:19.998Z</time></trkpt><trkpt lat="43.48758290997476" lon="11.058530128897656"><ele>144.5</ele><time>2026-03-29T10:57:20.998Z</time></trkpt><trkpt lat="43.48772125979882" lon="11.058476648286037"><ele>145.75</ele><time>2026-03-29T10:57:21.998Z</time></trkpt><trkpt lat="43.4878484849305" lon="11.058437670680673"><ele>147.0</ele><time>2026-03-29T10:57:22.998Z</time></trkpt><trkpt lat="43.487969930009136" lon="11.058396301012289"><ele>149.2</ele><time>2026-03-29T10:57:23.998Z</time></trkpt><trkpt lat="43.48807762504326" lon="11.058360374070556"><ele>151.39999999999998</ele><time>2026-03-29T10:57:24.998Z</time></trkpt><trkpt lat="43.48817016707942" lon="11.058323013296725"><ele>153.60000000000002</ele><time>2026-03-29T10:57:25.998Z</time></trkpt><trkpt lat="43.48825711603976" lon="11.058304755163961"><ele>155.8</ele><time>2026-03-29T10:57:26.998Z</time></trkpt><trkpt lat="43.488321798669546" lon="11.058366184690417"><ele>158.0</ele><time>2026-03-29T10:57:27.998Z</time></trkpt><trkpt lat="43.48840041846654" lon="11.058514139958367"><ele>158.0</ele><time>2026-03-29T10:57:29.998Z</time></trkpt><trkpt lat="43.48846161825148" lon="11.05862548206181"><ele>158.0</ele><time>2026-03-29T10:57:30.998Z</time></trkpt><trkpt lat="43.48851808303443" lon="11.05875042176801"><ele>158.0</ele><time>2026-03-29T10:57:31.998Z</time></trkpt><trkpt lat="43.48857121756742" lon="11.058907213028181"><ele>158.0</ele><time>2026-03-29T10:57:32.998Z</time></trkpt><trkpt lat="43.48861727368965" lon="11.059085687424348"><ele>158.0</ele><time>2026-03-29T10:57:33.998Z</time></trkpt><trkpt lat="43.48865423601286" lon="11.059250447963585"><ele>158.0</ele><time>2026-03-29T10:57:34.998Z</time></trkpt><trkpt lat="43.48869099497156" lon="11.059414131481596"><ele>158.0</ele><time>2026-03-29T10:57:35.998Z</time></trkpt><trkpt lat="43.488724284420904" lon="11.059586736898604"><ele>158.0</ele><time>2026-03-29T10:57:36.998Z</time></trkpt><trkpt lat="43.48875950116116" lon="11.059741413576878"><ele>161.25</ele><time>2026-03-29T10:57:37.999Z</time></trkpt><trkpt lat="43.48879281059583" lon="11.059906021640863"><ele>164.5</ele><time>2026-03-29T10:57:38.999Z</time></trkpt><trkpt lat="43.48882817695675" lon="11.06005800704666"><ele>167.75</ele><time>2026-03-29T10:57:39.999Z</time></trkpt><trkpt lat="43.4888649243126" lon="11.060212173375401"><ele>171.0</ele><time>2026-03-29T10:57:40.999Z</time></trkpt><trkpt lat="43.48890696222947" lon="11.060369804846285"><ele>171.8</ele><time>2026-03-29T10:57:41.999Z</time></trkpt><trkpt lat="43.48894785994499" lon="11.060530161338887"><ele>172.60000000000002</ele><time>2026-03-29T10:57:42.999Z</time></trkpt><trkpt lat="43.48899014123537" lon="11.06068673665969"><ele>173.4</ele><time>2026-03-29T10:57:43.999Z</time></trkpt><trkpt lat="43.48903557082982" lon="11.060816560370371"><ele>174.2</ele><time>2026-03-29T10:57:44.999Z</time></trkpt><trkpt lat="43.489065842867895" lon="11.060945431205523"><ele>175.0</ele><time>2026-03-29T10:57:45.999Z</time></trkpt><trkpt lat="43.48909731630845" lon="11.061070015219645"><ele>175.0</ele><time>2026-03-29T10:57:46.999Z</time></trkpt><trkpt lat="43.489118241262304" lon="11.061188424736049"><ele>175.0</ele><time>2026-03-29T10:57:47.999Z</time></trkpt><trkpt lat="43.48913933900562" lon="11.061313456790423"><ele>175.0</ele><time>2026-03-29T10:57:49.999Z</time></trkpt><trkpt lat="43.489213714531594" lon="11.061352944055136"><ele>175.0</ele><time>2026-03-29T10:57:56.999Z</time></trkpt><trkpt lat="43.48930220160177" lon="11.06122737760036"><ele>175.0</ele><time>2026-03-29T10:57:58.999Z</time></trkpt><trkpt lat="43.489364545962204" lon="11.061098823246834"><ele>175.0</ele><time>2026-03-29T10:57:59.999Z</time></trkpt><trkpt lat="43.489419446365474" lon="11.060973272196456"><ele>175.0</ele><time>2026-03-29T10:58:00.999Z</time></trkpt><trkpt lat="43.4894829091544" lon="11.060858909148806"><ele>175.0</ele><time>2026-03-29T10:58:01.999Z</time></trkpt><trkpt lat="43.489544926727085" lon="11.06075564710123"><ele>175.0</ele><time>2026-03-29T10:58:02.999Z</time></trkpt><trkpt lat="43.48961083195005" lon="11.060643671718537"><ele>175.0</ele><time>2026-03-29T10:58:03.999Z</time></trkpt><trkpt lat="43.48969014338164" lon="11.060513985040055"><ele>174.0</ele><time>2026-03-29T10:58:04.999Z</time></trkpt><trkpt lat="43.489756395504365" lon="11.060409754903862"><ele>173.0</ele><time>2026-03-29T10:58:05.999Z</time></trkpt><trkpt lat="43.4897927351078" lon="11.060314551059152"><ele>172.0</ele><time>2026-03-29T10:58:06.999Z</time></trkpt><trkpt lat="43.489850601459565" lon="11.060226185772947"><ele>171.0</ele><time>2026-03-29T10:58:07.999Z</time></trkpt><trkpt lat="43.48989147457796" lon="11.060132437409196"><ele>170.0</ele><time>2026-03-29T10:58:08.999Z</time></trkpt><trkpt lat="43.489936726450594" lon="11.060014105108438"><ele>169.0</ele><time>2026-03-29T10:58:10.999Z</time></trkpt><trkpt lat="43.48986623753144" lon="11.060082650693232"><ele>169.0</ele><time>2026-03-29T10:58:27.999Z</time></trkpt><trkpt lat="43.489838591300185" lon="11.06018031739645"><ele>169.0</ele><time>2026-03-29T10:58:28.999Z</time></trkpt><trkpt lat="43.48978277511409" lon="11.060287756727035"><ele>169.0</ele><time>2026-03-29T10:58:29.999Z</time></trkpt><trkpt lat="43.48970605016987" lon="11.060383345869235"><ele>169.0</ele><time>2026-03-29T10:58:30.999Z</time></trkpt><trkpt lat="43.489640708605165" lon="11.060498012760307"><ele>169.0</ele><time>2026-03-29T10:58:31.999Z</time></trkpt><trkpt lat="43.48959068033122" lon="11.060648843453935"><ele>170.2</ele><time>2026-03-29T10:58:32.999Z</time></trkpt><trkpt lat="43.48952332183006" lon="11.060766600804659"><ele>171.39999999999998</ele><time>2026-03-29T10:58:33.999Z</time></trkpt><trkpt lat="43.48945598483853" lon="11.060886089498082"><ele>172.6</ele><time>2026-03-29T10:58:34.999Z</time></trkpt><trkpt lat="43.48939711585594" lon="11.060986975366104"><ele>173.8</ele><time>2026-03-29T10:58:35.999Z</time></trkpt><trkpt lat="43.48934067598686" lon="11.061079115887472"><ele>175.0</ele><time>2026-03-29T10:58:36.999Z</time></trkpt><trkpt lat="43.489296348812346" lon="11.061164344321977"><ele>175.0</ele><time>2026-03-29T10:58:37.999Z</time></trkpt><trkpt lat="43.489258137231914" lon="11.06125057834123"><ele>175.0</ele><time>2026-03-29T10:58:38.999Z</time></trkpt><trkpt lat="43.48921573216395" lon="11.06137369298682"><ele>175.0</ele><time>2026-03-29T10:58:40.999Z</time></trkpt><trkpt lat="43.48918566641653" lon="11.061506345786906"><ele>175.0</ele><time>2026-03-29T10:58:42.999Z</time></trkpt><trkpt lat="43.48917989035707" lon="11.06161098115651"><ele>175.0</ele><time>2026-03-29T10:58:43.999Z</time></trkpt><trkpt lat="43.48919905900509" lon="11.061729853525414"><ele>175.0</ele><time>2026-03-29T10:58:44.999Z</time></trkpt><trkpt lat="43.48921069947604" lon="11.061850201814229"><ele>175.0</ele><time>2026-03-29T10:58:45.999Z</time></trkpt><trkpt lat="43.48923182820649" lon="11.061985734943388"><ele>175.0</ele><time>2026-03-29T10:58:46.999Z</time></trkpt><trkpt lat="43.48924936655763" lon="11.062123109304443"><ele>175.0</ele><time>2026-03-29T10:58:47.999Z</time></trkpt><trkpt lat="43.489262597027235" lon="11.06223905960831"><ele>175.0</ele><time>2026-03-29T10:58:48.999Z</time></trkpt><trkpt lat="43.48927630725627" lon="11.062325694306749"><ele>175.0</ele><time>2026-03-29T10:58:49.999Z</time></trkpt><trkpt lat="43.489308013871195" lon="11.062478354507514"><ele>175.4</ele><time>2026-03-29T10:58:51.999Z</time></trkpt><trkpt lat="43.48934915900061" lon="11.062583165884126"><ele>175.8</ele><time>2026-03-29T10:58:53.999Z</time></trkpt><trkpt lat="43.489432256933476" lon="11.0626872325634"><ele>176.2</ele><time>2026-03-29T10:58:55.999Z</time></trkpt><trkpt lat="43.48952357881067" lon="11.062780942597598"><ele>176.6</ele><time>2026-03-29T10:58:57.999Z</time></trkpt><trkpt lat="43.48957155068701" lon="11.062846041772564"><ele>177.0</ele><time>2026-03-29T10:58:58.999Z</time></trkpt><trkpt lat="43.489647764945815" lon="11.062946409832634"><ele>176.33333333333334</ele><time>2026-03-29T10:59:00.999Z</time></trkpt><trkpt lat="43.48970863439724" lon="11.062986584518635"><ele>175.66666666666666</ele><time>2026-03-29T10:59:32.998Z</time></trkpt><trkpt lat="43.48974581256503" lon="11.063062073717132"><ele>175.0</ele><time>2026-03-29T10:59:36.998Z</time></trkpt><trkpt lat="43.48981417210645" lon="11.06316793006712"><ele>174.33333333333331</ele><time>2026-03-29T10:59:38.998Z</time></trkpt><trkpt lat="43.48988216732088" lon="11.063238180132444"><ele>173.66666666666666</ele><time>2026-03-29T10:59:40.998Z</time></trkpt><trkpt lat="43.48995373199017" lon="11.063323059521611"><ele>173.0</ele><time>2026-03-29T10:59:43.999Z</time></trkpt><trkpt lat="43.48999697509177" lon="11.063387465156048"><ele>174.0</ele><time>2026-03-29T10:59:46Z</time></trkpt><trkpt lat="43.49006533551627" lon="11.063488531796775"><ele>175.0</ele><time>2026-03-29T10:59:49.999Z</time></trkpt><trkpt lat="43.49015378062129" lon="11.063575151293334"><ele>176.0</ele><time>2026-03-29T10:59:52Z</time></trkpt><trkpt lat="43.49028264539075" lon="11.063640333780775"><ele>177.0</ele><time>2026-03-29T10:59:54Z</time></trkpt><trkpt lat="43.490373859161934" lon="11.063677821482672"><ele>178.0</ele><time>2026-03-29T10:59:55Z</time></trkpt><trkpt lat="43.490464016812105" lon="11.063716994072703"><ele>178.0</ele><time>2026-03-29T10:59:56Z</time></trkpt><trkpt lat="43.490554268641944" lon="11.063741076476287"><ele>178.0</ele><time>2026-03-29T10:59:57Z</time></trkpt><trkpt lat="43.49064780912447" lon="11.063779580261002"><ele>178.0</ele><time>2026-03-29T10:59:58Z</time></trkpt><trkpt lat="43.49072968239814" lon="11.063822670092849"><ele>178.0</ele><time>2026-03-29T10:59:59Z</time></trkpt><trkpt lat="43.49081525458948" lon="11.063865068783365"><ele>178.0</ele><time>2026-03-29T11:00:00Z</time></trkpt><trkpt lat="43.49090517828198" lon="11.063908578535319"><ele>178.0</ele><time>2026-03-29T11:00:01Z</time></trkpt><trkpt lat="43.491008810702496" lon="11.063940439955035"><ele>178.0</ele><time>2026-03-29T11:00:02Z</time></trkpt><trkpt lat="43.491102519091726" lon="11.063979463916647"><ele>178.0</ele><time>2026-03-29T11:00:03Z</time></trkpt><trkpt lat="43.491211361109336" lon="11.064001127728218"><ele>178.0</ele><time>2026-03-29T11:00:04Z</time></trkpt><trkpt lat="43.491314917509065" lon="11.064013468967742"><ele>178.0</ele><time>2026-03-29T11:00:05Z</time></trkpt><trkpt lat="43.49139785214427" lon="11.064036073288039"><ele>177.57142857142856</ele><time>2026-03-29T11:00:06Z</time></trkpt><trkpt lat="43.49146977208983" lon="11.064034569588639"><ele>177.14285714285714</ele><time>2026-03-29T11:00:07Z</time></trkpt><trkpt lat="43.49153162635697" lon="11.064050727549263"><ele>176.71428571428572</ele><time>2026-03-29T11:00:08Z</time></trkpt><trkpt lat="43.49160844208294" lon="11.064024994566468"><ele>176.28571428571428</ele><time>2026-03-29T11:00:09Z</time></trkpt><trkpt lat="43.49168846732561" lon="11.064024385668134"><ele>175.85714285714286</ele><time>2026-03-29T11:00:10Z</time></trkpt><trkpt lat="43.49176121442535" lon="11.064046669022582"><ele>175.42857142857142</ele><time>2026-03-29T11:00:11Z</time></trkpt><trkpt lat="43.49182365365633" lon="11.064021438979465"><ele>175.0</ele><time>2026-03-29T11:00:12Z</time></trkpt><trkpt lat="43.491896806185196" lon="11.064037328650306"><ele>175.0</ele><time>2026-03-29T11:00:14Z</time></trkpt><trkpt lat="43.49196680488818" lon="11.064098981773416"><ele>175.0</ele><time>2026-03-29T11:00:16Z</time></trkpt><trkpt lat="43.49207489707657" lon="11.064172633681604"><ele>175.0</ele><time>2026-03-29T11:00:18Z</time></trkpt><trkpt lat="43.492134479387175" lon="11.064210498147169"><ele>175.0</ele><time>2026-03-29T11:00:19Z</time></trkpt><trkpt lat="43.492221640626184" lon="11.064245947160117"><ele>175.0</ele><time>2026-03-29T11:00:20Z</time></trkpt><trkpt lat="43.492311523368485" lon="11.064290436570477"><ele>174.66666666666669</ele><time>2026-03-29T11:00:21Z</time></trkpt><trkpt lat="43.492392559269106" lon="11.064328935657684"><ele>174.33333333333334</ele><time>2026-03-29T11:00:22Z</time></trkpt><trkpt lat="43.49247765930904" lon="11.064367290268025"><ele>174.0</ele><time>2026-03-29T11:00:23Z</time></trkpt><trkpt lat="43.49255636928678" lon="11.06440341473777"><ele>173.66666666666666</ele><time>2026-03-29T11:00:23.999Z</time></trkpt><trkpt lat="43.49262830057743" lon="11.064422893989859"><ele>173.33333333333331</ele><time>2026-03-29T11:00:24.999Z</time></trkpt><trkpt lat="43.492742342932786" lon="11.06442358670557"><ele>173.0</ele><time>2026-03-29T11:00:26.999Z</time></trkpt><trkpt lat="43.49286911377757" lon="11.06450023248247"><ele>170.66666666666666</ele><time>2026-03-29T11:00:28.999Z</time></trkpt><trkpt lat="43.49294827043274" lon="11.0645769429274"><ele>168.33333333333331</ele><time>2026-03-29T11:00:29.999Z</time></trkpt><trkpt lat="43.49301601473115" lon="11.064639923317054"><ele>166.0</ele><time>2026-03-29T11:00:30.999Z</time></trkpt><trkpt lat="43.493070092992575" lon="11.064693003404386"><ele>163.66666666666666</ele><time>2026-03-29T11:00:31.999Z</time></trkpt><trkpt lat="43.49310888390165" lon="11.064771217817407"><ele>161.33333333333334</ele><time>2026-03-29T11:00:32.999Z</time></trkpt><trkpt lat="43.493143774559556" lon="11.064856401388662"><ele>159.0</ele><time>2026-03-29T11:00:33.999Z</time></trkpt><trkpt lat="43.49318151436925" lon="11.064935668692"><ele>159.14285714285714</ele><time>2026-03-29T11:00:34.999Z</time></trkpt><trkpt lat="43.49322121647941" lon="11.065015817238605"><ele>159.2857142857143</ele><time>2026-03-29T11:00:35.999Z</time></trkpt><trkpt lat="43.49325847555974" lon="11.065088860582014"><ele>159.42857142857144</ele><time>2026-03-29T11:00:36.999Z</time></trkpt><trkpt lat="43.493306835173264" lon="11.065172669744522"><ele>159.57142857142856</ele><time>2026-03-29T11:00:37.999Z</time></trkpt><trkpt lat="43.49335345115015" lon="11.065270901016614"><ele>159.71428571428572</ele><time>2026-03-29T11:00:38.999Z</time></trkpt><trkpt lat="43.49339846374464" lon="11.06536044297201"><ele>159.85714285714286</ele><time>2026-03-29T11:00:39.999Z</time></trkpt><trkpt lat="43.49343227175713" lon="11.065436161342916"><ele>160.0</ele><time>2026-03-29T11:00:40.999Z</time></trkpt><trkpt lat="43.493487255340256" lon="11.065577109138344"><ele>160.0</ele><time>2026-03-29T11:00:42.999Z</time></trkpt><trkpt lat="43.4935322131412" lon="11.065717865122034"><ele>160.0</ele><time>2026-03-29T11:00:44.999Z</time></trkpt><trkpt lat="43.493565829130276" lon="11.065872558144092"><ele>160.0</ele><time>2026-03-29T11:00:46.999Z</time></trkpt><trkpt lat="43.493574164597625" lon="11.065974285817592"><ele>160.0</ele><time>2026-03-29T11:00:47.999Z</time></trkpt><trkpt lat="43.49357516461267" lon="11.066070958348915"><ele>160.0</ele><time>2026-03-29T11:00:48.999Z</time></trkpt><trkpt lat="43.49361167688941" lon="11.066238592845169"><ele>159.6</ele><time>2026-03-29T11:00:50.999Z</time></trkpt><trkpt lat="43.493656432825205" lon="11.06638097247118"><ele>159.2</ele><time>2026-03-29T11:00:52.999Z</time></trkpt><trkpt lat="43.4936930320894" lon="11.06652402993628"><ele>158.8</ele><time>2026-03-29T11:00:54.999Z</time></trkpt><trkpt lat="43.49371715190144" lon="11.06668653887933"><ele>158.4</ele><time>2026-03-29T11:00:56.999Z</time></trkpt><trkpt lat="43.49372596902143" lon="11.06677757322652"><ele>158.0</ele><time>2026-03-29T11:00:57.999Z</time></trkpt><trkpt lat="43.493758597918585" lon="11.066864391531695"><ele>158.00000000000003</ele><time>2026-03-29T11:00:58.999Z</time></trkpt><trkpt lat="43.49379999618935" lon="11.066938074756207"><ele>158.0</ele><time>2026-03-29T11:00:59.999Z</time></trkpt><trkpt lat="43.49384570601756" lon="11.067004070047872"><ele>158.0</ele><time>2026-03-29T11:01:00.999Z</time></trkpt><trkpt lat="43.49390676342052" lon="11.067063548834208"><ele>158.0</ele><time>2026-03-29T11:01:01.999Z</time></trkpt><trkpt lat="43.49398028198331" lon="11.06708552029736"><ele>158.0</ele><time>2026-03-29T11:01:02.999Z</time></trkpt><trkpt lat="43.49405596097932" lon="11.067096552094359"><ele>158.00000000000003</ele><time>2026-03-29T11:01:03.999Z</time></trkpt><trkpt lat="43.49413938488243" lon="11.067111485114383"><ele>158.0</ele><time>2026-03-29T11:01:04.999Z</time></trkpt><trkpt lat="43.494234753676714" lon="11.067131628029202"><ele>158.0</ele><time>2026-03-29T11:01:05.999Z</time></trkpt><trkpt lat="43.49432488029715" lon="11.067186948022188"><ele>158.0</ele><time>2026-03-29T11:01:06.999Z</time></trkpt><trkpt lat="43.4944102417213" lon="11.067266743920172"><ele>158.0</ele><time>2026-03-29T11:01:07.999Z</time></trkpt><trkpt lat="43.49448353755775" lon="11.067363010647858"><ele>158.0</ele><time>2026-03-29T11:01:08.999Z</time></trkpt><trkpt lat="43.49452397737308" lon="11.067472523829391"><ele>158.0</ele><time>2026-03-29T11:01:10.999Z</time></trkpt><trkpt lat="43.49459374655017" lon="11.067606764269264"><ele>156.66666666666666</ele><time>2026-03-29T11:01:12.999Z</time></trkpt><trkpt lat="43.49467960299595" lon="11.067734449911615"><ele>155.33333333333331</ele><time>2026-03-29T11:01:14.999Z</time></trkpt><trkpt lat="43.494724008747355" lon="11.067821641191951"><ele>154.0</ele><time>2026-03-29T11:01:15.999Z</time></trkpt><trkpt lat="43.49477092675199" lon="11.067890843106971"><ele>152.66666666666666</ele><time>2026-03-29T11:01:16.999Z</time></trkpt><trkpt lat="43.49481744720844" lon="11.067963851339792"><ele>151.33333333333334</ele><time>2026-03-29T11:01:17.999Z</time></trkpt><trkpt lat="43.49487601858137" lon="11.068049825177432"><ele>150.0</ele><time>2026-03-29T11:01:18.999Z</time></trkpt><trkpt lat="43.49493580404814" lon="11.068143037562693"><ele>150.0</ele><time>2026-03-29T11:01:19.999Z</time></trkpt><trkpt lat="43.494988528388085" lon="11.06820930758417"><ele>150.0</ele><time>2026-03-29T11:01:20.999Z</time></trkpt><trkpt lat="43.495040321786625" lon="11.068291573038977"><ele>150.0</ele><time>2026-03-29T11:01:21.999Z</time></trkpt><trkpt lat="43.49510259402323" lon="11.068343631619749"><ele>150.0</ele><time>2026-03-29T11:01:22.999Z</time></trkpt><trkpt lat="43.49516002228215" lon="11.068393803852231"><ele>150.0</ele><time>2026-03-29T11:01:23.999Z</time></trkpt><trkpt lat="43.49526177779358" lon="11.068450043760755"><ele>150.0</ele><time>2026-03-29T11:01:25.999Z</time></trkpt><trkpt lat="43.49537543734097" lon="11.068530130159337"><ele>146.33333333333334</ele><time>2026-03-29T11:01:27.999Z</time></trkpt><trkpt lat="43.49544310759549" lon="11.068573128366312"><ele>142.66666666666666</ele><time>2026-03-29T11:01:28.999Z</time></trkpt><trkpt lat="43.49551554899656" lon="11.068610564507013"><ele>139.0</ele><time>2026-03-29T11:01:29.999Z</time></trkpt><trkpt lat="43.49558429822741" lon="11.06864505671093"><ele>135.33333333333331</ele><time>2026-03-29T11:01:30.999Z</time></trkpt><trkpt lat="43.49565058524454" lon="11.068645769342567"><ele>131.66666666666666</ele><time>2026-03-29T11:01:31.999Z</time></trkpt><trkpt lat="43.495723565735034" lon="11.068673779723937"><ele>128.0</ele><time>2026-03-29T11:01:32.999Z</time></trkpt><trkpt lat="43.49583537128291" lon="11.068731754648706"><ele>127.99999999999999</ele><time>2026-03-29T11:01:34.999Z</time></trkpt><trkpt lat="43.49590661396372" lon="11.068771403157218"><ele>128.0</ele><time>2026-03-29T11:01:35.999Z</time></trkpt><trkpt lat="43.495972817945756" lon="11.06879679360246"><ele>128.0</ele><time>2026-03-29T11:01:36.999Z</time></trkpt><trkpt lat="43.49603858889719" lon="11.068820280360095"><ele>128.0</ele><time>2026-03-29T11:01:37.999Z</time></trkpt><trkpt lat="43.496110521705916" lon="11.068856637648773"><ele>127.99999999999999</ele><time>2026-03-29T11:01:38.999Z</time></trkpt><trkpt lat="43.49621621061631" lon="11.068926345788578"><ele>128.0</ele><time>2026-03-29T11:01:39.999Z</time></trkpt><trkpt lat="43.49630095068523" lon="11.0689940366773"><ele>123.0</ele><time>2026-03-29T11:01:40.999Z</time></trkpt><trkpt lat="43.49639644571744" lon="11.069046005635384"><ele>118.00000000000001</ele><time>2026-03-29T11:01:41.999Z</time></trkpt><trkpt lat="43.496486514104014" lon="11.069094735028969"><ele>113.0</ele><time>2026-03-29T11:01:42.999Z</time></trkpt><trkpt lat="43.49658774270904" lon="11.06914476231911"><ele>108.0</ele><time>2026-03-29T11:01:43.999Z</time></trkpt><trkpt lat="43.49669319919503" lon="11.069188267766197"><ele>103.0</ele><time>2026-03-29T11:01:44.999Z</time></trkpt><trkpt lat="43.496781158557944" lon="11.069226084948149"><ele>102.50000000000001</ele><time>2026-03-29T11:01:45.999Z</time></trkpt><trkpt lat="43.496847457016955" lon="11.069256734873045"><ele>102.0</ele><time>2026-03-29T11:01:46.999Z</time></trkpt><trkpt lat="43.496926508590875" lon="11.069349360303281"><ele>101.5</ele><time>2026-03-29T11:01:49Z</time></trkpt><trkpt lat="43.49697393875814" lon="11.069440986325947"><ele>101.0</ele><time>2026-03-29T11:01:50Z</time></trkpt><trkpt lat="43.497023484291944" lon="11.06954091736501"><ele>100.50000000000001</ele><time>2026-03-29T11:01:51Z</time></trkpt><trkpt lat="43.49703939441331" lon="11.0696278493494"><ele>100.0</ele><time>2026-03-29T11:01:52Z</time></trkpt><trkpt lat="43.4970593815395" lon="11.069740239439533"><ele>100.16666666666667</ele><time>2026-03-29T11:01:53Z</time></trkpt><trkpt lat="43.49708885593996" lon="11.069844887707733"><ele>100.33333333333334</ele><time>2026-03-29T11:01:54Z</time></trkpt><trkpt lat="43.49712531431868" lon="11.069938112926515"><ele>100.5</ele><time>2026-03-29T11:01:55Z</time></trkpt><trkpt lat="43.49715359626136" lon="11.070030443085004"><ele>100.66666666666666</ele><time>2026-03-29T11:01:56Z</time></trkpt><trkpt lat="43.49719030941368" lon="11.070133171144295"><ele>100.83333333333333</ele><time>2026-03-29T11:01:57Z</time></trkpt><trkpt lat="43.497225643993005" lon="11.070248094660373"><ele>101.0</ele><time>2026-03-29T11:01:58Z</time></trkpt><trkpt lat="43.4972677833309" lon="11.070368677403982"><ele>101.0</ele><time>2026-03-29T11:01:59Z</time></trkpt><trkpt lat="43.49730467517044" lon="11.070507143315924"><ele>101.0</ele><time>2026-03-29T11:02:00Z</time></trkpt><trkpt lat="43.4973280292872" lon="11.070658414589879"><ele>101.0</ele><time>2026-03-29T11:02:01Z</time></trkpt><trkpt lat="43.49736317275931" lon="11.070794752354944"><ele>101.0</ele><time>2026-03-29T11:02:02Z</time></trkpt><trkpt lat="43.49740762976676" lon="11.070915636216432"><ele>101.0</ele><time>2026-03-29T11:02:03Z</time></trkpt><trkpt lat="43.49745578121448" lon="11.071019710300142"><ele>100.66666666666666</ele><time>2026-03-29T11:02:04Z</time></trkpt><trkpt lat="43.49749679189997" lon="11.071128486678914"><ele>100.33333333333333</ele><time>2026-03-29T11:02:05Z</time></trkpt><trkpt lat="43.49753478895135" lon="11.071252747852448"><ele>100.0</ele><time>2026-03-29T11:02:06Z</time></trkpt><trkpt lat="43.497573219894896" lon="11.07136387528249"><ele>99.66666666666666</ele><time>2026-03-29T11:02:07Z</time></trkpt><trkpt lat="43.49761219041955" lon="11.071460314486805"><ele>99.33333333333333</ele><time>2026-03-29T11:02:08Z</time></trkpt><trkpt lat="43.497650049623466" lon="11.07153986801416"><ele>99.0</ele><time>2026-03-29T11:02:09Z</time></trkpt><trkpt lat="43.4976773291789" lon="11.0716351007725"><ele>99.0</ele><time>2026-03-29T11:02:10Z</time></trkpt><trkpt lat="43.497692555410026" lon="11.071755781245756"><ele>99.0</ele><time>2026-03-29T11:02:11Z</time></trkpt><trkpt lat="43.497722338648906" lon="11.07187173109536"><ele>99.0</ele><time>2026-03-29T11:02:12Z</time></trkpt><trkpt lat="43.497763888362115" lon="11.071965950474098"><ele>99.0</ele><time>2026-03-29T11:02:13Z</time></trkpt><trkpt lat="43.49783616065978" lon="11.072132579557469"><ele>99.0</ele><time>2026-03-29T11:02:15Z</time></trkpt><trkpt lat="43.497882028392794" lon="11.07221194358632"><ele>98.75</ele><time>2026-03-29T11:02:16Z</time></trkpt><trkpt lat="43.497942289505566" lon="11.07231853081814"><ele>98.5</ele><time>2026-03-29T11:02:17Z</time></trkpt><trkpt lat="43.49801118993511" lon="11.072437334067754"><ele>98.25</ele><time>2026-03-29T11:02:18Z</time></trkpt><trkpt lat="43.49808893123091" lon="11.072574105146385"><ele>98.0</ele><time>2026-03-29T11:02:19Z</time></trkpt><trkpt lat="43.498174957896076" lon="11.072713090385621"><ele>97.75</ele><time>2026-03-29T11:02:20Z</time></trkpt><trkpt lat="43.49825993022297" lon="11.072859710500712"><ele>97.5</ele><time>2026-03-29T11:02:21Z</time></trkpt><trkpt lat="43.4983369799605" lon="11.072998249462652"><ele>97.25</ele><time>2026-03-29T11:02:22Z</time></trkpt><trkpt lat="43.49840558573661" lon="11.073112576307604"><ele>97.0</ele><time>2026-03-29T11:02:23Z</time></trkpt><trkpt lat="43.49847491581394" lon="11.073226968935137"><ele>97.0</ele><time>2026-03-29T11:02:24Z</time></trkpt><trkpt lat="43.498551589928454" lon="11.073357113034481"><ele>97.0</ele><time>2026-03-29T11:02:25Z</time></trkpt><trkpt lat="43.49862416321023" lon="11.073473023318625"><ele>97.0</ele><time>2026-03-29T11:02:26Z</time></trkpt><trkpt lat="43.49869111221675" lon="11.073582152068429"><ele>97.0</ele><time>2026-03-29T11:02:27Z</time></trkpt><trkpt lat="43.498758189525326" lon="11.073679305032348"><ele>97.0</ele><time>2026-03-29T11:02:28Z</time></trkpt><trkpt lat="43.49883007255072" lon="11.07378324183598"><ele>97.0</ele><time>2026-03-29T11:02:29Z</time></trkpt><trkpt lat="43.4988957304279" lon="11.073884290003548"><ele>97.0</ele><time>2026-03-29T11:02:30Z</time></trkpt><trkpt lat="43.49897516086756" lon="11.073991643500683"><ele>97.0</ele><time>2026-03-29T11:02:31Z</time></trkpt><trkpt lat="43.49904760456167" lon="11.074095530116596"><ele>97.0</ele><time>2026-03-29T11:02:32Z</time></trkpt><trkpt lat="43.49912468921281" lon="11.07418402420084"><ele>97.0</ele><time>2026-03-29T11:02:33Z</time></trkpt><trkpt lat="43.49920435091399" lon="11.07426750725009"><ele>97.39999999999999</ele><time>2026-03-29T11:02:34Z</time></trkpt><trkpt lat="43.49927922895374" lon="11.074362685116368"><ele>97.8</ele><time>2026-03-29T11:02:35Z</time></trkpt><trkpt lat="43.499358330630564" lon="11.07446845903883"><ele>98.2</ele><time>2026-03-29T11:02:36Z</time></trkpt><trkpt lat="43.49943847645198" lon="11.074576662777314"><ele>98.6</ele><time>2026-03-29T11:02:37Z</time></trkpt><trkpt lat="43.49951379916617" lon="11.074682791901667"><ele>99.0</ele><time>2026-03-29T11:02:38Z</time></trkpt><trkpt lat="43.499597743533066" lon="11.074786136366473"><ele>99.0</ele><time>2026-03-29T11:02:39Z</time></trkpt><trkpt lat="43.49968502580408" lon="11.074886097350282"><ele>99.0</ele><time>2026-03-29T11:02:40Z</time></trkpt><trkpt lat="43.4997776703296" lon="11.075003132916251"><ele>99.0</ele><time>2026-03-29T11:02:41Z</time></trkpt><trkpt lat="43.49985931783342" lon="11.075104629522054"><ele>99.0</ele><time>2026-03-29T11:02:42Z</time></trkpt><trkpt lat="43.49992600641184" lon="11.075184309353375"><ele>99.0</ele><time>2026-03-29T11:02:43Z</time></trkpt><trkpt lat="43.50000524678678" lon="11.075274052400088"><ele>97.5</ele><time>2026-03-29T11:02:44Z</time></trkpt><trkpt lat="43.500098834579425" lon="11.07538706291542"><ele>96.0</ele><time>2026-03-29T11:02:45Z</time></trkpt><trkpt lat="43.50020333750621" lon="11.075519630657311"><ele>94.5</ele><time>2026-03-29T11:02:46Z</time></trkpt><trkpt lat="43.50029344572622" lon="11.075638391737925"><ele>93.0</ele><time>2026-03-29T11:02:47Z</time></trkpt><trkpt lat="43.50037592381063" lon="11.075730331349192"><ele>93.0</ele><time>2026-03-29T11:02:48Z</time></trkpt><trkpt lat="43.50046109827748" lon="11.075821800085244"><ele>93.0</ele><time>2026-03-29T11:02:49Z</time></trkpt><trkpt lat="43.50053581105832" lon="11.075907657421233"><ele>93.0</ele><time>2026-03-29T11:02:50Z</time></trkpt><trkpt lat="43.5006114431501" lon="11.075985013666685"><ele>93.0</ele><time>2026-03-29T11:02:51Z</time></trkpt><trkpt lat="43.500697281669694" lon="11.076063889585514"><ele>93.0</ele><time>2026-03-29T11:02:52Z</time></trkpt><trkpt lat="43.50078225689373" lon="11.076135709493238"><ele>93.0</ele><time>2026-03-29T11:02:53Z</time></trkpt><trkpt lat="43.500854649297885" lon="11.076197867695292"><ele>93.0</ele><time>2026-03-29T11:02:54Z</time></trkpt><trkpt lat="43.5009179494869" lon="11.076249291182872"><ele>93.0</ele><time>2026-03-29T11:02:54.999Z</time></trkpt><trkpt lat="43.5009914757082" lon="11.076297003824655"><ele>93.0</ele><time>2026-03-29T11:02:55.999Z</time></trkpt><trkpt lat="43.50110069762233" lon="11.07634846709188"><ele>93.0</ele><time>2026-03-29T11:02:56.999Z</time></trkpt><trkpt lat="43.50120636973779" lon="11.076394537048264"><ele>93.80000000000001</ele><time>2026-03-29T11:02:57.999Z</time></trkpt><trkpt lat="43.50129430635747" lon="11.076440560422315"><ele>94.6</ele><time>2026-03-29T11:02:58.999Z</time></trkpt><trkpt lat="43.501375360166946" lon="11.076485180832245"><ele>95.4</ele><time>2026-03-29T11:02:59.999Z</time></trkpt><trkpt lat="43.501454044075984" lon="11.07652940501427"><ele>96.19999999999999</ele><time>2026-03-29T11:03:00.999Z</time></trkpt><trkpt lat="43.50154535243979" lon="11.076568462663626"><ele>97.0</ele><time>2026-03-29T11:03:01.999Z</time></trkpt><trkpt lat="43.501643049247605" lon="11.076625974361278"><ele>94.5</ele><time>2026-03-29T11:03:02.999Z</time></trkpt><trkpt lat="43.50173970065465" lon="11.076675534604933"><ele>92.0</ele><time>2026-03-29T11:03:03.999Z</time></trkpt><trkpt lat="43.50185623982514" lon="11.076734417540962"><ele>89.5</ele><time>2026-03-29T11:03:04.999Z</time></trkpt><trkpt lat="43.50196632736659" lon="11.076785353517524"><ele>87.0</ele><time>2026-03-29T11:03:05.999Z</time></trkpt><trkpt lat="43.50207989989195" lon="11.07683344053163"><ele>87.5</ele><time>2026-03-29T11:03:06.999Z</time></trkpt><trkpt lat="43.50218604172661" lon="11.076881587578923"><ele>88.0</ele><time>2026-03-29T11:03:07.999Z</time></trkpt><trkpt lat="43.50230845498268" lon="11.076926673128456"><ele>88.5</ele><time>2026-03-29T11:03:08.999Z</time></trkpt><trkpt lat="43.502442191873634" lon="11.076987043233071"><ele>89.0</ele><time>2026-03-29T11:03:09.999Z</time></trkpt><trkpt lat="43.502583750167" lon="11.077035382327578"><ele>89.0</ele><time>2026-03-29T11:03:10.999Z</time></trkpt><trkpt lat="43.502732771370624" lon="11.077088594758319"><ele>89.0</ele><time>2026-03-29T11:03:11.999Z</time></trkpt><trkpt lat="43.50288212740002" lon="11.077127197122303"><ele>89.0</ele><time>2026-03-29T11:03:12.999Z</time></trkpt><trkpt lat="43.50301358834665" lon="11.077165156109558"><ele>89.0</ele><time>2026-03-29T11:03:13.999Z</time></trkpt><trkpt lat="43.50312666218938" lon="11.0772093158497"><ele>89.25</ele><time>2026-03-29T11:03:14.999Z</time></trkpt><trkpt lat="43.50323525551085" lon="11.077249847766941"><ele>89.5</ele><time>2026-03-29T11:03:15.999Z</time></trkpt><trkpt lat="43.50335168848316" lon="11.077299310428803"><ele>89.75</ele><time>2026-03-29T11:03:16.999Z</time></trkpt><trkpt lat="43.503478596274434" lon="11.077337718109158"><ele>90.0</ele><time>2026-03-29T11:03:17.999Z</time></trkpt><trkpt lat="43.50359456983055" lon="11.077391779217256"><ele>89.0</ele><time>2026-03-29T11:03:18.999Z</time></trkpt><trkpt lat="43.50372244223052" lon="11.077448030787671"><ele>88.0</ele><time>2026-03-29T11:03:19.999Z</time></trkpt><trkpt lat="43.503857952283724" lon="11.077508573656264"><ele>87.0</ele><time>2026-03-29T11:03:20.999Z</time></trkpt><trkpt lat="43.50399932860895" lon="11.077551605827118"><ele>86.0</ele><time>2026-03-29T11:03:21.999Z</time></trkpt><trkpt lat="43.504121639151755" lon="11.07760182724347"><ele>86.0</ele><time>2026-03-29T11:03:22.999Z</time></trkpt><trkpt lat="43.50422170397675" lon="11.077626556840732"><ele>86.0</ele><time>2026-03-29T11:03:23.999Z</time></trkpt><trkpt lat="43.50431901568514" lon="11.077659319227903"><ele>86.0</ele><time>2026-03-29T11:03:24.999Z</time></trkpt><trkpt lat="43.50439874520032" lon="11.07768920349094"><ele>86.0</ele><time>2026-03-29T11:03:25.999Z</time></trkpt><trkpt lat="43.50447136388448" lon="11.07769868189932"><ele>86.0</ele><time>2026-03-29T11:03:26.999Z</time></trkpt><trkpt lat="43.50453765725166" lon="11.07770354685708"><ele>86.0</ele><time>2026-03-29T11:03:27.999Z</time></trkpt><trkpt lat="43.50461056816293" lon="11.077713031636693"><ele>86.16666666666667</ele><time>2026-03-29T11:03:28.999Z</time></trkpt><trkpt lat="43.50469102535764" lon="11.077738484464296"><ele>86.33333333333334</ele><time>2026-03-29T11:03:29.999Z</time></trkpt><trkpt lat="43.50478521452749" lon="11.07777760863723"><ele>86.5</ele><time>2026-03-29T11:03:30.999Z</time></trkpt><trkpt lat="43.50487693249249" lon="11.077805459590682"><ele>86.66666666666667</ele><time>2026-03-29T11:03:31.999Z</time></trkpt><trkpt lat="43.50495447753326" lon="11.077830746429463"><ele>86.83333333333333</ele><time>2026-03-29T11:03:32.999Z</time></trkpt><trkpt lat="43.505018698794856" lon="11.077856148314629"><ele>87.0</ele><time>2026-03-29T11:03:33.999Z</time></trkpt><trkpt lat="43.5050812166301" lon="11.077883560782986"><ele>87.0</ele><time>2026-03-29T11:03:34.999Z</time></trkpt><trkpt lat="43.5051654159289" lon="11.077916010686288"><ele>87.0</ele><time>2026-03-29T11:03:35.999Z</time></trkpt><trkpt lat="43.50527555735697" lon="11.077958858789025"><ele>87.0</ele><time>2026-03-29T11:03:36.999Z</time></trkpt><trkpt lat="43.50539544030388" lon="11.078003596788335"><ele>87.0</ele><time>2026-03-29T11:03:37.999Z</time></trkpt><trkpt lat="43.50551596872423" lon="11.078051483491548"><ele>86.8</ele><time>2026-03-29T11:03:38.999Z</time></trkpt><trkpt lat="43.505639728740114" lon="11.078102831403996"><ele>86.6</ele><time>2026-03-29T11:03:39.999Z</time></trkpt><trkpt lat="43.505748252247486" lon="11.07814202761382"><ele>86.39999999999999</ele><time>2026-03-29T11:03:40.999Z</time></trkpt><trkpt lat="43.50583661985652" lon="11.07815601303569"><ele>86.19999999999999</ele><time>2026-03-29T11:03:41.999Z</time></trkpt><trkpt lat="43.50591275433205" lon="11.078165146467825"><ele>86.0</ele><time>2026-03-29T11:03:42.999Z</time></trkpt><trkpt lat="43.505977976498514" lon="11.078160979484716"><ele>86.0</ele><time>2026-03-29T11:03:43.999Z</time></trkpt><trkpt lat="43.506091720038384" lon="11.078168059606481"><ele>86.0</ele><time>2026-03-29T11:03:45.999Z</time></trkpt><trkpt lat="43.50616371918667" lon="11.07819549104125"><ele>86.0</ele><time>2026-03-29T11:03:47.999Z</time></trkpt><trkpt lat="43.50624965783302" lon="11.0782302789828"><ele>86.0</ele><time>2026-03-29T11:03:50.999Z</time></trkpt><trkpt lat="43.50631800195916" lon="11.078261407399223"><ele>86.0</ele><time>2026-03-29T11:03:53.999Z</time></trkpt><trkpt lat="43.506407499208684" lon="11.078279616461261"><ele>86.0</ele><time>2026-03-29T11:03:56Z</time></trkpt><trkpt lat="43.506516597359195" lon="11.078317926889468"><ele>85.0</ele><time>2026-03-29T11:03:58Z</time></trkpt><trkpt lat="43.50658298393496" lon="11.078338990511478"><ele>84.0</ele><time>2026-03-29T11:03:59Z</time></trkpt><trkpt lat="43.50665980020156" lon="11.078361963392775"><ele>83.0</ele><time>2026-03-29T11:04:00Z</time></trkpt><trkpt lat="43.50673535687689" lon="11.078389578126181"><ele>82.0</ele><time>2026-03-29T11:04:01Z</time></trkpt><trkpt lat="43.506841434183436" lon="11.078431217114437"><ele>81.0</ele><time>2026-03-29T11:04:03Z</time></trkpt><trkpt lat="43.506922234361994" lon="11.078457510558833"><ele>80.0</ele><time>2026-03-29T11:04:04Z</time></trkpt><trkpt lat="43.50699946852116" lon="11.078487229715996"><ele>80.0</ele><time>2026-03-29T11:04:05Z</time></trkpt><trkpt lat="43.50707119886253" lon="11.078530561360745"><ele>80.0</ele><time>2026-03-29T11:04:06Z</time></trkpt><trkpt lat="43.50712341393136" lon="11.078598633343299"><ele>80.0</ele><time>2026-03-29T11:04:07Z</time></trkpt><trkpt lat="43.507175163471004" lon="11.078695441298331"><ele>80.0</ele><time>2026-03-29T11:04:08Z</time></trkpt><trkpt lat="43.50721790974977" lon="11.078824265534394"><ele>80.0</ele><time>2026-03-29T11:04:09Z</time></trkpt><trkpt lat="43.507271815573844" lon="11.078967497958097"><ele>79.8</ele><time>2026-03-29T11:04:10Z</time></trkpt><trkpt lat="43.5073199479712" lon="11.079103246204506"><ele>79.6</ele><time>2026-03-29T11:04:11Z</time></trkpt><trkpt lat="43.507378649932946" lon="11.07921570599535"><ele>79.4</ele><time>2026-03-29T11:04:12Z</time></trkpt><trkpt lat="43.50743012244072" lon="11.07929773517857"><ele>79.2</ele><time>2026-03-29T11:04:13Z</time></trkpt><trkpt lat="43.507505724936564" lon="11.07938910986546"><ele>79.0</ele><time>2026-03-29T11:04:14Z</time></trkpt><trkpt lat="43.50759856686494" lon="11.079476109492916"><ele>79.0</ele><time>2026-03-29T11:04:15Z</time></trkpt><trkpt lat="43.507682562336115" lon="11.0795720751681"><ele>79.0</ele><time>2026-03-29T11:04:16Z</time></trkpt><trkpt lat="43.50776858792892" lon="11.079678418548498"><ele>79.0</ele><time>2026-03-29T11:04:17Z</time></trkpt><trkpt lat="43.50782924523076" lon="11.079779670465856"><ele>79.0</ele><time>2026-03-29T11:04:18Z</time></trkpt><trkpt lat="43.50789280324406" lon="11.079865532065007"><ele>79.0</ele><time>2026-03-29T11:04:19Z</time></trkpt><trkpt lat="43.50796076440537" lon="11.079957905269023"><ele>78.8</ele><time>2026-03-29T11:04:20Z</time></trkpt><trkpt lat="43.508033472276594" lon="11.080056730302983"><ele>78.60000000000001</ele><time>2026-03-29T11:04:21Z</time></trkpt><trkpt lat="43.50809690497514" lon="11.08014294836818"><ele>78.4</ele><time>2026-03-29T11:04:22Z</time></trkpt><trkpt lat="43.508159730398745" lon="11.080228341133925"><ele>78.2</ele><time>2026-03-29T11:04:23Z</time></trkpt><trkpt lat="43.508252031604364" lon="11.080323734111966"><ele>78.0</ele><time>2026-03-29T11:04:24Z</time></trkpt><trkpt lat="43.50833072281515" lon="11.0804540327955"><ele>78.0</ele><time>2026-03-29T11:04:25Z</time></trkpt><trkpt lat="43.50843349133195" lon="11.080582054784351"><ele>78.0</ele><time>2026-03-29T11:04:26Z</time></trkpt><trkpt lat="43.50853132281441" lon="11.08070884774447"><ele>78.0</ele><time>2026-03-29T11:04:27Z</time></trkpt><trkpt lat="43.50860618780827" lon="11.080837253711257"><ele>78.0</ele><time>2026-03-29T11:04:28Z</time></trkpt><trkpt lat="43.50868810751236" lon="11.080952985915534"><ele>77.75</ele><time>2026-03-29T11:04:29Z</time></trkpt><trkpt lat="43.50877972511283" lon="11.081077127142791"><ele>77.5</ele><time>2026-03-29T11:04:30Z</time></trkpt><trkpt lat="43.508868584335765" lon="11.081195381268435"><ele>77.25</ele><time>2026-03-29T11:04:31Z</time></trkpt><trkpt lat="43.508951543527566" lon="11.081297668265728"><ele>77.0</ele><time>2026-03-29T11:04:32Z</time></trkpt><trkpt lat="43.5090085401713" lon="11.081400140894477"><ele>77.0</ele><time>2026-03-29T11:04:33Z</time></trkpt><trkpt lat="43.509065060331295" lon="11.081476554258128"><ele>77.0</ele><time>2026-03-29T11:04:34Z</time></trkpt><trkpt lat="43.50910548566243" lon="11.081546291907472"><ele>77.0</ele><time>2026-03-29T11:04:35Z</time></trkpt><trkpt lat="43.50915814735013" lon="11.081601526676423"><ele>77.0</ele><time>2026-03-29T11:04:37Z</time></trkpt><trkpt lat="43.509270530714375" lon="11.08163160447654"><ele>77.0</ele><time>2026-03-29T11:04:42Z</time></trkpt><trkpt lat="43.509364594025854" lon="11.08159252423774"><ele>77.0</ele><time>2026-03-29T11:04:43Z</time></trkpt><trkpt lat="43.509455220364124" lon="11.081486262017886"><ele>77.0</ele><time>2026-03-29T11:04:44Z</time></trkpt><trkpt lat="43.5095641904481" lon="11.081399106775343"><ele>77.0</ele><time>2026-03-29T11:04:45Z</time></trkpt><trkpt lat="43.50967849356227" lon="11.08128987125989"><ele>77.0</ele><time>2026-03-29T11:04:46Z</time></trkpt><trkpt lat="43.50977491896544" lon="11.081170110407017"><ele>77.0</ele><time>2026-03-29T11:04:47Z</time></trkpt><trkpt lat="43.50988954769665" lon="11.081057956179409"><ele>77.0</ele><time>2026-03-29T11:04:48Z</time></trkpt><trkpt lat="43.510005761058224" lon="11.080957790414425"><ele>77.0</ele><time>2026-03-29T11:04:49Z</time></trkpt><trkpt lat="43.510128451195456" lon="11.080849523283376"><ele>77.0</ele><time>2026-03-29T11:04:50Z</time></trkpt><trkpt lat="43.510223403338514" lon="11.080772721551813"><ele>77.0</ele><time>2026-03-29T11:04:51Z</time></trkpt><trkpt lat="43.510299072006255" lon="11.080701069016193"><ele>77.0</ele><time>2026-03-29T11:04:52Z</time></trkpt><trkpt lat="43.510383163521546" lon="11.080630960788776"><ele>77.0</ele><time>2026-03-29T11:04:53Z</time></trkpt><trkpt lat="43.51046907166397" lon="11.080573848469468"><ele>77.0</ele><time>2026-03-29T11:04:54Z</time></trkpt><trkpt lat="43.51056316273459" lon="11.08053558009945"><ele>77.0</ele><time>2026-03-29T11:04:55Z</time></trkpt><trkpt lat="43.510652564007344" lon="11.080537056413233"><ele>77.0</ele><time>2026-03-29T11:04:56Z</time></trkpt><trkpt lat="43.510749475973654" lon="11.08056696603505"><ele>77.0</ele><time>2026-03-29T11:04:57Z</time></trkpt><trkpt lat="43.510846615787905" lon="11.080607918799187"><ele>77.0</ele><time>2026-03-29T11:04:58Z</time></trkpt><trkpt lat="43.51094351473696" lon="11.08063638794855"><ele>77.0</ele><time>2026-03-29T11:04:59Z</time></trkpt><trkpt lat="43.51105929235928" lon="11.08070131561173"><ele>77.0</ele><time>2026-03-29T11:05:00Z</time></trkpt><trkpt lat="43.51118132127731" lon="11.080766493256283"><ele>76.5</ele><time>2026-03-29T11:05:01Z</time></trkpt><trkpt lat="43.511307858112936" lon="11.08084029972298"><ele>76.0</ele><time>2026-03-29T11:05:02Z</time></trkpt><trkpt lat="43.51144097331486" lon="11.080918221280497"><ele>75.5</ele><time>2026-03-29T11:05:03Z</time></trkpt><trkpt lat="43.51158210144004" lon="11.081003855231124"><ele>75.0</ele><time>2026-03-29T11:05:04Z</time></trkpt><trkpt lat="43.511731034078224" lon="11.081064210306689"><ele>75.0</ele><time>2026-03-29T11:05:05Z</time></trkpt><trkpt lat="43.51185267257928" lon="11.081103398948025"><ele>75.0</ele><time>2026-03-29T11:05:06Z</time></trkpt><trkpt lat="43.51196679013329" lon="11.08110412785947"><ele>75.0</ele><time>2026-03-29T11:05:07Z</time></trkpt><trkpt lat="43.51208749930708" lon="11.08106583206668"><ele>75.0</ele><time>2026-03-29T11:05:08Z</time></trkpt><trkpt lat="43.512217196592424" lon="11.080995741957699"><ele>75.0</ele><time>2026-03-29T11:05:09Z</time></trkpt><trkpt lat="43.51235909704382" lon="11.080928150496515"><ele>75.0</ele><time>2026-03-29T11:05:10Z</time></trkpt><trkpt lat="43.51252213638142" lon="11.080860879084785"><ele>75.0</ele><time>2026-03-29T11:05:11Z</time></trkpt><trkpt lat="43.512677097999564" lon="11.080800162955196"><ele>74.66666666666667</ele><time>2026-03-29T11:05:12Z</time></trkpt><trkpt lat="43.512834500523674" lon="11.080757824626199"><ele>74.33333333333334</ele><time>2026-03-29T11:05:13Z</time></trkpt><trkpt lat="43.512992405042624" lon="11.08068930465523"><ele>74.0</ele><time>2026-03-29T11:05:14Z</time></trkpt><trkpt lat="43.513144543975486" lon="11.080619401822995"><ele>74.0</ele><time>2026-03-29T11:05:15Z</time></trkpt><trkpt lat="43.51327720530039" lon="11.080569659070173"><ele>74.0</ele><time>2026-03-29T11:05:16Z</time></trkpt><trkpt lat="43.51339908205848" lon="11.080524716548375"><ele>74.0</ele><time>2026-03-29T11:05:17Z</time></trkpt><trkpt lat="43.513504374910134" lon="11.080482782312718"><ele>74.0</ele><time>2026-03-29T11:05:18Z</time></trkpt><trkpt lat="43.5136140658196" lon="11.080435858330583"><ele>74.0</ele><time>2026-03-29T11:05:19Z</time></trkpt><trkpt lat="43.51371957587743" lon="11.080398913939455"><ele>74.0</ele><time>2026-03-29T11:05:20Z</time></trkpt><trkpt lat="43.513824030774444" lon="11.080364180435653"><ele>74.0</ele><time>2026-03-29T11:05:20.999Z</time></trkpt><trkpt lat="43.51392008099732" lon="11.080335444403538"><ele>74.0</ele><time>2026-03-29T11:05:21.999Z</time></trkpt><trkpt lat="43.514013062898954" lon="11.080298556602127"><ele>74.0</ele><time>2026-03-29T11:05:22.999Z</time></trkpt><trkpt lat="43.514105646569014" lon="11.080272359654312"><ele>74.0</ele><time>2026-03-29T11:05:23.999Z</time></trkpt><trkpt lat="43.51418674579049" lon="11.080230188540854"><ele>74.0</ele><time>2026-03-29T11:05:24.999Z</time></trkpt><trkpt lat="43.51426544449278" lon="11.08024915600636"><ele>74.0</ele><time>2026-03-29T11:05:25.999Z</time></trkpt><trkpt lat="43.51432836947323" lon="11.080113162024212"><ele>74.0</ele><time>2026-03-29T11:05:26.999Z</time></trkpt><trkpt lat="43.5143988446667" lon="11.080026976152782"><ele>74.0</ele><time>2026-03-29T11:05:27.999Z</time></trkpt><trkpt lat="43.51447517451539" lon="11.079924570936516"><ele>74.0</ele><time>2026-03-29T11:05:28.999Z</time></trkpt><trkpt lat="43.51454959560077" lon="11.079827055556285"><ele>74.0</ele><time>2026-03-29T11:05:29.999Z</time></trkpt><trkpt lat="43.51463837795851" lon="11.079720740089062"><ele>74.0</ele><time>2026-03-29T11:05:30.999Z</time></trkpt><trkpt lat="43.51473722679022" lon="11.079611338916207"><ele>74.0</ele><time>2026-03-29T11:05:31.999Z</time></trkpt><trkpt lat="43.51484285653389" lon="11.07948296276045"><ele>74.0</ele><time>2026-03-29T11:05:32.999Z</time></trkpt><trkpt lat="43.514948192222846" lon="11.079356753125987"><ele>74.0</ele><time>2026-03-29T11:05:33.999Z</time></trkpt><trkpt lat="43.51504681610379" lon="11.079228848569386"><ele>74.0</ele><time>2026-03-29T11:05:34.999Z</time></trkpt><trkpt lat="43.51513748281859" lon="11.079122457034506"><ele>74.0</ele><time>2026-03-29T11:05:35.999Z</time></trkpt><trkpt lat="43.515217244265806" lon="11.079023347848073"><ele>74.0</ele><time>2026-03-29T11:05:36.999Z</time></trkpt><trkpt lat="43.51530245608492" lon="11.07891769251562"><ele>74.0</ele><time>2026-03-29T11:05:37.999Z</time></trkpt><trkpt lat="43.51539756046634" lon="11.078833241336667"><ele>74.0</ele><time>2026-03-29T11:05:38.999Z</time></trkpt><trkpt lat="43.51548500592903" lon="11.078728281712383"><ele>74.0</ele><time>2026-03-29T11:05:39.999Z</time></trkpt><trkpt lat="43.51556116045283" lon="11.078645987753667"><ele>74.0</ele><time>2026-03-29T11:05:40.999Z</time></trkpt><trkpt lat="43.51564158627918" lon="11.078541662560399"><ele>74.2</ele><time>2026-03-29T11:05:41.999Z</time></trkpt><trkpt lat="43.51570768542015" lon="11.078464165732736"><ele>74.4</ele><time>2026-03-29T11:05:42.999Z</time></trkpt><trkpt lat="43.51575523771872" lon="11.078388334716733"><ele>74.6</ele><time>2026-03-29T11:05:43.999Z</time></trkpt><trkpt lat="43.51578833650483" lon="11.078230094581887"><ele>74.8</ele><time>2026-03-29T11:05:45.999Z</time></trkpt><trkpt lat="43.515727057175674" lon="11.07807436434053"><ele>75.0</ele><time>2026-03-29T11:05:47.999Z</time></trkpt><trkpt lat="43.5156718117005" lon="11.077966547828668"><ele>75.0</ele><time>2026-03-29T11:05:48.999Z</time></trkpt><trkpt lat="43.51561889255441" lon="11.077848822113273"><ele>75.0</ele><time>2026-03-29T11:05:49.999Z</time></trkpt><trkpt lat="43.515566641908634" lon="11.077728266954704"><ele>75.0</ele><time>2026-03-29T11:05:50.999Z</time></trkpt><trkpt lat="43.51553434246205" lon="11.07761162586041"><ele>75.0</ele><time>2026-03-29T11:05:51.999Z</time></trkpt><trkpt lat="43.515513040792726" lon="11.07751459112333"><ele>75.0</ele><time>2026-03-29T11:05:52.999Z</time></trkpt><trkpt lat="43.51552204391098" lon="11.07742758343713"><ele>75.0</ele><time>2026-03-29T11:05:53.999Z</time></trkpt><trkpt lat="43.51555911340997" lon="11.077356914877308"><ele>76.2</ele><time>2026-03-29T11:05:54.999Z</time></trkpt><trkpt lat="43.515679056719236" lon="11.077282411246388"><ele>77.4</ele><time>2026-03-29T11:05:56.999Z</time></trkpt><trkpt lat="43.515747865602144" lon="11.077287413009426"><ele>78.6</ele><time>2026-03-29T11:05:57.999Z</time></trkpt><trkpt lat="43.515843393154476" lon="11.077277730117917"><ele>79.8</ele><time>2026-03-29T11:05:58.999Z</time></trkpt><trkpt lat="43.51595814599768" lon="11.077274342786893"><ele>81.0</ele><time>2026-03-29T11:05:59.999Z</time></trkpt><trkpt lat="43.516089417051695" lon="11.077226942150306"><ele>81.0</ele><time>2026-03-29T11:06:01.001Z</time></trkpt><trkpt lat="43.51622230286224" lon="11.077195984253125"><ele>81.0</ele><time>2026-03-29T11:06:02Z</time></trkpt><trkpt lat="43.51632686477605" lon="11.077158955014626"><ele>81.0</ele><time>2026-03-29T11:06:03Z</time></trkpt><trkpt lat="43.51642677348325" lon="11.077145126185151"><ele>81.0</ele><time>2026-03-29T11:06:04.001Z</time></trkpt><trkpt lat="43.51652712641807" lon="11.077089624040113"><ele>80.39999999999999</ele><time>2026-03-29T11:06:05.001Z</time></trkpt><trkpt lat="43.51662242469382" lon="11.077052095651405"><ele>79.8</ele><time>2026-03-29T11:06:06.001Z</time></trkpt><trkpt lat="43.516725461357495" lon="11.076985728546584"><ele>79.19999999999999</ele><time>2026-03-29T11:06:07.001Z</time></trkpt><trkpt lat="43.51682831540744" lon="11.076950139409528"><ele>78.6</ele><time>2026-03-29T11:06:08Z</time></trkpt><trkpt lat="43.516928796958396" lon="11.076914338820766"><ele>78.0</ele><time>2026-03-29T11:06:09Z</time></trkpt><trkpt lat="43.517063216327756" lon="11.076907938156221"><ele>78.0</ele><time>2026-03-29T11:06:10Z</time></trkpt><trkpt lat="43.517204561760614" lon="11.076931810750875"><ele>78.0</ele><time>2026-03-29T11:06:11.001Z</time></trkpt><trkpt lat="43.51734138515937" lon="11.07693422151877"><ele>78.0</ele><time>2026-03-29T11:06:12.001Z</time></trkpt><trkpt lat="43.517490586675336" lon="11.07694160172554"><ele>78.0</ele><time>2026-03-29T11:06:13.001Z</time></trkpt><trkpt lat="43.51764223772188" lon="11.07694148223086"><ele>78.0</ele><time>2026-03-29T11:06:14.001Z</time></trkpt><trkpt lat="43.51778344023353" lon="11.0769437492726"><ele>78.0</ele><time>2026-03-29T11:06:15.001Z</time></trkpt><trkpt lat="43.51789447091747" lon="11.07695558743242"><ele>78.0</ele><time>2026-03-29T11:06:16.001Z</time></trkpt><trkpt lat="43.51799721975533" lon="11.076957508906906"><ele>78.0</ele><time>2026-03-29T11:06:17.001Z</time></trkpt><trkpt lat="43.518105947522194" lon="11.076949098343922"><ele>78.5</ele><time>2026-03-29T11:06:18.001Z</time></trkpt><trkpt lat="43.518236512695744" lon="11.076926764108588"><ele>79.0</ele><time>2026-03-29T11:06:19.001Z</time></trkpt><trkpt lat="43.51836201227488" lon="11.076914688838242"><ele>79.5</ele><time>2026-03-29T11:06:20.001Z</time></trkpt><trkpt lat="43.51846580094778" lon="11.07691234932483"><ele>80.0</ele><time>2026-03-29T11:06:21.001Z</time></trkpt><trkpt lat="43.51857377623126" lon="11.076911391924952"><ele>80.0</ele><time>2026-03-29T11:06:22Z</time></trkpt><trkpt lat="43.51867290036351" lon="11.076913478942593"><ele>80.0</ele><time>2026-03-29T11:06:23Z</time></trkpt><trkpt lat="43.51876282783851" lon="11.076908935032435"><ele>80.0</ele><time>2026-03-29T11:06:24Z</time></trkpt><trkpt lat="43.51886159315376" lon="11.076900042684796"><ele>80.0</ele><time>2026-03-29T11:06:25Z</time></trkpt><trkpt lat="43.51897041196321" lon="11.076861423710614"><ele>80.0</ele><time>2026-03-29T11:06:26Z</time></trkpt><trkpt lat="43.51908961494701" lon="11.076790667745074"><ele>78.66666666666667</ele><time>2026-03-29T11:06:27Z</time></trkpt><trkpt lat="43.5192136675916" lon="11.076684897470582"><ele>77.33333333333333</ele><time>2026-03-29T11:06:28Z</time></trkpt><trkpt lat="43.51936783375892" lon="11.076555178604924"><ele>76.0</ele><time>2026-03-29T11:06:29Z</time></trkpt><trkpt lat="43.519522224241726" lon="11.076433609681384"><ele>76.5</ele><time>2026-03-29T11:06:30Z</time></trkpt><trkpt lat="43.519655770563716" lon="11.076327067967263"><ele>77.0</ele><time>2026-03-29T11:06:31Z</time></trkpt><trkpt lat="43.519763764526616" lon="11.076267747867295"><ele>77.5</ele><time>2026-03-29T11:06:32Z</time></trkpt><trkpt lat="43.51985115711218" lon="11.076190845228629"><ele>78.0</ele><time>2026-03-29T11:06:33Z</time></trkpt><trkpt lat="43.51994681964848" lon="11.076138931651434"><ele>78.0</ele><time>2026-03-29T11:06:34Z</time></trkpt><trkpt lat="43.52004303465738" lon="11.076059316065434"><ele>78.0</ele><time>2026-03-29T11:06:35Z</time></trkpt><trkpt lat="43.520140021294104" lon="11.075939311922877"><ele>78.0</ele><time>2026-03-29T11:06:36Z</time></trkpt><trkpt lat="43.52026036875735" lon="11.07583680666648"><ele>78.0</ele><time>2026-03-29T11:06:37Z</time></trkpt><trkpt lat="43.520360730572634" lon="11.07574055510065"><ele>78.75</ele><time>2026-03-29T11:06:38Z</time></trkpt><trkpt lat="43.520459739189434" lon="11.075652903275046"><ele>79.5</ele><time>2026-03-29T11:06:39Z</time></trkpt><trkpt lat="43.52055553113665" lon="11.075565640918526"><ele>80.25</ele><time>2026-03-29T11:06:40Z</time></trkpt><trkpt lat="43.52066567164873" lon="11.075502435831002"><ele>81.0</ele><time>2026-03-29T11:06:41Z</time></trkpt><trkpt lat="43.52077312739961" lon="11.075443805981973"><ele>81.0</ele><time>2026-03-29T11:06:42Z</time></trkpt><trkpt lat="43.52085860971686" lon="11.075396267961741"><ele>81.0</ele><time>2026-03-29T11:06:43Z</time></trkpt><trkpt lat="43.52094776962677" lon="11.075336071475078"><ele>81.0</ele><time>2026-03-29T11:06:44Z</time></trkpt><trkpt lat="43.52103985378355" lon="11.075267734560882"><ele>81.0</ele><time>2026-03-29T11:06:45Z</time></trkpt><trkpt lat="43.52110457688003" lon="11.075135266313644"><ele>81.0</ele><time>2026-03-29T11:06:46Z</time></trkpt><trkpt lat="43.52116620770851" lon="11.075006130151092"><ele>81.25</ele><time>2026-03-29T11:06:47Z</time></trkpt><trkpt lat="43.52120523008225" lon="11.07485617115307"><ele>81.5</ele><time>2026-03-29T11:06:48Z</time></trkpt><trkpt lat="43.52126957262025" lon="11.07469407613867"><ele>81.75</ele><time>2026-03-29T11:06:49Z</time></trkpt><trkpt lat="43.521318428191314" lon="11.074522757124882"><ele>82.0</ele><time>2026-03-29T11:06:50Z</time></trkpt><trkpt lat="43.52137796586524" lon="11.074350812513158"><ele>82.0</ele><time>2026-03-29T11:06:51Z</time></trkpt><trkpt lat="43.52142959687241" lon="11.074175600306518"><ele>82.0</ele><time>2026-03-29T11:06:52Z</time></trkpt><trkpt lat="43.521481158466344" lon="11.07398491355166"><ele>82.0</ele><time>2026-03-29T11:06:53Z</time></trkpt><trkpt lat="43.52153117688509" lon="11.07379339068662"><ele>82.0</ele><time>2026-03-29T11:06:54Z</time></trkpt><trkpt lat="43.52158300878401" lon="11.073605375113594"><ele>84.25</ele><time>2026-03-29T11:06:55Z</time></trkpt><trkpt lat="43.521630381417175" lon="11.073433347827436"><ele>86.5</ele><time>2026-03-29T11:06:56Z</time></trkpt><trkpt lat="43.52167436790031" lon="11.073268980136113"><ele>88.75</ele><time>2026-03-29T11:06:57Z</time></trkpt><trkpt lat="43.521716258473994" lon="11.073115518776742"><ele>91.0</ele><time>2026-03-29T11:06:58Z</time></trkpt><trkpt lat="43.521763510922796" lon="11.072953420742284"><ele>92.25</ele><time>2026-03-29T11:06:59Z</time></trkpt><trkpt lat="43.52180898311337" lon="11.072780578985824"><ele>93.5</ele><time>2026-03-29T11:07:00Z</time></trkpt><trkpt lat="43.521854579456566" lon="11.072599684827177"><ele>94.75</ele><time>2026-03-29T11:07:01Z</time></trkpt><trkpt lat="43.52190491821754" lon="11.072411377196103"><ele>96.0</ele><time>2026-03-29T11:07:02Z</time></trkpt><trkpt lat="43.52197221738554" lon="11.072240810006456"><ele>96.0</ele><time>2026-03-29T11:07:03Z</time></trkpt><trkpt lat="43.52203110452723" lon="11.072068229527188"><ele>96.0</ele><time>2026-03-29T11:07:04Z</time></trkpt><trkpt lat="43.5220620660719" lon="11.07190382564013"><ele>96.0</ele><time>2026-03-29T11:07:05Z</time></trkpt><trkpt lat="43.52210607688202" lon="11.071760329701112"><ele>96.0</ele><time>2026-03-29T11:07:06Z</time></trkpt><trkpt lat="43.52212509694257" lon="11.071659666320809"><ele>96.16666666666667</ele><time>2026-03-29T11:07:07Z</time></trkpt><trkpt lat="43.52215242932707" lon="11.071580203786054"><ele>96.33333333333334</ele><time>2026-03-29T11:07:08Z</time></trkpt><trkpt lat="43.52224268404546" lon="11.071480372835241"><ele>96.5</ele><time>2026-03-29T11:07:10Z</time></trkpt><trkpt lat="43.52230677143759" lon="11.071462511447242"><ele>96.66666666666667</ele><time>2026-03-29T11:07:11Z</time></trkpt><trkpt lat="43.52237839363142" lon="11.071476761495608"><ele>96.83333333333334</ele><time>2026-03-29T11:07:12Z</time></trkpt><trkpt lat="43.522465260683546" lon="11.071490705056098"><ele>97.0</ele><time>2026-03-29T11:07:13Z</time></trkpt><trkpt lat="43.52257421136422" lon="11.071498391512518"><ele>97.0</ele><time>2026-03-29T11:07:14Z</time></trkpt><trkpt lat="43.52266431665291" lon="11.071498445892052"><ele>97.0</ele><time>2026-03-29T11:07:15Z</time></trkpt><trkpt lat="43.52276282385703" lon="11.07150361536311"><ele>97.0</ele><time>2026-03-29T11:07:16Z</time></trkpt><trkpt lat="43.522862065866164" lon="11.07153427228963"><ele>97.0</ele><time>2026-03-29T11:07:17Z</time></trkpt><trkpt lat="43.522955680026584" lon="11.071543820583406"><ele>97.0</ele><time>2026-03-29T11:07:18Z</time></trkpt><trkpt lat="43.52304359684634" lon="11.071549816432228"><ele>95.66666666666667</ele><time>2026-03-29T11:07:19Z</time></trkpt><trkpt lat="43.52313224873233" lon="11.071560873876914"><ele>94.33333333333334</ele><time>2026-03-29T11:07:20Z</time></trkpt><trkpt lat="43.52321433376784" lon="11.071571381959698"><ele>93.0</ele><time>2026-03-29T11:07:21Z</time></trkpt><trkpt lat="43.52329591201354" lon="11.071585649239296"><ele>91.66666666666667</ele><time>2026-03-29T11:07:22Z</time></trkpt><trkpt lat="43.52336540113026" lon="11.071586259359494"><ele>90.33333333333334</ele><time>2026-03-29T11:07:23Z</time></trkpt><trkpt lat="43.52344125904349" lon="11.071594650040376"><ele>89.0</ele><time>2026-03-29T11:07:24Z</time></trkpt><trkpt lat="43.523515899220854" lon="11.071601254824296"><ele>88.83333333333334</ele><time>2026-03-29T11:07:25Z</time></trkpt><trkpt lat="43.52358230310872" lon="11.071611003593011"><ele>88.66666666666667</ele><time>2026-03-29T11:07:26Z</time></trkpt><trkpt lat="43.52365082639562" lon="11.071618815666811"><ele>88.5</ele><time>2026-03-29T11:07:27Z</time></trkpt><trkpt lat="43.5237325620493" lon="11.0716305862283"><ele>88.33333333333333</ele><time>2026-03-29T11:07:28Z</time></trkpt><trkpt lat="43.52380228026347" lon="11.071640247570073"><ele>88.16666666666666</ele><time>2026-03-29T11:07:29Z</time></trkpt><trkpt lat="43.52388761505629" lon="11.07165526925697"><ele>88.0</ele><time>2026-03-29T11:07:30Z</time></trkpt><trkpt lat="43.52396783517857" lon="11.071671430956727"><ele>86.16666666666666</ele><time>2026-03-29T11:07:31Z</time></trkpt><trkpt lat="43.5240649396423" lon="11.071684812904195"><ele>84.33333333333333</ele><time>2026-03-29T11:07:32Z</time></trkpt><trkpt lat="43.52415557351259" lon="11.071704766614593"><ele>82.5</ele><time>2026-03-29T11:07:33Z</time></trkpt><trkpt lat="43.52424226314684" lon="11.071718130589247"><ele>80.66666666666667</ele><time>2026-03-29T11:07:34Z</time></trkpt><trkpt lat="43.52432032957406" lon="11.071716153940084"><ele>78.83333333333334</ele><time>2026-03-29T11:07:35Z</time></trkpt><trkpt lat="43.524385072211444" lon="11.071720565264862"><ele>77.0</ele><time>2026-03-29T11:07:35.999Z</time></trkpt><trkpt lat="43.52447950081513" lon="11.071676579374309"><ele>77.2</ele><time>2026-03-29T11:07:37.999Z</time></trkpt><trkpt lat="43.524546178313855" lon="11.071545744722835"><ele>77.4</ele><time>2026-03-29T11:07:39.999Z</time></trkpt><trkpt lat="43.52459128002449" lon="11.07145057771697"><ele>77.6</ele><time>2026-03-29T11:07:40.999Z</time></trkpt><trkpt lat="43.52463687042274" lon="11.071341518576295"><ele>77.8</ele><time>2026-03-29T11:07:41.999Z</time></trkpt><trkpt lat="43.52473795640575" lon="11.071308714087277"><ele>78.0</ele><time>2026-03-29T11:07:43.999Z</time></trkpt><trkpt lat="43.52481660320471" lon="11.071341247939259"><ele>77.33333333333333</ele><time>2026-03-29T11:07:44.999Z</time></trkpt><trkpt lat="43.52491160811416" lon="11.07138681882334"><ele>76.66666666666667</ele><time>2026-03-29T11:07:45.999Z</time></trkpt><trkpt lat="43.524990365961706" lon="11.071402577268003"><ele>76.0</ele><time>2026-03-29T11:07:46.999Z</time></trkpt><trkpt lat="43.525054668183195" lon="11.071381037320185"><ele>75.33333333333334</ele><time>2026-03-29T11:07:47.999Z</time></trkpt><trkpt lat="43.52511376524612" lon="11.071323222922759"><ele>74.66666666666667</ele><time>2026-03-29T11:07:48.999Z</time></trkpt><trkpt lat="43.525171160064275" lon="11.071235479860894"><ele>74.0</ele><time>2026-03-29T11:07:49.999Z</time></trkpt><trkpt lat="43.5252330060928" lon="11.071099584042187"><ele>74.0</ele><time>2026-03-29T11:07:50.999Z</time></trkpt><trkpt lat="43.52529475741627" lon="11.070914627322765"><ele>74.0</ele><time>2026-03-29T11:07:51.999Z</time></trkpt><trkpt lat="43.525367125588986" lon="11.070717713329904"><ele>74.0</ele><time>2026-03-29T11:07:52.999Z</time></trkpt><trkpt lat="43.525436769947945" lon="11.070509941390046"><ele>73.60000000000001</ele><time>2026-03-29T11:07:53.999Z</time></trkpt><trkpt lat="43.525492194588715" lon="11.070382962319899"><ele>73.2</ele><time>2026-03-29T11:07:54.999Z</time></trkpt><trkpt lat="43.52553682418185" lon="11.070246730054699"><ele>72.80000000000001</ele><time>2026-03-29T11:07:55.999Z</time></trkpt><trkpt lat="43.52558692655627" lon="11.070101818432503"><ele>72.4</ele><time>2026-03-29T11:07:56.999Z</time></trkpt><trkpt lat="43.525638039064475" lon="11.069960132498927"><ele>72.0</ele><time>2026-03-29T11:07:57.999Z</time></trkpt><trkpt lat="43.525703614825524" lon="11.069847061513817"><ele>72.0</ele><time>2026-03-29T11:07:58.999Z</time></trkpt><trkpt lat="43.52573715713204" lon="11.069749372826381"><ele>72.0</ele><time>2026-03-29T11:07:59.999Z</time></trkpt><trkpt lat="43.525755815984446" lon="11.069647125463355"><ele>72.0</ele><time>2026-03-29T11:08:01.999Z</time></trkpt><trkpt lat="43.525816660704855" lon="11.069577604078086"><ele>72.0</ele><time>2026-03-29T11:08:04.999Z</time></trkpt><trkpt lat="43.525913881556306" lon="11.069685340488945"><ele>72.0</ele><time>2026-03-29T11:08:07.999Z</time></trkpt><trkpt lat="43.526000590622445" lon="11.06975922414647"><ele>72.0</ele><time>2026-03-29T11:08:09.999Z</time></trkpt><trkpt lat="43.52610080359398" lon="11.069821899066827"><ele>72.0</ele><time>2026-03-29T11:08:11.999Z</time></trkpt><trkpt lat="43.52616075658878" lon="11.069868163933203"><ele>72.0</ele><time>2026-03-29T11:08:12.999Z</time></trkpt><trkpt lat="43.52622371648657" lon="11.069909337320398"><ele>72.0</ele><time>2026-03-29T11:08:13.999Z</time></trkpt><trkpt lat="43.526300051501465" lon="11.069909421377444"><ele>72.0</ele><time>2026-03-29T11:08:14.999Z</time></trkpt><trkpt lat="43.52639416879536" lon="11.069899695982176"><ele>72.0</ele><time>2026-03-29T11:08:15.999Z</time></trkpt><trkpt lat="43.526467690452094" lon="11.069898621328196"><ele>71.66666666666667</ele><time>2026-03-29T11:08:16.999Z</time></trkpt><trkpt lat="43.52657063554167" lon="11.069934360930334"><ele>71.33333333333333</ele><time>2026-03-29T11:08:18.999Z</time></trkpt><trkpt lat="43.526649718070125" lon="11.06997708969003"><ele>71.0</ele><time>2026-03-29T11:08:19.999Z</time></trkpt><trkpt lat="43.526731406970455" lon="11.070039586285004"><ele>70.66666666666666</ele><time>2026-03-29T11:08:20.999Z</time></trkpt><trkpt lat="43.52679038063757" lon="11.070101334942645"><ele>70.33333333333333</ele><time>2026-03-29T11:08:21.999Z</time></trkpt><trkpt lat="43.52685435354119" lon="11.070159727194481"><ele>70.0</ele><time>2026-03-29T11:08:22.999Z</time></trkpt><trkpt lat="43.52690188251858" lon="11.070222919276903"><ele>70.0</ele><time>2026-03-29T11:08:23.999Z</time></trkpt><trkpt lat="43.52697928935884" lon="11.070293902033326"><ele>70.0</ele><time>2026-03-29T11:08:24.999Z</time></trkpt><trkpt lat="43.5270339783716" lon="11.07034897049429"><ele>70.0</ele><time>2026-03-29T11:08:25.999Z</time></trkpt><trkpt lat="43.527095777526114" lon="11.070395444449293"><ele>70.0</ele><time>2026-03-29T11:08:26.999Z</time></trkpt><trkpt lat="43.52715965139304" lon="11.070455273321349"><ele>70.0</ele><time>2026-03-29T11:08:27.999Z</time></trkpt><trkpt lat="43.52724164224421" lon="11.070540246009926"><ele>70.0</ele><time>2026-03-29T11:08:28.999Z</time></trkpt><trkpt lat="43.52732021783131" lon="11.070610755266152"><ele>70.4</ele><time>2026-03-29T11:08:29.999Z</time></trkpt><trkpt lat="43.527380581519665" lon="11.070653958770578"><ele>70.8</ele><time>2026-03-29T11:08:30.999Z</time></trkpt><trkpt lat="43.5274924877442" lon="11.07067811442382"><ele>71.2</ele><time>2026-03-29T11:08:32.999Z</time></trkpt><trkpt lat="43.52755804529309" lon="11.070572063080752"><ele>71.6</ele><time>2026-03-29T11:08:34.999Z</time></trkpt><trkpt lat="43.52759863872737" lon="11.070440748136065"><ele>72.0</ele><time>2026-03-29T11:08:35.999Z</time></trkpt><trkpt lat="43.52764208784742" lon="11.070305952062443"><ele>72.0</ele><time>2026-03-29T11:08:36.999Z</time></trkpt><trkpt lat="43.52769829460839" lon="11.070160145194286"><ele>72.0</ele><time>2026-03-29T11:08:37.999Z</time></trkpt><trkpt lat="43.52775670200091" lon="11.070012304511458"><ele>72.0</ele><time>2026-03-29T11:08:38.999Z</time></trkpt><trkpt lat="43.52781730648672" lon="11.069852625106934"><ele>72.0</ele><time>2026-03-29T11:08:39.999Z</time></trkpt><trkpt lat="43.52788320887974" lon="11.069677489662947"><ele>72.0</ele><time>2026-03-29T11:08:40.999Z</time></trkpt><trkpt lat="43.52794108698373" lon="11.069527254833348"><ele>72.0</ele><time>2026-03-29T11:08:41.999Z</time></trkpt><trkpt lat="43.52799388931991" lon="11.069372581962076"><ele>72.0</ele><time>2026-03-29T11:08:42.999Z</time></trkpt><trkpt lat="43.52804724406468" lon="11.06921561490868"><ele>72.0</ele><time>2026-03-29T11:08:43.999Z</time></trkpt><trkpt lat="43.52810330783435" lon="11.069068484073078"><ele>72.0</ele><time>2026-03-29T11:08:44.999Z</time></trkpt><trkpt lat="43.52814885752858" lon="11.068949848293338"><ele>72.0</ele><time>2026-03-29T11:08:45.999Z</time></trkpt><trkpt lat="43.528183961951285" lon="11.068851265721479"><ele>72.0</ele><time>2026-03-29T11:08:46.999Z</time></trkpt><trkpt lat="43.528280753335906" lon="11.068790998921001"><ele>72.0</ele><time>2026-03-29T11:08:48.999Z</time></trkpt><trkpt lat="43.528390073395244" lon="11.068806205590516"><ele>72.0</ele><time>2026-03-29T11:08:50.999Z</time></trkpt><trkpt lat="43.52848905424753" lon="11.06884943100992"><ele>72.0</ele><time>2026-03-29T11:08:52.999Z</time></trkpt><trkpt lat="43.5286037100907" lon="11.06888842045147"><ele>72.0</ele><time>2026-03-29T11:08:55.999Z</time></trkpt><trkpt lat="43.52872643095527" lon="11.068896700444089"><ele>72.0</ele><time>2026-03-29T11:08:57.999Z</time></trkpt><trkpt lat="43.52876486372772" lon="11.06879169341977"><ele>72.0</ele><time>2026-03-29T11:08:59.998Z</time></trkpt><trkpt lat="43.528780428920506" lon="11.06861897278226"><ele>71.8</ele><time>2026-03-29T11:09:01.998Z</time></trkpt><trkpt lat="43.52880205837842" lon="11.068450965701429"><ele>71.6</ele><time>2026-03-29T11:09:02.998Z</time></trkpt><trkpt lat="43.528818659074894" lon="11.068310690379034"><ele>71.39999999999999</ele><time>2026-03-29T11:09:03.998Z</time></trkpt><trkpt lat="43.52882389618226" lon="11.068213777041969"><ele>71.2</ele><time>2026-03-29T11:09:04.998Z</time></trkpt><trkpt lat="43.52884027670407" lon="11.068092620605144"><ele>71.0</ele><time>2026-03-29T11:09:05.998Z</time></trkpt><trkpt lat="43.52885731466355" lon="11.067947992453325"><ele>71.0</ele><time>2026-03-29T11:09:06.998Z</time></trkpt><trkpt lat="43.52887013118126" lon="11.067808227755174"><ele>71.0</ele><time>2026-03-29T11:09:07.998Z</time></trkpt><trkpt lat="43.52888640493913" lon="11.067659171145591"><ele>71.0</ele><time>2026-03-29T11:09:08.998Z</time></trkpt><trkpt lat="43.528899034571424" lon="11.067514655084086"><ele>71.0</ele><time>2026-03-29T11:09:09.998Z</time></trkpt><trkpt lat="43.52891239300867" lon="11.067346649420788"><ele>71.0</ele><time>2026-03-29T11:09:10.998Z</time></trkpt><trkpt lat="43.528930529023235" lon="11.067184049086482"><ele>71.0</ele><time>2026-03-29T11:09:11.998Z</time></trkpt><trkpt lat="43.52895920276067" lon="11.067020984029625"><ele>71.0</ele><time>2026-03-29T11:09:12.998Z</time></trkpt><trkpt lat="43.528981967201794" lon="11.066853129376867"><ele>71.0</ele><time>2026-03-29T11:09:13.998Z</time></trkpt><trkpt lat="43.52898892330382" lon="11.06666986578368"><ele>71.0</ele><time>2026-03-29T11:09:14.998Z</time></trkpt><trkpt lat="43.52904281257023" lon="11.066491945739077"><ele>71.0</ele><time>2026-03-29T11:09:15.998Z</time></trkpt><trkpt lat="43.5290595117701" lon="11.066330998004815"><ele>71.0</ele><time>2026-03-29T11:09:16.998Z</time></trkpt><trkpt lat="43.52907790599466" lon="11.06617850821247"><ele>71.0</ele><time>2026-03-29T11:09:17.998Z</time></trkpt><trkpt lat="43.5290960965623" lon="11.066027706799959"><ele>71.0</ele><time>2026-03-29T11:09:18.998Z</time></trkpt><trkpt lat="43.529115917049445" lon="11.065863609176528"><ele>71.25</ele><time>2026-03-29T11:09:19.998Z</time></trkpt><trkpt lat="43.529137536005905" lon="11.065685054082579"><ele>71.5</ele><time>2026-03-29T11:09:20.998Z</time></trkpt><trkpt lat="43.5291472347021" lon="11.065489420209255"><ele>71.75</ele><time>2026-03-29T11:09:21.998Z</time></trkpt><trkpt lat="43.5291771503342" lon="11.065278455731939"><ele>72.0</ele><time>2026-03-29T11:09:22.998Z</time></trkpt><trkpt lat="43.529212718188525" lon="11.0650547068687"><ele>72.0</ele><time>2026-03-29T11:09:23.998Z</time></trkpt><trkpt lat="43.52922893198931" lon="11.064848401342443"><ele>72.0</ele><time>2026-03-29T11:09:24.998Z</time></trkpt><trkpt lat="43.52925191452392" lon="11.06468416783179"><ele>72.0</ele><time>2026-03-29T11:09:25.998Z</time></trkpt><trkpt lat="43.52926573944596" lon="11.06450935707085"><ele>72.0</ele><time>2026-03-29T11:09:26.998Z</time></trkpt><trkpt lat="43.52928782106724" lon="11.064329831990285"><ele>72.0</ele><time>2026-03-29T11:09:27.998Z</time></trkpt><trkpt lat="43.529309055696714" lon="11.064140208403346"><ele>72.0</ele><time>2026-03-29T11:09:28.998Z</time></trkpt><trkpt lat="43.529330010598365" lon="11.06394321828916"><ele>72.0</ele><time>2026-03-29T11:09:29.998Z</time></trkpt><trkpt lat="43.52935680896978" lon="11.063743898277476"><ele>72.0</ele><time>2026-03-29T11:09:30.998Z</time></trkpt><trkpt lat="43.529385937693085" lon="11.063560339407072"><ele>72.33333333333333</ele><time>2026-03-29T11:09:31.998Z</time></trkpt><trkpt lat="43.529431638960034" lon="11.063342608450926"><ele>72.66666666666666</ele><time>2026-03-29T11:09:32.998Z</time></trkpt><trkpt lat="43.529477566149886" lon="11.063121320717974"><ele>73.0</ele><time>2026-03-29T11:09:33.998Z</time></trkpt><trkpt lat="43.529515105682805" lon="11.062917010168794"><ele>73.0</ele><time>2026-03-29T11:09:34.998Z</time></trkpt><trkpt lat="43.52954572118628" lon="11.062750402193853"><ele>73.0</ele><time>2026-03-29T11:09:35.998Z</time></trkpt><trkpt lat="43.52957086481925" lon="11.062602712921619"><ele>73.0</ele><time>2026-03-29T11:09:36.998Z</time></trkpt><trkpt lat="43.52958601954999" lon="11.06250044359521"><ele>73.0</ele><time>2026-03-29T11:09:37.998Z</time></trkpt><trkpt lat="43.52959203151503" lon="11.062395463984227"><ele>73.0</ele><time>2026-03-29T11:09:38.998Z</time></trkpt><trkpt lat="43.52962594240218" lon="11.062274479667463"><ele>73.0</ele><time>2026-03-29T11:09:39.998Z</time></trkpt><trkpt lat="43.52966965832912" lon="11.062165415295953"><ele>73.0</ele><time>2026-03-29T11:09:40.998Z</time></trkpt><trkpt lat="43.529715705206144" lon="11.062091836912936"><ele>73.0</ele><time>2026-03-29T11:09:41.998Z</time></trkpt><trkpt lat="43.52983958629719" lon="11.062155081958608"><ele>73.0</ele><time>2026-03-29T11:09:45.998Z</time></trkpt><trkpt lat="43.5299455020573" lon="11.062236589790418"><ele>73.0</ele><time>2026-03-29T11:09:47.998Z</time></trkpt><trkpt lat="43.53003760577708" lon="11.062281978571995"><ele>73.0</ele><time>2026-03-29T11:09:49.998Z</time></trkpt><trkpt lat="43.53010717804492" lon="11.062350372086797"><ele>73.0</ele><time>2026-03-29T11:09:51.998Z</time></trkpt><trkpt lat="43.5301986499717" lon="11.062541019946663"><ele>73.0</ele><time>2026-03-29T11:10:08.998Z</time></trkpt><trkpt lat="43.530230977128106" lon="11.062641092894173"><ele>73.0</ele><time>2026-03-29T11:10:09.998Z</time></trkpt><trkpt lat="43.53026027370869" lon="11.062753342358603"><ele>73.0</ele><time>2026-03-29T11:10:10.998Z</time></trkpt><trkpt lat="43.530298452605464" lon="11.062863925576368"><ele>73.8</ele><time>2026-03-29T11:10:11.998Z</time></trkpt><trkpt lat="43.530328406497496" lon="11.062968073947928"><ele>74.6</ele><time>2026-03-29T11:10:12.998Z</time></trkpt><trkpt lat="43.53036658442825" lon="11.063084787448803"><ele>75.4</ele><time>2026-03-29T11:10:14.998Z</time></trkpt><trkpt lat="43.53042584941484" lon="11.06324927700522"><ele>76.2</ele><time>2026-03-29T11:10:16.998Z</time></trkpt><trkpt lat="43.53048121471879" lon="11.06333725674827"><ele>77.0</ele><time>2026-03-29T11:10:17.998Z</time></trkpt><trkpt lat="43.53055575520984" lon="11.063408924268062"><ele>79.33333333333334</ele><time>2026-03-29T11:10:18.998Z</time></trkpt><trkpt lat="43.53064954040505" lon="11.063475309948439"><ele>81.66666666666667</ele><time>2026-03-29T11:10:19.998Z</time></trkpt><trkpt lat="43.5307321060037" lon="11.063540940270476"><ele>84.0</ele><time>2026-03-29T11:10:20.998Z</time></trkpt><trkpt lat="43.53081231173874" lon="11.063588302685561"><ele>86.33333333333333</ele><time>2026-03-29T11:10:21.997Z</time></trkpt><trkpt lat="43.530880953313485" lon="11.063577272569338"><ele>88.66666666666666</ele><time>2026-03-29T11:10:22.997Z</time></trkpt><trkpt lat="43.53094577963462" lon="11.063530188691441"><ele>91.0</ele><time>2026-03-29T11:10:23.997Z</time></trkpt><trkpt lat="43.531006046038975" lon="11.063463845459342"><ele>91.0</ele><time>2026-03-29T11:10:24.997Z</time></trkpt><trkpt lat="43.53106933383648" lon="11.063387286935372"><ele>91.0</ele><time>2026-03-29T11:10:25.997Z</time></trkpt><trkpt lat="43.53112652539394" lon="11.063338289304317"><ele>91.0</ele><time>2026-03-29T11:10:26.997Z</time></trkpt><trkpt lat="43.5311883725216" lon="11.063408165611722"><ele>91.0</ele><time>2026-03-29T11:10:28.997Z</time></trkpt><trkpt lat="43.53121016589007" lon="11.063554475878286"><ele>91.0</ele><time>2026-03-29T11:10:30.997Z</time></trkpt><trkpt lat="43.531229908741274" lon="11.063680423843682"><ele>91.0</ele><time>2026-03-29T11:10:31.997Z</time></trkpt><trkpt lat="43.53125321859554" lon="11.063820700728511"><ele>92.4</ele><time>2026-03-29T11:10:32.997Z</time></trkpt><trkpt lat="43.5312799198846" lon="11.06394445457699"><ele>93.8</ele><time>2026-03-29T11:10:33.997Z</time></trkpt><trkpt lat="43.53128787011446" lon="11.064067555491693"><ele>95.2</ele><time>2026-03-29T11:10:34.997Z</time></trkpt><trkpt lat="43.53129638701425" lon="11.064199872643284"><ele>96.60000000000001</ele><time>2026-03-29T11:10:35.997Z</time></trkpt><trkpt lat="43.531320926934065" lon="11.064326512132999"><ele>98.0</ele><time>2026-03-29T11:10:36.997Z</time></trkpt><trkpt lat="43.53135565967459" lon="11.0644662947439"><ele>99.80000000000001</ele><time>2026-03-29T11:10:37.997Z</time></trkpt><trkpt lat="43.53141033973596" lon="11.06456245065949"><ele>101.6</ele><time>2026-03-29T11:10:38.997Z</time></trkpt><trkpt lat="43.531482276075344" lon="11.064652189181427"><ele>103.39999999999999</ele><time>2026-03-29T11:10:39.997Z</time></trkpt><trkpt lat="43.531575951451245" lon="11.064747135649693"><ele>105.19999999999999</ele><time>2026-03-29T11:10:40.997Z</time></trkpt><trkpt lat="43.531671233305964" lon="11.064822733334712"><ele>107.0</ele><time>2026-03-29T11:10:41.997Z</time></trkpt><trkpt lat="43.531768003975465" lon="11.064931430093807"><ele>107.19999999999999</ele><time>2026-03-29T11:10:42.997Z</time></trkpt><trkpt lat="43.53186011190981" lon="11.065026499566208"><ele>107.39999999999999</ele><time>2026-03-29T11:10:43.997Z</time></trkpt><trkpt lat="43.531937162918474" lon="11.06511218224442"><ele>107.60000000000001</ele><time>2026-03-29T11:10:44.997Z</time></trkpt><trkpt lat="43.53202223675818" lon="11.065193450275528"><ele>107.80000000000001</ele><time>2026-03-29T11:10:45.997Z</time></trkpt><trkpt lat="43.532113247599504" lon="11.06528094648867"><ele>108.0</ele><time>2026-03-29T11:10:46.997Z</time></trkpt><trkpt lat="43.53220692924954" lon="11.065378440924508"><ele>109.75</ele><time>2026-03-29T11:10:47.997Z</time></trkpt><trkpt lat="43.532305712197626" lon="11.065488874464377"><ele>111.5</ele><time>2026-03-29T11:10:48.997Z</time></trkpt><trkpt lat="43.532414177659504" lon="11.065601279933306"><ele>113.25</ele><time>2026-03-29T11:10:49.997Z</time></trkpt><trkpt lat="43.532522706697684" lon="11.065720864373771"><ele>115.0</ele><time>2026-03-29T11:10:50.997Z</time></trkpt><trkpt lat="43.532634118378176" lon="11.065842505432268"><ele>116.5</ele><time>2026-03-29T11:10:51.997Z</time></trkpt><trkpt lat="43.53274652865842" lon="11.065961797716556"><ele>118.0</ele><time>2026-03-29T11:10:52.997Z</time></trkpt><trkpt lat="43.53286482257928" lon="11.066074916398136"><ele>119.5</ele><time>2026-03-29T11:10:53.997Z</time></trkpt><trkpt lat="43.532979346010826" lon="11.066186723677099"><ele>121.0</ele><time>2026-03-29T11:10:54.997Z</time></trkpt><trkpt lat="43.533086109976296" lon="11.066296395483128"><ele>123.75</ele><time>2026-03-29T11:10:55.997Z</time></trkpt><trkpt lat="43.533191138766306" lon="11.066407598124252"><ele>126.5</ele><time>2026-03-29T11:10:56.997Z</time></trkpt><trkpt lat="43.53328677195892" lon="11.06652449044244"><ele>129.25</ele><time>2026-03-29T11:10:57.997Z</time></trkpt><trkpt lat="43.5333836087678" lon="11.066659621546274"><ele>132.0</ele><time>2026-03-29T11:10:58.997Z</time></trkpt><trkpt lat="43.53345867007083" lon="11.066787821852392"><ele>133.25</ele><time>2026-03-29T11:10:59.997Z</time></trkpt><trkpt lat="43.53354902137582" lon="11.06693301341699"><ele>134.5</ele><time>2026-03-29T11:11:00.997Z</time></trkpt><trkpt lat="43.53364426334871" lon="11.067089029798273"><ele>135.75</ele><time>2026-03-29T11:11:01.997Z</time></trkpt><trkpt lat="43.53372485724173" lon="11.067254591973867"><ele>137.0</ele><time>2026-03-29T11:11:02.997Z</time></trkpt><trkpt lat="43.53381100444071" lon="11.067350530235936"><ele>139.79999999999998</ele><time>2026-03-29T11:11:03.997Z</time></trkpt><trkpt lat="43.53388650915242" lon="11.067446841388776"><ele>142.6</ele><time>2026-03-29T11:11:04.997Z</time></trkpt><trkpt lat="43.53396838524922" lon="11.067557310787807"><ele>145.39999999999998</ele><time>2026-03-29T11:11:05.997Z</time></trkpt><trkpt lat="43.53405595769707" lon="11.067678674831336"><ele>148.2</ele><time>2026-03-29T11:11:06.997Z</time></trkpt><trkpt lat="43.53411735575426" lon="11.06778257967188"><ele>151.0</ele><time>2026-03-29T11:11:07.997Z</time></trkpt><trkpt lat="43.53415575227029" lon="11.067875193465069"><ele>151.0</ele><time>2026-03-29T11:11:08.997Z</time></trkpt><trkpt lat="43.534172135635295" lon="11.067960208908632"><ele>151.0</ele><time>2026-03-29T11:11:09.997Z</time></trkpt><trkpt lat="43.53419130768275" lon="11.068086095016039"><ele>151.0</ele><time>2026-03-29T11:11:10.997Z</time></trkpt><trkpt lat="43.534220379670494" lon="11.068193198664355"><ele>151.0</ele><time>2026-03-29T11:11:11.997Z</time></trkpt><trkpt lat="43.5342636725712" lon="11.068328608574834"><ele>151.0</ele><time>2026-03-29T11:11:13.997Z</time></trkpt><trkpt lat="43.5343377967089" lon="11.06840275369893"><ele>151.0</ele><time>2026-03-29T11:11:16.997Z</time></trkpt><trkpt lat="43.53443784353854" lon="11.06855146521642"><ele>149.6</ele><time>2026-03-29T11:11:18.997Z</time></trkpt><trkpt lat="43.53448521164395" lon="11.06862797645064"><ele>148.2</ele><time>2026-03-29T11:11:20.997Z</time></trkpt><trkpt lat="43.53454179828371" lon="11.068779021321117"><ele>146.8</ele><time>2026-03-29T11:11:22.997Z</time></trkpt><trkpt lat="43.534576560074065" lon="11.068880217506019"><ele>145.4</ele><time>2026-03-29T11:11:23.997Z</time></trkpt><trkpt lat="43.53462969155558" lon="11.069017363386168"><ele>144.0</ele><time>2026-03-29T11:11:24.997Z</time></trkpt><trkpt lat="43.53466745524936" lon="11.06915651899116"><ele>144.0</ele><time>2026-03-29T11:11:25.997Z</time></trkpt><trkpt lat="43.534701078991354" lon="11.069291885526601"><ele>144.0</ele><time>2026-03-29T11:11:26.997Z</time></trkpt><trkpt lat="43.53472989294221" lon="11.06942918581737"><ele>144.0</ele><time>2026-03-29T11:11:27.997Z</time></trkpt><trkpt lat="43.534760248896156" lon="11.069551159510622"><ele>144.0</ele><time>2026-03-29T11:11:28.997Z</time></trkpt><trkpt lat="43.53478643455568" lon="11.069693160528951"><ele>144.0</ele><time>2026-03-29T11:11:29.997Z</time></trkpt><trkpt lat="43.53481978058288" lon="11.069850324680392"><ele>145.2</ele><time>2026-03-29T11:11:30.997Z</time></trkpt><trkpt lat="43.53485799837183" lon="11.069992372834994"><ele>146.4</ele><time>2026-03-29T11:11:31.997Z</time></trkpt><trkpt lat="43.5348915729412" lon="11.07011366312659"><ele>147.6</ele><time>2026-03-29T11:11:32.997Z</time></trkpt><trkpt lat="43.534917987026915" lon="11.070219674805939"><ele>148.8</ele><time>2026-03-29T11:11:33.997Z</time></trkpt><trkpt lat="43.53494778571317" lon="11.070325376323188"><ele>150.0</ele><time>2026-03-29T11:11:34.997Z</time></trkpt><trkpt lat="43.53498210972214" lon="11.070435760958201"><ele>150.0</ele><time>2026-03-29T11:11:35.997Z</time></trkpt><trkpt lat="43.535021421787285" lon="11.07054092910676"><ele>150.0</ele><time>2026-03-29T11:11:36.997Z</time></trkpt><trkpt lat="43.535059196590524" lon="11.07061580262869"><ele>150.0</ele><time>2026-03-29T11:11:37.997Z</time></trkpt><trkpt lat="43.53514513459546" lon="11.070670416513508"><ele>150.0</ele><time>2026-03-29T11:11:39.997Z</time></trkpt><trkpt lat="43.53521947426317" lon="11.070688528733275"><ele>150.0</ele><time>2026-03-29T11:11:40.997Z</time></trkpt><trkpt lat="43.53531349933074" lon="11.070736449627862"><ele>150.0</ele><time>2026-03-29T11:11:41.997Z</time></trkpt><trkpt lat="43.53542280181391" lon="11.070792670334122"><ele>148.6</ele><time>2026-03-29T11:11:42.997Z</time></trkpt><trkpt lat="43.53552274182462" lon="11.070849963386829"><ele>147.2</ele><time>2026-03-29T11:11:43.997Z</time></trkpt><trkpt lat="43.53562257448044" lon="11.07089404854213"><ele>145.8</ele><time>2026-03-29T11:11:44.996Z</time></trkpt><trkpt lat="43.535711095663494" lon="11.070933436097286"><ele>144.4</ele><time>2026-03-29T11:11:45.996Z</time></trkpt><trkpt lat="43.53580855660252" lon="11.070971836173046"><ele>143.0</ele><time>2026-03-29T11:11:46.996Z</time></trkpt><trkpt lat="43.5359053987124" lon="11.07101553231777"><ele>143.0</ele><time>2026-03-29T11:11:47.996Z</time></trkpt><trkpt lat="43.536013506636614" lon="11.07106794051922"><ele>143.0</ele><time>2026-03-29T11:11:48.996Z</time></trkpt><trkpt lat="43.53612874142048" lon="11.071122542647586"><ele>143.0</ele><time>2026-03-29T11:11:49.996Z</time></trkpt><trkpt lat="43.53625363904304" lon="11.071172566944236"><ele>143.0</ele><time>2026-03-29T11:11:50.996Z</time></trkpt><trkpt lat="43.536358948069164" lon="11.071214890418352"><ele>143.8</ele><time>2026-03-29T11:11:51.996Z</time></trkpt><trkpt lat="43.53644660704721" lon="11.07125291796785"><ele>144.60000000000002</ele><time>2026-03-29T11:11:52.996Z</time></trkpt><trkpt lat="43.53652295313436" lon="11.071299214502766"><ele>145.39999999999998</ele><time>2026-03-29T11:11:53.996Z</time></trkpt><trkpt lat="43.536615264191674" lon="11.071361670546029"><ele>146.2</ele><time>2026-03-29T11:11:54.996Z</time></trkpt><trkpt lat="43.53673409561576" lon="11.071458198096964"><ele>147.0</ele><time>2026-03-29T11:11:55.996Z</time></trkpt><trkpt lat="43.536866083544645" lon="11.071556384310538"><ele>146.6</ele><time>2026-03-29T11:11:56.996Z</time></trkpt><trkpt lat="43.536977592304815" lon="11.071636184407494"><ele>146.2</ele><time>2026-03-29T11:11:57.996Z</time></trkpt><trkpt lat="43.537073245465585" lon="11.07170065516158"><ele>145.8</ele><time>2026-03-29T11:11:58.996Z</time></trkpt><trkpt lat="43.5371460036884" lon="11.071739177102407"><ele>145.4</ele><time>2026-03-29T11:11:59.996Z</time></trkpt><trkpt lat="43.53721123844153" lon="11.071774474221913"><ele>145.0</ele><time>2026-03-29T11:12:00.996Z</time></trkpt><trkpt lat="43.53727115393123" lon="11.071835353472263"><ele>146.25</ele><time>2026-03-29T11:12:02.996Z</time></trkpt><trkpt lat="43.53724707125287" lon="11.072008624516283"><ele>147.5</ele><time>2026-03-29T11:12:03.996Z</time></trkpt><trkpt lat="43.537300461633095" lon="11.072147705935297"><ele>148.75</ele><time>2026-03-29T11:12:04.996Z</time></trkpt><trkpt lat="43.53734873590338" lon="11.07231101805022"><ele>150.0</ele><time>2026-03-29T11:12:05.996Z</time></trkpt><trkpt lat="43.53739227836016" lon="11.072469618907528"><ele>150.0</ele><time>2026-03-29T11:12:06.996Z</time></trkpt><trkpt lat="43.53742356395552" lon="11.072643573211833"><ele>150.0</ele><time>2026-03-29T11:12:07.996Z</time></trkpt><trkpt lat="43.537473930705715" lon="11.072829669696176"><ele>150.0</ele><time>2026-03-29T11:12:08.996Z</time></trkpt><trkpt lat="43.53752705043599" lon="11.073000442523877"><ele>150.0</ele><time>2026-03-29T11:12:09.996Z</time></trkpt><trkpt lat="43.5375737642703" lon="11.073140759222253"><ele>150.0</ele><time>2026-03-29T11:12:10.996Z</time></trkpt><trkpt lat="43.53763455186762" lon="11.07325495381143"><ele>150.0</ele><time>2026-03-29T11:12:11.996Z</time></trkpt><trkpt lat="43.53771825072729" lon="11.073381164075078"><ele>150.0</ele><time>2026-03-29T11:12:12.996Z</time></trkpt><trkpt lat="43.53782780353337" lon="11.073503655622948"><ele>150.0</ele><time>2026-03-29T11:12:13.996Z</time></trkpt><trkpt lat="43.53796751773548" lon="11.073632310644541"><ele>150.33333333333334</ele><time>2026-03-29T11:12:14.996Z</time></trkpt><trkpt lat="43.5381041093219" lon="11.073763255195852"><ele>150.66666666666669</ele><time>2026-03-29T11:12:15.996Z</time></trkpt><trkpt lat="43.53823217081164" lon="11.073875435771962"><ele>151.0</ele><time>2026-03-29T11:12:16.996Z</time></trkpt><trkpt lat="43.53834228863233" lon="11.073980583560168"><ele>151.0</ele><time>2026-03-29T11:12:17.996Z</time></trkpt><trkpt lat="43.538468062147516" lon="11.074099666387095"><ele>151.0</ele><time>2026-03-29T11:12:18.996Z</time></trkpt><trkpt lat="43.538579366730985" lon="11.07419794996744"><ele>151.0</ele><time>2026-03-29T11:12:19.996Z</time></trkpt><trkpt lat="43.53867609926695" lon="11.074304978330616"><ele>151.0</ele><time>2026-03-29T11:12:20.996Z</time></trkpt><trkpt lat="43.53878288212347" lon="11.074430364052176"><ele>151.4</ele><time>2026-03-29T11:12:21.996Z</time></trkpt><trkpt lat="43.538872646254575" lon="11.074543464404835"><ele>151.8</ele><time>2026-03-29T11:12:22.996Z</time></trkpt><trkpt lat="43.53894512779483" lon="11.074643631068247"><ele>152.20000000000002</ele><time>2026-03-29T11:12:23.996Z</time></trkpt><trkpt lat="43.53901356742037" lon="11.074732152594173"><ele>152.6</ele><time>2026-03-29T11:12:24.996Z</time></trkpt><trkpt lat="43.53909053007873" lon="11.07479476542559"><ele>153.0</ele><time>2026-03-29T11:12:25.996Z</time></trkpt><trkpt lat="43.53918882003432" lon="11.074859509377918"><ele>153.0</ele><time>2026-03-29T11:12:26.996Z</time></trkpt><trkpt lat="43.53930462052196" lon="11.0749191751167"><ele>153.0</ele><time>2026-03-29T11:12:27.996Z</time></trkpt><trkpt lat="43.53943993813145" lon="11.074977395655484"><ele>153.0</ele><time>2026-03-29T11:12:28.996Z</time></trkpt><trkpt lat="43.53956255162886" lon="11.075050779501499"><ele>153.0</ele><time>2026-03-29T11:12:29.996Z</time></trkpt><trkpt lat="43.53967186149413" lon="11.075118015673237"><ele>152.25</ele><time>2026-03-29T11:12:30.996Z</time></trkpt><trkpt lat="43.53978967586223" lon="11.075182680819806"><ele>151.5</ele><time>2026-03-29T11:12:31.996Z</time></trkpt><trkpt lat="43.539925159380374" lon="11.075257730290073"><ele>150.75</ele><time>2026-03-29T11:12:32.996Z</time></trkpt><trkpt lat="43.5400729413009" lon="11.075331840946276"><ele>150.0</ele><time>2026-03-29T11:12:33.996Z</time></trkpt><trkpt lat="43.54021540818524" lon="11.075399658987553"><ele>150.0</ele><time>2026-03-29T11:12:34.996Z</time></trkpt><trkpt lat="43.540334996621766" lon="11.075450845398755"><ele>150.0</ele><time>2026-03-29T11:12:35.996Z</time></trkpt><trkpt lat="43.540438381065336" lon="11.07551064080513"><ele>150.0</ele><time>2026-03-29T11:12:36.996Z</time></trkpt><trkpt lat="43.540525171679604" lon="11.075566674763127"><ele>150.0</ele><time>2026-03-29T11:12:37.996Z</time></trkpt><trkpt lat="43.54060971012873" lon="11.075617570699732"><ele>150.0</ele><time>2026-03-29T11:12:38.996Z</time></trkpt><trkpt lat="43.54068526016691" lon="11.075655118942825"><ele>149.83333333333334</ele><time>2026-03-29T11:12:39.996Z</time></trkpt><trkpt lat="43.54075910180755" lon="11.075702112385576"><ele>149.66666666666666</ele><time>2026-03-29T11:12:40.996Z</time></trkpt><trkpt lat="43.540812448058" lon="11.075766263562087"><ele>149.5</ele><time>2026-03-29T11:12:41.996Z</time></trkpt><trkpt lat="43.54083323245624" lon="11.075861873120383"><ele>149.33333333333331</ele><time>2026-03-29T11:12:42.996Z</time></trkpt><trkpt lat="43.54081057845451" lon="11.075995200718449"><ele>149.16666666666666</ele><time>2026-03-29T11:12:43.996Z</time></trkpt><trkpt lat="43.54083191028977" lon="11.076140270487233"><ele>149.0</ele><time>2026-03-29T11:12:44.996Z</time></trkpt><trkpt lat="43.54084129129758" lon="11.07634085109693"><ele>148.0</ele><time>2026-03-29T11:12:45.996Z</time></trkpt><trkpt lat="43.54085059890832" lon="11.076606458544788"><ele>147.0</ele><time>2026-03-29T11:12:46.996Z</time></trkpt><trkpt lat="43.54087148426749" lon="11.076877813451016"><ele>146.0</ele><time>2026-03-29T11:12:47.996Z</time></trkpt><trkpt lat="43.54089776310196" lon="11.077121751191124"><ele>146.0</ele><time>2026-03-29T11:12:48.996Z</time></trkpt><trkpt lat="43.540910043766914" lon="11.077326358093572"><ele>146.0</ele><time>2026-03-29T11:12:49.996Z</time></trkpt><trkpt lat="43.5409251910145" lon="11.07754620787663"><ele>146.0</ele><time>2026-03-29T11:12:50.996Z</time></trkpt><trkpt lat="43.54093726829031" lon="11.077774346475953"><ele>146.25</ele><time>2026-03-29T11:12:51.996Z</time></trkpt><trkpt lat="43.540950281700795" lon="11.078002347902933"><ele>146.5</ele><time>2026-03-29T11:12:52.996Z</time></trkpt><trkpt lat="43.54095660036844" lon="11.07818156506761"><ele>146.75</ele><time>2026-03-29T11:12:53.996Z</time></trkpt><trkpt lat="43.540962447756286" lon="11.078319860751238"><ele>147.0</ele><time>2026-03-29T11:12:54.996Z</time></trkpt><trkpt lat="43.54097009996462" lon="11.078435123266793"><ele>147.0</ele><time>2026-03-29T11:12:55.996Z</time></trkpt><trkpt lat="43.54097459443484" lon="11.078544469743163"><ele>147.0</ele><time>2026-03-29T11:12:56.996Z</time></trkpt><trkpt lat="43.54098543121889" lon="11.078691606609837"><ele>147.0</ele><time>2026-03-29T11:12:58.996Z</time></trkpt><trkpt lat="43.54099933430997" lon="11.07882802646655"><ele>147.0</ele><time>2026-03-29T11:13:00.996Z</time></trkpt><trkpt lat="43.54111470794052" lon="11.078924249008134"><ele>147.0</ele><time>2026-03-29T11:13:02.996Z</time></trkpt><trkpt lat="43.541207365629795" lon="11.078977481746113"><ele>146.25</ele><time>2026-03-29T11:13:03.996Z</time></trkpt><trkpt lat="43.5413293488574" lon="11.079023435026663"><ele>145.5</ele><time>2026-03-29T11:13:04.996Z</time></trkpt><trkpt lat="43.54144005932893" lon="11.079081324936002"><ele>144.75</ele><time>2026-03-29T11:13:05.996Z</time></trkpt><trkpt lat="43.54155618190737" lon="11.079156329524281"><ele>144.0</ele><time>2026-03-29T11:13:06.996Z</time></trkpt><trkpt lat="43.54168647191812" lon="11.079212518471307"><ele>144.0</ele><time>2026-03-29T11:13:07.995Z</time></trkpt><trkpt lat="43.54183019598903" lon="11.07928033903131"><ele>144.0</ele><time>2026-03-29T11:13:08.995Z</time></trkpt><trkpt lat="43.54194484902471" lon="11.079350482410666"><ele>144.0</ele><time>2026-03-29T11:13:09.995Z</time></trkpt><trkpt lat="43.542053992001584" lon="11.079411038282684"><ele>144.0</ele><time>2026-03-29T11:13:10.995Z</time></trkpt><trkpt lat="43.542162093052106" lon="11.079476379397237"><ele>144.0</ele><time>2026-03-29T11:13:11.995Z</time></trkpt><trkpt lat="43.54224833331841" lon="11.079536692956147"><ele>144.0</ele><time>2026-03-29T11:13:12.995Z</time></trkpt><trkpt lat="43.54231847770961" lon="11.079674781005437"><ele>144.0</ele><time>2026-03-29T11:13:14.995Z</time></trkpt><trkpt lat="43.54230863682703" lon="11.079781204902915"><ele>144.0</ele><time>2026-03-29T11:13:15.995Z</time></trkpt><trkpt lat="43.54232485048038" lon="11.079930732081412"><ele>144.0</ele><time>2026-03-29T11:13:16.995Z</time></trkpt><trkpt lat="43.54232817540557" lon="11.080114792641853"><ele>144.0</ele><time>2026-03-29T11:13:17.995Z</time></trkpt><trkpt lat="43.54234055903956" lon="11.08032390654713"><ele>144.0</ele><time>2026-03-29T11:13:18.995Z</time></trkpt><trkpt lat="43.54235196212615" lon="11.080542066386258"><ele>144.0</ele><time>2026-03-29T11:13:19.995Z</time></trkpt><trkpt lat="43.54235329555202" lon="11.08079514059866"><ele>144.5</ele><time>2026-03-29T11:13:20.995Z</time></trkpt><trkpt lat="43.54237049642615" lon="11.08100889411756"><ele>145.0</ele><time>2026-03-29T11:13:21.995Z</time></trkpt><trkpt lat="43.54238900571777" lon="11.081177924511238"><ele>145.5</ele><time>2026-03-29T11:13:22.995Z</time></trkpt><trkpt lat="43.54240333780443" lon="11.081378355850369"><ele>146.0</ele><time>2026-03-29T11:13:23.995Z</time></trkpt><trkpt lat="43.54241163094285" lon="11.081590296256227"><ele>146.8</ele><time>2026-03-29T11:13:24.995Z</time></trkpt><trkpt lat="43.5424188109481" lon="11.081769488234912"><ele>147.6</ele><time>2026-03-29T11:13:25.995Z</time></trkpt><trkpt lat="43.54242936317515" lon="11.08192113728357"><ele>148.4</ele><time>2026-03-29T11:13:26.995Z</time></trkpt><trkpt lat="43.54243560097789" lon="11.082049436875439"><ele>149.2</ele><time>2026-03-29T11:13:27.995Z</time></trkpt><trkpt lat="43.54244329748713" lon="11.082158846490284"><ele>150.0</ele><time>2026-03-29T11:13:28.995Z</time></trkpt><trkpt lat="43.542445366527346" lon="11.082271053327203"><ele>150.0</ele><time>2026-03-29T11:13:29.995Z</time></trkpt><trkpt lat="43.5424494662185" lon="11.082389010010694"><ele>150.0</ele><time>2026-03-29T11:13:30.995Z</time></trkpt><trkpt lat="43.542461683174395" lon="11.082485422316388"><ele>150.0</ele><time>2026-03-29T11:13:31.995Z</time></trkpt><trkpt lat="43.54245603464663" lon="11.082628887467783"><ele>150.0</ele><time>2026-03-29T11:13:33.995Z</time></trkpt><trkpt lat="43.54263039485297" lon="11.082641875468054"><ele>150.0</ele><time>2026-03-29T11:13:37.995Z</time></trkpt><trkpt lat="43.54272471435455" lon="11.082590082030732"><ele>150.33333333333334</ele><time>2026-03-29T11:13:38.995Z</time></trkpt><trkpt lat="43.54283936194105" lon="11.08254351214205"><ele>150.66666666666669</ele><time>2026-03-29T11:13:39.995Z</time></trkpt><trkpt lat="43.54299351861981" lon="11.082517350424302"><ele>151.0</ele><time>2026-03-29T11:13:40.995Z</time></trkpt><trkpt lat="43.54316790792776" lon="11.082457775615786"><ele>149.25</ele><time>2026-03-29T11:13:41.995Z</time></trkpt><trkpt lat="43.54331691277192" lon="11.082403333750685"><ele>147.5</ele><time>2026-03-29T11:13:42.995Z</time></trkpt><trkpt lat="43.54343361012167" lon="11.082308783156888"><ele>145.75</ele><time>2026-03-29T11:13:43.995Z</time></trkpt><trkpt lat="43.543533667957036" lon="11.082154962690456"><ele>144.0</ele><time>2026-03-29T11:13:44.995Z</time></trkpt><trkpt lat="43.5436229107619" lon="11.082004788606646"><ele>144.0</ele><time>2026-03-29T11:13:45.995Z</time></trkpt><trkpt lat="43.54372602479283" lon="11.08189787312824"><ele>144.0</ele><time>2026-03-29T11:13:46.995Z</time></trkpt><trkpt lat="43.54382388904644" lon="11.081843114422536"><ele>144.0</ele><time>2026-03-29T11:13:47.995Z</time></trkpt><trkpt lat="43.543939122988306" lon="11.081824592857815"><ele>144.0</ele><time>2026-03-29T11:13:48.995Z</time></trkpt><trkpt lat="43.544084829675505" lon="11.081804397219916"><ele>144.0</ele><time>2026-03-29T11:13:49.995Z</time></trkpt><trkpt lat="43.544235503940875" lon="11.08178469561146"><ele>144.0</ele><time>2026-03-29T11:13:50.995Z</time></trkpt><trkpt lat="43.544403610853145" lon="11.081748689262273"><ele>144.0</ele><time>2026-03-29T11:13:51.995Z</time></trkpt><trkpt lat="43.54455054307598" lon="11.081732168589264"><ele>145.0</ele><time>2026-03-29T11:13:52.995Z</time></trkpt><trkpt lat="43.544681460897635" lon="11.081738717756922"><ele>146.0</ele><time>2026-03-29T11:13:53.995Z</time></trkpt><trkpt lat="43.54479014390212" lon="11.081787374244671"><ele>147.0</ele><time>2026-03-29T11:13:54.995Z</time></trkpt><trkpt lat="43.544897434029004" lon="11.08182574313721"><ele>148.0</ele><time>2026-03-29T11:13:55.995Z</time></trkpt><trkpt lat="43.545006577276105" lon="11.081864718580206"><ele>148.0</ele><time>2026-03-29T11:13:56.995Z</time></trkpt><trkpt lat="43.54512804682574" lon="11.081916652514838"><ele>148.0</ele><time>2026-03-29T11:13:57.995Z</time></trkpt><trkpt lat="43.54524457686686" lon="11.081959443675386"><ele>148.0</ele><time>2026-03-29T11:13:58.995Z</time></trkpt><trkpt lat="43.54534639502868" lon="11.081998073034164"><ele>148.0</ele><time>2026-03-29T11:13:59.995Z</time></trkpt><trkpt lat="43.545447691224204" lon="11.082027254170342"><ele>147.25</ele><time>2026-03-29T11:14:00.995Z</time></trkpt><trkpt lat="43.54555325805302" lon="11.082080302964341"><ele>146.5</ele><time>2026-03-29T11:14:01.995Z</time></trkpt><trkpt lat="43.54565398551126" lon="11.08216226864757"><ele>145.75</ele><time>2026-03-29T11:14:02.995Z</time></trkpt><trkpt lat="43.54570194485418" lon="11.082315834000195"><ele>145.0</ele><time>2026-03-29T11:14:03.995Z</time></trkpt><trkpt lat="43.54577817513254" lon="11.082480029331586"><ele>145.0</ele><time>2026-03-29T11:14:04.995Z</time></trkpt><trkpt lat="43.54584531950317" lon="11.08265228862639"><ele>145.0</ele><time>2026-03-29T11:14:05.995Z</time></trkpt><trkpt lat="43.545906867368664" lon="11.082797760070456"><ele>145.0</ele><time>2026-03-29T11:14:06.995Z</time></trkpt><trkpt lat="43.545963986128285" lon="11.082910452899094"><ele>145.0</ele><time>2026-03-29T11:14:07.995Z</time></trkpt><trkpt lat="43.54601371685634" lon="11.08300421894754"><ele>145.0</ele><time>2026-03-29T11:14:08.995Z</time></trkpt><trkpt lat="43.54606027053968" lon="11.083094495644367"><ele>145.0</ele><time>2026-03-29T11:14:09.995Z</time></trkpt><trkpt lat="43.54609524483607" lon="11.083190358738499"><ele>145.0</ele><time>2026-03-29T11:14:10.995Z</time></trkpt><trkpt lat="43.54615269044436" lon="11.083259029265768"><ele>145.0</ele><time>2026-03-29T11:14:11.995Z</time></trkpt><trkpt lat="43.54622438334404" lon="11.083293378608573"><ele>145.0</ele><time>2026-03-29T11:14:12.995Z</time></trkpt><trkpt lat="43.546315312121294" lon="11.083250783752886"><ele>145.0</ele><time>2026-03-29T11:14:13.995Z</time></trkpt><trkpt lat="43.54640873428582" lon="11.083227327038797"><ele>145.0</ele><time>2026-03-29T11:14:14.995Z</time></trkpt><trkpt lat="43.54651483841543" lon="11.083196594502887"><ele>145.0</ele><time>2026-03-29T11:14:15.995Z</time></trkpt><trkpt lat="43.54661989022309" lon="11.083177835521282"><ele>145.0</ele><time>2026-03-29T11:14:16.995Z</time></trkpt><trkpt lat="43.54671637702695" lon="11.083145861721311"><ele>145.0</ele><time>2026-03-29T11:14:17.995Z</time></trkpt><trkpt lat="43.54679320524124" lon="11.08312716011182"><ele>145.0</ele><time>2026-03-29T11:14:18.995Z</time></trkpt><trkpt lat="43.54688706102889" lon="11.08307665049749"><ele>145.0</ele><time>2026-03-29T11:14:20.995Z</time></trkpt><trkpt lat="43.54698441031783" lon="11.083041148554864"><ele>145.33333333333334</ele><time>2026-03-29T11:15:10.994Z</time></trkpt><trkpt lat="43.54705292355514" lon="11.083023261391439"><ele>145.66666666666669</ele><time>2026-03-29T11:15:11.994Z</time></trkpt><trkpt lat="43.54712029437921" lon="11.083016998131159"><ele>146.0</ele><time>2026-03-29T11:15:12.994Z</time></trkpt><trkpt lat="43.54719404545616" lon="11.082989784098565"><ele>146.33333333333334</ele><time>2026-03-29T11:15:13.994Z</time></trkpt><trkpt lat="43.54727253533661" lon="11.082962607875666"><ele>146.66666666666666</ele><time>2026-03-29T11:15:15.994Z</time></trkpt><trkpt lat="43.54733706063508" lon="11.082770131109445"><ele>147.0</ele><time>2026-03-29T11:15:19.994Z</time></trkpt><trkpt lat="43.5473393176417" lon="11.08263597036882"><ele>147.0</ele><time>2026-03-29T11:15:20.994Z</time></trkpt><trkpt lat="43.54734689374097" lon="11.082487143793983"><ele>147.0</ele><time>2026-03-29T11:15:21.994Z</time></trkpt><trkpt lat="43.54736433629724" lon="11.082340705575826"><ele>147.0</ele><time>2026-03-29T11:15:22.994Z</time></trkpt><trkpt lat="43.54738382792967" lon="11.082212847549926"><ele>147.0</ele><time>2026-03-29T11:15:23.994Z</time></trkpt><trkpt lat="43.54740143689201" lon="11.082088965753474"><ele>147.0</ele><time>2026-03-29T11:15:24.994Z</time></trkpt><trkpt lat="43.547415737522606" lon="11.081952029043125"><ele>146.25</ele><time>2026-03-29T11:15:25.994Z</time></trkpt><trkpt lat="43.54742562426591" lon="11.081820901777682"><ele>145.5</ele><time>2026-03-29T11:15:26.994Z</time></trkpt><trkpt lat="43.54743572363223" lon="11.081675263687723"><ele>144.75</ele><time>2026-03-29T11:15:27.994Z</time></trkpt><trkpt lat="43.54743252271545" lon="11.081509357980993"><ele>144.0</ele><time>2026-03-29T11:15:28.994Z</time></trkpt><trkpt lat="43.54742692055898" lon="11.081322852900126"><ele>142.5</ele><time>2026-03-29T11:15:29.994Z</time></trkpt><trkpt lat="43.54741370595089" lon="11.081144558184551"><ele>141.0</ele><time>2026-03-29T11:15:30.994Z</time></trkpt><trkpt lat="43.547399924342066" lon="11.080981730449704"><ele>139.5</ele><time>2026-03-29T11:15:31.994Z</time></trkpt><trkpt lat="43.54738290179554" lon="11.080814864421624"><ele>138.0</ele><time>2026-03-29T11:15:32.994Z</time></trkpt><trkpt lat="43.54738837380307" lon="11.080630474643467"><ele>137.6</ele><time>2026-03-29T11:15:33.994Z</time></trkpt><trkpt lat="43.54735780404515" lon="11.08046556968911"><ele>137.20000000000002</ele><time>2026-03-29T11:15:34.994Z</time></trkpt><trkpt lat="43.5473380078858" lon="11.080317886205192"><ele>136.8</ele><time>2026-03-29T11:15:35.994Z</time></trkpt><trkpt lat="43.5473113172799" lon="11.08018286755592"><ele>136.4</ele><time>2026-03-29T11:15:36.994Z</time></trkpt><trkpt lat="43.54726721420897" lon="11.080054490312856"><ele>136.0</ele><time>2026-03-29T11:15:37.994Z</time></trkpt><trkpt lat="43.547215785036734" lon="11.079925155351638"><ele>137.2</ele><time>2026-03-29T11:15:38.994Z</time></trkpt><trkpt lat="43.5471691613613" lon="11.079791416085492"><ele>138.39999999999998</ele><time>2026-03-29T11:15:39.994Z</time></trkpt><trkpt lat="43.54713231018448" lon="11.079658288233194"><ele>139.6</ele><time>2026-03-29T11:15:40.994Z</time></trkpt><trkpt lat="43.547124080322654" lon="11.07951826488746"><ele>140.79999999999998</ele><time>2026-03-29T11:15:41.994Z</time></trkpt><trkpt lat="43.54715249375656" lon="11.079392583091385"><ele>142.0</ele><time>2026-03-29T11:15:42.994Z</time></trkpt><trkpt lat="43.54719619726626" lon="11.079254706380866"><ele>142.0</ele><time>2026-03-29T11:15:43.994Z</time></trkpt><trkpt lat="43.54724514990399" lon="11.079128120727372"><ele>142.0</ele><time>2026-03-29T11:15:44.994Z</time></trkpt><trkpt lat="43.54727255433663" lon="11.07900959486313"><ele>142.0</ele><time>2026-03-29T11:15:45.994Z</time></trkpt><trkpt lat="43.547326973374126" lon="11.078924087416949"><ele>142.0</ele><time>2026-03-29T11:15:46.994Z</time></trkpt><trkpt lat="43.5473565802718" lon="11.078846215346832"><ele>142.0</ele><time>2026-03-29T11:15:47.994Z</time></trkpt><trkpt lat="43.547396724227006" lon="11.078736961846598"><ele>142.0</ele><time>2026-03-29T11:15:49.994Z</time></trkpt><trkpt lat="43.54743225067726" lon="11.078646990136802"><ele>142.2</ele><time>2026-03-29T11:15:52.994Z</time></trkpt><trkpt lat="43.547419468037624" lon="11.078551700733325"><ele>142.39999999999998</ele><time>2026-03-29T11:16:18.993Z</time></trkpt><trkpt lat="43.54745537049355" lon="11.078362340051783"><ele>142.60000000000002</ele><time>2026-03-29T11:16:20.993Z</time></trkpt><trkpt lat="43.547477346466906" lon="11.078219861688169"><ele>142.8</ele><time>2026-03-29T11:16:21.993Z</time></trkpt><trkpt lat="43.54752746264649" lon="11.07808882378219"><ele>143.0</ele><time>2026-03-29T11:16:22.993Z</time></trkpt><trkpt lat="43.54754246981284" lon="11.07793983601319"><ele>142.25</ele><time>2026-03-29T11:16:23.993Z</time></trkpt><trkpt lat="43.54758404634801" lon="11.077803442050682"><ele>141.5</ele><time>2026-03-29T11:16:24.993Z</time></trkpt><trkpt lat="43.54759192590212" lon="11.077629771306704"><ele>140.75</ele><time>2026-03-29T11:16:25.993Z</time></trkpt><trkpt lat="43.5476205879585" lon="11.077467605472677"><ele>140.0</ele><time>2026-03-29T11:16:26.993Z</time></trkpt><trkpt lat="43.54765257585683" lon="11.077312426089124"><ele>140.0</ele><time>2026-03-29T11:16:27.993Z</time></trkpt><trkpt lat="43.54766840251396" lon="11.07714627880477"><ele>140.0</ele><time>2026-03-29T11:16:28.993Z</time></trkpt><trkpt lat="43.54766154041145" lon="11.0769807861273"><ele>140.0</ele><time>2026-03-29T11:16:29.993Z</time></trkpt><trkpt lat="43.547635605524675" lon="11.0768048457688"><ele>140.0</ele><time>2026-03-29T11:16:30.993Z</time></trkpt><trkpt lat="43.547589485567805" lon="11.076605445666726"><ele>139.75</ele><time>2026-03-29T11:16:31.993Z</time></trkpt><trkpt lat="43.54756055221662" lon="11.076415821276507"><ele>139.5</ele><time>2026-03-29T11:16:32.993Z</time></trkpt><trkpt lat="43.54757973160834" lon="11.076219302375494"><ele>139.25</ele><time>2026-03-29T11:16:33.993Z</time></trkpt><trkpt lat="43.54755810630055" lon="11.07603772174962"><ele>139.0</ele><time>2026-03-29T11:16:34.993Z</time></trkpt><trkpt lat="43.54753529387895" lon="11.075845035507502"><ele>139.25</ele><time>2026-03-29T11:16:35.993Z</time></trkpt><trkpt lat="43.547477170637194" lon="11.07566929645917"><ele>139.5</ele><time>2026-03-29T11:16:36.993Z</time></trkpt><trkpt lat="43.54746116420174" lon="11.075486816133077"><ele>139.75</ele><time>2026-03-29T11:16:37.993Z</time></trkpt><trkpt lat="43.54744162045024" lon="11.075302190996583"><ele>140.0</ele><time>2026-03-29T11:16:38.993Z</time></trkpt><trkpt lat="43.54741039942747" lon="11.075122037732056"><ele>140.0</ele><time>2026-03-29T11:16:39.993Z</time></trkpt><trkpt lat="43.54735174187704" lon="11.07495642093106"><ele>140.0</ele><time>2026-03-29T11:16:40.993Z</time></trkpt><trkpt lat="43.547263105449694" lon="11.074812268619942"><ele>140.0</ele><time>2026-03-29T11:16:41.993Z</time></trkpt><trkpt lat="43.54715782173203" lon="11.074704383597348"><ele>140.0</ele><time>2026-03-29T11:16:42.993Z</time></trkpt><trkpt lat="43.54703489962432" lon="11.074603979500134"><ele>140.75</ele><time>2026-03-29T11:16:43.993Z</time></trkpt><trkpt lat="43.54690453037025" lon="11.074522891326689"><ele>141.5</ele><time>2026-03-29T11:16:44.993Z</time></trkpt><trkpt lat="43.54677668985731" lon="11.07444118724837"><ele>142.25</ele><time>2026-03-29T11:16:45.993Z</time></trkpt><trkpt lat="43.546657052150266" lon="11.074376843380401"><ele>143.0</ele><time>2026-03-29T11:16:46.993Z</time></trkpt><trkpt lat="43.54656240228095" lon="11.074291371747602"><ele>143.0</ele><time>2026-03-29T11:16:47.993Z</time></trkpt><trkpt lat="43.54649000653352" lon="11.074180400206135"><ele>143.0</ele><time>2026-03-29T11:16:48.993Z</time></trkpt><trkpt lat="43.54646212614101" lon="11.074043973183331"><ele>143.0</ele><time>2026-03-29T11:16:49.993Z</time></trkpt><trkpt lat="43.54647727873826" lon="11.07388513226155"><ele>143.0</ele><time>2026-03-29T11:16:50.993Z</time></trkpt><trkpt lat="43.54647030736741" lon="11.073684300516481"><ele>141.0</ele><time>2026-03-29T11:16:51.993Z</time></trkpt><trkpt lat="43.546465553264724" lon="11.073482429401354"><ele>139.0</ele><time>2026-03-29T11:16:52.993Z</time></trkpt><trkpt lat="43.54646123049043" lon="11.073274446119886"><ele>137.0</ele><time>2026-03-29T11:16:53.993Z</time></trkpt><trkpt lat="43.54645861166958" lon="11.073062430527168"><ele>136.75</ele><time>2026-03-29T11:16:54.993Z</time></trkpt><trkpt lat="43.54644656274392" lon="11.072856462732851"><ele>136.5</ele><time>2026-03-29T11:16:55.993Z</time></trkpt><trkpt lat="43.546436573771445" lon="11.072659493565292"><ele>136.25</ele><time>2026-03-29T11:16:56.993Z</time></trkpt><trkpt lat="43.546429066113646" lon="11.072464171680409"><ele>136.0</ele><time>2026-03-29T11:16:57.993Z</time></trkpt><trkpt lat="43.54642691226244" lon="11.07227297835937"><ele>137.0</ele><time>2026-03-29T11:16:58.993Z</time></trkpt><trkpt lat="43.54643441522788" lon="11.072078481195442"><ele>138.0</ele><time>2026-03-29T11:16:59.993Z</time></trkpt><trkpt lat="43.54647998597677" lon="11.071890531348776"><ele>139.0</ele><time>2026-03-29T11:17:00.993Z</time></trkpt><trkpt lat="43.546526474871534" lon="11.071708898701951"><ele>140.0</ele><time>2026-03-29T11:17:01.993Z</time></trkpt><trkpt lat="43.54658764272547" lon="11.071546775411841"><ele>140.25</ele><time>2026-03-29T11:17:02.993Z</time></trkpt><trkpt lat="43.54667159501039" lon="11.071388397425125"><ele>140.5</ele><time>2026-03-29T11:17:03.993Z</time></trkpt><trkpt lat="43.54678032970734" lon="11.071280519697579"><ele>140.75</ele><time>2026-03-29T11:17:04.993Z</time></trkpt><trkpt lat="43.5468921050956" lon="11.071175265447476"><ele>141.0</ele><time>2026-03-29T11:17:05.993Z</time></trkpt><trkpt lat="43.54702083810887" lon="11.07106620520629"><ele>140.25</ele><time>2026-03-29T11:17:06.993Z</time></trkpt><trkpt lat="43.54714438758849" lon="11.070956894266889"><ele>139.5</ele><time>2026-03-29T11:17:07.993Z</time></trkpt><trkpt lat="43.54726463472068" lon="11.070853481692412"><ele>138.75</ele><time>2026-03-29T11:17:08.993Z</time></trkpt><trkpt lat="43.5473629477107" lon="11.070729845814236"><ele>138.0</ele><time>2026-03-29T11:17:09.993Z</time></trkpt><trkpt lat="43.54743810688627" lon="11.070590255748233"><ele>137.5</ele><time>2026-03-29T11:17:10.993Z</time></trkpt><trkpt lat="43.54749837600343" lon="11.07043172944513"><ele>137.0</ele><time>2026-03-29T11:17:11.993Z</time></trkpt><trkpt lat="43.54755491552922" lon="11.070249947609906"><ele>136.5</ele><time>2026-03-29T11:17:12.993Z</time></trkpt><trkpt lat="43.547607501576316" lon="11.070043419846984"><ele>136.0</ele><time>2026-03-29T11:17:13.993Z</time></trkpt><trkpt lat="43.54765165411546" lon="11.069842056536048"><ele>135.25</ele><time>2026-03-29T11:17:14.993Z</time></trkpt><trkpt lat="43.547681434341214" lon="11.069650938939"><ele>134.5</ele><time>2026-03-29T11:17:15.993Z</time></trkpt><trkpt lat="43.54769646233086" lon="11.069464942903037"><ele>133.75</ele><time>2026-03-29T11:17:16.992Z</time></trkpt><trkpt lat="43.54763617349682" lon="11.069286557507263"><ele>133.0</ele><time>2026-03-29T11:17:17.992Z</time></trkpt><trkpt lat="43.5475576373049" lon="11.069113865673977"><ele>133.66666666666669</ele><time>2026-03-29T11:17:18.992Z</time></trkpt><trkpt lat="43.54745622242696" lon="11.06894216897097"><ele>134.33333333333334</ele><time>2026-03-29T11:17:19.992Z</time></trkpt><trkpt lat="43.54735494702834" lon="11.06876986001078"><ele>135.0</ele><time>2026-03-29T11:17:20.992Z</time></trkpt><trkpt lat="43.54726118458407" lon="11.068582223673912"><ele>135.0</ele><time>2026-03-29T11:17:21.992Z</time></trkpt><trkpt lat="43.547200875429084" lon="11.068395719704377"><ele>135.0</ele><time>2026-03-29T11:17:22.992Z</time></trkpt><trkpt lat="43.54714381076435" lon="11.06822550481062"><ele>135.0</ele><time>2026-03-29T11:17:23.992Z</time></trkpt><trkpt lat="43.54708977177902" lon="11.068048153651297"><ele>135.0</ele><time>2026-03-29T11:17:24.992Z</time></trkpt><trkpt lat="43.5470319452999" lon="11.067853804093279"><ele>134.66666666666666</ele><time>2026-03-29T11:17:25.992Z</time></trkpt><trkpt lat="43.54696940430104" lon="11.067640832244905"><ele>134.33333333333331</ele><time>2026-03-29T11:17:26.992Z</time></trkpt><trkpt lat="43.54690313001055" lon="11.067418020059753"><ele>134.0</ele><time>2026-03-29T11:17:27.992Z</time></trkpt><trkpt lat="43.546847339747615" lon="11.067196667673539"><ele>136.33333333333331</ele><time>2026-03-29T11:17:28.992Z</time></trkpt><trkpt lat="43.54681841236744" lon="11.066975233486167"><ele>138.66666666666666</ele><time>2026-03-29T11:17:29.992Z</time></trkpt><trkpt lat="43.54684896963147" lon="11.066758350805431"><ele>141.0</ele><time>2026-03-29T11:17:30.992Z</time></trkpt><trkpt lat="43.54687279117498" lon="11.06656024030136"><ele>141.0</ele><time>2026-03-29T11:17:31.992Z</time></trkpt><trkpt lat="43.54689787370975" lon="11.066373748631959"><ele>141.0</ele><time>2026-03-29T11:17:32.992Z</time></trkpt><trkpt lat="43.54691952020946" lon="11.066207786748228"><ele>141.0</ele><time>2026-03-29T11:17:33.992Z</time></trkpt><trkpt lat="43.546941244461856" lon="11.06604401272326"><ele>141.0</ele><time>2026-03-29T11:17:34.992Z</time></trkpt><trkpt lat="43.54696010678319" lon="11.065858096504558"><ele>140.0</ele><time>2026-03-29T11:17:35.992Z</time></trkpt><trkpt lat="43.54696824727728" lon="11.065649787113621"><ele>139.0</ele><time>2026-03-29T11:17:36.992Z</time></trkpt><trkpt lat="43.546958552097365" lon="11.065414220499633"><ele>138.0</ele><time>2026-03-29T11:17:37.992Z</time></trkpt><trkpt lat="43.54693554081511" lon="11.065164391818058"><ele>137.0</ele><time>2026-03-29T11:17:38.992Z</time></trkpt><trkpt lat="43.546891819779475" lon="11.064907701278443"><ele>136.0</ele><time>2026-03-29T11:17:39.992Z</time></trkpt><trkpt lat="43.54683381302798" lon="11.064644496710079"><ele>135.0</ele><time>2026-03-29T11:17:40.992Z</time></trkpt><trkpt lat="43.54676135603702" lon="11.06437532364986"><ele>135.0</ele><time>2026-03-29T11:17:41.992Z</time></trkpt><trkpt lat="43.546697321740226" lon="11.064123376898518"><ele>135.0</ele><time>2026-03-29T11:17:42.992Z</time></trkpt><trkpt lat="43.54664712333377" lon="11.063889683735262"><ele>135.0</ele><time>2026-03-29T11:17:43.992Z</time></trkpt><trkpt lat="43.546602876093516" lon="11.063668409644832"><ele>134.75</ele><time>2026-03-29T11:17:44.992Z</time></trkpt><trkpt lat="43.54654411103706" lon="11.06347670367427"><ele>134.5</ele><time>2026-03-29T11:17:45.992Z</time></trkpt><trkpt lat="43.54647663471201" lon="11.063307243362884"><ele>134.25</ele><time>2026-03-29T11:17:46.992Z</time></trkpt><trkpt lat="43.54640892933523" lon="11.063158528009925"><ele>134.0</ele><time>2026-03-29T11:17:47.992Z</time></trkpt><trkpt lat="43.546344324099564" lon="11.063016862402709"><ele>134.2</ele><time>2026-03-29T11:17:48.992Z</time></trkpt><trkpt lat="43.54628514097838" lon="11.062881996801881"><ele>134.4</ele><time>2026-03-29T11:17:49.992Z</time></trkpt><trkpt lat="43.54622779106773" lon="11.062758079660561"><ele>134.6</ele><time>2026-03-29T11:17:50.992Z</time></trkpt><trkpt lat="43.54617960278018" lon="11.062634747215798"><ele>134.8</ele><time>2026-03-29T11:17:51.992Z</time></trkpt><trkpt lat="43.546127716456084" lon="11.062517461339382"><ele>135.0</ele><time>2026-03-29T11:17:52.992Z</time></trkpt><trkpt lat="43.546072744853646" lon="11.062401973471777"><ele>134.0</ele><time>2026-03-29T11:17:53.992Z</time></trkpt><trkpt lat="43.54600506969387" lon="11.062274802243827"><ele>133.0</ele><time>2026-03-29T11:17:54.992Z</time></trkpt><trkpt lat="43.54590820747647" lon="11.062147047924055"><ele>132.0</ele><time>2026-03-29T11:17:55.992Z</time></trkpt><trkpt lat="43.54579017797968" lon="11.06202496176783"><ele>131.0</ele><time>2026-03-29T11:17:56.992Z</time></trkpt><trkpt lat="43.545661859492306" lon="11.06190350323656"><ele>131.0</ele><time>2026-03-29T11:17:57.992Z</time></trkpt><trkpt lat="43.5455234360708" lon="11.061758520828901"><ele>131.0</ele><time>2026-03-29T11:17:58.992Z</time></trkpt><trkpt lat="43.54538970680457" lon="11.061602332307354"><ele>131.0</ele><time>2026-03-29T11:17:59.992Z</time></trkpt><trkpt lat="43.54524773675607" lon="11.061445179615765"><ele>132.66666666666666</ele><time>2026-03-29T11:18:00.992Z</time></trkpt><trkpt lat="43.545150749257644" lon="11.061261441901527"><ele>134.33333333333334</ele><time>2026-03-29T11:18:01.992Z</time></trkpt><trkpt lat="43.54503817047362" lon="11.061100075561852"><ele>136.0</ele><time>2026-03-29T11:18:02.992Z</time></trkpt><trkpt lat="43.544955152105395" lon="11.06093037765823"><ele>134.25</ele><time>2026-03-29T11:18:03.992Z</time></trkpt><trkpt lat="43.54487985106144" lon="11.060779803613334"><ele>132.5</ele><time>2026-03-29T11:18:04.992Z</time></trkpt><trkpt lat="43.544803130017115" lon="11.060645606147125"><ele>130.75</ele><time>2026-03-29T11:18:05.992Z</time></trkpt><trkpt lat="43.54473321880945" lon="11.060524074687631"><ele>129.0</ele><time>2026-03-29T11:18:06.992Z</time></trkpt><trkpt lat="43.54468971222163" lon="11.060391708229526"><ele>129.0</ele><time>2026-03-29T11:18:07.992Z</time></trkpt><trkpt lat="43.54468341990792" lon="11.060262989852523"><ele>129.0</ele><time>2026-03-29T11:18:08.992Z</time></trkpt><trkpt lat="43.54470903932365" lon="11.06013701253523"><ele>129.0</ele><time>2026-03-29T11:18:09.992Z</time></trkpt><trkpt lat="43.54478449158967" lon="11.060027857606034"><ele>129.0</ele><time>2026-03-29T11:18:10.992Z</time></trkpt><trkpt lat="43.5448564343811" lon="11.059882543203305"><ele>129.0</ele><time>2026-03-29T11:18:11.992Z</time></trkpt><trkpt lat="43.54492639559726" lon="11.059707088481554"><ele>127.33333333333334</ele><time>2026-03-29T11:18:12.992Z</time></trkpt><trkpt lat="43.54502391601555" lon="11.059536595008977"><ele>125.66666666666667</ele><time>2026-03-29T11:18:13.992Z</time></trkpt><trkpt lat="43.54510463201213" lon="11.059341449854971"><ele>124.0</ele><time>2026-03-29T11:18:14.992Z</time></trkpt><trkpt lat="43.54520505796596" lon="11.059138155702271"><ele>123.66666666666667</ele><time>2026-03-29T11:18:15.992Z</time></trkpt><trkpt lat="43.54529690120709" lon="11.05894407175278"><ele>123.33333333333334</ele><time>2026-03-29T11:18:16.992Z</time></trkpt><trkpt lat="43.545378943169325" lon="11.058774219995797"><ele>123.0</ele><time>2026-03-29T11:18:17.992Z</time></trkpt><trkpt lat="43.54545897626171" lon="11.058621429073082"><ele>122.75</ele><time>2026-03-29T11:18:18.992Z</time></trkpt><trkpt lat="43.54554373822278" lon="11.058465537422292"><ele>122.5</ele><time>2026-03-29T11:18:19.992Z</time></trkpt><trkpt lat="43.54563066630808" lon="11.058309057264857"><ele>122.25</ele><time>2026-03-29T11:18:20.992Z</time></trkpt><trkpt lat="43.545738801416256" lon="11.058184433271457"><ele>122.0</ele><time>2026-03-29T11:18:21.992Z</time></trkpt><trkpt lat="43.54584588582887" lon="11.05806820619426"><ele>121.25</ele><time>2026-03-29T11:18:22.992Z</time></trkpt><trkpt lat="43.54595490977518" lon="11.057983559275758"><ele>120.5</ele><time>2026-03-29T11:18:23.992Z</time></trkpt><trkpt lat="43.54606874014189" lon="11.057918527547628"><ele>119.75</ele><time>2026-03-29T11:18:24.992Z</time></trkpt><trkpt lat="43.54619600368824" lon="11.057906602563754"><ele>119.0</ele><time>2026-03-29T11:18:25.992Z</time></trkpt><trkpt lat="43.546331117751585" lon="11.057908098596261"><ele>119.0</ele><time>2026-03-29T11:18:26.992Z</time></trkpt><trkpt lat="43.54646020828034" lon="11.057901031969534"><ele>119.0</ele><time>2026-03-29T11:18:27.992Z</time></trkpt><trkpt lat="43.54657794925471" lon="11.057852730714913"><ele>119.0</ele><time>2026-03-29T11:18:28.992Z</time></trkpt><trkpt lat="43.546680404447535" lon="11.05774662683554"><ele>119.0</ele><time>2026-03-29T11:18:29.992Z</time></trkpt><trkpt lat="43.54673726376038" lon="11.057592334937036"><ele>118.25</ele><time>2026-03-29T11:18:30.992Z</time></trkpt><trkpt lat="43.54673559614878" lon="11.057421745883053"><ele>117.5</ele><time>2026-03-29T11:18:31.992Z</time></trkpt><trkpt lat="43.546694819349156" lon="11.057227286933548"><ele>116.75</ele><time>2026-03-29T11:18:32.992Z</time></trkpt><trkpt lat="43.54662057565896" lon="11.057037204148608"><ele>116.0</ele><time>2026-03-29T11:18:33.992Z</time></trkpt><trkpt lat="43.54656807030055" lon="11.056814148184928"><ele>113.25</ele><time>2026-03-29T11:18:34.992Z</time></trkpt><trkpt lat="43.54651146984742" lon="11.056616606848964"><ele>110.5</ele><time>2026-03-29T11:18:35.992Z</time></trkpt><trkpt lat="43.54646880897949" lon="11.056463308159044"><ele>107.75</ele><time>2026-03-29T11:18:36.992Z</time></trkpt><trkpt lat="43.54644510487133" lon="11.056360994929278"><ele>105.0</ele><time>2026-03-29T11:18:37.992Z</time></trkpt><trkpt lat="43.54646243424412" lon="11.056179305815546"><ele>105.0</ele><time>2026-03-29T11:18:39.992Z</time></trkpt><trkpt lat="43.546534201773056" lon="11.05614373746653"><ele>105.0</ele><time>2026-03-29T11:18:40.991Z</time></trkpt><trkpt lat="43.54661655618991" lon="11.056158370670106"><ele>105.0</ele><time>2026-03-29T11:18:41.991Z</time></trkpt><trkpt lat="43.54669810817095" lon="11.056232103045735"><ele>105.0</ele><time>2026-03-29T11:18:42.991Z</time></trkpt><trkpt lat="43.54679627529323" lon="11.056328704585596"><ele>105.0</ele><time>2026-03-29T11:18:43.991Z</time></trkpt><trkpt lat="43.54688067330577" lon="11.05646947119824"><ele>102.66666666666666</ele><time>2026-03-29T11:18:44.991Z</time></trkpt><trkpt lat="43.54696992789626" lon="11.056645108214317"><ele>100.33333333333333</ele><time>2026-03-29T11:18:45.991Z</time></trkpt><trkpt lat="43.54706363711749" lon="11.056821657726413"><ele>98.0</ele><time>2026-03-29T11:18:46.991Z</time></trkpt><trkpt lat="43.5471561868239" lon="11.056987145088598"><ele>98.0</ele><time>2026-03-29T11:18:47.991Z</time></trkpt><trkpt lat="43.54724724242251" lon="11.05712536067076"><ele>98.0</ele><time>2026-03-29T11:18:48.991Z</time></trkpt><trkpt lat="43.547323841146564" lon="11.057251485938297"><ele>98.0</ele><time>2026-03-29T11:18:49.991Z</time></trkpt><trkpt lat="43.54738413760094" lon="11.057358970348702"><ele>98.0</ele><time>2026-03-29T11:18:50.991Z</time></trkpt><trkpt lat="43.54746122615476" lon="11.057395917085868"><ele>98.0</ele><time>2026-03-29T11:18:51.991Z</time></trkpt><trkpt lat="43.54754932842765" lon="11.057370705405102"><ele>98.0</ele><time>2026-03-29T11:18:52.991Z</time></trkpt><trkpt lat="43.547615878444326" lon="11.057253024892939"><ele>98.0</ele><time>2026-03-29T11:18:53.991Z</time></trkpt><trkpt lat="43.54765650784386" lon="11.057123981678195"><ele>98.0</ele><time>2026-03-29T11:18:54.991Z</time></trkpt><trkpt lat="43.547646392762964" lon="11.05694400532794"><ele>98.0</ele><time>2026-03-29T11:18:55.991Z</time></trkpt><trkpt lat="43.54763061283424" lon="11.056746959423936"><ele>95.33333333333333</ele><time>2026-03-29T11:18:56.991Z</time></trkpt><trkpt lat="43.547598113686576" lon="11.056530175850765"><ele>92.66666666666666</ele><time>2026-03-29T11:18:57.991Z</time></trkpt><trkpt lat="43.5475985972878" lon="11.056306292338661"><ele>90.0</ele><time>2026-03-29T11:18:58.991Z</time></trkpt><trkpt lat="43.547574954783265" lon="11.056101393377201"><ele>90.0</ele><time>2026-03-29T11:18:59.991Z</time></trkpt><trkpt lat="43.547549868940564" lon="11.05590770646549"><ele>90.0</ele><time>2026-03-29T11:19:00.991Z</time></trkpt><trkpt lat="43.54752439047458" lon="11.055727454581708"><ele>90.0</ele><time>2026-03-29T11:19:01.991Z</time></trkpt><trkpt lat="43.54748194842362" lon="11.055549006176651"><ele>90.0</ele><time>2026-03-29T11:19:02.991Z</time></trkpt><trkpt lat="43.54742190843993" lon="11.055372949928252"><ele>88.25</ele><time>2026-03-29T11:19:03.991Z</time></trkpt><trkpt lat="43.547355417761885" lon="11.055213268779523"><ele>86.5</ele><time>2026-03-29T11:19:04.991Z</time></trkpt><trkpt lat="43.5472858834805" lon="11.055060296115393"><ele>84.75</ele><time>2026-03-29T11:19:05.991Z</time></trkpt><trkpt lat="43.547209356237275" lon="11.054914138289062"><ele>83.0</ele><time>2026-03-29T11:19:06.991Z</time></trkpt><trkpt lat="43.54715024632527" lon="11.054749724631769"><ele>83.2</ele><time>2026-03-29T11:19:07.991Z</time></trkpt><trkpt lat="43.54708340762083" lon="11.054615223614471"><ele>83.4</ele><time>2026-03-29T11:19:08.991Z</time></trkpt><trkpt lat="43.54701474140859" lon="11.054473875761698"><ele>83.60000000000001</ele><time>2026-03-29T11:19:09.991Z</time></trkpt><trkpt lat="43.54697472791659" lon="11.054354901421814"><ele>83.80000000000001</ele><time>2026-03-29T11:19:10.991Z</time></trkpt><trkpt lat="43.54693935209945" lon="11.05427841506861"><ele>84.0</ele><time>2026-03-29T11:19:11.991Z</time></trkpt><trkpt lat="43.547052015665976" lon="11.054284267840538"><ele>83.0</ele><time>2026-03-29T11:19:15.991Z</time></trkpt><trkpt lat="43.54711619205965" lon="11.054341997669862"><ele>82.0</ele><time>2026-03-29T11:19:16.991Z</time></trkpt><trkpt lat="43.54720482328002" lon="11.054419406061223"><ele>81.0</ele><time>2026-03-29T11:19:17.991Z</time></trkpt><trkpt lat="43.5473108074366" lon="11.054501824016423"><ele>80.0</ele><time>2026-03-29T11:19:18.991Z</time></trkpt><trkpt lat="43.54742250776243" lon="11.054585599359157"><ele>79.0</ele><time>2026-03-29T11:19:19.991Z</time></trkpt><trkpt lat="43.54754170381057" lon="11.054673049075404"><ele>79.0</ele><time>2026-03-29T11:19:20.991Z</time></trkpt><trkpt lat="43.54765012184711" lon="11.054789596035638"><ele>79.0</ele><time>2026-03-29T11:19:21.991Z</time></trkpt><trkpt lat="43.54774002120607" lon="11.054885713417484"><ele>79.0</ele><time>2026-03-29T11:19:22.991Z</time></trkpt><trkpt lat="43.54780896983656" lon="11.054992426570376"><ele>79.0</ele><time>2026-03-29T11:19:23.991Z</time></trkpt><trkpt lat="43.54787041345276" lon="11.05511371935576"><ele>79.0</ele><time>2026-03-29T11:19:24.991Z</time></trkpt><trkpt lat="43.54792711923778" lon="11.055258043159036"><ele>79.0</ele><time>2026-03-29T11:19:25.991Z</time></trkpt><trkpt lat="43.547993188076056" lon="11.055411049853749"><ele>79.0</ele><time>2026-03-29T11:19:26.991Z</time></trkpt><trkpt lat="43.54804297849774" lon="11.055597604246001"><ele>79.0</ele><time>2026-03-29T11:19:27.991Z</time></trkpt><trkpt lat="43.54810061926669" lon="11.055788765670576"><ele>80.0</ele><time>2026-03-29T11:19:28.991Z</time></trkpt><trkpt lat="43.54816179466435" lon="11.0559892716249"><ele>81.0</ele><time>2026-03-29T11:19:29.991Z</time></trkpt><trkpt lat="43.54822604219841" lon="11.056193807240648"><ele>82.0</ele><time>2026-03-29T11:19:30.991Z</time></trkpt><trkpt lat="43.54829009022496" lon="11.056395872404945"><ele>82.0</ele><time>2026-03-29T11:19:31.991Z</time></trkpt><trkpt lat="43.548338184650774" lon="11.056585951817258"><ele>82.0</ele><time>2026-03-29T11:19:32.991Z</time></trkpt><trkpt lat="43.548393978807376" lon="11.056767422420183"><ele>82.0</ele><time>2026-03-29T11:19:33.991Z</time></trkpt><trkpt lat="43.54844881583556" lon="11.056945780031514"><ele>82.0</ele><time>2026-03-29T11:19:34.991Z</time></trkpt><trkpt lat="43.54849962125441" lon="11.057122574231254"><ele>82.25</ele><time>2026-03-29T11:19:35.991Z</time></trkpt><trkpt lat="43.54856147031428" lon="11.057309331418725"><ele>82.5</ele><time>2026-03-29T11:19:36.991Z</time></trkpt><trkpt lat="43.548619692656324" lon="11.057486473973386"><ele>82.75</ele><time>2026-03-29T11:19:37.991Z</time></trkpt><trkpt lat="43.548669397943236" lon="11.057661322318348"><ele>83.0</ele><time>2026-03-29T11:19:38.991Z</time></trkpt><trkpt lat="43.54872417887853" lon="11.057840098247926"><ele>82.75</ele><time>2026-03-29T11:19:39.991Z</time></trkpt><trkpt lat="43.54877980730311" lon="11.058018649418553"><ele>82.5</ele><time>2026-03-29T11:19:40.991Z</time></trkpt><trkpt lat="43.54885054906161" lon="11.05818592598625"><ele>82.25</ele><time>2026-03-29T11:19:41.991Z</time></trkpt><trkpt lat="43.54893105460523" lon="11.058358157926707"><ele>82.0</ele><time>2026-03-29T11:19:42.991Z</time></trkpt><trkpt lat="43.54904412364915" lon="11.05851750217157"><ele>82.0</ele><time>2026-03-29T11:19:43.991Z</time></trkpt><trkpt lat="43.549173325175055" lon="11.058659571606047"><ele>82.0</ele><time>2026-03-29T11:19:44.991Z</time></trkpt><trkpt lat="43.549310603456064" lon="11.05878992104497"><ele>82.0</ele><time>2026-03-29T11:19:45.991Z</time></trkpt><trkpt lat="43.54944103864798" lon="11.058905912229084"><ele>81.75</ele><time>2026-03-29T11:19:46.991Z</time></trkpt><trkpt lat="43.549552080371384" lon="11.05900406398156"><ele>81.5</ele><time>2026-03-29T11:19:47.991Z</time></trkpt><trkpt lat="43.54964801457164" lon="11.059110114690924"><ele>81.25</ele><time>2026-03-29T11:19:48.991Z</time></trkpt><trkpt lat="43.54975655386957" lon="11.059227918263712"><ele>81.0</ele><time>2026-03-29T11:19:49.991Z</time></trkpt><trkpt lat="43.549863956319406" lon="11.059363232811938"><ele>81.0</ele><time>2026-03-29T11:19:50.991Z</time></trkpt><trkpt lat="43.549959494603264" lon="11.059537822751608"><ele>81.0</ele><time>2026-03-29T11:19:51.991Z</time></trkpt><trkpt lat="43.55004587548017" lon="11.059724324721733"><ele>81.0</ele><time>2026-03-29T11:19:52.991Z</time></trkpt><trkpt lat="43.55013298594522" lon="11.059910930997702"><ele>80.75</ele><time>2026-03-29T11:19:53.991Z</time></trkpt><trkpt lat="43.55020535494563" lon="11.060078242849642"><ele>80.5</ele><time>2026-03-29T11:19:54.991Z</time></trkpt><trkpt lat="43.55028058713201" lon="11.060230797239177"><ele>80.25</ele><time>2026-03-29T11:19:55.991Z</time></trkpt><trkpt lat="43.550340300596424" lon="11.060374415876366"><ele>80.0</ele><time>2026-03-29T11:19:56.991Z</time></trkpt><trkpt lat="43.550400104332894" lon="11.060541243988204"><ele>80.0</ele><time>2026-03-29T11:19:57.991Z</time></trkpt><trkpt lat="43.55047009520216" lon="11.060710335079689"><ele>80.0</ele><time>2026-03-29T11:19:58.991Z</time></trkpt><trkpt lat="43.55052879332706" lon="11.060878263585584"><ele>80.0</ele><time>2026-03-29T11:19:59.991Z</time></trkpt><trkpt lat="43.550580883508545" lon="11.061037062407657"><ele>80.0</ele><time>2026-03-29T11:20:00.991Z</time></trkpt><trkpt lat="43.55065754087783" lon="11.061214381142182"><ele>80.33333333333334</ele><time>2026-03-29T11:20:01.991Z</time></trkpt><trkpt lat="43.55075476533562" lon="11.061386409052382"><ele>80.66666666666667</ele><time>2026-03-29T11:20:02.991Z</time></trkpt><trkpt lat="43.550886579681844" lon="11.061547592875177"><ele>81.0</ele><time>2026-03-29T11:20:03.99Z</time></trkpt><trkpt lat="43.55101905684573" lon="11.061694101148086"><ele>81.0</ele><time>2026-03-29T11:20:04.99Z</time></trkpt><trkpt lat="43.55113625733255" lon="11.061847703582462"><ele>81.0</ele><time>2026-03-29T11:20:05.99Z</time></trkpt><trkpt lat="43.55123743820925" lon="11.061980628548543"><ele>81.0</ele><time>2026-03-29T11:20:06.99Z</time></trkpt><trkpt lat="43.55133120907324" lon="11.062102565680116"><ele>81.0</ele><time>2026-03-29T11:20:07.99Z</time></trkpt><trkpt lat="43.551414377229285" lon="11.062218640010864"><ele>81.0</ele><time>2026-03-29T11:20:08.99Z</time></trkpt><trkpt lat="43.55148428851328" lon="11.062338154291893"><ele>81.0</ele><time>2026-03-29T11:20:09.99Z</time></trkpt><trkpt lat="43.55156234544464" lon="11.062459707987275"><ele>81.0</ele><time>2026-03-29T11:20:10.99Z</time></trkpt><trkpt lat="43.55165403975752" lon="11.06260127221479"><ele>81.0</ele><time>2026-03-29T11:20:11.99Z</time></trkpt><trkpt lat="43.551752214244864" lon="11.062752346974648"><ele>81.0</ele><time>2026-03-29T11:20:12.99Z</time></trkpt><trkpt lat="43.55185459017605" lon="11.062896139191237"><ele>81.0</ele><time>2026-03-29T11:20:13.99Z</time></trkpt><trkpt lat="43.55194693792943" lon="11.063060571277207"><ele>81.0</ele><time>2026-03-29T11:20:14.99Z</time></trkpt><trkpt lat="43.55201299974068" lon="11.063205674411432"><ele>81.0</ele><time>2026-03-29T11:20:15.99Z</time></trkpt><trkpt lat="43.5520652843001" lon="11.063356918636956"><ele>80.39999999999999</ele><time>2026-03-29T11:20:16.99Z</time></trkpt><trkpt lat="43.55210680659889" lon="11.063484945884701"><ele>79.8</ele><time>2026-03-29T11:20:17.99Z</time></trkpt><trkpt lat="43.552152377704" lon="11.063626150059811"><ele>79.19999999999999</ele><time>2026-03-29T11:20:18.99Z</time></trkpt><trkpt lat="43.55219945097119" lon="11.063759326265766"><ele>78.6</ele><time>2026-03-29T11:20:19.99Z</time></trkpt><trkpt lat="43.55224861135167" lon="11.063896892984248"><ele>78.0</ele><time>2026-03-29T11:20:20.99Z</time></trkpt><trkpt lat="43.55230771673631" lon="11.064049826024924"><ele>79.25</ele><time>2026-03-29T11:20:21.99Z</time></trkpt><trkpt lat="43.552374851713196" lon="11.06419934035555"><ele>80.5</ele><time>2026-03-29T11:20:22.99Z</time></trkpt><trkpt lat="43.55243459008205" lon="11.064368767210423"><ele>81.75</ele><time>2026-03-29T11:20:23.99Z</time></trkpt><trkpt lat="43.5525056998422" lon="11.064533734711162"><ele>83.0</ele><time>2026-03-29T11:20:24.99Z</time></trkpt><trkpt lat="43.55257892580467" lon="11.064700697492698"><ele>83.0</ele><time>2026-03-29T11:20:25.99Z</time></trkpt><trkpt lat="43.55264439031202" lon="11.064868777227144"><ele>83.0</ele><time>2026-03-29T11:20:26.99Z</time></trkpt><trkpt lat="43.55270575668876" lon="11.065032934358351"><ele>83.0</ele><time>2026-03-29T11:20:27.99Z</time></trkpt><trkpt lat="43.5527622805358" lon="11.065206965012093"><ele>83.0</ele><time>2026-03-29T11:20:28.99Z</time></trkpt><trkpt lat="43.55281963644549" lon="11.065373165427378"><ele>82.66666666666667</ele><time>2026-03-29T11:20:29.99Z</time></trkpt><trkpt lat="43.552883645271145" lon="11.065565850344536"><ele>82.33333333333333</ele><time>2026-03-29T11:20:30.99Z</time></trkpt><trkpt lat="43.55294945578285" lon="11.065768321860928"><ele>82.0</ele><time>2026-03-29T11:20:31.99Z</time></trkpt><trkpt lat="43.55302226412063" lon="11.065985620815507"><ele>82.0</ele><time>2026-03-29T11:20:32.99Z</time></trkpt><trkpt lat="43.55309384322811" lon="11.066187869207935"><ele>82.0</ele><time>2026-03-29T11:20:33.99Z</time></trkpt><trkpt lat="43.55316979758218" lon="11.066372421258258"><ele>82.0</ele><time>2026-03-29T11:20:34.99Z</time></trkpt><trkpt lat="43.55326127499477" lon="11.066498574664971"><ele>82.0</ele><time>2026-03-29T11:20:35.99Z</time></trkpt><trkpt lat="43.55337984487231" lon="11.066597854317203"><ele>82.33333333333333</ele><time>2026-03-29T11:20:36.99Z</time></trkpt><trkpt lat="43.55352391474255" lon="11.06666764324846"><ele>82.66666666666667</ele><time>2026-03-29T11:20:37.99Z</time></trkpt><trkpt lat="43.553695286514724" lon="11.066714863799344"><ele>83.0</ele><time>2026-03-29T11:20:38.99Z</time></trkpt><trkpt lat="43.553846148247324" lon="11.066810724671585"><ele>82.0</ele><time>2026-03-29T11:20:39.99Z</time></trkpt><trkpt lat="43.55398715426254" lon="11.066863062653953"><ele>81.0</ele><time>2026-03-29T11:20:40.99Z</time></trkpt><trkpt lat="43.55410900892193" lon="11.066926401420256"><ele>80.0</ele><time>2026-03-29T11:20:41.99Z</time></trkpt><trkpt lat="43.55420674110862" lon="11.0670126852593"><ele>79.0</ele><time>2026-03-29T11:20:42.99Z</time></trkpt><trkpt lat="43.55431241595625" lon="11.067066280801223"><ele>79.0</ele><time>2026-03-29T11:20:43.99Z</time></trkpt><trkpt lat="43.55439449535326" lon="11.067107492264734"><ele>79.0</ele><time>2026-03-29T11:20:44.99Z</time></trkpt><trkpt lat="43.55445911138019" lon="11.067150841991921"><ele>79.0</ele><time>2026-03-29T11:20:45.99Z</time></trkpt><trkpt lat="43.55453317085368" lon="11.067196284592661"><ele>79.0</ele><time>2026-03-29T11:20:47.99Z</time></trkpt><trkpt lat="43.55462605279883" lon="11.067199451313929"><ele>79.0</ele><time>2026-03-29T11:20:49.99Z</time></trkpt><trkpt lat="43.55472585266578" lon="11.067180738543193"><ele>79.0</ele><time>2026-03-29T11:20:51.99Z</time></trkpt><trkpt lat="43.55483334845843" lon="11.067190021397138"><ele>79.6</ele><time>2026-03-29T11:20:54.99Z</time></trkpt><trkpt lat="43.55489977905781" lon="11.067204610524003"><ele>80.2</ele><time>2026-03-29T11:20:55.99Z</time></trkpt><trkpt lat="43.5549798596968" lon="11.067233002980792"><ele>80.8</ele><time>2026-03-29T11:20:56.99Z</time></trkpt><trkpt lat="43.55506595440517" lon="11.067273583577979"><ele>81.39999999999999</ele><time>2026-03-29T11:20:57.99Z</time></trkpt><trkpt lat="43.555162756502334" lon="11.067366362718179"><ele>82.0</ele><time>2026-03-29T11:20:58.99Z</time></trkpt><trkpt lat="43.555275410384056" lon="11.067461951076247"><ele>82.75</ele><time>2026-03-29T11:20:59.99Z</time></trkpt><trkpt lat="43.55539845421522" lon="11.067576501907718"><ele>83.5</ele><time>2026-03-29T11:21:00.99Z</time></trkpt><trkpt lat="43.555512134448975" lon="11.067680265124032"><ele>84.25</ele><time>2026-03-29T11:21:01.99Z</time></trkpt><trkpt lat="43.55562451732261" lon="11.067764739379596"><ele>85.0</ele><time>2026-03-29T11:21:02.99Z</time></trkpt><trkpt lat="43.555733637423636" lon="11.067817081360117"><ele>85.0</ele><time>2026-03-29T11:21:03.99Z</time></trkpt><trkpt lat="43.555852308001086" lon="11.067815180249697"><ele>85.0</ele><time>2026-03-29T11:21:04.99Z</time></trkpt><trkpt lat="43.555993810097696" lon="11.067784864666926"><ele>85.0</ele><time>2026-03-29T11:21:05.99Z</time></trkpt><trkpt lat="43.55613628248819" lon="11.067754398360446"><ele>85.0</ele><time>2026-03-29T11:21:06.99Z</time></trkpt><trkpt lat="43.55626667210708" lon="11.067730992073802"><ele>85.0</ele><time>2026-03-29T11:21:07.99Z</time></trkpt><trkpt lat="43.556377006072125" lon="11.067710850766673"><ele>85.0</ele><time>2026-03-29T11:21:08.99Z</time></trkpt><trkpt lat="43.55647989105951" lon="11.06770366036875"><ele>85.0</ele><time>2026-03-29T11:21:09.99Z</time></trkpt><trkpt lat="43.556584221795525" lon="11.067706593824791"><ele>85.0</ele><time>2026-03-29T11:21:10.99Z</time></trkpt><trkpt lat="43.55670911371529" lon="11.067702870194225"><ele>85.0</ele><time>2026-03-29T11:21:11.99Z</time></trkpt><trkpt lat="43.556832846547415" lon="11.06769489674415"><ele>85.0</ele><time>2026-03-29T11:21:12.99Z</time></trkpt><trkpt lat="43.55694720265837" lon="11.067680166820443"><ele>85.0</ele><time>2026-03-29T11:21:13.99Z</time></trkpt><trkpt lat="43.55704441231088" lon="11.06766497523674"><ele>85.0</ele><time>2026-03-29T11:21:14.99Z</time></trkpt><trkpt lat="43.55711895471731" lon="11.06764275316994"><ele>85.0</ele><time>2026-03-29T11:21:15.99Z</time></trkpt><trkpt lat="43.557187856201494" lon="11.067620556505563"><ele>85.0</ele><time>2026-03-29T11:21:16.99Z</time></trkpt><trkpt lat="43.55725182978559" lon="11.067605095746739"><ele>85.0</ele><time>2026-03-29T11:21:17.99Z</time></trkpt><trkpt lat="43.557316732603006" lon="11.067600705533103"><ele>86.4</ele><time>2026-03-29T11:21:18.99Z</time></trkpt><trkpt lat="43.55739694599838" lon="11.06763159780599"><ele>87.8</ele><time>2026-03-29T11:21:19.99Z</time></trkpt><trkpt lat="43.557486545037925" lon="11.067696441301896"><ele>89.19999999999999</ele><time>2026-03-29T11:21:20.99Z</time></trkpt><trkpt lat="43.557583831892416" lon="11.067784580662895"><ele>90.6</ele><time>2026-03-29T11:21:21.99Z</time></trkpt><trkpt lat="43.55767356287494" lon="11.06790375869076"><ele>92.0</ele><time>2026-03-29T11:21:22.99Z</time></trkpt><trkpt lat="43.55775438443637" lon="11.068050639433972"><ele>92.0</ele><time>2026-03-29T11:21:23.99Z</time></trkpt><trkpt lat="43.55782013895171" lon="11.068219220855928"><ele>92.0</ele><time>2026-03-29T11:21:24.99Z</time></trkpt><trkpt lat="43.55787274696755" lon="11.06842608892496"><ele>92.0</ele><time>2026-03-29T11:21:25.99Z</time></trkpt><trkpt lat="43.557910020785684" lon="11.068641501395078"><ele>91.75</ele><time>2026-03-29T11:21:26.989Z</time></trkpt><trkpt lat="43.55795276008495" lon="11.068854733296194"><ele>91.5</ele><time>2026-03-29T11:21:27.989Z</time></trkpt><trkpt lat="43.5579947912528" lon="11.069035711766801"><ele>91.25</ele><time>2026-03-29T11:21:28.989Z</time></trkpt><trkpt lat="43.558044949780665" lon="11.069204980781896"><ele>91.0</ele><time>2026-03-29T11:21:29.989Z</time></trkpt><trkpt lat="43.55811327559019" lon="11.0693715704783"><ele>90.75</ele><time>2026-03-29T11:21:30.989Z</time></trkpt><trkpt lat="43.55819765122919" lon="11.069515923006525"><ele>90.5</ele><time>2026-03-29T11:21:31.989Z</time></trkpt><trkpt lat="43.55830510955262" lon="11.069664006861537"><ele>90.25</ele><time>2026-03-29T11:21:32.989Z</time></trkpt><trkpt lat="43.55842134450409" lon="11.06976533617344"><ele>90.0</ele><time>2026-03-29T11:21:33.989Z</time></trkpt><trkpt lat="43.55854908951826" lon="11.069848286680493"><ele>90.0</ele><time>2026-03-29T11:21:34.989Z</time></trkpt><trkpt lat="43.55867910359886" lon="11.06993900673794"><ele>90.0</ele><time>2026-03-29T11:21:35.989Z</time></trkpt><trkpt lat="43.55882299547525" lon="11.070021327025495"><ele>90.0</ele><time>2026-03-29T11:21:36.989Z</time></trkpt><trkpt lat="43.55897368290305" lon="11.07011016786584"><ele>91.33333333333333</ele><time>2026-03-29T11:21:37.989Z</time></trkpt><trkpt lat="43.559133340911515" lon="11.070196497463188"><ele>92.66666666666666</ele><time>2026-03-29T11:21:38.989Z</time></trkpt><trkpt lat="43.55929770602153" lon="11.07029200468287"><ele>94.0</ele><time>2026-03-29T11:21:39.989Z</time></trkpt><trkpt lat="43.55945638277964" lon="11.070384398643009"><ele>96.66666666666666</ele><time>2026-03-29T11:21:40.989Z</time></trkpt><trkpt lat="43.55960209307135" lon="11.07047279093976"><ele>99.33333333333333</ele><time>2026-03-29T11:21:41.989Z</time></trkpt><trkpt lat="43.55975503259427" lon="11.070561554864943"><ele>102.0</ele><time>2026-03-29T11:21:42.989Z</time></trkpt><trkpt lat="43.559914809617936" lon="11.070657119012171"><ele>102.0</ele><time>2026-03-29T11:21:43.989Z</time></trkpt><trkpt lat="43.560080331065016" lon="11.070767357942874"><ele>102.0</ele><time>2026-03-29T11:21:44.989Z</time></trkpt><trkpt lat="43.5602541922897" lon="11.070872636482989"><ele>102.0</ele><time>2026-03-29T11:21:45.989Z</time></trkpt><trkpt lat="43.56041343315029" lon="11.070974408379222"><ele>101.33333333333334</ele><time>2026-03-29T11:21:46.989Z</time></trkpt><trkpt lat="43.56056607408765" lon="11.071068460346577"><ele>100.66666666666667</ele><time>2026-03-29T11:21:47.989Z</time></trkpt><trkpt lat="43.56069951614301" lon="11.071152863411921"><ele>100.0</ele><time>2026-03-29T11:21:48.989Z</time></trkpt><trkpt lat="43.56082322665705" lon="11.071241925664461"><ele>100.0</ele><time>2026-03-29T11:21:49.989Z</time></trkpt><trkpt lat="43.56094979510454" lon="11.07130347919126"><ele>100.0</ele><time>2026-03-29T11:21:50.989Z</time></trkpt><trkpt lat="43.56107672284698" lon="11.071345113749267"><ele>100.0</ele><time>2026-03-29T11:21:51.989Z</time></trkpt><trkpt lat="43.56121190770545" lon="11.071359231744637"><ele>100.0</ele><time>2026-03-29T11:21:52.989Z</time></trkpt><trkpt lat="43.56134910150478" lon="11.07134190051303"><ele>100.5</ele><time>2026-03-29T11:21:53.989Z</time></trkpt><trkpt lat="43.56149047624201" lon="11.071315404653934"><ele>101.0</ele><time>2026-03-29T11:21:54.989Z</time></trkpt><trkpt lat="43.561635813629835" lon="11.071287111282157"><ele>101.5</ele><time>2026-03-29T11:21:55.989Z</time></trkpt><trkpt lat="43.56177539732289" lon="11.071279415736324"><ele>102.0</ele><time>2026-03-29T11:21:56.989Z</time></trkpt><trkpt lat="43.56190551702642" lon="11.071283975505628"><ele>102.0</ele><time>2026-03-29T11:21:57.989Z</time></trkpt><trkpt lat="43.56202836228247" lon="11.071318227299715"><ele>102.0</ele><time>2026-03-29T11:21:58.989Z</time></trkpt><trkpt lat="43.562163121355056" lon="11.071385778544062"><ele>102.0</ele><time>2026-03-29T11:21:59.989Z</time></trkpt><trkpt lat="43.562282466010465" lon="11.071480520295594"><ele>102.0</ele><time>2026-03-29T11:22:00.989Z</time></trkpt><trkpt lat="43.56240505814676" lon="11.071595115323658"><ele>99.25</ele><time>2026-03-29T11:22:01.989Z</time></trkpt><trkpt lat="43.56251876105763" lon="11.071728593156998"><ele>96.5</ele><time>2026-03-29T11:22:02.989Z</time></trkpt><trkpt lat="43.56263806556909" lon="11.071842446229422"><ele>93.75</ele><time>2026-03-29T11:22:03.989Z</time></trkpt><trkpt lat="43.56275625590534" lon="11.07193435546569"><ele>91.0</ele><time>2026-03-29T11:22:04.989Z</time></trkpt><trkpt lat="43.56287138389479" lon="11.071999069392312"><ele>91.0</ele><time>2026-03-29T11:22:05.989Z</time></trkpt><trkpt lat="43.56300801704619" lon="11.072028097603079"><ele>91.0</ele><time>2026-03-29T11:22:06.989Z</time></trkpt><trkpt lat="43.56314923408952" lon="11.072052127872384"><ele>91.0</ele><time>2026-03-29T11:22:07.989Z</time></trkpt><trkpt lat="43.5632960907092" lon="11.072080585364947"><ele>91.0</ele><time>2026-03-29T11:22:08.989Z</time></trkpt><trkpt lat="43.56345113044887" lon="11.072114573770808"><ele>91.0</ele><time>2026-03-29T11:22:09.989Z</time></trkpt><trkpt lat="43.563616240955525" lon="11.072151706796548"><ele>91.0</ele><time>2026-03-29T11:22:10.989Z</time></trkpt><trkpt lat="43.56378173781017" lon="11.07220685478998"><ele>91.0</ele><time>2026-03-29T11:22:11.989Z</time></trkpt><trkpt lat="43.56394323027931" lon="11.072222979956777"><ele>92.0</ele><time>2026-03-29T11:22:12.989Z</time></trkpt><trkpt lat="43.564089339866726" lon="11.072251147156498"><ele>93.0</ele><time>2026-03-29T11:22:13.989Z</time></trkpt><trkpt lat="43.56423097119314" lon="11.072261676979139"><ele>94.0</ele><time>2026-03-29T11:22:14.989Z</time></trkpt><trkpt lat="43.56435828405514" lon="11.072289417777085"><ele>95.0</ele><time>2026-03-29T11:22:15.989Z</time></trkpt><trkpt lat="43.56447118406728" lon="11.07235190093536"><ele>94.25</ele><time>2026-03-29T11:22:16.989Z</time></trkpt><trkpt lat="43.5645784719282" lon="11.072435311887322"><ele>93.5</ele><time>2026-03-29T11:22:17.989Z</time></trkpt><trkpt lat="43.56468885653758" lon="11.072538321911171"><ele>92.75</ele><time>2026-03-29T11:22:18.989Z</time></trkpt><trkpt lat="43.56480072234816" lon="11.072635727140577"><ele>92.0</ele><time>2026-03-29T11:22:19.989Z</time></trkpt><trkpt lat="43.56492924946602" lon="11.07273341936305"><ele>92.0</ele><time>2026-03-29T11:22:20.989Z</time></trkpt><trkpt lat="43.56505870178262" lon="11.07283465364261"><ele>92.0</ele><time>2026-03-29T11:22:21.989Z</time></trkpt><trkpt lat="43.565196297408235" lon="11.07294422571508"><ele>92.0</ele><time>2026-03-29T11:22:22.989Z</time></trkpt><trkpt lat="43.565333849729804" lon="11.073053708865507"><ele>93.5</ele><time>2026-03-29T11:22:23.989Z</time></trkpt><trkpt lat="43.56546423929297" lon="11.0731581243191"><ele>95.0</ele><time>2026-03-29T11:22:24.989Z</time></trkpt><trkpt lat="43.56558000422697" lon="11.073250769295647"><ele>96.5</ele><time>2026-03-29T11:22:25.989Z</time></trkpt><trkpt lat="43.565696635500714" lon="11.073339676049162"><ele>98.0</ele><time>2026-03-29T11:22:26.989Z</time></trkpt><trkpt lat="43.565806903582015" lon="11.073411092220574"><ele>98.0</ele><time>2026-03-29T11:22:27.989Z</time></trkpt><trkpt lat="43.565916480492604" lon="11.073471215391965"><ele>98.0</ele><time>2026-03-29T11:22:28.989Z</time></trkpt><trkpt lat="43.56603189877675" lon="11.073522925808179"><ele>98.0</ele><time>2026-03-29T11:22:29.989Z</time></trkpt><trkpt lat="43.56615693599622" lon="11.073562963938846"><ele>98.0</ele><time>2026-03-29T11:22:30.989Z</time></trkpt><trkpt lat="43.56629653897041" lon="11.073617172202965"><ele>99.5</ele><time>2026-03-29T11:22:31.989Z</time></trkpt><trkpt lat="43.56644594698531" lon="11.073674497306033"><ele>101.0</ele><time>2026-03-29T11:22:32.989Z</time></trkpt><trkpt lat="43.56659017125344" lon="11.073729561648832"><ele>102.5</ele><time>2026-03-29T11:22:33.989Z</time></trkpt><trkpt lat="43.56672590943232" lon="11.073762581079887"><ele>104.0</ele><time>2026-03-29T11:22:34.989Z</time></trkpt><trkpt lat="43.56686084900251" lon="11.073797702308479"><ele>104.0</ele><time>2026-03-29T11:22:35.989Z</time></trkpt><trkpt lat="43.5669925849737" lon="11.07383892525621"><ele>104.0</ele><time>2026-03-29T11:22:36.989Z</time></trkpt><trkpt lat="43.56713214897062" lon="11.073844622839202"><ele>104.0</ele><time>2026-03-29T11:22:37.989Z</time></trkpt><trkpt lat="43.56727491337277" lon="11.073833093855756"><ele>104.0</ele><time>2026-03-29T11:22:38.989Z</time></trkpt><trkpt lat="43.567423901987645" lon="11.073818170628105"><ele>104.5</ele><time>2026-03-29T11:22:39.989Z</time></trkpt><trkpt lat="43.567568067541" lon="11.073806754468409"><ele>105.0</ele><time>2026-03-29T11:22:40.989Z</time></trkpt><trkpt lat="43.56771083508425" lon="11.07381366543493"><ele>105.5</ele><time>2026-03-29T11:22:41.989Z</time></trkpt><trkpt lat="43.56784457113459" lon="11.073817981836765"><ele>106.0</ele><time>2026-03-29T11:22:42.989Z</time></trkpt><trkpt lat="43.56796881292466" lon="11.073853751813928"><ele>104.0</ele><time>2026-03-29T11:22:43.989Z</time></trkpt><trkpt lat="43.568085782668476" lon="11.073938425271093"><ele>102.0</ele><time>2026-03-29T11:22:44.989Z</time></trkpt><trkpt lat="43.56818966190349" lon="11.074060508265807"><ele>100.0</ele><time>2026-03-29T11:22:45.989Z</time></trkpt><trkpt lat="43.568303620818085" lon="11.07418887229162"><ele>98.0</ele><time>2026-03-29T11:22:46.989Z</time></trkpt><trkpt lat="43.568415906420825" lon="11.074305449148673"><ele>97.75</ele><time>2026-03-29T11:22:47.989Z</time></trkpt><trkpt lat="43.56853104961566" lon="11.074421676298746"><ele>97.5</ele><time>2026-03-29T11:22:48.989Z</time></trkpt><trkpt lat="43.56863721500491" lon="11.074543080102522"><ele>97.25</ele><time>2026-03-29T11:22:49.988Z</time></trkpt><trkpt lat="43.56874046602295" lon="11.07468683228212"><ele>97.0</ele><time>2026-03-29T11:22:50.988Z</time></trkpt><trkpt lat="43.56880862588523" lon="11.074867670431061"><ele>99.25</ele><time>2026-03-29T11:22:51.988Z</time></trkpt><trkpt lat="43.56887552992774" lon="11.075057269730609"><ele>101.5</ele><time>2026-03-29T11:22:52.988Z</time></trkpt><trkpt lat="43.568951297765494" lon="11.075236885929293"><ele>103.75</ele><time>2026-03-29T11:22:53.988Z</time></trkpt><trkpt lat="43.569006443513466" lon="11.07541712677364"><ele>106.0</ele><time>2026-03-29T11:22:54.988Z</time></trkpt><trkpt lat="43.56906632341069" lon="11.075566643396208"><ele>106.0</ele><time>2026-03-29T11:22:55.988Z</time></trkpt><trkpt lat="43.569141253758495" lon="11.075708674139038"><ele>106.0</ele><time>2026-03-29T11:22:56.988Z</time></trkpt><trkpt lat="43.56923786107688" lon="11.075856552844433"><ele>106.0</ele><time>2026-03-29T11:22:57.988Z</time></trkpt><trkpt lat="43.56935834925749" lon="11.076012077234813"><ele>106.0</ele><time>2026-03-29T11:22:58.988Z</time></trkpt><trkpt lat="43.56949271105864" lon="11.076188606016514"><ele>107.66666666666667</ele><time>2026-03-29T11:22:59.988Z</time></trkpt><trkpt lat="43.569623874246254" lon="11.07635512660884"><ele>109.33333333333334</ele><time>2026-03-29T11:23:00.988Z</time></trkpt><trkpt lat="43.56973901345732" lon="11.076496865359966"><ele>111.0</ele><time>2026-03-29T11:23:01.988Z</time></trkpt><trkpt lat="43.56984398891034" lon="11.076638407802827"><ele>107.75</ele><time>2026-03-29T11:23:02.988Z</time></trkpt><trkpt lat="43.569948745530034" lon="11.076766492186051"><ele>104.5</ele><time>2026-03-29T11:23:03.988Z</time></trkpt><trkpt lat="43.57005148474745" lon="11.076882115665724"><ele>101.25</ele><time>2026-03-29T11:23:04.988Z</time></trkpt><trkpt lat="43.57015919151324" lon="11.076965868433753"><ele>98.0</ele><time>2026-03-29T11:23:05.988Z</time></trkpt><trkpt lat="43.57027844967109" lon="11.077026392823072"><ele>99.25</ele><time>2026-03-29T11:23:06.988Z</time></trkpt><trkpt lat="43.5704070613363" lon="11.077044343652823"><ele>100.5</ele><time>2026-03-29T11:23:07.988Z</time></trkpt><trkpt lat="43.57054594343119" lon="11.077042168775886"><ele>101.75</ele><time>2026-03-29T11:23:08.988Z</time></trkpt><trkpt lat="43.570694704921344" lon="11.07705477133093"><ele>103.0</ele><time>2026-03-29T11:23:09.988Z</time></trkpt><trkpt lat="43.57085523162559" lon="11.077073124617959"><ele>103.0</ele><time>2026-03-29T11:23:10.988Z</time></trkpt><trkpt lat="43.57101749392572" lon="11.077108741772035"><ele>103.0</ele><time>2026-03-29T11:23:11.988Z</time></trkpt><trkpt lat="43.571182815034526" lon="11.077183996690161"><ele>103.0</ele><time>2026-03-29T11:23:12.988Z</time></trkpt><trkpt lat="43.571327418955626" lon="11.077307546813408"><ele>102.75</ele><time>2026-03-29T11:23:13.988Z</time></trkpt><trkpt lat="43.57146277727604" lon="11.07737448149669"><ele>102.5</ele><time>2026-03-29T11:23:14.988Z</time></trkpt><trkpt lat="43.57158055759356" lon="11.077429994581754"><ele>102.25</ele><time>2026-03-29T11:23:15.988Z</time></trkpt><trkpt lat="43.5717018261201" lon="11.077451226076521"><ele>102.0</ele><time>2026-03-29T11:23:16.988Z</time></trkpt><trkpt lat="43.571836261172" lon="11.077457837549622"><ele>100.66666666666666</ele><time>2026-03-29T11:23:17.988Z</time></trkpt><trkpt lat="43.57197040640765" lon="11.0774924321896"><ele>99.33333333333333</ele><time>2026-03-29T11:23:18.988Z</time></trkpt><trkpt lat="43.572125154160894" lon="11.07751000207773"><ele>98.0</ele><time>2026-03-29T11:23:19.988Z</time></trkpt><trkpt lat="43.572292405022075" lon="11.07753340240367"><ele>98.0</ele><time>2026-03-29T11:23:20.988Z</time></trkpt><trkpt lat="43.572464711660515" lon="11.077554853578134"><ele>98.0</ele><time>2026-03-29T11:23:21.988Z</time></trkpt><trkpt lat="43.5726421143362" lon="11.077576258203361"><ele>98.0</ele><time>2026-03-29T11:23:22.988Z</time></trkpt><trkpt lat="43.57283029789251" lon="11.077590182939353"><ele>99.5</ele><time>2026-03-29T11:23:23.988Z</time></trkpt><trkpt lat="43.57299129128087" lon="11.077612742344591"><ele>101.0</ele><time>2026-03-29T11:23:24.988Z</time></trkpt><trkpt lat="43.5731302044326" lon="11.077632192210828"><ele>102.5</ele><time>2026-03-29T11:23:25.988Z</time></trkpt><trkpt lat="43.573258744513865" lon="11.077646178076227"><ele>104.0</ele><time>2026-03-29T11:23:26.988Z</time></trkpt><trkpt lat="43.573383614644456" lon="11.077661864484684"><ele>104.0</ele><time>2026-03-29T11:23:27.988Z</time></trkpt><trkpt lat="43.573510902581916" lon="11.077692541377026"><ele>104.0</ele><time>2026-03-29T11:23:28.988Z</time></trkpt><trkpt lat="43.57363394383132" lon="11.07775837009743"><ele>104.0</ele><time>2026-03-29T11:23:29.988Z</time></trkpt><trkpt lat="43.57376394162286" lon="11.077869760386605"><ele>104.0</ele><time>2026-03-29T11:23:30.988Z</time></trkpt><trkpt lat="43.573882176389446" lon="11.078006483399692"><ele>103.33333333333333</ele><time>2026-03-29T11:23:31.988Z</time></trkpt><trkpt lat="43.574013676878074" lon="11.078143470458794"><ele>102.66666666666666</ele><time>2026-03-29T11:23:32.988Z</time></trkpt><trkpt lat="43.57416333004815" lon="11.078252157468606"><ele>102.0</ele><time>2026-03-29T11:23:33.988Z</time></trkpt><trkpt lat="43.57431959501635" lon="11.078320694523345"><ele>102.0</ele><time>2026-03-29T11:23:34.988Z</time></trkpt><trkpt lat="43.57446398292002" lon="11.078400668286136"><ele>102.0</ele><time>2026-03-29T11:23:35.988Z</time></trkpt><trkpt lat="43.5746043307925" lon="11.07848684582075"><ele>102.0</ele><time>2026-03-29T11:23:36.988Z</time></trkpt><trkpt lat="43.574746185154034" lon="11.078586083369641"><ele>101.75</ele><time>2026-03-29T11:23:37.988Z</time></trkpt><trkpt lat="43.57489260384993" lon="11.078664953092629"><ele>101.5</ele><time>2026-03-29T11:23:38.988Z</time></trkpt><trkpt lat="43.575024964292176" lon="11.078700018099026"><ele>101.25</ele><time>2026-03-29T11:23:39.988Z</time></trkpt><trkpt lat="43.57515202065836" lon="11.078689756039367"><ele>101.0</ele><time>2026-03-29T11:23:40.988Z</time></trkpt><trkpt lat="43.57526957811459" lon="11.078633426265984"><ele>103.5</ele><time>2026-03-29T11:23:41.988Z</time></trkpt><trkpt lat="43.57539443300898" lon="11.078563641623562"><ele>106.0</ele><time>2026-03-29T11:23:42.988Z</time></trkpt><trkpt lat="43.5755242070703" lon="11.078484812646744"><ele>108.5</ele><time>2026-03-29T11:23:43.988Z</time></trkpt><trkpt lat="43.575660891981926" lon="11.078420808246232"><ele>111.0</ele><time>2026-03-29T11:23:44.988Z</time></trkpt><trkpt lat="43.57580829995844" lon="11.07839434973954"><ele>111.0</ele><time>2026-03-29T11:23:45.988Z</time></trkpt><trkpt lat="43.575966699849594" lon="11.078334714259146"><ele>111.0</ele><time>2026-03-29T11:23:46.988Z</time></trkpt><trkpt lat="43.57613995356988" lon="11.078297113843798"><ele>111.0</ele><time>2026-03-29T11:23:47.988Z</time></trkpt><trkpt lat="43.57631151482311" lon="11.078258369756423"><ele>111.0</ele><time>2026-03-29T11:23:48.988Z</time></trkpt><trkpt lat="43.57649226878151" lon="11.078214707604614"><ele>111.0</ele><time>2026-03-29T11:23:49.988Z</time></trkpt><trkpt lat="43.576676907967595" lon="11.078170877573204"><ele>111.0</ele><time>2026-03-29T11:23:50.988Z</time></trkpt><trkpt lat="43.57685068519634" lon="11.078131715264178"><ele>111.0</ele><time>2026-03-29T11:23:51.988Z</time></trkpt><trkpt lat="43.577001543647434" lon="11.078109642168059"><ele>111.0</ele><time>2026-03-29T11:23:52.988Z</time></trkpt><trkpt lat="43.57712223668189" lon="11.078014953248697"><ele>111.0</ele><time>2026-03-29T11:23:53.988Z</time></trkpt><trkpt lat="43.5772213827307" lon="11.077946586421342"><ele>111.0</ele><time>2026-03-29T11:23:54.988Z</time></trkpt><trkpt lat="43.577302672186704" lon="11.077864385416754"><ele>112.14285714285714</ele><time>2026-03-29T11:23:55.988Z</time></trkpt><trkpt lat="43.57737232001095" lon="11.077844358055177"><ele>113.28571428571429</ele><time>2026-03-29T11:23:56.988Z</time></trkpt><trkpt lat="43.57744538775015" lon="11.077847403946619"><ele>114.42857142857143</ele><time>2026-03-29T11:23:57.988Z</time></trkpt><trkpt lat="43.577493602499224" lon="11.077905314216627"><ele>115.57142857142857</ele><time>2026-03-29T11:23:58.988Z</time></trkpt><trkpt lat="43.577508432804265" lon="11.077993188455741"><ele>116.71428571428572</ele><time>2026-03-29T11:23:59.988Z</time></trkpt><trkpt lat="43.57747703654965" lon="11.078082822741028"><ele>117.85714285714286</ele><time>2026-03-29T11:24:00.988Z</time></trkpt><trkpt lat="43.57743184375928" lon="11.078172740148126"><ele>119.0</ele><time>2026-03-29T11:24:01.988Z</time></trkpt><trkpt lat="43.577361567634895" lon="11.078281772699746"><ele>120.0</ele><time>2026-03-29T11:24:02.988Z</time></trkpt><trkpt lat="43.577280288255345" lon="11.078407334341508"><ele>121.0</ele><time>2026-03-29T11:24:03.988Z</time></trkpt><trkpt lat="43.57715772734038" lon="11.078538046922615"><ele>122.0</ele><time>2026-03-29T11:24:04.988Z</time></trkpt><trkpt lat="43.57702752903431" lon="11.078656654312415"><ele>123.0</ele><time>2026-03-29T11:24:05.988Z</time></trkpt><trkpt lat="43.576928211558894" lon="11.078760232735975"><ele>123.0</ele><time>2026-03-29T11:24:06.988Z</time></trkpt><trkpt lat="43.57685189612666" lon="11.078856966541917"><ele>123.0</ele><time>2026-03-29T11:24:07.988Z</time></trkpt><trkpt lat="43.57680542815004" lon="11.07896815950378"><ele>123.0</ele><time>2026-03-29T11:24:08.988Z</time></trkpt><trkpt lat="43.57679977613736" lon="11.079073086097898"><ele>123.0</ele><time>2026-03-29T11:24:09.988Z</time></trkpt><trkpt lat="43.5768044211529" lon="11.07916685940525"><ele>123.0</ele><time>2026-03-29T11:24:10.988Z</time></trkpt><trkpt lat="43.576866622391734" lon="11.079233497738667"><ele>123.0</ele><time>2026-03-29T11:24:11.988Z</time></trkpt><trkpt lat="43.57694967576864" lon="11.079236442393945"><ele>126.2</ele><time>2026-03-29T11:24:12.987Z</time></trkpt><trkpt lat="43.57703408260611" lon="11.07923877426344"><ele>129.4</ele><time>2026-03-29T11:24:13.987Z</time></trkpt><trkpt lat="43.5771346863626" lon="11.079236327808815"><ele>132.60000000000002</ele><time>2026-03-29T11:24:14.987Z</time></trkpt><trkpt lat="43.57724265691062" lon="11.07924807047354"><ele>135.8</ele><time>2026-03-29T11:24:15.987Z</time></trkpt><trkpt lat="43.57735421239985" lon="11.079258855024896"><ele>139.0</ele><time>2026-03-29T11:24:16.987Z</time></trkpt><trkpt lat="43.57747924583698" lon="11.079301020132581"><ele>139.0</ele><time>2026-03-29T11:24:17.987Z</time></trkpt><trkpt lat="43.57761631580628" lon="11.079331218477972"><ele>139.0</ele><time>2026-03-29T11:24:18.987Z</time></trkpt><trkpt lat="43.57774427440223" lon="11.079350603429916"><ele>139.0</ele><time>2026-03-29T11:24:19.987Z</time></trkpt><trkpt lat="43.577882414320776" lon="11.079374504257906"><ele>139.0</ele><time>2026-03-29T11:24:20.987Z</time></trkpt><trkpt lat="43.57803762213294" lon="11.079394208871078"><ele>139.0</ele><time>2026-03-29T11:24:21.987Z</time></trkpt><trkpt lat="43.578204197312516" lon="11.079426382254457"><ele>139.0</ele><time>2026-03-29T11:24:22.987Z</time></trkpt><trkpt lat="43.57837700077106" lon="11.079461693439866"><ele>139.0</ele><time>2026-03-29T11:24:23.987Z</time></trkpt><trkpt lat="43.57854491288326" lon="11.079489644171089"><ele>138.66666666666669</ele><time>2026-03-29T11:24:24.987Z</time></trkpt><trkpt lat="43.57871412593646" lon="11.079519894527749"><ele>138.33333333333334</ele><time>2026-03-29T11:24:25.987Z</time></trkpt><trkpt lat="43.578882800730845" lon="11.079548479747816"><ele>138.0</ele><time>2026-03-29T11:24:26.987Z</time></trkpt><trkpt lat="43.57904820355686" lon="11.079573256115644"><ele>138.0</ele><time>2026-03-29T11:24:27.987Z</time></trkpt><trkpt lat="43.57920849233583" lon="11.079599186073688"><ele>138.0</ele><time>2026-03-29T11:24:28.987Z</time></trkpt><trkpt lat="43.57936546520671" lon="11.079625362247993"><ele>138.0</ele><time>2026-03-29T11:24:29.987Z</time></trkpt><trkpt lat="43.57950864829679" lon="11.07965009933633"><ele>138.5</ele><time>2026-03-29T11:24:30.987Z</time></trkpt><trkpt lat="43.57964581491097" lon="11.079674712488295"><ele>139.0</ele><time>2026-03-29T11:24:31.987Z</time></trkpt><trkpt lat="43.57978875524958" lon="11.079698451022793"><ele>139.5</ele><time>2026-03-29T11:24:32.987Z</time></trkpt><trkpt lat="43.57993050041005" lon="11.07972142387861"><ele>140.0</ele><time>2026-03-29T11:24:33.987Z</time></trkpt><trkpt lat="43.58008392619508" lon="11.079746386585425"><ele>140.0</ele><time>2026-03-29T11:24:34.987Z</time></trkpt><trkpt lat="43.5802429377429" lon="11.079777191715186"><ele>140.0</ele><time>2026-03-29T11:24:35.987Z</time></trkpt><trkpt lat="43.58040084924444" lon="11.079825289339846"><ele>140.0</ele><time>2026-03-29T11:24:36.987Z</time></trkpt><trkpt lat="43.580559609506416" lon="11.079912543832673"><ele>144.0</ele><time>2026-03-29T11:24:37.987Z</time></trkpt><trkpt lat="43.58070592548658" lon="11.08001915440364"><ele>148.0</ele><time>2026-03-29T11:24:38.987Z</time></trkpt><trkpt lat="43.580856670949125" lon="11.080120287862234"><ele>152.0</ele><time>2026-03-29T11:24:39.987Z</time></trkpt><trkpt lat="43.580981353121835" lon="11.080250149657031"><ele>152.0</ele><time>2026-03-29T11:24:40.987Z</time></trkpt><trkpt lat="43.58109106624148" lon="11.08037437003446"><ele>152.0</ele><time>2026-03-29T11:24:41.987Z</time></trkpt><trkpt lat="43.58115319644482" lon="11.080502185156046"><ele>152.0</ele><time>2026-03-29T11:24:42.987Z</time></trkpt><trkpt lat="43.58120445352435" lon="11.080634104901863"><ele>152.0</ele><time>2026-03-29T11:24:43.987Z</time></trkpt><trkpt lat="43.58124872587142" lon="11.080788189051539"><ele>154.0</ele><time>2026-03-29T11:24:44.987Z</time></trkpt><trkpt lat="43.5812838225588" lon="11.080959258139382"><ele>156.0</ele><time>2026-03-29T11:24:45.987Z</time></trkpt><trkpt lat="43.58129878668269" lon="11.08114015920528"><ele>158.0</ele><time>2026-03-29T11:24:46.987Z</time></trkpt><trkpt lat="43.581326403226754" lon="11.081320336604616"><ele>160.0</ele><time>2026-03-29T11:24:47.987Z</time></trkpt><trkpt lat="43.58137074586842" lon="11.08148923023159"><ele>162.8</ele><time>2026-03-29T11:24:48.987Z</time></trkpt><trkpt lat="43.581425789824586" lon="11.081626672002388"><ele>165.6</ele><time>2026-03-29T11:24:49.987Z</time></trkpt><trkpt lat="43.58148715662985" lon="11.081732828817625"><ele>168.39999999999998</ele><time>2026-03-29T11:24:50.987Z</time></trkpt><trkpt lat="43.581538067697764" lon="11.081832500773734"><ele>171.2</ele><time>2026-03-29T11:24:51.987Z</time></trkpt><trkpt lat="43.58158166776182" lon="11.081938960980766"><ele>174.0</ele><time>2026-03-29T11:24:52.987Z</time></trkpt><trkpt lat="43.581662497731315" lon="11.081990880862207"><ele>174.0</ele><time>2026-03-29T11:24:53.987Z</time></trkpt><trkpt lat="43.581744877650785" lon="11.082039494438844"><ele>174.0</ele><time>2026-03-29T11:24:54.987Z</time></trkpt><trkpt lat="43.58183570962331" lon="11.082093273769072"><ele>174.0</ele><time>2026-03-29T11:24:55.987Z</time></trkpt><trkpt lat="43.581935965235495" lon="11.082167433475835"><ele>174.0</ele><time>2026-03-29T11:24:56.987Z</time></trkpt><trkpt lat="43.582064783162544" lon="11.082263090824398"><ele>174.0</ele><time>2026-03-29T11:24:57.987Z</time></trkpt><trkpt lat="43.582205072791844" lon="11.082354850909343"><ele>173.0</ele><time>2026-03-29T11:24:58.987Z</time></trkpt><trkpt lat="43.5823524144123" lon="11.082428238159828"><ele>172.0</ele><time>2026-03-29T11:24:59.987Z</time></trkpt><trkpt lat="43.58250373675095" lon="11.082474419463384"><ele>171.0</ele><time>2026-03-29T11:25:00.987Z</time></trkpt><trkpt lat="43.58264987136876" lon="11.082488137726799"><ele>174.75</ele><time>2026-03-29T11:25:01.987Z</time></trkpt><trkpt lat="43.58278470318528" lon="11.082487167291143"><ele>178.5</ele><time>2026-03-29T11:25:02.987Z</time></trkpt><trkpt lat="43.582927986510555" lon="11.082502771293232"><ele>182.25</ele><time>2026-03-29T11:25:03.987Z</time></trkpt><trkpt lat="43.583069802755006" lon="11.082519169440163"><ele>186.0</ele><time>2026-03-29T11:25:04.987Z</time></trkpt><trkpt lat="43.583214324874604" lon="11.082538067761853"><ele>185.20000000000002</ele><time>2026-03-29T11:25:05.987Z</time></trkpt><trkpt lat="43.5833441771895" lon="11.082547422720493"><ele>184.4</ele><time>2026-03-29T11:25:06.987Z</time></trkpt><trkpt lat="43.58344077935893" lon="11.08255159689408"><ele>183.6</ele><time>2026-03-29T11:25:07.987Z</time></trkpt><trkpt lat="43.58350743964019" lon="11.08253586358326"><ele>182.8</ele><time>2026-03-29T11:25:08.987Z</time></trkpt><trkpt lat="43.583598276014506" lon="11.082393800623697"><ele>182.0</ele><time>2026-03-29T11:25:10.987Z</time></trkpt><trkpt lat="43.58366278327363" lon="11.082258568834115"><ele>186.25</ele><time>2026-03-29T11:25:11.987Z</time></trkpt><trkpt lat="43.583733534933074" lon="11.082126459196685"><ele>190.5</ele><time>2026-03-29T11:25:12.987Z</time></trkpt><trkpt lat="43.58381937597565" lon="11.081984451819325"><ele>194.75</ele><time>2026-03-29T11:25:13.987Z</time></trkpt><trkpt lat="43.58392373457243" lon="11.08184195616097"><ele>199.0</ele><time>2026-03-29T11:25:14.987Z</time></trkpt><trkpt lat="43.58402617496161" lon="11.081710498040632"><ele>197.6</ele><time>2026-03-29T11:25:15.987Z</time></trkpt><trkpt lat="43.584115822447735" lon="11.081588355623774"><ele>196.2</ele><time>2026-03-29T11:25:16.987Z</time></trkpt><trkpt lat="43.584186376434936" lon="11.081480968085627"><ele>194.79999999999998</ele><time>2026-03-29T11:25:17.987Z</time></trkpt><trkpt lat="43.58424552329587" lon="11.081378829315813"><ele>193.39999999999998</ele><time>2026-03-29T11:25:18.987Z</time></trkpt><trkpt lat="43.58428789239303" lon="11.08127701385002"><ele>192.0</ele><time>2026-03-29T11:25:19.987Z</time></trkpt><trkpt lat="43.58431531078225" lon="11.08119122640179"><ele>192.0</ele><time>2026-03-29T11:25:20.987Z</time></trkpt><trkpt lat="43.58437537550558" lon="11.081046642277183"><ele>192.0</ele><time>2026-03-29T11:25:22.987Z</time></trkpt><trkpt lat="43.584413193553246" lon="11.080971002925343"><ele>192.0</ele><time>2026-03-29T11:25:23.987Z</time></trkpt><trkpt lat="43.58447209375317" lon="11.08085267205508"><ele>192.0</ele><time>2026-03-29T11:25:25.987Z</time></trkpt><trkpt lat="43.584541535292445" lon="11.080730693402312"><ele>192.0</ele><time>2026-03-29T11:25:27.987Z</time></trkpt><trkpt lat="43.584605018460046" lon="11.08059962188199"><ele>191.6</ele><time>2026-03-29T11:25:29.987Z</time></trkpt><trkpt lat="43.584630320397025" lon="11.08047328377316"><ele>191.2</ele><time>2026-03-29T11:25:31.987Z</time></trkpt><trkpt lat="43.584619379890306" lon="11.080365257399382"><ele>190.8</ele><time>2026-03-29T11:25:34.987Z</time></trkpt><trkpt lat="43.58461760615826" lon="11.080193016135233"><ele>190.4</ele><time>2026-03-29T11:25:37.986Z</time></trkpt><trkpt lat="43.58461612045814" lon="11.08004066043334"><ele>190.0</ele><time>2026-03-29T11:25:38.986Z</time></trkpt><trkpt lat="43.58462035453219" lon="11.07991592019573"><ele>191.16666666666669</ele><time>2026-03-29T11:25:39.986Z</time></trkpt><trkpt lat="43.58462623082439" lon="11.079808322462123"><ele>192.33333333333334</ele><time>2026-03-29T11:25:40.986Z</time></trkpt><trkpt lat="43.58463583654421" lon="11.079718920356802"><ele>193.5</ele><time>2026-03-29T11:25:41.986Z</time></trkpt><trkpt lat="43.58465686039818" lon="11.079629556637755"><ele>194.66666666666669</ele><time>2026-03-29T11:25:42.986Z</time></trkpt><trkpt lat="43.584695396787275" lon="11.07954212630844"><ele>195.83333333333334</ele><time>2026-03-29T11:25:43.986Z</time></trkpt><trkpt lat="43.584771986970836" lon="11.079447709525308"><ele>197.0</ele><time>2026-03-29T11:25:44.986Z</time></trkpt><trkpt lat="43.58485853294357" lon="11.079343629295101"><ele>197.0</ele><time>2026-03-29T11:25:45.986Z</time></trkpt><trkpt lat="43.58495828301136" lon="11.079214327071453"><ele>197.0</ele><time>2026-03-29T11:25:46.986Z</time></trkpt><trkpt lat="43.58505053179376" lon="11.079091164386954"><ele>197.0</ele><time>2026-03-29T11:25:47.986Z</time></trkpt><trkpt lat="43.58511598404127" lon="11.078996504175478"><ele>197.0</ele><time>2026-03-29T11:25:48.986Z</time></trkpt><trkpt lat="43.58518654488683" lon="11.078897457256303"><ele>197.0</ele><time>2026-03-29T11:25:49.986Z</time></trkpt><trkpt lat="43.5852503329404" lon="11.078782543893269"><ele>197.0</ele><time>2026-03-29T11:25:50.986Z</time></trkpt><trkpt lat="43.58528170203923" lon="11.078658266235227"><ele>197.0</ele><time>2026-03-29T11:25:51.986Z</time></trkpt><trkpt lat="43.58531616544011" lon="11.07853988726114"><ele>197.0</ele><time>2026-03-29T11:25:52.986Z</time></trkpt><trkpt lat="43.58533047323988" lon="11.078391656901246"><ele>197.0</ele><time>2026-03-29T11:25:53.986Z</time></trkpt><trkpt lat="43.58533798604575" lon="11.078232330080553"><ele>197.0</ele><time>2026-03-29T11:25:54.986Z</time></trkpt><trkpt lat="43.5853298873064" lon="11.07806970674192"><ele>197.0</ele><time>2026-03-29T11:25:55.986Z</time></trkpt><trkpt lat="43.58535042055371" lon="11.077914358197605"><ele>197.0</ele><time>2026-03-29T11:25:56.986Z</time></trkpt><trkpt lat="43.585358154420085" lon="11.0777939544313"><ele>197.0</ele><time>2026-03-29T11:25:57.986Z</time></trkpt><trkpt lat="43.58537910157481" lon="11.077664382022112"><ele>197.0</ele><time>2026-03-29T11:25:58.986Z</time></trkpt><trkpt lat="43.58540769727019" lon="11.077515108961101"><ele>196.5</ele><time>2026-03-29T11:25:59.986Z</time></trkpt><trkpt lat="43.58545742874046" lon="11.077355151994253"><ele>196.0</ele><time>2026-03-29T11:26:00.986Z</time></trkpt><trkpt lat="43.58552895450795" lon="11.07721087985024"><ele>195.5</ele><time>2026-03-29T11:26:01.986Z</time></trkpt><trkpt lat="43.58560728273057" lon="11.07710083797393"><ele>195.0</ele><time>2026-03-29T11:26:02.986Z</time></trkpt><trkpt lat="43.58570678629208" lon="11.076983671811028"><ele>195.0</ele><time>2026-03-29T11:26:03.986Z</time></trkpt><trkpt lat="43.5858103495826" lon="11.076850381869498"><ele>195.0</ele><time>2026-03-29T11:26:04.986Z</time></trkpt><trkpt lat="43.585901715822345" lon="11.07672479635012"><ele>195.0</ele><time>2026-03-29T11:26:05.986Z</time></trkpt><trkpt lat="43.585988425361215" lon="11.076617742609399"><ele>195.0</ele><time>2026-03-29T11:26:06.986Z</time></trkpt><trkpt lat="43.5860846862952" lon="11.07653442681726"><ele>197.25</ele><time>2026-03-29T11:26:07.986Z</time></trkpt><trkpt lat="43.58617749417109" lon="11.076449803007385"><ele>199.5</ele><time>2026-03-29T11:26:08.986Z</time></trkpt><trkpt lat="43.586277305620285" lon="11.076387049114741"><ele>201.75</ele><time>2026-03-29T11:26:09.986Z</time></trkpt><trkpt lat="43.58639333168353" lon="11.076311547864137"><ele>204.0</ele><time>2026-03-29T11:26:10.986Z</time></trkpt><trkpt lat="43.58649315799671" lon="11.076237738638232"><ele>204.0</ele><time>2026-03-29T11:26:11.986Z</time></trkpt><trkpt lat="43.586568656504944" lon="11.076132234013633"><ele>204.0</ele><time>2026-03-29T11:26:12.986Z</time></trkpt><trkpt lat="43.58663196309642" lon="11.07598369863239"><ele>204.0</ele><time>2026-03-29T11:26:14.005Z</time></trkpt><trkpt lat="43.586700537193984" lon="11.075825094244028"><ele>204.0</ele><time>2026-03-29T11:26:15.005Z</time></trkpt><trkpt lat="43.58677468929437" lon="11.07564157473527"><ele>204.0</ele><time>2026-03-29T11:26:16.005Z</time></trkpt><trkpt lat="43.586841434694605" lon="11.07548164561202"><ele>204.0</ele><time>2026-03-29T11:26:17.005Z</time></trkpt><trkpt lat="43.58689051834716" lon="11.075356136039133"><ele>204.0</ele><time>2026-03-29T11:26:18.005Z</time></trkpt><trkpt lat="43.586943245716064" lon="11.075248706643995"><ele>204.0</ele><time>2026-03-29T11:26:19.005Z</time></trkpt><trkpt lat="43.58701072216508" lon="11.075184440538905"><ele>204.0</ele><time>2026-03-29T11:26:20.005Z</time></trkpt><trkpt lat="43.58709491592735" lon="11.075171335790914"><ele>205.79999999999998</ele><time>2026-03-29T11:26:21.005Z</time></trkpt><trkpt lat="43.58718305829851" lon="11.07516430262547"><ele>207.6</ele><time>2026-03-29T11:26:22.005Z</time></trkpt><trkpt lat="43.5873090334055" lon="11.075139483665268"><ele>209.4</ele><time>2026-03-29T11:26:23.005Z</time></trkpt><trkpt lat="43.587416592081574" lon="11.075099119020324"><ele>211.2</ele><time>2026-03-29T11:26:24.005Z</time></trkpt><trkpt lat="43.587511908332274" lon="11.075071081689854"><ele>213.0</ele><time>2026-03-29T11:26:25.005Z</time></trkpt><trkpt lat="43.58760661443168" lon="11.075041575416186"><ele>213.0</ele><time>2026-03-29T11:26:26.005Z</time></trkpt><trkpt lat="43.58769454269136" lon="11.075013680875697"><ele>213.0</ele><time>2026-03-29T11:26:27.005Z</time></trkpt><trkpt lat="43.58779077619264" lon="11.075005761033283"><ele>213.0</ele><time>2026-03-29T11:26:28.005Z</time></trkpt><trkpt lat="43.58787614359981" lon="11.074945076984308"><ele>213.0</ele><time>2026-03-29T11:26:29.005Z</time></trkpt><trkpt lat="43.58794431472539" lon="11.074915412120234"><ele>213.0</ele><time>2026-03-29T11:26:30.005Z</time></trkpt><trkpt lat="43.58805814075515" lon="11.074822593910545"><ele>207.0</ele><time>2026-03-29T11:26:32.005Z</time></trkpt><trkpt lat="43.58813272442815" lon="11.074731393367891"><ele>201.0</ele><time>2026-03-29T11:26:33.005Z</time></trkpt><trkpt lat="43.58820479585832" lon="11.074533062304498"><ele>195.0</ele><time>2026-03-29T11:26:34.005Z</time></trkpt><trkpt lat="43.58825531524531" lon="11.074299351878976"><ele>189.0</ele><time>2026-03-29T11:26:35.005Z</time></trkpt><trkpt lat="43.588308415745274" lon="11.074111333945346"><ele>187.25</ele><time>2026-03-29T11:26:36.005Z</time></trkpt><trkpt lat="43.588361038333744" lon="11.073928920571879"><ele>185.5</ele><time>2026-03-29T11:26:37.005Z</time></trkpt><trkpt lat="43.58840338801021" lon="11.073774703822085"><ele>183.75</ele><time>2026-03-29T11:26:38.005Z</time></trkpt><trkpt lat="43.58845418308589" lon="11.073665874765002"><ele>182.0</ele><time>2026-03-29T11:26:39.005Z</time></trkpt><trkpt lat="43.588533232242675" lon="11.073547764269033"><ele>182.0</ele><time>2026-03-29T11:26:40.005Z</time></trkpt><trkpt lat="43.58861151870911" lon="11.073406648554805"><ele>182.0</ele><time>2026-03-29T11:26:41.005Z</time></trkpt><trkpt lat="43.58867788546604" lon="11.073278483434608"><ele>182.0</ele><time>2026-03-29T11:26:42.005Z</time></trkpt><trkpt lat="43.588712140047576" lon="11.07319971535621"><ele>182.0</ele><time>2026-03-29T11:26:43.005Z</time></trkpt><trkpt lat="43.588735975359796" lon="11.073104180793202"><ele>182.0</ele><time>2026-03-29T11:26:44.005Z</time></trkpt><trkpt lat="43.58875223341122" lon="11.072994563443416"><ele>183.0</ele><time>2026-03-29T11:26:45.005Z</time></trkpt><trkpt lat="43.58874079712196" lon="11.072857616349506"><ele>184.0</ele><time>2026-03-29T11:26:46.005Z</time></trkpt><trkpt lat="43.58870515689226" lon="11.072709099582033"><ele>185.0</ele><time>2026-03-29T11:26:47.005Z</time></trkpt><trkpt lat="43.58866785719055" lon="11.072584470032865"><ele>186.0</ele><time>2026-03-29T11:26:48.005Z</time></trkpt><trkpt lat="43.588640554260415" lon="11.072459740638571"><ele>187.0</ele><time>2026-03-29T11:26:49.005Z</time></trkpt><trkpt lat="43.58862891661273" lon="11.072315499050688"><ele>187.0</ele><time>2026-03-29T11:26:50.005Z</time></trkpt><trkpt lat="43.58864027432386" lon="11.072187270338791"><ele>187.0</ele><time>2026-03-29T11:26:51.005Z</time></trkpt><trkpt lat="43.588667051109546" lon="11.072060287837198"><ele>187.0</ele><time>2026-03-29T11:26:52.005Z</time></trkpt><trkpt lat="43.588692747907395" lon="11.071916232747594"><ele>187.0</ele><time>2026-03-29T11:26:53.005Z</time></trkpt><trkpt lat="43.58872219020823" lon="11.071791027016717"><ele>187.0</ele><time>2026-03-29T11:26:54.005Z</time></trkpt><trkpt lat="43.58874968314824" lon="11.071683867046096"><ele>185.6</ele><time>2026-03-29T11:26:55.005Z</time></trkpt><trkpt lat="43.58879240614154" lon="11.071579483938056"><ele>184.2</ele><time>2026-03-29T11:26:56.005Z</time></trkpt><trkpt lat="43.588883583364776" lon="11.071505347078793"><ele>182.8</ele><time>2026-03-29T11:26:57.005Z</time></trkpt><trkpt lat="43.588937589315556" lon="11.071420187183238"><ele>181.4</ele><time>2026-03-29T11:26:58.005Z</time></trkpt><trkpt lat="43.58903026968028" lon="11.071396842339526"><ele>180.0</ele><time>2026-03-29T11:26:59.005Z</time></trkpt><trkpt lat="43.58912459542485" lon="11.071377203095677"><ele>180.0</ele><time>2026-03-29T11:27:00.007Z</time></trkpt><trkpt lat="43.58921895956037" lon="11.071364332440684"><ele>180.0</ele><time>2026-03-29T11:27:01.006Z</time></trkpt><trkpt lat="43.589304571917566" lon="11.071359881615109"><ele>180.0</ele><time>2026-03-29T11:27:02.006Z</time></trkpt><trkpt lat="43.5894034122628" lon="11.07133823587904"><ele>180.0</ele><time>2026-03-29T11:27:03.007Z</time></trkpt><trkpt lat="43.58949279688615" lon="11.07134778827414"><ele>180.0</ele><time>2026-03-29T11:27:04.007Z</time></trkpt><trkpt lat="43.58957328549982" lon="11.071349383801822"><ele>178.5</ele><time>2026-03-29T11:27:05.007Z</time></trkpt><trkpt lat="43.58966471485974" lon="11.071345290115056"><ele>177.0</ele><time>2026-03-29T11:27:06.007Z</time></trkpt><trkpt lat="43.58975196211344" lon="11.071350661052836"><ele>175.5</ele><time>2026-03-29T11:27:07.006Z</time></trkpt><trkpt lat="43.58983699127821" lon="11.071336604967083"><ele>174.0</ele><time>2026-03-29T11:27:08.006Z</time></trkpt><trkpt lat="43.58991874112237" lon="11.071311982015297"><ele>172.5</ele><time>2026-03-29T11:27:09.006Z</time></trkpt><trkpt lat="43.59000374805106" lon="11.071278127948466"><ele>171.0</ele><time>2026-03-29T11:27:10.007Z</time></trkpt><trkpt lat="43.59009299386609" lon="11.071224910986027"><ele>171.0</ele><time>2026-03-29T11:27:11.007Z</time></trkpt><trkpt lat="43.590179413077344" lon="11.071160086250485"><ele>171.0</ele><time>2026-03-29T11:27:12.006Z</time></trkpt><trkpt lat="43.59027590218639" lon="11.07109665246472"><ele>171.0</ele><time>2026-03-29T11:27:13.007Z</time></trkpt><trkpt lat="43.590383999355396" lon="11.071027815076109"><ele>171.0</ele><time>2026-03-29T11:27:14.007Z</time></trkpt><trkpt lat="43.59051276052033" lon="11.070942115641078"><ele>170.8</ele><time>2026-03-29T11:27:15.007Z</time></trkpt><trkpt lat="43.59061433103873" lon="11.070874907225743"><ele>170.60000000000002</ele><time>2026-03-29T11:27:16.007Z</time></trkpt><trkpt lat="43.59071864915143" lon="11.070810981857274"><ele>170.4</ele><time>2026-03-29T11:27:17.007Z</time></trkpt><trkpt lat="43.59080470088152" lon="11.07074913123718"><ele>170.2</ele><time>2026-03-29T11:27:18.007Z</time></trkpt><trkpt lat="43.590889419496264" lon="11.070706436470747"><ele>170.0</ele><time>2026-03-29T11:27:19.007Z</time></trkpt><trkpt lat="43.5909750707676" lon="11.07064025173793"><ele>170.66666666666666</ele><time>2026-03-29T11:27:20.007Z</time></trkpt><trkpt lat="43.5910452874737" lon="11.070572325053213"><ele>171.33333333333331</ele><time>2026-03-29T11:27:21.007Z</time></trkpt><trkpt lat="43.591091830896666" lon="11.070492597447076"><ele>172.0</ele><time>2026-03-29T11:27:22.007Z</time></trkpt><trkpt lat="43.59112164639025" lon="11.070385910777231"><ele>172.66666666666666</ele><time>2026-03-29T11:27:23.007Z</time></trkpt><trkpt lat="43.591143540264774" lon="11.070285023216309"><ele>173.33333333333334</ele><time>2026-03-29T11:27:24.007Z</time></trkpt><trkpt lat="43.59115720583859" lon="11.070179428536017"><ele>174.0</ele><time>2026-03-29T11:27:25.007Z</time></trkpt><trkpt lat="43.59117401890797" lon="11.070067110344818"><ele>176.0</ele><time>2026-03-29T11:27:26.007Z</time></trkpt><trkpt lat="43.59118748330703" lon="11.06996937001149"><ele>178.0</ele><time>2026-03-29T11:27:27.007Z</time></trkpt><trkpt lat="43.59122999247717" lon="11.06981677348528"><ele>180.0</ele><time>2026-03-29T11:27:29.007Z</time></trkpt><trkpt lat="43.591261976951884" lon="11.069696040342283"><ele>182.0</ele><time>2026-03-29T11:27:32.007Z</time></trkpt><trkpt lat="43.591303599092036" lon="11.069548434488162"><ele>184.0</ele><time>2026-03-29T11:27:34.007Z</time></trkpt><trkpt lat="43.591324163415365" lon="11.06943092309475"><ele>184.0</ele><time>2026-03-29T11:27:36.007Z</time></trkpt><trkpt lat="43.591341755727655" lon="11.069332698448347"><ele>184.0</ele><time>2026-03-29T11:27:37.007Z</time></trkpt><trkpt lat="43.59138490391168" lon="11.069220537075962"><ele>184.0</ele><time>2026-03-29T11:27:38.007Z</time></trkpt><trkpt lat="43.59140134674179" lon="11.069087261800298"><ele>184.0</ele><time>2026-03-29T11:27:39.007Z</time></trkpt><trkpt lat="43.591436788814875" lon="11.068933943822515"><ele>184.0</ele><time>2026-03-29T11:27:40.007Z</time></trkpt><trkpt lat="43.59145064132817" lon="11.06875017360124"><ele>182.66666666666669</ele><time>2026-03-29T11:27:41.007Z</time></trkpt><trkpt lat="43.59146375621459" lon="11.06850624474678"><ele>181.33333333333334</ele><time>2026-03-29T11:27:42.007Z</time></trkpt><trkpt lat="43.59145899623505" lon="11.06829378524309"><ele>180.0</ele><time>2026-03-29T11:27:43.007Z</time></trkpt><trkpt lat="43.591470817437106" lon="11.068115820224701"><ele>179.25</ele><time>2026-03-29T11:27:44.007Z</time></trkpt><trkpt lat="43.59146366453028" lon="11.067951524488787"><ele>178.5</ele><time>2026-03-29T11:27:45.007Z</time></trkpt><trkpt lat="43.5914571997255" lon="11.06775423919237"><ele>177.75</ele><time>2026-03-29T11:27:46.007Z</time></trkpt><trkpt lat="43.591418703630026" lon="11.067517247934067"><ele>177.0</ele><time>2026-03-29T11:27:47.007Z</time></trkpt><trkpt lat="43.5913825459251" lon="11.067263249165228"><ele>174.33333333333334</ele><time>2026-03-29T11:27:48.007Z</time></trkpt><trkpt lat="43.59133483763637" lon="11.066986250941628"><ele>171.66666666666669</ele><time>2026-03-29T11:27:49.007Z</time></trkpt><trkpt lat="43.59129721727693" lon="11.066701648671613"><ele>169.0</ele><time>2026-03-29T11:27:50.006Z</time></trkpt><trkpt lat="43.591288813377" lon="11.06643058483584"><ele>167.33333333333334</ele><time>2026-03-29T11:27:51.006Z</time></trkpt><trkpt lat="43.59125266386308" lon="11.066177544883567"><ele>165.66666666666666</ele><time>2026-03-29T11:27:52.006Z</time></trkpt><trkpt lat="43.59120455100689" lon="11.065951228680436"><ele>164.0</ele><time>2026-03-29T11:27:53.006Z</time></trkpt><trkpt lat="43.59117199831232" lon="11.065747171569743"><ele>163.75</ele><time>2026-03-29T11:27:54.006Z</time></trkpt><trkpt lat="43.59116590854119" lon="11.065550156901075"><ele>163.5</ele><time>2026-03-29T11:27:55.006Z</time></trkpt><trkpt lat="43.59114640717041" lon="11.06536286123922"><ele>163.25</ele><time>2026-03-29T11:27:56.006Z</time></trkpt><trkpt lat="43.59113557284257" lon="11.06519075287473"><ele>163.0</ele><time>2026-03-29T11:27:57.006Z</time></trkpt><trkpt lat="43.59113515486602" lon="11.065012225536222"><ele>164.75</ele><time>2026-03-29T11:27:58.006Z</time></trkpt><trkpt lat="43.59117740281249" lon="11.064844808379394"><ele>166.5</ele><time>2026-03-29T11:27:59.006Z</time></trkpt><trkpt lat="43.59126666693463" lon="11.064684434812213"><ele>168.25</ele><time>2026-03-29T11:28:00.006Z</time></trkpt><trkpt lat="43.59134973560881" lon="11.06452484023244"><ele>170.0</ele><time>2026-03-29T11:28:01.006Z</time></trkpt><trkpt lat="43.59142628694785" lon="11.06439401416615"><ele>170.0</ele><time>2026-03-29T11:28:02.006Z</time></trkpt><trkpt lat="43.591504049846826" lon="11.06429109030642"><ele>170.0</ele><time>2026-03-29T11:28:03.006Z</time></trkpt><trkpt lat="43.59158342415243" lon="11.06423122145524"><ele>170.0</ele><time>2026-03-29T11:28:04.006Z</time></trkpt><trkpt lat="43.59167912959091" lon="11.064205484427973"><ele>170.0</ele><time>2026-03-29T11:28:05.006Z</time></trkpt><trkpt lat="43.59181002773177" lon="11.064206010697946"><ele>170.0</ele><time>2026-03-29T11:28:06.006Z</time></trkpt><trkpt lat="43.59195841025892" lon="11.064214252337047"><ele>173.66666666666666</ele><time>2026-03-29T11:28:07.006Z</time></trkpt><trkpt lat="43.592131394485826" lon="11.064223473069232"><ele>177.33333333333334</ele><time>2026-03-29T11:28:08.006Z</time></trkpt><trkpt lat="43.59231337788616" lon="11.06424174520293"><ele>181.0</ele><time>2026-03-29T11:28:09.006Z</time></trkpt><trkpt lat="43.592458981071786" lon="11.064240457706559"><ele>181.0</ele><time>2026-03-29T11:28:10.006Z</time></trkpt><trkpt lat="43.59258044942158" lon="11.064230047757807"><ele>181.0</ele><time>2026-03-29T11:28:11.006Z</time></trkpt><trkpt lat="43.59268383651137" lon="11.06421023003273"><ele>181.0</ele><time>2026-03-29T11:28:12.006Z</time></trkpt><trkpt lat="43.59278002889501" lon="11.064127707187799"><ele>181.0</ele><time>2026-03-29T11:28:13.006Z</time></trkpt><trkpt lat="43.59287964371995" lon="11.064019959926918"><ele>183.75</ele><time>2026-03-29T11:28:14.006Z</time></trkpt><trkpt lat="43.59295526163643" lon="11.063894268729328"><ele>186.5</ele><time>2026-03-29T11:28:15.006Z</time></trkpt><trkpt lat="43.59303636997536" lon="11.063726916978025"><ele>189.25</ele><time>2026-03-29T11:28:16.006Z</time></trkpt><trkpt lat="43.593112600115255" lon="11.063547899723366"><ele>192.0</ele><time>2026-03-29T11:28:17.006Z</time></trkpt><trkpt lat="43.59318580621367" lon="11.063324163884117"><ele>194.66666666666669</ele><time>2026-03-29T11:28:18.006Z</time></trkpt><trkpt lat="43.593241925418425" lon="11.063099230444651"><ele>197.33333333333334</ele><time>2026-03-29T11:28:19.006Z</time></trkpt><trkpt lat="43.59328863561147" lon="11.0628627240734"><ele>200.0</ele><time>2026-03-29T11:28:20.006Z</time></trkpt><trkpt lat="43.59332719837419" lon="11.062609023254476"><ele>200.75</ele><time>2026-03-29T11:28:21.006Z</time></trkpt><trkpt lat="43.59335693253665" lon="11.062377476153745"><ele>201.5</ele><time>2026-03-29T11:28:22.006Z</time></trkpt><trkpt lat="43.59336870775908" lon="11.062182125317303"><ele>202.25</ele><time>2026-03-29T11:28:23.006Z</time></trkpt><trkpt lat="43.59337156690865" lon="11.062020603197272"><ele>203.0</ele><time>2026-03-29T11:28:24.006Z</time></trkpt><trkpt lat="43.5933669922285" lon="11.061902282646534"><ele>203.0</ele><time>2026-03-29T11:28:25.006Z</time></trkpt><trkpt lat="43.593371300890794" lon="11.061801262045279"><ele>203.0</ele><time>2026-03-29T11:28:26.006Z</time></trkpt><trkpt lat="43.59337768155077" lon="11.061698068446374"><ele>203.0</ele><time>2026-03-29T11:28:27.006Z</time></trkpt><trkpt lat="43.59338204786774" lon="11.061553850384618"><ele>203.0</ele><time>2026-03-29T11:28:29.006Z</time></trkpt><trkpt lat="43.59359992886111" lon="11.061517027452625"><ele>203.33333333333334</ele><time>2026-03-29T11:28:46.006Z</time></trkpt><trkpt lat="43.59371302168397" lon="11.061480245445077"><ele>203.66666666666669</ele><time>2026-03-29T11:28:47.006Z</time></trkpt><trkpt lat="43.59380728471322" lon="11.061445112513038"><ele>204.0</ele><time>2026-03-29T11:28:48.006Z</time></trkpt><trkpt lat="43.59388383826808" lon="11.061415116051696"><ele>204.33333333333331</ele><time>2026-03-29T11:28:49.006Z</time></trkpt><trkpt lat="43.59394416559293" lon="11.061389284433147"><ele>204.66666666666666</ele><time>2026-03-29T11:28:50.006Z</time></trkpt><trkpt lat="43.59401602137188" lon="11.061391205837152"><ele>205.0</ele><time>2026-03-29T11:28:51.006Z</time></trkpt><trkpt lat="43.594092108445516" lon="11.06136809652999"><ele>205.0</ele><time>2026-03-29T11:28:52.006Z</time></trkpt><trkpt lat="43.594178006729166" lon="11.061321776364002"><ele>205.0</ele><time>2026-03-29T11:28:53.006Z</time></trkpt><trkpt lat="43.59429065859" lon="11.061278324545338"><ele>205.0</ele><time>2026-03-29T11:28:54.006Z</time></trkpt><trkpt lat="43.594392980880556" lon="11.061237454371872"><ele>205.0</ele><time>2026-03-29T11:28:55.006Z</time></trkpt><trkpt lat="43.59448154166019" lon="11.061214752992218"><ele>205.0</ele><time>2026-03-29T11:28:56.006Z</time></trkpt><trkpt lat="43.59456483406811" lon="11.061173675374008"><ele>204.16666666666666</ele><time>2026-03-29T11:28:57.006Z</time></trkpt><trkpt lat="43.594639874286706" lon="11.061133469549356"><ele>203.33333333333331</ele><time>2026-03-29T11:28:58.006Z</time></trkpt><trkpt lat="43.594709806139136" lon="11.06109395571566"><ele>202.5</ele><time>2026-03-29T11:28:59.006Z</time></trkpt><trkpt lat="43.59477972284787" lon="11.061069527609336"><ele>201.66666666666669</ele><time>2026-03-29T11:29:00.006Z</time></trkpt><trkpt lat="43.59485066080904" lon="11.061036155393442"><ele>200.83333333333334</ele><time>2026-03-29T11:29:01.006Z</time></trkpt><trkpt lat="43.594932378232265" lon="11.061032082464328"><ele>200.0</ele><time>2026-03-29T11:29:02.006Z</time></trkpt><trkpt lat="43.59505136030685" lon="11.061060507888259"><ele>200.0</ele><time>2026-03-29T11:29:03.006Z</time></trkpt><trkpt lat="43.595147509509985" lon="11.061100238660247"><ele>200.0</ele><time>2026-03-29T11:29:04.006Z</time></trkpt><trkpt lat="43.59522809683589" lon="11.061160958870783"><ele>200.0</ele><time>2026-03-29T11:29:05.006Z</time></trkpt><trkpt lat="43.59529091659661" lon="11.061238666322293"><ele>200.0</ele><time>2026-03-29T11:29:06.007Z</time></trkpt><trkpt lat="43.59535033614119" lon="11.061342316895518"><ele>200.0</ele><time>2026-03-29T11:29:07.007Z</time></trkpt><trkpt lat="43.59541406832658" lon="11.06144872484422"><ele>197.8</ele><time>2026-03-29T11:29:08.007Z</time></trkpt><trkpt lat="43.5954780384999" lon="11.06154174708937"><ele>195.6</ele><time>2026-03-29T11:29:09.007Z</time></trkpt><trkpt lat="43.595542248219715" lon="11.061618444300223"><ele>193.39999999999998</ele><time>2026-03-29T11:29:10.007Z</time></trkpt><trkpt lat="43.5956726522727" lon="11.061706440703071"><ele>191.2</ele><time>2026-03-29T11:29:12.007Z</time></trkpt><trkpt lat="43.59575905612918" lon="11.061713046038623"><ele>189.0</ele><time>2026-03-29T11:29:13.007Z</time></trkpt><trkpt lat="43.595837419158656" lon="11.061734482643413"><ele>189.0</ele><time>2026-03-29T11:29:14.007Z</time></trkpt><trkpt lat="43.595917591453144" lon="11.061761598341631"><ele>189.0</ele><time>2026-03-29T11:29:15.007Z</time></trkpt><trkpt lat="43.59598148188189" lon="11.061772238379895"><ele>189.0</ele><time>2026-03-29T11:29:16.007Z</time></trkpt><trkpt lat="43.59609280635581" lon="11.061706986559784"><ele>189.0</ele><time>2026-03-29T11:29:18.007Z</time></trkpt><trkpt lat="43.596135470736606" lon="11.061546852236601"><ele>189.0</ele><time>2026-03-29T11:29:20.007Z</time></trkpt><trkpt lat="43.59614503898035" lon="11.061458525846616"><ele>188.0</ele><time>2026-03-29T11:29:21.007Z</time></trkpt><trkpt lat="43.59614751127244" lon="11.061361022396866"><ele>187.0</ele><time>2026-03-29T11:29:22.007Z</time></trkpt><trkpt lat="43.5961283262941" lon="11.061247173625345"><ele>186.0</ele><time>2026-03-29T11:29:23.007Z</time></trkpt><trkpt lat="43.59608968818921" lon="11.061145176905528"><ele>185.0</ele><time>2026-03-29T11:29:24.007Z</time></trkpt><trkpt lat="43.59601496314068" lon="11.061042135036686"><ele>184.0</ele><time>2026-03-29T11:29:25.007Z</time></trkpt><trkpt lat="43.5959299347657" lon="11.060936226000205"><ele>184.0</ele><time>2026-03-29T11:29:26.007Z</time></trkpt><trkpt lat="43.595846722140955" lon="11.060827192602758"><ele>184.0</ele><time>2026-03-29T11:29:27.007Z</time></trkpt><trkpt lat="43.59577781742555" lon="11.060727563255517"><ele>184.0</ele><time>2026-03-29T11:29:28.007Z</time></trkpt><trkpt lat="43.59572001480152" lon="11.060634626708673"><ele>184.0</ele><time>2026-03-29T11:29:29.007Z</time></trkpt><trkpt lat="43.595662034681006" lon="11.060550339364452"><ele>184.0</ele><time>2026-03-29T11:29:30.007Z</time></trkpt><trkpt lat="43.59558671532673" lon="11.06046002372548"><ele>182.2</ele><time>2026-03-29T11:29:31.007Z</time></trkpt><trkpt lat="43.595544697918356" lon="11.060372690739564"><ele>180.39999999999998</ele><time>2026-03-29T11:29:32.007Z</time></trkpt><trkpt lat="43.59551886793699" lon="11.060278921107194"><ele>178.6</ele><time>2026-03-29T11:29:33.007Z</time></trkpt><trkpt lat="43.595539598541386" lon="11.060159110968229"><ele>176.8</ele><time>2026-03-29T11:29:34.007Z</time></trkpt><trkpt lat="43.595576110309835" lon="11.0600219197767"><ele>175.0</ele><time>2026-03-29T11:29:35.007Z</time></trkpt><trkpt lat="43.5956538804693" lon="11.059875438252424"><ele>172.5</ele><time>2026-03-29T11:29:36.007Z</time></trkpt><trkpt lat="43.59570100091428" lon="11.059671147480204"><ele>170.0</ele><time>2026-03-29T11:29:37.007Z</time></trkpt><trkpt lat="43.59574844202219" lon="11.059506118163748"><ele>167.5</ele><time>2026-03-29T11:29:38.007Z</time></trkpt><trkpt lat="43.59581427529843" lon="11.059343175808332"><ele>165.0</ele><time>2026-03-29T11:29:39.007Z</time></trkpt><trkpt lat="43.59585985447406" lon="11.059183701053934"><ele>163.75</ele><time>2026-03-29T11:29:40.006Z</time></trkpt><trkpt lat="43.595889510082365" lon="11.059028965220138"><ele>162.5</ele><time>2026-03-29T11:29:41.006Z</time></trkpt><trkpt lat="43.595966560785875" lon="11.0588954752976"><ele>161.25</ele><time>2026-03-29T11:29:42.006Z</time></trkpt><trkpt lat="43.59608628249343" lon="11.05879253725386"><ele>160.0</ele><time>2026-03-29T11:29:43.006Z</time></trkpt><trkpt lat="43.596230748999425" lon="11.058641400921571"><ele>160.0</ele><time>2026-03-29T11:29:44.006Z</time></trkpt><trkpt lat="43.59636275125189" lon="11.058481370840166"><ele>160.0</ele><time>2026-03-29T11:29:45.006Z</time></trkpt><trkpt lat="43.59649336640222" lon="11.058350037982823"><ele>160.0</ele><time>2026-03-29T11:29:46.006Z</time></trkpt><trkpt lat="43.59661144458589" lon="11.058253804141524"><ele>160.0</ele><time>2026-03-29T11:29:47.006Z</time></trkpt><trkpt lat="43.596709429919784" lon="11.05817060906535"><ele>160.0</ele><time>2026-03-29T11:29:48.006Z</time></trkpt><trkpt lat="43.59678907797965" lon="11.058086076850682"><ele>160.0</ele><time>2026-03-29T11:29:49.006Z</time></trkpt><trkpt lat="43.59686613489123" lon="11.058043585802617"><ele>160.0</ele><time>2026-03-29T11:29:50.006Z</time></trkpt><trkpt lat="43.596932827011685" lon="11.058006808916172"><ele>160.0</ele><time>2026-03-29T11:29:51.006Z</time></trkpt><trkpt lat="43.597038781153735" lon="11.057941987976273"><ele>159.5</ele><time>2026-03-29T11:29:53.006Z</time></trkpt><trkpt lat="43.597102098569266" lon="11.057899291218277"><ele>159.0</ele><time>2026-03-29T11:29:54.006Z</time></trkpt><trkpt lat="43.597172911754726" lon="11.057862755188442"><ele>158.5</ele><time>2026-03-29T11:29:55.006Z</time></trkpt><trkpt lat="43.5972500061479" lon="11.057845297410173"><ele>158.0</ele><time>2026-03-29T11:29:56.006Z</time></trkpt><trkpt lat="43.597345571084325" lon="11.057833355811823"><ele>157.5</ele><time>2026-03-29T11:29:57.006Z</time></trkpt><trkpt lat="43.597467680073635" lon="11.057822200483702"><ele>157.0</ele><time>2026-03-29T11:29:58.006Z</time></trkpt><trkpt lat="43.597599185059266" lon="11.057830063393062"><ele>157.0</ele><time>2026-03-29T11:29:59.006Z</time></trkpt><trkpt lat="43.597716231700026" lon="11.057836696810265"><ele>157.0</ele><time>2026-03-29T11:30:00.006Z</time></trkpt><trkpt lat="43.59782894286382" lon="11.057849747928492"><ele>157.0</ele><time>2026-03-29T11:30:01.006Z</time></trkpt><trkpt lat="43.597943114996355" lon="11.05787545137538"><ele>157.0</ele><time>2026-03-29T11:30:02.006Z</time></trkpt><trkpt lat="43.5980552500433" lon="11.057925474890645"><ele>156.75</ele><time>2026-03-29T11:30:03.006Z</time></trkpt><trkpt lat="43.59817707295605" lon="11.057986513223176"><ele>156.5</ele><time>2026-03-29T11:30:04.006Z</time></trkpt><trkpt lat="43.59831591786743" lon="11.058059458986566"><ele>156.25</ele><time>2026-03-29T11:30:05.006Z</time></trkpt><trkpt lat="43.59845845551928" lon="11.05809555172763"><ele>156.0</ele><time>2026-03-29T11:30:06.006Z</time></trkpt><trkpt lat="43.59860493160236" lon="11.058122345742278"><ele>158.8</ele><time>2026-03-29T11:30:07.006Z</time></trkpt><trkpt lat="43.598739617979895" lon="11.058144136319324"><ele>161.6</ele><time>2026-03-29T11:30:08.006Z</time></trkpt><trkpt lat="43.59885731028131" lon="11.058142304809662"><ele>164.4</ele><time>2026-03-29T11:30:09.006Z</time></trkpt><trkpt lat="43.59894557993741" lon="11.05811558370868"><ele>167.2</ele><time>2026-03-29T11:30:10.006Z</time></trkpt><trkpt lat="43.59903839595436" lon="11.05806663172897"><ele>170.0</ele><time>2026-03-29T11:30:11.006Z</time></trkpt><trkpt lat="43.599144365329806" lon="11.058020423040253"><ele>170.0</ele><time>2026-03-29T11:30:12.006Z</time></trkpt><trkpt lat="43.599253851902475" lon="11.057949471545225"><ele>170.0</ele><time>2026-03-29T11:30:13.006Z</time></trkpt><trkpt lat="43.59934318658733" lon="11.05785402296597"><ele>170.0</ele><time>2026-03-29T11:30:14.006Z</time></trkpt><trkpt lat="43.59945273690488" lon="11.0577579567068"><ele>170.0</ele><time>2026-03-29T11:30:15.006Z</time></trkpt><trkpt lat="43.599582399329236" lon="11.057651884998439"><ele>172.5</ele><time>2026-03-29T11:30:16.006Z</time></trkpt><trkpt lat="43.599720556006424" lon="11.057536624231872"><ele>175.0</ele><time>2026-03-29T11:30:17.006Z</time></trkpt><trkpt lat="43.59984508455576" lon="11.057433751592455"><ele>177.5</ele><time>2026-03-29T11:30:18.006Z</time></trkpt><trkpt lat="43.599954204117005" lon="11.057335223529606"><ele>180.0</ele><time>2026-03-29T11:30:19.006Z</time></trkpt><trkpt lat="43.60006415564134" lon="11.057231858530152"><ele>180.0</ele><time>2026-03-29T11:30:20.006Z</time></trkpt><trkpt lat="43.600177688618125" lon="11.057130374715216"><ele>180.0</ele><time>2026-03-29T11:30:21.006Z</time></trkpt><trkpt lat="43.600286403540174" lon="11.057048567118708"><ele>180.0</ele><time>2026-03-29T11:30:22.006Z</time></trkpt><trkpt lat="43.60038179248274" lon="11.056962110439438"><ele>180.0</ele><time>2026-03-29T11:30:23.006Z</time></trkpt><trkpt lat="43.600458063803124" lon="11.056893751632595"><ele>181.0</ele><time>2026-03-29T11:30:24.006Z</time></trkpt><trkpt lat="43.60053189804944" lon="11.056832640090198"><ele>182.0</ele><time>2026-03-29T11:30:25.006Z</time></trkpt><trkpt lat="43.60061368637269" lon="11.0567716141913"><ele>183.0</ele><time>2026-03-29T11:30:26.006Z</time></trkpt><trkpt lat="43.600697671007126" lon="11.056703090197699"><ele>184.0</ele><time>2026-03-29T11:30:27.006Z</time></trkpt><trkpt lat="43.60080104493828" lon="11.056630709255375"><ele>185.0</ele><time>2026-03-29T11:30:28.006Z</time></trkpt><trkpt lat="43.60091866622713" lon="11.056572835667234"><ele>186.33333333333331</ele><time>2026-03-29T11:30:29.006Z</time></trkpt><trkpt lat="43.60104157332791" lon="11.056495689656739"><ele>187.66666666666666</ele><time>2026-03-29T11:30:30.006Z</time></trkpt><trkpt lat="43.60118924426937" lon="11.056392864437948"><ele>189.0</ele><time>2026-03-29T11:30:31.006Z</time></trkpt><trkpt lat="43.60134191613838" lon="11.056270987574612"><ele>189.25</ele><time>2026-03-29T11:30:32.006Z</time></trkpt><trkpt lat="43.601479944452294" lon="11.056170346982094"><ele>189.5</ele><time>2026-03-29T11:30:33.006Z</time></trkpt><trkpt lat="43.601595499857886" lon="11.05608982364096"><ele>189.75</ele><time>2026-03-29T11:30:34.006Z</time></trkpt><trkpt lat="43.60168703490068" lon="11.056015531247196"><ele>190.0</ele><time>2026-03-29T11:30:35.006Z</time></trkpt><trkpt lat="43.60176474220713" lon="11.055945990703012"><ele>190.0</ele><time>2026-03-29T11:30:36.006Z</time></trkpt><trkpt lat="43.60183035549286" lon="11.055851605683378"><ele>190.0</ele><time>2026-03-29T11:30:37.006Z</time></trkpt><trkpt lat="43.601895602465426" lon="11.055751765415934"><ele>190.0</ele><time>2026-03-29T11:30:38.006Z</time></trkpt><trkpt lat="43.60196527867919" lon="11.055617696296396"><ele>190.0</ele><time>2026-03-29T11:30:39.006Z</time></trkpt><trkpt lat="43.60203203562289" lon="11.055464873067562"><ele>190.0</ele><time>2026-03-29T11:30:40.006Z</time></trkpt><trkpt lat="43.60210079949197" lon="11.055303199618752"><ele>188.8</ele><time>2026-03-29T11:30:41.006Z</time></trkpt><trkpt lat="43.60214050672441" lon="11.055180575001554"><ele>187.6</ele><time>2026-03-29T11:30:42.006Z</time></trkpt><trkpt lat="43.60219472265782" lon="11.055033418512284"><ele>186.39999999999998</ele><time>2026-03-29T11:30:44.006Z</time></trkpt><trkpt lat="43.602227604766746" lon="11.054915151078774"><ele>185.2</ele><time>2026-03-29T11:30:45.006Z</time></trkpt><trkpt lat="43.6022401851351" lon="11.05474174902314"><ele>184.0</ele><time>2026-03-29T11:30:46.006Z</time></trkpt><trkpt lat="43.60226764050652" lon="11.054577020135916"><ele>183.0</ele><time>2026-03-29T11:30:47.006Z</time></trkpt><trkpt lat="43.602298314636826" lon="11.054439671877157"><ele>182.0</ele><time>2026-03-29T11:30:48.006Z</time></trkpt><trkpt lat="43.602368250642854" lon="11.054314150744194"><ele>181.0</ele><time>2026-03-29T11:30:49.006Z</time></trkpt><trkpt lat="43.602462624226014" lon="11.054217821835266"><ele>180.0</ele><time>2026-03-29T11:30:50.006Z</time></trkpt><trkpt lat="43.602555228760664" lon="11.05408797480595"><ele>180.66666666666666</ele><time>2026-03-29T11:30:51.006Z</time></trkpt><trkpt lat="43.6026721893873" lon="11.053960025252392"><ele>181.33333333333331</ele><time>2026-03-29T11:30:52.006Z</time></trkpt><trkpt lat="43.60280184383395" lon="11.053805567031198"><ele>182.0</ele><time>2026-03-29T11:30:53.006Z</time></trkpt><trkpt lat="43.602940377251535" lon="11.053649922353445"><ele>182.0</ele><time>2026-03-29T11:30:54.006Z</time></trkpt><trkpt lat="43.60306537464287" lon="11.053508394868501"><ele>182.0</ele><time>2026-03-29T11:30:55.006Z</time></trkpt><trkpt lat="43.60317086767407" lon="11.053397916327674"><ele>182.0</ele><time>2026-03-29T11:30:56.006Z</time></trkpt><trkpt lat="43.603268391345686" lon="11.053291908494026"><ele>182.0</ele><time>2026-03-29T11:30:57.006Z</time></trkpt><trkpt lat="43.6033659123354" lon="11.053217743269093"><ele>181.5</ele><time>2026-03-29T11:30:58.006Z</time></trkpt><trkpt lat="43.60347982213594" lon="11.053144004866331"><ele>181.0</ele><time>2026-03-29T11:30:59.006Z</time></trkpt><trkpt lat="43.603599362586884" lon="11.053078999549285"><ele>180.5</ele><time>2026-03-29T11:31:00.006Z</time></trkpt><trkpt lat="43.603736621977355" lon="11.053016301945778"><ele>180.0</ele><time>2026-03-29T11:31:01.006Z</time></trkpt><trkpt lat="43.60384809955114" lon="11.052975871094977"><ele>180.0</ele><time>2026-03-29T11:31:02.006Z</time></trkpt><trkpt lat="43.603941516532444" lon="11.052963717378544"><ele>180.0</ele><time>2026-03-29T11:31:03.005Z</time></trkpt><trkpt lat="43.60403128204081" lon="11.052977321970175"><ele>180.0</ele><time>2026-03-29T11:31:04.005Z</time></trkpt><trkpt lat="43.604127887455085" lon="11.053033750748218"><ele>180.0</ele><time>2026-03-29T11:31:05.005Z</time></trkpt><trkpt lat="43.60424190476752" lon="11.053070005617156"><ele>180.0</ele><time>2026-03-29T11:31:06.005Z</time></trkpt><trkpt lat="43.60436028800537" lon="11.053144836140168"><ele>180.0</ele><time>2026-03-29T11:31:07.005Z</time></trkpt><trkpt lat="43.604484961142525" lon="11.053214643865418"><ele>180.0</ele><time>2026-03-29T11:31:08.005Z</time></trkpt><trkpt lat="43.60460795001603" lon="11.053274541161311"><ele>180.0</ele><time>2026-03-29T11:31:09.005Z</time></trkpt><trkpt lat="43.60471155729988" lon="11.05332379503675"><ele>180.0</ele><time>2026-03-29T11:31:10.005Z</time></trkpt><trkpt lat="43.60481205069924" lon="11.053364790001545"><ele>180.75</ele><time>2026-03-29T11:31:11.005Z</time></trkpt><trkpt lat="43.60492069593365" lon="11.053412789325355"><ele>181.5</ele><time>2026-03-29T11:31:12.008Z</time></trkpt><trkpt lat="43.60504525432193" lon="11.05347039537704"><ele>182.25</ele><time>2026-03-29T11:31:13.008Z</time></trkpt><trkpt lat="43.605175311390674" lon="11.053540208880383"><ele>183.0</ele><time>2026-03-29T11:31:14.008Z</time></trkpt><trkpt lat="43.60529926906291" lon="11.053602935254393"><ele>180.60000000000002</ele><time>2026-03-29T11:31:15.007Z</time></trkpt><trkpt lat="43.605413026107385" lon="11.053662533696471"><ele>178.20000000000002</ele><time>2026-03-29T11:31:16.008Z</time></trkpt><trkpt lat="43.60552160552129" lon="11.053709465823388"><ele>175.8</ele><time>2026-03-29T11:31:17.008Z</time></trkpt><trkpt lat="43.605606514804656" lon="11.053745228402564"><ele>173.4</ele><time>2026-03-29T11:31:18.008Z</time></trkpt><trkpt lat="43.605677696627666" lon="11.053783344114915"><ele>171.0</ele><time>2026-03-29T11:31:19.007Z</time></trkpt><trkpt lat="43.605746417880376" lon="11.053825906765802"><ele>171.0</ele><time>2026-03-29T11:31:20.007Z</time></trkpt><trkpt lat="43.60581833411661" lon="11.053872343991731"><ele>171.0</ele><time>2026-03-29T11:31:21.008Z</time></trkpt><trkpt lat="43.60589358193646" lon="11.053911573581098"><ele>171.0</ele><time>2026-03-29T11:31:22.007Z</time></trkpt><trkpt lat="43.60594951609712" lon="11.05401641207779"><ele>171.0</ele><time>2026-03-29T11:31:23.007Z</time></trkpt><trkpt lat="43.60602195781441" lon="11.05412252795618"><ele>171.0</ele><time>2026-03-29T11:31:24.008Z</time></trkpt><trkpt lat="43.606085904694034" lon="11.05424742436171"><ele>167.5</ele><time>2026-03-29T11:31:25.007Z</time></trkpt><trkpt lat="43.60616928562265" lon="11.05436146786505"><ele>164.0</ele><time>2026-03-29T11:31:26.007Z</time></trkpt><trkpt lat="43.60628813907309" lon="11.054464376033124"><ele>160.5</ele><time>2026-03-29T11:31:27.007Z</time></trkpt><trkpt lat="43.60642406391475" lon="11.054556934381791"><ele>157.0</ele><time>2026-03-29T11:31:28.007Z</time></trkpt><trkpt lat="43.60656055874683" lon="11.054660243627765"><ele>157.0</ele><time>2026-03-29T11:31:29.007Z</time></trkpt><trkpt lat="43.60667645256772" lon="11.054762396992349"><ele>157.0</ele><time>2026-03-29T11:31:30.007Z</time></trkpt><trkpt lat="43.60679939343089" lon="11.05484681763667"><ele>157.0</ele><time>2026-03-29T11:31:31.007Z</time></trkpt><trkpt lat="43.606920538093945" lon="11.054919329747895"><ele>157.0</ele><time>2026-03-29T11:31:32.007Z</time></trkpt><trkpt lat="43.60706180966532" lon="11.054967397852124"><ele>152.33333333333334</ele><time>2026-03-29T11:31:33.007Z</time></trkpt><trkpt lat="43.607213127367785" lon="11.055011757753453"><ele>147.66666666666666</ele><time>2026-03-29T11:31:34.007Z</time></trkpt><trkpt lat="43.60736037350183" lon="11.055062526257624"><ele>143.0</ele><time>2026-03-29T11:31:35.007Z</time></trkpt><trkpt lat="43.607500975723696" lon="11.05510449420228"><ele>143.0</ele><time>2026-03-29T11:31:36.007Z</time></trkpt><trkpt lat="43.60763719210848" lon="11.055132311446133"><ele>143.0</ele><time>2026-03-29T11:31:37.007Z</time></trkpt><trkpt lat="43.60776846318172" lon="11.055135080324522"><ele>143.0</ele><time>2026-03-29T11:31:38.007Z</time></trkpt><trkpt lat="43.60787575661397" lon="11.05511078161923"><ele>143.0</ele><time>2026-03-29T11:31:39.007Z</time></trkpt><trkpt lat="43.607987910455634" lon="11.055073461932112"><ele>141.75</ele><time>2026-03-29T11:31:40.007Z</time></trkpt><trkpt lat="43.60810356762359" lon="11.055003266699215"><ele>140.5</ele><time>2026-03-29T11:31:41.007Z</time></trkpt><trkpt lat="43.60821754937822" lon="11.054939525670159"><ele>139.25</ele><time>2026-03-29T11:31:42.007Z</time></trkpt><trkpt lat="43.60833415059347" lon="11.054866187572388"><ele>138.0</ele><time>2026-03-29T11:31:43.007Z</time></trkpt><trkpt lat="43.60844766605509" lon="11.054768658682168"><ele>138.0</ele><time>2026-03-29T11:31:44.007Z</time></trkpt><trkpt lat="43.60855407284123" lon="11.054657132657665"><ele>138.0</ele><time>2026-03-29T11:31:45.007Z</time></trkpt><trkpt lat="43.608651915636514" lon="11.054537234320549"><ele>138.0</ele><time>2026-03-29T11:31:46.007Z</time></trkpt><trkpt lat="43.60875509296916" lon="11.0543891834886"><ele>138.0</ele><time>2026-03-29T11:31:47.007Z</time></trkpt><trkpt lat="43.60884644851255" lon="11.054230654984742"><ele>132.25</ele><time>2026-03-29T11:31:48.007Z</time></trkpt><trkpt lat="43.60893574078597" lon="11.054080869790536"><ele>126.5</ele><time>2026-03-29T11:31:49.007Z</time></trkpt><trkpt lat="43.60902858656938" lon="11.05395294514728"><ele>120.75</ele><time>2026-03-29T11:31:50.007Z</time></trkpt><trkpt lat="43.60913964938512" lon="11.053841479624715"><ele>115.0</ele><time>2026-03-29T11:31:51.007Z</time></trkpt><trkpt lat="43.60923358381586" lon="11.053758896303398"><ele>115.0</ele><time>2026-03-29T11:31:52.007Z</time></trkpt><trkpt lat="43.609312693575696" lon="11.05367409495961"><ele>115.0</ele><time>2026-03-29T11:31:53.007Z</time></trkpt><trkpt lat="43.609368281285846" lon="11.053572085691009"><ele>115.0</ele><time>2026-03-29T11:31:54.007Z</time></trkpt><trkpt lat="43.60939431021081" lon="11.053450771142163"><ele>115.0</ele><time>2026-03-29T11:31:55.007Z</time></trkpt><trkpt lat="43.60939634057985" lon="11.053315705495459"><ele>115.0</ele><time>2026-03-29T11:31:56.007Z</time></trkpt><trkpt lat="43.60936797240181" lon="11.053171739413413"><ele>113.83333333333334</ele><time>2026-03-29T11:31:57.007Z</time></trkpt><trkpt lat="43.609356668440185" lon="11.053044748805556"><ele>112.66666666666667</ele><time>2026-03-29T11:31:58.007Z</time></trkpt><trkpt lat="43.60936248249298" lon="11.052953427667335"><ele>111.5</ele><time>2026-03-29T11:31:59.007Z</time></trkpt><trkpt lat="43.60941969955539" lon="11.052900873491291"><ele>110.33333333333334</ele><time>2026-03-29T11:32:00.007Z</time></trkpt><trkpt lat="43.60951439106937" lon="11.052884561702923"><ele>109.16666666666667</ele><time>2026-03-29T11:32:01.007Z</time></trkpt><trkpt lat="43.60963582463006" lon="11.052853495345824"><ele>108.0</ele><time>2026-03-29T11:32:02.007Z</time></trkpt><trkpt lat="43.609761919995044" lon="11.052851174167078"><ele>104.75</ele><time>2026-03-29T11:32:03.007Z</time></trkpt><trkpt lat="43.60987762634475" lon="11.052854231708622"><ele>101.5</ele><time>2026-03-29T11:32:04.007Z</time></trkpt><trkpt lat="43.60998377320587" lon="11.052852115238665"><ele>98.25</ele><time>2026-03-29T11:32:05.007Z</time></trkpt><trkpt lat="43.61009261671542" lon="11.052840940335605"><ele>95.0</ele><time>2026-03-29T11:32:06.007Z</time></trkpt><trkpt lat="43.61022379634083" lon="11.052806068767058"><ele>92.33333333333334</ele><time>2026-03-29T11:32:07.007Z</time></trkpt><trkpt lat="43.61038051884135" lon="11.052749774389802"><ele>89.66666666666667</ele><time>2026-03-29T11:32:08.007Z</time></trkpt><trkpt lat="43.61055599366314" lon="11.052698155153115"><ele>87.0</ele><time>2026-03-29T11:32:09.007Z</time></trkpt><trkpt lat="43.61073966470531" lon="11.052687233174671"><ele>87.0</ele><time>2026-03-29T11:32:10.007Z</time></trkpt><trkpt lat="43.61091573912547" lon="11.052697538400224"><ele>87.0</ele><time>2026-03-29T11:32:11.007Z</time></trkpt><trkpt lat="43.61107353604687" lon="11.052711129985854"><ele>87.0</ele><time>2026-03-29T11:32:12.007Z</time></trkpt><trkpt lat="43.611220755607626" lon="11.052703507310554"><ele>86.75</ele><time>2026-03-29T11:32:13.007Z</time></trkpt><trkpt lat="43.61134066572335" lon="11.052665117643928"><ele>86.5</ele><time>2026-03-29T11:32:14.007Z</time></trkpt><trkpt lat="43.61145069836572" lon="11.05259583227557"><ele>86.25</ele><time>2026-03-29T11:32:15.007Z</time></trkpt><trkpt lat="43.6115550557898" lon="11.052479661248025"><ele>86.0</ele><time>2026-03-29T11:32:16.007Z</time></trkpt><trkpt lat="43.6116423486806" lon="11.05234417039911"><ele>86.0</ele><time>2026-03-29T11:32:17.007Z</time></trkpt><trkpt lat="43.61172107913531" lon="11.052235830037153"><ele>86.0</ele><time>2026-03-29T11:32:18.007Z</time></trkpt><trkpt lat="43.61179666376266" lon="11.052193163221137"><ele>86.0</ele><time>2026-03-29T11:32:19.007Z</time></trkpt><trkpt lat="43.61187515540675" lon="11.052206955457123"><ele>86.0</ele><time>2026-03-29T11:32:20.007Z</time></trkpt><trkpt lat="43.61195378873514" lon="11.052259131006675"><ele>86.0</ele><time>2026-03-29T11:32:21.007Z</time></trkpt><trkpt lat="43.61204687580855" lon="11.052313972646326"><ele>86.75</ele><time>2026-03-29T11:32:22.007Z</time></trkpt><trkpt lat="43.61215995607349" lon="11.052383904883776"><ele>87.5</ele><time>2026-03-29T11:32:23.007Z</time></trkpt><trkpt lat="43.61227691092151" lon="11.052458088741886"><ele>88.25</ele><time>2026-03-29T11:32:24.007Z</time></trkpt><trkpt lat="43.61238739838058" lon="11.052536116425173"><ele>89.0</ele><time>2026-03-29T11:32:25.007Z</time></trkpt><trkpt lat="43.612483241716106" lon="11.052608116061432"><ele>89.0</ele><time>2026-03-29T11:32:26.007Z</time></trkpt><trkpt lat="43.61259201502379" lon="11.052684442460887"><ele>89.0</ele><time>2026-03-29T11:32:27.007Z</time></trkpt><trkpt lat="43.6127029563064" lon="11.052766365241848"><ele>89.0</ele><time>2026-03-29T11:32:28.007Z</time></trkpt><trkpt lat="43.61279746020196" lon="11.052842684095427"><ele>89.0</ele><time>2026-03-29T11:32:29.007Z</time></trkpt><trkpt lat="43.61286560167389" lon="11.052895962388208"><ele>89.0</ele><time>2026-03-29T11:32:30.007Z</time></trkpt><trkpt lat="43.61295246329468" lon="11.05297728943236"><ele>90.6</ele><time>2026-03-29T11:32:32.007Z</time></trkpt><trkpt lat="43.61306120771137" lon="11.052982475743164"><ele>92.2</ele><time>2026-03-29T11:34:08.008Z</time></trkpt><trkpt lat="43.613136637242754" lon="11.052906442959113"><ele>93.8</ele><time>2026-03-29T11:34:10.008Z</time></trkpt><trkpt lat="43.61320984317103" lon="11.052796256018711"><ele>95.39999999999999</ele><time>2026-03-29T11:34:12.008Z</time></trkpt><trkpt lat="43.61328490540207" lon="11.052715784882066"><ele>97.0</ele><time>2026-03-29T11:34:14.008Z</time></trkpt><trkpt lat="43.613306087981094" lon="11.052626312436129"><ele>97.00000000000001</ele><time>2026-03-29T11:34:15.008Z</time></trkpt><trkpt lat="43.613353374027156" lon="11.05254047600716"><ele>97.0</ele><time>2026-03-29T11:34:16.008Z</time></trkpt><trkpt lat="43.6133925678057" lon="11.052460528430304"><ele>97.0</ele><time>2026-03-29T11:34:17.008Z</time></trkpt><trkpt lat="43.61347526251659" lon="11.05234144651395"><ele>97.0</ele><time>2026-03-29T11:34:19.008Z</time></trkpt><trkpt lat="43.61352952994792" lon="11.052287684763037"><ele>97.00000000000001</ele><time>2026-03-29T11:34:20.008Z</time></trkpt><trkpt lat="43.61358545380166" lon="11.052240079004735"><ele>97.0</ele><time>2026-03-29T11:34:21.008Z</time></trkpt><trkpt lat="43.61366920780162" lon="11.052201993970026"><ele>96.19999999999999</ele><time>2026-03-29T11:34:22.008Z</time></trkpt><trkpt lat="43.613792038843975" lon="11.052167651635978"><ele>95.4</ele><time>2026-03-29T11:34:23.008Z</time></trkpt><trkpt lat="43.61391016494374" lon="11.05212818194528"><ele>94.6</ele><time>2026-03-29T11:34:24.008Z</time></trkpt><trkpt lat="43.613999177944905" lon="11.052110834519736"><ele>93.80000000000001</ele><time>2026-03-29T11:34:25.008Z</time></trkpt><trkpt lat="43.614086932526824" lon="11.0520872973773"><ele>93.0</ele><time>2026-03-29T11:34:26.008Z</time></trkpt><trkpt lat="43.61417906593518" lon="11.05205827682795"><ele>93.0</ele><time>2026-03-29T11:34:27.008Z</time></trkpt><trkpt lat="43.61423836101375" lon="11.052029001414166"><ele>93.0</ele><time>2026-03-29T11:34:28.008Z</time></trkpt><trkpt lat="43.614284615457066" lon="11.051969939579434"><ele>93.0</ele><time>2026-03-29T11:34:29.008Z</time></trkpt><trkpt lat="43.61434216853197" lon="11.05189018599736"><ele>93.0</ele><time>2026-03-29T11:34:30.008Z</time></trkpt><trkpt lat="43.614382952327375" lon="11.051759277976087"><ele>93.0</ele><time>2026-03-29T11:34:31.008Z</time></trkpt><trkpt lat="43.614429355243765" lon="11.051595844945853"><ele>93.0</ele><time>2026-03-29T11:34:32.008Z</time></trkpt><trkpt lat="43.61447147821281" lon="11.051438386131686"><ele>95.0</ele><time>2026-03-29T11:34:33.008Z</time></trkpt><trkpt lat="43.61452029436937" lon="11.0512560935296"><ele>97.0</ele><time>2026-03-29T11:34:34.008Z</time></trkpt><trkpt lat="43.614558025340976" lon="11.051097853954769"><ele>99.0</ele><time>2026-03-29T11:34:35.008Z</time></trkpt><trkpt lat="43.6145801266726" lon="11.050955848547884"><ele>101.0</ele><time>2026-03-29T11:34:36.008Z</time></trkpt><trkpt lat="43.61464084219671" lon="11.05082112525079"><ele>99.25</ele><time>2026-03-29T11:34:37.008Z</time></trkpt><trkpt lat="43.614673014860635" lon="11.050675535855495"><ele>97.5</ele><time>2026-03-29T11:34:38.008Z</time></trkpt><trkpt lat="43.614710730743624" lon="11.05052156569474"><ele>95.75</ele><time>2026-03-29T11:34:39.008Z</time></trkpt><trkpt lat="43.61474275143721" lon="11.050352362297827"><ele>94.0</ele><time>2026-03-29T11:34:40.008Z</time></trkpt><trkpt lat="43.614791289365066" lon="11.050187110968833"><ele>94.0</ele><time>2026-03-29T11:34:41.008Z</time></trkpt><trkpt lat="43.614855234360796" lon="11.05006745591055"><ele>94.0</ele><time>2026-03-29T11:34:42.008Z</time></trkpt><trkpt lat="43.61490986300029" lon="11.049957477287313"><ele>94.0</ele><time>2026-03-29T11:34:43.008Z</time></trkpt><trkpt lat="43.61495515356924" lon="11.049852476965457"><ele>94.0</ele><time>2026-03-29T11:34:44.008Z</time></trkpt><trkpt lat="43.61502217157455" lon="11.049783224794842"><ele>94.0</ele><time>2026-03-29T11:34:45.008Z</time></trkpt><trkpt lat="43.61508683254198" lon="11.049713493708051"><ele>93.16666666666666</ele><time>2026-03-29T11:34:46.008Z</time></trkpt><trkpt lat="43.61514136801894" lon="11.049628858664619"><ele>92.33333333333333</ele><time>2026-03-29T11:34:47.008Z</time></trkpt><trkpt lat="43.6151518916758" lon="11.049522103761365"><ele>91.5</ele><time>2026-03-29T11:34:48.008Z</time></trkpt><trkpt lat="43.61510593334201" lon="11.049381596308159"><ele>90.66666666666667</ele><time>2026-03-29T11:34:50.008Z</time></trkpt><trkpt lat="43.61505752126844" lon="11.049309027528288"><ele>89.83333333333334</ele><time>2026-03-29T11:34:51.008Z</time></trkpt><trkpt lat="43.61498991414941" lon="11.049246961320105"><ele>89.0</ele><time>2026-03-29T11:34:52.008Z</time></trkpt><trkpt lat="43.614912037220115" lon="11.049209808550469"><ele>89.0</ele><time>2026-03-29T11:34:53.008Z</time></trkpt><trkpt lat="43.614849820110514" lon="11.049154385248684"><ele>89.0</ele><time>2026-03-29T11:34:54.008Z</time></trkpt><trkpt lat="43.61479509925508" lon="11.049103044362543"><ele>89.0</ele><time>2026-03-29T11:34:55.008Z</time></trkpt><trkpt lat="43.61474220146421" lon="11.049027580835759"><ele>89.0</ele><time>2026-03-29T11:34:56.008Z</time></trkpt><trkpt lat="43.61469892742819" lon="11.048944571795566"><ele>89.0</ele><time>2026-03-29T11:34:57.008Z</time></trkpt><trkpt lat="43.61470525904642" lon="11.048795629360653"><ele>89.0</ele><time>2026-03-29T11:34:59.008Z</time></trkpt><trkpt lat="43.614787143115436" lon="11.048675145425614"><ele>88.6</ele><time>2026-03-29T11:35:01.008Z</time></trkpt><trkpt lat="43.61485027951068" lon="11.048577010254593"><ele>88.2</ele><time>2026-03-29T11:35:02.008Z</time></trkpt><trkpt lat="43.61489989734633" lon="11.048475400387812"><ele>87.8</ele><time>2026-03-29T11:35:03.008Z</time></trkpt><trkpt lat="43.61495690721456" lon="11.04838101490639"><ele>87.39999999999999</ele><time>2026-03-29T11:35:04.008Z</time></trkpt><trkpt lat="43.61501842463252" lon="11.048281125306758"><ele>87.0</ele><time>2026-03-29T11:35:05.008Z</time></trkpt><trkpt lat="43.61508619717101" lon="11.048177665894892"><ele>86.83333333333333</ele><time>2026-03-29T11:35:06.008Z</time></trkpt><trkpt lat="43.615138479332835" lon="11.048107947625699"><ele>86.66666666666667</ele><time>2026-03-29T11:35:07.008Z</time></trkpt><trkpt lat="43.61521671590256" lon="11.047998664894049"><ele>86.5</ele><time>2026-03-29T11:35:09.008Z</time></trkpt><trkpt lat="43.61527831702023" lon="11.047901666075898"><ele>86.33333333333334</ele><time>2026-03-29T11:35:12.008Z</time></trkpt><trkpt lat="43.61529326151621" lon="11.047809565453969"><ele>86.16666666666667</ele><time>2026-03-29T11:35:14.008Z</time></trkpt><trkpt lat="43.61530259180256" lon="11.047675628075732"><ele>86.0</ele><time>2026-03-29T11:35:17.008Z</time></trkpt><trkpt lat="43.61537562467829" lon="11.047544426224013"><ele>86.66666666666667</ele><time>2026-03-29T11:35:19.008Z</time></trkpt><trkpt lat="43.6154260748921" lon="11.047461571722248"><ele>87.33333333333334</ele><time>2026-03-29T11:35:20.008Z</time></trkpt><trkpt lat="43.61547141901206" lon="11.047375388714798"><ele>88.0</ele><time>2026-03-29T11:35:21.008Z</time></trkpt><trkpt lat="43.61551495885415" lon="11.047253518303476"><ele>88.66666666666667</ele><time>2026-03-29T11:35:23.008Z</time></trkpt><trkpt lat="43.61555115357307" lon="11.047158542786017"><ele>89.33333333333333</ele><time>2026-03-29T11:35:24.009Z</time></trkpt><trkpt lat="43.61560703834485" lon="11.047038771831193"><ele>90.0</ele><time>2026-03-29T11:35:25.009Z</time></trkpt><trkpt lat="43.61565766934073" lon="11.04691830224044"><ele>90.2</ele><time>2026-03-29T11:35:26.009Z</time></trkpt><trkpt lat="43.6156862462118" lon="11.04683785028425"><ele>90.4</ele><time>2026-03-29T11:35:27.009Z</time></trkpt><trkpt lat="43.61574398208282" lon="11.046717824808782"><ele>90.6</ele><time>2026-03-29T11:35:29.009Z</time></trkpt><trkpt lat="43.61579760411545" lon="11.046587521311622"><ele>90.8</ele><time>2026-03-29T11:35:31.009Z</time></trkpt><trkpt lat="43.61583020054123" lon="11.046481902193165"><ele>91.0</ele><time>2026-03-29T11:35:32.009Z</time></trkpt><trkpt lat="43.61586505311153" lon="11.04636183542964"><ele>90.66666666666666</ele><time>2026-03-29T11:35:33.009Z</time></trkpt><trkpt lat="43.615894987854404" lon="11.046240657769905"><ele>90.33333333333333</ele><time>2026-03-29T11:35:34.009Z</time></trkpt><trkpt lat="43.61591554818789" lon="11.046138005130231"><ele>90.0</ele><time>2026-03-29T11:35:35.009Z</time></trkpt><trkpt lat="43.61593766991072" lon="11.046043125365856"><ele>89.66666666666667</ele><time>2026-03-29T11:35:36.009Z</time></trkpt><trkpt lat="43.61596936168837" lon="11.045939872577744"><ele>89.33333333333334</ele><time>2026-03-29T11:35:37.009Z</time></trkpt><trkpt lat="43.616005700208724" lon="11.045820767887808"><ele>89.0</ele><time>2026-03-29T11:35:38.009Z</time></trkpt><trkpt lat="43.61602817461823" lon="11.04573582996741"><ele>88.5</ele><time>2026-03-29T11:35:39.009Z</time></trkpt><trkpt lat="43.61604782927786" lon="11.04564455800053"><ele>88.0</ele><time>2026-03-29T11:35:40.009Z</time></trkpt><trkpt lat="43.616078980744824" lon="11.045551865919757"><ele>87.5</ele><time>2026-03-29T11:35:41.009Z</time></trkpt><trkpt lat="43.61609259144635" lon="11.045449624091896"><ele>87.0</ele><time>2026-03-29T11:35:42.008Z</time></trkpt><trkpt lat="43.61610378335161" lon="11.045356704446341"><ele>86.5</ele><time>2026-03-29T11:35:43.008Z</time></trkpt><trkpt lat="43.616131957887696" lon="11.045226540612802"><ele>86.0</ele><time>2026-03-29T11:35:45.008Z</time></trkpt><trkpt lat="43.61617417368807" lon="11.045067967645132"><ele>87.4</ele><time>2026-03-29T11:35:47.008Z</time></trkpt><trkpt lat="43.61619881982378" lon="11.044905897702273"><ele>88.8</ele><time>2026-03-29T11:35:49.008Z</time></trkpt><trkpt lat="43.61620140298714" lon="11.044724307388313"><ele>90.2</ele><time>2026-03-29T11:35:51.008Z</time></trkpt><trkpt lat="43.616200703931" lon="11.044613246785666"><ele>91.60000000000001</ele><time>2026-03-29T11:35:52.008Z</time></trkpt><trkpt lat="43.61619808848515" lon="11.044522609597923"><ele>93.0</ele><time>2026-03-29T11:35:53.008Z</time></trkpt><trkpt lat="43.61619734421804" lon="11.044411470818567"><ele>93.0</ele><time>2026-03-29T11:35:54.008Z</time></trkpt><trkpt lat="43.61620642190778" lon="11.044304573351932"><ele>93.0</ele><time>2026-03-29T11:35:55.008Z</time></trkpt><trkpt lat="43.61620899693225" lon="11.044190846827775"><ele>93.0</ele><time>2026-03-29T11:35:56.008Z</time></trkpt><trkpt lat="43.61622180850784" lon="11.044066838756782"><ele>93.0</ele><time>2026-03-29T11:35:57.008Z</time></trkpt><trkpt lat="43.616231678315906" lon="11.04393120831734"><ele>93.0</ele><time>2026-03-29T11:35:58.008Z</time></trkpt><trkpt lat="43.61623513737762" lon="11.043814226949094"><ele>93.0</ele><time>2026-03-29T11:35:59.008Z</time></trkpt><trkpt lat="43.61623951609479" lon="11.04371585172788"><ele>93.0</ele><time>2026-03-29T11:36:00.008Z</time></trkpt><trkpt lat="43.616250523850454" lon="11.043593904962478"><ele>93.0</ele><time>2026-03-29T11:36:01.008Z</time></trkpt><trkpt lat="43.61624583959957" lon="11.043481259555662"><ele>93.0</ele><time>2026-03-29T11:36:02.008Z</time></trkpt><trkpt lat="43.61625929900644" lon="11.043357572264282"><ele>93.0</ele><time>2026-03-29T11:36:04.008Z</time></trkpt><trkpt lat="43.61620683486867" lon="11.043243305004054"><ele>93.0</ele><time>2026-03-29T11:36:09.008Z</time></trkpt><trkpt lat="43.61618502226475" lon="11.04314490850616"><ele>93.0</ele><time>2026-03-29T11:36:11.008Z</time></trkpt><trkpt lat="43.61625022898857" lon="11.043017950881584"><ele>91.83333333333333</ele><time>2026-03-29T11:36:13.008Z</time></trkpt><trkpt lat="43.616298802061955" lon="11.042944998613653"><ele>90.66666666666667</ele><time>2026-03-29T11:36:14.008Z</time></trkpt><trkpt lat="43.616351844923514" lon="11.042856871882252"><ele>89.5</ele><time>2026-03-29T11:36:16.008Z</time></trkpt><trkpt lat="43.616387703739704" lon="11.042684570643061"><ele>88.33333333333334</ele><time>2026-03-29T11:36:18.008Z</time></trkpt><trkpt lat="43.61642066152377" lon="11.042599181200893"><ele>87.16666666666667</ele><time>2026-03-29T11:36:19.008Z</time></trkpt><trkpt lat="43.61646051944319" lon="11.042518167780006"><ele>86.0</ele><time>2026-03-29T11:36:20.008Z</time></trkpt><trkpt lat="43.61652487340034" lon="11.042434598374175"><ele>85.66666666666667</ele><time>2026-03-29T11:36:21.008Z</time></trkpt><trkpt lat="43.6165963526547" lon="11.04236118965614"><ele>85.33333333333334</ele><time>2026-03-29T11:36:22.008Z</time></trkpt><trkpt lat="43.61667405043111" lon="11.042281466743008"><ele>85.0</ele><time>2026-03-29T11:36:23.008Z</time></trkpt><trkpt lat="43.616743799130454" lon="11.042205105557535"><ele>84.66666666666667</ele><time>2026-03-29T11:36:24.008Z</time></trkpt><trkpt lat="43.616805892100075" lon="11.04212696888391"><ele>84.33333333333333</ele><time>2026-03-29T11:36:25.008Z</time></trkpt><trkpt lat="43.61687347875046" lon="11.042046694839923"><ele>84.0</ele><time>2026-03-29T11:36:26.008Z</time></trkpt><trkpt lat="43.616937231552676" lon="11.041955094745159"><ele>83.80000000000001</ele><time>2026-03-29T11:36:27.008Z</time></trkpt><trkpt lat="43.61701001510495" lon="11.041860250164753"><ele>83.60000000000001</ele><time>2026-03-29T11:36:28.008Z</time></trkpt><trkpt lat="43.61708300159638" lon="11.041765472132456"><ele>83.4</ele><time>2026-03-29T11:36:29.008Z</time></trkpt><trkpt lat="43.61716419149247" lon="11.041664237886115"><ele>83.2</ele><time>2026-03-29T11:36:30.008Z</time></trkpt><trkpt lat="43.61722904820869" lon="11.0415872930475"><ele>83.0</ele><time>2026-03-29T11:36:31.008Z</time></trkpt><trkpt lat="43.61728106131668" lon="11.041524976530042"><ele>83.0</ele><time>2026-03-29T11:36:32.008Z</time></trkpt><trkpt lat="43.61732092377951" lon="11.04145400729089"><ele>83.0</ele><time>2026-03-29T11:36:33.008Z</time></trkpt><trkpt lat="43.61736791584473" lon="11.04137358676535"><ele>83.0</ele><time>2026-03-29T11:36:34.008Z</time></trkpt><trkpt lat="43.61740797602195" lon="11.041295459424752"><ele>83.0</ele><time>2026-03-29T11:36:35.008Z</time></trkpt><trkpt lat="43.61741704267349" lon="11.041199463000442"><ele>83.0</ele><time>2026-03-29T11:36:36.008Z</time></trkpt><trkpt lat="43.6174228682649" lon="11.04110189699722"><ele>83.0</ele><time>2026-03-29T11:36:37.008Z</time></trkpt><trkpt lat="43.617425174875194" lon="11.041012080453067"><ele>83.0</ele><time>2026-03-29T11:36:38.008Z</time></trkpt><trkpt lat="43.61742979045079" lon="11.040893615662723"><ele>83.0</ele><time>2026-03-29T11:36:40.008Z</time></trkpt><trkpt lat="43.61748394695327" lon="11.040829696118506"><ele>83.0</ele><time>2026-03-29T11:36:43.008Z</time></trkpt><trkpt lat="43.61750955240232" lon="11.040704827843847"><ele>83.0</ele><time>2026-03-29T11:36:45.008Z</time></trkpt><trkpt lat="43.61751902573103" lon="11.040588417411085"><ele>83.0</ele><time>2026-03-29T11:36:46.008Z</time></trkpt><trkpt lat="43.617541405989535" lon="11.04044872818398"><ele>83.0</ele><time>2026-03-29T11:36:47.008Z</time></trkpt><trkpt lat="43.617577630344634" lon="11.040300565135487"><ele>82.60000000000001</ele><time>2026-03-29T11:36:48.008Z</time></trkpt><trkpt lat="43.61762886099035" lon="11.040150159824833"><ele>82.2</ele><time>2026-03-29T11:36:49.008Z</time></trkpt><trkpt lat="43.61769432314039" lon="11.040022504212365"><ele>81.8</ele><time>2026-03-29T11:36:50.008Z</time></trkpt><trkpt lat="43.61776003389539" lon="11.039915791942349"><ele>81.4</ele><time>2026-03-29T11:36:51.008Z</time></trkpt><trkpt lat="43.617817526143064" lon="11.039822304884863"><ele>81.0</ele><time>2026-03-29T11:36:52.008Z</time></trkpt><trkpt lat="43.61788048199202" lon="11.03973670411288"><ele>81.0</ele><time>2026-03-29T11:36:53.008Z</time></trkpt><trkpt lat="43.617970075572394" lon="11.039614834532808"><ele>81.0</ele><time>2026-03-29T11:36:55.008Z</time></trkpt><trkpt lat="43.61802691279514" lon="11.039542986264959"><ele>81.0</ele><time>2026-03-29T11:36:56.008Z</time></trkpt><trkpt lat="43.61808800308625" lon="11.039496436886736"><ele>81.0</ele><time>2026-03-29T11:36:57.008Z</time></trkpt><trkpt lat="43.618146142557045" lon="11.039460351010687"><ele>81.0</ele><time>2026-03-29T11:36:58.008Z</time></trkpt><trkpt lat="43.618199291545125" lon="11.039408821881594"><ele>81.0</ele><time>2026-03-29T11:36:59.008Z</time></trkpt><trkpt lat="43.618268206280824" lon="11.039276455891576"><ele>81.0</ele><time>2026-03-29T11:37:01.008Z</time></trkpt><trkpt lat="43.61831316461701" lon="11.039183460466472"><ele>81.0</ele><time>2026-03-29T11:37:02.008Z</time></trkpt><trkpt lat="43.618372615629106" lon="11.039091334455168"><ele>81.0</ele><time>2026-03-29T11:37:03.008Z</time></trkpt><trkpt lat="43.61842392890737" lon="11.039033575984588"><ele>81.0</ele><time>2026-03-29T11:37:04.007Z</time></trkpt><trkpt lat="43.61846784122043" lon="11.038953141506703"><ele>81.0</ele><time>2026-03-29T11:37:05.007Z</time></trkpt><trkpt lat="43.618514302979214" lon="11.038853285029496"><ele>81.0</ele><time>2026-03-29T11:37:06.007Z</time></trkpt><trkpt lat="43.61856269154727" lon="11.038776824919788"><ele>81.4</ele><time>2026-03-29T11:37:07.007Z</time></trkpt><trkpt lat="43.618605742227565" lon="11.038710018542076"><ele>81.8</ele><time>2026-03-29T11:37:08.007Z</time></trkpt><trkpt lat="43.61862832682825" lon="11.03861794002907"><ele>82.2</ele><time>2026-03-29T11:37:11.007Z</time></trkpt><trkpt lat="43.61874371001776" lon="11.038616694220307"><ele>82.60000000000001</ele><time>2026-03-29T11:38:54.009Z</time></trkpt><trkpt lat="43.61883748485271" lon="11.038766194449721"><ele>83.0</ele><time>2026-03-29T11:38:58.008Z</time></trkpt><trkpt lat="43.618926204661804" lon="11.038883829899778"><ele>84.0</ele><time>2026-03-29T11:39:00.008Z</time></trkpt><trkpt lat="43.61898866698687" lon="11.0389900624168"><ele>85.0</ele><time>2026-03-29T11:39:02.008Z</time></trkpt><trkpt lat="43.61906232981583" lon="11.039079980620956"><ele>86.0</ele><time>2026-03-29T11:39:05.008Z</time></trkpt><trkpt lat="43.61913091632372" lon="11.03920544188559"><ele>87.0</ele><time>2026-03-29T11:39:07.008Z</time></trkpt><trkpt lat="43.619182362916774" lon="11.039294126292345"><ele>88.0</ele><time>2026-03-29T11:39:09.008Z</time></trkpt><trkpt lat="43.61925952735764" lon="11.039438035557751"><ele>88.0</ele><time>2026-03-29T11:39:11.008Z</time></trkpt><trkpt lat="43.619295583779255" lon="11.039511826534794"><ele>88.0</ele><time>2026-03-29T11:39:12.008Z</time></trkpt><trkpt lat="43.61934408714933" lon="11.039575996723611"><ele>88.0</ele><time>2026-03-29T11:39:13.008Z</time></trkpt><trkpt lat="43.61941027343232" lon="11.039699200919262"><ele>88.0</ele><time>2026-03-29T11:39:15.008Z</time></trkpt><trkpt lat="43.61952051151162" lon="11.039781368798153"><ele>88.0</ele><time>2026-03-29T11:39:17.008Z</time></trkpt><trkpt lat="43.61963949844638" lon="11.039907274332716"><ele>90.4</ele><time>2026-03-29T11:40:17.009Z</time></trkpt><trkpt lat="43.61975436685992" lon="11.039822718937723"><ele>92.80000000000001</ele><time>2026-03-29T11:40:43.009Z</time></trkpt><trkpt lat="43.61979309394049" lon="11.039748638324596"><ele>95.2</ele><time>2026-03-29T11:40:44.009Z</time></trkpt><trkpt lat="43.61985625047815" lon="11.03964561084119"><ele>97.6</ele><time>2026-03-29T11:40:45.009Z</time></trkpt><trkpt lat="43.61991189930852" lon="11.039571835396746"><ele>100.0</ele><time>2026-03-29T11:40:46.009Z</time></trkpt><trkpt lat="43.61997316393297" lon="11.039480524823903"><ele>100.00000000000001</ele><time>2026-03-29T11:40:47.009Z</time></trkpt><trkpt lat="43.620021560132244" lon="11.03940772337333"><ele>100.0</ele><time>2026-03-29T11:40:48.009Z</time></trkpt><trkpt lat="43.62009291392725" lon="11.03930090595216"><ele>100.0</ele><time>2026-03-29T11:40:50.009Z</time></trkpt><trkpt lat="43.62013555301456" lon="11.039217403286253"><ele>100.0</ele><time>2026-03-29T11:40:52.009Z</time></trkpt><trkpt lat="43.620199221044956" lon="11.039146862297809"><ele>100.00000000000001</ele><time>2026-03-29T11:42:30.01Z</time></trkpt><trkpt lat="43.620237604856925" lon="11.039070571159375"><ele>100.0</ele><time>2026-03-29T11:42:32.01Z</time></trkpt><trkpt lat="43.62029278011099" lon="11.038982113277775"><ele>104.33333333333334</ele><time>2026-03-29T11:42:34.009Z</time></trkpt><trkpt lat="43.62034289838385" lon="11.03890156732959"><ele>108.66666666666667</ele><time>2026-03-29T11:42:35.009Z</time></trkpt><trkpt lat="43.620404640199474" lon="11.03879633470699"><ele>113.0</ele><time>2026-03-29T11:42:37.009Z</time></trkpt><trkpt lat="43.620471092386225" lon="11.03884332978598"><ele>117.33333333333334</ele><time>2026-03-29T11:42:40.009Z</time></trkpt><trkpt lat="43.62053787425059" lon="11.038869782657658"><ele>121.66666666666667</ele><time>2026-03-29T11:42:41.009Z</time></trkpt><trkpt lat="43.62059699619123" lon="11.03891795485455"><ele>126.0</ele><time>2026-03-29T11:42:42.009Z</time></trkpt><trkpt lat="43.62066914698183" lon="11.038966666255478"><ele>126.0</ele><time>2026-03-29T11:42:44.009Z</time></trkpt><trkpt lat="43.62071909293314" lon="11.039084398334595"><ele>126.0</ele><time>2026-03-29T11:44:27.004Z</time></trkpt><trkpt lat="43.620660584626634" lon="11.039163501923806"><ele>126.0</ele><time>2026-03-29T11:44:29.004Z</time></trkpt><trkpt lat="43.620605569438965" lon="11.039241646681086"><ele>126.0</ele><time>2026-03-29T11:44:31.004Z</time></trkpt><trkpt lat="43.620554889181996" lon="11.039324239731732"><ele>126.0</ele><time>2026-03-29T11:44:33.004Z</time></trkpt><trkpt lat="43.620496449931025" lon="11.039434856436415"><ele>126.0</ele><time>2026-03-29T11:44:36.004Z</time></trkpt><trkpt lat="43.62042347716211" lon="11.03952056822703"><ele>124.0</ele><time>2026-03-29T11:44:38.004Z</time></trkpt><trkpt lat="43.620368305331084" lon="11.039565665674795"><ele>122.0</ele><time>2026-03-29T11:44:40.004Z</time></trkpt><trkpt lat="43.62030262177111" lon="11.03960984994492"><ele>120.0</ele><time>2026-03-29T11:44:42.004Z</time></trkpt><trkpt lat="43.62024053932396" lon="11.039647721154811"><ele>118.0</ele><time>2026-03-29T11:44:44.004Z</time></trkpt><trkpt lat="43.620167852761796" lon="11.039659010738621"><ele>116.0</ele><time>2026-03-29T11:44:46.004Z</time></trkpt><trkpt lat="43.62009679363064" lon="11.039646646750485"><ele>114.0</ele><time>2026-03-29T11:44:48.003Z</time></trkpt><trkpt lat="43.620031246983736" lon="11.039580636772033"><ele>112.0</ele><time>2026-03-29T11:44:51.003Z</time></trkpt><trkpt lat="43.61994406331707" lon="11.039561001342813"><ele>110.00000000000001</ele><time>2026-03-29T11:44:54.003Z</time></trkpt><trkpt lat="43.61986750913597" lon="11.039627591352348"><ele>108.0</ele><time>2026-03-29T11:44:56.003Z</time></trkpt><trkpt lat="43.61981343469907" lon="11.039720995284828"><ele>106.0</ele><time>2026-03-29T11:44:58.003Z</time></trkpt><trkpt lat="43.61976524362144" lon="11.039806761088244"><ele>104.0</ele><time>2026-03-29T11:45:00.003Z</time></trkpt><trkpt lat="43.61970624888126" lon="11.039867960287904"><ele>102.00000000000001</ele><time>2026-03-29T11:45:02.003Z</time></trkpt><trkpt lat="43.619664914964794" lon="11.039941312727175"><ele>100.0</ele><time>2026-03-29T11:45:04.003Z</time></trkpt><trkpt lat="43.6196739806746" lon="11.040047830169152"><ele>98.83333333333334</ele><time>2026-03-29T11:45:07.003Z</time></trkpt><trkpt lat="43.61972635312104" lon="11.040158587473886"><ele>97.66666666666667</ele><time>2026-03-29T11:45:10.003Z</time></trkpt><trkpt lat="43.619796442131445" lon="11.040264955375166"><ele>96.5</ele><time>2026-03-29T11:45:12.003Z</time></trkpt><trkpt lat="43.61985061103119" lon="11.040330155221044"><ele>95.33333333333334</ele><time>2026-03-29T11:45:13.003Z</time></trkpt><trkpt lat="43.61989707769927" lon="11.040399911831008"><ele>94.16666666666667</ele><time>2026-03-29T11:45:14.003Z</time></trkpt><trkpt lat="43.61994930729745" lon="11.040488235270814"><ele>93.0</ele><time>2026-03-29T11:45:16.003Z</time></trkpt><trkpt lat="43.620017211922864" lon="11.040595811948453"><ele>93.0</ele><time>2026-03-29T11:45:18.003Z</time></trkpt><trkpt lat="43.620084813981734" lon="11.040667240434043"><ele>93.0</ele><time>2026-03-29T11:45:20.003Z</time></trkpt><trkpt lat="43.62017767776526" lon="11.04079238282697"><ele>93.0</ele><time>2026-03-29T11:45:22.003Z</time></trkpt><trkpt lat="43.620230132602636" lon="11.04085221997723"><ele>93.0</ele><time>2026-03-29T11:45:23.003Z</time></trkpt><trkpt lat="43.620305100989796" lon="11.040942475783064"><ele>93.0</ele><time>2026-03-29T11:45:25.003Z</time></trkpt><trkpt lat="43.62037076875327" lon="11.041026009517694"><ele>93.16666666666667</ele><time>2026-03-29T11:45:27.003Z</time></trkpt><trkpt lat="43.620431169458804" lon="11.041055035489167"><ele>93.33333333333333</ele><time>2026-03-29T11:45:39.002Z</time></trkpt><trkpt lat="43.62048515160186" lon="11.041132348827226"><ele>93.5</ele><time>2026-03-29T11:45:41.002Z</time></trkpt><trkpt lat="43.62056537052961" lon="11.041234646544194"><ele>93.66666666666666</ele><time>2026-03-29T11:45:43.002Z</time></trkpt><trkpt lat="43.62060860514416" lon="11.041312069945453"><ele>93.83333333333333</ele><time>2026-03-29T11:45:44.002Z</time></trkpt><trkpt lat="43.620664727738955" lon="11.041373982086023"><ele>94.0</ele><time>2026-03-29T11:45:45.002Z</time></trkpt><trkpt lat="43.620732088775014" lon="11.041462624592453"><ele>94.0</ele><time>2026-03-29T11:45:46.002Z</time></trkpt><trkpt lat="43.62080225369943" lon="11.041547125703307"><ele>94.0</ele><time>2026-03-29T11:45:47.002Z</time></trkpt><trkpt lat="43.62087141703918" lon="11.041636754140454"><ele>94.0</ele><time>2026-03-29T11:45:48.002Z</time></trkpt><trkpt lat="43.62095738807629" lon="11.04174677928082"><ele>94.0</ele><time>2026-03-29T11:45:49.002Z</time></trkpt><trkpt lat="43.62102607716695" lon="11.04185018972611"><ele>94.0</ele><time>2026-03-29T11:45:50.002Z</time></trkpt><trkpt lat="43.62109056535709" lon="11.041932966309172"><ele>94.83333333333333</ele><time>2026-03-29T11:45:51.002Z</time></trkpt><trkpt lat="43.62113491671756" lon="11.042001856333062"><ele>95.66666666666666</ele><time>2026-03-29T11:45:52.004Z</time></trkpt><trkpt lat="43.62120651858769" lon="11.04209121474992"><ele>96.5</ele><time>2026-03-29T11:45:53.005Z</time></trkpt><trkpt lat="43.62127415383855" lon="11.042161890103822"><ele>97.33333333333333</ele><time>2026-03-29T11:45:54.005Z</time></trkpt><trkpt lat="43.621334494574796" lon="11.042238437598492"><ele>98.16666666666667</ele><time>2026-03-29T11:45:55.004Z</time></trkpt><trkpt lat="43.62140599258188" lon="11.042343873548027"><ele>99.0</ele><time>2026-03-29T11:45:56.005Z</time></trkpt><trkpt lat="43.621466771698664" lon="11.042434851500435"><ele>97.4</ele><time>2026-03-29T11:45:57.005Z</time></trkpt><trkpt lat="43.62151793274258" lon="11.042500237160468"><ele>95.80000000000001</ele><time>2026-03-29T11:45:58.004Z</time></trkpt><trkpt lat="43.62158767691331" lon="11.042584064009018"><ele>94.19999999999999</ele><time>2026-03-29T11:45:59.005Z</time></trkpt><trkpt lat="43.62165441036306" lon="11.042672776625471"><ele>92.6</ele><time>2026-03-29T11:46:00.005Z</time></trkpt><trkpt lat="43.62173636875356" lon="11.042792618344343"><ele>91.0</ele><time>2026-03-29T11:46:01.005Z</time></trkpt><trkpt lat="43.621817675952066" lon="11.042908663524665"><ele>91.0</ele><time>2026-03-29T11:46:02.004Z</time></trkpt><trkpt lat="43.62188534109299" lon="11.042996142999497"><ele>91.0</ele><time>2026-03-29T11:46:03.004Z</time></trkpt><trkpt lat="43.621942902664955" lon="11.043075200480624"><ele>91.0</ele><time>2026-03-29T11:46:04.004Z</time></trkpt><trkpt lat="43.62200620539763" lon="11.043143086552297"><ele>91.0</ele><time>2026-03-29T11:46:05.005Z</time></trkpt><trkpt lat="43.622061333029286" lon="11.043208247948055"><ele>91.0</ele><time>2026-03-29T11:46:06.005Z</time></trkpt><trkpt lat="43.62214961579934" lon="11.043322249247737"><ele>91.0</ele><time>2026-03-29T11:46:08.005Z</time></trkpt><trkpt lat="43.62223604971851" lon="11.043438481766437"><ele>91.0</ele><time>2026-03-29T11:46:10.005Z</time></trkpt><trkpt lat="43.62233298226449" lon="11.043566675148686"><ele>91.0</ele><time>2026-03-29T11:46:12.005Z</time></trkpt><trkpt lat="43.622401921336575" lon="11.04365157604849"><ele>91.0</ele><time>2026-03-29T11:46:13.005Z</time></trkpt><trkpt lat="43.62244943023172" lon="11.04371918512029"><ele>91.0</ele><time>2026-03-29T11:46:14.005Z</time></trkpt><trkpt lat="43.62248755044612" lon="11.043839147503402"><ele>91.0</ele><time>2026-03-29T11:46:16.004Z</time></trkpt><trkpt lat="43.62252239786493" lon="11.043914951101957"><ele>91.0</ele><time>2026-03-29T11:46:18.004Z</time></trkpt><trkpt lat="43.62258067672232" lon="11.04400303527211"><ele>91.0</ele><time>2026-03-29T11:46:20.004Z</time></trkpt><trkpt lat="43.62266344576268" lon="11.044216527354196"><ele>91.0</ele><time>2026-03-29T11:46:22.004Z</time></trkpt><trkpt lat="43.62270068882048" lon="11.044315852545742"><ele>91.0</ele><time>2026-03-29T11:46:23.004Z</time></trkpt><trkpt lat="43.62275215723649" lon="11.044443561526986"><ele>91.0</ele><time>2026-03-29T11:46:25.004Z</time></trkpt><trkpt lat="43.6228149549785" lon="11.044524437087489"><ele>91.5</ele><time>2026-03-29T11:46:27.004Z</time></trkpt><trkpt lat="43.62286700277153" lon="11.044601959258364"><ele>92.0</ele><time>2026-03-29T11:46:28.004Z</time></trkpt><trkpt lat="43.622914324156355" lon="11.044703594913738"><ele>92.5</ele><time>2026-03-29T11:46:29.004Z</time></trkpt><trkpt lat="43.62295687468594" lon="11.044816531812007"><ele>93.0</ele><time>2026-03-29T11:46:30.004Z</time></trkpt><trkpt lat="43.62300026274122" lon="11.044919645762748"><ele>93.5</ele><time>2026-03-29T11:46:31.004Z</time></trkpt><trkpt lat="43.623042833598724" lon="11.045000919696243"><ele>94.0</ele><time>2026-03-29T11:46:32.004Z</time></trkpt><trkpt lat="43.62307742129263" lon="11.045078227178987"><ele>94.0</ele><time>2026-03-29T11:46:33.004Z</time></trkpt><trkpt lat="43.62311997387331" lon="11.045161601765551"><ele>94.0</ele><time>2026-03-29T11:46:34.004Z</time></trkpt><trkpt lat="43.623169487276385" lon="11.0452669360768"><ele>94.0</ele><time>2026-03-29T11:46:35.004Z</time></trkpt><trkpt lat="43.62323438573233" lon="11.045384866506762"><ele>94.0</ele><time>2026-03-29T11:46:36.004Z</time></trkpt><trkpt lat="43.62329463784481" lon="11.045511523909884"><ele>94.0</ele><time>2026-03-29T11:46:37.004Z</time></trkpt><trkpt lat="43.623343088737094" lon="11.045609620654544"><ele>94.0</ele><time>2026-03-29T11:46:38.004Z</time></trkpt><trkpt lat="43.62340715231323" lon="11.045726048336084"><ele>94.0</ele><time>2026-03-29T11:46:40.004Z</time></trkpt><trkpt lat="43.62347189797609" lon="11.045833553134843"><ele>94.0</ele><time>2026-03-29T11:46:42.004Z</time></trkpt><trkpt lat="43.623523840952195" lon="11.045924021968236"><ele>94.0</ele><time>2026-03-29T11:46:43.004Z</time></trkpt><trkpt lat="43.62357901846971" lon="11.046024197554893"><ele>94.0</ele><time>2026-03-29T11:46:44.004Z</time></trkpt><trkpt lat="43.6236333077502" lon="11.046129731131414"><ele>93.5</ele><time>2026-03-29T11:46:45.004Z</time></trkpt><trkpt lat="43.62367962542489" lon="11.046217838260734"><ele>93.0</ele><time>2026-03-29T11:46:46.004Z</time></trkpt><trkpt lat="43.623718093791496" lon="11.04630043112081"><ele>92.5</ele><time>2026-03-29T11:46:47.004Z</time></trkpt><trkpt lat="43.62376173417758" lon="11.046364834944207"><ele>92.0</ele><time>2026-03-29T11:46:48.004Z</time></trkpt><trkpt lat="43.62382153015771" lon="11.046510511219239"><ele>91.5</ele><time>2026-03-29T11:46:50.004Z</time></trkpt><trkpt lat="43.623878386090894" lon="11.046623952177349"><ele>91.0</ele><time>2026-03-29T11:46:52.004Z</time></trkpt><trkpt lat="43.6239450548471" lon="11.046735153780686"><ele>91.0</ele><time>2026-03-29T11:46:54.004Z</time></trkpt><trkpt lat="43.623988804900065" lon="11.046810334651445"><ele>91.0</ele><time>2026-03-29T11:46:55.004Z</time></trkpt><trkpt lat="43.624064092523675" lon="11.046909892002532"><ele>91.0</ele><time>2026-03-29T11:46:57.004Z</time></trkpt><trkpt lat="43.62413004404042" lon="11.047065794450345"><ele>91.0</ele><time>2026-03-29T11:46:59.004Z</time></trkpt><trkpt lat="43.62416688720741" lon="11.04717054113415"><ele>91.0</ele><time>2026-03-29T11:47:00.004Z</time></trkpt><trkpt lat="43.62422732060355" lon="11.04728162592611"><ele>91.0</ele><time>2026-03-29T11:47:01.004Z</time></trkpt><trkpt lat="43.62428113718098" lon="11.047387608592786"><ele>91.0</ele><time>2026-03-29T11:47:02.004Z</time></trkpt><trkpt lat="43.62433472965964" lon="11.047481394598023"><ele>91.0</ele><time>2026-03-29T11:47:03.004Z</time></trkpt><trkpt lat="43.6243743727359" lon="11.047567281349266"><ele>91.0</ele><time>2026-03-29T11:47:04.004Z</time></trkpt><trkpt lat="43.624421811592306" lon="11.04765760234982"><ele>91.0</ele><time>2026-03-29T11:47:05.004Z</time></trkpt><trkpt lat="43.62446738131743" lon="11.047733846260643"><ele>91.0</ele><time>2026-03-29T11:47:06.004Z</time></trkpt><trkpt lat="43.62453570418351" lon="11.047852956419359"><ele>92.8</ele><time>2026-03-29T11:47:08.004Z</time></trkpt><trkpt lat="43.624631312539115" lon="11.047957150018183"><ele>94.6</ele><time>2026-03-29T11:47:10.004Z</time></trkpt><trkpt lat="43.624732774038534" lon="11.04799981272908"><ele>96.4</ele><time>2026-03-29T11:47:12.004Z</time></trkpt><trkpt lat="43.62480468959098" lon="11.048046174596719"><ele>98.2</ele><time>2026-03-29T11:47:14.004Z</time></trkpt><trkpt lat="43.62485225732737" lon="11.048106381439585"><ele>100.0</ele><time>2026-03-29T11:47:16.004Z</time></trkpt><trkpt lat="43.62493497842365" lon="11.04818091715741"><ele>100.0</ele><time>2026-03-29T11:47:18.003Z</time></trkpt><trkpt lat="43.62500877827291" lon="11.048281356035579"><ele>100.0</ele><time>2026-03-29T11:47:20.003Z</time></trkpt><trkpt lat="43.62508355602183" lon="11.04840933961123"><ele>100.0</ele><time>2026-03-29T11:47:22.003Z</time></trkpt><trkpt lat="43.6251568169566" lon="11.048534789375344"><ele>100.0</ele><time>2026-03-29T11:47:24.003Z</time></trkpt><trkpt lat="43.62521292465681" lon="11.04859995036402"><ele>100.0</ele><time>2026-03-29T11:47:25.003Z</time></trkpt><trkpt lat="43.625256074641925" lon="11.048671217315986"><ele>99.71428571428572</ele><time>2026-03-29T11:47:26.003Z</time></trkpt><trkpt lat="43.62529818352919" lon="11.048741981436967"><ele>99.42857142857143</ele><time>2026-03-29T11:47:27.003Z</time></trkpt><trkpt lat="43.62533505079677" lon="11.048825586429894"><ele>99.14285714285714</ele><time>2026-03-29T11:47:28.003Z</time></trkpt><trkpt lat="43.625383589301535" lon="11.048899232179119"><ele>98.85714285714286</ele><time>2026-03-29T11:47:29.003Z</time></trkpt><trkpt lat="43.62542394935754" lon="11.048967463335867"><ele>98.57142857142857</ele><time>2026-03-29T11:47:30.003Z</time></trkpt><trkpt lat="43.62547654724492" lon="11.049043624474619"><ele>98.28571428571429</ele><time>2026-03-29T11:47:31.003Z</time></trkpt><trkpt lat="43.625520552529615" lon="11.04911606344662"><ele>98.0</ele><time>2026-03-29T11:47:32.003Z</time></trkpt><trkpt lat="43.6255844259002" lon="11.049188606964028"><ele>98.0</ele><time>2026-03-29T11:47:34.003Z</time></trkpt><trkpt lat="43.625505017805445" lon="11.049128563238078"><ele>98.0</ele><time>2026-03-29T11:49:44.003Z</time></trkpt><trkpt lat="43.625421571423026" lon="11.049002949435373"><ele>98.0</ele><time>2026-03-29T11:49:46.003Z</time></trkpt><trkpt lat="43.62534276250972" lon="11.048867064045568"><ele>98.0</ele><time>2026-03-29T11:49:48.003Z</time></trkpt><trkpt lat="43.62527401813746" lon="11.048731277543673"><ele>98.0</ele><time>2026-03-29T11:49:50.003Z</time></trkpt><trkpt lat="43.6251996101376" lon="11.048616395639439"><ele>98.0</ele><time>2026-03-29T11:49:52.003Z</time></trkpt><trkpt lat="43.62513143175196" lon="11.048535451969625"><ele>98.0</ele><time>2026-03-29T11:49:54.003Z</time></trkpt><trkpt lat="43.62508290088321" lon="11.048440156911996"><ele>98.0</ele><time>2026-03-29T11:49:56.003Z</time></trkpt><trkpt lat="43.625029562063254" lon="11.04834816894458"><ele>98.0</ele><time>2026-03-29T11:49:58.003Z</time></trkpt><trkpt lat="43.6249736097898" lon="11.04826990573633"><ele>98.4</ele><time>2026-03-29T11:50:00.003Z</time></trkpt><trkpt lat="43.624897339904166" lon="11.048190448706094"><ele>98.80000000000001</ele><time>2026-03-29T11:50:02.003Z</time></trkpt><trkpt lat="43.624810723647684" lon="11.048066889392663"><ele>99.2</ele><time>2026-03-29T11:50:04.005Z</time></trkpt><trkpt lat="43.62479671736344" lon="11.047971288701943"><ele>99.6</ele><time>2026-03-29T11:50:06.004Z</time></trkpt><trkpt lat="43.62484392101229" lon="11.047884223840715"><ele>100.0</ele><time>2026-03-29T11:50:09.005Z</time></trkpt><trkpt lat="43.624776657627415" lon="11.047951733002883"><ele>100.0</ele><time>2026-03-29T11:52:31.005Z</time></trkpt><trkpt lat="43.62480227923267" lon="11.048057641732798"><ele>100.0</ele><time>2026-03-29T11:52:33.005Z</time></trkpt><trkpt lat="43.624922966549114" lon="11.048213371962847"><ele>100.0</ele><time>2026-03-29T11:52:42.005Z</time></trkpt><trkpt lat="43.62488795012919" lon="11.048128793376485"><ele>100.0</ele><time>2026-03-29T11:52:59.004Z</time></trkpt><trkpt lat="43.624796269260024" lon="11.048004677828416"><ele>100.0</ele><time>2026-03-29T11:53:01.004Z</time></trkpt><trkpt lat="43.6247859453373" lon="11.047916708208783"><ele>100.00000000000001</ele><time>2026-03-29T11:53:03.004Z</time></trkpt><trkpt lat="43.6248579010177" lon="11.047843890561115"><ele>100.0</ele><time>2026-03-29T11:53:05.004Z</time></trkpt><trkpt lat="43.62492640441107" lon="11.04780546363953"><ele>100.0</ele><time>2026-03-29T11:53:06.004Z</time></trkpt><trkpt lat="43.624984586869175" lon="11.047771343492663"><ele>100.0</ele><time>2026-03-29T11:53:07.004Z</time></trkpt><trkpt lat="43.62504618755236" lon="11.04773042426686"><ele>100.00000000000001</ele><time>2026-03-29T11:53:08.004Z</time></trkpt><trkpt lat="43.62512552664025" lon="11.047688529496805"><ele>100.0</ele><time>2026-03-29T11:53:09.004Z</time></trkpt><trkpt lat="43.625224367172756" lon="11.047611332345271"><ele>102.6</ele><time>2026-03-29T11:53:11.004Z</time></trkpt><trkpt lat="43.62532607995822" lon="11.047492972465323"><ele>105.2</ele><time>2026-03-29T11:53:20.004Z</time></trkpt><trkpt lat="43.625373410337104" lon="11.047399590183108"><ele>107.80000000000001</ele><time>2026-03-29T11:53:21.004Z</time></trkpt><trkpt lat="43.62540329735582" lon="11.047302575785476"><ele>110.4</ele><time>2026-03-29T11:53:22.004Z</time></trkpt><trkpt lat="43.62542574617402" lon="11.04718293872963"><ele>113.0</ele><time>2026-03-29T11:53:23.004Z</time></trkpt><trkpt lat="43.62545030354542" lon="11.04707088378437"><ele>112.99999999999999</ele><time>2026-03-29T11:53:24.004Z</time></trkpt><trkpt lat="43.625479540784305" lon="11.04696210487197"><ele>113.0</ele><time>2026-03-29T11:53:25.004Z</time></trkpt><trkpt lat="43.625518450332436" lon="11.046859430331011"><ele>113.0</ele><time>2026-03-29T11:53:26.004Z</time></trkpt><trkpt lat="43.625557183900916" lon="11.046738749231483"><ele>113.0</ele><time>2026-03-29T11:53:27.004Z</time></trkpt><trkpt lat="43.62559085322897" lon="11.046615306234902"><ele>112.99999999999999</ele><time>2026-03-29T11:53:28.004Z</time></trkpt><trkpt lat="43.62562915974594" lon="11.046514945974579"><ele>113.0</ele><time>2026-03-29T11:53:29.004Z</time></trkpt><trkpt lat="43.6256711934363" lon="11.046435927132903"><ele>112.49999999999999</ele><time>2026-03-29T11:53:30.004Z</time></trkpt><trkpt lat="43.625707966558416" lon="11.046307676628059"><ele>112.0</ele><time>2026-03-29T11:53:32.004Z</time></trkpt><trkpt lat="43.62572946929285" lon="11.046208960324702"><ele>111.5</ele><time>2026-03-29T11:53:33.004Z</time></trkpt><trkpt lat="43.62574970924354" lon="11.046125683317863"><ele>111.0</ele><time>2026-03-29T11:53:34.004Z</time></trkpt><trkpt lat="43.625794426872524" lon="11.046008416907387"><ele>110.49999999999999</ele><time>2026-03-29T11:53:36.004Z</time></trkpt><trkpt lat="43.62587881822857" lon="11.045973902816177"><ele>110.0</ele><time>2026-03-29T11:53:38.004Z</time></trkpt><trkpt lat="43.62596230411802" lon="11.04598347360177"><ele>109.99999999999999</ele><time>2026-03-29T11:53:39.004Z</time></trkpt><trkpt lat="43.62604120529252" lon="11.045987061662121"><ele>110.0</ele><time>2026-03-29T11:53:40.004Z</time></trkpt><trkpt lat="43.62612196842227" lon="11.045998614818988"><ele>110.0</ele><time>2026-03-29T11:53:41.004Z</time></trkpt><trkpt lat="43.626209818388226" lon="11.046009794465851"><ele>110.0</ele><time>2026-03-29T11:53:42.004Z</time></trkpt><trkpt lat="43.62628977574417" lon="11.04601460841995"><ele>109.99999999999999</ele><time>2026-03-29T11:53:43.004Z</time></trkpt><trkpt lat="43.626381242834995" lon="11.046004055874642"><ele>110.0</ele><time>2026-03-29T11:53:44.004Z</time></trkpt><trkpt lat="43.62647458632404" lon="11.045999920081057"><ele>112.16666666666666</ele><time>2026-03-29T11:53:45.004Z</time></trkpt><trkpt lat="43.626552127772925" lon="11.045996302309367"><ele>114.33333333333333</ele><time>2026-03-29T11:53:46.004Z</time></trkpt><trkpt lat="43.626664003178966" lon="11.045987112761459"><ele>116.5</ele><time>2026-03-29T11:53:48.004Z</time></trkpt><trkpt lat="43.626730730506196" lon="11.045979963027518"><ele>118.66666666666666</ele><time>2026-03-29T11:53:49.004Z</time></trkpt><trkpt lat="43.626850451295866" lon="11.045954416214"><ele>120.83333333333333</ele><time>2026-03-29T11:53:51.004Z</time></trkpt><trkpt lat="43.62691734756794" lon="11.04596182034326"><ele>123.0</ele><time>2026-03-29T11:53:52.004Z</time></trkpt><trkpt lat="43.62700159821175" lon="11.04598138982218"><ele>125.83333333333333</ele><time>2026-03-29T11:53:53.003Z</time></trkpt><trkpt lat="43.62706663139294" lon="11.04598781432963"><ele>128.66666666666666</ele><time>2026-03-29T11:53:54.003Z</time></trkpt><trkpt lat="43.62719643687067" lon="11.045977820584007"><ele>131.5</ele><time>2026-03-29T11:53:56.003Z</time></trkpt><trkpt lat="43.62729316420286" lon="11.045899030298797"><ele>134.33333333333331</ele><time>2026-03-29T11:53:58.003Z</time></trkpt><trkpt lat="43.62734578235227" lon="11.045833439948764"><ele>137.16666666666666</ele><time>2026-03-29T11:53:59.003Z</time></trkpt><trkpt lat="43.627377987633324" lon="11.045746335314815"><ele>140.0</ele><time>2026-03-29T11:54:00.003Z</time></trkpt><trkpt lat="43.62739439470372" lon="11.045643945448553"><ele>140.4</ele><time>2026-03-29T11:54:01.003Z</time></trkpt><trkpt lat="43.627433484760665" lon="11.045508816043668"><ele>140.8</ele><time>2026-03-29T11:54:03.003Z</time></trkpt><trkpt lat="43.62747391069125" lon="11.045441358206007"><ele>141.2</ele><time>2026-03-29T11:54:04.003Z</time></trkpt><trkpt lat="43.627522398585064" lon="11.045383916466132"><ele>141.6</ele><time>2026-03-29T11:54:06.003Z</time></trkpt><trkpt lat="43.627510793383806" lon="11.045241682023985"><ele>142.0</ele><time>2026-03-29T11:54:09.003Z</time></trkpt><trkpt lat="43.62749982211602" lon="11.04505444743106"><ele>143.2</ele><time>2026-03-29T11:54:11.003Z</time></trkpt><trkpt lat="43.62750005987721" lon="11.044948095814298"><ele>144.39999999999998</ele><time>2026-03-29T11:54:12.003Z</time></trkpt><trkpt lat="43.627494045864935" lon="11.044828331407095"><ele>145.60000000000002</ele><time>2026-03-29T11:54:13.003Z</time></trkpt><trkpt lat="43.62749757211109" lon="11.044706816387523"><ele>146.8</ele><time>2026-03-29T11:54:14.003Z</time></trkpt><trkpt lat="43.62751760771919" lon="11.044572185154271"><ele>148.0</ele><time>2026-03-29T11:54:15.005Z</time></trkpt><trkpt lat="43.627541432497175" lon="11.044405859210343"><ele>148.0</ele><time>2026-03-29T11:54:16.005Z</time></trkpt><trkpt lat="43.62755479804606" lon="11.044234510844898"><ele>148.0</ele><time>2026-03-29T11:54:17.005Z</time></trkpt><trkpt lat="43.627566052129616" lon="11.044081725458248"><ele>148.0</ele><time>2026-03-29T11:54:18.005Z</time></trkpt><trkpt lat="43.62757527615131" lon="11.043930033042422"><ele>148.0</ele><time>2026-03-29T11:54:20.005Z</time></trkpt><trkpt lat="43.62757587211785" lon="11.043835032876665"><ele>148.0</ele><time>2026-03-29T11:54:24.005Z</time></trkpt><trkpt lat="43.627561189962414" lon="11.043688373733787"><ele>149.33333333333334</ele><time>2026-03-29T11:54:30.005Z</time></trkpt><trkpt lat="43.62753878102854" lon="11.04357681327316"><ele>150.66666666666669</ele><time>2026-03-29T11:54:31.005Z</time></trkpt><trkpt lat="43.62751288920809" lon="11.043470695589571"><ele>152.0</ele><time>2026-03-29T11:54:32.005Z</time></trkpt><trkpt lat="43.627477883859214" lon="11.043362265330602"><ele>153.33333333333334</ele><time>2026-03-29T11:54:34.005Z</time></trkpt><trkpt lat="43.62744881259081" lon="11.043274400215825"><ele>154.66666666666666</ele><time>2026-03-29T11:54:37.005Z</time></trkpt><trkpt lat="43.627439255828826" lon="11.043174431448898"><ele>156.0</ele><time>2026-03-29T11:55:51.004Z</time></trkpt><trkpt lat="43.627392965680535" lon="11.043094183475468"><ele>157.0</ele><time>2026-03-29T11:55:55.004Z</time></trkpt><trkpt lat="43.62736341240088" lon="11.043014055898402"><ele>158.0</ele><time>2026-03-29T11:56:32.005Z</time></trkpt><trkpt lat="43.62733817501383" lon="11.042915872631955"><ele>159.0</ele><time>2026-03-29T11:56:35.005Z</time></trkpt><trkpt lat="43.627291475864745" lon="11.042809333957662"><ele>160.0</ele><time>2026-03-29T11:56:38.005Z</time></trkpt><trkpt lat="43.627239589530205" lon="11.042720672242368"><ele>161.0</ele><time>2026-03-29T11:56:41.005Z</time></trkpt><trkpt lat="43.627154396305954" lon="11.042663939972794"><ele>162.0</ele><time>2026-03-29T11:56:44.005Z</time></trkpt><trkpt lat="43.627068246594696" lon="11.04263719799664"><ele>162.0</ele><time>2026-03-29T11:56:46.005Z</time></trkpt><trkpt lat="43.62698046759256" lon="11.04263014944628"><ele>162.0</ele><time>2026-03-29T11:56:48.005Z</time></trkpt><trkpt lat="43.62688313318653" lon="11.042654132653704"><ele>162.0</ele><time>2026-03-29T11:56:50.005Z</time></trkpt><trkpt lat="43.62678804185331" lon="11.042679892363838"><ele>162.0</ele><time>2026-03-29T11:56:52.005Z</time></trkpt><trkpt lat="43.62668258386873" lon="11.042682558883241"><ele>162.0</ele><time>2026-03-29T11:56:54.004Z</time></trkpt><trkpt lat="43.6265827583379" lon="11.042652872174134"><ele>160.6</ele><time>2026-03-29T11:56:56.004Z</time></trkpt><trkpt lat="43.626510360132556" lon="11.042593384959593"><ele>159.2</ele><time>2026-03-29T11:56:58.004Z</time></trkpt><trkpt lat="43.626445965062416" lon="11.042483877135805"><ele>157.8</ele><time>2026-03-29T11:57:00.004Z</time></trkpt><trkpt lat="43.62642081655252" lon="11.042365972857867"><ele>156.4</ele><time>2026-03-29T11:57:02.004Z</time></trkpt><trkpt lat="43.626416475270446" lon="11.042266067393934"><ele>155.0</ele><time>2026-03-29T11:57:04.004Z</time></trkpt><trkpt lat="43.6264594732412" lon="11.042119391814335"><ele>155.0</ele><time>2026-03-29T11:57:06.004Z</time></trkpt><trkpt lat="43.62654119818776" lon="11.041998631614586"><ele>155.0</ele><time>2026-03-29T11:57:08.004Z</time></trkpt><trkpt lat="43.62660358990146" lon="11.041931953914503"><ele>155.0</ele><time>2026-03-29T11:57:09.004Z</time></trkpt><trkpt lat="43.62670684074301" lon="11.041836046370289"><ele>155.0</ele><time>2026-03-29T11:57:11.004Z</time></trkpt><trkpt lat="43.62676456511645" lon="11.041798181102127"><ele>155.0</ele><time>2026-03-29T11:57:12.004Z</time></trkpt><trkpt lat="43.62685352453325" lon="11.041753751811854"><ele>155.0</ele><time>2026-03-29T11:57:14.004Z</time></trkpt><trkpt lat="43.62695216225152" lon="11.041750746060295"><ele>155.0</ele><time>2026-03-29T11:57:16.004Z</time></trkpt><trkpt lat="43.62705925177305" lon="11.041815549004724"><ele>155.0</ele><time>2026-03-29T11:57:18.004Z</time></trkpt><trkpt lat="43.62713174699959" lon="11.041888111387108"><ele>155.0</ele><time>2026-03-29T11:57:19.004Z</time></trkpt><trkpt lat="43.62721539054717" lon="11.041938526255452"><ele>155.0</ele><time>2026-03-29T11:57:20.004Z</time></trkpt><trkpt lat="43.62730672875192" lon="11.041971911471478"><ele>155.4</ele><time>2026-03-29T11:57:21.004Z</time></trkpt><trkpt lat="43.62738634403315" lon="11.042007855264533"><ele>155.8</ele><time>2026-03-29T11:57:22.004Z</time></trkpt><trkpt lat="43.627468605236785" lon="11.042047322071378"><ele>156.2</ele><time>2026-03-29T11:57:23.004Z</time></trkpt><trkpt lat="43.62757013815386" lon="11.042127538410938"><ele>156.6</ele><time>2026-03-29T11:57:24.004Z</time></trkpt><trkpt lat="43.627688383526" lon="11.042220925429941"><ele>157.0</ele><time>2026-03-29T11:57:25.004Z</time></trkpt><trkpt lat="43.62779838512246" lon="11.042305735069451"><ele>158.25</ele><time>2026-03-29T11:57:26.004Z</time></trkpt><trkpt lat="43.627928913941254" lon="11.042387485157322"><ele>159.5</ele><time>2026-03-29T11:57:27.004Z</time></trkpt><trkpt lat="43.628059993327504" lon="11.0424619062"><ele>160.75</ele><time>2026-03-29T11:57:28.004Z</time></trkpt><trkpt lat="43.62817338843452" lon="11.042528336035417"><ele>162.0</ele><time>2026-03-29T11:57:29.004Z</time></trkpt><trkpt lat="43.62829363335189" lon="11.042585025904987"><ele>162.0</ele><time>2026-03-29T11:57:30.004Z</time></trkpt><trkpt lat="43.62839360659665" lon="11.0426410393223"><ele>162.0</ele><time>2026-03-29T11:57:31.004Z</time></trkpt><trkpt lat="43.62849074339466" lon="11.042708954661387"><ele>162.0</ele><time>2026-03-29T11:57:32.004Z</time></trkpt><trkpt lat="43.628600413625755" lon="11.042768798314356"><ele>162.0</ele><time>2026-03-29T11:57:33.004Z</time></trkpt><trkpt lat="43.62869990897164" lon="11.042848327751681"><ele>162.0</ele><time>2026-03-29T11:57:34.004Z</time></trkpt><trkpt lat="43.628801174698175" lon="11.042925184586892"><ele>162.0</ele><time>2026-03-29T11:57:35.004Z</time></trkpt><trkpt lat="43.628904382038414" lon="11.043006335466826"><ele>162.0</ele><time>2026-03-29T11:57:36.004Z</time></trkpt><trkpt lat="43.629009799547866" lon="11.043077461258251"><ele>162.0</ele><time>2026-03-29T11:57:37.004Z</time></trkpt><trkpt lat="43.629111851851015" lon="11.04314149701222"><ele>162.0</ele><time>2026-03-29T11:57:38.004Z</time></trkpt><trkpt lat="43.629222895723224" lon="11.04319347072267"><ele>162.0</ele><time>2026-03-29T11:57:39.004Z</time></trkpt><trkpt lat="43.62933823652739" lon="11.043224906562337"><ele>162.0</ele><time>2026-03-29T11:57:40.004Z</time></trkpt><trkpt lat="43.62945361368502" lon="11.043240051646048"><ele>162.0</ele><time>2026-03-29T11:57:41.004Z</time></trkpt><trkpt lat="43.62957263167123" lon="11.04324656151081"><ele>163.8</ele><time>2026-03-29T11:57:42.004Z</time></trkpt><trkpt lat="43.629684977237844" lon="11.043260214977753"><ele>165.6</ele><time>2026-03-29T11:57:43.004Z</time></trkpt><trkpt lat="43.62978715754422" lon="11.043272604505487"><ele>167.4</ele><time>2026-03-29T11:57:44.004Z</time></trkpt><trkpt lat="43.629887698438516" lon="11.043262855287702"><ele>169.20000000000002</ele><time>2026-03-29T11:57:45.004Z</time></trkpt><trkpt lat="43.62999173026109" lon="11.043252212729044"><ele>171.0</ele><time>2026-03-29T11:57:46.004Z</time></trkpt><trkpt lat="43.6300965952339" lon="11.043257824605142"><ele>171.0</ele><time>2026-03-29T11:57:47.004Z</time></trkpt><trkpt lat="43.63019937367345" lon="11.043224811582103"><ele>171.0</ele><time>2026-03-29T11:57:48.004Z</time></trkpt><trkpt lat="43.630302656203604" lon="11.043201376622125"><ele>171.0</ele><time>2026-03-29T11:57:49.004Z</time></trkpt><trkpt lat="43.63040665788547" lon="11.043184575145627"><ele>171.0</ele><time>2026-03-29T11:57:50.004Z</time></trkpt><trkpt lat="43.630499469819476" lon="11.043191780270726"><ele>171.0</ele><time>2026-03-29T11:57:51.004Z</time></trkpt><trkpt lat="43.63058068664154" lon="11.043240932059131"><ele>171.60000000000002</ele><time>2026-03-29T11:57:52.004Z</time></trkpt><trkpt lat="43.630651364614415" lon="11.043297046968567"><ele>172.2</ele><time>2026-03-29T11:57:53.004Z</time></trkpt><trkpt lat="43.63071914623414" lon="11.04335585709913"><ele>172.8</ele><time>2026-03-29T11:57:54.004Z</time></trkpt><trkpt lat="43.630809464919125" lon="11.043468962321954"><ele>173.39999999999998</ele><time>2026-03-29T11:57:55.003Z</time></trkpt><trkpt lat="43.63089040948406" lon="11.043605788151146"><ele>174.0</ele><time>2026-03-29T11:57:56.003Z</time></trkpt><trkpt lat="43.6309684059725" lon="11.043782665705628"><ele>172.75</ele><time>2026-03-29T11:57:57.003Z</time></trkpt><trkpt lat="43.631055536177804" lon="11.043953104812013"><ele>171.5</ele><time>2026-03-29T11:57:58.003Z</time></trkpt><trkpt lat="43.63115093366576" lon="11.044090705658922"><ele>170.25</ele><time>2026-03-29T11:57:59.003Z</time></trkpt><trkpt lat="43.63124471757015" lon="11.044194920327868"><ele>169.0</ele><time>2026-03-29T11:58:00.003Z</time></trkpt><trkpt lat="43.631347383960744" lon="11.044284674513676"><ele>171.75</ele><time>2026-03-29T11:58:01.003Z</time></trkpt><trkpt lat="43.63145461222216" lon="11.044361135409561"><ele>174.5</ele><time>2026-03-29T11:58:02.003Z</time></trkpt><trkpt lat="43.63156477425631" lon="11.044448909744313"><ele>177.25</ele><time>2026-03-29T11:58:03.003Z</time></trkpt><trkpt lat="43.631678534267685" lon="11.044540433216989"><ele>180.0</ele><time>2026-03-29T11:58:04.003Z</time></trkpt><trkpt lat="43.63179443119862" lon="11.044640533572606"><ele>180.0</ele><time>2026-03-29T11:58:05.003Z</time></trkpt><trkpt lat="43.63191157443755" lon="11.044748492966802"><ele>180.0</ele><time>2026-03-29T11:58:06.003Z</time></trkpt><trkpt lat="43.632010238251766" lon="11.044851811404799"><ele>180.0</ele><time>2026-03-29T11:58:07.003Z</time></trkpt><trkpt lat="43.63210832480999" lon="11.04493427884487"><ele>180.0</ele><time>2026-03-29T11:58:08.003Z</time></trkpt><trkpt lat="43.6321660632432" lon="11.04504401373505"><ele>181.0</ele><time>2026-03-29T11:58:09.003Z</time></trkpt><trkpt lat="43.63221027572729" lon="11.045146239221497"><ele>182.0</ele><time>2026-03-29T11:58:10.003Z</time></trkpt><trkpt lat="43.63225588523214" lon="11.045254943364354"><ele>183.0</ele><time>2026-03-29T11:58:11.003Z</time></trkpt><trkpt lat="43.63230815001821" lon="11.045379071826192"><ele>184.0</ele><time>2026-03-29T11:58:12.003Z</time></trkpt><trkpt lat="43.63236842605867" lon="11.045527875555223"><ele>185.0</ele><time>2026-03-29T11:58:13.003Z</time></trkpt><trkpt lat="43.63242999088215" lon="11.045679312637793"><ele>186.75</ele><time>2026-03-29T11:58:14.003Z</time></trkpt><trkpt lat="43.63249354293406" lon="11.045835637913619"><ele>188.5</ele><time>2026-03-29T11:58:15.003Z</time></trkpt><trkpt lat="43.63254919514919" lon="11.045979701240215"><ele>190.25</ele><time>2026-03-29T11:58:16.003Z</time></trkpt><trkpt lat="43.63260190776261" lon="11.046101900679025"><ele>192.0</ele><time>2026-03-29T11:58:17.003Z</time></trkpt><trkpt lat="43.63263890833658" lon="11.046241523360962"><ele>192.0</ele><time>2026-03-29T11:58:18.003Z</time></trkpt><trkpt lat="43.632679338038386" lon="11.046367897012164"><ele>192.0</ele><time>2026-03-29T11:58:19.003Z</time></trkpt><trkpt lat="43.63272458818255" lon="11.046516713464271"><ele>192.0</ele><time>2026-03-29T11:58:20.003Z</time></trkpt><trkpt lat="43.63280900592982" lon="11.046643571293304"><ele>192.0</ele><time>2026-03-29T11:58:21.003Z</time></trkpt><trkpt lat="43.63290186008073" lon="11.046770884779626"><ele>192.5</ele><time>2026-03-29T11:58:22.003Z</time></trkpt><trkpt lat="43.63300051288935" lon="11.046909116663455"><ele>193.0</ele><time>2026-03-29T11:58:23.003Z</time></trkpt><trkpt lat="43.63310083707798" lon="11.047051673169094"><ele>193.5</ele><time>2026-03-29T11:58:24.003Z</time></trkpt><trkpt lat="43.633194907229424" lon="11.047169213789333"><ele>194.0</ele><time>2026-03-29T11:58:25.003Z</time></trkpt><trkpt lat="43.633287693861675" lon="11.047293413466264"><ele>194.0</ele><time>2026-03-29T11:58:26.003Z</time></trkpt><trkpt lat="43.63338337574068" lon="11.047423325971907"><ele>194.0</ele><time>2026-03-29T11:58:27.005Z</time></trkpt><trkpt lat="43.63348731030369" lon="11.047559627190987"><ele>194.0</ele><time>2026-03-29T11:58:28.005Z</time></trkpt><trkpt lat="43.633588769217226" lon="11.047695092076088"><ele>194.0</ele><time>2026-03-29T11:58:29.005Z</time></trkpt><trkpt lat="43.63368310306836" lon="11.047839052044685"><ele>196.5</ele><time>2026-03-29T11:58:30.005Z</time></trkpt><trkpt lat="43.63378460082685" lon="11.047972776856328"><ele>199.0</ele><time>2026-03-29T11:58:31.005Z</time></trkpt><trkpt lat="43.63387683811282" lon="11.04809887307207"><ele>201.5</ele><time>2026-03-29T11:58:32.005Z</time></trkpt><trkpt lat="43.633971284048286" lon="11.048219019204723"><ele>204.0</ele><time>2026-03-29T11:58:33.005Z</time></trkpt><trkpt lat="43.63407209387132" lon="11.048321922805547"><ele>205.25</ele><time>2026-03-29T11:58:34.005Z</time></trkpt><trkpt lat="43.63418804998181" lon="11.04841393204506"><ele>206.5</ele><time>2026-03-29T11:58:35.005Z</time></trkpt><trkpt lat="43.6343037418024" lon="11.048495608154157"><ele>207.75</ele><time>2026-03-29T11:58:36.006Z</time></trkpt><trkpt lat="43.63443077235962" lon="11.048548741320891"><ele>209.0</ele><time>2026-03-29T11:58:37.005Z</time></trkpt><trkpt lat="43.63455745584569" lon="11.048609236296487"><ele>211.0</ele><time>2026-03-29T11:58:38.005Z</time></trkpt><trkpt lat="43.63468495028257" lon="11.048694414291546"><ele>213.0</ele><time>2026-03-29T11:58:39.006Z</time></trkpt><trkpt lat="43.63482020690369" lon="11.048779550524541"><ele>215.0</ele><time>2026-03-29T11:58:40.006Z</time></trkpt><trkpt lat="43.63493532724441" lon="11.048889882567957"><ele>217.0</ele><time>2026-03-29T11:58:41.006Z</time></trkpt><trkpt lat="43.63503279846168" lon="11.049031207888829"><ele>217.25</ele><time>2026-03-29T11:58:42.006Z</time></trkpt><trkpt lat="43.63511686987138" lon="11.0491800685329"><ele>217.5</ele><time>2026-03-29T11:58:43.006Z</time></trkpt><trkpt lat="43.635185615975715" lon="11.049320803355132"><ele>217.75</ele><time>2026-03-29T11:58:44.005Z</time></trkpt><trkpt lat="43.635230576852464" lon="11.049457718096885"><ele>218.0</ele><time>2026-03-29T11:58:45.005Z</time></trkpt><trkpt lat="43.63527243505459" lon="11.049623363003684"><ele>215.75</ele><time>2026-03-29T11:58:46.005Z</time></trkpt><trkpt lat="43.63531267552252" lon="11.049782400203611"><ele>213.5</ele><time>2026-03-29T11:58:47.005Z</time></trkpt><trkpt lat="43.63535710311021" lon="11.049940470336399"><ele>211.25</ele><time>2026-03-29T11:58:48.005Z</time></trkpt><trkpt lat="43.63543539970434" lon="11.050105270472924"><ele>209.0</ele><time>2026-03-29T11:58:49.005Z</time></trkpt><trkpt lat="43.635513982555054" lon="11.050263845492447"><ele>209.0</ele><time>2026-03-29T11:58:50.005Z</time></trkpt><trkpt lat="43.63561790313878" lon="11.050414122621017"><ele>209.0</ele><time>2026-03-29T11:58:51.005Z</time></trkpt><trkpt lat="43.63572152667348" lon="11.050590206372581"><ele>209.0</ele><time>2026-03-29T11:58:52.005Z</time></trkpt><trkpt lat="43.63584334105387" lon="11.050760412105182"><ele>212.0</ele><time>2026-03-29T11:58:53.005Z</time></trkpt><trkpt lat="43.63596836103539" lon="11.050938823216514"><ele>215.0</ele><time>2026-03-29T11:58:54.005Z</time></trkpt><trkpt lat="43.63606665050596" lon="11.051135897659034"><ele>218.0</ele><time>2026-03-29T11:58:55.005Z</time></trkpt><trkpt lat="43.63618057407404" lon="11.051305275749957"><ele>215.25</ele><time>2026-03-29T11:58:56.005Z</time></trkpt><trkpt lat="43.636281218349524" lon="11.051460468020498"><ele>212.5</ele><time>2026-03-29T11:58:57.005Z</time></trkpt><trkpt lat="43.6363759850249" lon="11.05160285345473"><ele>209.75</ele><time>2026-03-29T11:58:58.005Z</time></trkpt><trkpt lat="43.63648686389664" lon="11.05173454756445"><ele>207.0</ele><time>2026-03-29T11:58:59.005Z</time></trkpt><trkpt lat="43.63661038004035" lon="11.051870920703376"><ele>207.0</ele><time>2026-03-29T11:59:00.005Z</time></trkpt><trkpt lat="43.636747558878454" lon="11.051999283072684"><ele>207.0</ele><time>2026-03-29T11:59:01.005Z</time></trkpt><trkpt lat="43.63690216399151" lon="11.052108797536897"><ele>207.0</ele><time>2026-03-29T11:59:02.005Z</time></trkpt><trkpt lat="43.63703896268083" lon="11.052232355352517"><ele>205.66666666666669</ele><time>2026-03-29T11:59:03.005Z</time></trkpt><trkpt lat="43.63717977179263" lon="11.052346872065884"><ele>204.33333333333334</ele><time>2026-03-29T11:59:04.005Z</time></trkpt><trkpt lat="43.637318487408336" lon="11.052474825085685"><ele>203.0</ele><time>2026-03-29T11:59:05.005Z</time></trkpt><trkpt lat="43.637454258073305" lon="11.052612389584542"><ele>203.0</ele><time>2026-03-29T11:59:06.005Z</time></trkpt><trkpt lat="43.637588539096534" lon="11.052757121185106"><ele>203.0</ele><time>2026-03-29T11:59:07.005Z</time></trkpt><trkpt lat="43.63773142866966" lon="11.052922716637955"><ele>203.0</ele><time>2026-03-29T11:59:08.005Z</time></trkpt><trkpt lat="43.63787682393871" lon="11.053106445869986"><ele>202.66666666666669</ele><time>2026-03-29T11:59:09.005Z</time></trkpt><trkpt lat="43.63801723303817" lon="11.05329317839217"><ele>202.33333333333331</ele><time>2026-03-29T11:59:10.005Z</time></trkpt><trkpt lat="43.63817181887571" lon="11.053479612121274"><ele>202.0</ele><time>2026-03-29T11:59:11.005Z</time></trkpt><trkpt lat="43.638328547828216" lon="11.053669616819521"><ele>202.0</ele><time>2026-03-29T11:59:12.005Z</time></trkpt><trkpt lat="43.638480141069756" lon="11.053853463781396"><ele>202.0</ele><time>2026-03-29T11:59:13.005Z</time></trkpt><trkpt lat="43.63863741705527" lon="11.054040802418607"><ele>202.0</ele><time>2026-03-29T11:59:14.005Z</time></trkpt><trkpt lat="43.63878570708038" lon="11.054220553710369"><ele>203.33333333333331</ele><time>2026-03-29T11:59:15.005Z</time></trkpt><trkpt lat="43.63891801534228" lon="11.054381503598727"><ele>204.66666666666669</ele><time>2026-03-29T11:59:16.005Z</time></trkpt><trkpt lat="43.6390363580155" lon="11.054525587359652"><ele>206.0</ele><time>2026-03-29T11:59:17.005Z</time></trkpt><trkpt lat="43.63914147809477" lon="11.054652019133817"><ele>206.0</ele><time>2026-03-29T11:59:18.005Z</time></trkpt><trkpt lat="43.63925204535747" lon="11.054782535908757"><ele>206.0</ele><time>2026-03-29T11:59:19.005Z</time></trkpt><trkpt lat="43.63936352842069" lon="11.054921377366222"><ele>206.0</ele><time>2026-03-29T11:59:20.005Z</time></trkpt><trkpt lat="43.63947364129761" lon="11.055056132611659"><ele>206.0</ele><time>2026-03-29T11:59:21.005Z</time></trkpt><trkpt lat="43.63958662493644" lon="11.055208744859744"><ele>208.33333333333334</ele><time>2026-03-29T11:59:22.005Z</time></trkpt><trkpt lat="43.63969874691231" lon="11.055364360324496"><ele>210.66666666666669</ele><time>2026-03-29T11:59:23.005Z</time></trkpt><trkpt lat="43.63980891610189" lon="11.055528829622794"><ele>213.0</ele><time>2026-03-29T11:59:24.005Z</time></trkpt><trkpt lat="43.63992594047318" lon="11.055693419406342"><ele>215.33333333333331</ele><time>2026-03-29T11:59:25.005Z</time></trkpt><trkpt lat="43.640044009091234" lon="11.055853326282497"><ele>217.66666666666666</ele><time>2026-03-29T11:59:26.005Z</time></trkpt><trkpt lat="43.64016735904602" lon="11.056001369367124"><ele>220.0</ele><time>2026-03-29T11:59:27.005Z</time></trkpt><trkpt lat="43.640297124642586" lon="11.056121861612134"><ele>217.0</ele><time>2026-03-29T11:59:28.005Z</time></trkpt><trkpt lat="43.64042285644298" lon="11.056226215740176"><ele>214.0</ele><time>2026-03-29T11:59:29.005Z</time></trkpt><trkpt lat="43.64054201251291" lon="11.056333367453886"><ele>211.0</ele><time>2026-03-29T11:59:30.005Z</time></trkpt><trkpt lat="43.64068932285272" lon="11.056458004482227"><ele>211.0</ele><time>2026-03-29T11:59:31.005Z</time></trkpt><trkpt lat="43.640844321935305" lon="11.056585267914494"><ele>211.0</ele><time>2026-03-29T11:59:32.005Z</time></trkpt><trkpt lat="43.64099266645006" lon="11.056715707475695"><ele>211.0</ele><time>2026-03-29T11:59:33.005Z</time></trkpt><trkpt lat="43.64110889598876" lon="11.056865063032939"><ele>210.75</ele><time>2026-03-29T11:59:34.005Z</time></trkpt><trkpt lat="43.64122192409593" lon="11.056996244005399"><ele>210.5</ele><time>2026-03-29T11:59:35.005Z</time></trkpt><trkpt lat="43.64133212894124" lon="11.057106060734206"><ele>210.25</ele><time>2026-03-29T11:59:36.005Z</time></trkpt><trkpt lat="43.641429923428696" lon="11.057214454228316"><ele>210.0</ele><time>2026-03-29T11:59:37.005Z</time></trkpt><trkpt lat="43.64152687526659" lon="11.057309083457469"><ele>210.0</ele><time>2026-03-29T11:59:38.005Z</time></trkpt><trkpt lat="43.6416313926846" lon="11.057394148394282"><ele>210.0</ele><time>2026-03-29T11:59:39.005Z</time></trkpt><trkpt lat="43.64175936537129" lon="11.057452588708736"><ele>210.0</ele><time>2026-03-29T11:59:40.005Z</time></trkpt><trkpt lat="43.64191208758798" lon="11.057498157622934"><ele>210.0</ele><time>2026-03-29T11:59:41.005Z</time></trkpt><trkpt lat="43.642069070773594" lon="11.057508484039994"><ele>212.75</ele><time>2026-03-29T11:59:42.005Z</time></trkpt><trkpt lat="43.64223174378825" lon="11.057525649974854"><ele>215.5</ele><time>2026-03-29T11:59:43.005Z</time></trkpt><trkpt lat="43.64235968028836" lon="11.057525625835815"><ele>218.25</ele><time>2026-03-29T11:59:44.005Z</time></trkpt><trkpt lat="43.642491024547205" lon="11.057530874983216"><ele>221.0</ele><time>2026-03-29T11:59:45.005Z</time></trkpt><trkpt lat="43.64261032717859" lon="11.057481832061379"><ele>221.0</ele><time>2026-03-29T11:59:46.004Z</time></trkpt><trkpt lat="43.64274239164436" lon="11.057489937357804"><ele>221.0</ele><time>2026-03-29T11:59:47.004Z</time></trkpt><trkpt lat="43.64288666314733" lon="11.057475764263375"><ele>221.0</ele><time>2026-03-29T11:59:48.004Z</time></trkpt><trkpt lat="43.64303472443433" lon="11.057450840384984"><ele>221.0</ele><time>2026-03-29T11:59:49.004Z</time></trkpt><trkpt lat="43.64317991367619" lon="11.057437758293228"><ele>220.20000000000002</ele><time>2026-03-29T11:59:50.004Z</time></trkpt><trkpt lat="43.643297830969765" lon="11.057423567882783"><ele>219.40000000000003</ele><time>2026-03-29T11:59:51.004Z</time></trkpt><trkpt lat="43.64340506543911" lon="11.05740896724467"><ele>218.6</ele><time>2026-03-29T11:59:52.004Z</time></trkpt><trkpt lat="43.64350500961182" lon="11.057383037478804"><ele>217.8</ele><time>2026-03-29T11:59:53.004Z</time></trkpt><trkpt lat="43.64359448038647" lon="11.057381065972573"><ele>217.0</ele><time>2026-03-29T11:59:54.004Z</time></trkpt><trkpt lat="43.643684671842706" lon="11.057385194478055"><ele>216.66666666666666</ele><time>2026-03-29T11:59:55.004Z</time></trkpt><trkpt lat="43.64374783296962" lon="11.057372567666022"><ele>216.33333333333331</ele><time>2026-03-29T11:59:56.004Z</time></trkpt><trkpt lat="43.64381955137375" lon="11.057367923092734"><ele>216.0</ele><time>2026-03-29T11:59:57.004Z</time></trkpt><trkpt lat="43.64389152494742" lon="11.057371411496135"><ele>215.66666666666669</ele><time>2026-03-29T11:59:58.004Z</time></trkpt><trkpt lat="43.64397922492355" lon="11.057423138644277"><ele>215.33333333333334</ele><time>2026-03-29T11:59:59.004Z</time></trkpt><trkpt lat="43.64406287303904" lon="11.057500526608038"><ele>215.0</ele><time>2026-03-29T12:00:00.004Z</time></trkpt><trkpt lat="43.64413206095857" lon="11.057591621714078"><ele>216.75</ele><time>2026-03-29T12:00:01.004Z</time></trkpt><trkpt lat="43.64421022361569" lon="11.057725367714855"><ele>218.5</ele><time>2026-03-29T12:00:02.004Z</time></trkpt><trkpt lat="43.64429082856039" lon="11.057846361062971"><ele>220.25</ele><time>2026-03-29T12:00:03.004Z</time></trkpt><trkpt lat="43.64437285537094" lon="11.057974842743938"><ele>222.0</ele><time>2026-03-29T12:00:04.004Z</time></trkpt><trkpt lat="43.64445122059218" lon="11.058097589119264"><ele>220.8</ele><time>2026-03-29T12:00:05.004Z</time></trkpt><trkpt lat="43.64451660547734" lon="11.058200003887782"><ele>219.6</ele><time>2026-03-29T12:00:06.004Z</time></trkpt><trkpt lat="43.644577464061406" lon="11.058305259701017"><ele>218.40000000000003</ele><time>2026-03-29T12:00:07.004Z</time></trkpt><trkpt lat="43.64464085974893" lon="11.058404993478923"><ele>217.20000000000002</ele><time>2026-03-29T12:00:08.004Z</time></trkpt><trkpt lat="43.64470478604681" lon="11.058491224279008"><ele>216.0</ele><time>2026-03-29T12:00:09.004Z</time></trkpt><trkpt lat="43.6447643416934" lon="11.058560231789448"><ele>216.0</ele><time>2026-03-29T12:00:10.004Z</time></trkpt><trkpt lat="43.64484037249915" lon="11.058708818625616"><ele>216.00000000000003</ele><time>2026-03-29T12:00:12.004Z</time></trkpt><trkpt lat="43.64488631497082" lon="11.058793670812623"><ele>216.00000000000003</ele><time>2026-03-29T12:00:13.004Z</time></trkpt><trkpt lat="43.6449292785161" lon="11.058900562238634"><ele>216.0</ele><time>2026-03-29T12:00:14.004Z</time></trkpt><trkpt lat="43.644984651527665" lon="11.059019932778149"><ele>216.0</ele><time>2026-03-29T12:00:15.004Z</time></trkpt><trkpt lat="43.64503577432019" lon="11.059140653234447"><ele>217.60000000000002</ele><time>2026-03-29T12:00:16.004Z</time></trkpt><trkpt lat="43.645092714118555" lon="11.05927420611659"><ele>219.20000000000002</ele><time>2026-03-29T12:00:17.004Z</time></trkpt><trkpt lat="43.64513550879983" lon="11.059375299401115"><ele>220.79999999999998</ele><time>2026-03-29T12:00:18.004Z</time></trkpt><trkpt lat="43.645173602054705" lon="11.059459444501782"><ele>222.39999999999998</ele><time>2026-03-29T12:00:19.004Z</time></trkpt><trkpt lat="43.64524038746631" lon="11.059600673476131"><ele>224.0</ele><time>2026-03-29T12:00:21.004Z</time></trkpt><trkpt lat="43.64527206237052" lon="11.0596907744"><ele>224.2</ele><time>2026-03-29T12:00:22.004Z</time></trkpt><trkpt lat="43.64530993848407" lon="11.059786822531184"><ele>224.39999999999998</ele><time>2026-03-29T12:00:23.004Z</time></trkpt><trkpt lat="43.645341900053275" lon="11.059866503177581"><ele>224.6</ele><time>2026-03-29T12:00:24.004Z</time></trkpt><trkpt lat="43.64540046755504" lon="11.060019460013162"><ele>224.8</ele><time>2026-03-29T12:00:26.004Z</time></trkpt><trkpt lat="43.645450002290765" lon="11.060168767263967"><ele>225.0</ele><time>2026-03-29T12:00:28.004Z</time></trkpt><trkpt lat="43.64547504548551" lon="11.060253810271561"><ele>225.0</ele><time>2026-03-29T12:00:29.004Z</time></trkpt><trkpt lat="43.64550469995519" lon="11.060343424887925"><ele>225.0</ele><time>2026-03-29T12:00:30.004Z</time></trkpt><trkpt lat="43.64553394638158" lon="11.060421471957333"><ele>225.0</ele><time>2026-03-29T12:00:31.004Z</time></trkpt><trkpt lat="43.645575372160586" lon="11.060530706489297"><ele>225.0</ele><time>2026-03-29T12:00:32.004Z</time></trkpt><trkpt lat="43.64559883165344" lon="11.060657770373037"><ele>225.0</ele><time>2026-03-29T12:00:33.006Z</time></trkpt><trkpt lat="43.64564540651261" lon="11.060784360192862"><ele>225.0</ele><time>2026-03-29T12:00:34.005Z</time></trkpt><trkpt lat="43.64568518372211" lon="11.060900921761544"><ele>225.6</ele><time>2026-03-29T12:00:35.005Z</time></trkpt><trkpt lat="43.64572452703632" lon="11.061032332489235"><ele>226.2</ele><time>2026-03-29T12:00:36.005Z</time></trkpt><trkpt lat="43.64576781902756" lon="11.061164815756877"><ele>226.8</ele><time>2026-03-29T12:00:37.006Z</time></trkpt><trkpt lat="43.64580617639725" lon="11.061292835511317"><ele>227.4</ele><time>2026-03-29T12:00:38.006Z</time></trkpt><trkpt lat="43.645841172984404" lon="11.061404995701713"><ele>228.0</ele><time>2026-03-29T12:00:39.005Z</time></trkpt><trkpt lat="43.645879883788496" lon="11.061510670294629"><ele>227.75</ele><time>2026-03-29T12:00:40.006Z</time></trkpt><trkpt lat="43.64590903158449" lon="11.061625167622653"><ele>227.5</ele><time>2026-03-29T12:00:41.006Z</time></trkpt><trkpt lat="43.64595680526616" lon="11.061753232103303"><ele>227.25</ele><time>2026-03-29T12:00:42.005Z</time></trkpt><trkpt lat="43.64599140172716" lon="11.061880933321508"><ele>227.0</ele><time>2026-03-29T12:00:43.006Z</time></trkpt><trkpt lat="43.646070369685106" lon="11.062161798928225"><ele>227.0</ele><time>2026-03-29T12:00:45.005Z</time></trkpt><trkpt lat="43.64610022206334" lon="11.062287926112754"><ele>227.0</ele><time>2026-03-29T12:00:46.005Z</time></trkpt><trkpt lat="43.646119682885306" lon="11.062419033866641"><ele>227.0</ele><time>2026-03-29T12:00:47.005Z</time></trkpt><trkpt lat="43.646114328863675" lon="11.062581876480504"><ele>227.0</ele><time>2026-03-29T12:00:48.005Z</time></trkpt><trkpt lat="43.64609741027955" lon="11.062749655424172"><ele>227.0</ele><time>2026-03-29T12:00:49.005Z</time></trkpt><trkpt lat="43.64606628612939" lon="11.062915508282217"><ele>227.25</ele><time>2026-03-29T12:00:50.005Z</time></trkpt><trkpt lat="43.64604010350358" lon="11.063081168349145"><ele>227.5</ele><time>2026-03-29T12:00:51.005Z</time></trkpt><trkpt lat="43.646012651859316" lon="11.063263361940011"><ele>227.75</ele><time>2026-03-29T12:00:52.005Z</time></trkpt><trkpt lat="43.6459872068511" lon="11.063455394279721"><ele>228.0</ele><time>2026-03-29T12:00:53.005Z</time></trkpt><trkpt lat="43.64596825197834" lon="11.063667843022387"><ele>228.0</ele><time>2026-03-29T12:00:54.005Z</time></trkpt><trkpt lat="43.645946311965346" lon="11.063877751788672"><ele>228.0</ele><time>2026-03-29T12:00:55.005Z</time></trkpt><trkpt lat="43.64594286859233" lon="11.064071195845392"><ele>228.0</ele><time>2026-03-29T12:00:56.005Z</time></trkpt><trkpt lat="43.645919608608395" lon="11.064241068294573"><ele>228.0</ele><time>2026-03-29T12:00:57.005Z</time></trkpt><trkpt lat="43.64592287981697" lon="11.064417279755375"><ele>229.0</ele><time>2026-03-29T12:00:58.005Z</time></trkpt><trkpt lat="43.6459239199171" lon="11.06460144737608"><ele>230.0</ele><time>2026-03-29T12:00:59.005Z</time></trkpt><trkpt lat="43.645923974760834" lon="11.064779894767744"><ele>231.0</ele><time>2026-03-29T12:01:00.005Z</time></trkpt><trkpt lat="43.645920728091774" lon="11.06495119354914"><ele>232.0</ele><time>2026-03-29T12:01:01.005Z</time></trkpt><trkpt lat="43.64591775763317" lon="11.06514018450877"><ele>232.25</ele><time>2026-03-29T12:01:02.005Z</time></trkpt><trkpt lat="43.6459185810123" lon="11.06531100076979"><ele>232.5</ele><time>2026-03-29T12:01:03.005Z</time></trkpt><trkpt lat="43.64591480678876" lon="11.065486328028982"><ele>232.75</ele><time>2026-03-29T12:01:04.005Z</time></trkpt><trkpt lat="43.645913421045854" lon="11.06564746728862"><ele>233.0</ele><time>2026-03-29T12:01:05.005Z</time></trkpt><trkpt lat="43.64591440295161" lon="11.065783883726443"><ele>233.16666666666669</ele><time>2026-03-29T12:01:06.005Z</time></trkpt><trkpt lat="43.64591714369469" lon="11.065894161743362"><ele>233.33333333333334</ele><time>2026-03-29T12:01:07.005Z</time></trkpt><trkpt lat="43.64591008921811" lon="11.066011548650541"><ele>233.5</ele><time>2026-03-29T12:01:08.005Z</time></trkpt><trkpt lat="43.64590458594808" lon="11.066113456276902"><ele>233.66666666666669</ele><time>2026-03-29T12:01:09.005Z</time></trkpt><trkpt lat="43.64588885244224" lon="11.066214453740697"><ele>233.83333333333334</ele><time>2026-03-29T12:01:10.005Z</time></trkpt><trkpt lat="43.64586478613259" lon="11.0663266558121"><ele>234.0</ele><time>2026-03-29T12:01:11.005Z</time></trkpt><trkpt lat="43.64583312079547" lon="11.066433026674673"><ele>234.0</ele><time>2026-03-29T12:01:12.005Z</time></trkpt><trkpt lat="43.64580098442486" lon="11.066555527777554"><ele>234.0</ele><time>2026-03-29T12:01:14.005Z</time></trkpt><trkpt lat="43.645759712827505" lon="11.066654489072258"><ele>234.0</ele><time>2026-03-29T12:01:17.005Z</time></trkpt><trkpt lat="43.645730124938545" lon="11.066758828013427"><ele>234.0</ele><time>2026-03-29T12:01:19.005Z</time></trkpt><trkpt lat="43.64569759425297" lon="11.066835100629707"><ele>234.0</ele><time>2026-03-29T12:01:20.005Z</time></trkpt><trkpt lat="43.64566952121854" lon="11.066938024578784"><ele>234.0</ele><time>2026-03-29T12:01:21.005Z</time></trkpt><trkpt lat="43.6456287703803" lon="11.067017006944189"><ele>234.0</ele><time>2026-03-29T12:01:22.005Z</time></trkpt><trkpt lat="43.645583759333775" lon="11.067131204401434"><ele>233.99999999999997</ele><time>2026-03-29T12:01:23.005Z</time></trkpt><trkpt lat="43.645518130840635" lon="11.067245923892537"><ele>233.99999999999997</ele><time>2026-03-29T12:01:24.005Z</time></trkpt><trkpt lat="43.64545900202972" lon="11.067358115786181"><ele>234.0</ele><time>2026-03-29T12:01:25.005Z</time></trkpt><trkpt lat="43.64540242445779" lon="11.067461204225072"><ele>234.0</ele><time>2026-03-29T12:01:26.005Z</time></trkpt><trkpt lat="43.645341238577835" lon="11.067580964915955"><ele>232.39999999999998</ele><time>2026-03-29T12:01:27.005Z</time></trkpt><trkpt lat="43.64527197572118" lon="11.067706654519885"><ele>230.79999999999998</ele><time>2026-03-29T12:01:28.005Z</time></trkpt><trkpt lat="43.64521689455512" lon="11.06781895328637"><ele>229.20000000000002</ele><time>2026-03-29T12:01:29.005Z</time></trkpt><trkpt lat="43.64515754545758" lon="11.067940946692193"><ele>227.60000000000002</ele><time>2026-03-29T12:01:30.005Z</time></trkpt><trkpt lat="43.64511213773146" lon="11.068051032889626"><ele>226.0</ele><time>2026-03-29T12:01:31.005Z</time></trkpt><trkpt lat="43.645063432831805" lon="11.068158762922529"><ele>226.0</ele><time>2026-03-29T12:01:32.005Z</time></trkpt><trkpt lat="43.64501750886578" lon="11.068269081353842"><ele>226.00000000000003</ele><time>2026-03-29T12:01:33.004Z</time></trkpt><trkpt lat="43.64497222075486" lon="11.068392121595412"><ele>226.00000000000003</ele><time>2026-03-29T12:01:34.004Z</time></trkpt><trkpt lat="43.64493759041852" lon="11.068524485454024"><ele>226.0</ele><time>2026-03-29T12:01:35.004Z</time></trkpt><trkpt lat="43.644891238643396" lon="11.068665486337588"><ele>226.0</ele><time>2026-03-29T12:01:36.004Z</time></trkpt><trkpt lat="43.64485056974395" lon="11.068816470516513"><ele>226.5</ele><time>2026-03-29T12:01:37.004Z</time></trkpt><trkpt lat="43.64482144618277" lon="11.068966923573907"><ele>227.0</ele><time>2026-03-29T12:01:38.004Z</time></trkpt><trkpt lat="43.64480225019367" lon="11.069119330416546"><ele>227.5</ele><time>2026-03-29T12:01:39.004Z</time></trkpt><trkpt lat="43.644775177041986" lon="11.069272363840026"><ele>228.0</ele><time>2026-03-29T12:01:40.004Z</time></trkpt><trkpt lat="43.644750500042434" lon="11.069452456836514"><ele>228.0</ele><time>2026-03-29T12:01:41.004Z</time></trkpt><trkpt lat="43.64471920556702" lon="11.069640903198978"><ele>228.0</ele><time>2026-03-29T12:01:42.004Z</time></trkpt><trkpt lat="43.64467623953097" lon="11.069857562841314"><ele>228.0</ele><time>2026-03-29T12:01:43.004Z</time></trkpt><trkpt lat="43.64462679571382" lon="11.07004625232796"><ele>228.0</ele><time>2026-03-29T12:01:44.004Z</time></trkpt><trkpt lat="43.644581299354975" lon="11.070201070863098"><ele>228.4</ele><time>2026-03-29T12:01:45.004Z</time></trkpt><trkpt lat="43.644536529484995" lon="11.070325058441501"><ele>228.8</ele><time>2026-03-29T12:01:46.004Z</time></trkpt><trkpt lat="43.64450161508768" lon="11.07046494371047"><ele>229.2</ele><time>2026-03-29T12:01:47.004Z</time></trkpt><trkpt lat="43.644468397898414" lon="11.070607442810184"><ele>229.6</ele><time>2026-03-29T12:01:48.004Z</time></trkpt><trkpt lat="43.64443320172943" lon="11.070752416462083"><ele>230.0</ele><time>2026-03-29T12:01:49.004Z</time></trkpt><trkpt lat="43.64439996306345" lon="11.070882248359236"><ele>230.8</ele><time>2026-03-29T12:01:50.004Z</time></trkpt><trkpt lat="43.64437009409696" lon="11.071009351864792"><ele>231.6</ele><time>2026-03-29T12:01:51.004Z</time></trkpt><trkpt lat="43.6443322677401" lon="11.071131594351488"><ele>232.39999999999998</ele><time>2026-03-29T12:01:52.004Z</time></trkpt><trkpt lat="43.644295698371366" lon="11.071264671595547"><ele>233.2</ele><time>2026-03-29T12:01:53.004Z</time></trkpt><trkpt lat="43.64425644226245" lon="11.07141932943792"><ele>234.0</ele><time>2026-03-29T12:01:54.004Z</time></trkpt><trkpt lat="43.644200087284034" lon="11.071572614587621"><ele>235.33333333333331</ele><time>2026-03-29T12:01:55.004Z</time></trkpt><trkpt lat="43.644147260895856" lon="11.071768456601452"><ele>236.66666666666666</ele><time>2026-03-29T12:01:56.004Z</time></trkpt><trkpt lat="43.64411782809929" lon="11.071985366816607"><ele>238.0</ele><time>2026-03-29T12:01:57.004Z</time></trkpt><trkpt lat="43.64406131498788" lon="11.072207867458477"><ele>238.0</ele><time>2026-03-29T12:01:58.004Z</time></trkpt><trkpt lat="43.643989713384414" lon="11.072429605383299"><ele>238.0</ele><time>2026-03-29T12:01:59.004Z</time></trkpt><trkpt lat="43.643934638425804" lon="11.07263171942743"><ele>238.0</ele><time>2026-03-29T12:02:00.004Z</time></trkpt><trkpt lat="43.643878489465294" lon="11.072803725974515"><ele>238.2</ele><time>2026-03-29T12:02:01.004Z</time></trkpt><trkpt lat="43.643841205009934" lon="11.072948159508488"><ele>238.4</ele><time>2026-03-29T12:02:02.004Z</time></trkpt><trkpt lat="43.64379802415319" lon="11.073073415089208"><ele>238.59999999999997</ele><time>2026-03-29T12:02:03.004Z</time></trkpt><trkpt lat="43.64375764183923" lon="11.073196544377282"><ele>238.79999999999998</ele><time>2026-03-29T12:02:04.004Z</time></trkpt><trkpt lat="43.64373083205025" lon="11.073317328177401"><ele>239.0</ele><time>2026-03-29T12:02:05.004Z</time></trkpt><trkpt lat="43.64369357736823" lon="11.073444448228017"><ele>239.0</ele><time>2026-03-29T12:02:06.004Z</time></trkpt><trkpt lat="43.643667172352394" lon="11.073588142986097"><ele>238.99999999999997</ele><time>2026-03-29T12:02:07.004Z</time></trkpt><trkpt lat="43.64363671630069" lon="11.073738154160912"><ele>238.99999999999997</ele><time>2026-03-29T12:02:08.004Z</time></trkpt><trkpt lat="43.643604423701035" lon="11.07388323518704"><ele>239.0</ele><time>2026-03-29T12:02:09.004Z</time></trkpt><trkpt lat="43.64357390785905" lon="11.074012606554566"><ele>239.0</ele><time>2026-03-29T12:02:10.004Z</time></trkpt><trkpt lat="43.64353936899132" lon="11.074139301413597"><ele>240.00000000000003</ele><time>2026-03-29T12:02:11.004Z</time></trkpt><trkpt lat="43.64350661925162" lon="11.074250680164962"><ele>241.0</ele><time>2026-03-29T12:02:12.004Z</time></trkpt><trkpt lat="43.643471315345586" lon="11.074331881955283"><ele>242.0</ele><time>2026-03-29T12:02:13.004Z</time></trkpt><trkpt lat="43.643422183167004" lon="11.074470816997305"><ele>243.0</ele><time>2026-03-29T12:02:15.004Z</time></trkpt><trkpt lat="43.64339958914126" lon="11.074572963045803"><ele>244.00000000000003</ele><time>2026-03-29T12:02:17.004Z</time></trkpt><trkpt lat="43.64338384013169" lon="11.074678587086556"><ele>245.0</ele><time>2026-03-29T12:02:19.004Z</time></trkpt><trkpt lat="43.643469019623396" lon="11.074683755023258"><ele>245.0</ele><time>2026-03-29T12:02:22.004Z</time></trkpt><trkpt lat="43.64359560631329" lon="11.074646355956421"><ele>245.0</ele><time>2026-03-29T12:02:24.004Z</time></trkpt><trkpt lat="43.643679771735975" lon="11.074640455536416"><ele>245.0</ele><time>2026-03-29T12:02:25.004Z</time></trkpt><trkpt lat="43.643774813064134" lon="11.07467548597589"><ele>245.0</ele><time>2026-03-29T12:02:26.004Z</time></trkpt><trkpt lat="43.643836548213166" lon="11.074735766686219"><ele>245.0</ele><time>2026-03-29T12:02:27.004Z</time></trkpt><trkpt lat="43.643899557645724" lon="11.074842867085376"><ele>245.0</ele><time>2026-03-29T12:02:29.004Z</time></trkpt><trkpt lat="43.64391939297303" lon="11.074926019419053"><ele>245.0</ele><time>2026-03-29T12:02:34.004Z</time></trkpt><trkpt lat="43.643934733209974" lon="11.075021491834988"><ele>245.0</ele><time>2026-03-29T12:05:21.006Z</time></trkpt><trkpt lat="43.64391948970103" lon="11.075106559918133"><ele>245.0</ele><time>2026-03-29T12:05:27.006Z</time></trkpt><trkpt lat="43.64389617638687" lon="11.075199107574335"><ele>245.0</ele><time>2026-03-29T12:05:33.006Z</time></trkpt><trkpt lat="43.64387339002853" lon="11.075281173290149"><ele>245.0</ele><time>2026-03-29T12:05:39.005Z</time></trkpt><trkpt lat="43.643837985840705" lon="11.075357402982574"><ele>245.0</ele><time>2026-03-29T12:05:46.005Z</time></trkpt><trkpt lat="43.643787720360066" lon="11.075456702626058"><ele>245.0</ele><time>2026-03-29T12:05:53.005Z</time></trkpt><trkpt lat="43.643745841484524" lon="11.075526751953511"><ele>245.0</ele><time>2026-03-29T12:06:01.005Z</time></trkpt><trkpt lat="43.643684916422416" lon="11.075552020068791"><ele>245.0</ele><time>2026-03-29T12:06:09.005Z</time></trkpt><trkpt lat="43.643621258913626" lon="11.075542636820261"><ele>245.0</ele><time>2026-03-29T12:06:32.005Z</time></trkpt><trkpt lat="43.64361298830872" lon="11.075414502152881"><ele>245.0</ele><time>2026-03-29T12:07:17.006Z</time></trkpt><trkpt lat="43.64354613507472" lon="11.075411863347322"><ele>245.0</ele><time>2026-03-29T12:07:30.006Z</time></trkpt><trkpt lat="43.64349788067616" lon="11.075475489374638"><ele>245.0</ele><time>2026-03-29T12:10:05.149Z</time></trkpt><trkpt lat="43.64356162025308" lon="11.075524937219518"><ele>245.0</ele><time>2026-03-29T12:10:52.007Z</time></trkpt><trkpt lat="43.64369593014219" lon="11.075576089065027"><ele>245.0</ele><time>2026-03-29T12:22:48.001Z</time></trkpt><trkpt lat="43.643574785711905" lon="11.075479467255224"><ele>245.0</ele><time>2026-03-29T12:47:44.11Z</time></trkpt><trkpt lat="43.64364511233779" lon="11.075580412440216"><ele>245.0</ele><time>2026-03-29T12:48:17.966Z</time></trkpt><trkpt lat="43.6437107315246" lon="11.075551914189179"><ele>245.0</ele><time>2026-03-29T12:48:42.965Z</time></trkpt><trkpt lat="43.64358726456826" lon="11.075492881084749"><ele>245.5</ele><time>2026-03-29T12:48:50.965Z</time></trkpt><trkpt lat="43.6435618494418" lon="11.075397088843058"><ele>246.0</ele><time>2026-03-29T12:59:03.243Z</time></trkpt><trkpt lat="43.64365066208839" lon="11.074767325807676"><ele>246.0</ele><time>2026-03-29T12:59:09.239Z</time></trkpt><trkpt lat="43.643591485257744" lon="11.075333199144703"><ele>246.0</ele><time>2026-03-29T12:59:15.241Z</time></trkpt><trkpt lat="43.643582984878435" lon="11.075452344806386"><ele>246.00000000000003</ele><time>2026-03-29T12:59:21.24Z</time></trkpt><trkpt lat="43.643617907438795" lon="11.07556709649975"><ele>246.0</ele><time>2026-03-29T13:00:58.525Z</time></trkpt><trkpt lat="43.643687639581486" lon="11.075513185800443"><ele>246.00000000000003</ele><time>2026-03-29T13:04:02.899Z</time></trkpt><trkpt lat="43.643722970834375" lon="11.075437164158116"><ele>246.00000000000003</ele><time>2026-03-29T13:04:09.899Z</time></trkpt><trkpt lat="43.64378174295938" lon="11.075393154654265"><ele>246.0</ele><time>2026-03-29T13:04:16.898Z</time></trkpt><trkpt lat="43.64381686227534" lon="11.075308829772787"><ele>246.00000000000003</ele><time>2026-03-29T13:04:23.898Z</time></trkpt><trkpt lat="43.64384752926882" lon="11.075228551600707"><ele>246.00000000000003</ele><time>2026-03-29T13:04:28.898Z</time></trkpt><trkpt lat="43.64386279836542" lon="11.075143620504086"><ele>245.8571428571429</ele><time>2026-03-29T13:04:34.898Z</time></trkpt><trkpt lat="43.64387744070464" lon="11.075054874726458"><ele>245.71428571428572</ele><time>2026-03-29T13:04:41.897Z</time></trkpt><trkpt lat="43.643901235513326" lon="11.074973245132785"><ele>245.57142857142858</ele><time>2026-03-29T13:04:48.897Z</time></trkpt><trkpt lat="43.6439440111629" lon="11.074906963671744"><ele>245.42857142857144</ele><time>2026-03-29T13:04:55.897Z</time></trkpt><trkpt lat="43.64401388912194" lon="11.074890704115477"><ele>245.28571428571428</ele><time>2026-03-29T13:05:04.896Z</time></trkpt><trkpt lat="43.64396839354608" lon="11.074827903713333"><ele>245.14285714285714</ele><time>2026-03-29T13:07:13.894Z</time></trkpt><trkpt lat="43.64390232184373" lon="11.074845236700359"><ele>245.0</ele><time>2026-03-29T13:10:17.891Z</time></trkpt><trkpt lat="43.6438460141826" lon="11.074804905287726"><ele>245.0</ele><time>2026-03-29T13:10:21.891Z</time></trkpt><trkpt lat="43.643755215313234" lon="11.07470693750299"><ele>245.0</ele><time>2026-03-29T13:10:27.891Z</time></trkpt><trkpt lat="43.64371050419991" lon="11.074633989868822"><ele>245.0</ele><time>2026-03-29T13:10:29.891Z</time></trkpt><trkpt lat="43.643859129284294" lon="11.074849959232724"><ele>245.0</ele><time>2026-03-29T13:10:36.891Z</time></trkpt><trkpt lat="43.6439264732049" lon="11.074939125411648"><ele>245.0</ele><time>2026-03-29T13:10:38.89Z</time></trkpt><trkpt lat="43.643983336351205" lon="11.075012659166648"><ele>245.0</ele><time>2026-03-29T13:10:40.89Z</time></trkpt><trkpt lat="43.64414749511098" lon="11.075003954557515"><ele>245.0</ele><time>2026-03-29T13:10:44.89Z</time></trkpt><trkpt lat="43.64421991102738" lon="11.074992901984333"><ele>245.0</ele><time>2026-03-29T13:10:45.89Z</time></trkpt><trkpt lat="43.64430274658467" lon="11.074990309958391"><ele>245.0</ele><time>2026-03-29T13:10:46.89Z</time></trkpt><trkpt lat="43.6443842977143" lon="11.07499493539679"><ele>245.0</ele><time>2026-03-29T13:10:47.89Z</time></trkpt><trkpt lat="43.64445184014927" lon="11.075003467631184"><ele>245.0</ele><time>2026-03-29T13:10:48.89Z</time></trkpt><trkpt lat="43.6445269163744" lon="11.074995219470976"><ele>245.0</ele><time>2026-03-29T13:10:50.89Z</time></trkpt><trkpt lat="43.64459157199906" lon="11.074788213034866"><ele>245.0</ele><time>2026-03-29T13:10:53.89Z</time></trkpt><trkpt lat="43.644619010361836" lon="11.07468288875876"><ele>245.0</ele><time>2026-03-29T13:10:54.89Z</time></trkpt><trkpt lat="43.64465116462879" lon="11.074582134625233"><ele>243.6</ele><time>2026-03-29T13:10:55.89Z</time></trkpt><trkpt lat="43.64468437635804" lon="11.074448882874755"><ele>242.2</ele><time>2026-03-29T13:10:56.89Z</time></trkpt><trkpt lat="43.644734825778684" lon="11.074313162288156"><ele>240.8</ele><time>2026-03-29T13:10:57.89Z</time></trkpt><trkpt lat="43.6447736388583" lon="11.074181437957295"><ele>239.4</ele><time>2026-03-29T13:10:58.89Z</time></trkpt><trkpt lat="43.6448108298757" lon="11.074049564153281"><ele>238.0</ele><time>2026-03-29T13:10:59.89Z</time></trkpt><trkpt lat="43.64485952240983" lon="11.073931290255265"><ele>237.49999999999997</ele><time>2026-03-29T13:11:00.89Z</time></trkpt><trkpt lat="43.6449108369764" lon="11.073871134257114"><ele>237.0</ele><time>2026-03-29T13:11:01.89Z</time></trkpt><trkpt lat="43.64494863923121" lon="11.073786583402951"><ele>236.5</ele><time>2026-03-29T13:11:02.89Z</time></trkpt><trkpt lat="43.64498012973416" lon="11.073708487581548"><ele>236.0</ele><time>2026-03-29T13:11:03.89Z</time></trkpt><trkpt lat="43.645062293148094" lon="11.073642885604542"><ele>235.49999999999997</ele><time>2026-03-29T13:11:05.889Z</time></trkpt><trkpt lat="43.645149554716035" lon="11.073764311765743"><ele>235.0</ele><time>2026-03-29T13:11:07.889Z</time></trkpt><trkpt lat="43.645175287967845" lon="11.073877277925382"><ele>234.99999999999997</ele><time>2026-03-29T13:11:08.889Z</time></trkpt><trkpt lat="43.64518409322924" lon="11.074027650077205"><ele>235.0</ele><time>2026-03-29T13:11:09.889Z</time></trkpt><trkpt lat="43.64519265294638" lon="11.074149922462967"><ele>235.0</ele><time>2026-03-29T13:11:10.889Z</time></trkpt><trkpt lat="43.6452028860691" lon="11.074268297598378"><ele>235.0</ele><time>2026-03-29T13:11:11.889Z</time></trkpt><trkpt lat="43.64520897417395" lon="11.074375145003557"><ele>234.99999999999997</ele><time>2026-03-29T13:11:12.889Z</time></trkpt><trkpt lat="43.64521292942974" lon="11.074479788130192"><ele>235.0</ele><time>2026-03-29T13:11:13.889Z</time></trkpt><trkpt lat="43.64522643106837" lon="11.074583569802343"><ele>235.6</ele><time>2026-03-29T13:11:14.889Z</time></trkpt><trkpt lat="43.64525230581348" lon="11.074702808932647"><ele>236.2</ele><time>2026-03-29T13:11:15.889Z</time></trkpt><trkpt lat="43.64527404044028" lon="11.07482908032187"><ele>236.8</ele><time>2026-03-29T13:11:16.889Z</time></trkpt><trkpt lat="43.64529893976299" lon="11.074969471607629"><ele>237.4</ele><time>2026-03-29T13:11:17.889Z</time></trkpt><trkpt lat="43.6453137520361" lon="11.075118530657635"><ele>238.0</ele><time>2026-03-29T13:11:18.889Z</time></trkpt><trkpt lat="43.645335754027094" lon="11.075283952408682"><ele>235.75</ele><time>2026-03-29T13:11:19.889Z</time></trkpt><trkpt lat="43.645364296740496" lon="11.075455419160747"><ele>233.5</ele><time>2026-03-29T13:11:20.889Z</time></trkpt><trkpt lat="43.64538941157552" lon="11.07562635113193"><ele>231.25</ele><time>2026-03-29T13:11:21.889Z</time></trkpt><trkpt lat="43.64542415610387" lon="11.075777752144852"><ele>229.0</ele><time>2026-03-29T13:11:22.889Z</time></trkpt><trkpt lat="43.64545215657261" lon="11.075942205734895"><ele>228.5</ele><time>2026-03-29T13:11:23.889Z</time></trkpt><trkpt lat="43.64548121800087" lon="11.076113699921374"><ele>228.0</ele><time>2026-03-29T13:11:24.889Z</time></trkpt><trkpt lat="43.645506232384186" lon="11.0762769129319"><ele>227.5</ele><time>2026-03-29T13:11:25.889Z</time></trkpt><trkpt lat="43.64552466773004" lon="11.07642726710439"><ele>227.0</ele><time>2026-03-29T13:11:26.889Z</time></trkpt><trkpt lat="43.6455539835782" lon="11.07657505050884"><ele>227.2</ele><time>2026-03-29T13:11:27.891Z</time></trkpt><trkpt lat="43.64557395965826" lon="11.076697193260257"><ele>227.39999999999998</ele><time>2026-03-29T13:11:28.89Z</time></trkpt><trkpt lat="43.64559912151169" lon="11.076826990351208"><ele>227.60000000000002</ele><time>2026-03-29T13:11:29.89Z</time></trkpt><trkpt lat="43.64563579303282" lon="11.076975306991033"><ele>227.8</ele><time>2026-03-29T13:11:30.891Z</time></trkpt><trkpt lat="43.645688530614336" lon="11.077137669639436"><ele>228.0</ele><time>2026-03-29T13:11:31.891Z</time></trkpt><trkpt lat="43.645730811084015" lon="11.077324551237144"><ele>227.60000000000002</ele><time>2026-03-29T13:11:32.89Z</time></trkpt><trkpt lat="43.64576996087755" lon="11.077489444464998"><ele>227.20000000000002</ele><time>2026-03-29T13:11:33.891Z</time></trkpt><trkpt lat="43.64580173540426" lon="11.077626742237085"><ele>226.8</ele><time>2026-03-29T13:11:34.89Z</time></trkpt><trkpt lat="43.645833060038704" lon="11.077758079107115"><ele>226.4</ele><time>2026-03-29T13:11:35.89Z</time></trkpt><trkpt lat="43.64586554360287" lon="11.077883358667341"><ele>226.0</ele><time>2026-03-29T13:11:36.89Z</time></trkpt><trkpt lat="43.64589707344186" lon="11.078020579962459"><ele>226.0</ele><time>2026-03-29T13:11:37.89Z</time></trkpt><trkpt lat="43.64592408459723" lon="11.078167912694505"><ele>226.0</ele><time>2026-03-29T13:11:38.89Z</time></trkpt><trkpt lat="43.64594728298038" lon="11.078343561131682"><ele>226.0</ele><time>2026-03-29T13:11:39.891Z</time></trkpt><trkpt lat="43.645987260218746" lon="11.078576802307573"><ele>226.0</ele><time>2026-03-29T13:11:40.89Z</time></trkpt><trkpt lat="43.64602162932769" lon="11.07885470424852"><ele>226.0</ele><time>2026-03-29T13:11:41.89Z</time></trkpt><trkpt lat="43.646057878539715" lon="11.079100515148252"><ele>226.0</ele><time>2026-03-29T13:11:42.89Z</time></trkpt><trkpt lat="43.646097298456006" lon="11.079330640701482"><ele>226.0</ele><time>2026-03-29T13:11:43.89Z</time></trkpt><trkpt lat="43.646148363806674" lon="11.079536609559792"><ele>222.5</ele><time>2026-03-29T13:11:44.89Z</time></trkpt><trkpt lat="43.646207711179784" lon="11.079726817469975"><ele>219.0</ele><time>2026-03-29T13:11:45.89Z</time></trkpt><trkpt lat="43.64627789733353" lon="11.079894648191445"><ele>215.5</ele><time>2026-03-29T13:11:46.89Z</time></trkpt><trkpt lat="43.6463587594188" lon="11.080053366695624"><ele>212.0</ele><time>2026-03-29T13:11:47.89Z</time></trkpt><trkpt lat="43.646447786743444" lon="11.080210161362762"><ele>212.0</ele><time>2026-03-29T13:11:48.89Z</time></trkpt><trkpt lat="43.64655403438102" lon="11.080357196220792"><ele>212.0</ele><time>2026-03-29T13:11:49.89Z</time></trkpt><trkpt lat="43.646673134637204" lon="11.080493346870997"><ele>212.0</ele><time>2026-03-29T13:11:50.89Z</time></trkpt><trkpt lat="43.6467967077259" lon="11.080632804780807"><ele>214.33333333333334</ele><time>2026-03-29T13:11:51.89Z</time></trkpt><trkpt lat="43.64691913575262" lon="11.08077812139973"><ele>216.66666666666669</ele><time>2026-03-29T13:11:52.89Z</time></trkpt><trkpt lat="43.647037901007145" lon="11.080938770078953"><ele>219.0</ele><time>2026-03-29T13:11:53.89Z</time></trkpt><trkpt lat="43.64715174893239" lon="11.081107095766434"><ele>217.5</ele><time>2026-03-29T13:11:54.89Z</time></trkpt><trkpt lat="43.64723628577807" lon="11.081278377580228"><ele>216.0</ele><time>2026-03-29T13:11:55.889Z</time></trkpt><trkpt lat="43.647293184863486" lon="11.08144268689743"><ele>214.5</ele><time>2026-03-29T13:11:56.889Z</time></trkpt><trkpt lat="43.64734651455615" lon="11.081614711686699"><ele>213.0</ele><time>2026-03-29T13:11:57.889Z</time></trkpt><trkpt lat="43.64738779453929" lon="11.08179559519933"><ele>213.0</ele><time>2026-03-29T13:11:58.889Z</time></trkpt><trkpt lat="43.647420498499336" lon="11.081971026059966"><ele>213.0</ele><time>2026-03-29T13:11:59.889Z</time></trkpt><trkpt lat="43.64744172629114" lon="11.082137401414615"><ele>213.0</ele><time>2026-03-29T13:12:00.889Z</time></trkpt><trkpt lat="43.647466331839766" lon="11.082291476373909"><ele>213.0</ele><time>2026-03-29T13:12:01.889Z</time></trkpt><trkpt lat="43.64749701896169" lon="11.082455578397552"><ele>212.5</ele><time>2026-03-29T13:12:02.889Z</time></trkpt><trkpt lat="43.64753308497061" lon="11.082636567848871"><ele>212.0</ele><time>2026-03-29T13:12:03.889Z</time></trkpt><trkpt lat="43.64758621520353" lon="11.082814966553775"><ele>211.5</ele><time>2026-03-29T13:12:04.889Z</time></trkpt><trkpt lat="43.64764045655619" lon="11.082986735645552"><ele>211.0</ele><time>2026-03-29T13:12:05.889Z</time></trkpt><trkpt lat="43.64769403336012" lon="11.083161323489437"><ele>210.0</ele><time>2026-03-29T13:12:06.889Z</time></trkpt><trkpt lat="43.64775131374161" lon="11.08333803234157"><ele>209.0</ele><time>2026-03-29T13:12:07.889Z</time></trkpt><trkpt lat="43.64780614759922" lon="11.083509273377395"><ele>208.0</ele><time>2026-03-29T13:12:08.889Z</time></trkpt><trkpt lat="43.64785364648986" lon="11.083665316089204"><ele>207.0</ele><time>2026-03-29T13:12:09.889Z</time></trkpt><trkpt lat="43.6479023398752" lon="11.083821822264827"><ele>206.0</ele><time>2026-03-29T13:12:10.889Z</time></trkpt><trkpt lat="43.64795090479371" lon="11.083983933386909"><ele>205.0</ele><time>2026-03-29T13:12:11.889Z</time></trkpt><trkpt lat="43.64800567015032" lon="11.084133562241929"><ele>204.0</ele><time>2026-03-29T13:12:12.889Z</time></trkpt><trkpt lat="43.64805615358083" lon="11.084292546199821"><ele>203.0</ele><time>2026-03-29T13:12:13.889Z</time></trkpt><trkpt lat="43.64810534132093" lon="11.084445587540767"><ele>203.0</ele><time>2026-03-29T13:12:14.889Z</time></trkpt><trkpt lat="43.64815015448356" lon="11.084623539581221"><ele>203.0</ele><time>2026-03-29T13:12:15.889Z</time></trkpt><trkpt lat="43.648207498175225" lon="11.084788877683314"><ele>203.0</ele><time>2026-03-29T13:12:16.889Z</time></trkpt><trkpt lat="43.64826650974236" lon="11.084963432946694"><ele>203.0</ele><time>2026-03-29T13:12:17.889Z</time></trkpt><trkpt lat="43.648321031123835" lon="11.085130427795706"><ele>203.0</ele><time>2026-03-29T13:12:18.889Z</time></trkpt><trkpt lat="43.64837709985455" lon="11.085303783792503"><ele>203.0</ele><time>2026-03-29T13:12:19.889Z</time></trkpt><trkpt lat="43.64844540202842" lon="11.085444801094857"><ele>203.0</ele><time>2026-03-29T13:12:20.889Z</time></trkpt><trkpt lat="43.64851514113097" lon="11.085598110786618"><ele>203.0</ele><time>2026-03-29T13:12:21.888Z</time></trkpt><trkpt lat="43.64861031828234" lon="11.085727080940838"><ele>200.75</ele><time>2026-03-29T13:12:22.888Z</time></trkpt><trkpt lat="43.648717393375605" lon="11.085817349535077"><ele>198.5</ele><time>2026-03-29T13:12:23.888Z</time></trkpt><trkpt lat="43.6488419889798" lon="11.085867472658375"><ele>196.25</ele><time>2026-03-29T13:12:24.888Z</time></trkpt><trkpt lat="43.648961419020324" lon="11.085889614682042"><ele>194.0</ele><time>2026-03-29T13:12:25.888Z</time></trkpt><trkpt lat="43.64907626171229" lon="11.085865800956805"><ele>194.0</ele><time>2026-03-29T13:12:26.888Z</time></trkpt><trkpt lat="43.64918254382999" lon="11.085796425456643"><ele>194.0</ele><time>2026-03-29T13:12:27.888Z</time></trkpt><trkpt lat="43.64925641416375" lon="11.08567573522154"><ele>194.0</ele><time>2026-03-29T13:12:28.888Z</time></trkpt><trkpt lat="43.649303399101456" lon="11.085556409263551"><ele>194.0</ele><time>2026-03-29T13:12:29.888Z</time></trkpt><trkpt lat="43.64935174597132" lon="11.085387603820088"><ele>193.0</ele><time>2026-03-29T13:12:30.888Z</time></trkpt><trkpt lat="43.6494068506014" lon="11.085204481668535"><ele>192.0</ele><time>2026-03-29T13:12:31.888Z</time></trkpt><trkpt lat="43.64946572011534" lon="11.085059520791885"><ele>191.0</ele><time>2026-03-29T13:12:32.888Z</time></trkpt><trkpt lat="43.64957529096849" lon="11.084948102930401"><ele>190.0</ele><time>2026-03-29T13:12:33.888Z</time></trkpt><trkpt lat="43.64971761266982" lon="11.084856485121868"><ele>189.75</ele><time>2026-03-29T13:12:34.888Z</time></trkpt><trkpt lat="43.64987162732775" lon="11.08479348517872"><ele>189.5</ele><time>2026-03-29T13:12:35.888Z</time></trkpt><trkpt lat="43.65001468984023" lon="11.084760871478224"><ele>189.25</ele><time>2026-03-29T13:12:36.888Z</time></trkpt><trkpt lat="43.65015255647079" lon="11.08473701336185"><ele>189.0</ele><time>2026-03-29T13:12:37.888Z</time></trkpt><trkpt lat="43.65030262336326" lon="11.084728177851847"><ele>187.0</ele><time>2026-03-29T13:12:38.888Z</time></trkpt><trkpt lat="43.65044629985375" lon="11.084727495891899"><ele>185.0</ele><time>2026-03-29T13:12:39.888Z</time></trkpt><trkpt lat="43.65057302023301" lon="11.084731073954996"><ele>183.0</ele><time>2026-03-29T13:12:40.888Z</time></trkpt><trkpt lat="43.6506934503239" lon="11.084737324142433"><ele>181.0</ele><time>2026-03-29T13:12:41.888Z</time></trkpt><trkpt lat="43.65082012382505" lon="11.084748655249449"><ele>181.0</ele><time>2026-03-29T13:12:42.888Z</time></trkpt><trkpt lat="43.650958414780995" lon="11.084761936770619"><ele>181.0</ele><time>2026-03-29T13:12:43.888Z</time></trkpt><trkpt lat="43.65109644585509" lon="11.084795232655166"><ele>181.0</ele><time>2026-03-29T13:12:44.888Z</time></trkpt><trkpt lat="43.651217944431465" lon="11.084855017955514"><ele>181.0</ele><time>2026-03-29T13:12:45.888Z</time></trkpt><trkpt lat="43.65130826301647" lon="11.08495023117815"><ele>179.0</ele><time>2026-03-29T13:12:46.887Z</time></trkpt><trkpt lat="43.65133135250862" lon="11.08508944639483"><ele>177.0</ele><time>2026-03-29T13:12:47.887Z</time></trkpt><trkpt lat="43.65132286903138" lon="11.085210178601697"><ele>175.0</ele><time>2026-03-29T13:12:48.887Z</time></trkpt><trkpt lat="43.65129997471245" lon="11.085345302626774"><ele>173.0</ele><time>2026-03-29T13:12:49.887Z</time></trkpt><trkpt lat="43.651286309537525" lon="11.085486086788176"><ele>171.0</ele><time>2026-03-29T13:12:50.887Z</time></trkpt><trkpt lat="43.65138280319162" lon="11.0856866287864"><ele>171.0</ele><time>2026-03-29T13:12:52.887Z</time></trkpt><trkpt lat="43.651463639084064" lon="11.08572871016543"><ele>171.0</ele><time>2026-03-29T13:12:53.887Z</time></trkpt><trkpt lat="43.65155788700242" lon="11.08573624500799"><ele>171.0</ele><time>2026-03-29T13:12:54.887Z</time></trkpt><trkpt lat="43.651640217340784" lon="11.085670292863714"><ele>171.0</ele><time>2026-03-29T13:12:55.887Z</time></trkpt><trkpt lat="43.651725218595836" lon="11.08554817278821"><ele>171.0</ele><time>2026-03-29T13:12:56.887Z</time></trkpt><trkpt lat="43.65180507684873" lon="11.085411388555894"><ele>171.0</ele><time>2026-03-29T13:12:57.887Z</time></trkpt><trkpt lat="43.65188756546205" lon="11.085283601856869"><ele>171.0</ele><time>2026-03-29T13:12:58.887Z</time></trkpt><trkpt lat="43.6519599937302" lon="11.08515154301923"><ele>171.0</ele><time>2026-03-29T13:12:59.887Z</time></trkpt><trkpt lat="43.65205017334274" lon="11.085052845172632"><ele>171.0</ele><time>2026-03-29T13:13:00.887Z</time></trkpt><trkpt lat="43.65214203626964" lon="11.084973815374942"><ele>167.75</ele><time>2026-03-29T13:13:01.887Z</time></trkpt><trkpt lat="43.65226849923936" lon="11.08491030203658"><ele>164.5</ele><time>2026-03-29T13:13:02.887Z</time></trkpt><trkpt lat="43.65240392510758" lon="11.084862356608282"><ele>161.25</ele><time>2026-03-29T13:13:03.887Z</time></trkpt><trkpt lat="43.652537427060366" lon="11.0848119467577"><ele>158.0</ele><time>2026-03-29T13:13:04.887Z</time></trkpt><trkpt lat="43.65266180741892" lon="11.084748571473003"><ele>158.0</ele><time>2026-03-29T13:13:05.887Z</time></trkpt><trkpt lat="43.652781767456034" lon="11.084689941051534"><ele>158.0</ele><time>2026-03-29T13:13:06.887Z</time></trkpt><trkpt lat="43.65288779058201" lon="11.084631779871629"><ele>158.0</ele><time>2026-03-29T13:13:07.887Z</time></trkpt><trkpt lat="43.65298760998955" lon="11.084599274761866"><ele>158.0</ele><time>2026-03-29T13:13:08.887Z</time></trkpt><trkpt lat="43.653088476642125" lon="11.084593262560952"><ele>158.0</ele><time>2026-03-29T13:13:09.887Z</time></trkpt><trkpt lat="43.65320059368097" lon="11.084625648124838"><ele>157.20000000000002</ele><time>2026-03-29T13:13:10.887Z</time></trkpt><trkpt lat="43.653305255506815" lon="11.084689687470197"><ele>156.4</ele><time>2026-03-29T13:13:11.886Z</time></trkpt><trkpt lat="43.653370618772804" lon="11.084798691416792"><ele>155.60000000000002</ele><time>2026-03-29T13:13:12.886Z</time></trkpt><trkpt lat="43.6534107182462" lon="11.084935722271597"><ele>154.8</ele><time>2026-03-29T13:13:13.886Z</time></trkpt><trkpt lat="43.653425846156054" lon="11.085065046697295"><ele>154.0</ele><time>2026-03-29T13:13:14.886Z</time></trkpt><trkpt lat="43.65341647559903" lon="11.08521468312326"><ele>154.0</ele><time>2026-03-29T13:13:15.886Z</time></trkpt><trkpt lat="43.653396197934406" lon="11.085351819856271"><ele>154.0</ele><time>2026-03-29T13:13:16.886Z</time></trkpt><trkpt lat="43.653343045110994" lon="11.085445147937058"><ele>154.0</ele><time>2026-03-29T13:13:17.886Z</time></trkpt><trkpt lat="43.65326441080565" lon="11.085518600614598"><ele>154.0</ele><time>2026-03-29T13:13:18.886Z</time></trkpt><trkpt lat="43.653168999198776" lon="11.085577211979055"><ele>154.0</ele><time>2026-03-29T13:13:19.886Z</time></trkpt><trkpt lat="43.653046021213136" lon="11.085648189679775"><ele>154.0</ele><time>2026-03-29T13:13:20.886Z</time></trkpt><trkpt lat="43.65290378322144" lon="11.085743117655745"><ele>154.0</ele><time>2026-03-29T13:13:21.886Z</time></trkpt><trkpt lat="43.65276087034759" lon="11.085847293602486"><ele>154.0</ele><time>2026-03-29T13:13:22.886Z</time></trkpt><trkpt lat="43.652635937506176" lon="11.085952901951215"><ele>154.75</ele><time>2026-03-29T13:13:23.886Z</time></trkpt><trkpt lat="43.652545345943714" lon="11.086072820349937"><ele>155.5</ele><time>2026-03-29T13:13:24.886Z</time></trkpt><trkpt lat="43.6524961034602" lon="11.08622076667642"><ele>156.25</ele><time>2026-03-29T13:13:25.886Z</time></trkpt><trkpt lat="43.65248541858572" lon="11.086420954697822"><ele>157.0</ele><time>2026-03-29T13:13:26.886Z</time></trkpt><trkpt lat="43.65248975862752" lon="11.086641336652539"><ele>154.75</ele><time>2026-03-29T13:13:27.886Z</time></trkpt><trkpt lat="43.652471314277044" lon="11.086859253741784"><ele>152.5</ele><time>2026-03-29T13:13:28.886Z</time></trkpt><trkpt lat="43.65242708363031" lon="11.087023935164725"><ele>150.25</ele><time>2026-03-29T13:13:29.886Z</time></trkpt><trkpt lat="43.65233835386379" lon="11.087151746635767"><ele>148.0</ele><time>2026-03-29T13:13:30.886Z</time></trkpt><trkpt lat="43.65223796194292" lon="11.087218181510844"><ele>148.0</ele><time>2026-03-29T13:13:31.886Z</time></trkpt><trkpt lat="43.65212245376394" lon="11.087280467401209"><ele>148.0</ele><time>2026-03-29T13:13:32.886Z</time></trkpt><trkpt lat="43.65202127583617" lon="11.087332621502272"><ele>148.0</ele><time>2026-03-29T13:13:33.888Z</time></trkpt><trkpt lat="43.65193886646447" lon="11.087399549710325"><ele>148.0</ele><time>2026-03-29T13:13:34.887Z</time></trkpt><trkpt lat="43.65187718301427" lon="11.08748039997347"><ele>148.0</ele><time>2026-03-29T13:13:35.887Z</time></trkpt><trkpt lat="43.651826035744385" lon="11.087563346565576"><ele>148.0</ele><time>2026-03-29T13:13:36.888Z</time></trkpt><trkpt lat="43.651792213675186" lon="11.08763731876199"><ele>148.0</ele><time>2026-03-29T13:13:37.888Z</time></trkpt><trkpt lat="43.65174943274782" lon="11.087711615426246"><ele>148.0</ele><time>2026-03-29T13:13:38.888Z</time></trkpt><trkpt lat="43.65169500555803" lon="11.087765896404857"><ele>148.0</ele><time>2026-03-29T13:13:41.888Z</time></trkpt><trkpt lat="43.65161628326231" lon="11.087908385996165"><ele>148.0</ele><time>2026-03-29T13:14:28.886Z</time></trkpt><trkpt lat="43.65155022031426" lon="11.087987744767114"><ele>148.0</ele><time>2026-03-29T13:14:29.886Z</time></trkpt><trkpt lat="43.65148760673056" lon="11.088062084529602"><ele>148.0</ele><time>2026-03-29T13:14:30.886Z</time></trkpt><trkpt lat="43.651432939332494" lon="11.088166259289528"><ele>148.0</ele><time>2026-03-29T13:14:31.886Z</time></trkpt><trkpt lat="43.65138609609039" lon="11.088264307263529"><ele>148.0</ele><time>2026-03-29T13:14:32.886Z</time></trkpt><trkpt lat="43.651333898693636" lon="11.088372267075233"><ele>148.0</ele><time>2026-03-29T13:14:33.885Z</time></trkpt><trkpt lat="43.651283171026584" lon="11.088491013807163"><ele>148.0</ele><time>2026-03-29T13:14:34.885Z</time></trkpt><trkpt lat="43.65122935081132" lon="11.088612787495565"><ele>147.25</ele><time>2026-03-29T13:14:35.885Z</time></trkpt><trkpt lat="43.65115682508336" lon="11.088718902735977"><ele>146.5</ele><time>2026-03-29T13:14:36.885Z</time></trkpt><trkpt lat="43.65107262367864" lon="11.088835013881043"><ele>145.75</ele><time>2026-03-29T13:14:37.885Z</time></trkpt><trkpt lat="43.65094571670324" lon="11.088917752272723"><ele>145.0</ele><time>2026-03-29T13:14:38.885Z</time></trkpt><trkpt lat="43.650828097210756" lon="11.089009989136288"><ele>145.0</ele><time>2026-03-29T13:14:39.885Z</time></trkpt><trkpt lat="43.65072289891392" lon="11.089078070430142"><ele>145.0</ele><time>2026-03-29T13:14:40.885Z</time></trkpt><trkpt lat="43.65063161617381" lon="11.089200935690755"><ele>145.0</ele><time>2026-03-29T13:14:41.885Z</time></trkpt><trkpt lat="43.650569864344206" lon="11.089345423182806"><ele>145.0</ele><time>2026-03-29T13:14:42.885Z</time></trkpt><trkpt lat="43.650502661758594" lon="11.089509932491497"><ele>141.25</ele><time>2026-03-29T13:14:43.885Z</time></trkpt><trkpt lat="43.65042597018028" lon="11.089696261221281"><ele>137.5</ele><time>2026-03-29T13:14:44.885Z</time></trkpt><trkpt lat="43.65035075824845" lon="11.08984118048656"><ele>133.75</ele><time>2026-03-29T13:14:45.885Z</time></trkpt><trkpt lat="43.650256152560075" lon="11.089977866038387"><ele>130.0</ele><time>2026-03-29T13:14:46.885Z</time></trkpt><trkpt lat="43.65015170966247" lon="11.090107349245878"><ele>130.0</ele><time>2026-03-29T13:14:47.885Z</time></trkpt><trkpt lat="43.65003334909098" lon="11.090210786231397"><ele>130.0</ele><time>2026-03-29T13:14:48.885Z</time></trkpt><trkpt lat="43.64992261831353" lon="11.090326011607852"><ele>130.0</ele><time>2026-03-29T13:14:49.885Z</time></trkpt><trkpt lat="43.649819310543215" lon="11.090451207397335"><ele>130.0</ele><time>2026-03-29T13:14:50.885Z</time></trkpt><trkpt lat="43.649714946029746" lon="11.090528301161328"><ele>130.0</ele><time>2026-03-29T13:14:51.885Z</time></trkpt><trkpt lat="43.649621030733336" lon="11.090630028107947"><ele>130.0</ele><time>2026-03-29T13:14:52.885Z</time></trkpt><trkpt lat="43.64954501464497" lon="11.090741183861791"><ele>130.0</ele><time>2026-03-29T13:14:53.885Z</time></trkpt><trkpt lat="43.64947317116321" lon="11.090875260948946"><ele>130.0</ele><time>2026-03-29T13:14:54.885Z</time></trkpt><trkpt lat="43.649395805343204" lon="11.090991841115448"><ele>129.25</ele><time>2026-03-29T13:14:55.885Z</time></trkpt><trkpt lat="43.64932615983883" lon="11.091145098305201"><ele>128.5</ele><time>2026-03-29T13:14:56.885Z</time></trkpt><trkpt lat="43.64926617849468" lon="11.09129062857026"><ele>127.75</ele><time>2026-03-29T13:14:57.885Z</time></trkpt><trkpt lat="43.64920829647637" lon="11.091431781938704"><ele>127.0</ele><time>2026-03-29T13:14:58.884Z</time></trkpt><trkpt lat="43.649157470743575" lon="11.09156877723917"><ele>125.19999999999999</ele><time>2026-03-29T13:14:59.884Z</time></trkpt><trkpt lat="43.649126969426334" lon="11.091702341110718"><ele>123.39999999999999</ele><time>2026-03-29T13:15:00.884Z</time></trkpt><trkpt lat="43.64912353203223" lon="11.09183181362679"><ele>121.60000000000001</ele><time>2026-03-29T13:15:01.884Z</time></trkpt><trkpt lat="43.64915568001026" lon="11.091962781726979"><ele>119.80000000000001</ele><time>2026-03-29T13:15:02.884Z</time></trkpt><trkpt lat="43.649211698011484" lon="11.092075554986804"><ele>118.0</ele><time>2026-03-29T13:15:03.884Z</time></trkpt><trkpt lat="43.64928444848741" lon="11.092165038075512"><ele>118.0</ele><time>2026-03-29T13:15:04.884Z</time></trkpt><trkpt lat="43.64936861081461" lon="11.092265878125662"><ele>118.0</ele><time>2026-03-29T13:15:05.884Z</time></trkpt><trkpt lat="43.649443704640376" lon="11.092384925747627"><ele>118.0</ele><time>2026-03-29T13:15:06.884Z</time></trkpt><trkpt lat="43.64952222361301" lon="11.092537535941728"><ele>118.0</ele><time>2026-03-29T13:15:07.884Z</time></trkpt><trkpt lat="43.64961041943119" lon="11.09270162288528"><ele>117.33333333333334</ele><time>2026-03-29T13:15:08.884Z</time></trkpt><trkpt lat="43.649710113040804" lon="11.092878760178204"><ele>116.66666666666666</ele><time>2026-03-29T13:15:09.884Z</time></trkpt><trkpt lat="43.649838148753794" lon="11.093083690366692"><ele>116.0</ele><time>2026-03-29T13:15:10.884Z</time></trkpt><trkpt lat="43.649937782328514" lon="11.09327765798163"><ele>115.99999999999999</ele><time>2026-03-29T13:15:11.884Z</time></trkpt><trkpt lat="43.65001290117666" lon="11.093419740742462"><ele>116.0</ele><time>2026-03-29T13:15:12.884Z</time></trkpt><trkpt lat="43.65006390632962" lon="11.093512471336608"><ele>116.0</ele><time>2026-03-29T13:15:13.884Z</time></trkpt><trkpt lat="43.65008779577611" lon="11.093613723690375"><ele>116.0</ele><time>2026-03-29T13:15:14.884Z</time></trkpt><trkpt lat="43.65013472063277" lon="11.093722769085119"><ele>115.99999999999999</ele><time>2026-03-29T13:15:17.884Z</time></trkpt><trkpt lat="43.65017719789541" lon="11.093794955669335"><ele>116.0</ele><time>2026-03-29T13:15:18.884Z</time></trkpt><trkpt lat="43.65024982093244" lon="11.093905012226802"><ele>116.0</ele><time>2026-03-29T13:15:19.884Z</time></trkpt><trkpt lat="43.65034190731492" lon="11.094042405689006"><ele>116.0</ele><time>2026-03-29T13:15:20.884Z</time></trkpt><trkpt lat="43.650447001522444" lon="11.094223623135589"><ele>116.0</ele><time>2026-03-29T13:15:21.884Z</time></trkpt><trkpt lat="43.650554716434485" lon="11.094425416295165"><ele>117.0</ele><time>2026-03-29T13:15:22.884Z</time></trkpt><trkpt lat="43.650638256106376" lon="11.094623018986836"><ele>118.0</ele><time>2026-03-29T13:15:23.884Z</time></trkpt><trkpt lat="43.65067063113605" lon="11.094789733673737"><ele>119.0</ele><time>2026-03-29T13:15:24.883Z</time></trkpt><trkpt lat="43.650659504704365" lon="11.094971891596142"><ele>120.0</ele><time>2026-03-29T13:15:25.883Z</time></trkpt><trkpt lat="43.65062871911657" lon="11.095166568531894"><ele>121.4</ele><time>2026-03-29T13:15:26.883Z</time></trkpt><trkpt lat="43.650604528594904" lon="11.095353408372866"><ele>122.8</ele><time>2026-03-29T13:15:27.883Z</time></trkpt><trkpt lat="43.650644291776466" lon="11.095498514053299"><ele>124.19999999999999</ele><time>2026-03-29T13:15:28.883Z</time></trkpt><trkpt lat="43.65069134357821" lon="11.095612170511068"><ele>125.6</ele><time>2026-03-29T13:15:29.883Z</time></trkpt><trkpt lat="43.65074607486555" lon="11.095697455100655"><ele>127.0</ele><time>2026-03-29T13:15:30.883Z</time></trkpt><trkpt lat="43.65079524789811" lon="11.095816654911944"><ele>128.6</ele><time>2026-03-29T13:15:31.883Z</time></trkpt><trkpt lat="43.6508058814727" lon="11.095948479286344"><ele>130.2</ele><time>2026-03-29T13:15:32.883Z</time></trkpt><trkpt lat="43.650764210409264" lon="11.096084434177172"><ele>131.8</ele><time>2026-03-29T13:15:33.883Z</time></trkpt><trkpt lat="43.65066947400006" lon="11.096173136385714"><ele>133.4</ele><time>2026-03-29T13:15:34.883Z</time></trkpt><trkpt lat="43.65056316965482" lon="11.096205910526647"><ele>135.0</ele><time>2026-03-29T13:15:35.883Z</time></trkpt><trkpt lat="43.650454852818804" lon="11.096238365321048"><ele>135.0</ele><time>2026-03-29T13:15:36.883Z</time></trkpt><trkpt lat="43.6503429282677" lon="11.096270835168115"><ele>135.0</ele><time>2026-03-29T13:15:37.883Z</time></trkpt><trkpt lat="43.650245758964275" lon="11.09634374108437"><ele>135.0</ele><time>2026-03-29T13:15:38.883Z</time></trkpt><trkpt lat="43.65017561804709" lon="11.096463038423467"><ele>135.0</ele><time>2026-03-29T13:15:39.885Z</time></trkpt><trkpt lat="43.65017081910446" lon="11.096604419098398"><ele>135.0</ele><time>2026-03-29T13:15:40.885Z</time></trkpt><trkpt lat="43.65015953405372" lon="11.096758773312969"><ele>135.25</ele><time>2026-03-29T13:15:41.885Z</time></trkpt><trkpt lat="43.65018117199506" lon="11.096933190551324"><ele>135.5</ele><time>2026-03-29T13:15:42.886Z</time></trkpt><trkpt lat="43.65023364221953" lon="11.09708197364989"><ele>135.75</ele><time>2026-03-29T13:15:43.885Z</time></trkpt><trkpt lat="43.6503067307054" lon="11.097235634960757"><ele>136.0</ele><time>2026-03-29T13:15:44.885Z</time></trkpt><trkpt lat="43.65036442479094" lon="11.097375515738186"><ele>138.0</ele><time>2026-03-29T13:15:45.885Z</time></trkpt><trkpt lat="43.6503874172539" lon="11.097529124214745"><ele>140.0</ele><time>2026-03-29T13:15:46.885Z</time></trkpt><trkpt lat="43.65039847529258" lon="11.097694523617061"><ele>142.0</ele><time>2026-03-29T13:15:47.885Z</time></trkpt><trkpt lat="43.65038554846399" lon="11.097838529617484"><ele>144.0</ele><time>2026-03-29T13:15:48.885Z</time></trkpt><trkpt lat="43.65033296359786" lon="11.097943601110442"><ele>146.0</ele><time>2026-03-29T13:15:49.885Z</time></trkpt><trkpt lat="43.65022392852128" lon="11.098009675898128"><ele>149.75</ele><time>2026-03-29T13:15:50.885Z</time></trkpt><trkpt lat="43.65015278780482" lon="11.098144599825766"><ele>153.5</ele><time>2026-03-29T13:15:51.885Z</time></trkpt><trkpt lat="43.65007742311415" lon="11.098304878840137"><ele>157.25</ele><time>2026-03-29T13:15:52.885Z</time></trkpt><trkpt lat="43.65002673125494" lon="11.098489004804408"><ele>161.0</ele><time>2026-03-29T13:15:53.885Z</time></trkpt><trkpt lat="43.64996650359716" lon="11.098621887277163"><ele>162.33333333333331</ele><time>2026-03-29T13:15:54.885Z</time></trkpt><trkpt lat="43.6498852569316" lon="11.098654263389975"><ele>163.66666666666666</ele><time>2026-03-29T13:15:55.885Z</time></trkpt><trkpt lat="43.64979552110917" lon="11.098659940364485"><ele>165.0</ele><time>2026-03-29T13:15:56.885Z</time></trkpt><trkpt lat="43.649701434570275" lon="11.098689180080225"><ele>166.33333333333334</ele><time>2026-03-29T13:15:57.885Z</time></trkpt><trkpt lat="43.64961722273632" lon="11.098744693528342"><ele>167.66666666666669</ele><time>2026-03-29T13:15:58.885Z</time></trkpt><trkpt lat="43.6495574441648" lon="11.098773117250404"><ele>169.0</ele><time>2026-03-29T13:15:59.885Z</time></trkpt><trkpt lat="43.64952850862833" lon="11.098692296867794"><ele>169.0</ele><time>2026-03-29T13:16:04.885Z</time></trkpt><trkpt lat="43.64952655367773" lon="11.09859361197136"><ele>169.0</ele><time>2026-03-29T13:21:23.844Z</time></trkpt><trkpt lat="43.64953727118511" lon="11.098507615412478"><ele>169.0</ele><time>2026-03-29T13:21:28.843Z</time></trkpt><trkpt lat="43.649527132149494" lon="11.098402154138265"><ele>169.0</ele><time>2026-03-29T13:21:34.843Z</time></trkpt><trkpt lat="43.64951458255679" lon="11.098299869533422"><ele>169.0</ele><time>2026-03-29T13:22:22.843Z</time></trkpt><trkpt lat="43.64952769783501" lon="11.09840450963922"><ele>169.0</ele><time>2026-03-29T13:23:12.839Z</time></trkpt><trkpt lat="43.64954481890915" lon="11.098506425613392"><ele>169.0</ele><time>2026-03-29T13:23:14.839Z</time></trkpt><trkpt lat="43.64953819067603" lon="11.0986215080184"><ele>169.0</ele><time>2026-03-29T13:23:16.839Z</time></trkpt><trkpt lat="43.64953710164923" lon="11.098709325703025"><ele>169.0</ele><time>2026-03-29T13:23:18.839Z</time></trkpt><trkpt lat="43.64960772102795" lon="11.098766650688365"><ele>169.0</ele><time>2026-03-29T13:23:40.838Z</time></trkpt><trkpt lat="43.64971198620396" lon="11.098721477287619"><ele>169.0</ele><time>2026-03-29T13:23:42.838Z</time></trkpt><trkpt lat="43.64981380466409" lon="11.098699287412268"><ele>169.0</ele><time>2026-03-29T13:23:43.838Z</time></trkpt><trkpt lat="43.649889927627875" lon="11.098674437482565"><ele>169.0</ele><time>2026-03-29T13:23:44.838Z</time></trkpt><trkpt lat="43.64995958567451" lon="11.098640673766212"><ele>169.0</ele><time>2026-03-29T13:23:45.838Z</time></trkpt><trkpt lat="43.65002072672865" lon="11.098586808725395"><ele>169.0</ele><time>2026-03-29T13:23:46.838Z</time></trkpt><trkpt lat="43.650060537465684" lon="11.098514076363422"><ele>169.0</ele><time>2026-03-29T13:23:47.838Z</time></trkpt><trkpt lat="43.65009530131658" lon="11.098425443280526"><ele>169.0</ele><time>2026-03-29T13:23:48.838Z</time></trkpt><trkpt lat="43.65012536681522" lon="11.098329950856614"><ele>169.0</ele><time>2026-03-29T13:23:49.838Z</time></trkpt><trkpt lat="43.650152904224385" lon="11.098226849916493"><ele>169.0</ele><time>2026-03-29T13:23:50.838Z</time></trkpt><trkpt lat="43.650197452633364" lon="11.098135536067517"><ele>169.0</ele><time>2026-03-29T13:23:51.837Z</time></trkpt><trkpt lat="43.65024461431202" lon="11.09805153558813"><ele>165.16666666666669</ele><time>2026-03-29T13:23:52.837Z</time></trkpt><trkpt lat="43.650297571940975" lon="11.097978459033934"><ele>161.33333333333334</ele><time>2026-03-29T13:23:53.837Z</time></trkpt><trkpt lat="43.65035776546662" lon="11.097899647755643"><ele>157.5</ele><time>2026-03-29T13:23:54.837Z</time></trkpt><trkpt lat="43.65040447997182" lon="11.097814234953232"><ele>153.66666666666666</ele><time>2026-03-29T13:23:55.837Z</time></trkpt><trkpt lat="43.65043768378722" lon="11.097712257545648"><ele>149.83333333333331</ele><time>2026-03-29T13:23:56.837Z</time></trkpt><trkpt lat="43.650458389535764" lon="11.097597611746991"><ele>146.0</ele><time>2026-03-29T13:23:57.837Z</time></trkpt><trkpt lat="43.65045877309811" lon="11.097481827147785"><ele>146.8</ele><time>2026-03-29T13:23:58.837Z</time></trkpt><trkpt lat="43.65040449708644" lon="11.097377613426781"><ele>147.6</ele><time>2026-03-29T13:23:59.837Z</time></trkpt><trkpt lat="43.650374988896466" lon="11.097262011546178"><ele>148.4</ele><time>2026-03-29T13:24:00.837Z</time></trkpt><trkpt lat="43.65032139765439" lon="11.097159107357342"><ele>149.2</ele><time>2026-03-29T13:24:01.837Z</time></trkpt><trkpt lat="43.65027185030607" lon="11.09705013786592"><ele>150.0</ele><time>2026-03-29T13:24:02.837Z</time></trkpt><trkpt lat="43.6502276254805" lon="11.096942624402075"><ele>150.0</ele><time>2026-03-29T13:24:03.839Z</time></trkpt><trkpt lat="43.65020117780882" lon="11.096820949476877"><ele>150.0</ele><time>2026-03-29T13:24:04.839Z</time></trkpt><trkpt lat="43.65020094540177" lon="11.096652673663083"><ele>150.0</ele><time>2026-03-29T13:24:05.839Z</time></trkpt><trkpt lat="43.650226275089466" lon="11.096472233785573"><ele>150.0</ele><time>2026-03-29T13:24:06.839Z</time></trkpt><trkpt lat="43.65027162815522" lon="11.096338226161807"><ele>147.0</ele><time>2026-03-29T13:24:07.839Z</time></trkpt><trkpt lat="43.65034849981922" lon="11.096237886929039"><ele>144.0</ele><time>2026-03-29T13:24:08.839Z</time></trkpt><trkpt lat="43.650441163675254" lon="11.096179868528917"><ele>141.0</ele><time>2026-03-29T13:24:09.839Z</time></trkpt><trkpt lat="43.650551220344795" lon="11.096159905063779"><ele>138.0</ele><time>2026-03-29T13:24:10.839Z</time></trkpt><trkpt lat="43.650658845527815" lon="11.096138429207457"><ele>135.0</ele><time>2026-03-29T13:24:11.838Z</time></trkpt><trkpt lat="43.6507661215936" lon="11.096084468344333"><ele>135.0</ele><time>2026-03-29T13:24:12.838Z</time></trkpt><trkpt lat="43.65082422860308" lon="11.095990433026701"><ele>135.0</ele><time>2026-03-29T13:24:13.839Z</time></trkpt><trkpt lat="43.65086861297974" lon="11.095872609285887"><ele>135.0</ele><time>2026-03-29T13:24:14.839Z</time></trkpt><trkpt lat="43.65086925819695" lon="11.095756750351214"><ele>135.0</ele><time>2026-03-29T13:24:15.838Z</time></trkpt><trkpt lat="43.650811591901366" lon="11.095632049138006"><ele>135.0</ele><time>2026-03-29T13:24:16.838Z</time></trkpt><trkpt lat="43.65073374377693" lon="11.095507821266981"><ele>133.4</ele><time>2026-03-29T13:24:17.838Z</time></trkpt><trkpt lat="43.6506681111597" lon="11.095401722790804"><ele>131.8</ele><time>2026-03-29T13:24:18.838Z</time></trkpt><trkpt lat="43.650622294459865" lon="11.09527967665515"><ele>130.2</ele><time>2026-03-29T13:24:19.838Z</time></trkpt><trkpt lat="43.65061359593521" lon="11.095133388041566"><ele>128.6</ele><time>2026-03-29T13:24:20.838Z</time></trkpt><trkpt lat="43.650631286299735" lon="11.09496386799495"><ele>127.0</ele><time>2026-03-29T13:24:21.838Z</time></trkpt><trkpt lat="43.650649949196236" lon="11.094773111382931"><ele>125.25</ele><time>2026-03-29T13:24:22.838Z</time></trkpt><trkpt lat="43.650640143062475" lon="11.09457144238565"><ele>123.5</ele><time>2026-03-29T13:24:23.838Z</time></trkpt><trkpt lat="43.65058939385912" lon="11.094401490901376"><ele>121.75</ele><time>2026-03-29T13:24:24.838Z</time></trkpt><trkpt lat="43.65051208443589" lon="11.09425810209444"><ele>120.0</ele><time>2026-03-29T13:24:25.838Z</time></trkpt><trkpt lat="43.650426673779826" lon="11.094126870187038"><ele>119.2</ele><time>2026-03-29T13:24:26.838Z</time></trkpt><trkpt lat="43.65033918234475" lon="11.093996753015714"><ele>118.4</ele><time>2026-03-29T13:24:27.838Z</time></trkpt><trkpt lat="43.65027199934627" lon="11.093879052444313"><ele>117.6</ele><time>2026-03-29T13:24:28.838Z</time></trkpt><trkpt lat="43.65023498336062" lon="11.093802065360645"><ele>116.8</ele><time>2026-03-29T13:24:29.838Z</time></trkpt><trkpt lat="43.65018384250693" lon="11.09374847295161"><ele>116.0</ele><time>2026-03-29T13:24:31.837Z</time></trkpt><trkpt lat="43.65009866477659" lon="11.093715916797718"><ele>116.0</ele><time>2026-03-29T13:24:33.837Z</time></trkpt><trkpt lat="43.650028833673026" lon="11.093740183335058"><ele>116.0</ele><time>2026-03-29T13:24:34.837Z</time></trkpt><trkpt lat="43.64994386492949" lon="11.093812018706444"><ele>116.0</ele><time>2026-03-29T13:24:35.837Z</time></trkpt><trkpt lat="43.64981932830184" lon="11.093917303102733"><ele>116.0</ele><time>2026-03-29T13:24:36.837Z</time></trkpt><trkpt lat="43.64963848907682" lon="11.094046729256712"><ele>117.5</ele><time>2026-03-29T13:24:37.837Z</time></trkpt><trkpt lat="43.64942670851216" lon="11.094187858050493"><ele>119.0</ele><time>2026-03-29T13:24:38.837Z</time></trkpt><trkpt lat="43.649195091666186" lon="11.094352295594854"><ele>119.0</ele><time>2026-03-29T13:24:39.837Z</time></trkpt><trkpt lat="43.64894515690324" lon="11.094537678296486"><ele>119.0</ele><time>2026-03-29T13:24:40.837Z</time></trkpt><trkpt lat="43.64869741480697" lon="11.094715358119885"><ele>118.5</ele><time>2026-03-29T13:24:41.837Z</time></trkpt><trkpt lat="43.64847979572564" lon="11.094866493531581"><ele>118.0</ele><time>2026-03-29T13:24:42.837Z</time></trkpt><trkpt lat="43.648291560176986" lon="11.094999087255122"><ele>118.66666666666667</ele><time>2026-03-29T13:24:43.837Z</time></trkpt><trkpt lat="43.64810676572848" lon="11.09514141186152"><ele>119.33333333333334</ele><time>2026-03-29T13:24:44.837Z</time></trkpt><trkpt lat="43.647958697761354" lon="11.095286412054207"><ele>120.0</ele><time>2026-03-29T13:24:45.837Z</time></trkpt><trkpt lat="43.64781806494051" lon="11.09545580777282"><ele>120.0</ele><time>2026-03-29T13:24:46.837Z</time></trkpt><trkpt lat="43.64767995951855" lon="11.095633157194436"><ele>120.0</ele><time>2026-03-29T13:24:47.837Z</time></trkpt><trkpt lat="43.64755606537834" lon="11.09582554325978"><ele>120.0</ele><time>2026-03-29T13:24:48.837Z</time></trkpt><trkpt lat="43.6474344386915" lon="11.096032718823247"><ele>120.33333333333334</ele><time>2026-03-29T13:24:49.837Z</time></trkpt><trkpt lat="43.647315529971124" lon="11.096250471374534"><ele>120.66666666666667</ele><time>2026-03-29T13:24:50.837Z</time></trkpt><trkpt lat="43.64720265934067" lon="11.096477705121378"><ele>121.0</ele><time>2026-03-29T13:24:51.837Z</time></trkpt><trkpt lat="43.647085073099255" lon="11.096707842560466"><ele>122.0</ele><time>2026-03-29T13:24:52.836Z</time></trkpt><trkpt lat="43.646973182759716" lon="11.096946925300383"><ele>123.0</ele><time>2026-03-29T13:24:53.836Z</time></trkpt><trkpt lat="43.646847375236206" lon="11.097179924110781"><ele>124.0</ele><time>2026-03-29T13:24:54.836Z</time></trkpt><trkpt lat="43.64671977489956" lon="11.097424903378714"><ele>124.66666666666667</ele><time>2026-03-29T13:24:55.836Z</time></trkpt><trkpt lat="43.646588246827804" lon="11.097668809935017"><ele>125.33333333333334</ele><time>2026-03-29T13:24:56.836Z</time></trkpt><trkpt lat="43.646442687375355" lon="11.097886941802392"><ele>126.0</ele><time>2026-03-29T13:24:57.836Z</time></trkpt><trkpt lat="43.64627870059326" lon="11.098087748793713"><ele>126.5</ele><time>2026-03-29T13:24:58.836Z</time></trkpt><trkpt lat="43.646090416899945" lon="11.098270230585971"><ele>127.0</ele><time>2026-03-29T13:24:59.836Z</time></trkpt><trkpt lat="43.64589675780996" lon="11.098432519757539"><ele>127.0</ele><time>2026-03-29T13:25:00.836Z</time></trkpt><trkpt lat="43.645697203582195" lon="11.098570112173602"><ele>127.0</ele><time>2026-03-29T13:25:01.836Z</time></trkpt><trkpt lat="43.64549566534268" lon="11.098690621284701"><ele>127.0</ele><time>2026-03-29T13:25:02.836Z</time></trkpt><trkpt lat="43.645294655913716" lon="11.098795293231907"><ele>127.0</ele><time>2026-03-29T13:25:03.836Z</time></trkpt><trkpt lat="43.645098002640495" lon="11.098909550988212"><ele>127.0</ele><time>2026-03-29T13:25:04.836Z</time></trkpt><trkpt lat="43.644909548721515" lon="11.099024044013479"><ele>127.0</ele><time>2026-03-29T13:25:05.836Z</time></trkpt><trkpt lat="43.64471603617839" lon="11.099144718799694"><ele>127.0</ele><time>2026-03-29T13:25:06.836Z</time></trkpt><trkpt lat="43.6445316130641" lon="11.099266498815284"><ele>127.0</ele><time>2026-03-29T13:25:07.836Z</time></trkpt><trkpt lat="43.644352878876965" lon="11.099380397085957"><ele>127.0</ele><time>2026-03-29T13:25:08.836Z</time></trkpt><trkpt lat="43.644173668545974" lon="11.099495277617516"><ele>127.66666666666667</ele><time>2026-03-29T13:25:09.836Z</time></trkpt><trkpt lat="43.643993831535155" lon="11.099606859566276"><ele>128.33333333333334</ele><time>2026-03-29T13:25:10.836Z</time></trkpt><trkpt lat="43.64380931144496" lon="11.099721789891676"><ele>129.0</ele><time>2026-03-29T13:25:11.836Z</time></trkpt><trkpt lat="43.64363210184426" lon="11.099831079884916"><ele>129.66666666666666</ele><time>2026-03-29T13:25:12.836Z</time></trkpt><trkpt lat="43.64343746938541" lon="11.099944614697085"><ele>130.33333333333331</ele><time>2026-03-29T13:25:13.836Z</time></trkpt><trkpt lat="43.643260635425236" lon="11.100055207137888"><ele>131.0</ele><time>2026-03-29T13:25:14.835Z</time></trkpt><trkpt lat="43.64308466870679" lon="11.10016818263756"><ele>131.0</ele><time>2026-03-29T13:25:15.835Z</time></trkpt><trkpt lat="43.64290949444998" lon="11.100279349276075"><ele>131.0</ele><time>2026-03-29T13:25:16.835Z</time></trkpt><trkpt lat="43.64272679232118" lon="11.100393220655986"><ele>131.0</ele><time>2026-03-29T13:25:17.835Z</time></trkpt><trkpt lat="43.642549435890025" lon="11.100505043711149"><ele>131.0</ele><time>2026-03-29T13:25:18.835Z</time></trkpt><trkpt lat="43.642370090648896" lon="11.100618168074208"><ele>131.0</ele><time>2026-03-29T13:25:19.835Z</time></trkpt><trkpt lat="43.642199265777236" lon="11.100728090628131"><ele>131.0</ele><time>2026-03-29T13:25:20.835Z</time></trkpt><trkpt lat="43.642026853486534" lon="11.100840173839392"><ele>131.0</ele><time>2026-03-29T13:25:21.835Z</time></trkpt><trkpt lat="43.641844039151515" lon="11.100951881945722"><ele>131.0</ele><time>2026-03-29T13:25:22.835Z</time></trkpt><trkpt lat="43.64147295186561" lon="11.101189513870116"><ele>131.0</ele><time>2026-03-29T13:25:24.835Z</time></trkpt><trkpt lat="43.64128190549" lon="11.101324182411012"><ele>131.0</ele><time>2026-03-29T13:25:25.835Z</time></trkpt><trkpt lat="43.64108898055517" lon="11.101477434576369"><ele>131.0</ele><time>2026-03-29T13:25:26.835Z</time></trkpt><trkpt lat="43.64089607638971" lon="11.101653909325103"><ele>131.5</ele><time>2026-03-29T13:25:27.835Z</time></trkpt><trkpt lat="43.64071452325755" lon="11.101839546321258"><ele>132.0</ele><time>2026-03-29T13:25:28.835Z</time></trkpt><trkpt lat="43.64053406782907" lon="11.102040274107724"><ele>132.0</ele><time>2026-03-29T13:25:29.835Z</time></trkpt><trkpt lat="43.64035575618202" lon="11.102256116427805"><ele>132.0</ele><time>2026-03-29T13:25:30.835Z</time></trkpt><trkpt lat="43.640191498138286" lon="11.102470586758509"><ele>133.0</ele><time>2026-03-29T13:25:31.835Z</time></trkpt><trkpt lat="43.640013697608154" lon="11.102704888143085"><ele>134.0</ele><time>2026-03-29T13:25:32.835Z</time></trkpt><trkpt lat="43.639850853056544" lon="11.102915337295935"><ele>134.0</ele><time>2026-03-29T13:25:33.835Z</time></trkpt><trkpt lat="43.639675657768095" lon="11.103141544497449"><ele>134.0</ele><time>2026-03-29T13:25:34.835Z</time></trkpt><trkpt lat="43.639502904285585" lon="11.103370272066355"><ele>134.0</ele><time>2026-03-29T13:25:35.834Z</time></trkpt><trkpt lat="43.63932864442108" lon="11.103590115564455"><ele>134.0</ele><time>2026-03-29T13:25:36.834Z</time></trkpt><trkpt lat="43.639158038008034" lon="11.10381580247099"><ele>134.0</ele><time>2026-03-29T13:25:37.834Z</time></trkpt><trkpt lat="43.639004419340004" lon="11.104029399534188"><ele>134.0</ele><time>2026-03-29T13:25:38.834Z</time></trkpt><trkpt lat="43.638829126941346" lon="11.104240873669008"><ele>135.5</ele><time>2026-03-29T13:25:39.834Z</time></trkpt><trkpt lat="43.63866290524898" lon="11.104456629159412"><ele>137.0</ele><time>2026-03-29T13:25:40.834Z</time></trkpt><trkpt lat="43.63848794998253" lon="11.104682740595836"><ele>138.0</ele><time>2026-03-29T13:25:41.834Z</time></trkpt><trkpt lat="43.63831093016855" lon="11.104914506464182"><ele>139.0</ele><time>2026-03-29T13:25:42.834Z</time></trkpt><trkpt lat="43.63813363219107" lon="11.105154144941007"><ele>139.0</ele><time>2026-03-29T13:25:43.834Z</time></trkpt><trkpt lat="43.63794997897002" lon="11.105382229651823"><ele>139.0</ele><time>2026-03-29T13:25:44.834Z</time></trkpt><trkpt lat="43.637768579362216" lon="11.10561527134319"><ele>139.0</ele><time>2026-03-29T13:25:45.834Z</time></trkpt><trkpt lat="43.637581347407476" lon="11.105853964076692"><ele>139.0</ele><time>2026-03-29T13:25:46.834Z</time></trkpt><trkpt lat="43.637399074368275" lon="11.10609041584539"><ele>139.0</ele><time>2026-03-29T13:25:47.834Z</time></trkpt><trkpt lat="43.63721283258565" lon="11.106328519379442"><ele>139.0</ele><time>2026-03-29T13:25:48.834Z</time></trkpt><trkpt lat="43.63702839787485" lon="11.106562673102223"><ele>139.5</ele><time>2026-03-29T13:25:49.834Z</time></trkpt><trkpt lat="43.636849008726315" lon="11.106793571726502"><ele>140.0</ele><time>2026-03-29T13:25:50.834Z</time></trkpt><trkpt lat="43.63667906597152" lon="11.107021547572245"><ele>140.0</ele><time>2026-03-29T13:25:51.834Z</time></trkpt><trkpt lat="43.636500679256926" lon="11.107246863770623"><ele>140.0</ele><time>2026-03-29T13:25:52.834Z</time></trkpt><trkpt lat="43.63632588401384" lon="11.107477092364341"><ele>141.5</ele><time>2026-03-29T13:25:53.834Z</time></trkpt><trkpt lat="43.636149324976486" lon="11.107698436900149"><ele>143.0</ele><time>2026-03-29T13:25:54.834Z</time></trkpt><trkpt lat="43.63597623564989" lon="11.107922608365966"><ele>143.0</ele><time>2026-03-29T13:25:55.834Z</time></trkpt><trkpt lat="43.63580210789752" lon="11.108147250403134"><ele>143.0</ele><time>2026-03-29T13:25:56.834Z</time></trkpt><trkpt lat="43.63562856522504" lon="11.108371381922877"><ele>143.0</ele><time>2026-03-29T13:25:57.833Z</time></trkpt><trkpt lat="43.63545819499866" lon="11.108597571816775"><ele>143.0</ele><time>2026-03-29T13:25:58.833Z</time></trkpt><trkpt lat="43.63528462127424" lon="11.108828264012223"><ele>143.0</ele><time>2026-03-29T13:25:59.833Z</time></trkpt><trkpt lat="43.635107171936355" lon="11.109060255505838"><ele>143.0</ele><time>2026-03-29T13:26:00.833Z</time></trkpt><trkpt lat="43.634934499250924" lon="11.109281952878826"><ele>144.66666666666666</ele><time>2026-03-29T13:26:01.833Z</time></trkpt><trkpt lat="43.63477441646563" lon="11.109496851853395"><ele>146.33333333333334</ele><time>2026-03-29T13:26:02.833Z</time></trkpt><trkpt lat="43.63462746369135" lon="11.109689475437325"><ele>148.0</ele><time>2026-03-29T13:26:03.833Z</time></trkpt><trkpt lat="43.63449114746213" lon="11.109870109147325"><ele>147.66666666666669</ele><time>2026-03-29T13:26:04.833Z</time></trkpt><trkpt lat="43.634363194304235" lon="11.110039892531654"><ele>147.33333333333334</ele><time>2026-03-29T13:26:05.833Z</time></trkpt><trkpt lat="43.63425281975625" lon="11.110189259108713"><ele>147.0</ele><time>2026-03-29T13:26:06.833Z</time></trkpt><trkpt lat="43.634123049140555" lon="11.110360222025347"><ele>147.0</ele><time>2026-03-29T13:26:07.833Z</time></trkpt><trkpt lat="43.63399130808698" lon="11.110514657633173"><ele>147.0</ele><time>2026-03-29T13:26:08.833Z</time></trkpt><trkpt lat="43.633852245052985" lon="11.110700463852071"><ele>147.0</ele><time>2026-03-29T13:26:09.836Z</time></trkpt><trkpt lat="43.63372727736238" lon="11.110860080626255"><ele>148.33333333333334</ele><time>2026-03-29T13:26:10.836Z</time></trkpt><trkpt lat="43.633613294382904" lon="11.11101630849186"><ele>149.66666666666669</ele><time>2026-03-29T13:26:11.836Z</time></trkpt><trkpt lat="43.633503846609045" lon="11.111163306052731"><ele>151.0</ele><time>2026-03-29T13:26:12.835Z</time></trkpt><trkpt lat="43.63338396925106" lon="11.111306393425137"><ele>151.0</ele><time>2026-03-29T13:26:13.835Z</time></trkpt><trkpt lat="43.6332546926835" lon="11.111474537512956"><ele>151.0</ele><time>2026-03-29T13:26:14.835Z</time></trkpt><trkpt lat="43.63311197303385" lon="11.111658162565872"><ele>151.0</ele><time>2026-03-29T13:26:15.836Z</time></trkpt><trkpt lat="43.63297052500126" lon="11.111853629624097"><ele>151.33333333333334</ele><time>2026-03-29T13:26:16.835Z</time></trkpt><trkpt lat="43.63281828582004" lon="11.112049562880973"><ele>151.66666666666666</ele><time>2026-03-29T13:26:17.834Z</time></trkpt><trkpt lat="43.632657354723584" lon="11.112252823039125"><ele>152.0</ele><time>2026-03-29T13:26:18.835Z</time></trkpt><trkpt lat="43.632494142674155" lon="11.112461031853671"><ele>152.0</ele><time>2026-03-29T13:26:19.835Z</time></trkpt><trkpt lat="43.63232341664764" lon="11.112677945989558"><ele>152.0</ele><time>2026-03-29T13:26:20.835Z</time></trkpt><trkpt lat="43.63215225691149" lon="11.112901483537284"><ele>152.0</ele><time>2026-03-29T13:26:21.835Z</time></trkpt><trkpt lat="43.631980162735196" lon="11.113122966767131"><ele>152.0</ele><time>2026-03-29T13:26:22.835Z</time></trkpt><trkpt lat="43.63180450683429" lon="11.113350343460114"><ele>152.0</ele><time>2026-03-29T13:26:23.835Z</time></trkpt><trkpt lat="43.63162580334272" lon="11.113580498449"><ele>152.0</ele><time>2026-03-29T13:26:24.835Z</time></trkpt><trkpt lat="43.63144543658878" lon="11.113815439922826"><ele>152.0</ele><time>2026-03-29T13:26:25.835Z</time></trkpt><trkpt lat="43.63126485797155" lon="11.114053540422162"><ele>152.0</ele><time>2026-03-29T13:26:26.835Z</time></trkpt><trkpt lat="43.63107499623048" lon="11.11430026377931"><ele>153.0</ele><time>2026-03-29T13:26:27.835Z</time></trkpt><trkpt lat="43.63088041152746" lon="11.11454256411217"><ele>154.0</ele><time>2026-03-29T13:26:28.835Z</time></trkpt><trkpt lat="43.63068446167105" lon="11.114789804936494"><ele>154.5</ele><time>2026-03-29T13:26:29.835Z</time></trkpt><trkpt lat="43.63048748731027" lon="11.115042982767172"><ele>155.0</ele><time>2026-03-29T13:26:30.835Z</time></trkpt><trkpt lat="43.63029098186156" lon="11.115301529610809"><ele>155.0</ele><time>2026-03-29T13:26:31.835Z</time></trkpt><trkpt lat="43.630098639608896" lon="11.115560753294439"><ele>155.0</ele><time>2026-03-29T13:26:32.835Z</time></trkpt><trkpt lat="43.62990403535596" lon="11.11582646445022"><ele>156.5</ele><time>2026-03-29T13:26:33.835Z</time></trkpt><trkpt lat="43.629713037976316" lon="11.116095143414352"><ele>158.0</ele><time>2026-03-29T13:26:34.835Z</time></trkpt><trkpt lat="43.62952104559744" lon="11.116368815483213"><ele>158.0</ele><time>2026-03-29T13:26:35.835Z</time></trkpt><trkpt lat="43.62933183828474" lon="11.116636340754617"><ele>158.0</ele><time>2026-03-29T13:26:36.834Z</time></trkpt><trkpt lat="43.62914644288879" lon="11.116906426333909"><ele>158.0</ele><time>2026-03-29T13:26:37.834Z</time></trkpt><trkpt lat="43.628951991703076" lon="11.11717956719779"><ele>158.0</ele><time>2026-03-29T13:26:38.834Z</time></trkpt><trkpt lat="43.628762599367434" lon="11.117446523673253"><ele>159.0</ele><time>2026-03-29T13:26:39.834Z</time></trkpt><trkpt lat="43.62857282129477" lon="11.117717076742986"><ele>160.0</ele><time>2026-03-29T13:26:40.834Z</time></trkpt><trkpt lat="43.62837661021154" lon="11.117989437243743"><ele>162.5</ele><time>2026-03-29T13:26:41.834Z</time></trkpt><trkpt lat="43.62817098111766" lon="11.118282265382152"><ele>165.0</ele><time>2026-03-29T13:26:42.834Z</time></trkpt><trkpt lat="43.62795065677547" lon="11.118600377536724"><ele>165.0</ele><time>2026-03-29T13:26:43.834Z</time></trkpt><trkpt lat="43.62773171328231" lon="11.11891602513556"><ele>165.0</ele><time>2026-03-29T13:26:44.834Z</time></trkpt><trkpt lat="43.62750717031741" lon="11.119243419222354"><ele>165.0</ele><time>2026-03-29T13:26:45.834Z</time></trkpt><trkpt lat="43.6272693939522" lon="11.119581846982905"><ele>165.0</ele><time>2026-03-29T13:26:46.834Z</time></trkpt><trkpt lat="43.62703229259159" lon="11.119901677643982"><ele>165.0</ele><time>2026-03-29T13:26:47.834Z</time></trkpt><trkpt lat="43.62679893894301" lon="11.120234045109546"><ele>165.0</ele><time>2026-03-29T13:26:48.834Z</time></trkpt><trkpt lat="43.6265650743059" lon="11.120561125305894"><ele>164.0</ele><time>2026-03-29T13:26:49.834Z</time></trkpt><trkpt lat="43.62632728740261" lon="11.120891752946616"><ele>163.0</ele><time>2026-03-29T13:26:50.834Z</time></trkpt><trkpt lat="43.6260998197564" lon="11.121211535582"><ele>163.0</ele><time>2026-03-29T13:26:51.834Z</time></trkpt><trkpt lat="43.62587942165353" lon="11.121525521543377"><ele>163.0</ele><time>2026-03-29T13:26:52.834Z</time></trkpt><trkpt lat="43.62568913408348" lon="11.121788791236437"><ele>165.5</ele><time>2026-03-29T13:26:53.834Z</time></trkpt><trkpt lat="43.625531218979646" lon="11.122036744475045"><ele>168.0</ele><time>2026-03-29T13:26:54.834Z</time></trkpt><trkpt lat="43.62538442899268" lon="11.122272792517617"><ele>167.0</ele><time>2026-03-29T13:26:55.834Z</time></trkpt><trkpt lat="43.62523823438374" lon="11.122517012060108"><ele>166.0</ele><time>2026-03-29T13:26:56.834Z</time></trkpt><trkpt lat="43.625092188172296" lon="11.122768547405531"><ele>166.0</ele><time>2026-03-29T13:26:57.834Z</time></trkpt><trkpt lat="43.62494471136407" lon="11.123036001267533"><ele>166.0</ele><time>2026-03-29T13:26:58.833Z</time></trkpt><trkpt lat="43.62479927492199" lon="11.123309791850737"><ele>168.5</ele><time>2026-03-29T13:26:59.833Z</time></trkpt><trkpt lat="43.624639555507216" lon="11.123596837269162"><ele>171.0</ele><time>2026-03-29T13:27:00.833Z</time></trkpt><trkpt lat="43.62447919843735" lon="11.12386324461731"><ele>172.5</ele><time>2026-03-29T13:27:01.833Z</time></trkpt><trkpt lat="43.62431748064423" lon="11.124152760659264"><ele>174.0</ele><time>2026-03-29T13:27:02.833Z</time></trkpt><trkpt lat="43.62415176018945" lon="11.12443773966452"><ele>174.0</ele><time>2026-03-29T13:27:03.833Z</time></trkpt><trkpt lat="43.62398754691605" lon="11.12472312151183"><ele>174.0</ele><time>2026-03-29T13:27:04.833Z</time></trkpt><trkpt lat="43.623828310038235" lon="11.125003638679551"><ele>174.0</ele><time>2026-03-29T13:27:05.833Z</time></trkpt><trkpt lat="43.623662936273924" lon="11.125294412942731"><ele>174.0</ele><time>2026-03-29T13:27:06.833Z</time></trkpt><trkpt lat="43.62349692502741" lon="11.12557816038522"><ele>173.5</ele><time>2026-03-29T13:27:07.833Z</time></trkpt><trkpt lat="43.62332998566303" lon="11.125865910929212"><ele>173.0</ele><time>2026-03-29T13:27:08.833Z</time></trkpt><trkpt lat="43.62316215880825" lon="11.126144436034508"><ele>173.0</ele><time>2026-03-29T13:27:09.833Z</time></trkpt><trkpt lat="43.62298937425378" lon="11.126397046446645"><ele>173.0</ele><time>2026-03-29T13:27:10.833Z</time></trkpt><trkpt lat="43.622797725605025" lon="11.126616039873946"><ele>172.0</ele><time>2026-03-29T13:27:11.833Z</time></trkpt><trkpt lat="43.62259610657739" lon="11.126809118374444"><ele>171.0</ele><time>2026-03-29T13:27:12.833Z</time></trkpt><trkpt lat="43.622384591790386" lon="11.126977022606352"><ele>171.0</ele><time>2026-03-29T13:27:13.833Z</time></trkpt><trkpt lat="43.622176556857504" lon="11.127096106941305"><ele>171.0</ele><time>2026-03-29T13:27:14.833Z</time></trkpt><trkpt lat="43.62198074694105" lon="11.127196641737047"><ele>171.0</ele><time>2026-03-29T13:27:15.833Z</time></trkpt><trkpt lat="43.62178133784318" lon="11.127289949208576"><ele>171.66666666666666</ele><time>2026-03-29T13:27:16.833Z</time></trkpt><trkpt lat="43.621586688348515" lon="11.127361221633956"><ele>172.33333333333331</ele><time>2026-03-29T13:27:17.833Z</time></trkpt><trkpt lat="43.62136588865315" lon="11.127446055181009"><ele>173.0</ele><time>2026-03-29T13:27:18.833Z</time></trkpt><trkpt lat="43.62113949102213" lon="11.127539081207818"><ele>174.5</ele><time>2026-03-29T13:27:19.833Z</time></trkpt><trkpt lat="43.62090946041209" lon="11.127643287714921"><ele>176.0</ele><time>2026-03-29T13:27:20.832Z</time></trkpt><trkpt lat="43.620686293367456" lon="11.12775398093502"><ele>176.0</ele><time>2026-03-29T13:27:21.832Z</time></trkpt><trkpt lat="43.62047773952386" lon="11.127863205411577"><ele>176.0</ele><time>2026-03-29T13:27:22.832Z</time></trkpt><trkpt lat="43.62028472108576" lon="11.127981424126686"><ele>176.0</ele><time>2026-03-29T13:27:23.832Z</time></trkpt><trkpt lat="43.62010331288983" lon="11.128109252272695"><ele>175.66666666666666</ele><time>2026-03-29T13:27:24.832Z</time></trkpt><trkpt lat="43.61992222549656" lon="11.128253756168117"><ele>175.33333333333334</ele><time>2026-03-29T13:27:25.832Z</time></trkpt><trkpt lat="43.61975269716966" lon="11.128416867561917"><ele>175.0</ele><time>2026-03-29T13:27:26.832Z</time></trkpt><trkpt lat="43.61958281987231" lon="11.128587604904018"><ele>175.33333333333334</ele><time>2026-03-29T13:27:27.832Z</time></trkpt><trkpt lat="43.61941202486743" lon="11.128784429565107"><ele>175.66666666666666</ele><time>2026-03-29T13:27:28.832Z</time></trkpt><trkpt lat="43.61925293216403" lon="11.128998570182835"><ele>176.0</ele><time>2026-03-29T13:27:29.832Z</time></trkpt><trkpt lat="43.619101389284964" lon="11.12923466726539"><ele>176.0</ele><time>2026-03-29T13:27:30.832Z</time></trkpt><trkpt lat="43.618953841466144" lon="11.129448399748496"><ele>176.0</ele><time>2026-03-29T13:27:31.832Z</time></trkpt><trkpt lat="43.61880800051738" lon="11.129684553892904"><ele>176.0</ele><time>2026-03-29T13:27:32.832Z</time></trkpt><trkpt lat="43.61866398625737" lon="11.129926198454902"><ele>177.33333333333331</ele><time>2026-03-29T13:27:33.832Z</time></trkpt><trkpt lat="43.61853054530456" lon="11.130169969320802"><ele>178.66666666666666</ele><time>2026-03-29T13:27:34.832Z</time></trkpt><trkpt lat="43.618394920522896" lon="11.130398349315204"><ele>180.0</ele><time>2026-03-29T13:27:35.832Z</time></trkpt><trkpt lat="43.61826785287036" lon="11.130615924443687"><ele>179.66666666666666</ele><time>2026-03-29T13:27:36.832Z</time></trkpt><trkpt lat="43.6181644291469" lon="11.130824242748641"><ele>179.33333333333331</ele><time>2026-03-29T13:27:37.832Z</time></trkpt><trkpt lat="43.61808663761397" lon="11.13102416482509"><ele>179.0</ele><time>2026-03-29T13:27:38.832Z</time></trkpt><trkpt lat="43.61802636570743" lon="11.131219155538359"><ele>179.0</ele><time>2026-03-29T13:27:39.832Z</time></trkpt><trkpt lat="43.61798005984265" lon="11.131405703873604"><ele>179.0</ele><time>2026-03-29T13:27:40.832Z</time></trkpt><trkpt lat="43.61795400099828" lon="11.131595385540415"><ele>179.0</ele><time>2026-03-29T13:27:41.832Z</time></trkpt><trkpt lat="43.61793699669894" lon="11.131762851459495"><ele>179.0</ele><time>2026-03-29T13:27:42.831Z</time></trkpt><trkpt lat="43.617931618521524" lon="11.13191936219369"><ele>179.0</ele><time>2026-03-29T13:27:43.831Z</time></trkpt><trkpt lat="43.61793605722876" lon="11.132067578207396"><ele>179.0</ele><time>2026-03-29T13:27:44.831Z</time></trkpt><trkpt lat="43.61794432540613" lon="11.13220647028976"><ele>179.0</ele><time>2026-03-29T13:27:45.831Z</time></trkpt><trkpt lat="43.61795403609343" lon="11.132350296377751"><ele>179.0</ele><time>2026-03-29T13:27:46.831Z</time></trkpt><trkpt lat="43.617966918282924" lon="11.132496609352302"><ele>179.0</ele><time>2026-03-29T13:27:47.831Z</time></trkpt><trkpt lat="43.617987485658276" lon="11.132642032134367"><ele>179.0</ele><time>2026-03-29T13:27:48.831Z</time></trkpt><trkpt lat="43.618008105902724" lon="11.13278762901951"><ele>179.0</ele><time>2026-03-29T13:27:49.831Z</time></trkpt><trkpt lat="43.618022815568956" lon="11.132928676971336"><ele>179.0</ele><time>2026-03-29T13:27:50.831Z</time></trkpt><trkpt lat="43.61803461546049" lon="11.133076681143296"><ele>179.0</ele><time>2026-03-29T13:27:51.831Z</time></trkpt><trkpt lat="43.618037172748465" lon="11.13321229690368"><ele>179.0</ele><time>2026-03-29T13:27:52.831Z</time></trkpt><trkpt lat="43.618034250372624" lon="11.13333467633551"><ele>179.79999999999998</ele><time>2026-03-29T13:27:53.831Z</time></trkpt><trkpt lat="43.618022015119266" lon="11.13345788685072"><ele>180.6</ele><time>2026-03-29T13:27:54.831Z</time></trkpt><trkpt lat="43.61800979926916" lon="11.133588055078757"><ele>181.4</ele><time>2026-03-29T13:27:55.831Z</time></trkpt><trkpt lat="43.61798992852606" lon="11.133727304286978"><ele>182.2</ele><time>2026-03-29T13:27:56.831Z</time></trkpt><trkpt lat="43.61796444129098" lon="11.133876574648777"><ele>183.0</ele><time>2026-03-29T13:27:57.831Z</time></trkpt><trkpt lat="43.61794422734856" lon="11.134057686964093"><ele>183.0</ele><time>2026-03-29T13:27:58.831Z</time></trkpt><trkpt lat="43.61793489721256" lon="11.134237731795302"><ele>183.0</ele><time>2026-03-29T13:27:59.831Z</time></trkpt><trkpt lat="43.61793252139537" lon="11.134439151231236"><ele>183.0</ele><time>2026-03-29T13:28:00.831Z</time></trkpt><trkpt lat="43.617932434310596" lon="11.134607274565571"><ele>183.0</ele><time>2026-03-29T13:28:01.831Z</time></trkpt><trkpt lat="43.61792445084781" lon="11.134767376028053"><ele>183.0</ele><time>2026-03-29T13:28:02.831Z</time></trkpt><trkpt lat="43.61791633344562" lon="11.134896467208645"><ele>183.0</ele><time>2026-03-29T13:28:03.83Z</time></trkpt><trkpt lat="43.61789621086216" lon="11.135025144615941"><ele>183.0</ele><time>2026-03-29T13:28:04.83Z</time></trkpt><trkpt lat="43.61785612573792" lon="11.135133992586052"><ele>183.0</ele><time>2026-03-29T13:28:05.83Z</time></trkpt><trkpt lat="43.61778686138207" lon="11.13520019927802"><ele>183.0</ele><time>2026-03-29T13:28:06.83Z</time></trkpt><trkpt lat="43.61769836490042" lon="11.135208349798171"><ele>183.0</ele><time>2026-03-29T13:28:07.83Z</time></trkpt><trkpt lat="43.617615789203235" lon="11.135175041720622"><ele>183.0</ele><time>2026-03-29T13:28:08.83Z</time></trkpt><trkpt lat="43.61755575915387" lon="11.135098440070491"><ele>183.0</ele><time>2026-03-29T13:28:09.83Z</time></trkpt><trkpt lat="43.61749922212814" lon="11.135036540018458"><ele>183.0</ele><time>2026-03-29T13:28:10.83Z</time></trkpt><trkpt lat="43.61744707822469" lon="11.134986881822632"><ele>183.0</ele><time>2026-03-29T13:28:11.83Z</time></trkpt><trkpt lat="43.61738854127706" lon="11.134939395346311"><ele>183.0</ele><time>2026-03-29T13:28:12.83Z</time></trkpt><trkpt lat="43.61728756667568" lon="11.134856941626584"><ele>183.0</ele><time>2026-03-29T13:28:14.83Z</time></trkpt><trkpt lat="43.61722576096716" lon="11.134808435246049"><ele>183.0</ele><time>2026-03-29T13:28:16.831Z</time></trkpt><trkpt lat="43.61722644425818" lon="11.134720940092603"><ele>183.0</ele><time>2026-03-29T13:28:21.832Z</time></trkpt><trkpt lat="43.61715585432761" lon="11.134649133133298"><ele>183.0</ele><time>2026-03-29T13:28:25.831Z</time></trkpt><trkpt lat="43.61709094918977" lon="11.13463451129633"><ele>183.0</ele><time>2026-03-29T13:28:27.831Z</time></trkpt><trkpt lat="43.61701888028425" lon="11.13463008513226"><ele>183.0</ele><time>2026-03-29T13:28:29.832Z</time></trkpt><trkpt lat="43.617007442455936" lon="11.134729542435743"><ele>183.0</ele><time>2026-03-29T13:30:26.828Z</time></trkpt><trkpt lat="43.617050327897154" lon="11.134794858418207"><ele>183.0</ele><time>2026-03-29T13:30:28.828Z</time></trkpt><trkpt lat="43.61712327001033" lon="11.13483459893474"><ele>183.0</ele><time>2026-03-29T13:30:30.828Z</time></trkpt><trkpt lat="43.61720328673405" lon="11.134840539681147"><ele>183.0</ele><time>2026-03-29T13:30:32.828Z</time></trkpt><trkpt lat="43.61723808179763" lon="11.134747071872455"><ele>183.0</ele><time>2026-03-29T13:30:35.828Z</time></trkpt><trkpt lat="43.61722524210595" lon="11.134625130439325"><ele>183.0</ele><time>2026-03-29T13:35:33.832Z</time></trkpt><trkpt lat="43.61714671212255" lon="11.134613371778043"><ele>183.0</ele><time>2026-03-29T13:39:06.827Z</time></trkpt><trkpt lat="43.61722343708894" lon="11.134623165700162"><ele>183.0</ele><time>2026-03-29T13:46:40.815Z</time></trkpt><trkpt lat="43.61725734707526" lon="11.13453016485894"><ele>183.0</ele><time>2026-03-29T13:46:48.814Z</time></trkpt><trkpt lat="43.61730869364254" lon="11.134581368017944"><ele>183.0</ele><time>2026-03-29T13:47:15.815Z</time></trkpt><trkpt lat="43.61724423933009" lon="11.134535833137333"><ele>183.0</ele><time>2026-03-29T13:51:35.767Z</time></trkpt><trkpt lat="43.61723525739094" lon="11.13462420466301"><ele>183.0</ele><time>2026-03-29T14:09:28.731Z</time></trkpt><trkpt lat="43.617182096917674" lon="11.134675219026676"><ele>183.0</ele><time>2026-03-29T14:10:00.729Z</time></trkpt><trkpt lat="43.6172415790563" lon="11.134707605363324"><ele>183.0</ele><time>2026-03-29T14:10:11.729Z</time></trkpt><trkpt lat="43.6172313119584" lon="11.134793824858788"><ele>182.60000000000002</ele><time>2026-03-29T14:10:23.731Z</time></trkpt><trkpt lat="43.61726722524105" lon="11.134907242162663"><ele>182.20000000000002</ele><time>2026-03-29T14:10:27.731Z</time></trkpt><trkpt lat="43.617362158309774" lon="11.134972392941537"><ele>181.8</ele><time>2026-03-29T14:10:29.731Z</time></trkpt><trkpt lat="43.617426029076555" lon="11.135012845798192"><ele>181.4</ele><time>2026-03-29T14:10:30.731Z</time></trkpt><trkpt lat="43.61753214953236" lon="11.135099486266007"><ele>181.0</ele><time>2026-03-29T14:10:32.73Z</time></trkpt><trkpt lat="43.61758738363561" lon="11.135148155527599"><ele>181.0</ele><time>2026-03-29T14:10:33.73Z</time></trkpt><trkpt lat="43.61764731017731" lon="11.135200649231084"><ele>181.0</ele><time>2026-03-29T14:10:34.73Z</time></trkpt><trkpt lat="43.617710150862294" lon="11.13525111322398"><ele>181.0</ele><time>2026-03-29T14:10:35.73Z</time></trkpt><trkpt lat="43.61778259109155" lon="11.135262317115917"><ele>181.0</ele><time>2026-03-29T14:10:36.73Z</time></trkpt><trkpt lat="43.617858101937614" lon="11.135234918983999"><ele>181.0</ele><time>2026-03-29T14:10:37.73Z</time></trkpt><trkpt lat="43.617927506251554" lon="11.135172540175782"><ele>181.0</ele><time>2026-03-29T14:10:38.73Z</time></trkpt><trkpt lat="43.617962166894344" lon="11.135056828482746"><ele>181.4</ele><time>2026-03-29T14:10:39.73Z</time></trkpt><trkpt lat="43.61797209350851" lon="11.13491767516265"><ele>181.8</ele><time>2026-03-29T14:10:40.73Z</time></trkpt><trkpt lat="43.61797781315714" lon="11.134794420941926"><ele>182.20000000000002</ele><time>2026-03-29T14:10:41.73Z</time></trkpt><trkpt lat="43.617993974526364" lon="11.134661236186226"><ele>182.60000000000002</ele><time>2026-03-29T14:10:42.73Z</time></trkpt><trkpt lat="43.61799083618634" lon="11.134522284850426"><ele>183.0</ele><time>2026-03-29T14:10:43.73Z</time></trkpt><trkpt lat="43.617992775502785" lon="11.134384707213453"><ele>183.0</ele><time>2026-03-29T14:10:44.73Z</time></trkpt><trkpt lat="43.617996314735336" lon="11.13424708704385"><ele>183.0</ele><time>2026-03-29T14:10:45.73Z</time></trkpt><trkpt lat="43.61800122897861" lon="11.134106259019205"><ele>183.0</ele><time>2026-03-29T14:10:46.73Z</time></trkpt><trkpt lat="43.61800610022657" lon="11.133957694570103"><ele>183.0</ele><time>2026-03-29T14:10:47.73Z</time></trkpt><trkpt lat="43.61801995493115" lon="11.133805428912364"><ele>183.0</ele><time>2026-03-29T14:10:48.73Z</time></trkpt><trkpt lat="43.618038221413954" lon="11.133671097939493"><ele>183.0</ele><time>2026-03-29T14:10:49.73Z</time></trkpt><trkpt lat="43.618063699396544" lon="11.133545135379368"><ele>183.0</ele><time>2026-03-29T14:10:50.73Z</time></trkpt><trkpt lat="43.61812384609704" lon="11.133462640864865"><ele>183.0</ele><time>2026-03-29T14:10:51.729Z</time></trkpt><trkpt lat="43.618203759606956" lon="11.133370771839607"><ele>183.0</ele><time>2026-03-29T14:10:52.729Z</time></trkpt><trkpt lat="43.618303704396205" lon="11.133343222684706"><ele>183.0</ele><time>2026-03-29T14:10:53.729Z</time></trkpt><trkpt lat="43.618400859871976" lon="11.133335452128566"><ele>183.0</ele><time>2026-03-29T14:10:54.729Z</time></trkpt><trkpt lat="43.61850584772259" lon="11.133352763465986"><ele>183.0</ele><time>2026-03-29T14:10:55.729Z</time></trkpt><trkpt lat="43.61860374016906" lon="11.133370655630024"><ele>183.0</ele><time>2026-03-29T14:10:56.729Z</time></trkpt><trkpt lat="43.6187210553198" lon="11.13339068200856"><ele>183.0</ele><time>2026-03-29T14:10:57.729Z</time></trkpt><trkpt lat="43.618825692146814" lon="11.133465440931475"><ele>183.0</ele><time>2026-03-29T14:10:58.729Z</time></trkpt><trkpt lat="43.61892688223503" lon="11.1335243384812"><ele>183.5</ele><time>2026-03-29T14:10:59.729Z</time></trkpt><trkpt lat="43.61903254675948" lon="11.133571558158112"><ele>184.0</ele><time>2026-03-29T14:11:00.729Z</time></trkpt><trkpt lat="43.61913394419975" lon="11.133648949462533"><ele>184.5</ele><time>2026-03-29T14:11:01.729Z</time></trkpt><trkpt lat="43.61923842318234" lon="11.133720671341976"><ele>185.0</ele><time>2026-03-29T14:11:02.729Z</time></trkpt><trkpt lat="43.61934859380155" lon="11.133804194936845"><ele>185.0</ele><time>2026-03-29T14:11:03.729Z</time></trkpt><trkpt lat="43.61945972973293" lon="11.133886542334459"><ele>185.0</ele><time>2026-03-29T14:11:04.729Z</time></trkpt><trkpt lat="43.61956993237069" lon="11.133964455808146"><ele>185.0</ele><time>2026-03-29T14:11:05.729Z</time></trkpt><trkpt lat="43.61968704741818" lon="11.134020679786529"><ele>185.0</ele><time>2026-03-29T14:11:06.729Z</time></trkpt><trkpt lat="43.61979916636888" lon="11.134028827137902"><ele>187.25</ele><time>2026-03-29T14:11:07.729Z</time></trkpt><trkpt lat="43.61990295794885" lon="11.134014874355467"><ele>189.5</ele><time>2026-03-29T14:11:08.729Z</time></trkpt><trkpt lat="43.62000824668645" lon="11.133948697527476"><ele>191.75</ele><time>2026-03-29T14:11:09.729Z</time></trkpt><trkpt lat="43.62011011178955" lon="11.133853134297166"><ele>194.0</ele><time>2026-03-29T14:11:10.729Z</time></trkpt><trkpt lat="43.62019789668239" lon="11.133753707595476"><ele>194.0</ele><time>2026-03-29T14:11:11.728Z</time></trkpt><trkpt lat="43.620291142778974" lon="11.133678862206517"><ele>194.0</ele><time>2026-03-29T14:11:12.728Z</time></trkpt><trkpt lat="43.620381214691236" lon="11.133608879434444"><ele>194.0</ele><time>2026-03-29T14:11:13.728Z</time></trkpt><trkpt lat="43.62047227863114" lon="11.13353562460441"><ele>194.0</ele><time>2026-03-29T14:11:14.728Z</time></trkpt><trkpt lat="43.62057017223427" lon="11.133457241028502"><ele>194.0</ele><time>2026-03-29T14:11:15.728Z</time></trkpt><trkpt lat="43.62066580038631" lon="11.133381036255564"><ele>196.0</ele><time>2026-03-29T14:11:16.728Z</time></trkpt><trkpt lat="43.62076392726348" lon="11.133302840298061"><ele>198.0</ele><time>2026-03-29T14:11:17.728Z</time></trkpt><trkpt lat="43.62085956701576" lon="11.133226626289533"><ele>200.0</ele><time>2026-03-29T14:11:18.728Z</time></trkpt><trkpt lat="43.62095654695447" lon="11.133149703067163"><ele>202.0</ele><time>2026-03-29T14:11:19.728Z</time></trkpt><trkpt lat="43.621060336068716" lon="11.133070465404634"><ele>205.39999999999998</ele><time>2026-03-29T14:11:20.728Z</time></trkpt><trkpt lat="43.621165419645735" lon="11.133001108028587"><ele>208.79999999999998</ele><time>2026-03-29T14:11:21.728Z</time></trkpt><trkpt lat="43.621266541261875" lon="11.132951462598419"><ele>212.2</ele><time>2026-03-29T14:11:22.728Z</time></trkpt><trkpt lat="43.621368209368725" lon="11.13291045690859"><ele>215.6</ele><time>2026-03-29T14:11:23.728Z</time></trkpt><trkpt lat="43.62146467736642" lon="11.132947556147835"><ele>219.0</ele><time>2026-03-29T14:11:24.728Z</time></trkpt><trkpt lat="43.62155449200182" lon="11.133029819503081"><ele>219.0</ele><time>2026-03-29T14:11:25.728Z</time></trkpt><trkpt lat="43.62163519725555" lon="11.133137077325632"><ele>218.99999999999997</ele><time>2026-03-29T14:11:26.728Z</time></trkpt><trkpt lat="43.6217051662008" lon="11.133243025062814"><ele>218.99999999999997</ele><time>2026-03-29T14:11:27.728Z</time></trkpt><trkpt lat="43.62177017991139" lon="11.13333903380598"><ele>219.0</ele><time>2026-03-29T14:11:28.728Z</time></trkpt><trkpt lat="43.62183733860725" lon="11.13343693381349"><ele>219.0</ele><time>2026-03-29T14:11:29.728Z</time></trkpt><trkpt lat="43.62191094512973" lon="11.133544233083752"><ele>224.79999999999998</ele><time>2026-03-29T14:11:30.728Z</time></trkpt><trkpt lat="43.621984024393996" lon="11.133650763744141"><ele>230.59999999999997</ele><time>2026-03-29T14:11:31.727Z</time></trkpt><trkpt lat="43.62206791876923" lon="11.133751818862013"><ele>236.4</ele><time>2026-03-29T14:11:32.727Z</time></trkpt><trkpt lat="43.62214017941995" lon="11.133861533164449"><ele>242.2</ele><time>2026-03-29T14:11:33.727Z</time></trkpt><trkpt lat="43.62219868208062" lon="11.133966933754575"><ele>248.0</ele><time>2026-03-29T14:11:34.727Z</time></trkpt><trkpt lat="43.622271013941095" lon="11.134075447164964"><ele>248.0</ele><time>2026-03-29T14:11:35.727Z</time></trkpt><trkpt lat="43.62234320732686" lon="11.1341945896797"><ele>248.0</ele><time>2026-03-29T14:11:36.727Z</time></trkpt><trkpt lat="43.622408356907854" lon="11.134324831711433"><ele>248.0</ele><time>2026-03-29T14:11:37.727Z</time></trkpt><trkpt lat="43.62245757748495" lon="11.13446875493143"><ele>248.0</ele><time>2026-03-29T14:11:38.727Z</time></trkpt><trkpt lat="43.622507314032184" lon="11.134617855855112"><ele>248.0</ele><time>2026-03-29T14:11:39.727Z</time></trkpt><trkpt lat="43.62255506680557" lon="11.134762900218645"><ele>248.0</ele><time>2026-03-29T14:11:40.727Z</time></trkpt><trkpt lat="43.622602407669106" lon="11.134910834413523"><ele>248.0</ele><time>2026-03-29T14:11:41.727Z</time></trkpt><trkpt lat="43.622648783530224" lon="11.135054597707489"><ele>248.0</ele><time>2026-03-29T14:11:42.727Z</time></trkpt><trkpt lat="43.62271607473584" lon="11.135200371052811"><ele>246.25</ele><time>2026-03-29T14:11:43.727Z</time></trkpt><trkpt lat="43.62276486338064" lon="11.135335269240313"><ele>244.5</ele><time>2026-03-29T14:11:44.727Z</time></trkpt><trkpt lat="43.622807399543035" lon="11.135480343499177"><ele>242.75</ele><time>2026-03-29T14:11:45.727Z</time></trkpt><trkpt lat="43.62289602528067" lon="11.135605371057322"><ele>241.0</ele><time>2026-03-29T14:11:46.727Z</time></trkpt><trkpt lat="43.62298826184498" lon="11.135721309839107"><ele>244.75</ele><time>2026-03-29T14:11:47.727Z</time></trkpt><trkpt lat="43.62307698511822" lon="11.135813784720252"><ele>248.5</ele><time>2026-03-29T14:11:48.727Z</time></trkpt><trkpt lat="43.62317552486203" lon="11.135890275951358"><ele>252.25</ele><time>2026-03-29T14:11:49.727Z</time></trkpt><trkpt lat="43.62328163340364" lon="11.135953813149586"><ele>256.0</ele><time>2026-03-29T14:11:50.727Z</time></trkpt><trkpt lat="43.62336087785197" lon="11.136064338443617"><ele>256.0</ele><time>2026-03-29T14:11:51.726Z</time></trkpt><trkpt lat="43.623454706428205" lon="11.13614231079692"><ele>256.0</ele><time>2026-03-29T14:11:52.726Z</time></trkpt><trkpt lat="43.62355762161772" lon="11.13622783419815"><ele>256.0</ele><time>2026-03-29T14:11:53.726Z</time></trkpt><trkpt lat="43.62365157301849" lon="11.136305009140465"><ele>256.0</ele><time>2026-03-29T14:11:54.726Z</time></trkpt><trkpt lat="43.623746178212976" lon="11.136382755955832"><ele>256.0</ele><time>2026-03-29T14:11:55.726Z</time></trkpt><trkpt lat="43.62384626036712" lon="11.136468140191528"><ele>259.0</ele><time>2026-03-29T14:11:56.726Z</time></trkpt><trkpt lat="43.623954252534816" lon="11.136546996547594"><ele>262.0</ele><time>2026-03-29T14:11:57.726Z</time></trkpt><trkpt lat="43.624061039383925" lon="11.136613604151533"><ele>265.0</ele><time>2026-03-29T14:11:58.726Z</time></trkpt><trkpt lat="43.62416984187721" lon="11.136666396573075"><ele>268.0</ele><time>2026-03-29T14:11:59.726Z</time></trkpt><trkpt lat="43.6242800300499" lon="11.136716228760795"><ele>268.0</ele><time>2026-03-29T14:12:00.726Z</time></trkpt><trkpt lat="43.62440192520291" lon="11.13672137459469"><ele>268.0</ele><time>2026-03-29T14:12:01.726Z</time></trkpt><trkpt lat="43.624504482462804" lon="11.136719469654295"><ele>268.0</ele><time>2026-03-29T14:12:02.726Z</time></trkpt><trkpt lat="43.62462433305536" lon="11.136702613830234"><ele>268.0</ele><time>2026-03-29T14:12:03.726Z</time></trkpt><trkpt lat="43.62473546476568" lon="11.136716557991132"><ele>270.75</ele><time>2026-03-29T14:12:04.726Z</time></trkpt><trkpt lat="43.62484705096552" lon="11.136709353112513"><ele>273.5</ele><time>2026-03-29T14:12:05.726Z</time></trkpt><trkpt lat="43.6249820810988" lon="11.136705747161535"><ele>276.25</ele><time>2026-03-29T14:12:06.726Z</time></trkpt><trkpt lat="43.62509896777317" lon="11.136719560771853"><ele>279.0</ele><time>2026-03-29T14:12:07.726Z</time></trkpt><trkpt lat="43.62518881572854" lon="11.136738986798967"><ele>279.0</ele><time>2026-03-29T14:12:08.726Z</time></trkpt><trkpt lat="43.625274264216024" lon="11.136816011963615"><ele>279.0</ele><time>2026-03-29T14:12:09.726Z</time></trkpt><trkpt lat="43.62531843784697" lon="11.136924942575165"><ele>279.0</ele><time>2026-03-29T14:12:10.725Z</time></trkpt><trkpt lat="43.62533526344985" lon="11.137059311996213"><ele>279.0</ele><time>2026-03-29T14:12:11.725Z</time></trkpt><trkpt lat="43.62533620720214" lon="11.137199952000488"><ele>279.0</ele><time>2026-03-29T14:12:12.725Z</time></trkpt><trkpt lat="43.62536289649574" lon="11.137303131997914"><ele>282.0</ele><time>2026-03-29T14:12:13.725Z</time></trkpt><trkpt lat="43.6254031013608" lon="11.137409806056368"><ele>285.0</ele><time>2026-03-29T14:12:14.725Z</time></trkpt><trkpt lat="43.625480418652636" lon="11.137492726732019"><ele>288.0</ele><time>2026-03-29T14:12:15.725Z</time></trkpt><trkpt lat="43.625574274614976" lon="11.13756794081422"><ele>291.0</ele><time>2026-03-29T14:12:16.725Z</time></trkpt><trkpt lat="43.625667382326576" lon="11.137610898528346"><ele>294.0</ele><time>2026-03-29T14:12:17.725Z</time></trkpt><trkpt lat="43.625758728338674" lon="11.137657582612372"><ele>294.0</ele><time>2026-03-29T14:12:18.725Z</time></trkpt><trkpt lat="43.62584742282158" lon="11.137722353573057"><ele>294.0</ele><time>2026-03-29T14:12:19.725Z</time></trkpt><trkpt lat="43.6259425023293" lon="11.1377917873244"><ele>294.0</ele><time>2026-03-29T14:12:20.725Z</time></trkpt><trkpt lat="43.62603684685346" lon="11.137864780639838"><ele>294.0</ele><time>2026-03-29T14:12:21.727Z</time></trkpt><trkpt lat="43.62612957500525" lon="11.137945124938856"><ele>294.0</ele><time>2026-03-29T14:12:22.727Z</time></trkpt><trkpt lat="43.62622417233282" lon="11.138031113234689"><ele>296.4</ele><time>2026-03-29T14:12:23.727Z</time></trkpt><trkpt lat="43.626304859924446" lon="11.13811456735512"><ele>298.79999999999995</ele><time>2026-03-29T14:12:24.728Z</time></trkpt><trkpt lat="43.626390044399" lon="11.138222674640893"><ele>301.20000000000005</ele><time>2026-03-29T14:12:25.727Z</time></trkpt><trkpt lat="43.62646904076371" lon="11.138348022480061"><ele>303.6</ele><time>2026-03-29T14:12:26.727Z</time></trkpt><trkpt lat="43.62654086254942" lon="11.138464888041783"><ele>306.0</ele><time>2026-03-29T14:12:27.727Z</time></trkpt><trkpt lat="43.62661292526674" lon="11.138585198744625"><ele>306.0</ele><time>2026-03-29T14:12:28.727Z</time></trkpt><trkpt lat="43.62669241063384" lon="11.13868792396615"><ele>306.0</ele><time>2026-03-29T14:12:29.727Z</time></trkpt><trkpt lat="43.626769385038074" lon="11.13880916366385"><ele>306.0</ele><time>2026-03-29T14:12:30.726Z</time></trkpt><trkpt lat="43.62684053748574" lon="11.138913769837048"><ele>306.0</ele><time>2026-03-29T14:12:31.727Z</time></trkpt><trkpt lat="43.626911120491506" lon="11.138996590034965"><ele>306.0</ele><time>2026-03-29T14:12:32.727Z</time></trkpt><trkpt lat="43.626981864105844" lon="11.139067775831924"><ele>305.8333333333333</ele><time>2026-03-29T14:12:33.727Z</time></trkpt><trkpt lat="43.62703639284037" lon="11.139141874944732"><ele>305.6666666666667</ele><time>2026-03-29T14:12:34.727Z</time></trkpt><trkpt lat="43.62708109719642" lon="11.139222257315883"><ele>305.5</ele><time>2026-03-29T14:12:35.727Z</time></trkpt><trkpt lat="43.627112040103704" lon="11.13930253090652"><ele>305.33333333333337</ele><time>2026-03-29T14:12:36.727Z</time></trkpt><trkpt lat="43.62712475248639" lon="11.139393272926768"><ele>305.1666666666667</ele><time>2026-03-29T14:12:37.727Z</time></trkpt><trkpt lat="43.627131754039624" lon="11.139484219628198"><ele>305.0</ele><time>2026-03-29T14:12:38.727Z</time></trkpt><trkpt lat="43.62697522347236" lon="11.1395150682447"><ele>305.6666666666667</ele><time>2026-03-29T14:12:40.727Z</time></trkpt><trkpt lat="43.626909794452054" lon="11.139609487817994"><ele>306.33333333333337</ele><time>2026-03-29T14:12:41.727Z</time></trkpt><trkpt lat="43.626840227664935" lon="11.13970790074425"><ele>307.0</ele><time>2026-03-29T14:12:42.727Z</time></trkpt><trkpt lat="43.626782019575586" lon="11.139790752834877"><ele>307.6666666666667</ele><time>2026-03-29T14:12:43.727Z</time></trkpt><trkpt lat="43.62672549418115" lon="11.139873869938157"><ele>308.3333333333333</ele><time>2026-03-29T14:12:44.727Z</time></trkpt><trkpt lat="43.62667167023957" lon="11.139953698996743"><ele>309.0</ele><time>2026-03-29T14:12:45.727Z</time></trkpt><trkpt lat="43.626617423255276" lon="11.140034155484427"><ele>310.0</ele><time>2026-03-29T14:12:46.727Z</time></trkpt><trkpt lat="43.62655424693805" lon="11.140127912369998"><ele>311.0</ele><time>2026-03-29T14:12:47.727Z</time></trkpt><trkpt lat="43.62648964749064" lon="11.14022453442887"><ele>312.0</ele><time>2026-03-29T14:12:48.727Z</time></trkpt><trkpt lat="43.62641233304109" lon="11.140339167863184"><ele>313.0</ele><time>2026-03-29T14:12:49.726Z</time></trkpt><trkpt lat="43.62633829695824" lon="11.140430198172558"><ele>314.0</ele><time>2026-03-29T14:12:50.726Z</time></trkpt><trkpt lat="43.626264049995434" lon="11.140499660696358"><ele>314.0</ele><time>2026-03-29T14:12:51.726Z</time></trkpt><trkpt lat="43.62617698467699" lon="11.140572647264193"><ele>314.0</ele><time>2026-03-29T14:12:52.726Z</time></trkpt><trkpt lat="43.626072704924596" lon="11.140659310317186"><ele>314.0</ele><time>2026-03-29T14:12:53.726Z</time></trkpt><trkpt lat="43.625979773105065" lon="11.140743053168547"><ele>314.0</ele><time>2026-03-29T14:12:54.726Z</time></trkpt><trkpt lat="43.62588174104844" lon="11.140831391742651"><ele>313.5</ele><time>2026-03-29T14:12:55.726Z</time></trkpt><trkpt lat="43.62578436872065" lon="11.140919136007868"><ele>313.0</ele><time>2026-03-29T14:12:56.726Z</time></trkpt><trkpt lat="43.6256786011958" lon="11.141013227924393"><ele>312.5</ele><time>2026-03-29T14:12:57.726Z</time></trkpt><trkpt lat="43.625559921216556" lon="11.141115020193727"><ele>312.0</ele><time>2026-03-29T14:12:58.726Z</time></trkpt><trkpt lat="43.62546212926803" lon="11.141198896856146"><ele>312.0</ele><time>2026-03-29T14:12:59.726Z</time></trkpt><trkpt lat="43.625368929245006" lon="11.141305593110529"><ele>312.0</ele><time>2026-03-29T14:13:00.726Z</time></trkpt><trkpt lat="43.62526340112117" lon="11.141369346680875"><ele>312.0</ele><time>2026-03-29T14:13:01.726Z</time></trkpt><trkpt lat="43.625162233209494" lon="11.141458215945558"><ele>312.0</ele><time>2026-03-29T14:13:02.726Z</time></trkpt><trkpt lat="43.625053280779575" lon="11.141554313059833"><ele>309.5</ele><time>2026-03-29T14:13:03.726Z</time></trkpt><trkpt lat="43.62494766242365" lon="11.141648075737198"><ele>307.0</ele><time>2026-03-29T14:13:04.726Z</time></trkpt><trkpt lat="43.62483595669717" lon="11.141747321892664"><ele>304.5</ele><time>2026-03-29T14:13:05.726Z</time></trkpt><trkpt lat="43.6247326599718" lon="11.141840183154414"><ele>302.0</ele><time>2026-03-29T14:13:06.726Z</time></trkpt><trkpt lat="43.624625850277944" lon="11.141934024580582"><ele>302.0</ele><time>2026-03-29T14:13:07.726Z</time></trkpt><trkpt lat="43.62451992597703" lon="11.142026263383086"><ele>302.0</ele><time>2026-03-29T14:13:08.726Z</time></trkpt><trkpt lat="43.624410622222534" lon="11.142127180289133"><ele>302.0</ele><time>2026-03-29T14:13:09.725Z</time></trkpt><trkpt lat="43.6243037770927" lon="11.142225827115695"><ele>302.0</ele><time>2026-03-29T14:13:10.725Z</time></trkpt><trkpt lat="43.62420189390346" lon="11.142326936314827"><ele>302.75</ele><time>2026-03-29T14:13:11.725Z</time></trkpt><trkpt lat="43.62410148530977" lon="11.142425223581963"><ele>303.5</ele><time>2026-03-29T14:13:12.725Z</time></trkpt><trkpt lat="43.6239971197153" lon="11.14252662187932"><ele>304.25</ele><time>2026-03-29T14:13:13.725Z</time></trkpt><trkpt lat="43.623896615788205" lon="11.142625982695481"><ele>305.0</ele><time>2026-03-29T14:13:14.725Z</time></trkpt><trkpt lat="43.623796130687076" lon="11.142733288942464"><ele>305.0</ele><time>2026-03-29T14:13:15.725Z</time></trkpt><trkpt lat="43.623721662877784" lon="11.142862028742314"><ele>305.0</ele><time>2026-03-29T14:13:16.725Z</time></trkpt><trkpt lat="43.62365305512836" lon="11.142989204512302"><ele>305.0</ele><time>2026-03-29T14:13:17.725Z</time></trkpt><trkpt lat="43.623582424947436" lon="11.143141293449796"><ele>305.0</ele><time>2026-03-29T14:13:18.725Z</time></trkpt><trkpt lat="43.623515107140996" lon="11.143291245577453"><ele>307.25</ele><time>2026-03-29T14:13:19.725Z</time></trkpt><trkpt lat="43.623444299298164" lon="11.143444625901878"><ele>309.5</ele><time>2026-03-29T14:13:20.725Z</time></trkpt><trkpt lat="43.62335984193461" lon="11.143582713994855"><ele>311.75</ele><time>2026-03-29T14:13:21.725Z</time></trkpt><trkpt lat="43.62328565763362" lon="11.143738476493459"><ele>314.0</ele><time>2026-03-29T14:13:22.725Z</time></trkpt><trkpt lat="43.62321427658555" lon="11.143889329771966"><ele>314.0</ele><time>2026-03-29T14:13:23.725Z</time></trkpt><trkpt lat="43.62314127177152" lon="11.14404568233357"><ele>314.0</ele><time>2026-03-29T14:13:24.725Z</time></trkpt><trkpt lat="43.62306386297529" lon="11.144211123134104"><ele>314.0</ele><time>2026-03-29T14:13:25.725Z</time></trkpt><trkpt lat="43.62299125376132" lon="11.144365766584812"><ele>314.0</ele><time>2026-03-29T14:13:26.725Z</time></trkpt><trkpt lat="43.62291825948291" lon="11.144521035238851"><ele>314.25</ele><time>2026-03-29T14:13:27.725Z</time></trkpt><trkpt lat="43.62285046860363" lon="11.144665055376763"><ele>314.5</ele><time>2026-03-29T14:13:28.725Z</time></trkpt><trkpt lat="43.622781186927746" lon="11.144811908681218"><ele>314.75</ele><time>2026-03-29T14:13:29.724Z</time></trkpt><trkpt lat="43.622715549555394" lon="11.144956518914332"><ele>315.0</ele><time>2026-03-29T14:13:30.724Z</time></trkpt><trkpt lat="43.622664832506096" lon="11.145097748861879"><ele>315.4</ele><time>2026-03-29T14:13:31.724Z</time></trkpt><trkpt lat="43.622604998453724" lon="11.1452288149254"><ele>315.8</ele><time>2026-03-29T14:13:32.724Z</time></trkpt><trkpt lat="43.622537052239444" lon="11.145336048127682"><ele>316.2</ele><time>2026-03-29T14:13:33.724Z</time></trkpt><trkpt lat="43.622477499085484" lon="11.145463535206234"><ele>316.6</ele><time>2026-03-29T14:13:34.724Z</time></trkpt><trkpt lat="43.62241783773914" lon="11.145592225379653"><ele>317.0</ele><time>2026-03-29T14:13:35.724Z</time></trkpt><trkpt lat="43.62235976703017" lon="11.145720658231557"><ele>317.6</ele><time>2026-03-29T14:13:36.724Z</time></trkpt><trkpt lat="43.622319310003576" lon="11.145851299477195"><ele>318.2</ele><time>2026-03-29T14:13:37.724Z</time></trkpt><trkpt lat="43.62226258574431" lon="11.145967073608356"><ele>318.8</ele><time>2026-03-29T14:13:38.724Z</time></trkpt><trkpt lat="43.6222104582459" lon="11.14607002509141"><ele>319.4</ele><time>2026-03-29T14:13:39.724Z</time></trkpt><trkpt lat="43.62216626640994" lon="11.146176289297955"><ele>320.0</ele><time>2026-03-29T14:13:40.724Z</time></trkpt><trkpt lat="43.62212248901251" lon="11.146266372544952"><ele>320.0</ele><time>2026-03-29T14:13:41.724Z</time></trkpt><trkpt lat="43.62207689627275" lon="11.146356274439746"><ele>320.0</ele><time>2026-03-29T14:13:42.724Z</time></trkpt><trkpt lat="43.62203710572842" lon="11.146449879353773"><ele>320.0</ele><time>2026-03-29T14:13:43.724Z</time></trkpt><trkpt lat="43.621996021743165" lon="11.146546314925136"><ele>320.0</ele><time>2026-03-29T14:13:44.724Z</time></trkpt><trkpt lat="43.62195338142494" lon="11.146643987305161"><ele>320.0</ele><time>2026-03-29T14:13:45.724Z</time></trkpt><trkpt lat="43.62190215372291" lon="11.146747308228225"><ele>320.0</ele><time>2026-03-29T14:13:46.724Z</time></trkpt><trkpt lat="43.62185795222661" lon="11.146836545067382"><ele>319.83333333333337</ele><time>2026-03-29T14:13:47.724Z</time></trkpt><trkpt lat="43.62182015949678" lon="11.146931272437678"><ele>319.6666666666667</ele><time>2026-03-29T14:13:48.723Z</time></trkpt><trkpt lat="43.62177686780812" lon="11.147026954917829"><ele>319.5</ele><time>2026-03-29T14:13:49.723Z</time></trkpt><trkpt lat="43.62173446622094" lon="11.147119065358737"><ele>319.3333333333333</ele><time>2026-03-29T14:13:50.723Z</time></trkpt><trkpt lat="43.62167437344431" lon="11.147195643353058"><ele>319.16666666666663</ele><time>2026-03-29T14:13:51.723Z</time></trkpt><trkpt lat="43.621629079953486" lon="11.147277584349967"><ele>319.0</ele><time>2026-03-29T14:13:52.723Z</time></trkpt><trkpt lat="43.62158865993444" lon="11.147386087676669"><ele>319.4</ele><time>2026-03-29T14:13:53.723Z</time></trkpt><trkpt lat="43.62153393067846" lon="11.147471396081622"><ele>319.79999999999995</ele><time>2026-03-29T14:13:54.723Z</time></trkpt><trkpt lat="43.621480117466454" lon="11.147565017271468"><ele>320.20000000000005</ele><time>2026-03-29T14:13:55.723Z</time></trkpt><trkpt lat="43.62141024768287" lon="11.14768242639928"><ele>320.6</ele><time>2026-03-29T14:13:56.723Z</time></trkpt><trkpt lat="43.621356659160135" lon="11.147790998392805"><ele>321.0</ele><time>2026-03-29T14:13:57.723Z</time></trkpt><trkpt lat="43.62128097251787" lon="11.14789151664184"><ele>321.0</ele><time>2026-03-29T14:13:58.723Z</time></trkpt><trkpt lat="43.62121084496754" lon="11.1479850221794"><ele>321.0</ele><time>2026-03-29T14:13:59.723Z</time></trkpt><trkpt lat="43.62113775210127" lon="11.148075408485234"><ele>321.0</ele><time>2026-03-29T14:14:00.723Z</time></trkpt><trkpt lat="43.621055402160444" lon="11.148177663383345"><ele>321.0</ele><time>2026-03-29T14:14:01.723Z</time></trkpt><trkpt lat="43.62096578739613" lon="11.148288951606544"><ele>321.0</ele><time>2026-03-29T14:14:02.723Z</time></trkpt><trkpt lat="43.6208661658892" lon="11.148412666692863"><ele>319.25</ele><time>2026-03-29T14:14:03.723Z</time></trkpt><trkpt lat="43.620766273273176" lon="11.14853241675494"><ele>317.5</ele><time>2026-03-29T14:14:04.723Z</time></trkpt><trkpt lat="43.620668251419886" lon="11.148650014512969"><ele>315.75</ele><time>2026-03-29T14:14:05.723Z</time></trkpt><trkpt lat="43.62056138723893" lon="11.14877513260955"><ele>314.0</ele><time>2026-03-29T14:14:06.723Z</time></trkpt><trkpt lat="43.620455066276385" lon="11.148922321021667"><ele>313.5</ele><time>2026-03-29T14:14:07.723Z</time></trkpt><trkpt lat="43.62035840886783" lon="11.149052105953167"><ele>313.0</ele><time>2026-03-29T14:14:08.722Z</time></trkpt><trkpt lat="43.620255353341385" lon="11.149186382693241"><ele>312.5</ele><time>2026-03-29T14:14:09.722Z</time></trkpt><trkpt lat="43.62014523067037" lon="11.14930259426936"><ele>312.0</ele><time>2026-03-29T14:14:10.722Z</time></trkpt><trkpt lat="43.62005574464566" lon="11.149442371548854"><ele>312.0</ele><time>2026-03-29T14:14:11.722Z</time></trkpt><trkpt lat="43.61994766855321" lon="11.1495529254299"><ele>312.0</ele><time>2026-03-29T14:14:12.722Z</time></trkpt><trkpt lat="43.61984859781804" lon="11.149675220384337"><ele>312.0</ele><time>2026-03-29T14:14:13.722Z</time></trkpt><trkpt lat="43.619750493361494" lon="11.149794318594639"><ele>312.0</ele><time>2026-03-29T14:14:14.722Z</time></trkpt><trkpt lat="43.619656538879184" lon="11.149935361594766"><ele>312.25</ele><time>2026-03-29T14:14:15.722Z</time></trkpt><trkpt lat="43.61954249805983" lon="11.150045672429888"><ele>312.5</ele><time>2026-03-29T14:14:16.722Z</time></trkpt><trkpt lat="43.619448598988434" lon="11.150189882792713"><ele>312.75</ele><time>2026-03-29T14:14:17.722Z</time></trkpt><trkpt lat="43.61933801810331" lon="11.150297502414222"><ele>313.0</ele><time>2026-03-29T14:14:18.722Z</time></trkpt><trkpt lat="43.619238858011606" lon="11.150417459181506"><ele>313.0</ele><time>2026-03-29T14:14:19.722Z</time></trkpt><trkpt lat="43.61914122906499" lon="11.15053556368911"><ele>313.0</ele><time>2026-03-29T14:14:20.722Z</time></trkpt><trkpt lat="43.619039859122495" lon="11.1506581937517"><ele>313.0</ele><time>2026-03-29T14:14:21.722Z</time></trkpt><trkpt lat="43.61894114360106" lon="11.150777612707644"><ele>313.0</ele><time>2026-03-29T14:14:22.722Z</time></trkpt><trkpt lat="43.61883645753402" lon="11.150901742665983"><ele>312.25</ele><time>2026-03-29T14:14:23.722Z</time></trkpt><trkpt lat="43.61874069736013" lon="11.151012657693748"><ele>311.5</ele><time>2026-03-29T14:14:24.722Z</time></trkpt><trkpt lat="43.61865240212164" lon="11.151122896837043"><ele>310.75</ele><time>2026-03-29T14:14:25.722Z</time></trkpt><trkpt lat="43.61858280931739" lon="11.15123821211567"><ele>310.0</ele><time>2026-03-29T14:14:26.722Z</time></trkpt><trkpt lat="43.6185289693149" lon="11.151405769255135"><ele>310.25</ele><time>2026-03-29T14:14:27.723Z</time></trkpt><trkpt lat="43.618502967255864" lon="11.151584927624056"><ele>310.5</ele><time>2026-03-29T14:14:28.723Z</time></trkpt><trkpt lat="43.61846823862519" lon="11.151749271182073"><ele>310.75</ele><time>2026-03-29T14:14:29.723Z</time></trkpt><trkpt lat="43.618429628759245" lon="11.151922450178613"><ele>311.0</ele><time>2026-03-29T14:14:30.723Z</time></trkpt><trkpt lat="43.618393294118505" lon="11.152106342130377"><ele>311.0</ele><time>2026-03-29T14:14:31.723Z</time></trkpt><trkpt lat="43.61835441093354" lon="11.152290920139873"><ele>311.0</ele><time>2026-03-29T14:14:32.723Z</time></trkpt><trkpt lat="43.618312526660446" lon="11.152455341240543"><ele>311.0</ele><time>2026-03-29T14:14:33.723Z</time></trkpt><trkpt lat="43.61827993115096" lon="11.152605415747402"><ele>311.0</ele><time>2026-03-29T14:14:34.722Z</time></trkpt><trkpt lat="43.61824131580237" lon="11.152757554996167"><ele>311.0</ele><time>2026-03-29T14:14:35.722Z</time></trkpt><trkpt lat="43.61820331405789" lon="11.152903449956689"><ele>311.0</ele><time>2026-03-29T14:14:36.723Z</time></trkpt><trkpt lat="43.61815898858446" lon="11.153039127545593"><ele>311.0</ele><time>2026-03-29T14:14:37.722Z</time></trkpt><trkpt lat="43.61811208976057" lon="11.153187929049409"><ele>311.0</ele><time>2026-03-29T14:14:38.722Z</time></trkpt><trkpt lat="43.61804370414264" lon="11.153331762092755"><ele>310.25</ele><time>2026-03-29T14:14:39.723Z</time></trkpt><trkpt lat="43.61798573743632" lon="11.153485155753774"><ele>309.5</ele><time>2026-03-29T14:14:40.722Z</time></trkpt><trkpt lat="43.61792666097056" lon="11.153650374284613"><ele>308.75</ele><time>2026-03-29T14:14:41.722Z</time></trkpt><trkpt lat="43.617865283491646" lon="11.15382231091447"><ele>308.0</ele><time>2026-03-29T14:14:42.722Z</time></trkpt><trkpt lat="43.617803550385425" lon="11.15399090411314"><ele>306.5</ele><time>2026-03-29T14:14:43.722Z</time></trkpt><trkpt lat="43.61773972227118" lon="11.154163135561978"><ele>305.0</ele><time>2026-03-29T14:14:44.722Z</time></trkpt><trkpt lat="43.617672236531895" lon="11.15434523675291"><ele>303.5</ele><time>2026-03-29T14:14:45.722Z</time></trkpt><trkpt lat="43.617604465450576" lon="11.154528107613494"><ele>302.0</ele><time>2026-03-29T14:14:46.722Z</time></trkpt><trkpt lat="43.61753643679446" lon="11.15471167362896"><ele>302.5</ele><time>2026-03-29T14:14:47.722Z</time></trkpt><trkpt lat="43.61747177268775" lon="11.154888340147947"><ele>303.0</ele><time>2026-03-29T14:14:48.722Z</time></trkpt><trkpt lat="43.6174148714665" lon="11.15508330432575"><ele>303.5</ele><time>2026-03-29T14:14:49.722Z</time></trkpt><trkpt lat="43.61734830091903" lon="11.155266589493262"><ele>304.0</ele><time>2026-03-29T14:14:50.722Z</time></trkpt><trkpt lat="43.61727614901163" lon="11.15544969750884"><ele>304.0</ele><time>2026-03-29T14:14:51.722Z</time></trkpt><trkpt lat="43.6172069837047" lon="11.155643090541075"><ele>304.0</ele><time>2026-03-29T14:14:52.722Z</time></trkpt><trkpt lat="43.617140751597546" lon="11.155834298494376"><ele>304.0</ele><time>2026-03-29T14:14:53.722Z</time></trkpt><trkpt lat="43.61706969220708" lon="11.156026442764228"><ele>303.3333333333333</ele><time>2026-03-29T14:14:54.722Z</time></trkpt><trkpt lat="43.61699965186104" lon="11.156227419300164"><ele>302.6666666666667</ele><time>2026-03-29T14:14:55.722Z</time></trkpt><trkpt lat="43.616929587608624" lon="11.156429844972047"><ele>302.0</ele><time>2026-03-29T14:14:56.722Z</time></trkpt><trkpt lat="43.61685834664763" lon="11.15661968201754"><ele>305.25</ele><time>2026-03-29T14:14:57.722Z</time></trkpt><trkpt lat="43.61679252059859" lon="11.156806430322337"><ele>308.5</ele><time>2026-03-29T14:14:58.722Z</time></trkpt><trkpt lat="43.61672358079649" lon="11.156984604653482"><ele>311.75</ele><time>2026-03-29T14:14:59.721Z</time></trkpt><trkpt lat="43.61666336401164" lon="11.157153404726673"><ele>315.0</ele><time>2026-03-29T14:15:00.721Z</time></trkpt><trkpt lat="43.616607681461495" lon="11.157308612930763"><ele>316.2</ele><time>2026-03-29T14:15:01.721Z</time></trkpt><trkpt lat="43.6165547575484" lon="11.157450522514246"><ele>317.4</ele><time>2026-03-29T14:15:02.721Z</time></trkpt><trkpt lat="43.61650137227507" lon="11.15756747273556"><ele>318.6</ele><time>2026-03-29T14:15:03.721Z</time></trkpt><trkpt lat="43.61646934949185" lon="11.1576600397132"><ele>319.8</ele><time>2026-03-29T14:15:04.721Z</time></trkpt><trkpt lat="43.61644086927907" lon="11.157751834144682"><ele>321.0</ele><time>2026-03-29T14:15:06.721Z</time></trkpt><trkpt lat="43.61631530154869" lon="11.157629671210938"><ele>321.0</ele><time>2026-03-29T14:15:13.721Z</time></trkpt><trkpt lat="43.61623594154583" lon="11.157603617004915"><ele>321.0</ele><time>2026-03-29T14:15:15.721Z</time></trkpt><trkpt lat="43.61616244313291" lon="11.15756437435582"><ele>321.0</ele><time>2026-03-29T14:15:17.721Z</time></trkpt><trkpt lat="43.616084770857796" lon="11.157525805444983"><ele>321.0</ele><time>2026-03-29T14:15:20.72Z</time></trkpt><trkpt lat="43.61601228302084" lon="11.157482217727319"><ele>321.0</ele><time>2026-03-29T14:16:02.718Z</time></trkpt><trkpt lat="43.6159237630792" lon="11.157431557400976"><ele>321.0</ele><time>2026-03-29T14:16:05.718Z</time></trkpt><trkpt lat="43.61585536713436" lon="11.157381207148296"><ele>320.6666666666667</ele><time>2026-03-29T14:16:07.718Z</time></trkpt><trkpt lat="43.615795061334914" lon="11.157337663627953"><ele>320.3333333333333</ele><time>2026-03-29T14:16:09.718Z</time></trkpt><trkpt lat="43.6157337317009" lon="11.15728966747142"><ele>320.0</ele><time>2026-03-29T14:16:12.718Z</time></trkpt><trkpt lat="43.61566209286277" lon="11.157252886989863"><ele>319.66666666666663</ele><time>2026-03-29T14:16:16.718Z</time></trkpt><trkpt lat="43.615570593379275" lon="11.157211039039176"><ele>319.3333333333333</ele><time>2026-03-29T14:16:19.717Z</time></trkpt><trkpt lat="43.61549342210541" lon="11.157178347275066"><ele>319.0</ele><time>2026-03-29T14:16:22.717Z</time></trkpt><trkpt lat="43.615431757766885" lon="11.15715947804735"><ele>319.0</ele><time>2026-03-29T14:16:24.717Z</time></trkpt><trkpt lat="43.61536529366933" lon="11.15714820195204"><ele>319.0</ele><time>2026-03-29T14:16:26.717Z</time></trkpt><trkpt lat="43.61529594666046" lon="11.15710608981061"><ele>319.0</ele><time>2026-03-29T14:16:28.717Z</time></trkpt><trkpt lat="43.61522441710552" lon="11.157083952615592"><ele>319.0</ele><time>2026-03-29T14:16:30.717Z</time></trkpt><trkpt lat="43.61514891897233" lon="11.157041696954323"><ele>319.0</ele><time>2026-03-29T14:16:32.719Z</time></trkpt><trkpt lat="43.61506730088864" lon="11.157004730388568"><ele>319.0</ele><time>2026-03-29T14:16:34.719Z</time></trkpt><trkpt lat="43.614956419235895" lon="11.15696180275748"><ele>318.59999999999997</ele><time>2026-03-29T14:16:36.719Z</time></trkpt><trkpt lat="43.61484867713632" lon="11.15691555353992"><ele>318.2</ele><time>2026-03-29T14:16:38.719Z</time></trkpt><trkpt lat="43.61474485572801" lon="11.156870101956644"><ele>317.79999999999995</ele><time>2026-03-29T14:16:40.719Z</time></trkpt><trkpt lat="43.61464782011228" lon="11.15677647010932"><ele>317.4</ele><time>2026-03-29T14:16:42.719Z</time></trkpt><trkpt lat="43.614572486547" lon="11.15667103410123"><ele>317.0</ele><time>2026-03-29T14:16:44.718Z</time></trkpt><trkpt lat="43.61453586757918" lon="11.15658672433567"><ele>315.6666666666667</ele><time>2026-03-29T14:16:47.718Z</time></trkpt><trkpt lat="43.61448218430454" lon="11.156523572176772"><ele>314.33333333333337</ele><time>2026-03-29T14:16:49.718Z</time></trkpt><trkpt lat="43.614437043738754" lon="11.156419814616648"><ele>313.0</ele><time>2026-03-29T14:16:51.718Z</time></trkpt><trkpt lat="43.614364992381894" lon="11.156299250240865"><ele>311.6666666666667</ele><time>2026-03-29T14:16:53.718Z</time></trkpt><trkpt lat="43.61433131070197" lon="11.156218200999866"><ele>310.3333333333333</ele><time>2026-03-29T14:16:54.718Z</time></trkpt><trkpt lat="43.61430016659207" lon="11.156137500332619"><ele>309.0</ele><time>2026-03-29T14:16:55.718Z</time></trkpt><trkpt lat="43.61425201226203" lon="11.156015575804195"><ele>309.0</ele><time>2026-03-29T14:16:57.717Z</time></trkpt><trkpt lat="43.61421444642419" lon="11.155913928848774"><ele>309.0</ele><time>2026-03-29T14:17:00.717Z</time></trkpt><trkpt lat="43.61414869733561" lon="11.155783373871675"><ele>309.0</ele><time>2026-03-29T14:17:03.717Z</time></trkpt><trkpt lat="43.61408844612784" lon="11.155650788267652"><ele>309.0</ele><time>2026-03-29T14:17:05.717Z</time></trkpt><trkpt lat="43.614040402493345" lon="11.155536039029847"><ele>309.0</ele><time>2026-03-29T14:17:07.717Z</time></trkpt><trkpt lat="43.6139965074926" lon="11.155421615039614"><ele>308.0</ele><time>2026-03-29T14:17:09.717Z</time></trkpt><trkpt lat="43.61394093922729" lon="11.155308038102145"><ele>307.0</ele><time>2026-03-29T14:17:11.717Z</time></trkpt><trkpt lat="43.61389616912896" lon="11.155212293844727"><ele>306.0</ele><time>2026-03-29T14:17:13.717Z</time></trkpt><trkpt lat="43.61385353112377" lon="11.155123788599722"><ele>305.0</ele><time>2026-03-29T14:17:15.717Z</time></trkpt><trkpt lat="43.61380876615055" lon="11.155022971800067"><ele>304.0</ele><time>2026-03-29T14:17:17.716Z</time></trkpt><trkpt lat="43.61376107188667" lon="11.154946074316197"><ele>303.0</ele><time>2026-03-29T14:17:19.716Z</time></trkpt><trkpt lat="43.61368437069867" lon="11.154926059595494"><ele>302.8333333333333</ele><time>2026-03-29T14:17:21.716Z</time></trkpt><trkpt lat="43.61360576243351" lon="11.154955228735824"><ele>302.6666666666667</ele><time>2026-03-29T14:17:23.716Z</time></trkpt><trkpt lat="43.61353967712525" lon="11.155001612922105"><ele>302.5</ele><time>2026-03-29T14:17:26.716Z</time></trkpt><trkpt lat="43.61344533684258" lon="11.154955045087892"><ele>302.33333333333337</ele><time>2026-03-29T14:18:07.741Z</time></trkpt><trkpt lat="43.61340364547107" lon="11.154886828725784"><ele>302.1666666666667</ele><time>2026-03-29T14:18:14.747Z</time></trkpt><trkpt lat="43.61341271629717" lon="11.15479396032829"><ele>302.0</ele><time>2026-03-29T14:18:22.75Z</time></trkpt><trkpt lat="43.61342196469193" lon="11.154698544487852"><ele>302.42857142857144</ele><time>2026-03-29T14:18:30.753Z</time></trkpt><trkpt lat="43.6134079097402" lon="11.15459647707267"><ele>302.8571428571429</ele><time>2026-03-29T14:19:34.756Z</time></trkpt><trkpt lat="43.61339134706293" lon="11.154509464772353"><ele>303.28571428571433</ele><time>2026-03-29T14:19:43.756Z</time></trkpt><trkpt lat="43.61336996659166" lon="11.154412229758021"><ele>303.7142857142857</ele><time>2026-03-29T14:19:50.756Z</time></trkpt><trkpt lat="43.61333821479449" lon="11.154329383089248"><ele>304.1428571428571</ele><time>2026-03-29T14:19:56.755Z</time></trkpt><trkpt lat="43.61332376647532" lon="11.154239526496902"><ele>304.5714285714286</ele><time>2026-03-29T14:20:04.755Z</time></trkpt><trkpt lat="43.613319989125" lon="11.15414644718209"><ele>305.0</ele><time>2026-03-29T14:20:58.755Z</time></trkpt><trkpt lat="43.613423278872666" lon="11.154174273621438"><ele>305.0</ele><time>2026-03-29T14:35:50.827Z</time></trkpt><trkpt lat="43.61335245560392" lon="11.154155455380282"><ele>305.0</ele><time>2026-03-29T14:52:26.879Z</time></trkpt><trkpt lat="43.61335912485246" lon="11.154257755129006"><ele>305.0</ele><time>2026-03-29T14:52:47.879Z</time></trkpt><trkpt lat="43.61336312151693" lon="11.154350504208992"><ele>305.0</ele><time>2026-03-29T14:52:53.878Z</time></trkpt><trkpt lat="43.61338081952126" lon="11.154440274453474"><ele>305.0</ele><time>2026-03-29T14:53:01.878Z</time></trkpt><trkpt lat="43.61339927109012" lon="11.154529055485298"><ele>305.0</ele><time>2026-03-29T14:53:13.878Z</time></trkpt><trkpt lat="43.6134267483567" lon="11.154612671425975"><ele>305.0</ele><time>2026-03-29T14:53:21.878Z</time></trkpt><trkpt lat="43.613440594615106" lon="11.154700147671246"><ele>305.0</ele><time>2026-03-29T14:53:30.878Z</time></trkpt><trkpt lat="43.613448694350836" lon="11.15479310906732"><ele>305.0</ele><time>2026-03-29T14:53:38.878Z</time></trkpt><trkpt lat="43.61343833502766" lon="11.154888234722256"><ele>305.0</ele><time>2026-03-29T14:53:47.878Z</time></trkpt><trkpt lat="43.61346006302538" lon="11.154971429662421"><ele>305.0</ele><time>2026-03-29T14:53:59.877Z</time></trkpt><trkpt lat="43.61352379285643" lon="11.155027391891554"><ele>305.0</ele><time>2026-03-29T14:54:23.88Z</time></trkpt><trkpt lat="43.613566572455454" lon="11.154959150164556"><ele>305.0</ele><time>2026-03-29T14:54:31.88Z</time></trkpt><trkpt lat="43.61365563654781" lon="11.155002079758475"><ele>305.0</ele><time>2026-03-29T14:54:37.88Z</time></trkpt><trkpt lat="43.613727743948616" lon="11.154975102814566"><ele>304.6666666666667</ele><time>2026-03-29T14:54:39.88Z</time></trkpt><trkpt lat="43.61379524189506" lon="11.155025042376959"><ele>304.33333333333337</ele><time>2026-03-29T14:54:41.88Z</time></trkpt><trkpt lat="43.613874303217365" lon="11.155163543195599"><ele>304.0</ele><time>2026-03-29T14:54:43.879Z</time></trkpt><trkpt lat="43.613905501805014" lon="11.155242855870108"><ele>303.6666666666667</ele><time>2026-03-29T14:54:44.879Z</time></trkpt><trkpt lat="43.61394327728224" lon="11.155316827561634"><ele>303.3333333333333</ele><time>2026-03-29T14:54:45.879Z</time></trkpt><trkpt lat="43.613977634989325" lon="11.155395009712032"><ele>303.0</ele><time>2026-03-29T14:54:46.879Z</time></trkpt><trkpt lat="43.61401235718014" lon="11.155474780261944"><ele>303.0</ele><time>2026-03-29T14:54:47.879Z</time></trkpt><trkpt lat="43.614077377935395" lon="11.155611400013543"><ele>303.0</ele><time>2026-03-29T14:54:49.879Z</time></trkpt><trkpt lat="43.61412609356118" lon="11.155730372013123"><ele>303.0</ele><time>2026-03-29T14:54:51.879Z</time></trkpt><trkpt lat="43.61418941738689" lon="11.155842390365958"><ele>303.0</ele><time>2026-03-29T14:54:53.879Z</time></trkpt><trkpt lat="43.61422694622059" lon="11.155927225657926"><ele>303.0</ele><time>2026-03-29T14:54:55.879Z</time></trkpt><trkpt lat="43.614283870611914" lon="11.156034433202189"><ele>304.2</ele><time>2026-03-29T14:54:58.879Z</time></trkpt><trkpt lat="43.614327784185726" lon="11.156147898296387"><ele>305.4</ele><time>2026-03-29T14:55:00.879Z</time></trkpt><trkpt lat="43.6143805218259" lon="11.156250754343976"><ele>306.59999999999997</ele><time>2026-03-29T14:55:02.879Z</time></trkpt><trkpt lat="43.61443121152534" lon="11.156355672283969"><ele>307.8</ele><time>2026-03-29T14:55:04.879Z</time></trkpt><trkpt lat="43.61447643225871" lon="11.156457901954575"><ele>309.0</ele><time>2026-03-29T14:55:06.879Z</time></trkpt><trkpt lat="43.61453751091294" lon="11.156561165415086"><ele>310.3333333333333</ele><time>2026-03-29T14:55:08.879Z</time></trkpt><trkpt lat="43.614590070247196" lon="11.15662832413975"><ele>311.6666666666667</ele><time>2026-03-29T14:55:10.879Z</time></trkpt><trkpt lat="43.614637292242534" lon="11.156717848625016"><ele>313.0</ele><time>2026-03-29T14:55:12.879Z</time></trkpt><trkpt lat="43.614694315408734" lon="11.156810165257582"><ele>314.33333333333337</ele><time>2026-03-29T14:55:14.879Z</time></trkpt><trkpt lat="43.614776007477175" lon="11.156883039534991"><ele>315.6666666666667</ele><time>2026-03-29T14:55:16.879Z</time></trkpt><trkpt lat="43.614861461877105" lon="11.156933470443011"><ele>317.0</ele><time>2026-03-29T14:55:18.879Z</time></trkpt><trkpt lat="43.614947538474794" lon="11.156977559996436"><ele>317.0</ele><time>2026-03-29T14:55:20.879Z</time></trkpt><trkpt lat="43.61503476372692" lon="11.156996022797356"><ele>317.0</ele><time>2026-03-29T14:55:22.879Z</time></trkpt><trkpt lat="43.61510994275646" lon="11.157028192629406"><ele>317.0</ele><time>2026-03-29T14:55:24.879Z</time></trkpt><trkpt lat="43.61519625876588" lon="11.157080070126181"><ele>317.0</ele><time>2026-03-29T14:55:26.879Z</time></trkpt><trkpt lat="43.615293054207434" lon="11.157122337599041"><ele>317.0</ele><time>2026-03-29T14:55:28.879Z</time></trkpt><trkpt lat="43.615372466110834" lon="11.157162238507635"><ele>317.0</ele><time>2026-03-29T14:55:30.879Z</time></trkpt><trkpt lat="43.61544958806807" lon="11.157197970967935"><ele>317.4</ele><time>2026-03-29T14:55:32.879Z</time></trkpt><trkpt lat="43.61554541044865" lon="11.157237230918723"><ele>317.79999999999995</ele><time>2026-03-29T14:55:34.879Z</time></trkpt><trkpt lat="43.615631653519124" lon="11.15726603976697"><ele>318.2</ele><time>2026-03-29T14:55:36.879Z</time></trkpt><trkpt lat="43.61571389646545" lon="11.157303190460983"><ele>318.59999999999997</ele><time>2026-03-29T14:55:38.879Z</time></trkpt><trkpt lat="43.61581495229198" lon="11.157363550660294"><ele>319.0</ele><time>2026-03-29T14:55:40.879Z</time></trkpt><trkpt lat="43.61590006627912" lon="11.157424551829015"><ele>319.3333333333333</ele><time>2026-03-29T14:55:42.879Z</time></trkpt><trkpt lat="43.61596986985357" lon="11.157479237403733"><ele>319.66666666666663</ele><time>2026-03-29T14:55:44.878Z</time></trkpt><trkpt lat="43.616049932885154" lon="11.157524100681504"><ele>320.0</ele><time>2026-03-29T14:55:46.878Z</time></trkpt><trkpt lat="43.616127572944094" lon="11.1575640083465"><ele>320.3333333333333</ele><time>2026-03-29T14:55:48.878Z</time></trkpt><trkpt lat="43.6162043611521" lon="11.157597430669698"><ele>320.6666666666667</ele><time>2026-03-29T14:55:50.878Z</time></trkpt><trkpt lat="43.61628311862163" lon="11.157645306028535"><ele>321.0</ele><time>2026-03-29T14:55:52.878Z</time></trkpt><trkpt lat="43.61635197182927" lon="11.15768822564012"><ele>321.0</ele><time>2026-03-29T14:55:54.878Z</time></trkpt><trkpt lat="43.616409471447476" lon="11.157755016207616"><ele>321.0</ele><time>2026-03-29T14:55:57.878Z</time></trkpt><trkpt lat="43.6164944849463" lon="11.157749565087927"><ele>321.0</ele><time>2026-03-29T14:56:15.878Z</time></trkpt><trkpt lat="43.61654381269839" lon="11.157620956190664"><ele>321.0</ele><time>2026-03-29T14:56:17.878Z</time></trkpt><trkpt lat="43.616572661968085" lon="11.157536507978154"><ele>321.0</ele><time>2026-03-29T14:56:18.878Z</time></trkpt><trkpt lat="43.61660604348414" lon="11.1574332241506"><ele>321.0</ele><time>2026-03-29T14:56:19.878Z</time></trkpt><trkpt lat="43.616643239015644" lon="11.15732839763249"><ele>319.8</ele><time>2026-03-29T14:56:20.878Z</time></trkpt><trkpt lat="43.61668448050916" lon="11.157228617824982"><ele>318.6</ele><time>2026-03-29T14:56:21.878Z</time></trkpt><trkpt lat="43.61672772956968" lon="11.157102952565543"><ele>317.4</ele><time>2026-03-29T14:56:22.881Z</time></trkpt><trkpt lat="43.616776882911914" lon="11.15696033281072"><ele>316.2</ele><time>2026-03-29T14:56:23.881Z</time></trkpt><trkpt lat="43.6168378121451" lon="11.156810322835314"><ele>315.0</ele><time>2026-03-29T14:56:24.881Z</time></trkpt><trkpt lat="43.61689307148753" lon="11.156658108108003"><ele>313.5</ele><time>2026-03-29T14:56:25.88Z</time></trkpt><trkpt lat="43.61694471243447" lon="11.156496684904369"><ele>312.0</ele><time>2026-03-29T14:56:26.881Z</time></trkpt><trkpt lat="43.617001279853255" lon="11.15632949974081"><ele>310.5</ele><time>2026-03-29T14:56:27.881Z</time></trkpt><trkpt lat="43.617062635867086" lon="11.156151985461278"><ele>309.0</ele><time>2026-03-29T14:56:28.88Z</time></trkpt><trkpt lat="43.61712416812206" lon="11.155979325283933"><ele>307.75</ele><time>2026-03-29T14:56:29.88Z</time></trkpt><trkpt lat="43.617187500284075" lon="11.155799705523112"><ele>306.5</ele><time>2026-03-29T14:56:30.88Z</time></trkpt><trkpt lat="43.61724056273343" lon="11.155619749421689"><ele>305.25</ele><time>2026-03-29T14:56:31.88Z</time></trkpt><trkpt lat="43.617305217489445" lon="11.155444123060365"><ele>304.0</ele><time>2026-03-29T14:56:32.88Z</time></trkpt><trkpt lat="43.617368687315704" lon="11.155272240957345"><ele>304.0</ele><time>2026-03-29T14:56:33.88Z</time></trkpt><trkpt lat="43.617431359447295" lon="11.155103775593574"><ele>304.0</ele><time>2026-03-29T14:56:34.88Z</time></trkpt><trkpt lat="43.61749489397039" lon="11.154939441267265"><ele>304.0</ele><time>2026-03-29T14:56:35.881Z</time></trkpt><trkpt lat="43.61755625966252" lon="11.154774388594662"><ele>304.0</ele><time>2026-03-29T14:56:36.881Z</time></trkpt><trkpt lat="43.617614797730866" lon="11.154616343183738"><ele>303.5</ele><time>2026-03-29T14:56:37.881Z</time></trkpt><trkpt lat="43.61766926403101" lon="11.154457722195694"><ele>303.0</ele><time>2026-03-29T14:56:38.881Z</time></trkpt><trkpt lat="43.617726150927275" lon="11.15430653040168"><ele>302.5</ele><time>2026-03-29T14:56:39.881Z</time></trkpt><trkpt lat="43.617780595456644" lon="11.154155210002775"><ele>302.0</ele><time>2026-03-29T14:56:40.881Z</time></trkpt><trkpt lat="43.61783716528996" lon="11.154014959525389"><ele>303.5</ele><time>2026-03-29T14:56:41.88Z</time></trkpt><trkpt lat="43.61789358746926" lon="11.153869175915762"><ele>305.0</ele><time>2026-03-29T14:56:42.88Z</time></trkpt><trkpt lat="43.61794550864173" lon="11.153723159206445"><ele>306.5</ele><time>2026-03-29T14:56:43.88Z</time></trkpt><trkpt lat="43.61799701934511" lon="11.15358126185665"><ele>308.0</ele><time>2026-03-29T14:56:44.88Z</time></trkpt><trkpt lat="43.61804768462107" lon="11.153445051613899"><ele>308.0</ele><time>2026-03-29T14:56:45.88Z</time></trkpt><trkpt lat="43.618097814732145" lon="11.15331936814763"><ele>308.0</ele><time>2026-03-29T14:56:46.88Z</time></trkpt><trkpt lat="43.61814800713744" lon="11.153185710975029"><ele>308.0</ele><time>2026-03-29T14:56:47.88Z</time></trkpt><trkpt lat="43.618192532491754" lon="11.153052070107869"><ele>308.0</ele><time>2026-03-29T14:56:48.88Z</time></trkpt><trkpt lat="43.61823766934077" lon="11.152919041870758"><ele>308.0</ele><time>2026-03-29T14:56:49.88Z</time></trkpt><trkpt lat="43.61827859555979" lon="11.152787291389927"><ele>308.6</ele><time>2026-03-29T14:56:50.88Z</time></trkpt><trkpt lat="43.6183123308766" lon="11.15265900451391"><ele>309.20000000000005</ele><time>2026-03-29T14:56:51.88Z</time></trkpt><trkpt lat="43.61834146739222" lon="11.152526371354758"><ele>309.8</ele><time>2026-03-29T14:56:52.88Z</time></trkpt><trkpt lat="43.618376534111086" lon="11.152364114362957"><ele>310.40000000000003</ele><time>2026-03-29T14:56:53.88Z</time></trkpt><trkpt lat="43.618411909418704" lon="11.15220861181739"><ele>311.0</ele><time>2026-03-29T14:56:54.88Z</time></trkpt><trkpt lat="43.618446084621716" lon="11.152046789945485"><ele>311.0</ele><time>2026-03-29T14:56:55.88Z</time></trkpt><trkpt lat="43.61847649571753" lon="11.151882973866801"><ele>311.0</ele><time>2026-03-29T14:56:56.88Z</time></trkpt><trkpt lat="43.61851259350225" lon="11.151720630561437"><ele>311.0</ele><time>2026-03-29T14:56:57.88Z</time></trkpt><trkpt lat="43.618550263455305" lon="11.151557187896415"><ele>311.0</ele><time>2026-03-29T14:56:58.88Z</time></trkpt><trkpt lat="43.618585361017615" lon="11.151395910694857"><ele>310.75</ele><time>2026-03-29T14:56:59.88Z</time></trkpt><trkpt lat="43.61864168336091" lon="11.151236984831716"><ele>310.5</ele><time>2026-03-29T14:57:00.88Z</time></trkpt><trkpt lat="43.61871085020464" lon="11.151097714840159"><ele>310.25</ele><time>2026-03-29T14:57:01.88Z</time></trkpt><trkpt lat="43.618803722680354" lon="11.15098218596619"><ele>310.0</ele><time>2026-03-29T14:57:02.88Z</time></trkpt><trkpt lat="43.61892336601982" lon="11.150855207792"><ele>310.0</ele><time>2026-03-29T14:57:03.88Z</time></trkpt><trkpt lat="43.61904978956501" lon="11.15071800434334"><ele>310.0</ele><time>2026-03-29T14:57:04.88Z</time></trkpt><trkpt lat="43.61916998547942" lon="11.150572747166914"><ele>310.0</ele><time>2026-03-29T14:57:05.88Z</time></trkpt><trkpt lat="43.61929130845982" lon="11.150418781477947"><ele>311.0</ele><time>2026-03-29T14:57:06.88Z</time></trkpt><trkpt lat="43.619424933415104" lon="11.15025938883409"><ele>312.0</ele><time>2026-03-29T14:57:07.88Z</time></trkpt><trkpt lat="43.6195558318186" lon="11.150102819950797"><ele>313.0</ele><time>2026-03-29T14:57:08.88Z</time></trkpt><trkpt lat="43.61969570237741" lon="11.149936006958555"><ele>312.66666666666663</ele><time>2026-03-29T14:57:09.88Z</time></trkpt><trkpt lat="43.619839938156716" lon="11.149760860165996"><ele>312.3333333333333</ele><time>2026-03-29T14:57:10.88Z</time></trkpt><trkpt lat="43.61997656451423" lon="11.149589408878272"><ele>312.0</ele><time>2026-03-29T14:57:11.88Z</time></trkpt><trkpt lat="43.62010687495088" lon="11.149422074069191"><ele>312.0</ele><time>2026-03-29T14:57:12.88Z</time></trkpt><trkpt lat="43.62023960592316" lon="11.149245813501006"><ele>312.0</ele><time>2026-03-29T14:57:13.88Z</time></trkpt><trkpt lat="43.620371696613894" lon="11.149076011417916"><ele>312.0</ele><time>2026-03-29T14:57:14.88Z</time></trkpt><trkpt lat="43.62050320356564" lon="11.14891180284653"><ele>312.6666666666667</ele><time>2026-03-29T14:57:15.88Z</time></trkpt><trkpt lat="43.62063333842382" lon="11.148749975578022"><ele>313.33333333333337</ele><time>2026-03-29T14:57:16.88Z</time></trkpt><trkpt lat="43.62076384470957" lon="11.148596541495358"><ele>314.0</ele><time>2026-03-29T14:57:17.88Z</time></trkpt><trkpt lat="43.62088759933231" lon="11.148450500934656"><ele>314.0</ele><time>2026-03-29T14:57:18.88Z</time></trkpt><trkpt lat="43.62100609374509" lon="11.148307985707492"><ele>314.0</ele><time>2026-03-29T14:57:19.88Z</time></trkpt><trkpt lat="43.62111656997039" lon="11.148173193412418"><ele>314.0</ele><time>2026-03-29T14:57:20.88Z</time></trkpt><trkpt lat="43.621219439184095" lon="11.148052293695656"><ele>314.0</ele><time>2026-03-29T14:57:21.88Z</time></trkpt><trkpt lat="43.621309293753534" lon="11.147937631108759"><ele>315.75</ele><time>2026-03-29T14:57:22.88Z</time></trkpt><trkpt lat="43.62138690692428" lon="11.147815161561818"><ele>317.5</ele><time>2026-03-29T14:57:23.88Z</time></trkpt><trkpt lat="43.621463274538634" lon="11.14768375674157"><ele>319.25</ele><time>2026-03-29T14:57:24.88Z</time></trkpt><trkpt lat="43.621537788256106" lon="11.147552632878199"><ele>321.0</ele><time>2026-03-29T14:57:25.88Z</time></trkpt><trkpt lat="43.62161397423857" lon="11.147415868648364"><ele>320.5</ele><time>2026-03-29T14:57:26.88Z</time></trkpt><trkpt lat="43.62169252144338" lon="11.147286402015839"><ele>320.0</ele><time>2026-03-29T14:57:27.88Z</time></trkpt><trkpt lat="43.62176630842062" lon="11.147153856302173"><ele>319.5</ele><time>2026-03-29T14:57:28.88Z</time></trkpt><trkpt lat="43.62183853452471" lon="11.1470202469736"><ele>319.0</ele><time>2026-03-29T14:57:29.88Z</time></trkpt><trkpt lat="43.62187608686825" lon="11.146893123789061"><ele>319.0</ele><time>2026-03-29T14:57:30.88Z</time></trkpt><trkpt lat="43.6219212112819" lon="11.146793068803863"><ele>319.0</ele><time>2026-03-29T14:57:31.88Z</time></trkpt><trkpt lat="43.621968519942804" lon="11.1466916395872"><ele>319.0</ele><time>2026-03-29T14:57:32.88Z</time></trkpt><trkpt lat="43.622018219755574" lon="11.146585959257333"><ele>319.0</ele><time>2026-03-29T14:57:33.88Z</time></trkpt><trkpt lat="43.62206693293455" lon="11.146482376565597"><ele>319.0</ele><time>2026-03-29T14:57:34.88Z</time></trkpt><trkpt lat="43.622122639972304" lon="11.146358136371544"><ele>319.25</ele><time>2026-03-29T14:57:35.88Z</time></trkpt><trkpt lat="43.622180416779216" lon="11.146233041836789"><ele>319.5</ele><time>2026-03-29T14:57:36.88Z</time></trkpt><trkpt lat="43.6222555263683" lon="11.146104706357457"><ele>319.75</ele><time>2026-03-29T14:57:37.88Z</time></trkpt><trkpt lat="43.62230751628902" lon="11.145944179666706"><ele>320.0</ele><time>2026-03-29T14:57:38.88Z</time></trkpt><trkpt lat="43.62237495566188" lon="11.145781240908903"><ele>319.25</ele><time>2026-03-29T14:57:39.88Z</time></trkpt><trkpt lat="43.6224483849468" lon="11.145626994225395"><ele>318.5</ele><time>2026-03-29T14:57:40.88Z</time></trkpt><trkpt lat="43.62251745435273" lon="11.145475895669852"><ele>317.75</ele><time>2026-03-29T14:57:41.88Z</time></trkpt><trkpt lat="43.622585486622654" lon="11.145327735916293"><ele>317.0</ele><time>2026-03-29T14:57:42.879Z</time></trkpt><trkpt lat="43.6226507421094" lon="11.145185717037858"><ele>317.0</ele><time>2026-03-29T14:57:43.879Z</time></trkpt><trkpt lat="43.6227146663464" lon="11.145043013120693"><ele>317.0</ele><time>2026-03-29T14:57:44.879Z</time></trkpt><trkpt lat="43.62278265879168" lon="11.144889701437918"><ele>317.0</ele><time>2026-03-29T14:57:45.879Z</time></trkpt><trkpt lat="43.62285442259303" lon="11.14473462440048"><ele>317.0</ele><time>2026-03-29T14:57:46.879Z</time></trkpt><trkpt lat="43.62292224193429" lon="11.144583364152417"><ele>316.25</ele><time>2026-03-29T14:57:47.879Z</time></trkpt><trkpt lat="43.62299125341664" lon="11.14444149131653"><ele>315.5</ele><time>2026-03-29T14:57:48.879Z</time></trkpt><trkpt lat="43.623069012771516" lon="11.144281253314057"><ele>314.75</ele><time>2026-03-29T14:57:49.879Z</time></trkpt><trkpt lat="43.6231470094807" lon="11.14412178216068"><ele>314.0</ele><time>2026-03-29T14:57:50.879Z</time></trkpt><trkpt lat="43.62322496982565" lon="11.143966489915199"><ele>314.0</ele><time>2026-03-29T14:57:51.879Z</time></trkpt><trkpt lat="43.623306705852585" lon="11.143803626886754"><ele>314.0</ele><time>2026-03-29T14:57:52.879Z</time></trkpt><trkpt lat="43.623387479858195" lon="11.143635855211821"><ele>314.0</ele><time>2026-03-29T14:57:53.879Z</time></trkpt><trkpt lat="43.623466357857765" lon="11.143475277622516"><ele>314.0</ele><time>2026-03-29T14:57:54.879Z</time></trkpt><trkpt lat="43.62353869401186" lon="11.143316265208918"><ele>312.5</ele><time>2026-03-29T14:57:55.879Z</time></trkpt><trkpt lat="43.623607709308814" lon="11.143164670589934"><ele>311.0</ele><time>2026-03-29T14:57:56.879Z</time></trkpt><trkpt lat="43.62367678715406" lon="11.14302273845756"><ele>309.5</ele><time>2026-03-29T14:57:57.879Z</time></trkpt><trkpt lat="43.623747724239145" lon="11.142894081420057"><ele>308.0</ele><time>2026-03-29T14:57:58.879Z</time></trkpt><trkpt lat="43.623912566167846" lon="11.142677542766705"><ele>307.5</ele><time>2026-03-29T14:58:00.879Z</time></trkpt><trkpt lat="43.623981575774536" lon="11.14260946312286"><ele>307.0</ele><time>2026-03-29T14:58:01.879Z</time></trkpt><trkpt lat="43.624042270899785" lon="11.142546474592006"><ele>306.5</ele><time>2026-03-29T14:58:02.879Z</time></trkpt><trkpt lat="43.624106418967735" lon="11.142478843041202"><ele>306.0</ele><time>2026-03-29T14:58:03.879Z</time></trkpt><trkpt lat="43.624167895783806" lon="11.142410144248037"><ele>305.5</ele><time>2026-03-29T14:58:04.879Z</time></trkpt><trkpt lat="43.624249453757855" lon="11.142324089362733"><ele>305.0</ele><time>2026-03-29T14:58:05.879Z</time></trkpt><trkpt lat="43.624325989202546" lon="11.142246094586993"><ele>304.25</ele><time>2026-03-29T14:58:06.879Z</time></trkpt><trkpt lat="43.624411601377815" lon="11.142155038269218"><ele>303.5</ele><time>2026-03-29T14:58:07.879Z</time></trkpt><trkpt lat="43.624527888439474" lon="11.142074950417449"><ele>302.75</ele><time>2026-03-29T14:58:08.879Z</time></trkpt><trkpt lat="43.624629164518524" lon="11.141981975921222"><ele>302.0</ele><time>2026-03-29T14:58:09.879Z</time></trkpt><trkpt lat="43.624726976863016" lon="11.14189612224549"><ele>302.0</ele><time>2026-03-29T14:58:10.879Z</time></trkpt><trkpt lat="43.62482898699465" lon="11.14181060650514"><ele>302.0</ele><time>2026-03-29T14:58:11.879Z</time></trkpt><trkpt lat="43.6249348796016" lon="11.14171450811949"><ele>302.0</ele><time>2026-03-29T14:58:12.879Z</time></trkpt><trkpt lat="43.625049795522415" lon="11.141612263657436"><ele>302.0</ele><time>2026-03-29T14:58:13.879Z</time></trkpt><trkpt lat="43.625170159101124" lon="11.141505104179739"><ele>302.75</ele><time>2026-03-29T14:58:14.879Z</time></trkpt><trkpt lat="43.62529483742001" lon="11.141405634543531"><ele>303.5</ele><time>2026-03-29T14:58:15.879Z</time></trkpt><trkpt lat="43.625404301829136" lon="11.141305284384067"><ele>304.25</ele><time>2026-03-29T14:58:16.879Z</time></trkpt><trkpt lat="43.62551680301376" lon="11.141206386421388"><ele>305.0</ele><time>2026-03-29T14:58:17.879Z</time></trkpt><trkpt lat="43.625621080098874" lon="11.141111747234552"><ele>306.75</ele><time>2026-03-29T14:58:18.879Z</time></trkpt><trkpt lat="43.62572754590982" lon="11.141020361316166"><ele>308.5</ele><time>2026-03-29T14:58:19.879Z</time></trkpt><trkpt lat="43.62583668620729" lon="11.140928750910438"><ele>310.25</ele><time>2026-03-29T14:58:20.879Z</time></trkpt><trkpt lat="43.62593653743395" lon="11.140842640284047"><ele>312.0</ele><time>2026-03-29T14:58:21.879Z</time></trkpt><trkpt lat="43.62603439372686" lon="11.140754238312597"><ele>312.0</ele><time>2026-03-29T14:58:22.879Z</time></trkpt><trkpt lat="43.62612531584995" lon="11.140668430811619"><ele>312.0</ele><time>2026-03-29T14:58:23.879Z</time></trkpt><trkpt lat="43.62621518397982" lon="11.140591853712268"><ele>312.0</ele><time>2026-03-29T14:58:24.879Z</time></trkpt><trkpt lat="43.62629785430842" lon="11.140523838055351"><ele>312.0</ele><time>2026-03-29T14:58:25.879Z</time></trkpt><trkpt lat="43.62637066792158" lon="11.140452457081594"><ele>312.0</ele><time>2026-03-29T14:58:26.879Z</time></trkpt><trkpt lat="43.62643490329574" lon="11.14037143205483"><ele>312.3333333333333</ele><time>2026-03-29T14:58:27.879Z</time></trkpt><trkpt lat="43.626482854726554" lon="11.140296978026612"><ele>312.6666666666667</ele><time>2026-03-29T14:58:28.88Z</time></trkpt><trkpt lat="43.62654372206952" lon="11.14021031776803"><ele>313.0</ele><time>2026-03-29T14:58:29.881Z</time></trkpt><trkpt lat="43.62660922622627" lon="11.14011820350835"><ele>313.33333333333337</ele><time>2026-03-29T14:58:30.881Z</time></trkpt><trkpt lat="43.626674613084894" lon="11.140018690572688"><ele>313.6666666666667</ele><time>2026-03-29T14:58:31.881Z</time></trkpt><trkpt lat="43.62674343271925" lon="11.139924588321023"><ele>314.0</ele><time>2026-03-29T14:58:32.88Z</time></trkpt><trkpt lat="43.62681938432932" lon="11.139829277507221"><ele>313.1666666666667</ele><time>2026-03-29T14:58:33.88Z</time></trkpt><trkpt lat="43.62688370950709" lon="11.139732547926496"><ele>312.33333333333337</ele><time>2026-03-29T14:58:34.881Z</time></trkpt><trkpt lat="43.62694316516821" lon="11.139641781416561"><ele>311.5</ele><time>2026-03-29T14:58:35.881Z</time></trkpt><trkpt lat="43.62700167463141" lon="11.139579985115432"><ele>310.6666666666667</ele><time>2026-03-29T14:58:36.881Z</time></trkpt><trkpt lat="43.6270514284516" lon="11.139508412852317"><ele>309.8333333333333</ele><time>2026-03-29T14:58:37.88Z</time></trkpt><trkpt lat="43.62710028256899" lon="11.139419212413664"><ele>309.0</ele><time>2026-03-29T14:58:39.881Z</time></trkpt><trkpt lat="43.627055982722204" lon="11.139104696776055"><ele>308.4</ele><time>2026-03-29T14:58:48.88Z</time></trkpt><trkpt lat="43.62697011209898" lon="11.139008744070512"><ele>307.79999999999995</ele><time>2026-03-29T14:58:49.88Z</time></trkpt><trkpt lat="43.626886869903764" lon="11.138916906818418"><ele>307.20000000000005</ele><time>2026-03-29T14:58:50.88Z</time></trkpt><trkpt lat="43.62681094005792" lon="11.138833019492212"><ele>306.6</ele><time>2026-03-29T14:58:51.88Z</time></trkpt><trkpt lat="43.62674000217034" lon="11.138732902298381"><ele>306.0</ele><time>2026-03-29T14:58:52.88Z</time></trkpt><trkpt lat="43.626669145433134" lon="11.138617641429322"><ele>306.0</ele><time>2026-03-29T14:58:53.88Z</time></trkpt><trkpt lat="43.62660835264061" lon="11.138500171433979"><ele>306.0</ele><time>2026-03-29T14:58:54.88Z</time></trkpt><trkpt lat="43.62654461889392" lon="11.138382590532975"><ele>306.0</ele><time>2026-03-29T14:58:55.88Z</time></trkpt><trkpt lat="43.626473357050465" lon="11.138269883721568"><ele>306.0</ele><time>2026-03-29T14:58:56.88Z</time></trkpt><trkpt lat="43.62638825671991" lon="11.138157931041254"><ele>306.0</ele><time>2026-03-29T14:58:57.88Z</time></trkpt><trkpt lat="43.626302245381396" lon="11.138040515557286"><ele>306.75</ele><time>2026-03-29T14:58:58.88Z</time></trkpt><trkpt lat="43.62621206151795" lon="11.137927354027946"><ele>307.5</ele><time>2026-03-29T14:58:59.88Z</time></trkpt><trkpt lat="43.62611208551124" lon="11.137826759754528"><ele>308.25</ele><time>2026-03-29T14:59:00.88Z</time></trkpt><trkpt lat="43.62601179255657" lon="11.137732677552172"><ele>309.0</ele><time>2026-03-29T14:59:01.88Z</time></trkpt><trkpt lat="43.62591206899928" lon="11.137660270456111"><ele>306.4</ele><time>2026-03-29T14:59:02.88Z</time></trkpt><trkpt lat="43.62581735446281" lon="11.137589872185032"><ele>303.79999999999995</ele><time>2026-03-29T14:59:03.88Z</time></trkpt><trkpt lat="43.62572081068457" lon="11.13752849947093"><ele>301.20000000000005</ele><time>2026-03-29T14:59:04.88Z</time></trkpt><trkpt lat="43.625631919592486" lon="11.137475419453581"><ele>298.6</ele><time>2026-03-29T14:59:05.88Z</time></trkpt><trkpt lat="43.625553143930865" lon="11.137421565968934"><ele>296.0</ele><time>2026-03-29T14:59:06.88Z</time></trkpt><trkpt lat="43.62548900865972" lon="11.137347526811052"><ele>296.0</ele><time>2026-03-29T14:59:07.88Z</time></trkpt><trkpt lat="43.625429291311946" lon="11.137260576408321"><ele>296.0</ele><time>2026-03-29T14:59:08.88Z</time></trkpt><trkpt lat="43.62539012977223" lon="11.137164381335605"><ele>296.0</ele><time>2026-03-29T14:59:09.88Z</time></trkpt><trkpt lat="43.62537073161058" lon="11.13706064122253"><ele>296.0</ele><time>2026-03-29T14:59:10.88Z</time></trkpt><trkpt lat="43.625355920351055" lon="11.136945698349345"><ele>296.0</ele><time>2026-03-29T14:59:11.88Z</time></trkpt><trkpt lat="43.62530997209586" lon="11.136832527346641"><ele>296.0</ele><time>2026-03-29T14:59:12.88Z</time></trkpt><trkpt lat="43.625265508473014" lon="11.136741120246247"><ele>292.6</ele><time>2026-03-29T14:59:13.88Z</time></trkpt><trkpt lat="43.62518491599413" lon="11.136690099867169"><ele>289.20000000000005</ele><time>2026-03-29T14:59:14.88Z</time></trkpt><trkpt lat="43.62509491485857" lon="11.136672458815868"><ele>285.79999999999995</ele><time>2026-03-29T14:59:15.88Z</time></trkpt><trkpt lat="43.62498807271723" lon="11.136662326496001"><ele>282.4</ele><time>2026-03-29T14:59:16.88Z</time></trkpt><trkpt lat="43.62487845836666" lon="11.136668060066844"><ele>279.0</ele><time>2026-03-29T14:59:17.88Z</time></trkpt><trkpt lat="43.62477188475255" lon="11.136668314814905"><ele>279.0</ele><time>2026-03-29T14:59:18.88Z</time></trkpt><trkpt lat="43.62466798189065" lon="11.13667451651584"><ele>279.0</ele><time>2026-03-29T14:59:19.88Z</time></trkpt><trkpt lat="43.62455467004342" lon="11.136679405041082"><ele>279.0</ele><time>2026-03-29T14:59:20.88Z</time></trkpt><trkpt lat="43.624445285259974" lon="11.136680625081366"><ele>279.0</ele><time>2026-03-29T14:59:21.88Z</time></trkpt><trkpt lat="43.624332373379936" lon="11.136672145681807"><ele>279.0</ele><time>2026-03-29T14:59:22.88Z</time></trkpt><trkpt lat="43.624208612946724" lon="11.136638124082246"><ele>278.5</ele><time>2026-03-29T14:59:23.88Z</time></trkpt><trkpt lat="43.62410404157177" lon="11.136588386348928"><ele>278.0</ele><time>2026-03-29T14:59:24.88Z</time></trkpt><trkpt lat="43.62399470361683" lon="11.136522845489104"><ele>277.5</ele><time>2026-03-29T14:59:25.88Z</time></trkpt><trkpt lat="43.62386367778195" lon="11.1364375961876"><ele>277.0</ele><time>2026-03-29T14:59:26.88Z</time></trkpt><trkpt lat="43.623749799080116" lon="11.13632916549953"><ele>271.75</ele><time>2026-03-29T14:59:27.88Z</time></trkpt><trkpt lat="43.62364191853132" lon="11.136210865352762"><ele>266.5</ele><time>2026-03-29T14:59:28.88Z</time></trkpt><trkpt lat="43.62353334822979" lon="11.136120216046939"><ele>261.25</ele><time>2026-03-29T14:59:29.88Z</time></trkpt><trkpt lat="43.62342030833436" lon="11.136022892842774"><ele>256.0</ele><time>2026-03-29T14:59:30.88Z</time></trkpt><trkpt lat="43.62331841173556" lon="11.13594569719628"><ele>256.0</ele><time>2026-03-29T14:59:31.88Z</time></trkpt><trkpt lat="43.62321017535907" lon="11.13586646487587"><ele>256.0</ele><time>2026-03-29T14:59:32.88Z</time></trkpt><trkpt lat="43.62311395146688" lon="11.135793301430551"><ele>256.0</ele><time>2026-03-29T14:59:33.88Z</time></trkpt><trkpt lat="43.62302524757134" lon="11.135698651678226"><ele>256.0</ele><time>2026-03-29T14:59:34.88Z</time></trkpt><trkpt lat="43.62293160901429" lon="11.135583375176285"><ele>258.0</ele><time>2026-03-29T14:59:35.88Z</time></trkpt><trkpt lat="43.62287017624121" lon="11.135456144950451"><ele>260.0</ele><time>2026-03-29T14:59:36.88Z</time></trkpt><trkpt lat="43.622820323113686" lon="11.135317177236626"><ele>262.0</ele><time>2026-03-29T14:59:37.88Z</time></trkpt><trkpt lat="43.622762949170436" lon="11.135164665615886"><ele>264.0</ele><time>2026-03-29T14:59:38.879Z</time></trkpt><trkpt lat="43.62270940575823" lon="11.135005096587268"><ele>260.0</ele><time>2026-03-29T14:59:39.879Z</time></trkpt><trkpt lat="43.62265974343614" lon="11.134845138641179"><ele>256.0</ele><time>2026-03-29T14:59:40.879Z</time></trkpt><trkpt lat="43.62261602280126" lon="11.13468198630389"><ele>252.0</ele><time>2026-03-29T14:59:41.879Z</time></trkpt><trkpt lat="43.62257005897327" lon="11.134538039617476"><ele>248.0</ele><time>2026-03-29T14:59:42.879Z</time></trkpt><trkpt lat="43.62251538615476" lon="11.134394682778954"><ele>248.0</ele><time>2026-03-29T14:59:43.879Z</time></trkpt><trkpt lat="43.62245802173941" lon="11.134252361136927"><ele>248.0</ele><time>2026-03-29T14:59:44.879Z</time></trkpt><trkpt lat="43.622378536385234" lon="11.134117940406009"><ele>248.0</ele><time>2026-03-29T14:59:45.879Z</time></trkpt><trkpt lat="43.62229914166915" lon="11.133991594543469"><ele>248.0</ele><time>2026-03-29T14:59:46.879Z</time></trkpt><trkpt lat="43.62222408819904" lon="11.133853664110738"><ele>249.25</ele><time>2026-03-29T14:59:47.879Z</time></trkpt><trkpt lat="43.62213773184581" lon="11.133735650569673"><ele>250.5</ele><time>2026-03-29T14:59:48.879Z</time></trkpt><trkpt lat="43.62205097890707" lon="11.133612671647"><ele>251.75</ele><time>2026-03-29T14:59:49.879Z</time></trkpt><trkpt lat="43.62196803905774" lon="11.133484282416745"><ele>253.0</ele><time>2026-03-29T14:59:50.879Z</time></trkpt><trkpt lat="43.621899663965344" lon="11.1333619011225"><ele>247.2</ele><time>2026-03-29T14:59:51.879Z</time></trkpt><trkpt lat="43.62182701186561" lon="11.13324847718597"><ele>241.4</ele><time>2026-03-29T14:59:52.879Z</time></trkpt><trkpt lat="43.621754377224185" lon="11.13314003848983"><ele>235.59999999999997</ele><time>2026-03-29T14:59:53.879Z</time></trkpt><trkpt lat="43.62169166713129" lon="11.133040165831343"><ele>229.79999999999998</ele><time>2026-03-29T14:59:54.879Z</time></trkpt><trkpt lat="43.62163312531991" lon="11.132955048768515"><ele>224.0</ele><time>2026-03-29T14:59:55.879Z</time></trkpt><trkpt lat="43.62157248125616" lon="11.132875154854343"><ele>223.0</ele><time>2026-03-29T14:59:56.879Z</time></trkpt><trkpt lat="43.62149749881804" lon="11.132835649591694"><ele>221.99999999999997</ele><time>2026-03-29T14:59:57.879Z</time></trkpt><trkpt lat="43.62139369662752" lon="11.132846251853858"><ele>220.99999999999997</ele><time>2026-03-29T14:59:58.879Z</time></trkpt><trkpt lat="43.6212993060851" lon="11.132863652731093"><ele>220.0</ele><time>2026-03-29T14:59:59.879Z</time></trkpt><trkpt lat="43.62119431852637" lon="11.132931851301194"><ele>219.0</ele><time>2026-03-29T15:00:00.879Z</time></trkpt><trkpt lat="43.62110247038185" lon="11.13299903382368"><ele>216.0</ele><time>2026-03-29T15:00:01.879Z</time></trkpt><trkpt lat="43.621000318071616" lon="11.133068162418978"><ele>213.0</ele><time>2026-03-29T15:00:02.879Z</time></trkpt><trkpt lat="43.62088836439821" lon="11.133149062007531"><ele>210.0</ele><time>2026-03-29T15:00:03.879Z</time></trkpt><trkpt lat="43.620773217763706" lon="11.133234653655151"><ele>207.0</ele><time>2026-03-29T15:00:04.879Z</time></trkpt><trkpt lat="43.62065651109094" lon="11.13332307853867"><ele>207.0</ele><time>2026-03-29T15:00:05.879Z</time></trkpt><trkpt lat="43.620542017127605" lon="11.133421996868316"><ele>207.0</ele><time>2026-03-29T15:00:06.879Z</time></trkpt><trkpt lat="43.62043573146637" lon="11.13349678219771"><ele>207.0</ele><time>2026-03-29T15:00:07.879Z</time></trkpt><trkpt lat="43.62032628177026" lon="11.13358015547469"><ele>207.0</ele><time>2026-03-29T15:00:08.879Z</time></trkpt><trkpt lat="43.62021874404866" lon="11.13367293697266"><ele>203.75</ele><time>2026-03-29T15:00:09.879Z</time></trkpt><trkpt lat="43.620110238250895" lon="11.133749505298441"><ele>200.5</ele><time>2026-03-29T15:00:10.879Z</time></trkpt><trkpt lat="43.62000496440235" lon="11.13382401418427"><ele>197.25</ele><time>2026-03-29T15:00:11.879Z</time></trkpt><trkpt lat="43.61989755871053" lon="11.133902655717526"><ele>194.0</ele><time>2026-03-29T15:00:12.879Z</time></trkpt><trkpt lat="43.61979107256783" lon="11.133936317395717"><ele>194.0</ele><time>2026-03-29T15:00:13.879Z</time></trkpt><trkpt lat="43.619672195452075" lon="11.13392432039633"><ele>194.0</ele><time>2026-03-29T15:00:14.879Z</time></trkpt><trkpt lat="43.61954991428184" lon="11.133854616694551"><ele>194.0</ele><time>2026-03-29T15:00:15.879Z</time></trkpt><trkpt lat="43.61943320438993" lon="11.13376213061949"><ele>194.0</ele><time>2026-03-29T15:00:16.879Z</time></trkpt><trkpt lat="43.61930525266219" lon="11.133673643229258"><ele>191.75</ele><time>2026-03-29T15:00:17.879Z</time></trkpt><trkpt lat="43.619183715121615" lon="11.133588068027569"><ele>189.5</ele><time>2026-03-29T15:00:18.879Z</time></trkpt><trkpt lat="43.61906444624035" lon="11.133501775820484"><ele>187.25</ele><time>2026-03-29T15:00:19.879Z</time></trkpt><trkpt lat="43.61893923929828" lon="11.133426047896316"><ele>185.0</ele><time>2026-03-29T15:00:20.879Z</time></trkpt><trkpt lat="43.618818238551356" lon="11.133354846964536"><ele>185.0</ele><time>2026-03-29T15:00:21.879Z</time></trkpt><trkpt lat="43.6186986975357" lon="11.13331103007534"><ele>185.0</ele><time>2026-03-29T15:00:22.879Z</time></trkpt><trkpt lat="43.61858025420456" lon="11.13328277769024"><ele>185.0</ele><time>2026-03-29T15:00:23.879Z</time></trkpt><trkpt lat="43.618463048153316" lon="11.133285033148482"><ele>185.0</ele><time>2026-03-29T15:00:24.879Z</time></trkpt><trkpt lat="43.61836351363999" lon="11.133286768433797"><ele>184.6</ele><time>2026-03-29T15:00:25.879Z</time></trkpt><trkpt lat="43.6182626779452" lon="11.133308833785113"><ele>184.2</ele><time>2026-03-29T15:00:26.879Z</time></trkpt><trkpt lat="43.61817454560044" lon="11.13334876816745"><ele>183.8</ele><time>2026-03-29T15:00:27.879Z</time></trkpt><trkpt lat="43.61810325932751" lon="11.133433519219656"><ele>183.4</ele><time>2026-03-29T15:00:28.879Z</time></trkpt><trkpt lat="43.61804260458042" lon="11.133549561044815"><ele>183.0</ele><time>2026-03-29T15:00:29.879Z</time></trkpt><trkpt lat="43.61798151788339" lon="11.13367311117662"><ele>183.0</ele><time>2026-03-29T15:00:30.879Z</time></trkpt><trkpt lat="43.61795230576168" lon="11.13383163497329"><ele>183.0</ele><time>2026-03-29T15:00:31.879Z</time></trkpt><trkpt lat="43.61793477349436" lon="11.133988665108458"><ele>183.0</ele><time>2026-03-29T15:00:32.879Z</time></trkpt><trkpt lat="43.61794072364718" lon="11.134158763492131"><ele>183.0</ele><time>2026-03-29T15:00:33.879Z</time></trkpt><trkpt lat="43.6179198597339" lon="11.134322384275531"><ele>183.0</ele><time>2026-03-29T15:00:34.881Z</time></trkpt><trkpt lat="43.617914112590434" lon="11.134471780463254"><ele>183.0</ele><time>2026-03-29T15:00:35.881Z</time></trkpt><trkpt lat="43.617908514083105" lon="11.134619871211612"><ele>183.0</ele><time>2026-03-29T15:00:36.881Z</time></trkpt><trkpt lat="43.61790392056865" lon="11.134760444280243"><ele>183.0</ele><time>2026-03-29T15:00:37.881Z</time></trkpt><trkpt lat="43.61789849313646" lon="11.134887025488649"><ele>183.0</ele><time>2026-03-29T15:00:38.881Z</time></trkpt><trkpt lat="43.617888506563986" lon="11.135004717428089"><ele>183.0</ele><time>2026-03-29T15:00:39.881Z</time></trkpt><trkpt lat="43.617872882058855" lon="11.135102290834894"><ele>183.0</ele><time>2026-03-29T15:00:40.881Z</time></trkpt><trkpt lat="43.617819756329816" lon="11.135169798369228"><ele>183.0</ele><time>2026-03-29T15:00:41.881Z</time></trkpt><trkpt lat="43.61775161579595" lon="11.135209284321089"><ele>183.0</ele><time>2026-03-29T15:00:42.881Z</time></trkpt><trkpt lat="43.61768286306022" lon="11.135214544488774"><ele>183.0</ele><time>2026-03-29T15:00:43.881Z</time></trkpt><trkpt lat="43.617612529154115" lon="11.135170488679721"><ele>183.0</ele><time>2026-03-29T15:00:44.881Z</time></trkpt><trkpt lat="43.6175507916721" lon="11.135097189599813"><ele>183.0</ele><time>2026-03-29T15:00:45.881Z</time></trkpt><trkpt lat="43.617483879098856" lon="11.135022266344972"><ele>183.0</ele><time>2026-03-29T15:00:46.881Z</time></trkpt><trkpt lat="43.617420566942485" lon="11.134964738840079"><ele>183.0</ele><time>2026-03-29T15:00:47.881Z</time></trkpt><trkpt lat="43.61735988167094" lon="11.134915258052965"><ele>183.0</ele><time>2026-03-29T15:00:48.881Z</time></trkpt><trkpt lat="43.61730292252151" lon="11.134875561288654"><ele>183.0</ele><time>2026-03-29T15:00:49.881Z</time></trkpt><trkpt lat="43.61725350348789" lon="11.134806740339771"><ele>183.0</ele><time>2026-03-29T15:00:52.881Z</time></trkpt><trkpt lat="43.61724742735472" lon="11.134708789125773"><ele>183.0</ele><time>2026-03-29T15:00:59.881Z</time></trkpt><trkpt lat="43.61721811010939" lon="11.134630262345517"><ele>183.0</ele><time>2026-03-29T15:01:33.88Z</time></trkpt><trkpt lat="43.61714702739232" lon="11.134645682503756"><ele>183.0</ele><time>2026-03-29T15:02:23.879Z</time></trkpt><trkpt lat="43.61705583025958" lon="11.13459440734636"><ele>183.0</ele><time>2026-03-29T15:02:26.879Z</time></trkpt><trkpt lat="43.61698878146271" lon="11.134640861717513"><ele>183.0</ele><time>2026-03-29T15:02:30.879Z</time></trkpt><trkpt lat="43.617051833757" lon="11.134748686290948"><ele>183.0</ele><time>2026-03-29T15:02:34.879Z</time></trkpt><trkpt lat="43.61714745937609" lon="11.134805877291386"><ele>183.0</ele><time>2026-03-29T15:02:36.879Z</time></trkpt><trkpt lat="43.61724990254491" lon="11.134871738775727"><ele>182.66666666666666</ele><time>2026-03-29T15:02:38.879Z</time></trkpt><trkpt lat="43.61731057354937" lon="11.134916934606705"><ele>182.33333333333334</ele><time>2026-03-29T15:02:39.881Z</time></trkpt><trkpt lat="43.61737211491365" lon="11.134959501226842"><ele>182.0</ele><time>2026-03-29T15:02:40.882Z</time></trkpt><trkpt lat="43.617458775649006" lon="11.135031885495868"><ele>181.66666666666669</ele><time>2026-03-29T15:02:42.881Z</time></trkpt><trkpt lat="43.61752776656464" lon="11.135103791840171"><ele>181.33333333333334</ele><time>2026-03-29T15:02:44.881Z</time></trkpt><trkpt lat="43.617585444758845" lon="11.135162672603196"><ele>181.0</ele><time>2026-03-29T15:02:45.882Z</time></trkpt><trkpt lat="43.6176563283493" lon="11.135224590250564"><ele>181.0</ele><time>2026-03-29T15:02:46.882Z</time></trkpt><trkpt lat="43.6177168408355" lon="11.135253579297055"><ele>181.0</ele><time>2026-03-29T15:02:47.882Z</time></trkpt><trkpt lat="43.61781716818863" lon="11.135210939742686"><ele>181.0</ele><time>2026-03-29T15:02:49.881Z</time></trkpt><trkpt lat="43.61788162880818" lon="11.13513897098321"><ele>181.0</ele><time>2026-03-29T15:02:50.881Z</time></trkpt><trkpt lat="43.617927098139006" lon="11.135033809740602"><ele>181.0</ele><time>2026-03-29T15:02:51.882Z</time></trkpt><trkpt lat="43.61793804879788" lon="11.134909954764487"><ele>181.0</ele><time>2026-03-29T15:02:52.881Z</time></trkpt><trkpt lat="43.61793795879233" lon="11.134773168832352"><ele>181.5</ele><time>2026-03-29T15:02:53.881Z</time></trkpt><trkpt lat="43.61793934733518" lon="11.134612174357175"><ele>182.0</ele><time>2026-03-29T15:02:54.881Z</time></trkpt><trkpt lat="43.61794336551164" lon="11.134434834985925"><ele>182.5</ele><time>2026-03-29T15:02:55.881Z</time></trkpt><trkpt lat="43.61794538250892" lon="11.134250975879425"><ele>183.0</ele><time>2026-03-29T15:02:56.881Z</time></trkpt><trkpt lat="43.617961523782576" lon="11.134040372714544"><ele>183.0</ele><time>2026-03-29T15:02:57.881Z</time></trkpt><trkpt lat="43.61797713805073" lon="11.133860491589363"><ele>183.0</ele><time>2026-03-29T15:02:58.881Z</time></trkpt><trkpt lat="43.61799918352833" lon="11.133717739875141"><ele>183.0</ele><time>2026-03-29T15:02:59.881Z</time></trkpt><trkpt lat="43.618033166637666" lon="11.13360438295749"><ele>183.0</ele><time>2026-03-29T15:03:00.881Z</time></trkpt><trkpt lat="43.618073499608165" lon="11.133511848892162"><ele>183.0</ele><time>2026-03-29T15:03:01.881Z</time></trkpt><trkpt lat="43.61811621897975" lon="11.133434562321426"><ele>183.0</ele><time>2026-03-29T15:03:02.881Z</time></trkpt><trkpt lat="43.618159274296" lon="11.133367503561043"><ele>183.0</ele><time>2026-03-29T15:03:03.881Z</time></trkpt><trkpt lat="43.61817876371614" lon="11.133279901849878"><ele>183.0</ele><time>2026-03-29T15:03:04.881Z</time></trkpt><trkpt lat="43.618163568035136" lon="11.13316931989241"><ele>183.0</ele><time>2026-03-29T15:03:05.881Z</time></trkpt><trkpt lat="43.61812264545778" lon="11.13305000404121"><ele>183.0</ele><time>2026-03-29T15:03:06.881Z</time></trkpt><trkpt lat="43.618068703212714" lon="11.132919678132984"><ele>183.0</ele><time>2026-03-29T15:03:07.881Z</time></trkpt><trkpt lat="43.618019915072296" lon="11.132791994587237"><ele>182.0</ele><time>2026-03-29T15:03:08.881Z</time></trkpt><trkpt lat="43.61799167482384" lon="11.132598927346669"><ele>181.0</ele><time>2026-03-29T15:03:09.881Z</time></trkpt><trkpt lat="43.617977415405186" lon="11.132395157423515"><ele>180.0</ele><time>2026-03-29T15:03:10.881Z</time></trkpt><trkpt lat="43.61796407428809" lon="11.13220996306748"><ele>179.0</ele><time>2026-03-29T15:03:11.881Z</time></trkpt><trkpt lat="43.61796445903265" lon="11.132029900078598"><ele>179.0</ele><time>2026-03-29T15:03:12.881Z</time></trkpt><trkpt lat="43.617975693314996" lon="11.131839241941993"><ele>179.0</ele><time>2026-03-29T15:03:13.881Z</time></trkpt><trkpt lat="43.61799358124999" lon="11.131627884251298"><ele>179.0</ele><time>2026-03-29T15:03:14.881Z</time></trkpt><trkpt lat="43.618034856521575" lon="11.131388855815924"><ele>179.0</ele><time>2026-03-29T15:03:15.881Z</time></trkpt><trkpt lat="43.61811126056478" lon="11.131128950378324"><ele>179.0</ele><time>2026-03-29T15:03:16.881Z</time></trkpt><trkpt lat="43.61820547216552" lon="11.130861541718826"><ele>179.0</ele><time>2026-03-29T15:03:17.881Z</time></trkpt><trkpt lat="43.61831906430993" lon="11.130601770145626"><ele>179.33333333333331</ele><time>2026-03-29T15:03:18.881Z</time></trkpt><trkpt lat="43.61844470682724" lon="11.130375916337213"><ele>179.66666666666666</ele><time>2026-03-29T15:03:19.881Z</time></trkpt><trkpt lat="43.6185782329465" lon="11.130156604150583"><ele>180.0</ele><time>2026-03-29T15:03:20.881Z</time></trkpt><trkpt lat="43.61871230044648" lon="11.129935427365737"><ele>178.66666666666666</ele><time>2026-03-29T15:03:21.881Z</time></trkpt><trkpt lat="43.61885184713228" lon="11.129719332071394"><ele>177.33333333333331</ele><time>2026-03-29T15:03:22.881Z</time></trkpt><trkpt lat="43.61899250478281" lon="11.12949454198577"><ele>176.0</ele><time>2026-03-29T15:03:23.881Z</time></trkpt><trkpt lat="43.619122790675895" lon="11.129279782402154"><ele>176.0</ele><time>2026-03-29T15:03:24.881Z</time></trkpt><trkpt lat="43.61925190272113" lon="11.129083734372214"><ele>176.0</ele><time>2026-03-29T15:03:25.881Z</time></trkpt><trkpt lat="43.61940141679999" lon="11.128876967484988"><ele>176.0</ele><time>2026-03-29T15:03:26.881Z</time></trkpt><trkpt lat="43.61956295255275" lon="11.12868587225489"><ele>175.66666666666666</ele><time>2026-03-29T15:03:27.881Z</time></trkpt><trkpt lat="43.61972811511567" lon="11.128513707279508"><ele>175.33333333333334</ele><time>2026-03-29T15:03:28.881Z</time></trkpt><trkpt lat="43.61990174096371" lon="11.12834205788016"><ele>175.0</ele><time>2026-03-29T15:03:29.881Z</time></trkpt><trkpt lat="43.62007550109091" lon="11.128193860717984"><ele>175.33333333333334</ele><time>2026-03-29T15:03:30.881Z</time></trkpt><trkpt lat="43.62025783179801" lon="11.128058409073358"><ele>175.66666666666666</ele><time>2026-03-29T15:03:31.881Z</time></trkpt><trkpt lat="43.620433287060095" lon="11.127935076051019"><ele>176.0</ele><time>2026-03-29T15:03:32.881Z</time></trkpt><trkpt lat="43.62061816420246" lon="11.12783118046589"><ele>176.0</ele><time>2026-03-29T15:03:33.881Z</time></trkpt><trkpt lat="43.620806281082146" lon="11.127737644539362"><ele>176.0</ele><time>2026-03-29T15:03:34.881Z</time></trkpt><trkpt lat="43.62099867876799" lon="11.127649071799304"><ele>176.0</ele><time>2026-03-29T15:03:35.881Z</time></trkpt><trkpt lat="43.62119272599595" lon="11.127569093758341"><ele>175.66666666666666</ele><time>2026-03-29T15:03:36.881Z</time></trkpt><trkpt lat="43.62139750282045" lon="11.12748297800351"><ele>175.33333333333334</ele><time>2026-03-29T15:03:37.881Z</time></trkpt><trkpt lat="43.62160111611449" lon="11.127397046271348"><ele>175.0</ele><time>2026-03-29T15:03:38.881Z</time></trkpt><trkpt lat="43.621803861679226" lon="11.12730693357818"><ele>173.66666666666669</ele><time>2026-03-29T15:03:39.881Z</time></trkpt><trkpt lat="43.62200989847599" lon="11.127218885300556"><ele>172.33333333333334</ele><time>2026-03-29T15:03:40.881Z</time></trkpt><trkpt lat="43.62221257534468" lon="11.12712195348275"><ele>171.0</ele><time>2026-03-29T15:03:41.881Z</time></trkpt><trkpt lat="43.622417517193135" lon="11.126987985274923"><ele>171.0</ele><time>2026-03-29T15:03:42.881Z</time></trkpt><trkpt lat="43.62261654532107" lon="11.126838761780176"><ele>171.0</ele><time>2026-03-29T15:03:43.881Z</time></trkpt><trkpt lat="43.62280857018823" lon="11.126661200346119"><ele>172.0</ele><time>2026-03-29T15:03:44.881Z</time></trkpt><trkpt lat="43.62298678310613" lon="11.126457763392308"><ele>173.0</ele><time>2026-03-29T15:03:45.881Z</time></trkpt><trkpt lat="43.62315717594103" lon="11.126238316666292"><ele>173.0</ele><time>2026-03-29T15:03:46.881Z</time></trkpt><trkpt lat="43.62330966035102" lon="11.125998616344752"><ele>173.0</ele><time>2026-03-29T15:03:47.88Z</time></trkpt><trkpt lat="43.62345848057786" lon="11.125741336361022"><ele>173.0</ele><time>2026-03-29T15:03:48.88Z</time></trkpt><trkpt lat="43.623595611654714" lon="11.125481989624797"><ele>173.0</ele><time>2026-03-29T15:03:49.88Z</time></trkpt><trkpt lat="43.62373619237826" lon="11.125224173900728"><ele>173.5</ele><time>2026-03-29T15:03:50.88Z</time></trkpt><trkpt lat="43.62388591388306" lon="11.124964544337578"><ele>174.0</ele><time>2026-03-29T15:03:51.88Z</time></trkpt><trkpt lat="43.62403083473532" lon="11.124712986534544"><ele>174.0</ele><time>2026-03-29T15:03:52.88Z</time></trkpt><trkpt lat="43.624184196943865" lon="11.124454438207813"><ele>174.0</ele><time>2026-03-29T15:03:53.88Z</time></trkpt><trkpt lat="43.624333650097164" lon="11.1241933633062"><ele>173.5</ele><time>2026-03-29T15:03:54.88Z</time></trkpt><trkpt lat="43.62448691496101" lon="11.123924649226787"><ele>173.0</ele><time>2026-03-29T15:03:55.88Z</time></trkpt><trkpt lat="43.624641282868176" lon="11.123654966251639"><ele>173.0</ele><time>2026-03-29T15:03:56.88Z</time></trkpt><trkpt lat="43.62479241332932" lon="11.123390581244568"><ele>173.0</ele><time>2026-03-29T15:03:57.88Z</time></trkpt><trkpt lat="43.62494600795914" lon="11.123116227922326"><ele>169.5</ele><time>2026-03-29T15:03:58.88Z</time></trkpt><trkpt lat="43.625100544495695" lon="11.122836877459777"><ele>166.0</ele><time>2026-03-29T15:03:59.88Z</time></trkpt><trkpt lat="43.6252574383419" lon="11.122563844648298"><ele>167.0</ele><time>2026-03-29T15:04:00.88Z</time></trkpt><trkpt lat="43.625413931111694" lon="11.122303761120168"><ele>168.0</ele><time>2026-03-29T15:04:01.88Z</time></trkpt><trkpt lat="43.625571454540186" lon="11.12204020258582"><ele>168.0</ele><time>2026-03-29T15:04:02.88Z</time></trkpt><trkpt lat="43.62573279554872" lon="11.121787921396296"><ele>168.0</ele><time>2026-03-29T15:04:03.88Z</time></trkpt><trkpt lat="43.6259011807146" lon="11.121540648339195"><ele>168.0</ele><time>2026-03-29T15:04:04.88Z</time></trkpt><trkpt lat="43.626078033285836" lon="11.12130378844591"><ele>168.0</ele><time>2026-03-29T15:04:05.88Z</time></trkpt><trkpt lat="43.62625300052884" lon="11.121062173603864"><ele>168.0</ele><time>2026-03-29T15:04:06.88Z</time></trkpt><trkpt lat="43.626428874914616" lon="11.1208242902809"><ele>168.0</ele><time>2026-03-29T15:04:07.88Z</time></trkpt><trkpt lat="43.626604790214365" lon="11.120569650490783"><ele>166.5</ele><time>2026-03-29T15:04:08.88Z</time></trkpt><trkpt lat="43.62678170239053" lon="11.120317017411638"><ele>165.0</ele><time>2026-03-29T15:04:09.88Z</time></trkpt><trkpt lat="43.62695670908997" lon="11.12006592795145"><ele>165.0</ele><time>2026-03-29T15:04:10.88Z</time></trkpt><trkpt lat="43.62713674580119" lon="11.119812358462134"><ele>165.0</ele><time>2026-03-29T15:04:11.88Z</time></trkpt><trkpt lat="43.627321780694864" lon="11.119552386786602"><ele>165.0</ele><time>2026-03-29T15:04:12.88Z</time></trkpt><trkpt lat="43.62749682830259" lon="11.119311650906903"><ele>165.0</ele><time>2026-03-29T15:04:13.88Z</time></trkpt><trkpt lat="43.627680107269924" lon="11.119047607718342"><ele>165.0</ele><time>2026-03-29T15:04:14.88Z</time></trkpt><trkpt lat="43.62786440022361" lon="11.118811632508704"><ele>165.0</ele><time>2026-03-29T15:04:15.88Z</time></trkpt><trkpt lat="43.628050873019085" lon="11.118548866235395"><ele>165.0</ele><time>2026-03-29T15:04:16.88Z</time></trkpt><trkpt lat="43.62822442751023" lon="11.118296154839285"><ele>165.0</ele><time>2026-03-29T15:04:17.88Z</time></trkpt><trkpt lat="43.628408057778685" lon="11.118042586675548"><ele>165.0</ele><time>2026-03-29T15:04:18.88Z</time></trkpt><trkpt lat="43.62858719249786" lon="11.117786651682614"><ele>165.0</ele><time>2026-03-29T15:04:19.88Z</time></trkpt><trkpt lat="43.6287730474354" lon="11.117531540286691"><ele>161.5</ele><time>2026-03-29T15:04:20.88Z</time></trkpt><trkpt lat="43.62895509466278" lon="11.117273506400576"><ele>158.0</ele><time>2026-03-29T15:04:21.88Z</time></trkpt><trkpt lat="43.62913691695523" lon="11.117024199066051"><ele>158.0</ele><time>2026-03-29T15:04:22.88Z</time></trkpt><trkpt lat="43.62931942341043" lon="11.116757207449085"><ele>158.0</ele><time>2026-03-29T15:04:23.88Z</time></trkpt><trkpt lat="43.6295043313698" lon="11.11648666841937"><ele>158.0</ele><time>2026-03-29T15:04:24.88Z</time></trkpt><trkpt lat="43.629690173917105" lon="11.116226451477974"><ele>158.0</ele><time>2026-03-29T15:04:25.88Z</time></trkpt><trkpt lat="43.62988450600802" lon="11.115952125253315"><ele>156.5</ele><time>2026-03-29T15:04:26.88Z</time></trkpt><trkpt lat="43.630084372534114" lon="11.115677680908409"><ele>155.0</ele><time>2026-03-29T15:04:27.88Z</time></trkpt><trkpt lat="43.63028367422951" lon="11.11540926904597"><ele>154.5</ele><time>2026-03-29T15:04:28.88Z</time></trkpt><trkpt lat="43.630490016926494" lon="11.11514654096735"><ele>154.0</ele><time>2026-03-29T15:04:29.88Z</time></trkpt><trkpt lat="43.630690878904545" lon="11.114868496411198"><ele>154.0</ele><time>2026-03-29T15:04:30.88Z</time></trkpt><trkpt lat="43.63089104672087" lon="11.114615115902511"><ele>154.0</ele><time>2026-03-29T15:04:31.88Z</time></trkpt><trkpt lat="43.631100282367996" lon="11.114350121118031"><ele>153.0</ele><time>2026-03-29T15:04:32.88Z</time></trkpt><trkpt lat="43.6313028083291" lon="11.114086643893026"><ele>152.0</ele><time>2026-03-29T15:04:33.88Z</time></trkpt><trkpt lat="43.63150442761164" lon="11.11382441767089"><ele>152.0</ele><time>2026-03-29T15:04:34.88Z</time></trkpt><trkpt lat="43.631706242806224" lon="11.113556485706154"><ele>152.0</ele><time>2026-03-29T15:04:35.88Z</time></trkpt><trkpt lat="43.631906907002076" lon="11.113289976604023"><ele>152.0</ele><time>2026-03-29T15:04:36.88Z</time></trkpt><trkpt lat="43.63210647125347" lon="11.113028488284142"><ele>152.0</ele><time>2026-03-29T15:04:37.88Z</time></trkpt><trkpt lat="43.63230977618264" lon="11.112768959815694"><ele>152.0</ele><time>2026-03-29T15:04:38.88Z</time></trkpt><trkpt lat="43.63252022870529" lon="11.112495092389786"><ele>152.0</ele><time>2026-03-29T15:04:39.879Z</time></trkpt><trkpt lat="43.63273166054013" lon="11.112220568600387"><ele>153.0</ele><time>2026-03-29T15:04:40.879Z</time></trkpt><trkpt lat="43.632927164828885" lon="11.11196905090507"><ele>154.0</ele><time>2026-03-29T15:04:41.879Z</time></trkpt><trkpt lat="43.63309669588896" lon="11.111761274741719"><ele>153.0</ele><time>2026-03-29T15:04:42.879Z</time></trkpt><trkpt lat="43.63325054627355" lon="11.111565916537227"><ele>152.0</ele><time>2026-03-29T15:04:43.879Z</time></trkpt><trkpt lat="43.63339450084288" lon="11.111379862373113"><ele>151.0</ele><time>2026-03-29T15:04:44.879Z</time></trkpt><trkpt lat="43.633527682152625" lon="11.111201654301368"><ele>151.66666666666669</ele><time>2026-03-29T15:04:45.881Z</time></trkpt><trkpt lat="43.63366091903835" lon="11.111027982430194"><ele>152.33333333333334</ele><time>2026-03-29T15:04:46.881Z</time></trkpt><trkpt lat="43.63379407281577" lon="11.11085077510706"><ele>153.0</ele><time>2026-03-29T15:04:47.881Z</time></trkpt><trkpt lat="43.63394463091302" lon="11.110661800034102"><ele>150.0</ele><time>2026-03-29T15:04:48.881Z</time></trkpt><trkpt lat="43.634099467657144" lon="11.110448629897496"><ele>147.0</ele><time>2026-03-29T15:04:49.881Z</time></trkpt><trkpt lat="43.63426871785276" lon="11.11022315662203"><ele>147.0</ele><time>2026-03-29T15:04:50.881Z</time></trkpt><trkpt lat="43.634440623028645" lon="11.109993115392951"><ele>147.0</ele><time>2026-03-29T15:04:51.882Z</time></trkpt><trkpt lat="43.63461504285507" lon="11.10976217802045"><ele>147.5</ele><time>2026-03-29T15:04:52.882Z</time></trkpt><trkpt lat="43.634790537128175" lon="11.109535921471124"><ele>148.0</ele><time>2026-03-29T15:04:53.882Z</time></trkpt><trkpt lat="43.63496315417109" lon="11.109318791551457"><ele>148.0</ele><time>2026-03-29T15:04:54.881Z</time></trkpt><trkpt lat="43.635128574261266" lon="11.109100203676922"><ele>148.0</ele><time>2026-03-29T15:04:55.881Z</time></trkpt><trkpt lat="43.63529882865097" lon="11.10887399988915"><ele>148.33333333333334</ele><time>2026-03-29T15:04:56.881Z</time></trkpt><trkpt lat="43.6354604693414" lon="11.108661016779655"><ele>148.66666666666666</ele><time>2026-03-29T15:04:57.881Z</time></trkpt><trkpt lat="43.635617948492815" lon="11.10845501267167"><ele>149.0</ele><time>2026-03-29T15:04:58.881Z</time></trkpt><trkpt lat="43.63578121003915" lon="11.108250540081997"><ele>146.0</ele><time>2026-03-29T15:04:59.881Z</time></trkpt><trkpt lat="43.63594296012099" lon="11.108037911846717"><ele>143.0</ele><time>2026-03-29T15:05:00.881Z</time></trkpt><trkpt lat="43.6361115716855" lon="11.107823059481063"><ele>141.5</ele><time>2026-03-29T15:05:01.881Z</time></trkpt><trkpt lat="43.636288587524064" lon="11.10759326330166"><ele>140.0</ele><time>2026-03-29T15:05:02.881Z</time></trkpt><trkpt lat="43.63646201907913" lon="11.107366211077146"><ele>140.0</ele><time>2026-03-29T15:05:03.881Z</time></trkpt><trkpt lat="43.63663713361612" lon="11.107137764382863"><ele>140.0</ele><time>2026-03-29T15:05:04.881Z</time></trkpt><trkpt lat="43.63682171990429" lon="11.106898749349707"><ele>139.5</ele><time>2026-03-29T15:05:05.881Z</time></trkpt><trkpt lat="43.63700230116011" lon="11.106670705751087"><ele>139.0</ele><time>2026-03-29T15:05:06.881Z</time></trkpt><trkpt lat="43.63718440775238" lon="11.10643976203464"><ele>139.0</ele><time>2026-03-29T15:05:07.881Z</time></trkpt><trkpt lat="43.63736165539141" lon="11.106207435675927"><ele>139.0</ele><time>2026-03-29T15:05:08.881Z</time></trkpt><trkpt lat="43.63754403332758" lon="11.105970448460132"><ele>139.0</ele><time>2026-03-29T15:05:09.881Z</time></trkpt><trkpt lat="43.63772584297817" lon="11.105736784009077"><ele>139.0</ele><time>2026-03-29T15:05:10.881Z</time></trkpt><trkpt lat="43.63790737218358" lon="11.105498066775356"><ele>139.0</ele><time>2026-03-29T15:05:11.881Z</time></trkpt><trkpt lat="43.63809806507402" lon="11.105253338675"><ele>139.0</ele><time>2026-03-29T15:05:12.881Z</time></trkpt><trkpt lat="43.63828461465211" lon="11.105011768106007"><ele>138.0</ele><time>2026-03-29T15:05:13.881Z</time></trkpt><trkpt lat="43.63846043738978" lon="11.104780606770715"><ele>137.0</ele><time>2026-03-29T15:05:14.881Z</time></trkpt><trkpt lat="43.63863533937095" lon="11.10454378893468"><ele>137.0</ele><time>2026-03-29T15:05:15.881Z</time></trkpt><trkpt lat="43.638812749616896" lon="11.104321939258512"><ele>137.0</ele><time>2026-03-29T15:05:16.881Z</time></trkpt><trkpt lat="43.63898085794722" lon="11.10412200059048"><ele>136.0</ele><time>2026-03-29T15:05:17.881Z</time></trkpt><trkpt lat="43.63913708521784" lon="11.103916342543007"><ele>135.0</ele><time>2026-03-29T15:05:18.881Z</time></trkpt><trkpt lat="43.63929263357568" lon="11.103704660200995"><ele>134.0</ele><time>2026-03-29T15:05:19.881Z</time></trkpt><trkpt lat="43.639449687402085" lon="11.103499282151091"><ele>134.0</ele><time>2026-03-29T15:05:20.881Z</time></trkpt><trkpt lat="43.639609135508046" lon="11.103289824172366"><ele>134.0</ele><time>2026-03-29T15:05:21.881Z</time></trkpt><trkpt lat="43.63977404539279" lon="11.103076039521538"><ele>134.0</ele><time>2026-03-29T15:05:22.881Z</time></trkpt><trkpt lat="43.6399488452499" lon="11.10286158085027"><ele>134.0</ele><time>2026-03-29T15:05:23.881Z</time></trkpt><trkpt lat="43.6401242058285" lon="11.102638127308271"><ele>134.0</ele><time>2026-03-29T15:05:24.881Z</time></trkpt><trkpt lat="43.64030384836294" lon="11.102409281917195"><ele>133.0</ele><time>2026-03-29T15:05:25.881Z</time></trkpt><trkpt lat="43.640489049877885" lon="11.102173293952143"><ele>132.0</ele><time>2026-03-29T15:05:26.881Z</time></trkpt><trkpt lat="43.64067808761107" lon="11.101943169800183"><ele>132.0</ele><time>2026-03-29T15:05:27.881Z</time></trkpt><trkpt lat="43.640886256435124" lon="11.101715401280835"><ele>132.0</ele><time>2026-03-29T15:05:28.881Z</time></trkpt><trkpt lat="43.64110366481532" lon="11.101511298018956"><ele>131.5</ele><time>2026-03-29T15:05:29.881Z</time></trkpt><trkpt lat="43.64133620364988" lon="11.101321879541349"><ele>131.0</ele><time>2026-03-29T15:05:30.881Z</time></trkpt><trkpt lat="43.64157702521992" lon="11.101154484821397"><ele>131.0</ele><time>2026-03-29T15:05:31.881Z</time></trkpt><trkpt lat="43.641824611492574" lon="11.100995282342426"><ele>131.0</ele><time>2026-03-29T15:05:32.88Z</time></trkpt><trkpt lat="43.642089466552605" lon="11.10082941855262"><ele>131.0</ele><time>2026-03-29T15:05:33.88Z</time></trkpt><trkpt lat="43.64235194173363" lon="11.100678912573338"><ele>131.0</ele><time>2026-03-29T15:05:34.88Z</time></trkpt><trkpt lat="43.642613507738126" lon="11.100528273416003"><ele>131.0</ele><time>2026-03-29T15:05:35.88Z</time></trkpt><trkpt lat="43.64287027840475" lon="11.100381665573462"><ele>131.0</ele><time>2026-03-29T15:05:36.88Z</time></trkpt><trkpt lat="43.64312517890922" lon="11.100210276643978"><ele>131.0</ele><time>2026-03-29T15:05:37.88Z</time></trkpt><trkpt lat="43.643377945767526" lon="11.100050264236575"><ele>131.0</ele><time>2026-03-29T15:05:38.88Z</time></trkpt><trkpt lat="43.64363191834771" lon="11.099899645662486"><ele>130.0</ele><time>2026-03-29T15:05:39.88Z</time></trkpt><trkpt lat="43.64388734950162" lon="11.099738265108838"><ele>129.0</ele><time>2026-03-29T15:05:40.88Z</time></trkpt><trkpt lat="43.64414482521633" lon="11.099587723927188"><ele>129.0</ele><time>2026-03-29T15:05:41.88Z</time></trkpt><trkpt lat="43.64439388982281" lon="11.099430729795717"><ele>129.0</ele><time>2026-03-29T15:05:42.88Z</time></trkpt><trkpt lat="43.64465033543297" lon="11.099269718513705"><ele>128.0</ele><time>2026-03-29T15:05:43.88Z</time></trkpt><trkpt lat="43.64489915900188" lon="11.099103833349895"><ele>127.0</ele><time>2026-03-29T15:05:44.88Z</time></trkpt><trkpt lat="43.645151229994376" lon="11.098941001645764"><ele>127.0</ele><time>2026-03-29T15:05:45.88Z</time></trkpt><trkpt lat="43.64540398132801" lon="11.098782357807586"><ele>127.0</ele><time>2026-03-29T15:05:46.88Z</time></trkpt><trkpt lat="43.64565373568235" lon="11.098625635137276"><ele>127.0</ele><time>2026-03-29T15:05:47.88Z</time></trkpt><trkpt lat="43.64589254397659" lon="11.098480289261689"><ele>127.0</ele><time>2026-03-29T15:05:48.88Z</time></trkpt><trkpt lat="43.646107330428286" lon="11.098325379392982"><ele>126.66666666666667</ele><time>2026-03-29T15:05:49.88Z</time></trkpt><trkpt lat="43.646292776719186" lon="11.098154438425464"><ele>126.33333333333334</ele><time>2026-03-29T15:05:50.88Z</time></trkpt><trkpt lat="43.646456826665656" lon="11.097962362305347"><ele>126.0</ele><time>2026-03-29T15:05:51.88Z</time></trkpt><trkpt lat="43.64659912678002" lon="11.097778914357896"><ele>126.0</ele><time>2026-03-29T15:05:52.88Z</time></trkpt><trkpt lat="43.64672046475958" lon="11.097567586368125"><ele>126.0</ele><time>2026-03-29T15:05:53.88Z</time></trkpt><trkpt lat="43.64682700227468" lon="11.097346535171182"><ele>126.0</ele><time>2026-03-29T15:05:54.88Z</time></trkpt><trkpt lat="43.646948397668865" lon="11.097098905026577"><ele>126.0</ele><time>2026-03-29T15:05:55.88Z</time></trkpt><trkpt lat="43.64707231683875" lon="11.09685444423277"><ele>126.0</ele><time>2026-03-29T15:05:56.88Z</time></trkpt><trkpt lat="43.64719399349059" lon="11.096596680738376"><ele>126.0</ele><time>2026-03-29T15:05:57.88Z</time></trkpt><trkpt lat="43.64731876294451" lon="11.096339399336564"><ele>124.33333333333334</ele><time>2026-03-29T15:05:58.88Z</time></trkpt><trkpt lat="43.64745029376691" lon="11.096101698638062"><ele>122.66666666666667</ele><time>2026-03-29T15:05:59.88Z</time></trkpt><trkpt lat="43.64757251307796" lon="11.095883033723165"><ele>121.0</ele><time>2026-03-29T15:06:00.88Z</time></trkpt><trkpt lat="43.64769440921945" lon="11.095700765175211"><ele>120.66666666666667</ele><time>2026-03-29T15:06:01.88Z</time></trkpt><trkpt lat="43.6478288510595" lon="11.095507413216257"><ele>120.33333333333334</ele><time>2026-03-29T15:06:02.88Z</time></trkpt><trkpt lat="43.6479836414024" lon="11.095321641362403"><ele>120.0</ele><time>2026-03-29T15:06:03.88Z</time></trkpt><trkpt lat="43.64815696792618" lon="11.095150993336603"><ele>120.0</ele><time>2026-03-29T15:06:04.88Z</time></trkpt><trkpt lat="43.64834401102369" lon="11.094992098776261"><ele>120.0</ele><time>2026-03-29T15:06:05.88Z</time></trkpt><trkpt lat="43.648535000188744" lon="11.094849076251641"><ele>120.0</ele><time>2026-03-29T15:06:06.88Z</time></trkpt><trkpt lat="43.64872966830996" lon="11.094726926911633"><ele>119.66666666666666</ele><time>2026-03-29T15:06:07.88Z</time></trkpt><trkpt lat="43.64892464020669" lon="11.094601373673903"><ele>119.33333333333333</ele><time>2026-03-29T15:06:08.88Z</time></trkpt><trkpt lat="43.649116604768146" lon="11.094470626763899"><ele>119.0</ele><time>2026-03-29T15:06:09.88Z</time></trkpt><trkpt lat="43.649295026955386" lon="11.094342376952751"><ele>119.0</ele><time>2026-03-29T15:06:10.88Z</time></trkpt><trkpt lat="43.649458720939144" lon="11.094221216190773"><ele>119.0</ele><time>2026-03-29T15:06:11.88Z</time></trkpt><trkpt lat="43.64961300282148" lon="11.094116919071388"><ele>119.0</ele><time>2026-03-29T15:06:12.88Z</time></trkpt><trkpt lat="43.649754505634455" lon="11.09400965708608"><ele>118.25</ele><time>2026-03-29T15:06:13.88Z</time></trkpt><trkpt lat="43.649893777766955" lon="11.093913306167241"><ele>117.5</ele><time>2026-03-29T15:06:14.88Z</time></trkpt><trkpt lat="43.65002234985408" lon="11.093831730791214"><ele>116.75</ele><time>2026-03-29T15:06:15.88Z</time></trkpt><trkpt lat="43.65011638300702" lon="11.093792188127747"><ele>116.0</ele><time>2026-03-29T15:06:16.88Z</time></trkpt><trkpt lat="43.65021071699466" lon="11.093776569937313"><ele>116.0</ele><time>2026-03-29T15:06:18.88Z</time></trkpt><trkpt lat="43.65022925516144" lon="11.09388736265222"><ele>116.0</ele><time>2026-03-29T15:06:22.88Z</time></trkpt><trkpt lat="43.65027814651561" lon="11.093981334183782"><ele>116.0</ele><time>2026-03-29T15:06:24.88Z</time></trkpt><trkpt lat="43.6503695934143" lon="11.09408125337537"><ele>116.0</ele><time>2026-03-29T15:06:26.88Z</time></trkpt><trkpt lat="43.650417411269046" lon="11.094164442344093"><ele>116.0</ele><time>2026-03-29T15:06:27.88Z</time></trkpt><trkpt lat="43.65047247764233" lon="11.094265970717661"><ele>117.0</ele><time>2026-03-29T15:06:28.88Z</time></trkpt><trkpt lat="43.65054175917148" lon="11.094396731274072"><ele>118.0</ele><time>2026-03-29T15:06:29.88Z</time></trkpt><trkpt lat="43.65060501744765" lon="11.094554332359888"><ele>119.0</ele><time>2026-03-29T15:06:30.88Z</time></trkpt><trkpt lat="43.65064113973309" lon="11.094723062623128"><ele>120.0</ele><time>2026-03-29T15:06:31.879Z</time></trkpt><trkpt lat="43.65064496712288" lon="11.094904679143246"><ele>121.75</ele><time>2026-03-29T15:06:32.879Z</time></trkpt><trkpt lat="43.650618620195225" lon="11.095114478704211"><ele>123.5</ele><time>2026-03-29T15:06:33.879Z</time></trkpt><trkpt lat="43.650600945757304" lon="11.095276388517119"><ele>125.25</ele><time>2026-03-29T15:06:34.879Z</time></trkpt><trkpt lat="43.65062234248178" lon="11.095427132354425"><ele>127.0</ele><time>2026-03-29T15:06:35.879Z</time></trkpt><trkpt lat="43.65066327369431" lon="11.095531878341522"><ele>127.0</ele><time>2026-03-29T15:06:36.879Z</time></trkpt><trkpt lat="43.65072697569556" lon="11.095624692101712"><ele>126.99999999999999</ele><time>2026-03-29T15:06:37.879Z</time></trkpt><trkpt lat="43.650784306204564" lon="11.095747107500285"><ele>126.99999999999999</ele><time>2026-03-29T15:06:38.879Z</time></trkpt><trkpt lat="43.650805843783786" lon="11.095901866352774"><ele>127.0</ele><time>2026-03-29T15:06:39.879Z</time></trkpt><trkpt lat="43.65076750039367" lon="11.096028664769706"><ele>127.0</ele><time>2026-03-29T15:06:40.879Z</time></trkpt><trkpt lat="43.65069125461322" lon="11.096105306514126"><ele>128.6</ele><time>2026-03-29T15:06:41.879Z</time></trkpt><trkpt lat="43.650601015864424" lon="11.096161980481043"><ele>130.2</ele><time>2026-03-29T15:06:42.879Z</time></trkpt><trkpt lat="43.65049543270977" lon="11.096185435030858"><ele>131.8</ele><time>2026-03-29T15:06:43.879Z</time></trkpt><trkpt lat="43.65038616902221" lon="11.096217607680172"><ele>133.4</ele><time>2026-03-29T15:06:44.879Z</time></trkpt><trkpt lat="43.65027898923313" lon="11.096274124964674"><ele>135.0</ele><time>2026-03-29T15:06:45.879Z</time></trkpt><trkpt lat="43.650220099486845" lon="11.096369904339923"><ele>136.2</ele><time>2026-03-29T15:06:46.879Z</time></trkpt><trkpt lat="43.65019240274568" lon="11.096483765227557"><ele>137.4</ele><time>2026-03-29T15:06:47.879Z</time></trkpt><trkpt lat="43.65018957050571" lon="11.096626422817025"><ele>138.6</ele><time>2026-03-29T15:06:48.879Z</time></trkpt><trkpt lat="43.650192522146384" lon="11.096774920965323"><ele>139.8</ele><time>2026-03-29T15:06:49.879Z</time></trkpt><trkpt lat="43.650213564994445" lon="11.096936951664908"><ele>141.0</ele><time>2026-03-29T15:06:50.879Z</time></trkpt><trkpt lat="43.65027277753" lon="11.09706403816575"><ele>140.0</ele><time>2026-03-29T15:06:51.882Z</time></trkpt><trkpt lat="43.65033610531461" lon="11.097183738296522"><ele>139.0</ele><time>2026-03-29T15:06:52.881Z</time></trkpt><trkpt lat="43.65038816771667" lon="11.097279775478999"><ele>138.0</ele><time>2026-03-29T15:06:53.881Z</time></trkpt><trkpt lat="43.65042505079301" lon="11.097370972064262"><ele>137.0</ele><time>2026-03-29T15:06:54.881Z</time></trkpt><trkpt lat="43.65043499258776" lon="11.097508274654787"><ele>136.0</ele><time>2026-03-29T15:06:55.881Z</time></trkpt><trkpt lat="43.65042403835522" lon="11.097676186318937"><ele>138.5</ele><time>2026-03-29T15:06:56.881Z</time></trkpt><trkpt lat="43.65041264643605" lon="11.097830557633232"><ele>141.0</ele><time>2026-03-29T15:06:57.881Z</time></trkpt><trkpt lat="43.650343343952564" lon="11.09793115397719"><ele>143.5</ele><time>2026-03-29T15:06:58.881Z</time></trkpt><trkpt lat="43.6502618287564" lon="11.098014485147635"><ele>146.0</ele><time>2026-03-29T15:06:59.881Z</time></trkpt><trkpt lat="43.65016040117076" lon="11.098144800602253"><ele>151.75</ele><time>2026-03-29T15:07:00.881Z</time></trkpt><trkpt lat="43.650080543877635" lon="11.098293744434216"><ele>157.5</ele><time>2026-03-29T15:07:01.881Z</time></trkpt><trkpt lat="43.65000655326815" lon="11.098475062152412"><ele>163.25</ele><time>2026-03-29T15:07:02.881Z</time></trkpt><trkpt lat="43.64996665447882" lon="11.098603315203993"><ele>169.0</ele><time>2026-03-29T15:07:03.881Z</time></trkpt><trkpt lat="43.64990114016458" lon="11.09867358257786"><ele>169.0</ele><time>2026-03-29T15:07:04.881Z</time></trkpt><trkpt lat="43.649807043790425" lon="11.09869288821204"><ele>169.0</ele><time>2026-03-29T15:07:05.881Z</time></trkpt><trkpt lat="43.649702127646115" lon="11.098686000180772"><ele>169.0</ele><time>2026-03-29T15:07:06.881Z</time></trkpt><trkpt lat="43.64961627406024" lon="11.098705307855091"><ele>169.0</ele><time>2026-03-29T15:07:07.881Z</time></trkpt><trkpt lat="43.64955858846038" lon="11.09874833370918"><ele>169.0</ele><time>2026-03-29T15:07:08.881Z</time></trkpt><trkpt lat="43.649496103111126" lon="11.098728096044415"><ele>169.0</ele><time>2026-03-29T15:07:27.881Z</time></trkpt><trkpt lat="43.64951537029726" lon="11.098614326767306"><ele>169.0</ele><time>2026-03-29T15:07:32.881Z</time></trkpt><trkpt lat="43.64953442640324" lon="11.098528001855696"><ele>169.0</ele><time>2026-03-29T15:07:36.881Z</time></trkpt><trkpt lat="43.64953831763732" lon="11.09843364468053"><ele>169.0</ele><time>2026-03-29T15:07:39.881Z</time></trkpt><trkpt lat="43.649506146027" lon="11.098355512487379"><ele>169.0</ele><time>2026-03-29T15:07:44.881Z</time></trkpt><trkpt lat="43.6495060927522" lon="11.098444913113443"><ele>169.0</ele><time>2026-03-29T15:07:51.88Z</time></trkpt><trkpt lat="43.649524803559764" lon="11.098356442622368"><ele>169.0</ele><time>2026-03-29T15:08:18.88Z</time></trkpt><trkpt lat="43.64964851622874" lon="11.098304916790509"><ele>169.0</ele><time>2026-03-29T16:14:04.913Z</time></trkpt><trkpt lat="43.64963699428561" lon="11.098393673419542"><ele>169.0</ele><time>2026-03-29T16:15:41.911Z</time></trkpt><trkpt lat="43.64960055787057" lon="11.098312507480841"><ele>169.0</ele><time>2026-03-29T16:17:27.912Z</time></trkpt><trkpt lat="43.64953770220768" lon="11.098273572635211"><ele>169.0</ele><time>2026-03-29T16:17:52.911Z</time></trkpt><trkpt lat="43.64951052519428" lon="11.09840231835624"><ele>169.0</ele><time>2026-03-29T16:18:22.913Z</time></trkpt><trkpt lat="43.64956049278589" lon="11.0985014804527"><ele>169.0</ele><time>2026-03-29T16:20:16.912Z</time></trkpt><trkpt lat="43.64954481189525" lon="11.098603378520863"><ele>169.0</ele><time>2026-03-29T16:20:20.912Z</time></trkpt><trkpt lat="43.64952689970628" lon="11.098723108955866"><ele>169.0</ele><time>2026-03-29T16:20:41.914Z</time></trkpt><trkpt lat="43.64958853398953" lon="11.098792091248804"><ele>169.0</ele><time>2026-03-29T16:20:45.913Z</time></trkpt><trkpt lat="43.649692754206015" lon="11.09873952386199"><ele>169.0</ele><time>2026-03-29T16:20:47.913Z</time></trkpt><trkpt lat="43.64977221577802" lon="11.09870583685724"><ele>169.0</ele><time>2026-03-29T16:20:48.912Z</time></trkpt><trkpt lat="43.6498692557286" lon="11.09869017171861"><ele>169.0</ele><time>2026-03-29T16:20:49.912Z</time></trkpt><trkpt lat="43.6499450223817" lon="11.09865161382174"><ele>169.0</ele><time>2026-03-29T16:20:50.911Z</time></trkpt><trkpt lat="43.6500167395211" lon="11.098597785782392"><ele>169.0</ele><time>2026-03-29T16:20:51.911Z</time></trkpt><trkpt lat="43.65007795026386" lon="11.098525696304897"><ele>169.0</ele><time>2026-03-29T16:20:52.911Z</time></trkpt><trkpt lat="43.650112927207196" lon="11.098421023762587"><ele>169.0</ele><time>2026-03-29T16:20:53.911Z</time></trkpt><trkpt lat="43.6501528794183" lon="11.098297686945413"><ele>169.0</ele><time>2026-03-29T16:20:54.91Z</time></trkpt><trkpt lat="43.65019994779339" lon="11.098158216607622"><ele>167.39999999999998</ele><time>2026-03-29T16:20:55.91Z</time></trkpt><trkpt lat="43.65026995357843" lon="11.098036095470615"><ele>165.8</ele><time>2026-03-29T16:20:56.91Z</time></trkpt><trkpt lat="43.650347276327516" lon="11.097933251488637"><ele>164.2</ele><time>2026-03-29T16:20:57.91Z</time></trkpt><trkpt lat="43.6504066631389" lon="11.09785159499982"><ele>162.60000000000002</ele><time>2026-03-29T16:20:58.909Z</time></trkpt><trkpt lat="43.65045341883822" lon="11.097754020348546"><ele>161.0</ele><time>2026-03-29T16:20:59.909Z</time></trkpt><trkpt lat="43.65045650764233" lon="11.097620041041043"><ele>158.8</ele><time>2026-03-29T16:21:00.909Z</time></trkpt><trkpt lat="43.65044265690058" lon="11.097489709980998"><ele>156.60000000000002</ele><time>2026-03-29T16:21:01.909Z</time></trkpt><trkpt lat="43.65042533125034" lon="11.097341051166218"><ele>154.4</ele><time>2026-03-29T16:21:02.909Z</time></trkpt><trkpt lat="43.650397439238645" lon="11.09721486662788"><ele>152.2</ele><time>2026-03-29T16:21:03.909Z</time></trkpt><trkpt lat="43.65031568678708" lon="11.097087245280354"><ele>150.0</ele><time>2026-03-29T16:21:04.908Z</time></trkpt><trkpt lat="43.65024961507134" lon="11.096977819397255"><ele>150.0</ele><time>2026-03-29T16:21:05.908Z</time></trkpt><trkpt lat="43.650211895454206" lon="11.096847090154398"><ele>150.0</ele><time>2026-03-29T16:21:06.908Z</time></trkpt><trkpt lat="43.65021399103506" lon="11.096682097213595"><ele>150.0</ele><time>2026-03-29T16:21:07.908Z</time></trkpt><trkpt lat="43.65024449734589" lon="11.09650535014057"><ele>150.0</ele><time>2026-03-29T16:21:08.908Z</time></trkpt><trkpt lat="43.650292274934245" lon="11.096377668748584"><ele>147.0</ele><time>2026-03-29T16:21:09.908Z</time></trkpt><trkpt lat="43.65035359390474" lon="11.096282519683925"><ele>144.0</ele><time>2026-03-29T16:21:10.908Z</time></trkpt><trkpt lat="43.65043929164865" lon="11.096220337852662"><ele>141.0</ele><time>2026-03-29T16:21:11.908Z</time></trkpt><trkpt lat="43.650553309343245" lon="11.096187519394148"><ele>138.0</ele><time>2026-03-29T16:21:12.907Z</time></trkpt><trkpt lat="43.650662434134496" lon="11.09617671892821"><ele>135.0</ele><time>2026-03-29T16:21:13.907Z</time></trkpt><trkpt lat="43.65075044892164" lon="11.096123820705927"><ele>135.0</ele><time>2026-03-29T16:21:14.907Z</time></trkpt><trkpt lat="43.65081371029376" lon="11.096027183352573"><ele>135.0</ele><time>2026-03-29T16:21:15.907Z</time></trkpt><trkpt lat="43.65085284142681" lon="11.095922920395692"><ele>135.0</ele><time>2026-03-29T16:21:16.907Z</time></trkpt><trkpt lat="43.65085314585688" lon="11.095818432442742"><ele>135.0</ele><time>2026-03-29T16:21:17.907Z</time></trkpt><trkpt lat="43.650823692123154" lon="11.095708840668282"><ele>135.0</ele><time>2026-03-29T16:21:18.907Z</time></trkpt><trkpt lat="43.6507627606313" lon="11.095584976750427"><ele>135.0</ele><time>2026-03-29T16:21:19.907Z</time></trkpt><trkpt lat="43.650697580814175" lon="11.095466400382929"><ele>133.0</ele><time>2026-03-29T16:21:20.907Z</time></trkpt><trkpt lat="43.650639232160344" lon="11.095337821066467"><ele>131.0</ele><time>2026-03-29T16:21:21.907Z</time></trkpt><trkpt lat="43.650611886918846" lon="11.095205093707559"><ele>129.0</ele><time>2026-03-29T16:21:22.907Z</time></trkpt><trkpt lat="43.65062528432316" lon="11.095056723992386"><ele>127.0</ele><time>2026-03-29T16:21:23.907Z</time></trkpt><trkpt lat="43.65065682840964" lon="11.094876946159397"><ele>125.25</ele><time>2026-03-29T16:21:24.907Z</time></trkpt><trkpt lat="43.65066298671867" lon="11.09468283375366"><ele>123.5</ele><time>2026-03-29T16:21:25.907Z</time></trkpt><trkpt lat="43.65063181407866" lon="11.094527272225388"><ele>121.75</ele><time>2026-03-29T16:21:26.907Z</time></trkpt><trkpt lat="43.65057916918386" lon="11.09438863724356"><ele>120.0</ele><time>2026-03-29T16:21:27.907Z</time></trkpt><trkpt lat="43.65050945841144" lon="11.094270071201006"><ele>120.0</ele><time>2026-03-29T16:21:28.906Z</time></trkpt><trkpt lat="43.650440691177614" lon="11.094155303181106"><ele>120.0</ele><time>2026-03-29T16:21:29.906Z</time></trkpt><trkpt lat="43.650362641484975" lon="11.094036439509466"><ele>120.0</ele><time>2026-03-29T16:21:30.906Z</time></trkpt><trkpt lat="43.65030349506511" lon="11.09393549903647"><ele>120.0</ele><time>2026-03-29T16:21:31.906Z</time></trkpt><trkpt lat="43.65025427514157" lon="11.093850989119892"><ele>120.0</ele><time>2026-03-29T16:21:32.906Z</time></trkpt><trkpt lat="43.65022464040029" lon="11.093771534858394"><ele>119.2</ele><time>2026-03-29T16:21:33.906Z</time></trkpt><trkpt lat="43.65026562494016" lon="11.093632377751616"><ele>118.4</ele><time>2026-03-29T16:21:35.906Z</time></trkpt><trkpt lat="43.6503255882938" lon="11.093594426984945"><ele>117.6</ele><time>2026-03-29T16:21:36.906Z</time></trkpt><trkpt lat="43.650420295872" lon="11.093552343910202"><ele>116.8</ele><time>2026-03-29T16:21:37.906Z</time></trkpt><trkpt lat="43.65051824732784" lon="11.0935087706361"><ele>116.0</ele><time>2026-03-29T16:21:38.906Z</time></trkpt><trkpt lat="43.650653102489485" lon="11.09343950413154"><ele>116.0</ele><time>2026-03-29T16:21:39.906Z</time></trkpt><trkpt lat="43.65080052741364" lon="11.093358628673196"><ele>116.0</ele><time>2026-03-29T16:21:40.906Z</time></trkpt><trkpt lat="43.65095644729549" lon="11.093283776357374"><ele>116.0</ele><time>2026-03-29T16:21:41.906Z</time></trkpt><trkpt lat="43.65113016982416" lon="11.093193165358752"><ele>116.33333333333333</ele><time>2026-03-29T16:21:42.906Z</time></trkpt><trkpt lat="43.651308848576605" lon="11.093101989424234"><ele>116.66666666666666</ele><time>2026-03-29T16:21:43.906Z</time></trkpt><trkpt lat="43.651490890816824" lon="11.093011443023997"><ele>117.0</ele><time>2026-03-29T16:21:44.906Z</time></trkpt><trkpt lat="43.651675539861266" lon="11.092923678803372"><ele>117.0</ele><time>2026-03-29T16:21:45.906Z</time></trkpt><trkpt lat="43.65186798159307" lon="11.092832708762128"><ele>117.0</ele><time>2026-03-29T16:21:46.906Z</time></trkpt><trkpt lat="43.652072077300694" lon="11.092730055191709"><ele>117.0</ele><time>2026-03-29T16:21:47.906Z</time></trkpt><trkpt lat="43.65227295781486" lon="11.092629142887148"><ele>117.66666666666666</ele><time>2026-03-29T16:21:48.906Z</time></trkpt><trkpt lat="43.65247410448761" lon="11.092530291198617"><ele>118.33333333333333</ele><time>2026-03-29T16:21:49.906Z</time></trkpt><trkpt lat="43.65267427822183" lon="11.092433229004381"><ele>119.0</ele><time>2026-03-29T16:21:50.906Z</time></trkpt><trkpt lat="43.65287656711449" lon="11.092324968447851"><ele>117.0</ele><time>2026-03-29T16:21:51.906Z</time></trkpt><trkpt lat="43.65307556383043" lon="11.092201870246022"><ele>115.0</ele><time>2026-03-29T16:21:52.906Z</time></trkpt><trkpt lat="43.65326753261881" lon="11.092067520302322"><ele>113.0</ele><time>2026-03-29T16:21:53.906Z</time></trkpt><trkpt lat="43.65345537872127" lon="11.091918894397798"><ele>112.66666666666666</ele><time>2026-03-29T16:21:54.906Z</time></trkpt><trkpt lat="43.65364321893405" lon="11.091758404201308"><ele>112.33333333333334</ele><time>2026-03-29T16:21:55.906Z</time></trkpt><trkpt lat="43.65382294305159" lon="11.091594249771033"><ele>112.0</ele><time>2026-03-29T16:21:56.906Z</time></trkpt><trkpt lat="43.6540044122245" lon="11.091407591881136"><ele>112.0</ele><time>2026-03-29T16:21:57.906Z</time></trkpt><trkpt lat="43.654177228280105" lon="11.091230231717905"><ele>112.0</ele><time>2026-03-29T16:21:58.906Z</time></trkpt><trkpt lat="43.6543402358771" lon="11.091087036328783"><ele>112.0</ele><time>2026-03-29T16:21:59.906Z</time></trkpt><trkpt lat="43.65448671213992" lon="11.090942431076057"><ele>111.66666666666667</ele><time>2026-03-29T16:22:00.906Z</time></trkpt><trkpt lat="43.65463002432155" lon="11.09083551570134"><ele>111.33333333333334</ele><time>2026-03-29T16:22:01.906Z</time></trkpt><trkpt lat="43.654766306033174" lon="11.090693797346782"><ele>111.0</ele><time>2026-03-29T16:22:02.906Z</time></trkpt><trkpt lat="43.65488195962015" lon="11.090574044127651"><ele>110.75</ele><time>2026-03-29T16:22:03.906Z</time></trkpt><trkpt lat="43.655013007079155" lon="11.090469975090617"><ele>110.5</ele><time>2026-03-29T16:22:04.905Z</time></trkpt><trkpt lat="43.65511165248978" lon="11.090366036132714"><ele>110.25</ele><time>2026-03-29T16:22:05.905Z</time></trkpt><trkpt lat="43.6552217003606" lon="11.090259319265737"><ele>110.0</ele><time>2026-03-29T16:22:06.905Z</time></trkpt><trkpt lat="43.65531894695382" lon="11.090165974341197"><ele>110.0</ele><time>2026-03-29T16:22:07.905Z</time></trkpt><trkpt lat="43.65541859021568" lon="11.090081395088022"><ele>110.0</ele><time>2026-03-29T16:22:08.905Z</time></trkpt><trkpt lat="43.655516245027165" lon="11.089999538506747"><ele>110.0</ele><time>2026-03-29T16:22:09.905Z</time></trkpt><trkpt lat="43.65560696744197" lon="11.0899082850329"><ele>110.0</ele><time>2026-03-29T16:22:10.905Z</time></trkpt><trkpt lat="43.655703773829984" lon="11.089814259719759"><ele>109.0</ele><time>2026-03-29T16:22:11.905Z</time></trkpt><trkpt lat="43.65581959988652" lon="11.089697824249308"><ele>108.0</ele><time>2026-03-29T16:22:12.905Z</time></trkpt><trkpt lat="43.6559560046518" lon="11.089565291286734"><ele>107.0</ele><time>2026-03-29T16:22:13.905Z</time></trkpt><trkpt lat="43.6561153730639" lon="11.089414826333746"><ele>107.0</ele><time>2026-03-29T16:22:14.905Z</time></trkpt><trkpt lat="43.65628830851079" lon="11.089247294011962"><ele>107.0</ele><time>2026-03-29T16:22:15.905Z</time></trkpt><trkpt lat="43.65646890126571" lon="11.08907390314428"><ele>107.0</ele><time>2026-03-29T16:22:16.905Z</time></trkpt><trkpt lat="43.656663904991696" lon="11.08889571357791"><ele>107.5</ele><time>2026-03-29T16:22:17.905Z</time></trkpt><trkpt lat="43.656859637307946" lon="11.08871582036834"><ele>108.0</ele><time>2026-03-29T16:22:18.905Z</time></trkpt><trkpt lat="43.65704911299814" lon="11.088534483091188"><ele>108.0</ele><time>2026-03-29T16:22:19.905Z</time></trkpt><trkpt lat="43.65724499832846" lon="11.08834548698149"><ele>108.0</ele><time>2026-03-29T16:22:20.905Z</time></trkpt><trkpt lat="43.657449661476036" lon="11.08815738004123"><ele>108.0</ele><time>2026-03-29T16:22:21.905Z</time></trkpt><trkpt lat="43.65764959104722" lon="11.087965072217829"><ele>108.0</ele><time>2026-03-29T16:22:22.905Z</time></trkpt><trkpt lat="43.657859360344105" lon="11.087771874588757"><ele>108.0</ele><time>2026-03-29T16:22:23.905Z</time></trkpt><trkpt lat="43.658067600010774" lon="11.087572165104064"><ele>108.0</ele><time>2026-03-29T16:22:24.905Z</time></trkpt><trkpt lat="43.65827328479354" lon="11.087375384217516"><ele>106.5</ele><time>2026-03-29T16:22:25.905Z</time></trkpt><trkpt lat="43.65847887474222" lon="11.087182835670223"><ele>105.0</ele><time>2026-03-29T16:22:26.905Z</time></trkpt><trkpt lat="43.65868257753171" lon="11.086995734483942"><ele>105.0</ele><time>2026-03-29T16:22:27.907Z</time></trkpt><trkpt lat="43.658894895267615" lon="11.086800746071921"><ele>105.0</ele><time>2026-03-29T16:22:28.908Z</time></trkpt><trkpt lat="43.659104169689414" lon="11.086598301133103"><ele>105.0</ele><time>2026-03-29T16:22:29.908Z</time></trkpt><trkpt lat="43.659321537502564" lon="11.086393300032022"><ele>105.0</ele><time>2026-03-29T16:22:30.907Z</time></trkpt><trkpt lat="43.65953777450142" lon="11.08618986460488"><ele>105.0</ele><time>2026-03-29T16:22:31.908Z</time></trkpt><trkpt lat="43.65974491272495" lon="11.086004691802483"><ele>105.0</ele><time>2026-03-29T16:22:32.908Z</time></trkpt><trkpt lat="43.65991819848742" lon="11.085844576691295"><ele>104.33333333333334</ele><time>2026-03-29T16:22:33.908Z</time></trkpt><trkpt lat="43.66010119497158" lon="11.085679608506132"><ele>103.66666666666667</ele><time>2026-03-29T16:22:34.907Z</time></trkpt><trkpt lat="43.66025977723865" lon="11.085536074732131"><ele>103.0</ele><time>2026-03-29T16:22:35.907Z</time></trkpt><trkpt lat="43.66040616047451" lon="11.085401589943011"><ele>103.0</ele><time>2026-03-29T16:22:36.908Z</time></trkpt><trkpt lat="43.66054152674449" lon="11.085262174739821"><ele>103.0</ele><time>2026-03-29T16:22:37.907Z</time></trkpt><trkpt lat="43.6606675096939" lon="11.085136178823005"><ele>103.0</ele><time>2026-03-29T16:22:38.907Z</time></trkpt><trkpt lat="43.660770162190445" lon="11.08503398516868"><ele>103.00000000000001</ele><time>2026-03-29T16:22:39.908Z</time></trkpt><trkpt lat="43.66084978241425" lon="11.084962610204318"><ele>103.0</ele><time>2026-03-29T16:22:40.908Z</time></trkpt><trkpt lat="43.66093574629185" lon="11.084918698232801"><ele>103.0</ele><time>2026-03-29T16:22:41.908Z</time></trkpt><trkpt lat="43.66102748333905" lon="11.08489738007814"><ele>103.0</ele><time>2026-03-29T16:22:42.908Z</time></trkpt><trkpt lat="43.66111360115011" lon="11.084876380899546"><ele>103.00000000000001</ele><time>2026-03-29T16:22:43.908Z</time></trkpt><trkpt lat="43.6611892820501" lon="11.084835527230243"><ele>103.0</ele><time>2026-03-29T16:22:44.908Z</time></trkpt><trkpt lat="43.661249563551564" lon="11.084761008301179"><ele>102.66666666666667</ele><time>2026-03-29T16:22:45.908Z</time></trkpt><trkpt lat="43.66127059608801" lon="11.084660786846287"><ele>102.33333333333334</ele><time>2026-03-29T16:22:46.908Z</time></trkpt><trkpt lat="43.6612494555602" lon="11.084560266856034"><ele>102.0</ele><time>2026-03-29T16:22:47.908Z</time></trkpt><trkpt lat="43.66121448839969" lon="11.084453830975104"><ele>101.66666666666666</ele><time>2026-03-29T16:22:48.907Z</time></trkpt><trkpt lat="43.661197250626564" lon="11.084335727708423"><ele>101.33333333333333</ele><time>2026-03-29T16:22:49.907Z</time></trkpt><trkpt lat="43.66120652728609" lon="11.084207074047992"><ele>101.0</ele><time>2026-03-29T16:22:50.907Z</time></trkpt><trkpt lat="43.66125553259333" lon="11.084099491878078"><ele>99.75</ele><time>2026-03-29T16:22:51.907Z</time></trkpt><trkpt lat="43.66134277063532" lon="11.084031146519909"><ele>98.5</ele><time>2026-03-29T16:22:52.907Z</time></trkpt><trkpt lat="43.66145180375034" lon="11.084000279674623"><ele>97.25</ele><time>2026-03-29T16:22:53.907Z</time></trkpt><trkpt lat="43.66157568889358" lon="11.083993882620465"><ele>96.0</ele><time>2026-03-29T16:22:54.907Z</time></trkpt><trkpt lat="43.661717676572145" lon="11.084021087498973"><ele>96.0</ele><time>2026-03-29T16:22:55.907Z</time></trkpt><trkpt lat="43.66188442729468" lon="11.084058384908715"><ele>96.0</ele><time>2026-03-29T16:22:56.907Z</time></trkpt><trkpt lat="43.66207870474448" lon="11.084079018400754"><ele>96.0</ele><time>2026-03-29T16:22:57.907Z</time></trkpt><trkpt lat="43.66226343951279" lon="11.084052015919868"><ele>96.33333333333334</ele><time>2026-03-29T16:22:58.907Z</time></trkpt><trkpt lat="43.66245913875305" lon="11.08399707040565"><ele>96.66666666666667</ele><time>2026-03-29T16:22:59.907Z</time></trkpt><trkpt lat="43.66266170782758" lon="11.083912913383012"><ele>97.0</ele><time>2026-03-29T16:23:00.907Z</time></trkpt><trkpt lat="43.66283552846747" lon="11.083793444382433"><ele>96.33333333333334</ele><time>2026-03-29T16:23:01.907Z</time></trkpt><trkpt lat="43.66303558650226" lon="11.083665728931551"><ele>95.66666666666667</ele><time>2026-03-29T16:23:02.907Z</time></trkpt><trkpt lat="43.66323329223234" lon="11.083536883881111"><ele>95.0</ele><time>2026-03-29T16:23:03.907Z</time></trkpt><trkpt lat="43.66343098597361" lon="11.083415092856738"><ele>95.33333333333334</ele><time>2026-03-29T16:23:04.907Z</time></trkpt><trkpt lat="43.663623391223936" lon="11.083296066114588"><ele>95.66666666666667</ele><time>2026-03-29T16:23:05.907Z</time></trkpt><trkpt lat="43.66379534495148" lon="11.083197728234211"><ele>96.0</ele><time>2026-03-29T16:23:06.907Z</time></trkpt><trkpt lat="43.66394854953254" lon="11.08311228972953"><ele>96.0</ele><time>2026-03-29T16:23:07.907Z</time></trkpt><trkpt lat="43.66408009246149" lon="11.083020522693838"><ele>96.0</ele><time>2026-03-29T16:23:08.907Z</time></trkpt><trkpt lat="43.66422212362597" lon="11.082906421767357"><ele>96.0</ele><time>2026-03-29T16:23:09.907Z</time></trkpt><trkpt lat="43.66436274468916" lon="11.082762311834934"><ele>96.66666666666666</ele><time>2026-03-29T16:23:10.907Z</time></trkpt><trkpt lat="43.66449948098171" lon="11.082587075449833"><ele>97.33333333333333</ele><time>2026-03-29T16:23:11.907Z</time></trkpt><trkpt lat="43.664634647904165" lon="11.082388644059328"><ele>98.0</ele><time>2026-03-29T16:23:12.907Z</time></trkpt><trkpt lat="43.664747852006755" lon="11.082186447495205"><ele>98.0</ele><time>2026-03-29T16:23:13.907Z</time></trkpt><trkpt lat="43.66484589438612" lon="11.081985373671463"><ele>98.0</ele><time>2026-03-29T16:23:14.907Z</time></trkpt><trkpt lat="43.66493528441441" lon="11.081802411208168"><ele>98.0</ele><time>2026-03-29T16:23:15.907Z</time></trkpt><trkpt lat="43.665030771930375" lon="11.081619763946174"><ele>98.0</ele><time>2026-03-29T16:23:16.907Z</time></trkpt><trkpt lat="43.66512823913407" lon="11.08143570608176"><ele>98.0</ele><time>2026-03-29T16:23:17.907Z</time></trkpt><trkpt lat="43.665228879359354" lon="11.081232557407047"><ele>98.0</ele><time>2026-03-29T16:23:18.907Z</time></trkpt><trkpt lat="43.66533771871657" lon="11.08102185378791"><ele>98.0</ele><time>2026-03-29T16:23:19.907Z</time></trkpt><trkpt lat="43.66545143241434" lon="11.080796469101331"><ele>98.0</ele><time>2026-03-29T16:23:20.907Z</time></trkpt><trkpt lat="43.66557033859159" lon="11.080575611934844"><ele>98.0</ele><time>2026-03-29T16:23:21.907Z</time></trkpt><trkpt lat="43.665689770353914" lon="11.080347034087366"><ele>96.0</ele><time>2026-03-29T16:23:22.907Z</time></trkpt><trkpt lat="43.66581120722087" lon="11.080116106858604"><ele>94.0</ele><time>2026-03-29T16:23:23.907Z</time></trkpt><trkpt lat="43.66593470137725" lon="11.079867133251211"><ele>92.0</ele><time>2026-03-29T16:23:24.907Z</time></trkpt><trkpt lat="43.66606010391141" lon="11.07960980302861"><ele>91.33333333333334</ele><time>2026-03-29T16:23:25.907Z</time></trkpt><trkpt lat="43.66618625761303" lon="11.079357344911287"><ele>90.66666666666667</ele><time>2026-03-29T16:23:26.907Z</time></trkpt><trkpt lat="43.66631851786956" lon="11.07911832119266"><ele>90.0</ele><time>2026-03-29T16:23:27.907Z</time></trkpt><trkpt lat="43.66645358251969" lon="11.078880336941081"><ele>89.66666666666667</ele><time>2026-03-29T16:23:28.907Z</time></trkpt><trkpt lat="43.66657899007216" lon="11.078649479548082"><ele>89.33333333333334</ele><time>2026-03-29T16:23:29.907Z</time></trkpt><trkpt lat="43.66671137961265" lon="11.078448230425186"><ele>89.0</ele><time>2026-03-29T16:23:30.907Z</time></trkpt><trkpt lat="43.66685050102858" lon="11.078259472485785"><ele>88.66666666666667</ele><time>2026-03-29T16:23:31.907Z</time></trkpt><trkpt lat="43.66701055882123" lon="11.078071934397094"><ele>88.33333333333333</ele><time>2026-03-29T16:23:32.907Z</time></trkpt><trkpt lat="43.6671771190237" lon="11.077901543493871"><ele>88.0</ele><time>2026-03-29T16:23:33.907Z</time></trkpt><trkpt lat="43.66735506389088" lon="11.077729715865951"><ele>88.0</ele><time>2026-03-29T16:23:34.907Z</time></trkpt><trkpt lat="43.66754108122654" lon="11.077558913937317"><ele>88.0</ele><time>2026-03-29T16:23:35.907Z</time></trkpt><trkpt lat="43.66772440279218" lon="11.077382316630954"><ele>88.0</ele><time>2026-03-29T16:23:36.907Z</time></trkpt><trkpt lat="43.66791063815135" lon="11.077213188788743"><ele>86.5</ele><time>2026-03-29T16:23:37.907Z</time></trkpt><trkpt lat="43.66811545323089" lon="11.077041464218413"><ele>85.0</ele><time>2026-03-29T16:23:38.907Z</time></trkpt><trkpt lat="43.66832876938205" lon="11.076873667219438"><ele>85.0</ele><time>2026-03-29T16:23:39.907Z</time></trkpt><trkpt lat="43.66855098091022" lon="11.07669777976382"><ele>85.0</ele><time>2026-03-29T16:23:40.907Z</time></trkpt><trkpt lat="43.6687821067095" lon="11.076510684973108"><ele>85.5</ele><time>2026-03-29T16:23:41.907Z</time></trkpt><trkpt lat="43.66901148811018" lon="11.076324023253227"><ele>86.0</ele><time>2026-03-29T16:23:42.907Z</time></trkpt><trkpt lat="43.669248797440005" lon="11.076141128851239"><ele>84.5</ele><time>2026-03-29T16:23:43.907Z</time></trkpt><trkpt lat="43.66947142404084" lon="11.075965055279834"><ele>83.0</ele><time>2026-03-29T16:23:44.907Z</time></trkpt><trkpt lat="43.66967640261919" lon="11.075825753386138"><ele>83.0</ele><time>2026-03-29T16:23:45.907Z</time></trkpt><trkpt lat="43.669875864801355" lon="11.075710401231822"><ele>83.0</ele><time>2026-03-29T16:23:46.907Z</time></trkpt><trkpt lat="43.67006156689501" lon="11.075627451337553"><ele>83.0</ele><time>2026-03-29T16:23:47.906Z</time></trkpt><trkpt lat="43.670230344288825" lon="11.075565986873308"><ele>82.66666666666667</ele><time>2026-03-29T16:23:48.906Z</time></trkpt><trkpt lat="43.67041289707689" lon="11.075516956199547"><ele>82.33333333333333</ele><time>2026-03-29T16:23:49.906Z</time></trkpt><trkpt lat="43.670596909924754" lon="11.075474263368424"><ele>82.0</ele><time>2026-03-29T16:23:50.906Z</time></trkpt><trkpt lat="43.670781340631656" lon="11.075436102081142"><ele>82.0</ele><time>2026-03-29T16:23:51.906Z</time></trkpt><trkpt lat="43.670964302004165" lon="11.075390207507397"><ele>82.0</ele><time>2026-03-29T16:23:52.906Z</time></trkpt><trkpt lat="43.671153429347456" lon="11.07534357821594"><ele>82.0</ele><time>2026-03-29T16:23:53.906Z</time></trkpt><trkpt lat="43.67134139793235" lon="11.075298825289352"><ele>82.0</ele><time>2026-03-29T16:23:54.906Z</time></trkpt><trkpt lat="43.67152764455082" lon="11.075250023940633"><ele>82.0</ele><time>2026-03-29T16:23:55.906Z</time></trkpt><trkpt lat="43.67172824025221" lon="11.07519508230976"><ele>82.0</ele><time>2026-03-29T16:23:56.906Z</time></trkpt><trkpt lat="43.67194435376863" lon="11.075132943265272"><ele>82.0</ele><time>2026-03-29T16:23:57.906Z</time></trkpt><trkpt lat="43.672179933072414" lon="11.075079089120479"><ele>82.0</ele><time>2026-03-29T16:23:58.906Z</time></trkpt><trkpt lat="43.67241902309515" lon="11.075034673351078"><ele>82.0</ele><time>2026-03-29T16:23:59.906Z</time></trkpt><trkpt lat="43.672633342091906" lon="11.074989298402196"><ele>82.0</ele><time>2026-03-29T16:24:00.906Z</time></trkpt><trkpt lat="43.67280033373988" lon="11.074940626406901"><ele>82.0</ele><time>2026-03-29T16:24:01.906Z</time></trkpt><trkpt lat="43.67293784080648" lon="11.074895408342625"><ele>82.0</ele><time>2026-03-29T16:24:02.906Z</time></trkpt><trkpt lat="43.67307389206016" lon="11.07485358667715"><ele>82.0</ele><time>2026-03-29T16:24:03.906Z</time></trkpt><trkpt lat="43.673200615081704" lon="11.074824078446001"><ele>82.0</ele><time>2026-03-29T16:24:04.906Z</time></trkpt><trkpt lat="43.67332246400664" lon="11.074795142064323"><ele>82.0</ele><time>2026-03-29T16:24:05.906Z</time></trkpt><trkpt lat="43.67345174963879" lon="11.07475963707089"><ele>82.0</ele><time>2026-03-29T16:24:06.906Z</time></trkpt><trkpt lat="43.67359222800662" lon="11.074723183518046"><ele>82.0</ele><time>2026-03-29T16:24:07.906Z</time></trkpt><trkpt lat="43.67374958723812" lon="11.074675115417882"><ele>82.0</ele><time>2026-03-29T16:24:08.906Z</time></trkpt><trkpt lat="43.673917747234206" lon="11.074623405865392"><ele>81.66666666666666</ele><time>2026-03-29T16:24:09.906Z</time></trkpt><trkpt lat="43.67410366523339" lon="11.074578932889928"><ele>81.33333333333333</ele><time>2026-03-29T16:24:10.906Z</time></trkpt><trkpt lat="43.674298729446335" lon="11.074543246386316"><ele>81.0</ele><time>2026-03-29T16:24:11.906Z</time></trkpt><trkpt lat="43.674487997450626" lon="11.074497384226337"><ele>80.33333333333333</ele><time>2026-03-29T16:24:12.906Z</time></trkpt><trkpt lat="43.67470648341371" lon="11.074441791092628"><ele>79.66666666666666</ele><time>2026-03-29T16:24:13.906Z</time></trkpt><trkpt lat="43.67492136488784" lon="11.07438096321013"><ele>79.0</ele><time>2026-03-29T16:24:14.906Z</time></trkpt><trkpt lat="43.67513336703072" lon="11.074323559189262"><ele>79.0</ele><time>2026-03-29T16:24:15.906Z</time></trkpt><trkpt lat="43.67535811737173" lon="11.074263754003507"><ele>79.0</ele><time>2026-03-29T16:24:16.906Z</time></trkpt><trkpt lat="43.675576782368644" lon="11.07420660614681"><ele>79.0</ele><time>2026-03-29T16:24:17.906Z</time></trkpt><trkpt lat="43.67579604498239" lon="11.074136241982389"><ele>79.0</ele><time>2026-03-29T16:24:18.906Z</time></trkpt><trkpt lat="43.676013664744836" lon="11.074061336250475"><ele>79.0</ele><time>2026-03-29T16:24:19.906Z</time></trkpt><trkpt lat="43.676226756015495" lon="11.073969467846819"><ele>79.0</ele><time>2026-03-29T16:24:20.906Z</time></trkpt><trkpt lat="43.67642184833977" lon="11.073889714779778"><ele>79.0</ele><time>2026-03-29T16:24:21.906Z</time></trkpt><trkpt lat="43.67661297258978" lon="11.073813526811522"><ele>79.0</ele><time>2026-03-29T16:24:22.906Z</time></trkpt><trkpt lat="43.67680693511287" lon="11.073723570390003"><ele>78.66666666666666</ele><time>2026-03-29T16:24:23.906Z</time></trkpt><trkpt lat="43.676996332517255" lon="11.073630243639869"><ele>78.33333333333333</ele><time>2026-03-29T16:24:24.906Z</time></trkpt><trkpt lat="43.67717978373474" lon="11.073548667677548"><ele>78.0</ele><time>2026-03-29T16:24:25.906Z</time></trkpt><trkpt lat="43.67737495133513" lon="11.073457084370222"><ele>78.0</ele><time>2026-03-29T16:24:26.906Z</time></trkpt><trkpt lat="43.67758083069897" lon="11.073365503860785"><ele>78.0</ele><time>2026-03-29T16:24:27.906Z</time></trkpt><trkpt lat="43.67779913364643" lon="11.073271265029206"><ele>78.0</ele><time>2026-03-29T16:24:28.906Z</time></trkpt><trkpt lat="43.678003692921926" lon="11.073182721320638"><ele>77.5</ele><time>2026-03-29T16:24:29.906Z</time></trkpt><trkpt lat="43.67822877856409" lon="11.07308967505687"><ele>77.0</ele><time>2026-03-29T16:24:30.906Z</time></trkpt><trkpt lat="43.678437359406004" lon="11.073002629802765"><ele>75.5</ele><time>2026-03-29T16:24:31.906Z</time></trkpt><trkpt lat="43.67865196010381" lon="11.072916788966365"><ele>74.0</ele><time>2026-03-29T16:24:32.908Z</time></trkpt><trkpt lat="43.67887898049153" lon="11.072837465723234"><ele>74.0</ele><time>2026-03-29T16:24:33.908Z</time></trkpt><trkpt lat="43.679093051834066" lon="11.072770221161917"><ele>74.0</ele><time>2026-03-29T16:24:34.908Z</time></trkpt><trkpt lat="43.679310785181215" lon="11.072705866167249"><ele>74.0</ele><time>2026-03-29T16:24:35.908Z</time></trkpt><trkpt lat="43.679524045522065" lon="11.07264189918701"><ele>73.5</ele><time>2026-03-29T16:24:36.908Z</time></trkpt><trkpt lat="43.679749874306424" lon="11.072579202395127"><ele>73.0</ele><time>2026-03-29T16:24:37.907Z</time></trkpt><trkpt lat="43.679973190373445" lon="11.07251462478787"><ele>73.0</ele><time>2026-03-29T16:24:38.908Z</time></trkpt><trkpt lat="43.68019543332192" lon="11.07245311406963"><ele>73.0</ele><time>2026-03-29T16:24:39.907Z</time></trkpt><trkpt lat="43.68043236114731" lon="11.072381489439104"><ele>72.5</ele><time>2026-03-29T16:24:40.907Z</time></trkpt><trkpt lat="43.6806631109001" lon="11.072313407371194"><ele>72.0</ele><time>2026-03-29T16:24:41.908Z</time></trkpt><trkpt lat="43.68089445357906" lon="11.072244508135936"><ele>72.0</ele><time>2026-03-29T16:24:42.908Z</time></trkpt><trkpt lat="43.68112003873866" lon="11.07217553298715"><ele>72.0</ele><time>2026-03-29T16:24:43.908Z</time></trkpt><trkpt lat="43.681348959645575" lon="11.072097086767656"><ele>72.0</ele><time>2026-03-29T16:24:44.908Z</time></trkpt><trkpt lat="43.68158562688397" lon="11.072036803074278"><ele>72.0</ele><time>2026-03-29T16:24:45.908Z</time></trkpt><trkpt lat="43.6818143630301" lon="11.071970548273741"><ele>72.0</ele><time>2026-03-29T16:24:46.908Z</time></trkpt><trkpt lat="43.68204767468615" lon="11.071895499397968"><ele>72.0</ele><time>2026-03-29T16:24:47.908Z</time></trkpt><trkpt lat="43.68228895469231" lon="11.07182498466382"><ele>72.0</ele><time>2026-03-29T16:24:48.908Z</time></trkpt><trkpt lat="43.68251687791239" lon="11.071757631563546"><ele>72.0</ele><time>2026-03-29T16:24:49.908Z</time></trkpt><trkpt lat="43.682739883962554" lon="11.071693181976725"><ele>72.0</ele><time>2026-03-29T16:24:50.908Z</time></trkpt><trkpt lat="43.682946321487925" lon="11.071632945741266"><ele>72.0</ele><time>2026-03-29T16:24:51.908Z</time></trkpt><trkpt lat="43.683129875200656" lon="11.071583050955867"><ele>72.0</ele><time>2026-03-29T16:24:52.908Z</time></trkpt><trkpt lat="43.68328731956282" lon="11.071539512006146"><ele>71.66666666666667</ele><time>2026-03-29T16:24:53.908Z</time></trkpt><trkpt lat="43.683437937657416" lon="11.071498928165509"><ele>71.33333333333334</ele><time>2026-03-29T16:24:54.908Z</time></trkpt><trkpt lat="43.68358049158282" lon="11.071453749615175"><ele>71.0</ele><time>2026-03-29T16:24:55.908Z</time></trkpt><trkpt lat="43.68373616409295" lon="11.071406560535666"><ele>71.0</ele><time>2026-03-29T16:24:56.908Z</time></trkpt><trkpt lat="43.683889079904716" lon="11.071364747702779"><ele>71.0</ele><time>2026-03-29T16:24:57.907Z</time></trkpt><trkpt lat="43.68405156752983" lon="11.07131657292615"><ele>71.0</ele><time>2026-03-29T16:24:58.907Z</time></trkpt><trkpt lat="43.68422706294873" lon="11.071263569732343"><ele>71.0</ele><time>2026-03-29T16:24:59.907Z</time></trkpt><trkpt lat="43.68441187797327" lon="11.071209096723015"><ele>71.0</ele><time>2026-03-29T16:25:00.907Z</time></trkpt><trkpt lat="43.68458966877046" lon="11.07115092250061"><ele>71.0</ele><time>2026-03-29T16:25:01.907Z</time></trkpt><trkpt lat="43.684778228637896" lon="11.071091446719276"><ele>71.33333333333334</ele><time>2026-03-29T16:25:02.907Z</time></trkpt><trkpt lat="43.68496823571607" lon="11.071033260733659"><ele>71.66666666666667</ele><time>2026-03-29T16:25:03.907Z</time></trkpt><trkpt lat="43.6851608248892" lon="11.070977298132432"><ele>72.0</ele><time>2026-03-29T16:25:04.907Z</time></trkpt><trkpt lat="43.68535758156191" lon="11.070924277893445"><ele>71.33333333333333</ele><time>2026-03-29T16:25:05.907Z</time></trkpt><trkpt lat="43.685532390813485" lon="11.070874024596634"><ele>70.66666666666666</ele><time>2026-03-29T16:25:06.907Z</time></trkpt><trkpt lat="43.68569704758898" lon="11.070820943531753"><ele>70.0</ele><time>2026-03-29T16:25:07.907Z</time></trkpt><trkpt lat="43.685847652109665" lon="11.070778826961996"><ele>69.66666666666666</ele><time>2026-03-29T16:25:08.907Z</time></trkpt><trkpt lat="43.68599395952781" lon="11.070745091103959"><ele>69.33333333333333</ele><time>2026-03-29T16:25:09.907Z</time></trkpt><trkpt lat="43.686147019353136" lon="11.07070508750478"><ele>69.0</ele><time>2026-03-29T16:25:10.907Z</time></trkpt><trkpt lat="43.6863004116417" lon="11.070657707557684"><ele>68.25</ele><time>2026-03-29T16:25:11.907Z</time></trkpt><trkpt lat="43.68645467834998" lon="11.070609028428656"><ele>67.5</ele><time>2026-03-29T16:25:12.907Z</time></trkpt><trkpt lat="43.686599076428394" lon="11.070565479217969"><ele>66.75</ele><time>2026-03-29T16:25:13.907Z</time></trkpt><trkpt lat="43.68671992570683" lon="11.07052716611413"><ele>66.0</ele><time>2026-03-29T16:25:14.907Z</time></trkpt><trkpt lat="43.68685281791535" lon="11.070485063722945"><ele>66.5</ele><time>2026-03-29T16:25:15.907Z</time></trkpt><trkpt lat="43.686985764033786" lon="11.070448696687924"><ele>67.0</ele><time>2026-03-29T16:25:16.907Z</time></trkpt><trkpt lat="43.68711636873703" lon="11.070394393487975"><ele>67.5</ele><time>2026-03-29T16:25:17.907Z</time></trkpt><trkpt lat="43.68724845947619" lon="11.070354046538853"><ele>68.0</ele><time>2026-03-29T16:25:18.907Z</time></trkpt><trkpt lat="43.687397357893005" lon="11.070298428978031"><ele>68.0</ele><time>2026-03-29T16:25:19.907Z</time></trkpt><trkpt lat="43.687526554905894" lon="11.07026220074323"><ele>68.0</ele><time>2026-03-29T16:25:20.907Z</time></trkpt><trkpt lat="43.68766922446263" lon="11.070239091915585"><ele>68.0</ele><time>2026-03-29T16:25:21.907Z</time></trkpt><trkpt lat="43.68778318597245" lon="11.070235108623084"><ele>68.0</ele><time>2026-03-29T16:25:22.907Z</time></trkpt><trkpt lat="43.68804221030803" lon="11.070266409803825"><ele>67.75</ele><time>2026-03-29T16:25:24.907Z</time></trkpt><trkpt lat="43.68817037789599" lon="11.070287222065701"><ele>67.5</ele><time>2026-03-29T16:25:25.907Z</time></trkpt><trkpt lat="43.68829213710869" lon="11.070302326335922"><ele>67.25</ele><time>2026-03-29T16:25:26.907Z</time></trkpt><trkpt lat="43.68841070080309" lon="11.070322294596057"><ele>67.0</ele><time>2026-03-29T16:25:27.907Z</time></trkpt><trkpt lat="43.688523867067396" lon="11.07033644681555"><ele>66.75</ele><time>2026-03-29T16:25:28.907Z</time></trkpt><trkpt lat="43.688651388324" lon="11.070343470444092"><ele>66.5</ele><time>2026-03-29T16:25:29.907Z</time></trkpt><trkpt lat="43.68877003532684" lon="11.070354217924185"><ele>66.25</ele><time>2026-03-29T16:25:30.907Z</time></trkpt><trkpt lat="43.6889030217514" lon="11.070371696867461"><ele>66.0</ele><time>2026-03-29T16:25:31.907Z</time></trkpt><trkpt lat="43.689037956875815" lon="11.070387053190434"><ele>66.0</ele><time>2026-03-29T16:25:32.907Z</time></trkpt><trkpt lat="43.68917620985566" lon="11.07039841954882"><ele>66.0</ele><time>2026-03-29T16:25:33.907Z</time></trkpt><trkpt lat="43.689298875494366" lon="11.070384753984971"><ele>66.0</ele><time>2026-03-29T16:25:34.907Z</time></trkpt><trkpt lat="43.68944345246119" lon="11.070376757188457"><ele>66.0</ele><time>2026-03-29T16:25:35.907Z</time></trkpt><trkpt lat="43.6895628429651" lon="11.070352553411213"><ele>66.0</ele><time>2026-03-29T16:25:36.907Z</time></trkpt><trkpt lat="43.68967220989726" lon="11.07031795252682"><ele>66.0</ele><time>2026-03-29T16:25:37.907Z</time></trkpt><trkpt lat="43.689771732394306" lon="11.070270863859223"><ele>66.0</ele><time>2026-03-29T16:25:38.907Z</time></trkpt><trkpt lat="43.68986304417826" lon="11.070226624910383"><ele>66.0</ele><time>2026-03-29T16:25:39.907Z</time></trkpt><trkpt lat="43.68993986133421" lon="11.070178237542873"><ele>66.0</ele><time>2026-03-29T16:25:40.907Z</time></trkpt><trkpt lat="43.68999703877346" lon="11.070132418790955"><ele>66.0</ele><time>2026-03-29T16:25:41.907Z</time></trkpt><trkpt lat="43.69006012134063" lon="11.070057759449357"><ele>66.0</ele><time>2026-03-29T16:25:43.907Z</time></trkpt><trkpt lat="43.69012283725137" lon="11.06998620677463"><ele>66.0</ele><time>2026-03-29T16:25:45.907Z</time></trkpt><trkpt lat="43.69020684233201" lon="11.069874419678044"><ele>66.0</ele><time>2026-03-29T16:25:47.907Z</time></trkpt><trkpt lat="43.69025373210142" lon="11.069806779413721"><ele>66.0</ele><time>2026-03-29T16:25:48.907Z</time></trkpt><trkpt lat="43.690303552529755" lon="11.069714513497027"><ele>66.0</ele><time>2026-03-29T16:25:49.907Z</time></trkpt><trkpt lat="43.69037171787684" lon="11.069612423558432"><ele>65.8</ele><time>2026-03-29T16:25:50.907Z</time></trkpt><trkpt lat="43.69045406201328" lon="11.069502233309407"><ele>65.6</ele><time>2026-03-29T16:25:51.907Z</time></trkpt><trkpt lat="43.69053831899401" lon="11.069401140206978"><ele>65.4</ele><time>2026-03-29T16:25:52.907Z</time></trkpt><trkpt lat="43.69063551126479" lon="11.06931765339114"><ele>65.2</ele><time>2026-03-29T16:25:53.907Z</time></trkpt><trkpt lat="43.69072246179959" lon="11.069275574645376"><ele>65.0</ele><time>2026-03-29T16:25:54.907Z</time></trkpt><trkpt lat="43.690815226442105" lon="11.069220221371962"><ele>65.0</ele><time>2026-03-29T16:25:55.907Z</time></trkpt><trkpt lat="43.69089975954349" lon="11.069170073595402"><ele>65.0</ele><time>2026-03-29T16:25:56.906Z</time></trkpt><trkpt lat="43.690995600594" lon="11.069130577188036"><ele>65.0</ele><time>2026-03-29T16:25:57.906Z</time></trkpt><trkpt lat="43.69109725123935" lon="11.069094037344383"><ele>65.0</ele><time>2026-03-29T16:25:58.906Z</time></trkpt><trkpt lat="43.691197395005034" lon="11.069074771795172"><ele>65.0</ele><time>2026-03-29T16:25:59.906Z</time></trkpt><trkpt lat="43.69130391523407" lon="11.069067994358862"><ele>65.0</ele><time>2026-03-29T16:26:00.906Z</time></trkpt><trkpt lat="43.691409938021984" lon="11.069069802062282"><ele>65.0</ele><time>2026-03-29T16:26:01.906Z</time></trkpt><trkpt lat="43.691524772750654" lon="11.069088722912145"><ele>65.0</ele><time>2026-03-29T16:26:02.906Z</time></trkpt><trkpt lat="43.691636578044616" lon="11.069127978322856"><ele>65.0</ele><time>2026-03-29T16:26:03.906Z</time></trkpt><trkpt lat="43.69172341416811" lon="11.069149630556677"><ele>65.0</ele><time>2026-03-29T16:26:04.906Z</time></trkpt><trkpt lat="43.691798894167064" lon="11.069180464406713"><ele>64.83333333333334</ele><time>2026-03-29T16:26:05.906Z</time></trkpt><trkpt lat="43.69187776753302" lon="11.0692151244335"><ele>64.66666666666667</ele><time>2026-03-29T16:26:06.906Z</time></trkpt><trkpt lat="43.69194037190036" lon="11.06923885380411"><ele>64.5</ele><time>2026-03-29T16:26:07.906Z</time></trkpt><trkpt lat="43.69200182463375" lon="11.069261815661024"><ele>64.33333333333333</ele><time>2026-03-29T16:26:08.906Z</time></trkpt><trkpt lat="43.69206643423657" lon="11.069284279307952"><ele>64.16666666666666</ele><time>2026-03-29T16:26:09.906Z</time></trkpt><trkpt lat="43.69215460566262" lon="11.06931392914831"><ele>64.0</ele><time>2026-03-29T16:26:10.906Z</time></trkpt><trkpt lat="43.69224131035" lon="11.069341464822374"><ele>63.6</ele><time>2026-03-29T16:26:11.906Z</time></trkpt><trkpt lat="43.69234509062141" lon="11.069375647171114"><ele>63.2</ele><time>2026-03-29T16:26:12.906Z</time></trkpt><trkpt lat="43.69244333611462" lon="11.069408215067467"><ele>62.800000000000004</ele><time>2026-03-29T16:26:13.906Z</time></trkpt><trkpt lat="43.6925321293517" lon="11.0694422471012"><ele>62.400000000000006</ele><time>2026-03-29T16:26:14.906Z</time></trkpt><trkpt lat="43.6926518426379" lon="11.069473094606309"><ele>62.0</ele><time>2026-03-29T16:26:15.906Z</time></trkpt><trkpt lat="43.69276915135485" lon="11.069498617047335"><ele>61.75</ele><time>2026-03-29T16:26:16.906Z</time></trkpt><trkpt lat="43.692876642306494" lon="11.069514201644166"><ele>61.5</ele><time>2026-03-29T16:26:17.906Z</time></trkpt><trkpt lat="43.69300370492872" lon="11.069531063725957"><ele>61.25</ele><time>2026-03-29T16:26:18.906Z</time></trkpt><trkpt lat="43.69311860812102" lon="11.069528240050417"><ele>61.0</ele><time>2026-03-29T16:26:19.906Z</time></trkpt><trkpt lat="43.69322666880684" lon="11.069513519449696"><ele>61.0</ele><time>2026-03-29T16:26:20.906Z</time></trkpt><trkpt lat="43.693342756358476" lon="11.069494650929602"><ele>61.0</ele><time>2026-03-29T16:26:21.906Z</time></trkpt><trkpt lat="43.69345872099705" lon="11.06947306501061"><ele>61.0</ele><time>2026-03-29T16:26:22.906Z</time></trkpt><trkpt lat="43.69357546073276" lon="11.069447842370641"><ele>61.0</ele><time>2026-03-29T16:26:23.906Z</time></trkpt><trkpt lat="43.69369322035153" lon="11.069412539362903"><ele>60.5</ele><time>2026-03-29T16:26:24.906Z</time></trkpt><trkpt lat="43.69382915892823" lon="11.069379220093388"><ele>60.0</ele><time>2026-03-29T16:26:25.906Z</time></trkpt><trkpt lat="43.69395798879956" lon="11.069345721861467"><ele>59.5</ele><time>2026-03-29T16:26:26.906Z</time></trkpt><trkpt lat="43.694094218859604" lon="11.069301448072599"><ele>59.0</ele><time>2026-03-29T16:26:27.906Z</time></trkpt><trkpt lat="43.6942285182527" lon="11.06925927597031"><ele>59.0</ele><time>2026-03-29T16:26:28.906Z</time></trkpt><trkpt lat="43.69437690565332" lon="11.069212216503793"><ele>59.0</ele><time>2026-03-29T16:26:29.906Z</time></trkpt><trkpt lat="43.69453120488658" lon="11.069156007211564"><ele>59.0</ele><time>2026-03-29T16:26:30.906Z</time></trkpt><trkpt lat="43.694692464936914" lon="11.069134061288727"><ele>59.66666666666667</ele><time>2026-03-29T16:26:31.906Z</time></trkpt><trkpt lat="43.69485258467553" lon="11.06907063690327"><ele>60.33333333333333</ele><time>2026-03-29T16:26:32.906Z</time></trkpt><trkpt lat="43.69502808033806" lon="11.069038867220552"><ele>61.0</ele><time>2026-03-29T16:26:33.906Z</time></trkpt><trkpt lat="43.69521666122128" lon="11.06899453223759"><ele>60.0</ele><time>2026-03-29T16:26:34.906Z</time></trkpt><trkpt lat="43.695384074843496" lon="11.068956997061038"><ele>59.0</ele><time>2026-03-29T16:26:35.906Z</time></trkpt><trkpt lat="43.69555191811574" lon="11.068916194492596"><ele>58.0</ele><time>2026-03-29T16:26:36.906Z</time></trkpt><trkpt lat="43.695723288436874" lon="11.068878094459723"><ele>58.0</ele><time>2026-03-29T16:26:37.906Z</time></trkpt><trkpt lat="43.695892055833845" lon="11.068847756488076"><ele>58.0</ele><time>2026-03-29T16:26:38.908Z</time></trkpt><trkpt lat="43.69607251338185" lon="11.06881219085735"><ele>58.0</ele><time>2026-03-29T16:26:39.908Z</time></trkpt><trkpt lat="43.69624890286064" lon="11.068774312338249"><ele>58.33333333333333</ele><time>2026-03-29T16:26:40.908Z</time></trkpt><trkpt lat="43.69641180116103" lon="11.06874388550864"><ele>58.66666666666667</ele><time>2026-03-29T16:26:41.908Z</time></trkpt><trkpt lat="43.69656037675263" lon="11.068714143842941"><ele>59.0</ele><time>2026-03-29T16:26:42.908Z</time></trkpt><trkpt lat="43.69670770268555" lon="11.068694547553383"><ele>59.0</ele><time>2026-03-29T16:26:43.908Z</time></trkpt><trkpt lat="43.696844484339806" lon="11.068692633226762"><ele>59.0</ele><time>2026-03-29T16:26:44.909Z</time></trkpt><trkpt lat="43.69696954751101" lon="11.06868178372719"><ele>59.0</ele><time>2026-03-29T16:26:45.909Z</time></trkpt><trkpt lat="43.697082177763356" lon="11.068677909024585"><ele>59.0</ele><time>2026-03-29T16:26:46.908Z</time></trkpt><trkpt lat="43.69721080438008" lon="11.06868458620094"><ele>59.333333333333336</ele><time>2026-03-29T16:26:47.909Z</time></trkpt><trkpt lat="43.69734754886687" lon="11.068683784706957"><ele>59.66666666666667</ele><time>2026-03-29T16:26:48.908Z</time></trkpt><trkpt lat="43.69749597884056" lon="11.068686914584939"><ele>60.0</ele><time>2026-03-29T16:26:49.908Z</time></trkpt><trkpt lat="43.69766328519053" lon="11.068683706763254"><ele>60.33333333333333</ele><time>2026-03-29T16:26:50.909Z</time></trkpt><trkpt lat="43.697841028201836" lon="11.068697578412118"><ele>60.666666666666664</ele><time>2026-03-29T16:26:51.908Z</time></trkpt><trkpt lat="43.69801605245545" lon="11.068701668764012"><ele>61.0</ele><time>2026-03-29T16:26:52.908Z</time></trkpt><trkpt lat="43.698185894756726" lon="11.068708173586955"><ele>61.0</ele><time>2026-03-29T16:26:53.908Z</time></trkpt><trkpt lat="43.69836025271037" lon="11.068706683677947"><ele>61.0</ele><time>2026-03-29T16:26:54.908Z</time></trkpt><trkpt lat="43.69853142194633" lon="11.068702525556608"><ele>61.0</ele><time>2026-03-29T16:26:55.908Z</time></trkpt><trkpt lat="43.69868942972981" lon="11.068702743637537"><ele>60.33333333333333</ele><time>2026-03-29T16:26:56.908Z</time></trkpt><trkpt lat="43.698857598344794" lon="11.0687052895396"><ele>59.66666666666667</ele><time>2026-03-29T16:26:57.908Z</time></trkpt><trkpt lat="43.69902555988827" lon="11.068707135392135"><ele>59.0</ele><time>2026-03-29T16:26:58.908Z</time></trkpt><trkpt lat="43.69919847222954" lon="11.068696516935667"><ele>59.0</ele><time>2026-03-29T16:26:59.908Z</time></trkpt><trkpt lat="43.69937436802769" lon="11.068693424584726"><ele>59.0</ele><time>2026-03-29T16:27:00.908Z</time></trkpt><trkpt lat="43.69953202136539" lon="11.068665592862686"><ele>59.0</ele><time>2026-03-29T16:27:01.908Z</time></trkpt><trkpt lat="43.69967890205318" lon="11.068638326982331"><ele>58.5</ele><time>2026-03-29T16:27:02.908Z</time></trkpt><trkpt lat="43.69980662738676" lon="11.068614679907807"><ele>58.0</ele><time>2026-03-29T16:27:03.908Z</time></trkpt><trkpt lat="43.699929232718375" lon="11.068592039656709"><ele>57.5</ele><time>2026-03-29T16:27:04.908Z</time></trkpt><trkpt lat="43.70004036697989" lon="11.068552583933231"><ele>57.0</ele><time>2026-03-29T16:27:05.908Z</time></trkpt><trkpt lat="43.700165332732524" lon="11.068575316779558"><ele>57.75</ele><time>2026-03-29T16:27:06.908Z</time></trkpt><trkpt lat="43.70029013072897" lon="11.068547759873157"><ele>58.5</ele><time>2026-03-29T16:27:07.908Z</time></trkpt><trkpt lat="43.70041527643786" lon="11.068519434894606"><ele>59.25</ele><time>2026-03-29T16:27:08.908Z</time></trkpt><trkpt lat="43.70054644207065" lon="11.068489197825121"><ele>60.0</ele><time>2026-03-29T16:27:09.908Z</time></trkpt><trkpt lat="43.7006747900501" lon="11.068463965967807"><ele>60.0</ele><time>2026-03-29T16:27:10.908Z</time></trkpt><trkpt lat="43.70080184767349" lon="11.068431341883993"><ele>60.0</ele><time>2026-03-29T16:27:11.908Z</time></trkpt><trkpt lat="43.700925319202995" lon="11.068406500435003"><ele>60.0</ele><time>2026-03-29T16:27:12.908Z</time></trkpt><trkpt lat="43.70104495796371" lon="11.068382943771836"><ele>60.0</ele><time>2026-03-29T16:27:13.908Z</time></trkpt><trkpt lat="43.70116692503342" lon="11.068361937661845"><ele>60.0</ele><time>2026-03-29T16:27:14.908Z</time></trkpt><trkpt lat="43.70128644898533" lon="11.068346850042523"><ele>60.0</ele><time>2026-03-29T16:27:15.908Z</time></trkpt><trkpt lat="43.70140230593777" lon="11.06833740456014"><ele>60.0</ele><time>2026-03-29T16:27:16.908Z</time></trkpt><trkpt lat="43.701515121920714" lon="11.0683308461062"><ele>60.0</ele><time>2026-03-29T16:27:17.908Z</time></trkpt><trkpt lat="43.70163790013977" lon="11.0683187238218"><ele>60.0</ele><time>2026-03-29T16:27:18.908Z</time></trkpt><trkpt lat="43.701766225697206" lon="11.06830231099631"><ele>60.0</ele><time>2026-03-29T16:27:19.908Z</time></trkpt><trkpt lat="43.70189975045351" lon="11.06829354816479"><ele>60.0</ele><time>2026-03-29T16:27:20.908Z</time></trkpt><trkpt lat="43.70204917643614" lon="11.068278130877808"><ele>60.0</ele><time>2026-03-29T16:27:21.908Z</time></trkpt><trkpt lat="43.70219763720382" lon="11.068250760152589"><ele>58.0</ele><time>2026-03-29T16:27:22.908Z</time></trkpt><trkpt lat="43.70234496767025" lon="11.068221791004396"><ele>56.0</ele><time>2026-03-29T16:27:23.908Z</time></trkpt><trkpt lat="43.70251573971768" lon="11.068206139057558"><ele>54.0</ele><time>2026-03-29T16:27:24.908Z</time></trkpt><trkpt lat="43.70267197801229" lon="11.06820174969814"><ele>53.25</ele><time>2026-03-29T16:27:25.908Z</time></trkpt><trkpt lat="43.70281582847071" lon="11.068187052896256"><ele>52.5</ele><time>2026-03-29T16:27:26.908Z</time></trkpt><trkpt lat="43.70295201419615" lon="11.068181961956567"><ele>51.75</ele><time>2026-03-29T16:27:27.908Z</time></trkpt><trkpt lat="43.70309542976213" lon="11.06817115458445"><ele>51.0</ele><time>2026-03-29T16:27:28.908Z</time></trkpt><trkpt lat="43.70324448677853" lon="11.068166494445586"><ele>51.0</ele><time>2026-03-29T16:27:29.908Z</time></trkpt><trkpt lat="43.70339668923887" lon="11.068172346782433"><ele>51.0</ele><time>2026-03-29T16:27:30.907Z</time></trkpt><trkpt lat="43.703553306700115" lon="11.068190077460882"><ele>51.0</ele><time>2026-03-29T16:27:31.907Z</time></trkpt><trkpt lat="43.70372081964165" lon="11.068220394716926"><ele>51.33333333333333</ele><time>2026-03-29T16:27:32.907Z</time></trkpt><trkpt lat="43.70389731233318" lon="11.068257375414369"><ele>51.666666666666664</ele><time>2026-03-29T16:27:33.907Z</time></trkpt><trkpt lat="43.70407497962041" lon="11.06829901876079"><ele>52.0</ele><time>2026-03-29T16:27:34.907Z</time></trkpt><trkpt lat="43.704257047585486" lon="11.06835223478852"><ele>52.33333333333333</ele><time>2026-03-29T16:27:35.907Z</time></trkpt><trkpt lat="43.70442983728896" lon="11.068434479542754"><ele>52.66666666666667</ele><time>2026-03-29T16:27:36.907Z</time></trkpt><trkpt lat="43.704593385730625" lon="11.068537755604451"><ele>53.0</ele><time>2026-03-29T16:27:37.907Z</time></trkpt><trkpt lat="43.70475686059007" lon="11.06866199208588"><ele>53.0</ele><time>2026-03-29T16:27:38.907Z</time></trkpt><trkpt lat="43.70493539898364" lon="11.068795178903077"><ele>53.0</ele><time>2026-03-29T16:27:39.907Z</time></trkpt><trkpt lat="43.70511012229651" lon="11.068931380584837"><ele>53.0</ele><time>2026-03-29T16:27:40.907Z</time></trkpt><trkpt lat="43.70530166015689" lon="11.069076054222194"><ele>51.66666666666667</ele><time>2026-03-29T16:27:41.907Z</time></trkpt><trkpt lat="43.70549657625689" lon="11.069222754955247"><ele>50.33333333333333</ele><time>2026-03-29T16:27:42.907Z</time></trkpt><trkpt lat="43.7056804456706" lon="11.06937097391328"><ele>49.0</ele><time>2026-03-29T16:27:43.907Z</time></trkpt><trkpt lat="43.70587684053832" lon="11.069524990559378"><ele>49.0</ele><time>2026-03-29T16:27:44.907Z</time></trkpt><trkpt lat="43.70606413276114" lon="11.069669497553289"><ele>49.0</ele><time>2026-03-29T16:27:45.907Z</time></trkpt><trkpt lat="43.70623216365786" lon="11.0698016599997"><ele>49.0</ele><time>2026-03-29T16:27:46.907Z</time></trkpt><trkpt lat="43.70639418069277" lon="11.06991921203903"><ele>49.666666666666664</ele><time>2026-03-29T16:27:47.907Z</time></trkpt><trkpt lat="43.70654736512413" lon="11.070048089730879"><ele>50.33333333333333</ele><time>2026-03-29T16:27:48.907Z</time></trkpt><trkpt lat="43.70667630723133" lon="11.070167243994009"><ele>51.0</ele><time>2026-03-29T16:27:49.907Z</time></trkpt><trkpt lat="43.706792646997386" lon="11.070305929293927"><ele>50.66666666666667</ele><time>2026-03-29T16:27:50.907Z</time></trkpt><trkpt lat="43.70691471119795" lon="11.070474837320836"><ele>50.333333333333336</ele><time>2026-03-29T16:27:51.907Z</time></trkpt><trkpt lat="43.707019642631316" lon="11.070646014273388"><ele>50.0</ele><time>2026-03-29T16:27:52.907Z</time></trkpt><trkpt lat="43.70711847589363" lon="11.070810813002822"><ele>50.00000000000001</ele><time>2026-03-29T16:27:53.907Z</time></trkpt><trkpt lat="43.707193626279036" lon="11.070950692205676"><ele>50.0</ele><time>2026-03-29T16:27:54.907Z</time></trkpt><trkpt lat="43.70725544621461" lon="11.071066653671766"><ele>50.0</ele><time>2026-03-29T16:27:55.907Z</time></trkpt><trkpt lat="43.707296442578944" lon="11.071158145320021"><ele>50.0</ele><time>2026-03-29T16:27:56.907Z</time></trkpt><trkpt lat="43.707323046478805" lon="11.071247178561409"><ele>50.00000000000001</ele><time>2026-03-29T16:27:57.907Z</time></trkpt><trkpt lat="43.70733703976197" lon="11.071340239272851"><ele>50.0</ele><time>2026-03-29T16:27:58.907Z</time></trkpt><trkpt lat="43.70734942683305" lon="11.071443202725376"><ele>50.0</ele><time>2026-03-29T16:27:59.907Z</time></trkpt><trkpt lat="43.707369739348934" lon="11.071552731249897"><ele>50.0</ele><time>2026-03-29T16:28:00.907Z</time></trkpt><trkpt lat="43.70746427616387" lon="11.071702584149763"><ele>50.0</ele><time>2026-03-29T16:28:02.907Z</time></trkpt><trkpt lat="43.70753150320328" lon="11.071727192814592"><ele>50.0</ele><time>2026-03-29T16:28:03.907Z</time></trkpt><trkpt lat="43.707615443823784" lon="11.071716664878842"><ele>50.0</ele><time>2026-03-29T16:28:04.907Z</time></trkpt><trkpt lat="43.707693623953986" lon="11.07164798988314"><ele>50.2</ele><time>2026-03-29T16:28:05.907Z</time></trkpt><trkpt lat="43.707747088439305" lon="11.071554749329884"><ele>50.4</ele><time>2026-03-29T16:28:06.907Z</time></trkpt><trkpt lat="43.70776836728008" lon="11.071450303555972"><ele>50.599999999999994</ele><time>2026-03-29T16:28:07.907Z</time></trkpt><trkpt lat="43.707789435732465" lon="11.071307846044641"><ele>50.8</ele><time>2026-03-29T16:28:08.907Z</time></trkpt><trkpt lat="43.707789524969684" lon="11.071151481027417"><ele>51.0</ele><time>2026-03-29T16:28:09.907Z</time></trkpt><trkpt lat="43.7078087254266" lon="11.070992276764288"><ele>51.0</ele><time>2026-03-29T16:28:10.907Z</time></trkpt><trkpt lat="43.70787204735751" lon="11.070838242513414"><ele>51.0</ele><time>2026-03-29T16:28:11.907Z</time></trkpt><trkpt lat="43.70797915522542" lon="11.070690175911585"><ele>51.0</ele><time>2026-03-29T16:28:12.907Z</time></trkpt><trkpt lat="43.70809696026024" lon="11.07050742175576"><ele>50.33333333333333</ele><time>2026-03-29T16:28:13.907Z</time></trkpt><trkpt lat="43.708227281503284" lon="11.070296023573942"><ele>49.666666666666664</ele><time>2026-03-29T16:28:14.907Z</time></trkpt><trkpt lat="43.70835934664658" lon="11.070071799425603"><ele>49.0</ele><time>2026-03-29T16:28:15.907Z</time></trkpt><trkpt lat="43.70848971011585" lon="11.069850412037638"><ele>49.5</ele><time>2026-03-29T16:28:16.907Z</time></trkpt><trkpt lat="43.70862060897247" lon="11.069596585268387"><ele>50.0</ele><time>2026-03-29T16:28:17.907Z</time></trkpt><trkpt lat="43.7087296157156" lon="11.069323448363384"><ele>49.0</ele><time>2026-03-29T16:28:18.907Z</time></trkpt><trkpt lat="43.70883596367248" lon="11.069019965323593"><ele>48.0</ele><time>2026-03-29T16:28:19.907Z</time></trkpt><trkpt lat="43.708912350241874" lon="11.06871135278442"><ele>48.0</ele><time>2026-03-29T16:28:20.907Z</time></trkpt><trkpt lat="43.70896510431949" lon="11.068380159519094"><ele>48.0</ele><time>2026-03-29T16:28:21.907Z</time></trkpt><trkpt lat="43.70900661388124" lon="11.068059504471462"><ele>48.0</ele><time>2026-03-29T16:28:22.907Z</time></trkpt><trkpt lat="43.709041550734504" lon="11.067732516042224"><ele>48.0</ele><time>2026-03-29T16:28:23.907Z</time></trkpt><trkpt lat="43.709064067430425" lon="11.06741974076267"><ele>47.5</ele><time>2026-03-29T16:28:24.907Z</time></trkpt><trkpt lat="43.70909194585975" lon="11.067108562964723"><ele>47.0</ele><time>2026-03-29T16:28:25.907Z</time></trkpt><trkpt lat="43.70912639748203" lon="11.066793691929512"><ele>47.0</ele><time>2026-03-29T16:28:26.907Z</time></trkpt><trkpt lat="43.70916651850873" lon="11.066493052194993"><ele>47.0</ele><time>2026-03-29T16:28:27.907Z</time></trkpt><trkpt lat="43.70920155190892" lon="11.066196720810755"><ele>47.0</ele><time>2026-03-29T16:28:28.907Z</time></trkpt><trkpt lat="43.709233363736985" lon="11.065927370325177"><ele>47.33333333333333</ele><time>2026-03-29T16:28:29.906Z</time></trkpt><trkpt lat="43.70925562082751" lon="11.06566469805625"><ele>47.666666666666664</ele><time>2026-03-29T16:28:30.906Z</time></trkpt><trkpt lat="43.70927535327136" lon="11.06541564026135"><ele>48.0</ele><time>2026-03-29T16:28:31.906Z</time></trkpt><trkpt lat="43.709317611315626" lon="11.06515418699803"><ele>48.0</ele><time>2026-03-29T16:28:32.906Z</time></trkpt><trkpt lat="43.709357847172434" lon="11.064880509286558"><ele>48.0</ele><time>2026-03-29T16:28:33.906Z</time></trkpt><trkpt lat="43.70942204927974" lon="11.064626811947953"><ele>48.0</ele><time>2026-03-29T16:28:34.906Z</time></trkpt><trkpt lat="43.70949521833688" lon="11.064363185000225"><ele>48.0</ele><time>2026-03-29T16:28:35.906Z</time></trkpt><trkpt lat="43.709588976008874" lon="11.064112050249305"><ele>48.0</ele><time>2026-03-29T16:28:36.906Z</time></trkpt><trkpt lat="43.70970395100054" lon="11.063878680664878"><ele>48.0</ele><time>2026-03-29T16:28:37.906Z</time></trkpt><trkpt lat="43.709825542324154" lon="11.063659967399845"><ele>48.0</ele><time>2026-03-29T16:28:38.906Z</time></trkpt><trkpt lat="43.70994088480986" lon="11.063468020413248"><ele>48.0</ele><time>2026-03-29T16:28:39.906Z</time></trkpt><trkpt lat="43.710059484958705" lon="11.06330595568736"><ele>48.0</ele><time>2026-03-29T16:28:40.906Z</time></trkpt><trkpt lat="43.71018029669698" lon="11.063163800131573"><ele>47.75</ele><time>2026-03-29T16:28:41.906Z</time></trkpt><trkpt lat="43.710296461182175" lon="11.063045033799003"><ele>47.5</ele><time>2026-03-29T16:28:42.906Z</time></trkpt><trkpt lat="43.710405612942786" lon="11.062937235458952"><ele>47.25</ele><time>2026-03-29T16:28:43.906Z</time></trkpt><trkpt lat="43.710502708316476" lon="11.062842533175573"><ele>47.0</ele><time>2026-03-29T16:28:44.908Z</time></trkpt><trkpt lat="43.710591129094986" lon="11.062759298744968"><ele>47.0</ele><time>2026-03-29T16:28:45.908Z</time></trkpt><trkpt lat="43.710667361142505" lon="11.062697167913432"><ele>47.0</ele><time>2026-03-29T16:28:46.908Z</time></trkpt><trkpt lat="43.710726082901026" lon="11.062646931941597"><ele>47.0</ele><time>2026-03-29T16:28:47.909Z</time></trkpt><trkpt lat="43.71081061108124" lon="11.062615120901274"><ele>47.0</ele><time>2026-03-29T16:28:49.909Z</time></trkpt><trkpt lat="43.7108897291595" lon="11.062636564767844"><ele>47.0</ele><time>2026-03-29T16:28:51.909Z</time></trkpt><trkpt lat="43.71097592617579" lon="11.062672606905023"><ele>47.0</ele><time>2026-03-29T16:28:53.909Z</time></trkpt><trkpt lat="43.71110089241965" lon="11.062681571749675"><ele>47.166666666666664</ele><time>2026-03-29T16:28:55.909Z</time></trkpt><trkpt lat="43.7111687754037" lon="11.062641246819304"><ele>47.33333333333333</ele><time>2026-03-29T16:28:56.909Z</time></trkpt><trkpt lat="43.71122924843392" lon="11.06259071235247"><ele>47.5</ele><time>2026-03-29T16:28:57.909Z</time></trkpt><trkpt lat="43.71128652607304" lon="11.062535523747005"><ele>47.666666666666664</ele><time>2026-03-29T16:28:58.909Z</time></trkpt><trkpt lat="43.71133628216176" lon="11.06239386586059"><ele>47.833333333333336</ele><time>2026-03-29T16:29:00.909Z</time></trkpt><trkpt lat="43.71133735489057" lon="11.062302845673537"><ele>48.0</ele><time>2026-03-29T16:29:01.909Z</time></trkpt><trkpt lat="43.71132837233086" lon="11.062211083347089"><ele>48.0</ele><time>2026-03-29T16:29:02.909Z</time></trkpt><trkpt lat="43.71130921443258" lon="11.062104279012843"><ele>48.0</ele><time>2026-03-29T16:29:03.909Z</time></trkpt><trkpt lat="43.71126837183695" lon="11.062024156186515"><ele>48.0</ele><time>2026-03-29T16:29:04.909Z</time></trkpt><trkpt lat="43.71121935799521" lon="11.061950041796127"><ele>48.0</ele><time>2026-03-29T16:29:05.909Z</time></trkpt><trkpt lat="43.71116321399416" lon="11.061875523939806"><ele>48.0</ele><time>2026-03-29T16:29:06.909Z</time></trkpt><trkpt lat="43.711110771349674" lon="11.061778403826187"><ele>48.0</ele><time>2026-03-29T16:29:07.909Z</time></trkpt><trkpt lat="43.711088225698376" lon="11.06168365733274"><ele>48.0</ele><time>2026-03-29T16:29:08.909Z</time></trkpt><trkpt lat="43.71108711530441" lon="11.061569781657019"><ele>48.0</ele><time>2026-03-29T16:29:09.909Z</time></trkpt><trkpt lat="43.71110895556842" lon="11.061444450084663"><ele>48.0</ele><time>2026-03-29T16:29:10.908Z</time></trkpt><trkpt lat="43.71114640684534" lon="11.06131849030922"><ele>48.0</ele><time>2026-03-29T16:29:11.908Z</time></trkpt><trkpt lat="43.71119353828876" lon="11.061173594558165"><ele>48.0</ele><time>2026-03-29T16:29:12.908Z</time></trkpt><trkpt lat="43.71124086952277" lon="11.06101474537856"><ele>48.0</ele><time>2026-03-29T16:29:13.908Z</time></trkpt><trkpt lat="43.71128602282092" lon="11.060874758979434"><ele>48.0</ele><time>2026-03-29T16:29:14.908Z</time></trkpt><trkpt lat="43.71133252867975" lon="11.060724520062257"><ele>48.0</ele><time>2026-03-29T16:29:15.908Z</time></trkpt><trkpt lat="43.71137354820662" lon="11.0605734033135"><ele>48.0</ele><time>2026-03-29T16:29:16.908Z</time></trkpt><trkpt lat="43.71142614469756" lon="11.060411367326022"><ele>48.0</ele><time>2026-03-29T16:29:17.908Z</time></trkpt><trkpt lat="43.71147987927307" lon="11.060245997583634"><ele>48.0</ele><time>2026-03-29T16:29:18.908Z</time></trkpt><trkpt lat="43.7115373670493" lon="11.060079990183914"><ele>48.0</ele><time>2026-03-29T16:29:19.908Z</time></trkpt><trkpt lat="43.71157157100727" lon="11.059900206935527"><ele>48.0</ele><time>2026-03-29T16:29:20.908Z</time></trkpt><trkpt lat="43.711604774119046" lon="11.059709393190868"><ele>48.0</ele><time>2026-03-29T16:29:21.908Z</time></trkpt><trkpt lat="43.71161795240945" lon="11.059535475469891"><ele>48.0</ele><time>2026-03-29T16:29:22.908Z</time></trkpt><trkpt lat="43.71161127118778" lon="11.059373312323109"><ele>48.0</ele><time>2026-03-29T16:29:23.908Z</time></trkpt><trkpt lat="43.71159878214803" lon="11.059195571116351"><ele>48.0</ele><time>2026-03-29T16:29:24.908Z</time></trkpt><trkpt lat="43.71156893395509" lon="11.05904584444956"><ele>48.0</ele><time>2026-03-29T16:29:25.908Z</time></trkpt><trkpt lat="43.7115310969719" lon="11.058903209888221"><ele>48.0</ele><time>2026-03-29T16:29:26.908Z</time></trkpt><trkpt lat="43.71148974956818" lon="11.058781038619784"><ele>48.0</ele><time>2026-03-29T16:29:27.908Z</time></trkpt><trkpt lat="43.711451564363685" lon="11.058656443081755"><ele>48.0</ele><time>2026-03-29T16:29:28.908Z</time></trkpt><trkpt lat="43.711418803177175" lon="11.058538120356499"><ele>48.0</ele><time>2026-03-29T16:29:29.908Z</time></trkpt><trkpt lat="43.711394793124256" lon="11.058414878498258"><ele>48.0</ele><time>2026-03-29T16:29:30.908Z</time></trkpt><trkpt lat="43.71138679302147" lon="11.058276080643738"><ele>48.0</ele><time>2026-03-29T16:29:31.908Z</time></trkpt><trkpt lat="43.71139198244449" lon="11.058139708610918"><ele>48.0</ele><time>2026-03-29T16:29:32.908Z</time></trkpt><trkpt lat="43.7114268714892" lon="11.058020173381625"><ele>48.0</ele><time>2026-03-29T16:29:33.908Z</time></trkpt><trkpt lat="43.71147870235983" lon="11.057922117565067"><ele>48.0</ele><time>2026-03-29T16:29:34.908Z</time></trkpt><trkpt lat="43.711551579433795" lon="11.057830918711756"><ele>48.0</ele><time>2026-03-29T16:29:35.908Z</time></trkpt><trkpt lat="43.71164047854138" lon="11.057766175142053"><ele>48.0</ele><time>2026-03-29T16:29:36.908Z</time></trkpt><trkpt lat="43.71174629734077" lon="11.057737869159327"><ele>48.0</ele><time>2026-03-29T16:29:37.908Z</time></trkpt><trkpt lat="43.71185604342585" lon="11.057751432233363"><ele>48.0</ele><time>2026-03-29T16:29:38.908Z</time></trkpt><trkpt lat="43.71195839126425" lon="11.05778916294598"><ele>48.0</ele><time>2026-03-29T16:29:39.908Z</time></trkpt><trkpt lat="43.71204226320857" lon="11.057855585408257"><ele>48.599999999999994</ele><time>2026-03-29T16:29:40.908Z</time></trkpt><trkpt lat="43.71210942953982" lon="11.05795123769928"><ele>49.199999999999996</ele><time>2026-03-29T16:29:41.908Z</time></trkpt><trkpt lat="43.71215598037444" lon="11.05808152164817"><ele>49.8</ele><time>2026-03-29T16:29:42.908Z</time></trkpt><trkpt lat="43.71218504534553" lon="11.058235783205157"><ele>50.4</ele><time>2026-03-29T16:29:43.908Z</time></trkpt><trkpt lat="43.712210478855155" lon="11.058409302248787"><ele>51.0</ele><time>2026-03-29T16:29:44.908Z</time></trkpt><trkpt lat="43.71224007918583" lon="11.058618046220193"><ele>51.0</ele><time>2026-03-29T16:29:45.908Z</time></trkpt><trkpt lat="43.71228002540433" lon="11.058858920422969"><ele>51.0</ele><time>2026-03-29T16:29:46.908Z</time></trkpt><trkpt lat="43.712318311403955" lon="11.059132816243599"><ele>51.0</ele><time>2026-03-29T16:29:47.908Z</time></trkpt><trkpt lat="43.712351890607586" lon="11.059444151255738"><ele>50.5</ele><time>2026-03-29T16:29:48.908Z</time></trkpt><trkpt lat="43.71237546781657" lon="11.059795556343326"><ele>50.0</ele><time>2026-03-29T16:29:49.908Z</time></trkpt><trkpt lat="43.712386380989024" lon="11.060169043183667"><ele>50.0</ele><time>2026-03-29T16:29:50.908Z</time></trkpt><trkpt lat="43.712383726129616" lon="11.0605635187764"><ele>50.0</ele><time>2026-03-29T16:29:51.908Z</time></trkpt><trkpt lat="43.71238198584023" lon="11.06099347847831"><ele>50.5</ele><time>2026-03-29T16:29:52.908Z</time></trkpt><trkpt lat="43.71236827558466" lon="11.061401279907406"><ele>51.0</ele><time>2026-03-29T16:29:53.908Z</time></trkpt><trkpt lat="43.71234764007351" lon="11.06180301445911"><ele>53.0</ele><time>2026-03-29T16:29:54.908Z</time></trkpt><trkpt lat="43.712320866132586" lon="11.062210979190512"><ele>55.0</ele><time>2026-03-29T16:29:55.908Z</time></trkpt><trkpt lat="43.712277730428895" lon="11.062618686323745"><ele>60.5</ele><time>2026-03-29T16:29:56.908Z</time></trkpt><trkpt lat="43.712221220621466" lon="11.063010509894838"><ele>66.0</ele><time>2026-03-29T16:29:57.908Z</time></trkpt><trkpt lat="43.71216869554975" lon="11.063409778705129"><ele>71.0</ele><time>2026-03-29T16:29:58.908Z</time></trkpt><trkpt lat="43.712086217710606" lon="11.063830151917173"><ele>76.0</ele><time>2026-03-29T16:29:59.908Z</time></trkpt><trkpt lat="43.71201962882733" lon="11.064228763636585"><ele>79.0</ele><time>2026-03-29T16:30:00.908Z</time></trkpt><trkpt lat="43.711960504052854" lon="11.064588123792811"><ele>82.0</ele><time>2026-03-29T16:30:01.908Z</time></trkpt><trkpt lat="43.71189202787563" lon="11.06497433135867"><ele>71.5</ele><time>2026-03-29T16:30:02.908Z</time></trkpt><trkpt lat="43.71184002691271" lon="11.065360343098803"><ele>61.0</ele><time>2026-03-29T16:30:03.908Z</time></trkpt><trkpt lat="43.711785459788096" lon="11.065746432692084"><ele>63.0</ele><time>2026-03-29T16:30:04.908Z</time></trkpt><trkpt lat="43.71176220898904" lon="11.066119692417205"><ele>65.0</ele><time>2026-03-29T16:30:05.908Z</time></trkpt><trkpt lat="43.71175740432873" lon="11.06648323274958"><ele>66.5</ele><time>2026-03-29T16:30:06.908Z</time></trkpt><trkpt lat="43.71177953312955" lon="11.066867515616003"><ele>68.0</ele><time>2026-03-29T16:30:07.908Z</time></trkpt><trkpt lat="43.71182023634378" lon="11.067249099606322"><ele>69.0</ele><time>2026-03-29T16:30:08.907Z</time></trkpt><trkpt lat="43.7118793376739" lon="11.06761701038863"><ele>70.0</ele><time>2026-03-29T16:30:09.907Z</time></trkpt><trkpt lat="43.711956842235935" lon="11.067971933481756"><ele>72.0</ele><time>2026-03-29T16:30:10.907Z</time></trkpt><trkpt lat="43.71204495356177" lon="11.06833784308154"><ele>74.0</ele><time>2026-03-29T16:30:11.907Z</time></trkpt><trkpt lat="43.71215345439388" lon="11.068678991013513"><ele>74.0</ele><time>2026-03-29T16:30:12.907Z</time></trkpt><trkpt lat="43.71226936833692" lon="11.06902611929292"><ele>74.0</ele><time>2026-03-29T16:30:13.907Z</time></trkpt><trkpt lat="43.71239953102529" lon="11.069351181452697"><ele>69.5</ele><time>2026-03-29T16:30:14.907Z</time></trkpt><trkpt lat="43.712554649605345" lon="11.069665964519633"><ele>65.0</ele><time>2026-03-29T16:30:15.907Z</time></trkpt><trkpt lat="43.712724729474125" lon="11.069965681239573"><ele>64.5</ele><time>2026-03-29T16:30:16.907Z</time></trkpt><trkpt lat="43.71291138799848" lon="11.070256161976422"><ele>64.0</ele><time>2026-03-29T16:30:17.907Z</time></trkpt><trkpt lat="43.713113864478544" lon="11.070527319379798"><ele>66.5</ele><time>2026-03-29T16:30:18.907Z</time></trkpt><trkpt lat="43.71333829028536" lon="11.070785610425327"><ele>69.0</ele><time>2026-03-29T16:30:19.907Z</time></trkpt><trkpt lat="43.71357210274981" lon="11.071027495250684"><ele>69.0</ele><time>2026-03-29T16:30:20.907Z</time></trkpt><trkpt lat="43.713805636580524" lon="11.071254398517762"><ele>69.0</ele><time>2026-03-29T16:30:21.907Z</time></trkpt><trkpt lat="43.714038941948424" lon="11.071480694876008"><ele>70.5</ele><time>2026-03-29T16:30:22.907Z</time></trkpt><trkpt lat="43.71427422572981" lon="11.071703613005894"><ele>72.0</ele><time>2026-03-29T16:30:23.907Z</time></trkpt><trkpt lat="43.714500803026375" lon="11.07192577267406"><ele>72.0</ele><time>2026-03-29T16:30:24.907Z</time></trkpt><trkpt lat="43.71473770767339" lon="11.07216016243295"><ele>72.0</ele><time>2026-03-29T16:30:25.907Z</time></trkpt><trkpt lat="43.714975412968926" lon="11.0723817535961"><ele>73.0</ele><time>2026-03-29T16:30:26.907Z</time></trkpt><trkpt lat="43.7152066608335" lon="11.072622602915036"><ele>74.0</ele><time>2026-03-29T16:30:27.907Z</time></trkpt><trkpt lat="43.71544274918819" lon="11.072838640636306"><ele>74.0</ele><time>2026-03-29T16:30:28.907Z</time></trkpt><trkpt lat="43.71568012718788" lon="11.07307900028588"><ele>74.0</ele><time>2026-03-29T16:30:29.907Z</time></trkpt><trkpt lat="43.71591825040366" lon="11.073314725674832"><ele>72.5</ele><time>2026-03-29T16:30:30.907Z</time></trkpt><trkpt lat="43.71617445302738" lon="11.07354630438565"><ele>71.0</ele><time>2026-03-29T16:30:31.907Z</time></trkpt><trkpt lat="43.716428949053615" lon="11.073781074093729"><ele>71.0</ele><time>2026-03-29T16:30:32.907Z</time></trkpt><trkpt lat="43.71667248423495" lon="11.074005216786212"><ele>71.0</ele><time>2026-03-29T16:30:33.907Z</time></trkpt><trkpt lat="43.71691632716681" lon="11.074235922442327"><ele>73.0</ele><time>2026-03-29T16:30:34.907Z</time></trkpt><trkpt lat="43.71715137491167" lon="11.074473205934085"><ele>75.0</ele><time>2026-03-29T16:30:35.907Z</time></trkpt><trkpt lat="43.71739946385806" lon="11.074713458300915"><ele>76.5</ele><time>2026-03-29T16:30:36.907Z</time></trkpt><trkpt lat="43.7176494044549" lon="11.074952328497124"><ele>78.0</ele><time>2026-03-29T16:30:37.907Z</time></trkpt><trkpt lat="43.71789558017578" lon="11.075183721213527"><ele>78.5</ele><time>2026-03-29T16:30:38.907Z</time></trkpt><trkpt lat="43.71814084467548" lon="11.075413742787976"><ele>79.0</ele><time>2026-03-29T16:30:39.907Z</time></trkpt><trkpt lat="43.71837904985911" lon="11.075645026929648"><ele>79.5</ele><time>2026-03-29T16:30:40.907Z</time></trkpt><trkpt lat="43.71862274939936" lon="11.075877583403555"><ele>80.0</ele><time>2026-03-29T16:30:41.907Z</time></trkpt><trkpt lat="43.718866124569736" lon="11.076111567991676"><ele>80.0</ele><time>2026-03-29T16:30:42.907Z</time></trkpt><trkpt lat="43.719102444354725" lon="11.076339751727904"><ele>80.0</ele><time>2026-03-29T16:30:43.907Z</time></trkpt><trkpt lat="43.71933737615799" lon="11.076569102653284"><ele>81.5</ele><time>2026-03-29T16:30:44.907Z</time></trkpt><trkpt lat="43.719564440217454" lon="11.076805005546026"><ele>83.0</ele><time>2026-03-29T16:30:45.907Z</time></trkpt><trkpt lat="43.71978360317538" lon="11.077049916736815"><ele>83.0</ele><time>2026-03-29T16:30:46.907Z</time></trkpt><trkpt lat="43.71999335478099" lon="11.077305044095217"><ele>83.0</ele><time>2026-03-29T16:30:47.907Z</time></trkpt><trkpt lat="43.72017885295237" lon="11.077572702644861"><ele>84.5</ele><time>2026-03-29T16:30:48.907Z</time></trkpt><trkpt lat="43.72035749106042" lon="11.077858112540643"><ele>86.0</ele><time>2026-03-29T16:30:49.907Z</time></trkpt><trkpt lat="43.72052668425601" lon="11.07815766694221"><ele>87.5</ele><time>2026-03-29T16:30:50.909Z</time></trkpt><trkpt lat="43.720684462661644" lon="11.078465704845659"><ele>89.0</ele><time>2026-03-29T16:30:51.909Z</time></trkpt><trkpt lat="43.720824937969425" lon="11.078782940573964"><ele>89.0</ele><time>2026-03-29T16:30:52.909Z</time></trkpt><trkpt lat="43.7209669300427" lon="11.079122708196929"><ele>89.0</ele><time>2026-03-29T16:30:53.909Z</time></trkpt><trkpt lat="43.721110203341695" lon="11.079463646014503"><ele>89.0</ele><time>2026-03-29T16:30:54.909Z</time></trkpt><trkpt lat="43.721254876116966" lon="11.079801697708623"><ele>89.0</ele><time>2026-03-29T16:30:55.909Z</time></trkpt><trkpt lat="43.72140266899424" lon="11.080141577720257"><ele>91.0</ele><time>2026-03-29T16:30:56.909Z</time></trkpt><trkpt lat="43.721550796433405" lon="11.080483769864555"><ele>93.0</ele><time>2026-03-29T16:30:57.909Z</time></trkpt><trkpt lat="43.72170143973412" lon="11.080817660083445"><ele>91.0</ele><time>2026-03-29T16:30:58.909Z</time></trkpt><trkpt lat="43.7218520331082" lon="11.081157420343136"><ele>89.0</ele><time>2026-03-29T16:30:59.909Z</time></trkpt><trkpt lat="43.721995255288704" lon="11.081508429512743"><ele>92.0</ele><time>2026-03-29T16:31:00.909Z</time></trkpt><trkpt lat="43.72214930126253" lon="11.081840598455742"><ele>95.0</ele><time>2026-03-29T16:31:01.909Z</time></trkpt><trkpt lat="43.7223042511284" lon="11.082199083690252"><ele>99.0</ele><time>2026-03-29T16:31:02.909Z</time></trkpt><trkpt lat="43.72246752222817" lon="11.082552614267758"><ele>103.0</ele><time>2026-03-29T16:31:03.909Z</time></trkpt><trkpt lat="43.72262214922202" lon="11.082901174520828"><ele>100.5</ele><time>2026-03-29T16:31:04.909Z</time></trkpt><trkpt lat="43.72277703037275" lon="11.083250494504503"><ele>98.0</ele><time>2026-03-29T16:31:05.909Z</time></trkpt><trkpt lat="43.72292869616181" lon="11.083592149173484"><ele>98.0</ele><time>2026-03-29T16:31:06.909Z</time></trkpt><trkpt lat="43.72308546198723" lon="11.083929542976017"><ele>98.0</ele><time>2026-03-29T16:31:07.909Z</time></trkpt><trkpt lat="43.72323605913927" lon="11.084271252392197"><ele>100.0</ele><time>2026-03-29T16:31:08.909Z</time></trkpt><trkpt lat="43.72339085690717" lon="11.084611518154174"><ele>102.0</ele><time>2026-03-29T16:31:09.909Z</time></trkpt><trkpt lat="43.72354443826963" lon="11.084942478197387"><ele>99.0</ele><time>2026-03-29T16:31:10.909Z</time></trkpt><trkpt lat="43.72369323025678" lon="11.085279564790438"><ele>96.0</ele><time>2026-03-29T16:31:11.909Z</time></trkpt><trkpt lat="43.72384742904652" lon="11.085617133012136"><ele>102.5</ele><time>2026-03-29T16:31:12.909Z</time></trkpt><trkpt lat="43.72400164065011" lon="11.085959387749229"><ele>109.0</ele><time>2026-03-29T16:31:13.909Z</time></trkpt><trkpt lat="43.7241624520467" lon="11.086301267319877"><ele>108.0</ele><time>2026-03-29T16:31:14.909Z</time></trkpt><trkpt lat="43.72432422546008" lon="11.086642749019154"><ele>107.0</ele><time>2026-03-29T16:31:15.909Z</time></trkpt><trkpt lat="43.72447863003552" lon="11.086986372667758"><ele>107.0</ele><time>2026-03-29T16:31:16.909Z</time></trkpt><trkpt lat="43.724624426991724" lon="11.087328780516167"><ele>107.0</ele><time>2026-03-29T16:31:17.909Z</time></trkpt><trkpt lat="43.724766979493644" lon="11.08766676671871"><ele>106.5</ele><time>2026-03-29T16:31:18.909Z</time></trkpt><trkpt lat="43.72490757996555" lon="11.088004745096436"><ele>106.0</ele><time>2026-03-29T16:31:19.909Z</time></trkpt><trkpt lat="43.72504615382847" lon="11.088332550679322"><ele>105.5</ele><time>2026-03-29T16:31:20.909Z</time></trkpt><trkpt lat="43.725183473979804" lon="11.088649799543656"><ele>105.0</ele><time>2026-03-29T16:31:21.909Z</time></trkpt><trkpt lat="43.725325216236456" lon="11.088963711718996"><ele>108.0</ele><time>2026-03-29T16:31:22.909Z</time></trkpt><trkpt lat="43.7254617884494" lon="11.089274354838997"><ele>111.0</ele><time>2026-03-29T16:31:23.909Z</time></trkpt><trkpt lat="43.72559938718061" lon="11.089575939994518"><ele>111.0</ele><time>2026-03-29T16:31:24.909Z</time></trkpt><trkpt lat="43.7257322407446" lon="11.089871830461975"><ele>111.0</ele><time>2026-03-29T16:31:25.909Z</time></trkpt><trkpt lat="43.72586655483294" lon="11.090194934344327"><ele>112.0</ele><time>2026-03-29T16:31:26.909Z</time></trkpt><trkpt lat="43.72600399126026" lon="11.090489945661199"><ele>113.0</ele><time>2026-03-29T16:31:27.909Z</time></trkpt><trkpt lat="43.726145176178775" lon="11.090796695984444"><ele>113.0</ele><time>2026-03-29T16:31:28.909Z</time></trkpt><trkpt lat="43.726285099468804" lon="11.091104012199322"><ele>113.0</ele><time>2026-03-29T16:31:29.909Z</time></trkpt><trkpt lat="43.7264154632901" lon="11.091400461004175"><ele>114.5</ele><time>2026-03-29T16:31:30.909Z</time></trkpt><trkpt lat="43.726549815671554" lon="11.091704349409094"><ele>116.0</ele><time>2026-03-29T16:31:31.909Z</time></trkpt><trkpt lat="43.72667348589045" lon="11.092004938528529"><ele>116.0</ele><time>2026-03-29T16:31:32.909Z</time></trkpt><trkpt lat="43.72680839795723" lon="11.092309999702547"><ele>116.0</ele><time>2026-03-29T16:31:33.909Z</time></trkpt><trkpt lat="43.726938993614645" lon="11.09260530348986"><ele>119.0</ele><time>2026-03-29T16:31:34.909Z</time></trkpt><trkpt lat="43.727072091376854" lon="11.092901644240369"><ele>122.0</ele><time>2026-03-29T16:31:35.909Z</time></trkpt><trkpt lat="43.727201787722635" lon="11.093197010042756"><ele>125.5</ele><time>2026-03-29T16:31:36.909Z</time></trkpt><trkpt lat="43.72732844747566" lon="11.09349256082599"><ele>129.0</ele><time>2026-03-29T16:31:37.909Z</time></trkpt><trkpt lat="43.72745546504232" lon="11.093782679716288"><ele>129.0</ele><time>2026-03-29T16:31:38.909Z</time></trkpt><trkpt lat="43.72758201311696" lon="11.094067141885708"><ele>129.0</ele><time>2026-03-29T16:31:39.909Z</time></trkpt><trkpt lat="43.72771354599019" lon="11.094350304762873"><ele>127.0</ele><time>2026-03-29T16:31:40.909Z</time></trkpt><trkpt lat="43.727844054430186" lon="11.09462829588071"><ele>125.0</ele><time>2026-03-29T16:31:41.909Z</time></trkpt><trkpt lat="43.72796851645567" lon="11.094910824067385"><ele>129.0</ele><time>2026-03-29T16:31:42.909Z</time></trkpt><trkpt lat="43.72809093373045" lon="11.095195263869758"><ele>133.0</ele><time>2026-03-29T16:31:43.909Z</time></trkpt><trkpt lat="43.728221231556944" lon="11.095483784489192"><ele>136.5</ele><time>2026-03-29T16:31:44.909Z</time></trkpt><trkpt lat="43.72835689693417" lon="11.09576669775304"><ele>140.0</ele><time>2026-03-29T16:31:45.909Z</time></trkpt><trkpt lat="43.728489328144185" lon="11.096050985458296"><ele>140.0</ele><time>2026-03-29T16:31:46.909Z</time></trkpt><trkpt lat="43.72862978559052" lon="11.096337601908116"><ele>140.0</ele><time>2026-03-29T16:31:47.909Z</time></trkpt><trkpt lat="43.728772496040655" lon="11.096623784685276"><ele>140.0</ele><time>2026-03-29T16:31:48.909Z</time></trkpt><trkpt lat="43.728908776709744" lon="11.0969169249092"><ele>140.0</ele><time>2026-03-29T16:31:49.908Z</time></trkpt><trkpt lat="43.72905131581438" lon="11.09721258644075"><ele>143.5</ele><time>2026-03-29T16:31:50.908Z</time></trkpt><trkpt lat="43.72919880284117" lon="11.09750745702034"><ele>147.0</ele><time>2026-03-29T16:31:51.908Z</time></trkpt><trkpt lat="43.72935724197703" lon="11.097800430811747"><ele>145.5</ele><time>2026-03-29T16:31:52.908Z</time></trkpt><trkpt lat="43.72952803814409" lon="11.0980875542969"><ele>144.0</ele><time>2026-03-29T16:31:53.908Z</time></trkpt><trkpt lat="43.7297052003223" lon="11.098375187145738"><ele>144.0</ele><time>2026-03-29T16:31:54.908Z</time></trkpt><trkpt lat="43.72989091749836" lon="11.09866113683476"><ele>144.0</ele><time>2026-03-29T16:31:55.908Z</time></trkpt><trkpt lat="43.73008145568061" lon="11.098950751632678"><ele>140.5</ele><time>2026-03-29T16:31:56.908Z</time></trkpt><trkpt lat="43.73027750270143" lon="11.099240226416889"><ele>137.0</ele><time>2026-03-29T16:31:57.908Z</time></trkpt><trkpt lat="43.730470476496095" lon="11.09954410565653"><ele>137.0</ele><time>2026-03-29T16:31:58.908Z</time></trkpt><trkpt lat="43.73066520985293" lon="11.099852320533914"><ele>137.0</ele><time>2026-03-29T16:31:59.908Z</time></trkpt><trkpt lat="43.73085780877506" lon="11.100160260770624"><ele>142.0</ele><time>2026-03-29T16:32:00.908Z</time></trkpt><trkpt lat="43.73104616626823" lon="11.100458178425976"><ele>147.0</ele><time>2026-03-29T16:32:01.908Z</time></trkpt><trkpt lat="43.73122906043063" lon="11.100766526005751"><ele>150.0</ele><time>2026-03-29T16:32:02.908Z</time></trkpt><trkpt lat="43.73141075626246" lon="11.101070275241463"><ele>153.0</ele><time>2026-03-29T16:32:03.908Z</time></trkpt><trkpt lat="43.731594482011154" lon="11.101380160184933"><ele>153.0</ele><time>2026-03-29T16:32:04.908Z</time></trkpt><trkpt lat="43.73176491539308" lon="11.10169163868114"><ele>153.0</ele><time>2026-03-29T16:32:05.908Z</time></trkpt><trkpt lat="43.73193123338879" lon="11.10200018635319"><ele>157.0</ele><time>2026-03-29T16:32:06.908Z</time></trkpt><trkpt lat="43.73210156442821" lon="11.102316977939585"><ele>161.0</ele><time>2026-03-29T16:32:07.908Z</time></trkpt><trkpt lat="43.73226381556892" lon="11.1026279410798"><ele>161.5</ele><time>2026-03-29T16:32:08.908Z</time></trkpt><trkpt lat="43.73242937362327" lon="11.10294769957941"><ele>162.0</ele><time>2026-03-29T16:32:09.908Z</time></trkpt><trkpt lat="43.73259665808377" lon="11.103261823681693"><ele>166.5</ele><time>2026-03-29T16:32:10.908Z</time></trkpt><trkpt lat="43.73276636103814" lon="11.103581846147053"><ele>171.0</ele><time>2026-03-29T16:32:11.908Z</time></trkpt><trkpt lat="43.73294017142686" lon="11.103893528292264"><ele>168.0</ele><time>2026-03-29T16:32:12.908Z</time></trkpt><trkpt lat="43.733115361660566" lon="11.10421866368239"><ele>165.0</ele><time>2026-03-29T16:32:13.908Z</time></trkpt><trkpt lat="43.73328984983133" lon="11.104532942799839"><ele>165.0</ele><time>2026-03-29T16:32:14.908Z</time></trkpt><trkpt lat="43.733475837478764" lon="11.104815650483875"><ele>165.0</ele><time>2026-03-29T16:32:15.908Z</time></trkpt><trkpt lat="43.73368113200918" lon="11.10508957003005"><ele>166.0</ele><time>2026-03-29T16:32:16.908Z</time></trkpt><trkpt lat="43.73388870470386" lon="11.105329810273009"><ele>167.0</ele><time>2026-03-29T16:32:17.908Z</time></trkpt><trkpt lat="43.73410272780273" lon="11.105554206773826"><ele>162.0</ele><time>2026-03-29T16:32:18.908Z</time></trkpt><trkpt lat="43.73433165731341" lon="11.10576192321102"><ele>157.0</ele><time>2026-03-29T16:32:19.908Z</time></trkpt><trkpt lat="43.73456720894442" lon="11.105957707514207"><ele>157.0</ele><time>2026-03-29T16:32:20.908Z</time></trkpt><trkpt lat="43.73480863420872" lon="11.106152540689786"><ele>157.0</ele><time>2026-03-29T16:32:21.908Z</time></trkpt><trkpt lat="43.73504592746982" lon="11.106336004371647"><ele>157.0</ele><time>2026-03-29T16:32:22.908Z</time></trkpt><trkpt lat="43.73529317738241" lon="11.106526481615935"><ele>157.0</ele><time>2026-03-29T16:32:23.908Z</time></trkpt><trkpt lat="43.73552951276458" lon="11.106719501794895"><ele>155.0</ele><time>2026-03-29T16:32:24.908Z</time></trkpt><trkpt lat="43.7357663347215" lon="11.106923152864086"><ele>153.0</ele><time>2026-03-29T16:32:25.908Z</time></trkpt><trkpt lat="43.735986740860014" lon="11.10712604503953"><ele>153.0</ele><time>2026-03-29T16:32:26.908Z</time></trkpt><trkpt lat="43.73619124344974" lon="11.107317065615497"><ele>153.0</ele><time>2026-03-29T16:32:27.908Z</time></trkpt><trkpt lat="43.73637154527417" lon="11.107514000042542"><ele>153.0</ele><time>2026-03-29T16:32:28.908Z</time></trkpt><trkpt lat="43.73653042653517" lon="11.107715712786979"><ele>153.0</ele><time>2026-03-29T16:32:29.908Z</time></trkpt><trkpt lat="43.736674901073755" lon="11.10793213523997"><ele>153.0</ele><time>2026-03-29T16:32:30.908Z</time></trkpt><trkpt lat="43.73680461403837" lon="11.108141108731552"><ele>151.66666666666666</ele><time>2026-03-29T16:32:31.908Z</time></trkpt><trkpt lat="43.73695127921543" lon="11.108374311915501"><ele>150.33333333333331</ele><time>2026-03-29T16:32:32.908Z</time></trkpt><trkpt lat="43.737085746015076" lon="11.108613431632651"><ele>149.0</ele><time>2026-03-29T16:32:33.908Z</time></trkpt><trkpt lat="43.73722475777458" lon="11.108862357951912"><ele>147.0</ele><time>2026-03-29T16:32:34.908Z</time></trkpt><trkpt lat="43.73736300468825" lon="11.109109088562258"><ele>145.0</ele><time>2026-03-29T16:32:35.908Z</time></trkpt><trkpt lat="43.73750661147818" lon="11.109356744313237"><ele>145.0</ele><time>2026-03-29T16:32:36.908Z</time></trkpt><trkpt lat="43.73764885346154" lon="11.109612739817033"><ele>145.0</ele><time>2026-03-29T16:32:37.908Z</time></trkpt><trkpt lat="43.737799915024084" lon="11.109887141862156"><ele>145.0</ele><time>2026-03-29T16:32:38.908Z</time></trkpt><trkpt lat="43.73795152417906" lon="11.11015348878158"><ele>145.0</ele><time>2026-03-29T16:32:39.908Z</time></trkpt><trkpt lat="43.73810850871538" lon="11.110422280211047"><ele>145.0</ele><time>2026-03-29T16:32:40.908Z</time></trkpt><trkpt lat="43.738262691344026" lon="11.110685498084823"><ele>145.0</ele><time>2026-03-29T16:32:41.908Z</time></trkpt><trkpt lat="43.738409033571365" lon="11.110947980199107"><ele>145.5</ele><time>2026-03-29T16:32:42.908Z</time></trkpt><trkpt lat="43.73855009387166" lon="11.11120642624705"><ele>146.0</ele><time>2026-03-29T16:32:43.908Z</time></trkpt><trkpt lat="43.738690451853095" lon="11.11145755413714"><ele>150.0</ele><time>2026-03-29T16:32:44.908Z</time></trkpt><trkpt lat="43.738842057547075" lon="11.111703595560085"><ele>154.0</ele><time>2026-03-29T16:32:45.908Z</time></trkpt><trkpt lat="43.738983029793296" lon="11.111951606268104"><ele>154.0</ele><time>2026-03-29T16:32:46.908Z</time></trkpt><trkpt lat="43.739117564402264" lon="11.112198684287202"><ele>154.0</ele><time>2026-03-29T16:32:47.908Z</time></trkpt><trkpt lat="43.73925081230872" lon="11.112434733710355"><ele>154.0</ele><time>2026-03-29T16:32:48.907Z</time></trkpt><trkpt lat="43.739381279096406" lon="11.112681135329668"><ele>156.5</ele><time>2026-03-29T16:32:49.907Z</time></trkpt><trkpt lat="43.73952646786415" lon="11.112931895237033"><ele>159.0</ele><time>2026-03-29T16:32:50.907Z</time></trkpt><trkpt lat="43.73966355845826" lon="11.113167589764496"><ele>157.5</ele><time>2026-03-29T16:32:51.907Z</time></trkpt><trkpt lat="43.73980992514101" lon="11.113413447227959"><ele>156.0</ele><time>2026-03-29T16:32:52.907Z</time></trkpt><trkpt lat="43.73995559332381" lon="11.113662229901829"><ele>156.0</ele><time>2026-03-29T16:32:53.907Z</time></trkpt><trkpt lat="43.74010236176379" lon="11.113913434177663"><ele>156.0</ele><time>2026-03-29T16:32:54.907Z</time></trkpt><trkpt lat="43.74025273980299" lon="11.114177259401052"><ele>158.5</ele><time>2026-03-29T16:32:55.907Z</time></trkpt><trkpt lat="43.74040585225849" lon="11.114433762240324"><ele>161.0</ele><time>2026-03-29T16:32:56.91Z</time></trkpt><trkpt lat="43.74055457885591" lon="11.114702135554008"><ele>158.0</ele><time>2026-03-29T16:32:57.909Z</time></trkpt><trkpt lat="43.74070879312463" lon="11.114971175489941"><ele>155.0</ele><time>2026-03-29T16:32:58.909Z</time></trkpt><trkpt lat="43.7408817787113" lon="11.115225458134223"><ele>155.0</ele><time>2026-03-29T16:32:59.91Z</time></trkpt><trkpt lat="43.74105318536622" lon="11.11549576759764"><ele>155.0</ele><time>2026-03-29T16:33:00.909Z</time></trkpt><trkpt lat="43.741232045577945" lon="11.115754191267344"><ele>155.0</ele><time>2026-03-29T16:33:01.909Z</time></trkpt><trkpt lat="43.74141722255431" lon="11.116022275345216"><ele>155.0</ele><time>2026-03-29T16:33:02.909Z</time></trkpt><trkpt lat="43.741608600569826" lon="11.116284579762953"><ele>155.0</ele><time>2026-03-29T16:33:03.91Z</time></trkpt><trkpt lat="43.741796070524735" lon="11.11653989368169"><ele>155.0</ele><time>2026-03-29T16:33:04.909Z</time></trkpt><trkpt lat="43.74198616130091" lon="11.116778367281324"><ele>155.0</ele><time>2026-03-29T16:33:05.91Z</time></trkpt><trkpt lat="43.742186476364324" lon="11.117021800469365"><ele>155.0</ele><time>2026-03-29T16:33:06.91Z</time></trkpt><trkpt lat="43.74238190089428" lon="11.117263135157359"><ele>154.0</ele><time>2026-03-29T16:33:07.91Z</time></trkpt><trkpt lat="43.74258554149175" lon="11.117516417636798"><ele>153.0</ele><time>2026-03-29T16:33:08.91Z</time></trkpt><trkpt lat="43.742779057182034" lon="11.117769998224441"><ele>153.0</ele><time>2026-03-29T16:33:09.909Z</time></trkpt><trkpt lat="43.74297572172643" lon="11.118020980970341"><ele>153.0</ele><time>2026-03-29T16:33:10.909Z</time></trkpt><trkpt lat="43.74316758345723" lon="11.118272462007644"><ele>152.0</ele><time>2026-03-29T16:33:11.909Z</time></trkpt><trkpt lat="43.74336592355816" lon="11.118526637309506"><ele>151.0</ele><time>2026-03-29T16:33:12.909Z</time></trkpt><trkpt lat="43.74356623493" lon="11.11877278572531"><ele>151.0</ele><time>2026-03-29T16:33:13.909Z</time></trkpt><trkpt lat="43.74376350346481" lon="11.1190072924159"><ele>151.0</ele><time>2026-03-29T16:33:14.909Z</time></trkpt><trkpt lat="43.7439591523973" lon="11.119220349111517"><ele>146.5</ele><time>2026-03-29T16:33:15.909Z</time></trkpt><trkpt lat="43.74415474271167" lon="11.119404849656425"><ele>142.0</ele><time>2026-03-29T16:33:16.909Z</time></trkpt><trkpt lat="43.744353065045225" lon="11.119582115880352"><ele>143.0</ele><time>2026-03-29T16:33:17.909Z</time></trkpt><trkpt lat="43.74455486803517" lon="11.119736811574054"><ele>144.0</ele><time>2026-03-29T16:33:18.909Z</time></trkpt><trkpt lat="43.7447574274579" lon="11.119883463232949"><ele>138.5</ele><time>2026-03-29T16:33:19.909Z</time></trkpt><trkpt lat="43.74496590504478" lon="11.120030321590669"><ele>133.0</ele><time>2026-03-29T16:33:20.909Z</time></trkpt><trkpt lat="43.74517777327769" lon="11.120158573344538"><ele>129.33333333333334</ele><time>2026-03-29T16:33:21.909Z</time></trkpt><trkpt lat="43.74538101718868" lon="11.120266453324692"><ele>125.66666666666666</ele><time>2026-03-29T16:33:22.909Z</time></trkpt><trkpt lat="43.745582573743675" lon="11.120361661151891"><ele>122.0</ele><time>2026-03-29T16:33:23.909Z</time></trkpt><trkpt lat="43.74579543029057" lon="11.120461839107426"><ele>122.0</ele><time>2026-03-29T16:33:24.909Z</time></trkpt><trkpt lat="43.74600355608024" lon="11.120542672236475"><ele>122.0</ele><time>2026-03-29T16:33:25.909Z</time></trkpt><trkpt lat="43.74619641564444" lon="11.120618780439123"><ele>122.0</ele><time>2026-03-29T16:33:26.909Z</time></trkpt><trkpt lat="43.746390488124625" lon="11.120692287861928"><ele>119.66666666666666</ele><time>2026-03-29T16:33:27.909Z</time></trkpt><trkpt lat="43.746592765013084" lon="11.120768557680364"><ele>117.33333333333334</ele><time>2026-03-29T16:33:28.909Z</time></trkpt><trkpt lat="43.74680323456399" lon="11.120849965361169"><ele>115.0</ele><time>2026-03-29T16:33:29.909Z</time></trkpt><trkpt lat="43.74701681400124" lon="11.120932256739474"><ele>122.0</ele><time>2026-03-29T16:33:30.909Z</time></trkpt><trkpt lat="43.74723075112301" lon="11.12102021904515"><ele>129.0</ele><time>2026-03-29T16:33:31.909Z</time></trkpt><trkpt lat="43.74745482394312" lon="11.12114033087478"><ele>129.0</ele><time>2026-03-29T16:33:32.909Z</time></trkpt><trkpt lat="43.74765910564761" lon="11.121263421759632"><ele>129.0</ele><time>2026-03-29T16:33:33.909Z</time></trkpt><trkpt lat="43.747863188957986" lon="11.121395417315743"><ele>129.0</ele><time>2026-03-29T16:33:34.909Z</time></trkpt><trkpt lat="43.74805017750557" lon="11.12154067464789"><ele>127.0</ele><time>2026-03-29T16:33:35.909Z</time></trkpt><trkpt lat="43.74822363108174" lon="11.121693642835696"><ele>125.0</ele><time>2026-03-29T16:33:36.909Z</time></trkpt><trkpt lat="43.748385435429334" lon="11.121839844981544"><ele>123.0</ele><time>2026-03-29T16:33:37.909Z</time></trkpt><trkpt lat="43.748555181704916" lon="11.121998299067997"><ele>123.0</ele><time>2026-03-29T16:33:38.909Z</time></trkpt><trkpt lat="43.74872228963299" lon="11.122145139141328"><ele>123.0</ele><time>2026-03-29T16:33:39.909Z</time></trkpt><trkpt lat="43.74889553322038" lon="11.122303802092045"><ele>123.0</ele><time>2026-03-29T16:33:40.909Z</time></trkpt><trkpt lat="43.74906871925932" lon="11.122458528319395"><ele>119.66666666666666</ele><time>2026-03-29T16:33:41.909Z</time></trkpt><trkpt lat="43.749247239443" lon="11.122617839535033"><ele>116.33333333333333</ele><time>2026-03-29T16:33:42.909Z</time></trkpt><trkpt lat="43.7494287364731" lon="11.122773200596267"><ele>113.0</ele><time>2026-03-29T16:33:43.909Z</time></trkpt><trkpt lat="43.74961181403121" lon="11.12293439358202"><ele>113.0</ele><time>2026-03-29T16:33:44.909Z</time></trkpt><trkpt lat="43.74979749642627" lon="11.123095273471558"><ele>113.0</ele><time>2026-03-29T16:33:45.909Z</time></trkpt><trkpt lat="43.74999199248148" lon="11.123266538554393"><ele>112.0</ele><time>2026-03-29T16:33:46.909Z</time></trkpt><trkpt lat="43.75018385406344" lon="11.123429385315385"><ele>111.0</ele><time>2026-03-29T16:33:47.909Z</time></trkpt><trkpt lat="43.750371293847756" lon="11.123598701569744"><ele>110.0</ele><time>2026-03-29T16:33:48.909Z</time></trkpt><trkpt lat="43.75057268058217" lon="11.123770703189093"><ele>110.0</ele><time>2026-03-29T16:33:49.909Z</time></trkpt><trkpt lat="43.75076715347548" lon="11.12393613114839"><ele>110.0</ele><time>2026-03-29T16:33:50.909Z</time></trkpt><trkpt lat="43.750973561223766" lon="11.12411534276671"><ele>110.0</ele><time>2026-03-29T16:33:51.908Z</time></trkpt><trkpt lat="43.7511867428239" lon="11.124291483144797"><ele>110.0</ele><time>2026-03-29T16:33:52.908Z</time></trkpt><trkpt lat="43.75141172719024" lon="11.124471152802503"><ele>110.0</ele><time>2026-03-29T16:33:53.908Z</time></trkpt><trkpt lat="43.75161918821867" lon="11.124657763700386"><ele>110.0</ele><time>2026-03-29T16:33:54.908Z</time></trkpt><trkpt lat="43.751833472355145" lon="11.124845792754424"><ele>105.0</ele><time>2026-03-29T16:33:55.908Z</time></trkpt><trkpt lat="43.7520537539367" lon="11.125040513272362"><ele>100.0</ele><time>2026-03-29T16:33:56.908Z</time></trkpt><trkpt lat="43.75226986303532" lon="11.125246237548735"><ele>100.0</ele><time>2026-03-29T16:33:57.908Z</time></trkpt><trkpt lat="43.75249366610991" lon="11.125451834868278"><ele>100.0</ele><time>2026-03-29T16:33:58.908Z</time></trkpt><trkpt lat="43.752712544310626" lon="11.12565099248068"><ele>96.0</ele><time>2026-03-29T16:33:59.908Z</time></trkpt><trkpt lat="43.752936413011426" lon="11.125826476583507"><ele>92.0</ele><time>2026-03-29T16:34:00.908Z</time></trkpt><trkpt lat="43.753146992402776" lon="11.125978146944854"><ele>92.0</ele><time>2026-03-29T16:34:01.908Z</time></trkpt><trkpt lat="43.75338217195348" lon="11.126115596885835"><ele>92.0</ele><time>2026-03-29T16:34:02.908Z</time></trkpt><trkpt lat="43.75361594785144" lon="11.126229124865874"><ele>93.0</ele><time>2026-03-29T16:34:03.908Z</time></trkpt><trkpt lat="43.753855958079875" lon="11.126330864957179"><ele>94.0</ele><time>2026-03-29T16:34:04.908Z</time></trkpt><trkpt lat="43.75409553998938" lon="11.126402056120972"><ele>94.0</ele><time>2026-03-29T16:34:05.908Z</time></trkpt><trkpt lat="43.75434259154406" lon="11.126452291383876"><ele>94.0</ele><time>2026-03-29T16:34:06.908Z</time></trkpt><trkpt lat="43.75459230631229" lon="11.126485253081977"><ele>92.5</ele><time>2026-03-29T16:34:07.908Z</time></trkpt><trkpt lat="43.754846927900125" lon="11.126512200576368"><ele>91.0</ele><time>2026-03-29T16:34:08.908Z</time></trkpt><trkpt lat="43.755101797585034" lon="11.126531369281953"><ele>82.0</ele><time>2026-03-29T16:34:09.908Z</time></trkpt><trkpt lat="43.755353352191726" lon="11.126563688912553"><ele>73.0</ele><time>2026-03-29T16:34:10.908Z</time></trkpt><trkpt lat="43.7556094256477" lon="11.126593791972365"><ele>73.0</ele><time>2026-03-29T16:34:11.908Z</time></trkpt><trkpt lat="43.75587284186911" lon="11.126622662542825"><ele>73.0</ele><time>2026-03-29T16:34:12.908Z</time></trkpt><trkpt lat="43.756131608658016" lon="11.126648041851432"><ele>72.5</ele><time>2026-03-29T16:34:13.908Z</time></trkpt><trkpt lat="43.75638069780071" lon="11.126676906734707"><ele>72.0</ele><time>2026-03-29T16:34:14.908Z</time></trkpt><trkpt lat="43.75663451971441" lon="11.126702373435524"><ele>74.0</ele><time>2026-03-29T16:34:15.908Z</time></trkpt><trkpt lat="43.75688419248302" lon="11.126733021555776"><ele>76.0</ele><time>2026-03-29T16:34:16.908Z</time></trkpt><trkpt lat="43.75715032664844" lon="11.126772221232931"><ele>76.0</ele><time>2026-03-29T16:34:17.908Z</time></trkpt><trkpt lat="43.75741199524312" lon="11.126816617157225"><ele>76.0</ele><time>2026-03-29T16:34:18.908Z</time></trkpt><trkpt lat="43.757668237873844" lon="11.126879014719412"><ele>77.0</ele><time>2026-03-29T16:34:19.908Z</time></trkpt><trkpt lat="43.757938304098836" lon="11.126963818990719"><ele>78.0</ele><time>2026-03-29T16:34:20.908Z</time></trkpt><trkpt lat="43.75819169127169" lon="11.127074603488918"><ele>78.0</ele><time>2026-03-29T16:34:21.908Z</time></trkpt><trkpt lat="43.75844379944573" lon="11.127208935981448"><ele>78.0</ele><time>2026-03-29T16:34:22.908Z</time></trkpt><trkpt lat="43.758722532786024" lon="11.127332347028048"><ele>72.0</ele><time>2026-03-29T16:34:23.908Z</time></trkpt><trkpt lat="43.75900186906667" lon="11.127465464325649"><ele>66.0</ele><time>2026-03-29T16:34:24.908Z</time></trkpt><trkpt lat="43.75928948506544" lon="11.127599412685889"><ele>65.0</ele><time>2026-03-29T16:34:25.908Z</time></trkpt><trkpt lat="43.75957394868156" lon="11.127708743231137"><ele>64.0</ele><time>2026-03-29T16:34:26.908Z</time></trkpt><trkpt lat="43.75987849848665" lon="11.127795976758238"><ele>64.0</ele><time>2026-03-29T16:34:27.908Z</time></trkpt><trkpt lat="43.76019174753385" lon="11.127845345682607"><ele>64.0</ele><time>2026-03-29T16:34:28.908Z</time></trkpt><trkpt lat="43.760513521991435" lon="11.12786285988165"><ele>61.0</ele><time>2026-03-29T16:34:29.908Z</time></trkpt><trkpt lat="43.76082752050683" lon="11.127855276007953"><ele>58.0</ele><time>2026-03-29T16:34:30.908Z</time></trkpt><trkpt lat="43.76114929857968" lon="11.127802574345322"><ele>55.5</ele><time>2026-03-29T16:34:31.908Z</time></trkpt><trkpt lat="43.76146388303003" lon="11.127731572678341"><ele>53.0</ele><time>2026-03-29T16:34:32.908Z</time></trkpt><trkpt lat="43.76177682146662" lon="11.127620037916985"><ele>54.0</ele><time>2026-03-29T16:34:33.908Z</time></trkpt><trkpt lat="43.76207643439365" lon="11.127480245517926"><ele>55.0</ele><time>2026-03-29T16:34:34.908Z</time></trkpt><trkpt lat="43.762379826989346" lon="11.127329468861827"><ele>55.0</ele><time>2026-03-29T16:34:35.908Z</time></trkpt><trkpt lat="43.76267537460516" lon="11.127145917696689"><ele>55.0</ele><time>2026-03-29T16:34:36.908Z</time></trkpt><trkpt lat="43.76296250759863" lon="11.126973338086223"><ele>52.0</ele><time>2026-03-29T16:34:37.908Z</time></trkpt><trkpt lat="43.76324692867889" lon="11.126799512961936"><ele>49.0</ele><time>2026-03-29T16:34:38.908Z</time></trkpt><trkpt lat="43.76353751140592" lon="11.126633738296228"><ele>47.0</ele><time>2026-03-29T16:34:39.908Z</time></trkpt><trkpt lat="43.763819116982624" lon="11.126465010480292"><ele>45.0</ele><time>2026-03-29T16:34:40.908Z</time></trkpt><trkpt lat="43.76410124881485" lon="11.126302697941783"><ele>43.0</ele><time>2026-03-29T16:34:41.908Z</time></trkpt><trkpt lat="43.76437668890586" lon="11.126145315945154"><ele>41.0</ele><time>2026-03-29T16:34:42.908Z</time></trkpt><trkpt lat="43.764654309086005" lon="11.126001852216147"><ele>41.0</ele><time>2026-03-29T16:34:43.908Z</time></trkpt><trkpt lat="43.76494509357377" lon="11.125876849397644"><ele>41.0</ele><time>2026-03-29T16:34:44.908Z</time></trkpt><trkpt lat="43.76523252228353" lon="11.125794118163249"><ele>40.5</ele><time>2026-03-29T16:34:45.908Z</time></trkpt><trkpt lat="43.76552876152216" lon="11.125743912163662"><ele>40.0</ele><time>2026-03-29T16:34:46.908Z</time></trkpt><trkpt lat="43.76582921701445" lon="11.125717545966937"><ele>40.0</ele><time>2026-03-29T16:34:47.908Z</time></trkpt><trkpt lat="43.766123851208256" lon="11.12573247882421"><ele>40.0</ele><time>2026-03-29T16:34:48.908Z</time></trkpt><trkpt lat="43.76641484123026" lon="11.125750584399903"><ele>40.0</ele><time>2026-03-29T16:34:49.907Z</time></trkpt><trkpt lat="43.76669853493448" lon="11.125796121245322"><ele>40.0</ele><time>2026-03-29T16:34:50.907Z</time></trkpt><trkpt lat="43.76698109614649" lon="11.125853020433695"><ele>38.5</ele><time>2026-03-29T16:34:51.907Z</time></trkpt><trkpt lat="43.76726117156" lon="11.125938448556354"><ele>37.0</ele><time>2026-03-29T16:34:52.907Z</time></trkpt><trkpt lat="43.76753471905382" lon="11.12603911181016"><ele>36.5</ele><time>2026-03-29T16:34:53.907Z</time></trkpt><trkpt lat="43.76782075743632" lon="11.126124944300498"><ele>36.0</ele><time>2026-03-29T16:34:54.907Z</time></trkpt><trkpt lat="43.76810823728203" lon="11.126208160829114"><ele>36.0</ele><time>2026-03-29T16:34:55.907Z</time></trkpt><trkpt lat="43.768395238621665" lon="11.12629146891727"><ele>36.0</ele><time>2026-03-29T16:34:56.907Z</time></trkpt><trkpt lat="43.76867960322338" lon="11.126372833228551"><ele>35.5</ele><time>2026-03-29T16:34:57.907Z</time></trkpt><trkpt lat="43.7689614199047" lon="11.126464537565582"><ele>35.0</ele><time>2026-03-29T16:34:58.907Z</time></trkpt><trkpt lat="43.76924443545416" lon="11.126554572804508"><ele>36.5</ele><time>2026-03-29T16:34:59.907Z</time></trkpt><trkpt lat="43.76952975233165" lon="11.126642264709783"><ele>38.0</ele><time>2026-03-29T16:35:00.907Z</time></trkpt><trkpt lat="43.769790064382825" lon="11.126721084108638"><ele>38.0</ele><time>2026-03-29T16:35:01.91Z</time></trkpt><trkpt lat="43.770065435774015" lon="11.12682253636457"><ele>38.0</ele><time>2026-03-29T16:35:02.91Z</time></trkpt><trkpt lat="43.77032763613442" lon="11.126935433259218"><ele>38.5</ele><time>2026-03-29T16:35:03.91Z</time></trkpt><trkpt lat="43.77057666195703" lon="11.127065808156823"><ele>39.0</ele><time>2026-03-29T16:35:04.91Z</time></trkpt><trkpt lat="43.770815775588915" lon="11.12721093958649"><ele>38.5</ele><time>2026-03-29T16:35:05.91Z</time></trkpt><trkpt lat="43.7710529528109" lon="11.127389478504004"><ele>38.0</ele><time>2026-03-29T16:35:06.91Z</time></trkpt><trkpt lat="43.77127892158779" lon="11.12758111754173"><ele>37.0</ele><time>2026-03-29T16:35:07.91Z</time></trkpt><trkpt lat="43.771493979731346" lon="11.12778830972002"><ele>36.0</ele><time>2026-03-29T16:35:08.91Z</time></trkpt><trkpt lat="43.7717103527202" lon="11.128030077890882"><ele>36.0</ele><time>2026-03-29T16:35:09.91Z</time></trkpt><trkpt lat="43.771905752278236" lon="11.128275616709544"><ele>36.0</ele><time>2026-03-29T16:35:10.91Z</time></trkpt><trkpt lat="43.77209863121259" lon="11.128543338674483"><ele>36.0</ele><time>2026-03-29T16:35:11.91Z</time></trkpt><trkpt lat="43.7722701557323" lon="11.128827147560141"><ele>36.0</ele><time>2026-03-29T16:35:12.91Z</time></trkpt><trkpt lat="43.772440747693835" lon="11.129138638909739"><ele>36.0</ele><time>2026-03-29T16:35:13.91Z</time></trkpt><trkpt lat="43.77257748096536" lon="11.129454810232254"><ele>36.0</ele><time>2026-03-29T16:35:14.911Z</time></trkpt><trkpt lat="43.77270741790237" lon="11.129786277116402"><ele>35.0</ele><time>2026-03-29T16:35:15.911Z</time></trkpt><trkpt lat="43.772828171307076" lon="11.130136117920708"><ele>34.0</ele><time>2026-03-29T16:35:16.911Z</time></trkpt><trkpt lat="43.77293920691204" lon="11.130479386559868"><ele>34.0</ele><time>2026-03-29T16:35:17.911Z</time></trkpt><trkpt lat="43.773031186936166" lon="11.130851621997488"><ele>34.0</ele><time>2026-03-29T16:35:18.911Z</time></trkpt><trkpt lat="43.773102445215976" lon="11.13122174211289"><ele>34.5</ele><time>2026-03-29T16:35:19.911Z</time></trkpt><trkpt lat="43.77316503024661" lon="11.131618041971002"><ele>35.0</ele><time>2026-03-29T16:35:20.911Z</time></trkpt><trkpt lat="43.77320959930699" lon="11.131998226672632"><ele>35.5</ele><time>2026-03-29T16:35:21.911Z</time></trkpt><trkpt lat="43.7732465332615" lon="11.132394151411201"><ele>36.0</ele><time>2026-03-29T16:35:22.91Z</time></trkpt><trkpt lat="43.773271744869206" lon="11.132778599721586"><ele>36.0</ele><time>2026-03-29T16:35:23.91Z</time></trkpt><trkpt lat="43.77329740679228" lon="11.133161739903475"><ele>36.0</ele><time>2026-03-29T16:35:24.91Z</time></trkpt><trkpt lat="43.77332254183383" lon="11.133508847801538"><ele>36.5</ele><time>2026-03-29T16:35:25.91Z</time></trkpt><trkpt lat="43.77334933936418" lon="11.133845353060126"><ele>37.0</ele><time>2026-03-29T16:35:26.91Z</time></trkpt><trkpt lat="43.77337133105305" lon="11.134163831827532"><ele>37.0</ele><time>2026-03-29T16:35:27.91Z</time></trkpt><trkpt lat="43.77339619046" lon="11.1344709934182"><ele>37.0</ele><time>2026-03-29T16:35:28.91Z</time></trkpt><trkpt lat="43.77342196221966" lon="11.1347893431562"><ele>35.5</ele><time>2026-03-29T16:35:29.91Z</time></trkpt><trkpt lat="43.773448764005764" lon="11.135128142437306"><ele>34.0</ele><time>2026-03-29T16:35:30.91Z</time></trkpt><trkpt lat="43.773468930985125" lon="11.135466941074649"><ele>34.5</ele><time>2026-03-29T16:35:31.91Z</time></trkpt><trkpt lat="43.773497352218904" lon="11.135836851869769"><ele>35.0</ele><time>2026-03-29T16:35:32.91Z</time></trkpt><trkpt lat="43.77352304759699" lon="11.136213697781352"><ele>36.0</ele><time>2026-03-29T16:35:33.91Z</time></trkpt><trkpt lat="43.773550960974525" lon="11.136600766322035"><ele>37.0</ele><time>2026-03-29T16:35:34.91Z</time></trkpt><trkpt lat="43.773580483896104" lon="11.136994438115714"><ele>36.0</ele><time>2026-03-29T16:35:35.91Z</time></trkpt><trkpt lat="43.77360830846374" lon="11.13739782792191"><ele>35.0</ele><time>2026-03-29T16:35:36.91Z</time></trkpt><trkpt lat="43.77363167694392" lon="11.137797636125034"><ele>35.0</ele><time>2026-03-29T16:35:37.91Z</time></trkpt><trkpt lat="43.77365480375185" lon="11.138206938653747"><ele>35.0</ele><time>2026-03-29T16:35:38.91Z</time></trkpt><trkpt lat="43.773675416655095" lon="11.138624006587925"><ele>34.5</ele><time>2026-03-29T16:35:39.91Z</time></trkpt><trkpt lat="43.77369649900788" lon="11.139035100488128"><ele>34.0</ele><time>2026-03-29T16:35:40.91Z</time></trkpt><trkpt lat="43.773724590515506" lon="11.139446854364161"><ele>35.0</ele><time>2026-03-29T16:35:41.91Z</time></trkpt><trkpt lat="43.773754873750136" lon="11.139849386276184"><ele>36.0</ele><time>2026-03-29T16:35:42.91Z</time></trkpt><trkpt lat="43.77378410148175" lon="11.140246404274215"><ele>36.5</ele><time>2026-03-29T16:35:43.91Z</time></trkpt><trkpt lat="43.77380877952025" lon="11.140636633677667"><ele>37.0</ele><time>2026-03-29T16:35:44.91Z</time></trkpt><trkpt lat="43.77383269759809" lon="11.141021837022844"><ele>37.0</ele><time>2026-03-29T16:35:45.91Z</time></trkpt><trkpt lat="43.77386323644103" lon="11.141411858663563"><ele>37.0</ele><time>2026-03-29T16:35:46.91Z</time></trkpt><trkpt lat="43.77388531920499" lon="11.141798824365093"><ele>36.5</ele><time>2026-03-29T16:35:47.91Z</time></trkpt><trkpt lat="43.77390658897394" lon="11.142163492295316"><ele>36.0</ele><time>2026-03-29T16:35:48.91Z</time></trkpt><trkpt lat="43.77392194482603" lon="11.142523531393124"><ele>36.0</ele><time>2026-03-29T16:35:49.91Z</time></trkpt><trkpt lat="43.773934263021424" lon="11.14288466320408"><ele>36.0</ele><time>2026-03-29T16:35:50.91Z</time></trkpt><trkpt lat="43.7739427797452" lon="11.143241139771874"><ele>36.0</ele><time>2026-03-29T16:35:51.91Z</time></trkpt><trkpt lat="43.773955234086166" lon="11.1435941084507"><ele>36.0</ele><time>2026-03-29T16:35:52.91Z</time></trkpt><trkpt lat="43.77396308902482" lon="11.143962554385705"><ele>35.5</ele><time>2026-03-29T16:35:53.91Z</time></trkpt><trkpt lat="43.77396622109094" lon="11.144309111227289"><ele>35.0</ele><time>2026-03-29T16:35:54.91Z</time></trkpt><trkpt lat="43.77397455402549" lon="11.14467331553259"><ele>35.5</ele><time>2026-03-29T16:35:55.91Z</time></trkpt><trkpt lat="43.77398204250066" lon="11.14503003979943"><ele>36.0</ele><time>2026-03-29T16:35:56.91Z</time></trkpt><trkpt lat="43.77399452437675" lon="11.145383805342968"><ele>34.5</ele><time>2026-03-29T16:35:57.91Z</time></trkpt><trkpt lat="43.774000263253754" lon="11.145745515739723"><ele>33.0</ele><time>2026-03-29T16:35:58.91Z</time></trkpt><trkpt lat="43.774009612283955" lon="11.146116177189525"><ele>33.0</ele><time>2026-03-29T16:35:59.91Z</time></trkpt><trkpt lat="43.774025320803936" lon="11.146497973790824"><ele>33.0</ele><time>2026-03-29T16:36:00.91Z</time></trkpt><trkpt lat="43.774038137716566" lon="11.146872025580386"><ele>33.0</ele><time>2026-03-29T16:36:01.91Z</time></trkpt><trkpt lat="43.774048605561916" lon="11.147268388303583"><ele>33.0</ele><time>2026-03-29T16:36:02.91Z</time></trkpt><trkpt lat="43.774052922832354" lon="11.14765998667993"><ele>33.0</ele><time>2026-03-29T16:36:03.91Z</time></trkpt><trkpt lat="43.77406002359314" lon="11.148045267819114"><ele>33.0</ele><time>2026-03-29T16:36:04.91Z</time></trkpt><trkpt lat="43.774072536867074" lon="11.1484329164524"><ele>34.0</ele><time>2026-03-29T16:36:05.91Z</time></trkpt><trkpt lat="43.77408078348437" lon="11.148816347576497"><ele>35.0</ele><time>2026-03-29T16:36:06.91Z</time></trkpt><trkpt lat="43.77408950734802" lon="11.149205096687847"><ele>35.0</ele><time>2026-03-29T16:36:07.91Z</time></trkpt><trkpt lat="43.77409559862261" lon="11.149578384491505"><ele>35.0</ele><time>2026-03-29T16:36:08.91Z</time></trkpt><trkpt lat="43.774109353167525" lon="11.149956480264974"><ele>34.5</ele><time>2026-03-29T16:36:09.91Z</time></trkpt><trkpt lat="43.77411357037961" lon="11.150327619482425"><ele>34.0</ele><time>2026-03-29T16:36:10.91Z</time></trkpt><trkpt lat="43.77412203178375" lon="11.150703443771054"><ele>35.5</ele><time>2026-03-29T16:36:11.91Z</time></trkpt><trkpt lat="43.774128743967154" lon="11.151072697936012"><ele>37.0</ele><time>2026-03-29T16:36:12.91Z</time></trkpt><trkpt lat="43.77413535942844" lon="11.151443025339935"><ele>36.5</ele><time>2026-03-29T16:36:13.91Z</time></trkpt><trkpt lat="43.77414151938011" lon="11.151804093986602"><ele>36.0</ele><time>2026-03-29T16:36:14.91Z</time></trkpt><trkpt lat="43.7741479189013" lon="11.152176106366985"><ele>35.5</ele><time>2026-03-29T16:36:15.91Z</time></trkpt><trkpt lat="43.77415322141407" lon="11.15253441375545"><ele>35.0</ele><time>2026-03-29T16:36:16.91Z</time></trkpt><trkpt lat="43.77416617076153" lon="11.152902848414627"><ele>36.0</ele><time>2026-03-29T16:36:17.91Z</time></trkpt><trkpt lat="43.77417381236441" lon="11.153264155229456"><ele>37.0</ele><time>2026-03-29T16:36:18.91Z</time></trkpt><trkpt lat="43.77417606125898" lon="11.153607710976956"><ele>37.0</ele><time>2026-03-29T16:36:19.91Z</time></trkpt><trkpt lat="43.77417993692943" lon="11.15397217882713"><ele>37.0</ele><time>2026-03-29T16:36:20.91Z</time></trkpt><trkpt lat="43.77418109818033" lon="11.154323297255202"><ele>36.5</ele><time>2026-03-29T16:36:21.909Z</time></trkpt><trkpt lat="43.77417695798081" lon="11.15467574818929"><ele>36.0</ele><time>2026-03-29T16:36:22.909Z</time></trkpt><trkpt lat="43.77416312119039" lon="11.155033942037084"><ele>36.0</ele><time>2026-03-29T16:36:23.909Z</time></trkpt><trkpt lat="43.77414085990868" lon="11.155384427500914"><ele>36.0</ele><time>2026-03-29T16:36:24.909Z</time></trkpt><trkpt lat="43.77411058720651" lon="11.155737867387597"><ele>36.0</ele><time>2026-03-29T16:36:25.909Z</time></trkpt><trkpt lat="43.77407442302887" lon="11.156096805840948"><ele>36.0</ele><time>2026-03-29T16:36:26.909Z</time></trkpt><trkpt lat="43.77403539631704" lon="11.156451033316198"><ele>36.5</ele><time>2026-03-29T16:36:27.909Z</time></trkpt><trkpt lat="43.7739869918026" lon="11.156811845497161"><ele>37.0</ele><time>2026-03-29T16:36:28.909Z</time></trkpt><trkpt lat="43.77393444925598" lon="11.157173544498585"><ele>36.0</ele><time>2026-03-29T16:36:29.91Z</time></trkpt><trkpt lat="43.77386538184182" lon="11.157545048745567"><ele>35.0</ele><time>2026-03-29T16:36:30.912Z</time></trkpt><trkpt lat="43.7737882329192" lon="11.157889631394585"><ele>35.0</ele><time>2026-03-29T16:36:31.913Z</time></trkpt><trkpt lat="43.7737201588073" lon="11.158241440682975"><ele>35.0</ele><time>2026-03-29T16:36:32.914Z</time></trkpt><trkpt lat="43.77365046859754" lon="11.15855898970526"><ele>35.0</ele><time>2026-03-29T16:36:33.916Z</time></trkpt><trkpt lat="43.77358852544584" lon="11.15885409864771"><ele>35.0</ele><time>2026-03-29T16:36:34.917Z</time></trkpt><trkpt lat="43.773529165327794" lon="11.159139300788814"><ele>35.0</ele><time>2026-03-29T16:36:35.918Z</time></trkpt><trkpt lat="43.77347498576118" lon="11.159430349265017"><ele>35.0</ele><time>2026-03-29T16:36:36.919Z</time></trkpt><trkpt lat="43.773418623036676" lon="11.15971434812785"><ele>35.0</ele><time>2026-03-29T16:36:37.92Z</time></trkpt><trkpt lat="43.77335989276434" lon="11.160007215489145"><ele>35.0</ele><time>2026-03-29T16:36:38.921Z</time></trkpt><trkpt lat="43.773296802407785" lon="11.160310046954024"><ele>35.5</ele><time>2026-03-29T16:36:39.922Z</time></trkpt><trkpt lat="43.773234604062864" lon="11.160601726190306"><ele>36.0</ele><time>2026-03-29T16:36:40.923Z</time></trkpt><trkpt lat="43.773178109267064" lon="11.160922056276663"><ele>36.0</ele><time>2026-03-29T16:36:41.924Z</time></trkpt><trkpt lat="43.773121892161356" lon="11.161235244318721"><ele>36.0</ele><time>2026-03-29T16:36:42.924Z</time></trkpt><trkpt lat="43.7730584980945" lon="11.161551528169245"><ele>35.5</ele><time>2026-03-29T16:36:43.925Z</time></trkpt><trkpt lat="43.77299294620785" lon="11.161873562088594"><ele>35.0</ele><time>2026-03-29T16:36:44.926Z</time></trkpt><trkpt lat="43.77293238808488" lon="11.162204332498002"><ele>35.0</ele><time>2026-03-29T16:36:45.926Z</time></trkpt><trkpt lat="43.7728678161054" lon="11.162529346333361"><ele>35.0</ele><time>2026-03-29T16:36:46.927Z</time></trkpt><trkpt lat="43.77280221472293" lon="11.162857251112811"><ele>35.0</ele><time>2026-03-29T16:36:47.927Z</time></trkpt><trkpt lat="43.77274191626899" lon="11.163178068064992"><ele>35.0</ele><time>2026-03-29T16:36:48.928Z</time></trkpt><trkpt lat="43.77268292678636" lon="11.163497755405624"><ele>35.33333333333333</ele><time>2026-03-29T16:36:49.928Z</time></trkpt><trkpt lat="43.772626072242765" lon="11.163806758099755"><ele>35.666666666666664</ele><time>2026-03-29T16:36:50.929Z</time></trkpt><trkpt lat="43.7725730712702" lon="11.164096193985523"><ele>36.0</ele><time>2026-03-29T16:36:51.929Z</time></trkpt><trkpt lat="43.772523535583225" lon="11.164355622105747"><ele>35.333333333333336</ele><time>2026-03-29T16:36:52.929Z</time></trkpt><trkpt lat="43.77247416058817" lon="11.164590211688225"><ele>34.66666666666667</ele><time>2026-03-29T16:36:53.93Z</time></trkpt><trkpt lat="43.77243559496117" lon="11.164803379556542"><ele>34.0</ele><time>2026-03-29T16:36:54.93Z</time></trkpt><trkpt lat="43.77240108716225" lon="11.165002884741215"><ele>34.0</ele><time>2026-03-29T16:36:55.93Z</time></trkpt><trkpt lat="43.7723662943132" lon="11.165183300836786"><ele>34.0</ele><time>2026-03-29T16:36:56.931Z</time></trkpt><trkpt lat="43.77233092159304" lon="11.165361173272187"><ele>34.0</ele><time>2026-03-29T16:36:57.931Z</time></trkpt><trkpt lat="43.77229600004457" lon="11.165530781560811"><ele>34.0</ele><time>2026-03-29T16:36:58.931Z</time></trkpt><trkpt lat="43.77226376033346" lon="11.16570081421224"><ele>35.0</ele><time>2026-03-29T16:36:59.931Z</time></trkpt><trkpt lat="43.77222635482194" lon="11.165861166137816"><ele>36.0</ele><time>2026-03-29T16:37:00.932Z</time></trkpt><trkpt lat="43.7721861665969" lon="11.166016804622746"><ele>37.0</ele><time>2026-03-29T16:37:01.932Z</time></trkpt><trkpt lat="43.77213618809013" lon="11.166164856352392"><ele>38.0</ele><time>2026-03-29T16:37:02.932Z</time></trkpt><trkpt lat="43.77206545742952" lon="11.16630345405691"><ele>38.0</ele><time>2026-03-29T16:37:03.932Z</time></trkpt><trkpt lat="43.77197461515564" lon="11.166393585706842"><ele>38.0</ele><time>2026-03-29T16:37:04.932Z</time></trkpt><trkpt lat="43.77187003889505" lon="11.166454525426655"><ele>38.0</ele><time>2026-03-29T16:37:05.933Z</time></trkpt><trkpt lat="43.77175856657064" lon="11.166489231620348"><ele>38.0</ele><time>2026-03-29T16:37:06.935Z</time></trkpt><trkpt lat="43.77164112022098" lon="11.166478077797827"><ele>37.4</ele><time>2026-03-29T16:37:07.935Z</time></trkpt><trkpt lat="43.77153329299002" lon="11.166433326087374"><ele>36.8</ele><time>2026-03-29T16:37:08.935Z</time></trkpt><trkpt lat="43.77144169721057" lon="11.166348952991454"><ele>36.2</ele><time>2026-03-29T16:37:09.935Z</time></trkpt><trkpt lat="43.77136592738978" lon="11.16623600539591"><ele>35.6</ele><time>2026-03-29T16:37:10.935Z</time></trkpt><trkpt lat="43.77130623787193" lon="11.16610157852462"><ele>35.0</ele><time>2026-03-29T16:37:11.935Z</time></trkpt><trkpt lat="43.77126705431008" lon="11.165942368659213"><ele>35.0</ele><time>2026-03-29T16:37:12.935Z</time></trkpt><trkpt lat="43.77125159987221" lon="11.165770570876887"><ele>35.0</ele><time>2026-03-29T16:37:13.935Z</time></trkpt><trkpt lat="43.771258654079716" lon="11.165597812275172"><ele>35.0</ele><time>2026-03-29T16:37:14.935Z</time></trkpt><trkpt lat="43.77127697958972" lon="11.165420820118936"><ele>35.0</ele><time>2026-03-29T16:37:15.936Z</time></trkpt><trkpt lat="43.77131310363193" lon="11.165233379632328"><ele>35.25</ele><time>2026-03-29T16:37:16.935Z</time></trkpt><trkpt lat="43.77137331924181" lon="11.165051695613059"><ele>35.5</ele><time>2026-03-29T16:37:17.935Z</time></trkpt><trkpt lat="43.771456016642716" lon="11.164887457816832"><ele>35.75</ele><time>2026-03-29T16:37:18.936Z</time></trkpt><trkpt lat="43.77155959489327" lon="11.164741302306807"><ele>36.0</ele><time>2026-03-29T16:37:19.936Z</time></trkpt><trkpt lat="43.771678672875225" lon="11.16462184191088"><ele>36.666666666666664</ele><time>2026-03-29T16:37:20.936Z</time></trkpt><trkpt lat="43.771813657677804" lon="11.164516300845483"><ele>37.33333333333333</ele><time>2026-03-29T16:37:21.936Z</time></trkpt><trkpt lat="43.771964560374585" lon="11.164462967419004"><ele>38.0</ele><time>2026-03-29T16:37:22.937Z</time></trkpt><trkpt lat="43.772121460545975" lon="11.164443591269439"><ele>36.666666666666664</ele><time>2026-03-29T16:37:23.937Z</time></trkpt><trkpt lat="43.77229437354579" lon="11.16445510692917"><ele>35.333333333333336</ele><time>2026-03-29T16:37:24.937Z</time></trkpt><trkpt lat="43.77246693298827" lon="11.164478126050758"><ele>34.0</ele><time>2026-03-29T16:37:25.937Z</time></trkpt><trkpt lat="43.77261528018062" lon="11.164505488420302"><ele>34.5</ele><time>2026-03-29T16:37:26.937Z</time></trkpt><trkpt lat="43.77276995943765" lon="11.164523138142572"><ele>35.0</ele><time>2026-03-29T16:37:27.937Z</time></trkpt><trkpt lat="43.772926414816354" lon="11.164543867043278"><ele>35.5</ele><time>2026-03-29T16:37:28.937Z</time></trkpt><trkpt lat="43.77305667177637" lon="11.164551560713933"><ele>36.0</ele><time>2026-03-29T16:37:29.937Z</time></trkpt><trkpt lat="43.77318691553991" lon="11.164546964717177"><ele>36.0</ele><time>2026-03-29T16:37:30.937Z</time></trkpt><trkpt lat="43.77333616031434" lon="11.164559485449617"><ele>36.0</ele><time>2026-03-29T16:37:31.937Z</time></trkpt><trkpt lat="43.77348045205123" lon="11.164573709754562"><ele>36.0</ele><time>2026-03-29T16:37:32.937Z</time></trkpt><trkpt lat="43.77362807623856" lon="11.16458101807188"><ele>36.0</ele><time>2026-03-29T16:37:33.937Z</time></trkpt><trkpt lat="43.77376013765915" lon="11.164581613290265"><ele>35.5</ele><time>2026-03-29T16:37:34.937Z</time></trkpt><trkpt lat="43.7739053903131" lon="11.164589521881362"><ele>35.0</ele><time>2026-03-29T16:37:35.937Z</time></trkpt><trkpt lat="43.77405634810482" lon="11.164576818156329"><ele>34.5</ele><time>2026-03-29T16:37:36.937Z</time></trkpt><trkpt lat="43.77420174759963" lon="11.16463981300776"><ele>34.0</ele><time>2026-03-29T16:37:37.937Z</time></trkpt><trkpt lat="43.77434099766064" lon="11.16468600880197"><ele>34.0</ele><time>2026-03-29T16:37:38.937Z</time></trkpt><trkpt lat="43.77447599577474" lon="11.16473258085016"><ele>34.0</ele><time>2026-03-29T16:37:39.937Z</time></trkpt><trkpt lat="43.774612894365646" lon="11.164778458198542"><ele>34.0</ele><time>2026-03-29T16:37:40.937Z</time></trkpt><trkpt lat="43.774750350590516" lon="11.164815672350844"><ele>34.0</ele><time>2026-03-29T16:37:41.937Z</time></trkpt><trkpt lat="43.7748766118965" lon="11.164846280505834"><ele>34.25</ele><time>2026-03-29T16:37:42.937Z</time></trkpt><trkpt lat="43.7750045483344" lon="11.164865523224522"><ele>34.5</ele><time>2026-03-29T16:37:43.937Z</time></trkpt><trkpt lat="43.775127725683824" lon="11.164868513971077"><ele>34.75</ele><time>2026-03-29T16:37:44.937Z</time></trkpt><trkpt lat="43.77523376079691" lon="11.164867593407688"><ele>35.0</ele><time>2026-03-29T16:37:45.937Z</time></trkpt><trkpt lat="43.775348230623905" lon="11.164860208097247"><ele>35.0</ele><time>2026-03-29T16:37:46.937Z</time></trkpt><trkpt lat="43.77545619525753" lon="11.164848140841341"><ele>35.0</ele><time>2026-03-29T16:37:47.937Z</time></trkpt><trkpt lat="43.775557158365494" lon="11.164830804966602"><ele>35.0</ele><time>2026-03-29T16:37:48.937Z</time></trkpt><trkpt lat="43.775644410796296" lon="11.16480853612085"><ele>35.0</ele><time>2026-03-29T16:37:49.937Z</time></trkpt><trkpt lat="43.77570039052222" lon="11.164763613416236"><ele>35.0</ele><time>2026-03-29T16:37:50.937Z</time></trkpt><trkpt lat="43.77576052103699" lon="11.1647300277606"><ele>35.0</ele><time>2026-03-29T16:37:51.937Z</time></trkpt><trkpt lat="43.775820211393686" lon="11.164701383384033"><ele>35.0</ele><time>2026-03-29T16:37:52.937Z</time></trkpt><trkpt lat="43.77589460100921" lon="11.16466108189467"><ele>35.0</ele><time>2026-03-29T16:37:54.937Z</time></trkpt><trkpt lat="43.77595591009418" lon="11.16462611567523"><ele>35.0</ele><time>2026-03-29T16:37:58.937Z</time></trkpt><trkpt lat="43.77602212248282" lon="11.164584152004483"><ele>35.0</ele><time>2026-03-29T16:38:03.937Z</time></trkpt><trkpt lat="43.77609778401731" lon="11.164558245981032"><ele>35.0</ele><time>2026-03-29T16:38:15.937Z</time></trkpt><trkpt lat="43.77623665530398" lon="11.164470675926424"><ele>34.75</ele><time>2026-03-29T16:38:17.937Z</time></trkpt><trkpt lat="43.77633974850906" lon="11.164423123467376"><ele>34.5</ele><time>2026-03-29T16:38:18.937Z</time></trkpt><trkpt lat="43.7764493684926" lon="11.164357221915967"><ele>34.25</ele><time>2026-03-29T16:38:19.937Z</time></trkpt><trkpt lat="43.776576281003166" lon="11.164262688884047"><ele>34.0</ele><time>2026-03-29T16:38:20.937Z</time></trkpt><trkpt lat="43.776728820958084" lon="11.164139587127769"><ele>34.0</ele><time>2026-03-29T16:38:21.937Z</time></trkpt><trkpt lat="43.77691436388092" lon="11.163986717448791"><ele>34.0</ele><time>2026-03-29T16:38:22.937Z</time></trkpt><trkpt lat="43.77711537675146" lon="11.163796388134061"><ele>34.0</ele><time>2026-03-29T16:38:23.937Z</time></trkpt><trkpt lat="43.777323977246496" lon="11.163578998353733"><ele>34.0</ele><time>2026-03-29T16:38:24.937Z</time></trkpt><trkpt lat="43.777520686399704" lon="11.163386258128112"><ele>34.0</ele><time>2026-03-29T16:38:25.937Z</time></trkpt><trkpt lat="43.77769346061716" lon="11.163241475176942"><ele>34.0</ele><time>2026-03-29T16:38:26.937Z</time></trkpt><trkpt lat="43.777829835803566" lon="11.163055858563608"><ele>34.0</ele><time>2026-03-29T16:38:27.937Z</time></trkpt><trkpt lat="43.777920903950665" lon="11.162856886940867"><ele>34.0</ele><time>2026-03-29T16:38:28.937Z</time></trkpt><trkpt lat="43.778020869509945" lon="11.162649704335005"><ele>34.0</ele><time>2026-03-29T16:38:29.937Z</time></trkpt><trkpt lat="43.77809724826814" lon="11.162428973030652"><ele>34.0</ele><time>2026-03-29T16:38:30.937Z</time></trkpt><trkpt lat="43.77815306372379" lon="11.162209385508843"><ele>34.333333333333336</ele><time>2026-03-29T16:38:31.937Z</time></trkpt><trkpt lat="43.77819196006508" lon="11.161955262556345"><ele>34.666666666666664</ele><time>2026-03-29T16:38:32.937Z</time></trkpt><trkpt lat="43.77820897106107" lon="11.161699917211463"><ele>35.0</ele><time>2026-03-29T16:38:33.937Z</time></trkpt><trkpt lat="43.77820625689786" lon="11.161448800175444"><ele>35.0</ele><time>2026-03-29T16:38:34.937Z</time></trkpt><trkpt lat="43.77817787466509" lon="11.161197502240874"><ele>35.0</ele><time>2026-03-29T16:38:35.937Z</time></trkpt><trkpt lat="43.77812359360054" lon="11.160948444037983"><ele>35.0</ele><time>2026-03-29T16:38:36.937Z</time></trkpt><trkpt lat="43.778053869785296" lon="11.160719978759143"><ele>35.0</ele><time>2026-03-29T16:38:37.936Z</time></trkpt><trkpt lat="43.77796990393811" lon="11.160518528916322"><ele>35.0</ele><time>2026-03-29T16:38:38.936Z</time></trkpt><trkpt lat="43.777880461134984" lon="11.160343170042493"><ele>35.0</ele><time>2026-03-29T16:38:39.936Z</time></trkpt><trkpt lat="43.777767872870044" lon="11.160164591151181"><ele>35.0</ele><time>2026-03-29T16:38:40.936Z</time></trkpt><trkpt lat="43.77764344120531" lon="11.160016109152203"><ele>35.0</ele><time>2026-03-29T16:38:41.936Z</time></trkpt><trkpt lat="43.77750900990977" lon="11.159884282006256"><ele>35.0</ele><time>2026-03-29T16:38:42.936Z</time></trkpt><trkpt lat="43.777366601711236" lon="11.159772196884536"><ele>34.666666666666664</ele><time>2026-03-29T16:38:43.936Z</time></trkpt><trkpt lat="43.77720923271092" lon="11.159692591660493"><ele>34.333333333333336</ele><time>2026-03-29T16:38:44.936Z</time></trkpt><trkpt lat="43.77704708274352" lon="11.159652448241129"><ele>34.0</ele><time>2026-03-29T16:38:45.936Z</time></trkpt><trkpt lat="43.77689221534715" lon="11.159646548784119"><ele>34.0</ele><time>2026-03-29T16:38:46.936Z</time></trkpt><trkpt lat="43.77673202196154" lon="11.159687070415691"><ele>34.0</ele><time>2026-03-29T16:38:47.936Z</time></trkpt><trkpt lat="43.776561983437034" lon="11.159768513960143"><ele>34.0</ele><time>2026-03-29T16:38:48.936Z</time></trkpt><trkpt lat="43.77641764189097" lon="11.159890342918"><ele>34.333333333333336</ele><time>2026-03-29T16:38:49.936Z</time></trkpt><trkpt lat="43.776287403177264" lon="11.160036200420388"><ele>34.666666666666664</ele><time>2026-03-29T16:38:50.936Z</time></trkpt><trkpt lat="43.77617134129982" lon="11.160218809497843"><ele>35.0</ele><time>2026-03-29T16:38:51.936Z</time></trkpt><trkpt lat="43.77607439359675" lon="11.160428259154282"><ele>34.666666666666664</ele><time>2026-03-29T16:38:52.936Z</time></trkpt><trkpt lat="43.77598691861845" lon="11.160655815620979"><ele>34.333333333333336</ele><time>2026-03-29T16:38:53.936Z</time></trkpt><trkpt lat="43.77589975964521" lon="11.160884674539595"><ele>34.0</ele><time>2026-03-29T16:38:54.936Z</time></trkpt><trkpt lat="43.77581114601105" lon="11.161083422723765"><ele>34.0</ele><time>2026-03-29T16:38:55.936Z</time></trkpt><trkpt lat="43.77570674316505" lon="11.161258266087929"><ele>34.0</ele><time>2026-03-29T16:38:56.936Z</time></trkpt><trkpt lat="43.7755911092377" lon="11.161411641495242"><ele>34.0</ele><time>2026-03-29T16:38:57.936Z</time></trkpt><trkpt lat="43.7754611030587" lon="11.16155460139907"><ele>34.0</ele><time>2026-03-29T16:38:58.936Z</time></trkpt><trkpt lat="43.775307336836384" lon="11.16169541495767"><ele>34.0</ele><time>2026-03-29T16:38:59.936Z</time></trkpt><trkpt lat="43.77513682146601" lon="11.16181419167124"><ele>34.0</ele><time>2026-03-29T16:39:00.936Z</time></trkpt><trkpt lat="43.7749693635516" lon="11.161888182511515"><ele>34.333333333333336</ele><time>2026-03-29T16:39:01.936Z</time></trkpt><trkpt lat="43.77478633813666" lon="11.161951363995062"><ele>34.666666666666664</ele><time>2026-03-29T16:39:02.936Z</time></trkpt><trkpt lat="43.77459686280768" lon="11.162000099206397"><ele>35.0</ele><time>2026-03-29T16:39:03.936Z</time></trkpt><trkpt lat="43.774397257471485" lon="11.162053316448686"><ele>34.666666666666664</ele><time>2026-03-29T16:39:04.936Z</time></trkpt><trkpt lat="43.77418740720845" lon="11.162111336715107"><ele>34.333333333333336</ele><time>2026-03-29T16:39:05.936Z</time></trkpt><trkpt lat="43.773982113150325" lon="11.16217880175002"><ele>34.0</ele><time>2026-03-29T16:39:06.936Z</time></trkpt><trkpt lat="43.77376584913398" lon="11.162256867335202"><ele>34.0</ele><time>2026-03-29T16:39:07.936Z</time></trkpt><trkpt lat="43.77354506659735" lon="11.162346706130378"><ele>34.0</ele><time>2026-03-29T16:39:08.936Z</time></trkpt><trkpt lat="43.77331753267351" lon="11.16241422226714"><ele>34.333333333333336</ele><time>2026-03-29T16:39:09.936Z</time></trkpt><trkpt lat="43.77309619371905" lon="11.162496069753685"><ele>34.666666666666664</ele><time>2026-03-29T16:39:10.936Z</time></trkpt><trkpt lat="43.772885091788176" lon="11.162548785571033"><ele>35.0</ele><time>2026-03-29T16:39:11.936Z</time></trkpt><trkpt lat="43.772675090488114" lon="11.162631604582042"><ele>35.0</ele><time>2026-03-29T16:39:12.939Z</time></trkpt><trkpt lat="43.7724634951284" lon="11.162736202057827"><ele>35.0</ele><time>2026-03-29T16:39:13.937Z</time></trkpt><trkpt lat="43.77223735037248" lon="11.162825752404478"><ele>35.0</ele><time>2026-03-29T16:39:14.937Z</time></trkpt><trkpt lat="43.7720035315106" lon="11.162928199074534"><ele>35.0</ele><time>2026-03-29T16:39:15.938Z</time></trkpt><trkpt lat="43.77176574286745" lon="11.163045446665548"><ele>35.5</ele><time>2026-03-29T16:39:16.938Z</time></trkpt><trkpt lat="43.771526474433486" lon="11.163184880117656"><ele>36.0</ele><time>2026-03-29T16:39:17.938Z</time></trkpt><trkpt lat="43.7712932533491" lon="11.16331564357808"><ele>36.0</ele><time>2026-03-29T16:39:18.938Z</time></trkpt><trkpt lat="43.771065472785125" lon="11.16343942162818"><ele>36.0</ele><time>2026-03-29T16:39:19.938Z</time></trkpt><trkpt lat="43.77084034660192" lon="11.16358121607176"><ele>36.0</ele><time>2026-03-29T16:39:20.938Z</time></trkpt><trkpt lat="43.770620446159256" lon="11.163700189317927"><ele>36.0</ele><time>2026-03-29T16:39:21.938Z</time></trkpt><trkpt lat="43.77039822564259" lon="11.1638389244484"><ele>36.5</ele><time>2026-03-29T16:39:22.938Z</time></trkpt><trkpt lat="43.770176585058316" lon="11.163977356790996"><ele>37.0</ele><time>2026-03-29T16:39:23.938Z</time></trkpt><trkpt lat="43.76996298411236" lon="11.16413832220456"><ele>37.0</ele><time>2026-03-29T16:39:24.938Z</time></trkpt><trkpt lat="43.76974803724947" lon="11.164286421413447"><ele>37.0</ele><time>2026-03-29T16:39:25.937Z</time></trkpt><trkpt lat="43.769531551147814" lon="11.164460029270359"><ele>39.0</ele><time>2026-03-29T16:39:26.937Z</time></trkpt><trkpt lat="43.76931907826019" lon="11.164618389118472"><ele>41.0</ele><time>2026-03-29T16:39:27.937Z</time></trkpt><trkpt lat="43.769111744635424" lon="11.164765705303118"><ele>40.5</ele><time>2026-03-29T16:39:28.937Z</time></trkpt><trkpt lat="43.768893749590966" lon="11.164936096669123"><ele>40.0</ele><time>2026-03-29T16:39:29.937Z</time></trkpt><trkpt lat="43.76867525126015" lon="11.16510109602566"><ele>39.0</ele><time>2026-03-29T16:39:30.937Z</time></trkpt><trkpt lat="43.76845608701969" lon="11.165259835857173"><ele>38.0</ele><time>2026-03-29T16:39:31.937Z</time></trkpt><trkpt lat="43.76823357259705" lon="11.1654194153564"><ele>38.0</ele><time>2026-03-29T16:39:32.937Z</time></trkpt><trkpt lat="43.768027449103386" lon="11.165592194512527"><ele>38.0</ele><time>2026-03-29T16:39:33.937Z</time></trkpt><trkpt lat="43.767819711197625" lon="11.165745715150713"><ele>37.5</ele><time>2026-03-29T16:39:34.937Z</time></trkpt><trkpt lat="43.7676143228311" lon="11.165896405304164"><ele>37.0</ele><time>2026-03-29T16:39:35.937Z</time></trkpt><trkpt lat="43.767406894640764" lon="11.166041637122214"><ele>37.0</ele><time>2026-03-29T16:39:36.937Z</time></trkpt><trkpt lat="43.767183823146745" lon="11.166211553687916"><ele>37.0</ele><time>2026-03-29T16:39:37.937Z</time></trkpt><trkpt lat="43.76694955063361" lon="11.166393279107943"><ele>37.0</ele><time>2026-03-29T16:39:38.937Z</time></trkpt><trkpt lat="43.76670459845245" lon="11.166585679469613"><ele>37.0</ele><time>2026-03-29T16:39:39.937Z</time></trkpt><trkpt lat="43.76645455823098" lon="11.16678129510602"><ele>37.0</ele><time>2026-03-29T16:39:40.937Z</time></trkpt><trkpt lat="43.76620058162494" lon="11.166972154199424"><ele>37.0</ele><time>2026-03-29T16:39:41.937Z</time></trkpt><trkpt lat="43.7659456681967" lon="11.16716867875967"><ele>37.5</ele><time>2026-03-29T16:39:42.937Z</time></trkpt><trkpt lat="43.76568467671791" lon="11.167371265625734"><ele>38.0</ele><time>2026-03-29T16:39:43.937Z</time></trkpt><trkpt lat="43.765418582318034" lon="11.167585720344283"><ele>37.5</ele><time>2026-03-29T16:39:44.937Z</time></trkpt><trkpt lat="43.76513161012959" lon="11.167767159873897"><ele>37.0</ele><time>2026-03-29T16:39:45.937Z</time></trkpt><trkpt lat="43.76485119689977" lon="11.167964102559889"><ele>37.0</ele><time>2026-03-29T16:39:46.937Z</time></trkpt><trkpt lat="43.76457163733692" lon="11.16815883576844"><ele>37.0</ele><time>2026-03-29T16:39:47.937Z</time></trkpt><trkpt lat="43.764290423872815" lon="11.168350072072927"><ele>38.0</ele><time>2026-03-29T16:39:48.937Z</time></trkpt><trkpt lat="43.764218521276" lon="11.168403211281543"><ele>39.0</ele><time>2026-03-29T16:39:49.937Z</time></trkpt><trkpt lat="43.76316" lon="11.1688895"><ele>40.0</ele><time>2026-03-29T16:39:53.418Z</time></trkpt><trkpt lat="43.76129103067511" lon="11.16960864425077"><ele>40.0</ele><time>2026-03-29T16:39:58.937Z</time></trkpt><trkpt lat="43.76096870022153" lon="11.16970798541232"><ele>40.0</ele><time>2026-03-29T16:39:59.937Z</time></trkpt><trkpt lat="43.76065049037986" lon="11.169778107916496"><ele>40.0</ele><time>2026-03-29T16:40:00.937Z</time></trkpt><trkpt lat="43.76032548822469" lon="11.169835608104647"><ele>40.0</ele><time>2026-03-29T16:40:01.937Z</time></trkpt><trkpt lat="43.76000519367832" lon="11.169902648970595"><ele>40.0</ele><time>2026-03-29T16:40:02.937Z</time></trkpt><trkpt lat="43.759702833853936" lon="11.16996719223478"><ele>40.0</ele><time>2026-03-29T16:40:03.937Z</time></trkpt><trkpt lat="43.75937938155133" lon="11.170045382907231"><ele>41.0</ele><time>2026-03-29T16:40:04.937Z</time></trkpt><trkpt lat="43.75907390613745" lon="11.170106003485378"><ele>42.0</ele><time>2026-03-29T16:40:05.937Z</time></trkpt><trkpt lat="43.758761471400064" lon="11.1701596703588"><ele>41.5</ele><time>2026-03-29T16:40:06.937Z</time></trkpt><trkpt lat="43.758447385032945" lon="11.170202379313745"><ele>41.0</ele><time>2026-03-29T16:40:07.937Z</time></trkpt><trkpt lat="43.758170933703816" lon="11.170483160843924"><ele>41.0</ele><time>2026-03-29T16:40:08.937Z</time></trkpt><trkpt lat="43.75786817109296" lon="11.17052262915588"><ele>41.0</ele><time>2026-03-29T16:40:09.937Z</time></trkpt><trkpt lat="43.75756775795778" lon="11.170573211108785"><ele>41.0</ele><time>2026-03-29T16:40:10.937Z</time></trkpt><trkpt lat="43.75726289998459" lon="11.17061676955512"><ele>41.0</ele><time>2026-03-29T16:40:11.937Z</time></trkpt><trkpt lat="43.75695997029396" lon="11.170662747302128"><ele>42.5</ele><time>2026-03-29T16:40:12.937Z</time></trkpt><trkpt lat="43.75665391842652" lon="11.170709269713786"><ele>44.0</ele><time>2026-03-29T16:40:13.937Z</time></trkpt><trkpt lat="43.75634422927264" lon="11.170751750426549"><ele>44.0</ele><time>2026-03-29T16:40:14.937Z</time></trkpt><trkpt lat="43.75603116299889" lon="11.170790182263136"><ele>44.0</ele><time>2026-03-29T16:40:15.937Z</time></trkpt><trkpt lat="43.75572096346916" lon="11.1708356654919"><ele>44.0</ele><time>2026-03-29T16:40:16.937Z</time></trkpt><trkpt lat="43.75541468925135" lon="11.170880631318138"><ele>44.0</ele><time>2026-03-29T16:40:17.937Z</time></trkpt><trkpt lat="43.75509975717514" lon="11.17092809205144"><ele>43.5</ele><time>2026-03-29T16:40:18.937Z</time></trkpt><trkpt lat="43.754786840922705" lon="11.170980626888678"><ele>43.0</ele><time>2026-03-29T16:40:19.937Z</time></trkpt><trkpt lat="43.75447272160763" lon="11.171030399137155"><ele>43.5</ele><time>2026-03-29T16:40:20.937Z</time></trkpt><trkpt lat="43.75416620347528" lon="11.171079297413861"><ele>44.0</ele><time>2026-03-29T16:40:21.937Z</time></trkpt><trkpt lat="43.75385872383836" lon="11.171125591703765"><ele>44.0</ele><time>2026-03-29T16:40:22.937Z</time></trkpt><trkpt lat="43.753548476987895" lon="11.171173080999747"><ele>44.0</ele><time>2026-03-29T16:40:23.937Z</time></trkpt><trkpt lat="43.75325068467844" lon="11.171224487203359"><ele>44.5</ele><time>2026-03-29T16:40:24.937Z</time></trkpt><trkpt lat="43.75294557379974" lon="11.171274460120106"><ele>45.0</ele><time>2026-03-29T16:40:25.937Z</time></trkpt><trkpt lat="43.75264713220372" lon="11.171323440953612"><ele>45.0</ele><time>2026-03-29T16:40:26.937Z</time></trkpt><trkpt lat="43.75234266923639" lon="11.171368661119557"><ele>45.0</ele><time>2026-03-29T16:40:27.937Z</time></trkpt><trkpt lat="43.752052733289155" lon="11.171421901677249"><ele>45.0</ele><time>2026-03-29T16:40:28.937Z</time></trkpt><trkpt lat="43.75176768720941" lon="11.171472497874214"><ele>45.0</ele><time>2026-03-29T16:40:29.937Z</time></trkpt><trkpt lat="43.75147521439989" lon="11.171525514010016"><ele>45.5</ele><time>2026-03-29T16:40:30.937Z</time></trkpt><trkpt lat="43.751187559248955" lon="11.171575512853169"><ele>46.0</ele><time>2026-03-29T16:40:31.937Z</time></trkpt><trkpt lat="43.75089460055086" lon="11.17163356172459"><ele>46.5</ele><time>2026-03-29T16:40:32.937Z</time></trkpt><trkpt lat="43.75060258561741" lon="11.171690349771493"><ele>47.0</ele><time>2026-03-29T16:40:33.937Z</time></trkpt><trkpt lat="43.75030881736911" lon="11.171747790271041"><ele>47.0</ele><time>2026-03-29T16:40:34.937Z</time></trkpt><trkpt lat="43.75000858459611" lon="11.17180175635681"><ele>47.0</ele><time>2026-03-29T16:40:35.937Z</time></trkpt><trkpt lat="43.749704015479885" lon="11.171856126468816"><ele>47.0</ele><time>2026-03-29T16:40:36.937Z</time></trkpt><trkpt lat="43.74939602812989" lon="11.171909910185162"><ele>47.0</ele><time>2026-03-29T16:40:37.937Z</time></trkpt><trkpt lat="43.74908164982938" lon="11.171967464522698"><ele>48.0</ele><time>2026-03-29T16:40:38.937Z</time></trkpt><trkpt lat="43.74876413980242" lon="11.172024917589386"><ele>49.0</ele><time>2026-03-29T16:40:39.937Z</time></trkpt><trkpt lat="43.74844617558174" lon="11.172089032729302"><ele>49.0</ele><time>2026-03-29T16:40:40.937Z</time></trkpt><trkpt lat="43.74813319737256" lon="11.172164489493534"><ele>49.0</ele><time>2026-03-29T16:40:41.937Z</time></trkpt><trkpt lat="43.74782668901733" lon="11.172263538320996"><ele>49.0</ele><time>2026-03-29T16:40:42.937Z</time></trkpt><trkpt lat="43.74753139598423" lon="11.172388974208104"><ele>49.0</ele><time>2026-03-29T16:40:43.937Z</time></trkpt><trkpt lat="43.747243624339816" lon="11.172547490155182"><ele>49.0</ele><time>2026-03-29T16:40:44.937Z</time></trkpt><trkpt lat="43.74696824481296" lon="11.172733297269538"><ele>49.0</ele><time>2026-03-29T16:40:45.937Z</time></trkpt><trkpt lat="43.74670448856007" lon="11.172938684634882"><ele>50.5</ele><time>2026-03-29T16:40:46.937Z</time></trkpt><trkpt lat="43.746451444548896" lon="11.17316614274967"><ele>52.0</ele><time>2026-03-29T16:40:47.937Z</time></trkpt><trkpt lat="43.746205940292356" lon="11.1734213413769"><ele>53.5</ele><time>2026-03-29T16:40:48.937Z</time></trkpt><trkpt lat="43.74596626090891" lon="11.173706309965944"><ele>55.0</ele><time>2026-03-29T16:40:49.937Z</time></trkpt><trkpt lat="43.74575228837943" lon="11.174010349893564"><ele>54.5</ele><time>2026-03-29T16:40:50.937Z</time></trkpt><trkpt lat="43.74555457106504" lon="11.17433528842439"><ele>54.0</ele><time>2026-03-29T16:40:51.937Z</time></trkpt><trkpt lat="43.74537367811638" lon="11.174680327644435"><ele>53.5</ele><time>2026-03-29T16:40:52.936Z</time></trkpt><trkpt lat="43.74520698631257" lon="11.175033353638387"><ele>53.0</ele><time>2026-03-29T16:40:53.936Z</time></trkpt><trkpt lat="43.74506114471268" lon="11.17540377062308"><ele>53.5</ele><time>2026-03-29T16:40:54.936Z</time></trkpt><trkpt lat="43.74493104902367" lon="11.175791538741954"><ele>54.0</ele><time>2026-03-29T16:40:55.936Z</time></trkpt><trkpt lat="43.74481509553643" lon="11.176177023307275"><ele>56.5</ele><time>2026-03-29T16:40:56.936Z</time></trkpt><trkpt lat="43.744705029823464" lon="11.176552904624607"><ele>59.0</ele><time>2026-03-29T16:40:57.936Z</time></trkpt><trkpt lat="43.74459574843783" lon="11.176936371235657"><ele>59.0</ele><time>2026-03-29T16:40:58.936Z</time></trkpt><trkpt lat="43.744481066797796" lon="11.177328591473763"><ele>59.0</ele><time>2026-03-29T16:40:59.936Z</time></trkpt><trkpt lat="43.74436403449675" lon="11.177722163752831"><ele>60.0</ele><time>2026-03-29T16:41:00.936Z</time></trkpt><trkpt lat="43.74424417035213" lon="11.178114681177815"><ele>61.0</ele><time>2026-03-29T16:41:01.936Z</time></trkpt><trkpt lat="43.74410538475283" lon="11.178503456144243"><ele>61.0</ele><time>2026-03-29T16:41:02.936Z</time></trkpt><trkpt lat="43.74396597991299" lon="11.178862782727954"><ele>61.0</ele><time>2026-03-29T16:41:03.936Z</time></trkpt><trkpt lat="43.74380615895818" lon="11.179197943657108"><ele>61.0</ele><time>2026-03-29T16:41:04.936Z</time></trkpt><trkpt lat="43.74362437411106" lon="11.179512820557479"><ele>61.0</ele><time>2026-03-29T16:41:05.936Z</time></trkpt><trkpt lat="43.74342850365387" lon="11.179800033602648"><ele>59.5</ele><time>2026-03-29T16:41:06.936Z</time></trkpt><trkpt lat="43.743222129844014" lon="11.18006889704177"><ele>58.0</ele><time>2026-03-29T16:41:07.936Z</time></trkpt><trkpt lat="43.74300295851545" lon="11.180309993956987"><ele>58.0</ele><time>2026-03-29T16:41:08.936Z</time></trkpt><trkpt lat="43.74277483048867" lon="11.180537534124882"><ele>58.0</ele><time>2026-03-29T16:41:09.936Z</time></trkpt><trkpt lat="43.7425441163315" lon="11.180758331694612"><ele>57.5</ele><time>2026-03-29T16:41:10.936Z</time></trkpt><trkpt lat="43.7423106005925" lon="11.180976425074281"><ele>57.0</ele><time>2026-03-29T16:41:11.936Z</time></trkpt><trkpt lat="43.7420793795824" lon="11.181185902069853"><ele>58.0</ele><time>2026-03-29T16:41:12.936Z</time></trkpt><trkpt lat="43.74184549038038" lon="11.181409684364187"><ele>59.0</ele><time>2026-03-29T16:41:13.936Z</time></trkpt><trkpt lat="43.74161309188266" lon="11.18162992044538"><ele>59.0</ele><time>2026-03-29T16:41:14.936Z</time></trkpt><trkpt lat="43.741381270406244" lon="11.181845140000949"><ele>59.0</ele><time>2026-03-29T16:41:15.936Z</time></trkpt><trkpt lat="43.741148567812395" lon="11.182065052783212"><ele>61.0</ele><time>2026-03-29T16:41:16.936Z</time></trkpt><trkpt lat="43.74091005067978" lon="11.182284818507922"><ele>63.0</ele><time>2026-03-29T16:41:17.936Z</time></trkpt><trkpt lat="43.7406723341934" lon="11.182502734799519"><ele>63.0</ele><time>2026-03-29T16:41:18.939Z</time></trkpt><trkpt lat="43.74043208082033" lon="11.182727543075933"><ele>63.0</ele><time>2026-03-29T16:41:19.939Z</time></trkpt><trkpt lat="43.740187210276524" lon="11.182944924538965"><ele>63.0</ele><time>2026-03-29T16:41:20.939Z</time></trkpt><trkpt lat="43.739942587000506" lon="11.183178600809532"><ele>63.0</ele><time>2026-03-29T16:41:21.94Z</time></trkpt><trkpt lat="43.73969426192747" lon="11.183410288859855"><ele>63.0</ele><time>2026-03-29T16:41:22.939Z</time></trkpt><trkpt lat="43.73944918662837" lon="11.18364122248423"><ele>63.0</ele><time>2026-03-29T16:41:23.939Z</time></trkpt><trkpt lat="43.739202536299665" lon="11.183869255316749"><ele>64.0</ele><time>2026-03-29T16:41:24.939Z</time></trkpt><trkpt lat="43.738953060966416" lon="11.184098992352235"><ele>65.0</ele><time>2026-03-29T16:41:25.939Z</time></trkpt><trkpt lat="43.738706451142306" lon="11.18432836409466"><ele>69.0</ele><time>2026-03-29T16:41:26.939Z</time></trkpt><trkpt lat="43.73845740765565" lon="11.18456321864443"><ele>73.0</ele><time>2026-03-29T16:41:27.939Z</time></trkpt><trkpt lat="43.73821216530336" lon="11.184787623680473"><ele>75.5</ele><time>2026-03-29T16:41:28.939Z</time></trkpt><trkpt lat="43.73796795897628" lon="11.185012891822135"><ele>78.0</ele><time>2026-03-29T16:41:29.939Z</time></trkpt><trkpt lat="43.73771810255046" lon="11.18523704355402"><ele>78.0</ele><time>2026-03-29T16:41:30.94Z</time></trkpt><trkpt lat="43.737467458446076" lon="11.185444644986783"><ele>78.0</ele><time>2026-03-29T16:41:31.939Z</time></trkpt><trkpt lat="43.73720834340953" lon="11.185649906784498"><ele>76.5</ele><time>2026-03-29T16:41:32.939Z</time></trkpt><trkpt lat="43.73694545335933" lon="11.18583969866224"><ele>75.0</ele><time>2026-03-29T16:41:33.939Z</time></trkpt><trkpt lat="43.73668011702274" lon="11.18601950798912"><ele>80.5</ele><time>2026-03-29T16:41:34.939Z</time></trkpt><trkpt lat="43.736411170564324" lon="11.186191216511267"><ele>86.0</ele><time>2026-03-29T16:41:35.939Z</time></trkpt><trkpt lat="43.736138715437576" lon="11.186351911432597"><ele>83.5</ele><time>2026-03-29T16:41:36.939Z</time></trkpt><trkpt lat="43.73586025240583" lon="11.18650495274728"><ele>81.0</ele><time>2026-03-29T16:41:37.939Z</time></trkpt><trkpt lat="43.73557833068216" lon="11.186650150049564"><ele>81.0</ele><time>2026-03-29T16:41:38.939Z</time></trkpt><trkpt lat="43.73529574924428" lon="11.18679699714646"><ele>81.0</ele><time>2026-03-29T16:41:39.939Z</time></trkpt><trkpt lat="43.73501349124607" lon="11.186943438524152"><ele>83.5</ele><time>2026-03-29T16:41:40.939Z</time></trkpt><trkpt lat="43.73473239130139" lon="11.18709101142373"><ele>86.0</ele><time>2026-03-29T16:41:41.939Z</time></trkpt><trkpt lat="43.73445245826179" lon="11.187239533535859"><ele>81.5</ele><time>2026-03-29T16:41:42.939Z</time></trkpt><trkpt lat="43.734167522572015" lon="11.18739092630047"><ele>77.0</ele><time>2026-03-29T16:41:43.939Z</time></trkpt><trkpt lat="43.733890124321285" lon="11.18753925174406"><ele>77.0</ele><time>2026-03-29T16:41:44.939Z</time></trkpt><trkpt lat="43.733609919459596" lon="11.187686029017248"><ele>77.0</ele><time>2026-03-29T16:41:45.939Z</time></trkpt><trkpt lat="43.73333099806934" lon="11.187832171130184"><ele>74.5</ele><time>2026-03-29T16:41:46.939Z</time></trkpt><trkpt lat="43.733060327420745" lon="11.187997358205722"><ele>72.0</ele><time>2026-03-29T16:41:47.939Z</time></trkpt><trkpt lat="43.73279490203863" lon="11.188177248870984"><ele>76.5</ele><time>2026-03-29T16:41:48.939Z</time></trkpt><trkpt lat="43.73253773518528" lon="11.188372444789113"><ele>81.0</ele><time>2026-03-29T16:41:49.939Z</time></trkpt><trkpt lat="43.732290555896796" lon="11.18858547432103"><ele>81.0</ele><time>2026-03-29T16:41:50.939Z</time></trkpt><trkpt lat="43.732055221120746" lon="11.188818347978595"><ele>81.0</ele><time>2026-03-29T16:41:51.939Z</time></trkpt><trkpt lat="43.73182604273687" lon="11.18907151767435"><ele>83.5</ele><time>2026-03-29T16:41:52.939Z</time></trkpt><trkpt lat="43.73160569243378" lon="11.189346950371535"><ele>86.0</ele><time>2026-03-29T16:41:53.939Z</time></trkpt><trkpt lat="43.7313966917352" lon="11.189635016663727"><ele>89.5</ele><time>2026-03-29T16:41:54.939Z</time></trkpt><trkpt lat="43.73119535166947" lon="11.189932794477926"><ele>93.0</ele><time>2026-03-29T16:41:55.939Z</time></trkpt><trkpt lat="43.73098885555401" lon="11.190231045186279"><ele>88.5</ele><time>2026-03-29T16:41:56.939Z</time></trkpt><trkpt lat="43.730803536930644" lon="11.19054933897434"><ele>84.0</ele><time>2026-03-29T16:41:57.939Z</time></trkpt><trkpt lat="43.730628364692556" lon="11.190878586041622"><ele>84.0</ele><time>2026-03-29T16:41:58.939Z</time></trkpt><trkpt lat="43.73045967747874" lon="11.191218350123249"><ele>84.0</ele><time>2026-03-29T16:41:59.939Z</time></trkpt><trkpt lat="43.730292983468125" lon="11.191564299929981"><ele>87.5</ele><time>2026-03-29T16:42:00.939Z</time></trkpt><trkpt lat="43.73013320878869" lon="11.191896205915395"><ele>91.0</ele><time>2026-03-29T16:42:01.939Z</time></trkpt><trkpt lat="43.7299710602322" lon="11.192225187109416"><ele>92.0</ele><time>2026-03-29T16:42:02.939Z</time></trkpt><trkpt lat="43.72980907798818" lon="11.19255206865558"><ele>93.0</ele><time>2026-03-29T16:42:03.939Z</time></trkpt><trkpt lat="43.7296519268133" lon="11.192876304920526"><ele>93.5</ele><time>2026-03-29T16:42:04.939Z</time></trkpt><trkpt lat="43.72949914091424" lon="11.193199312150947"><ele>94.0</ele><time>2026-03-29T16:42:05.939Z</time></trkpt><trkpt lat="43.72934114358406" lon="11.19351944852802"><ele>103.5</ele><time>2026-03-29T16:42:06.939Z</time></trkpt><trkpt lat="43.72918354869609" lon="11.193834926298655"><ele>113.0</ele><time>2026-03-29T16:42:07.939Z</time></trkpt><trkpt lat="43.72902444491072" lon="11.194149612376263"><ele>116.0</ele><time>2026-03-29T16:42:08.939Z</time></trkpt><trkpt lat="43.72886269134225" lon="11.19446357758408"><ele>119.0</ele><time>2026-03-29T16:42:09.939Z</time></trkpt><trkpt lat="43.72870376122735" lon="11.194767421297946"><ele>125.5</ele><time>2026-03-29T16:42:10.939Z</time></trkpt><trkpt lat="43.728547363609025" lon="11.195066161023288"><ele>132.0</ele><time>2026-03-29T16:42:11.939Z</time></trkpt><trkpt lat="43.72839217872478" lon="11.195363385343772"><ele>132.0</ele><time>2026-03-29T16:42:12.939Z</time></trkpt><trkpt lat="43.72823680193501" lon="11.195661848277293"><ele>132.0</ele><time>2026-03-29T16:42:13.939Z</time></trkpt><trkpt lat="43.72834290505014" lon="11.195931614145838"><ele>123.0</ele><time>2026-03-29T16:42:14.939Z</time></trkpt><trkpt lat="43.726283530669214" lon="11.205877503906597"><ele>128.0</ele><time>2026-03-29T16:42:44.939Z</time></trkpt><trkpt lat="43.72688438712815" lon="11.20668019448481"><ele>123.5</ele><time>2026-03-29T16:42:45.939Z</time></trkpt><trkpt lat="43.72697966179518" lon="11.20718385409943"><ele>119.0</ele><time>2026-03-29T16:42:46.939Z</time></trkpt><trkpt lat="43.727016041274844" lon="11.207554654923706"><ele>117.0</ele><time>2026-03-29T16:42:47.939Z</time></trkpt><trkpt lat="43.727018586294534" lon="11.207904321871752"><ele>115.0</ele><time>2026-03-29T16:42:48.939Z</time></trkpt><trkpt lat="43.727021180362" lon="11.208265461260506"><ele>114.0</ele><time>2026-03-29T16:42:49.939Z</time></trkpt><trkpt lat="43.72702260373742" lon="11.2086334131249"><ele>113.0</ele><time>2026-03-29T16:42:50.939Z</time></trkpt><trkpt lat="43.72689773970237" lon="11.209282336923456"><ele>120.0</ele><time>2026-03-29T16:42:51.939Z</time></trkpt><trkpt lat="43.72688720934229" lon="11.209928794191633"><ele>115.0</ele><time>2026-03-29T16:42:52.939Z</time></trkpt><trkpt lat="43.72690860567346" lon="11.21055774144425"><ele>111.5</ele><time>2026-03-29T16:42:53.938Z</time></trkpt><trkpt lat="43.726881603882646" lon="11.211058386941342"><ele>108.0</ele><time>2026-03-29T16:42:54.938Z</time></trkpt><trkpt lat="43.72684218033615" lon="11.211552622986572"><ele>103.5</ele><time>2026-03-29T16:42:55.938Z</time></trkpt><trkpt lat="43.726809579343296" lon="11.211999132982548"><ele>99.0</ele><time>2026-03-29T16:42:56.938Z</time></trkpt><trkpt lat="43.72677538785427" lon="11.212456872078224"><ele>99.0</ele><time>2026-03-29T16:42:57.938Z</time></trkpt><trkpt lat="43.726737030342775" lon="11.212924793966575"><ele>99.0</ele><time>2026-03-29T16:42:58.938Z</time></trkpt><trkpt lat="43.72670437648118" lon="11.213379329009799"><ele>97.5</ele><time>2026-03-29T16:42:59.938Z</time></trkpt><trkpt lat="43.72666006981752" lon="11.213829440258989"><ele>96.0</ele><time>2026-03-29T16:43:00.938Z</time></trkpt><trkpt lat="43.7266097470699" lon="11.214267630187956"><ele>95.5</ele><time>2026-03-29T16:43:01.938Z</time></trkpt><trkpt lat="43.72655600600702" lon="11.21471167827777"><ele>95.0</ele><time>2026-03-29T16:43:02.938Z</time></trkpt><trkpt lat="43.72649086649465" lon="11.21512704434674"><ele>94.5</ele><time>2026-03-29T16:43:03.938Z</time></trkpt><trkpt lat="43.72641261918704" lon="11.215536817539203"><ele>94.0</ele><time>2026-03-29T16:43:04.938Z</time></trkpt><trkpt lat="43.72631921972099" lon="11.215955227495682"><ele>91.5</ele><time>2026-03-29T16:43:05.938Z</time></trkpt><trkpt lat="43.72620554393735" lon="11.21634690103173"><ele>89.0</ele><time>2026-03-29T16:43:06.938Z</time></trkpt><trkpt lat="43.72608130914252" lon="11.216725533956541"><ele>91.0</ele><time>2026-03-29T16:43:07.938Z</time></trkpt><trkpt lat="43.72595680443126" lon="11.21710691441127"><ele>93.0</ele><time>2026-03-29T16:43:08.938Z</time></trkpt><trkpt lat="43.72581940764248" lon="11.217468433177059"><ele>93.0</ele><time>2026-03-29T16:43:09.938Z</time></trkpt><trkpt lat="43.72566714348939" lon="11.217816730878408"><ele>93.0</ele><time>2026-03-29T16:43:10.938Z</time></trkpt><trkpt lat="43.725505948298405" lon="11.218161868730638"><ele>94.0</ele><time>2026-03-29T16:43:11.938Z</time></trkpt><trkpt lat="43.72533098042852" lon="11.218501680913604"><ele>95.0</ele><time>2026-03-29T16:43:12.938Z</time></trkpt><trkpt lat="43.72514224225115" lon="11.21884615502065"><ele>90.0</ele><time>2026-03-29T16:43:13.938Z</time></trkpt><trkpt lat="43.72494136519144" lon="11.219206546233808"><ele>85.0</ele><time>2026-03-29T16:43:14.938Z</time></trkpt><trkpt lat="43.72475241680756" lon="11.219526915892265"><ele>81.0</ele><time>2026-03-29T16:43:15.938Z</time></trkpt><trkpt lat="43.72456004803287" lon="11.219858813426605"><ele>77.0</ele><time>2026-03-29T16:43:16.938Z</time></trkpt><trkpt lat="43.72436822302238" lon="11.220183669129526"><ele>77.0</ele><time>2026-03-29T16:43:17.938Z</time></trkpt><trkpt lat="43.72418116264539" lon="11.220523782131393"><ele>77.0</ele><time>2026-03-29T16:43:18.938Z</time></trkpt><trkpt lat="43.724002796300205" lon="11.220880795681593"><ele>76.5</ele><time>2026-03-29T16:43:19.938Z</time></trkpt><trkpt lat="43.72383073757207" lon="11.221225840413993"><ele>76.0</ele><time>2026-03-29T16:43:20.938Z</time></trkpt><trkpt lat="43.72366366210324" lon="11.221585136987098"><ele>75.5</ele><time>2026-03-29T16:43:21.938Z</time></trkpt><trkpt lat="43.72350790437512" lon="11.221954076079676"><ele>75.0</ele><time>2026-03-29T16:43:22.938Z</time></trkpt><trkpt lat="43.7233561511833" lon="11.222364240834914"><ele>73.0</ele><time>2026-03-29T16:43:23.938Z</time></trkpt><trkpt lat="43.72321101060317" lon="11.222800871139022"><ele>71.0</ele><time>2026-03-29T16:43:24.94Z</time></trkpt><trkpt lat="43.7230892979048" lon="11.223253676965676"><ele>69.5</ele><time>2026-03-29T16:43:25.941Z</time></trkpt><trkpt lat="43.7229698648313" lon="11.223698182005407"><ele>68.0</ele><time>2026-03-29T16:43:26.941Z</time></trkpt><trkpt lat="43.722859781529365" lon="11.224138361218333"><ele>66.5</ele><time>2026-03-29T16:43:27.94Z</time></trkpt><trkpt lat="43.722763040247955" lon="11.224539861104658"><ele>65.0</ele><time>2026-03-29T16:43:28.94Z</time></trkpt><trkpt lat="43.72267621150134" lon="11.224947418052272"><ele>69.5</ele><time>2026-03-29T16:43:29.94Z</time></trkpt><trkpt lat="43.72255983268871" lon="11.225368710532786"><ele>74.0</ele><time>2026-03-29T16:43:30.941Z</time></trkpt><trkpt lat="43.722465178603684" lon="11.225751711322694"><ele>74.0</ele><time>2026-03-29T16:43:31.94Z</time></trkpt><trkpt lat="43.722363170787794" lon="11.226139306533765"><ele>74.0</ele><time>2026-03-29T16:43:32.94Z</time></trkpt><trkpt lat="43.722264050595115" lon="11.226511547401756"><ele>78.0</ele><time>2026-03-29T16:43:33.941Z</time></trkpt><trkpt lat="43.72215608177582" lon="11.226894592365406"><ele>82.0</ele><time>2026-03-29T16:43:34.941Z</time></trkpt><trkpt lat="43.72206003524583" lon="11.227263097209347"><ele>88.5</ele><time>2026-03-29T16:43:35.941Z</time></trkpt><trkpt lat="43.721961751360915" lon="11.227616506168363"><ele>95.0</ele><time>2026-03-29T16:43:36.94Z</time></trkpt><trkpt lat="43.72186430110307" lon="11.227971388411525"><ele>102.0</ele><time>2026-03-29T16:43:37.94Z</time></trkpt><trkpt lat="43.72176123095905" lon="11.228329008943872"><ele>109.0</ele><time>2026-03-29T16:43:38.94Z</time></trkpt><trkpt lat="43.72165309928969" lon="11.22868868154993"><ele>117.0</ele><time>2026-03-29T16:43:39.94Z</time></trkpt><trkpt lat="43.72152150889934" lon="11.229058146879824"><ele>125.0</ele><time>2026-03-29T16:43:40.94Z</time></trkpt><trkpt lat="43.72138170235048" lon="11.229431317516529"><ele>106.0</ele><time>2026-03-29T16:43:41.94Z</time></trkpt><trkpt lat="43.72064847384685" lon="11.232563970442861"><ele>96.0</ele><time>2026-03-29T16:43:46.416Z</time></trkpt><trkpt lat="43.720311376279525" lon="11.23384743547964"><ele>108.0</ele><time>2026-03-29T16:43:47.415Z</time></trkpt><trkpt lat="43.720005511862375" lon="11.235145449791188"><ele>128.0</ele><time>2026-03-29T16:43:48.415Z</time></trkpt><trkpt lat="43.71976841781427" lon="11.236470284279154"><ele>128.0</ele><time>2026-03-29T16:43:49.415Z</time></trkpt><trkpt lat="43.7197032" lon="11.2369964"><ele>128.0</ele><time>2026-03-29T16:43:50.415Z</time></trkpt><trkpt lat="43.720866820697964" lon="11.231427171762018"><ele>126.0</ele><time>2026-03-29T16:44:48.556Z</time></trkpt><trkpt lat="43.720849812519134" lon="11.231342818904018"><ele>124.0</ele><time>2026-03-29T16:44:56.464Z</time></trkpt><trkpt lat="43.727853807389614" lon="11.253238617678088"><ele>113.0</ele><time>2026-03-29T16:44:59.939Z</time></trkpt><trkpt lat="43.728044864948096" lon="11.25358282576633"><ele>102.0</ele><time>2026-03-29T16:45:00.939Z</time></trkpt><trkpt lat="43.728233480929845" lon="11.25383394615753"><ele>100.5</ele><time>2026-03-29T16:45:01.939Z</time></trkpt><trkpt lat="43.728426715071414" lon="11.254081047887054"><ele>99.0</ele><time>2026-03-29T16:45:02.939Z</time></trkpt><trkpt lat="43.72861285309771" lon="11.254348937296461"><ele>99.0</ele><time>2026-03-29T16:45:03.939Z</time></trkpt><trkpt lat="43.72879125007709" lon="11.254622753992672"><ele>99.0</ele><time>2026-03-29T16:45:04.939Z</time></trkpt><trkpt lat="43.728965246400314" lon="11.254909354999027"><ele>98.0</ele><time>2026-03-29T16:45:05.939Z</time></trkpt><trkpt lat="43.72914248312332" lon="11.255200100551175"><ele>97.0</ele><time>2026-03-29T16:45:06.939Z</time></trkpt><trkpt lat="43.72931178097664" lon="11.255490845347826"><ele>91.5</ele><time>2026-03-29T16:45:07.939Z</time></trkpt><trkpt lat="43.72948948972339" lon="11.255791464874974"><ele>86.0</ele><time>2026-03-29T16:45:08.939Z</time></trkpt><trkpt lat="43.72968381911552" lon="11.256111344541296"><ele>86.0</ele><time>2026-03-29T16:45:09.939Z</time></trkpt><trkpt lat="43.72987112262555" lon="11.25643336653484"><ele>86.0</ele><time>2026-03-29T16:45:10.939Z</time></trkpt><trkpt lat="43.73005971807393" lon="11.256768512963777"><ele>84.0</ele><time>2026-03-29T16:45:11.939Z</time></trkpt><trkpt lat="43.73026561070094" lon="11.257118166473008"><ele>82.0</ele><time>2026-03-29T16:45:12.939Z</time></trkpt><trkpt lat="43.73048114633396" lon="11.257481331835713"><ele>82.0</ele><time>2026-03-29T16:45:13.939Z</time></trkpt><trkpt lat="43.73069338635308" lon="11.257846716554077"><ele>82.0</ele><time>2026-03-29T16:45:14.939Z</time></trkpt><trkpt lat="43.73089595971468" lon="11.258187365266496"><ele>79.0</ele><time>2026-03-29T16:45:15.939Z</time></trkpt><trkpt lat="43.73109477790591" lon="11.25853080814878"><ele>76.0</ele><time>2026-03-29T16:45:16.939Z</time></trkpt><trkpt lat="43.731285781074696" lon="11.258861433388851"><ele>80.5</ele><time>2026-03-29T16:45:17.939Z</time></trkpt><trkpt lat="43.73147297250238" lon="11.259182438098945"><ele>85.0</ele><time>2026-03-29T16:45:18.939Z</time></trkpt><trkpt lat="43.73166961072541" lon="11.259504214160927"><ele>83.5</ele><time>2026-03-29T16:45:19.939Z</time></trkpt><trkpt lat="43.73186608691465" lon="11.259823058898254"><ele>82.0</ele><time>2026-03-29T16:45:20.939Z</time></trkpt><trkpt lat="43.73205473654598" lon="11.260129288834031"><ele>82.0</ele><time>2026-03-29T16:45:21.939Z</time></trkpt><trkpt lat="43.732241599525395" lon="11.260440878647914"><ele>82.0</ele><time>2026-03-29T16:45:22.939Z</time></trkpt><trkpt lat="43.73241906354873" lon="11.260755089200861"><ele>82.0</ele><time>2026-03-29T16:45:23.939Z</time></trkpt><trkpt lat="43.73260246473909" lon="11.261065310778005"><ele>82.0</ele><time>2026-03-29T16:45:24.939Z</time></trkpt><trkpt lat="43.73277864285792" lon="11.261372881043947"><ele>82.0</ele><time>2026-03-29T16:45:25.939Z</time></trkpt><trkpt lat="43.73295450713154" lon="11.261679040524614"><ele>82.0</ele><time>2026-03-29T16:45:26.939Z</time></trkpt><trkpt lat="43.73313481709175" lon="11.26198173565639"><ele>82.0</ele><time>2026-03-29T16:45:27.939Z</time></trkpt><trkpt lat="43.73330609679087" lon="11.262278910223975"><ele>82.0</ele><time>2026-03-29T16:45:28.939Z</time></trkpt><trkpt lat="43.73348556183071" lon="11.262576727606067"><ele>83.0</ele><time>2026-03-29T16:45:29.939Z</time></trkpt><trkpt lat="43.73366136424101" lon="11.262875044352098"><ele>84.0</ele><time>2026-03-29T16:45:30.942Z</time></trkpt><trkpt lat="43.733830274452586" lon="11.263160978928154"><ele>87.0</ele><time>2026-03-29T16:45:31.942Z</time></trkpt><trkpt lat="43.73400337628679" lon="11.263448243817171"><ele>90.0</ele><time>2026-03-29T16:45:32.942Z</time></trkpt><trkpt lat="43.73417526035929" lon="11.263731028283733"><ele>88.0</ele><time>2026-03-29T16:45:33.942Z</time></trkpt><trkpt lat="43.734341701354374" lon="11.264013338704657"><ele>86.0</ele><time>2026-03-29T16:45:34.941Z</time></trkpt><trkpt lat="43.7345139070993" lon="11.264296983352029"><ele>86.0</ele><time>2026-03-29T16:45:35.941Z</time></trkpt><trkpt lat="43.734680197179266" lon="11.264590556517154"><ele>86.0</ele><time>2026-03-29T16:45:36.942Z</time></trkpt><trkpt lat="43.73485691742816" lon="11.264881623026227"><ele>87.5</ele><time>2026-03-29T16:45:37.942Z</time></trkpt><trkpt lat="43.73502842392918" lon="11.265178420815067"><ele>89.0</ele><time>2026-03-29T16:45:38.942Z</time></trkpt><trkpt lat="43.73520737497371" lon="11.265473286654222"><ele>86.0</ele><time>2026-03-29T16:45:39.941Z</time></trkpt><trkpt lat="43.73538518407955" lon="11.265775769368622"><ele>83.0</ele><time>2026-03-29T16:45:40.941Z</time></trkpt><trkpt lat="43.735563039591135" lon="11.266077115332397"><ele>83.0</ele><time>2026-03-29T16:45:41.941Z</time></trkpt><trkpt lat="43.73574022108123" lon="11.266378979725658"><ele>83.0</ele><time>2026-03-29T16:45:42.941Z</time></trkpt><trkpt lat="43.735917721565535" lon="11.26667888940718"><ele>82.0</ele><time>2026-03-29T16:45:43.942Z</time></trkpt><trkpt lat="43.73609792923944" lon="11.266979248428393"><ele>81.0</ele><time>2026-03-29T16:45:44.942Z</time></trkpt><trkpt lat="43.73626662209366" lon="11.267260653288474"><ele>84.5</ele><time>2026-03-29T16:45:45.942Z</time></trkpt><trkpt lat="43.73643687759644" lon="11.267550685522698"><ele>88.0</ele><time>2026-03-29T16:45:46.942Z</time></trkpt><trkpt lat="43.73660260298761" lon="11.267834949347936"><ele>89.0</ele><time>2026-03-29T16:45:47.942Z</time></trkpt><trkpt lat="43.736763979524994" lon="11.268121062012307"><ele>90.0</ele><time>2026-03-29T16:45:48.942Z</time></trkpt><trkpt lat="43.73691967860041" lon="11.268396586046622"><ele>85.5</ele><time>2026-03-29T16:45:49.942Z</time></trkpt><trkpt lat="43.73706251991822" lon="11.26865656230833"><ele>81.0</ele><time>2026-03-29T16:45:50.942Z</time></trkpt><trkpt lat="43.73719463796302" lon="11.268901073042267"><ele>84.0</ele><time>2026-03-29T16:45:51.942Z</time></trkpt><trkpt lat="43.73733579757902" lon="11.269146542051988"><ele>87.0</ele><time>2026-03-29T16:45:52.942Z</time></trkpt><trkpt lat="43.73747768247993" lon="11.269397640141099"><ele>87.0</ele><time>2026-03-29T16:45:53.942Z</time></trkpt><trkpt lat="43.737620183433265" lon="11.269649228721397"><ele>87.0</ele><time>2026-03-29T16:45:54.942Z</time></trkpt><trkpt lat="43.73776596503641" lon="11.26989646290017"><ele>86.0</ele><time>2026-03-29T16:45:55.942Z</time></trkpt><trkpt lat="43.73791509040065" lon="11.270144325232083"><ele>85.0</ele><time>2026-03-29T16:45:56.942Z</time></trkpt><trkpt lat="43.73805965925429" lon="11.270395030536555"><ele>87.0</ele><time>2026-03-29T16:45:57.942Z</time></trkpt><trkpt lat="43.738201260354394" lon="11.270638988721622"><ele>89.0</ele><time>2026-03-29T16:45:58.942Z</time></trkpt><trkpt lat="43.738335316103665" lon="11.270872728885125"><ele>91.0</ele><time>2026-03-29T16:45:59.942Z</time></trkpt><trkpt lat="43.73846751815566" lon="11.271110301497831"><ele>86.5</ele><time>2026-03-29T16:46:00.942Z</time></trkpt><trkpt lat="43.73860785626604" lon="11.271354093029174"><ele>82.0</ele><time>2026-03-29T16:46:01.942Z</time></trkpt><trkpt lat="43.73874696786118" lon="11.271602788799957"><ele>82.0</ele><time>2026-03-29T16:46:02.942Z</time></trkpt><trkpt lat="43.738880026112426" lon="11.271854143538235"><ele>82.0</ele><time>2026-03-29T16:46:03.942Z</time></trkpt><trkpt lat="43.73901659171351" lon="11.272110191091329"><ele>83.33333333333333</ele><time>2026-03-29T16:46:04.942Z</time></trkpt><trkpt lat="43.739149203436135" lon="11.272367791906188"><ele>84.66666666666667</ele><time>2026-03-29T16:46:05.942Z</time></trkpt><trkpt lat="43.739262397580866" lon="11.272609402249836"><ele>86.0</ele><time>2026-03-29T16:46:06.942Z</time></trkpt><trkpt lat="43.739365241774095" lon="11.272856447159155"><ele>84.0</ele><time>2026-03-29T16:46:07.942Z</time></trkpt><trkpt lat="43.73945521013834" lon="11.273094077750612"><ele>82.0</ele><time>2026-03-29T16:46:08.942Z</time></trkpt><trkpt lat="43.73954760508857" lon="11.273351231086925"><ele>80.0</ele><time>2026-03-29T16:46:09.942Z</time></trkpt><trkpt lat="43.73962271940096" lon="11.273596234182468"><ele>80.0</ele><time>2026-03-29T16:46:10.942Z</time></trkpt><trkpt lat="43.73968725491655" lon="11.27383572251924"><ele>80.0</ele><time>2026-03-29T16:46:11.942Z</time></trkpt><trkpt lat="43.73974239504415" lon="11.274067369437338"><ele>80.0</ele><time>2026-03-29T16:46:12.942Z</time></trkpt><trkpt lat="43.739784501515416" lon="11.27430568127122"><ele>81.33333333333334</ele><time>2026-03-29T16:46:13.942Z</time></trkpt><trkpt lat="43.739816245726544" lon="11.274563096204053"><ele>82.66666666666667</ele><time>2026-03-29T16:46:14.942Z</time></trkpt><trkpt lat="43.739835675035515" lon="11.274840691197879"><ele>84.0</ele><time>2026-03-29T16:46:15.942Z</time></trkpt><trkpt lat="43.73984492347366" lon="11.275141603233534"><ele>84.0</ele><time>2026-03-29T16:46:16.942Z</time></trkpt><trkpt lat="43.739850039228976" lon="11.275464002705805"><ele>84.0</ele><time>2026-03-29T16:46:17.942Z</time></trkpt><trkpt lat="43.73985335360637" lon="11.275817226483067"><ele>83.5</ele><time>2026-03-29T16:46:18.942Z</time></trkpt><trkpt lat="43.73981430113461" lon="11.276186900335468"><ele>83.0</ele><time>2026-03-29T16:46:19.942Z</time></trkpt><trkpt lat="43.73981011262381" lon="11.276543241346252"><ele>83.0</ele><time>2026-03-29T16:46:20.942Z</time></trkpt><trkpt lat="43.73980650427902" lon="11.276875580520043"><ele>83.0</ele><time>2026-03-29T16:46:21.942Z</time></trkpt><trkpt lat="43.73980261628448" lon="11.277194305871122"><ele>83.33333333333334</ele><time>2026-03-29T16:46:22.942Z</time></trkpt><trkpt lat="43.73981365192016" lon="11.27749082316153"><ele>83.66666666666667</ele><time>2026-03-29T16:46:23.942Z</time></trkpt><trkpt lat="43.73980853783712" lon="11.277769717100522"><ele>84.0</ele><time>2026-03-29T16:46:24.942Z</time></trkpt><trkpt lat="43.739802961348126" lon="11.278032015036557"><ele>84.0</ele><time>2026-03-29T16:46:25.942Z</time></trkpt><trkpt lat="43.73980178089386" lon="11.278277067604595"><ele>84.0</ele><time>2026-03-29T16:46:26.942Z</time></trkpt><trkpt lat="43.739812463087524" lon="11.278505591275954"><ele>84.0</ele><time>2026-03-29T16:46:27.942Z</time></trkpt><trkpt lat="43.73984096459803" lon="11.27870004349453"><ele>84.0</ele><time>2026-03-29T16:46:28.942Z</time></trkpt><trkpt lat="43.73989367984844" lon="11.278877638617105"><ele>84.0</ele><time>2026-03-29T16:46:29.942Z</time></trkpt><trkpt lat="43.739975115894424" lon="11.279027453444415"><ele>84.0</ele><time>2026-03-29T16:46:30.942Z</time></trkpt><trkpt lat="43.74007566853648" lon="11.279127837457908"><ele>84.0</ele><time>2026-03-29T16:46:31.942Z</time></trkpt><trkpt lat="43.740192172196345" lon="11.279203443720093"><ele>83.5</ele><time>2026-03-29T16:46:32.942Z</time></trkpt><trkpt lat="43.74030592465637" lon="11.279241507416566"><ele>83.0</ele><time>2026-03-29T16:46:33.942Z</time></trkpt><trkpt lat="43.74043011870962" lon="11.27926693638456"><ele>82.5</ele><time>2026-03-29T16:46:34.942Z</time></trkpt><trkpt lat="43.74056138042406" lon="11.279273129959291"><ele>82.0</ele><time>2026-03-29T16:46:35.942Z</time></trkpt><trkpt lat="43.7407031554024" lon="11.279297807991394"><ele>82.0</ele><time>2026-03-29T16:46:36.942Z</time></trkpt><trkpt lat="43.740854218321466" lon="11.279324643613394"><ele>82.0</ele><time>2026-03-29T16:46:37.942Z</time></trkpt><trkpt lat="43.74101630829075" lon="11.279377759414636"><ele>82.0</ele><time>2026-03-29T16:46:38.942Z</time></trkpt><trkpt lat="43.74115777609802" lon="11.279439029006463"><ele>81.5</ele><time>2026-03-29T16:46:39.942Z</time></trkpt><trkpt lat="43.741290231790956" lon="11.279501104729025"><ele>81.0</ele><time>2026-03-29T16:46:40.941Z</time></trkpt><trkpt lat="43.741384825866355" lon="11.279586256331177"><ele>80.5</ele><time>2026-03-29T16:46:41.941Z</time></trkpt><trkpt lat="43.74147473546731" lon="11.279696519005098"><ele>80.0</ele><time>2026-03-29T16:46:42.941Z</time></trkpt><trkpt lat="43.74156917578893" lon="11.279825993654672"><ele>80.0</ele><time>2026-03-29T16:46:43.941Z</time></trkpt><trkpt lat="43.74165002738595" lon="11.279978143605398"><ele>80.0</ele><time>2026-03-29T16:46:44.941Z</time></trkpt><trkpt lat="43.74171255000377" lon="11.280159523091939"><ele>80.0</ele><time>2026-03-29T16:46:45.941Z</time></trkpt><trkpt lat="43.74177244467725" lon="11.28034889581628"><ele>80.0</ele><time>2026-03-29T16:46:46.941Z</time></trkpt><trkpt lat="43.741917850246175" lon="11.280455653929709"><ele>79.5</ele><time>2026-03-29T16:46:47.941Z</time></trkpt><trkpt lat="43.74198248670213" lon="11.28055951523046"><ele>79.0</ele><time>2026-03-29T16:46:48.941Z</time></trkpt><trkpt lat="43.742058038338044" lon="11.280650531175262"><ele>78.5</ele><time>2026-03-29T16:46:49.941Z</time></trkpt><trkpt lat="43.742121964314556" lon="11.280711259187244"><ele>78.0</ele><time>2026-03-29T16:46:50.941Z</time></trkpt><trkpt lat="43.742351233713784" lon="11.280947016215597"><ele>78.0</ele><time>2026-03-29T16:47:44.943Z</time></trkpt><trkpt lat="43.74245338423493" lon="11.281019137644515"><ele>78.0</ele><time>2026-03-29T16:47:45.943Z</time></trkpt><trkpt lat="43.742661829130654" lon="11.281057823341197"><ele>78.0</ele><time>2026-03-29T16:47:46.943Z</time></trkpt><trkpt lat="43.74280786602609" lon="11.281087008150731"><ele>77.75</ele><time>2026-03-29T16:47:47.943Z</time></trkpt><trkpt lat="43.74293742474933" lon="11.281139376235247"><ele>77.5</ele><time>2026-03-29T16:47:48.943Z</time></trkpt><trkpt lat="43.74306761903766" lon="11.281208765595421"><ele>77.25</ele><time>2026-03-29T16:47:49.943Z</time></trkpt><trkpt lat="43.74320233054129" lon="11.28130636551828"><ele>77.0</ele><time>2026-03-29T16:47:50.943Z</time></trkpt><trkpt lat="43.74335417926925" lon="11.281434200890448"><ele>76.5</ele><time>2026-03-29T16:47:51.943Z</time></trkpt><trkpt lat="43.74353693939943" lon="11.28160141300658"><ele>76.0</ele><time>2026-03-29T16:47:52.943Z</time></trkpt><trkpt lat="43.74377080244213" lon="11.281796785901925"><ele>76.0</ele><time>2026-03-29T16:47:53.943Z</time></trkpt><trkpt lat="43.74401010923295" lon="11.282020311934218"><ele>76.0</ele><time>2026-03-29T16:47:54.943Z</time></trkpt><trkpt lat="43.7442559962044" lon="11.282254383427343"><ele>75.5</ele><time>2026-03-29T16:47:55.943Z</time></trkpt><trkpt lat="43.744517821060754" lon="11.282513650637988"><ele>75.0</ele><time>2026-03-29T16:47:56.943Z</time></trkpt><trkpt lat="43.74479715134745" lon="11.282762483297535"><ele>75.0</ele><time>2026-03-29T16:47:57.943Z</time></trkpt><trkpt lat="43.74505307660933" lon="11.283008893554674"><ele>75.0</ele><time>2026-03-29T16:47:58.943Z</time></trkpt><trkpt lat="43.745290227169605" lon="11.283202869797146"><ele>78.0</ele><time>2026-03-29T16:47:59.943Z</time></trkpt><trkpt lat="43.74550176858083" lon="11.283406420196336"><ele>81.0</ele><time>2026-03-29T16:48:00.943Z</time></trkpt><trkpt lat="43.74568314260621" lon="11.28360519012181"><ele>81.0</ele><time>2026-03-29T16:48:01.943Z</time></trkpt><trkpt lat="43.745863081666364" lon="11.283838929550724"><ele>81.0</ele><time>2026-03-29T16:48:02.943Z</time></trkpt><trkpt lat="43.74601351268379" lon="11.284118755087732"><ele>87.0</ele><time>2026-03-29T16:48:03.943Z</time></trkpt><trkpt lat="43.74615021063195" lon="11.284446727845772"><ele>93.0</ele><time>2026-03-29T16:48:04.943Z</time></trkpt><trkpt lat="43.74627969254464" lon="11.284805010262048"><ele>94.0</ele><time>2026-03-29T16:48:05.943Z</time></trkpt><trkpt lat="43.746414206880246" lon="11.285200428695546"><ele>95.0</ele><time>2026-03-29T16:48:06.943Z</time></trkpt><trkpt lat="43.74656553633372" lon="11.285614210243722"><ele>95.0</ele><time>2026-03-29T16:48:07.943Z</time></trkpt><trkpt lat="43.74672390924539" lon="11.286019462198466"><ele>95.0</ele><time>2026-03-29T16:48:08.943Z</time></trkpt><trkpt lat="43.746865675051026" lon="11.286379263091337"><ele>103.5</ele><time>2026-03-29T16:48:09.943Z</time></trkpt><trkpt lat="43.746980843691645" lon="11.286716463972173"><ele>112.0</ele><time>2026-03-29T16:48:10.943Z</time></trkpt><trkpt lat="43.74710482388713" lon="11.287027546612611"><ele>106.0</ele><time>2026-03-29T16:48:11.943Z</time></trkpt><trkpt lat="43.74724408058759" lon="11.287342098701515"><ele>100.0</ele><time>2026-03-29T16:48:12.943Z</time></trkpt><trkpt lat="43.747385823764496" lon="11.287683114259345"><ele>100.0</ele><time>2026-03-29T16:48:13.943Z</time></trkpt><trkpt lat="43.747550451572785" lon="11.288024116528007"><ele>100.0</ele><time>2026-03-29T16:48:14.943Z</time></trkpt><trkpt lat="43.74770821443786" lon="11.288350180948035"><ele>101.5</ele><time>2026-03-29T16:48:15.943Z</time></trkpt><trkpt lat="43.74784677815705" lon="11.288636614110057"><ele>103.0</ele><time>2026-03-29T16:48:16.943Z</time></trkpt><trkpt lat="43.74797135952373" lon="11.28890631099631"><ele>100.66666666666667</ele><time>2026-03-29T16:48:17.943Z</time></trkpt><trkpt lat="43.748079748684205" lon="11.28917400769579"><ele>98.33333333333334</ele><time>2026-03-29T16:48:18.943Z</time></trkpt><trkpt lat="43.74816935178935" lon="11.289449245073591"><ele>96.0</ele><time>2026-03-29T16:48:19.943Z</time></trkpt><trkpt lat="43.74823687713099" lon="11.28974383071943"><ele>93.5</ele><time>2026-03-29T16:48:20.943Z</time></trkpt><trkpt lat="43.74828408716155" lon="11.290058596226828"><ele>91.0</ele><time>2026-03-29T16:48:21.943Z</time></trkpt><trkpt lat="43.74831645608182" lon="11.290395938601538"><ele>89.0</ele><time>2026-03-29T16:48:22.943Z</time></trkpt><trkpt lat="43.7483196973406" lon="11.290746267567094"><ele>87.0</ele><time>2026-03-29T16:48:23.943Z</time></trkpt><trkpt lat="43.74830074860784" lon="11.291112549022706"><ele>83.5</ele><time>2026-03-29T16:48:24.943Z</time></trkpt><trkpt lat="43.74826898385683" lon="11.291506430007816"><ele>80.0</ele><time>2026-03-29T16:48:25.943Z</time></trkpt><trkpt lat="43.74824882958379" lon="11.291904781884908"><ele>80.5</ele><time>2026-03-29T16:48:26.943Z</time></trkpt><trkpt lat="43.74823355528582" lon="11.292309502010305"><ele>81.0</ele><time>2026-03-29T16:48:27.943Z</time></trkpt><trkpt lat="43.74822555947469" lon="11.29270462294194"><ele>81.0</ele><time>2026-03-29T16:48:28.943Z</time></trkpt><trkpt lat="43.7482151236565" lon="11.293083988479971"><ele>81.0</ele><time>2026-03-29T16:48:29.943Z</time></trkpt><trkpt lat="43.74820326174336" lon="11.293444592851355"><ele>79.0</ele><time>2026-03-29T16:48:30.943Z</time></trkpt><trkpt lat="43.748188685585944" lon="11.293786619293048"><ele>77.0</ele><time>2026-03-29T16:48:31.943Z</time></trkpt><trkpt lat="43.748179257963336" lon="11.294140758059816"><ele>76.0</ele><time>2026-03-29T16:48:32.943Z</time></trkpt><trkpt lat="43.748180209533494" lon="11.29447258454302"><ele>75.0</ele><time>2026-03-29T16:48:33.943Z</time></trkpt><trkpt lat="43.74820471072886" lon="11.294793398158909"><ele>74.5</ele><time>2026-03-29T16:48:34.943Z</time></trkpt><trkpt lat="43.74825534432295" lon="11.295092098897504"><ele>74.0</ele><time>2026-03-29T16:48:35.943Z</time></trkpt><trkpt lat="43.74833958649431" lon="11.295406544845719"><ele>76.5</ele><time>2026-03-29T16:48:36.943Z</time></trkpt><trkpt lat="43.74844878759849" lon="11.295719364140338"><ele>79.0</ele><time>2026-03-29T16:48:37.943Z</time></trkpt><trkpt lat="43.74859279271202" lon="11.296022589819263"><ele>73.0</ele><time>2026-03-29T16:48:38.943Z</time></trkpt><trkpt lat="43.74874271074714" lon="11.29627095924526"><ele>67.0</ele><time>2026-03-29T16:48:39.943Z</time></trkpt><trkpt lat="43.74890528415783" lon="11.296483992213746"><ele>67.0</ele><time>2026-03-29T16:48:40.943Z</time></trkpt><trkpt lat="43.7490643539527" lon="11.296675558155492"><ele>67.0</ele><time>2026-03-29T16:48:41.942Z</time></trkpt><trkpt lat="43.749210940908355" lon="11.296829312074113"><ele>67.0</ele><time>2026-03-29T16:48:42.942Z</time></trkpt><trkpt lat="43.7493389747638" lon="11.296951371107323"><ele>65.75</ele><time>2026-03-29T16:48:43.942Z</time></trkpt><trkpt lat="43.74944325378672" lon="11.297063196001124"><ele>64.5</ele><time>2026-03-29T16:48:44.942Z</time></trkpt><trkpt lat="43.74954369472852" lon="11.297163924639376"><ele>63.25</ele><time>2026-03-29T16:48:45.942Z</time></trkpt><trkpt lat="43.74963992685524" lon="11.297266510599972"><ele>62.0</ele><time>2026-03-29T16:48:46.942Z</time></trkpt><trkpt lat="43.74973434239525" lon="11.297373142609448"><ele>62.0</ele><time>2026-03-29T16:48:47.942Z</time></trkpt><trkpt lat="43.74982849131744" lon="11.297474067414617"><ele>62.0</ele><time>2026-03-29T16:48:48.942Z</time></trkpt><trkpt lat="43.749930842970706" lon="11.29757619025028"><ele>62.0</ele><time>2026-03-29T16:48:49.942Z</time></trkpt><trkpt lat="43.75002859259649" lon="11.297684921382896"><ele>62.0</ele><time>2026-03-29T16:48:50.942Z</time></trkpt><trkpt lat="43.75012720783503" lon="11.297795034775563"><ele>61.5</ele><time>2026-03-29T16:48:51.942Z</time></trkpt><trkpt lat="43.750223265346406" lon="11.29790731433293"><ele>61.0</ele><time>2026-03-29T16:48:52.942Z</time></trkpt><trkpt lat="43.75033231177216" lon="11.298018528860798"><ele>60.5</ele><time>2026-03-29T16:48:53.942Z</time></trkpt><trkpt lat="43.750446916764474" lon="11.29813401669394"><ele>60.0</ele><time>2026-03-29T16:48:54.942Z</time></trkpt><trkpt lat="43.750558300687516" lon="11.298255976407377"><ele>60.0</ele><time>2026-03-29T16:48:55.942Z</time></trkpt><trkpt lat="43.75067638222387" lon="11.298381631465135"><ele>60.0</ele><time>2026-03-29T16:48:56.942Z</time></trkpt><trkpt lat="43.75079074997101" lon="11.298507663679507"><ele>60.0</ele><time>2026-03-29T16:48:57.942Z</time></trkpt><trkpt lat="43.7509192070994" lon="11.298636951724562"><ele>59.66666666666667</ele><time>2026-03-29T16:48:58.942Z</time></trkpt><trkpt lat="43.751045130171505" lon="11.298764894102053"><ele>59.333333333333336</ele><time>2026-03-29T16:48:59.942Z</time></trkpt><trkpt lat="43.751181526125876" lon="11.298902735949447"><ele>59.0</ele><time>2026-03-29T16:49:00.942Z</time></trkpt><trkpt lat="43.75132140821532" lon="11.29901409289784"><ele>59.0</ele><time>2026-03-29T16:49:01.942Z</time></trkpt><trkpt lat="43.751475852353934" lon="11.299153210985214"><ele>59.0</ele><time>2026-03-29T16:49:02.942Z</time></trkpt><trkpt lat="43.75164023870024" lon="11.29928681207725"><ele>59.0</ele><time>2026-03-29T16:49:03.942Z</time></trkpt><trkpt lat="43.75182006351013" lon="11.299417010810282"><ele>58.333333333333336</ele><time>2026-03-29T16:49:04.942Z</time></trkpt><trkpt lat="43.75199947064138" lon="11.299561144302167"><ele>57.66666666666667</ele><time>2026-03-29T16:49:05.942Z</time></trkpt><trkpt lat="43.75218199404483" lon="11.29969806757003"><ele>57.0</ele><time>2026-03-29T16:49:06.942Z</time></trkpt><trkpt lat="43.75237252966176" lon="11.299829582145243"><ele>57.0</ele><time>2026-03-29T16:49:07.942Z</time></trkpt><trkpt lat="43.75255487634341" lon="11.299960542506017"><ele>57.0</ele><time>2026-03-29T16:49:08.942Z</time></trkpt><trkpt lat="43.752746793753296" lon="11.300092639218802"><ele>57.0</ele><time>2026-03-29T16:49:09.942Z</time></trkpt><trkpt lat="43.752944388486775" lon="11.300223690128673"><ele>56.5</ele><time>2026-03-29T16:49:10.942Z</time></trkpt><trkpt lat="43.75316665730632" lon="11.300361006771166"><ele>56.0</ele><time>2026-03-29T16:49:11.942Z</time></trkpt><trkpt lat="43.75339953271058" lon="11.300499508098227"><ele>56.5</ele><time>2026-03-29T16:49:12.942Z</time></trkpt><trkpt lat="43.753634508262216" lon="11.300626276940175"><ele>57.0</ele><time>2026-03-29T16:49:13.942Z</time></trkpt><trkpt lat="43.753878394588966" lon="11.300759362771743"><ele>57.0</ele><time>2026-03-29T16:49:14.942Z</time></trkpt><trkpt lat="43.75413291203648" lon="11.300878155170295"><ele>57.0</ele><time>2026-03-29T16:49:15.942Z</time></trkpt><trkpt lat="43.75440547886259" lon="11.301027627179131"><ele>57.5</ele><time>2026-03-29T16:49:16.942Z</time></trkpt><trkpt lat="43.754710229804196" lon="11.301205278792875"><ele>58.0</ele><time>2026-03-29T16:49:17.942Z</time></trkpt><trkpt lat="43.75502508781889" lon="11.301406101005982"><ele>57.5</ele><time>2026-03-29T16:49:18.942Z</time></trkpt><trkpt lat="43.755345980626466" lon="11.301593437316372"><ele>57.0</ele><time>2026-03-29T16:49:19.942Z</time></trkpt><trkpt lat="43.755660354029274" lon="11.301757502542861"><ele>57.0</ele><time>2026-03-29T16:49:20.942Z</time></trkpt><trkpt lat="43.755944296092395" lon="11.301910982776652"><ele>57.0</ele><time>2026-03-29T16:49:21.942Z</time></trkpt><trkpt lat="43.75620984296937" lon="11.302082654541582"><ele>56.5</ele><time>2026-03-29T16:49:22.942Z</time></trkpt><trkpt lat="43.75648102930766" lon="11.302241738457877"><ele>56.0</ele><time>2026-03-29T16:49:23.942Z</time></trkpt><trkpt lat="43.756745705334865" lon="11.302393729565711"><ele>57.5</ele><time>2026-03-29T16:49:24.942Z</time></trkpt><trkpt lat="43.757007241003485" lon="11.302562697788039"><ele>59.0</ele><time>2026-03-29T16:49:25.942Z</time></trkpt><trkpt lat="43.75727596331938" lon="11.302717311024445"><ele>59.0</ele><time>2026-03-29T16:49:26.942Z</time></trkpt><trkpt lat="43.757541595238244" lon="11.302876547345925"><ele>59.0</ele><time>2026-03-29T16:49:27.942Z</time></trkpt><trkpt lat="43.75777976105018" lon="11.303027274064913"><ele>58.0</ele><time>2026-03-29T16:49:28.942Z</time></trkpt><trkpt lat="43.75801001959505" lon="11.303165875119834"><ele>57.0</ele><time>2026-03-29T16:49:29.942Z</time></trkpt><trkpt lat="43.7582193786297" lon="11.30328547742397"><ele>57.0</ele><time>2026-03-29T16:49:30.942Z</time></trkpt><trkpt lat="43.75841355736698" lon="11.303399311890384"><ele>57.0</ele><time>2026-03-29T16:49:31.942Z</time></trkpt><trkpt lat="43.75863554978151" lon="11.3035212889941"><ele>55.5</ele><time>2026-03-29T16:49:32.942Z</time></trkpt><trkpt lat="43.75886855471155" lon="11.3036293907255"><ele>54.0</ele><time>2026-03-29T16:49:33.942Z</time></trkpt><trkpt lat="43.75910282349626" lon="11.30371457847965"><ele>54.0</ele><time>2026-03-29T16:49:34.942Z</time></trkpt><trkpt lat="43.759315858586255" lon="11.30376742653132"><ele>54.0</ele><time>2026-03-29T16:49:35.942Z</time></trkpt><trkpt lat="43.75954145468636" lon="11.303789682078326"><ele>54.0</ele><time>2026-03-29T16:49:36.942Z</time></trkpt><trkpt lat="43.759763949959904" lon="11.303803947448802"><ele>55.0</ele><time>2026-03-29T16:49:37.942Z</time></trkpt><trkpt lat="43.75998830005707" lon="11.303799785966007"><ele>56.0</ele><time>2026-03-29T16:49:38.942Z</time></trkpt><trkpt lat="43.7602288454927" lon="11.303772470898693"><ele>56.0</ele><time>2026-03-29T16:49:39.942Z</time></trkpt><trkpt lat="43.76047120496423" lon="11.303740432285945"><ele>56.0</ele><time>2026-03-29T16:49:40.942Z</time></trkpt><trkpt lat="43.76070691993504" lon="11.303719956109255"><ele>56.0</ele><time>2026-03-29T16:49:41.942Z</time></trkpt><trkpt lat="43.760921806528934" lon="11.303700790505582"><ele>56.0</ele><time>2026-03-29T16:49:42.944Z</time></trkpt><trkpt lat="43.761120850073304" lon="11.30368530952718"><ele>56.0</ele><time>2026-03-29T16:49:43.944Z</time></trkpt><trkpt lat="43.76130801162787" lon="11.303653917955973"><ele>57.0</ele><time>2026-03-29T16:49:44.944Z</time></trkpt><trkpt lat="43.761500867973716" lon="11.303626254237397"><ele>58.0</ele><time>2026-03-29T16:49:45.944Z</time></trkpt><trkpt lat="43.76169013172706" lon="11.303606390393874"><ele>59.0</ele><time>2026-03-29T16:49:46.944Z</time></trkpt><trkpt lat="43.76188245681053" lon="11.303590803713341"><ele>57.0</ele><time>2026-03-29T16:49:47.944Z</time></trkpt><trkpt lat="43.762067983278506" lon="11.303586020178164"><ele>55.0</ele><time>2026-03-29T16:49:48.944Z</time></trkpt><trkpt lat="43.7622623643653" lon="11.303607423710613"><ele>53.0</ele><time>2026-03-29T16:49:49.944Z</time></trkpt><trkpt lat="43.76244741310152" lon="11.303629097574602"><ele>53.0</ele><time>2026-03-29T16:49:50.944Z</time></trkpt><trkpt lat="43.762628375886614" lon="11.303677548348228"><ele>53.0</ele><time>2026-03-29T16:49:51.944Z</time></trkpt><trkpt lat="43.7627890325085" lon="11.303730360938689"><ele>53.0</ele><time>2026-03-29T16:49:52.944Z</time></trkpt><trkpt lat="43.76294237105295" lon="11.303787144263927"><ele>51.75</ele><time>2026-03-29T16:49:53.944Z</time></trkpt><trkpt lat="43.76308790663095" lon="11.303831428856753"><ele>50.5</ele><time>2026-03-29T16:49:54.944Z</time></trkpt><trkpt lat="43.76322013455512" lon="11.303875393118437"><ele>49.25</ele><time>2026-03-29T16:49:55.944Z</time></trkpt><trkpt lat="43.76336447983652" lon="11.303912407939393"><ele>48.0</ele><time>2026-03-29T16:49:56.944Z</time></trkpt><trkpt lat="43.76348785349502" lon="11.303940979415199"><ele>47.5</ele><time>2026-03-29T16:49:57.944Z</time></trkpt><trkpt lat="43.763612881526484" lon="11.303974964457495"><ele>47.0</ele><time>2026-03-29T16:49:58.944Z</time></trkpt><trkpt lat="43.76372765945212" lon="11.30400471341633"><ele>46.5</ele><time>2026-03-29T16:49:59.944Z</time></trkpt><trkpt lat="43.76383512523449" lon="11.304038002166841"><ele>46.0</ele><time>2026-03-29T16:50:00.944Z</time></trkpt><trkpt lat="43.763956194494384" lon="11.304073930448585"><ele>46.0</ele><time>2026-03-29T16:50:01.944Z</time></trkpt><trkpt lat="43.76408819170909" lon="11.304111987194185"><ele>46.0</ele><time>2026-03-29T16:50:02.944Z</time></trkpt><trkpt lat="43.76421038880052" lon="11.304148278180486"><ele>46.0</ele><time>2026-03-29T16:50:03.944Z</time></trkpt><trkpt lat="43.76432075845544" lon="11.304183587294556"><ele>46.0</ele><time>2026-03-29T16:50:04.944Z</time></trkpt><trkpt lat="43.76443494127543" lon="11.304210929598048"><ele>48.0</ele><time>2026-03-29T16:50:05.944Z</time></trkpt><trkpt lat="43.764534712198206" lon="11.304244317823517"><ele>50.0</ele><time>2026-03-29T16:50:06.944Z</time></trkpt><trkpt lat="43.7646253771103" lon="11.304295031438487"><ele>51.99999999999999</ele><time>2026-03-29T16:50:07.944Z</time></trkpt><trkpt lat="43.764692213769315" lon="11.304352672785305"><ele>54.0</ele><time>2026-03-29T16:50:08.944Z</time></trkpt><trkpt lat="43.764752391571825" lon="11.304436225325805"><ele>56.0</ele><time>2026-03-29T16:50:09.944Z</time></trkpt><trkpt lat="43.76482472286335" lon="11.30457473114049"><ele>56.0</ele><time>2026-03-29T16:50:11.944Z</time></trkpt><trkpt lat="43.76488360135224" lon="11.304721494485538"><ele>56.0</ele><time>2026-03-29T16:50:13.944Z</time></trkpt><trkpt lat="43.764961279177506" lon="11.304879019060294"><ele>56.0</ele><time>2026-03-29T16:50:15.944Z</time></trkpt><trkpt lat="43.76501617560893" lon="11.304988822759539"><ele>56.0</ele><time>2026-03-29T16:50:16.944Z</time></trkpt><trkpt lat="43.765090176714686" lon="11.305126560101629"><ele>55.75</ele><time>2026-03-29T16:50:17.944Z</time></trkpt><trkpt lat="43.76517820516727" lon="11.305298758805884"><ele>55.5</ele><time>2026-03-29T16:50:18.944Z</time></trkpt><trkpt lat="43.76526530533563" lon="11.305448359312097"><ele>55.25</ele><time>2026-03-29T16:50:19.944Z</time></trkpt><trkpt lat="43.7653328397586" lon="11.305609134931922"><ele>55.0</ele><time>2026-03-29T16:50:20.944Z</time></trkpt><trkpt lat="43.76537445290201" lon="11.305750211236536"><ele>55.25</ele><time>2026-03-29T16:50:21.944Z</time></trkpt><trkpt lat="43.76540889627842" lon="11.305881420094227"><ele>55.5</ele><time>2026-03-29T16:50:22.944Z</time></trkpt><trkpt lat="43.76541051987494" lon="11.306071667308533"><ele>55.75</ele><time>2026-03-29T16:50:23.944Z</time></trkpt><trkpt lat="43.76537844958833" lon="11.306264499330744"><ele>56.0</ele><time>2026-03-29T16:50:24.944Z</time></trkpt><trkpt lat="43.76535634636015" lon="11.30649014943024"><ele>56.0</ele><time>2026-03-29T16:50:25.944Z</time></trkpt><trkpt lat="43.765319455373906" lon="11.306708113194727"><ele>56.0</ele><time>2026-03-29T16:50:26.944Z</time></trkpt><trkpt lat="43.765291220362634" lon="11.306881826635726"><ele>56.0</ele><time>2026-03-29T16:50:27.944Z</time></trkpt><trkpt lat="43.76528318017011" lon="11.307031980660266"><ele>56.0</ele><time>2026-03-29T16:50:28.944Z</time></trkpt><trkpt lat="43.76525696102983" lon="11.30719685566915"><ele>55.75</ele><time>2026-03-29T16:50:29.944Z</time></trkpt><trkpt lat="43.76523844722771" lon="11.307350355654103"><ele>55.5</ele><time>2026-03-29T16:50:30.944Z</time></trkpt><trkpt lat="43.76522154040528" lon="11.307516814708961"><ele>55.25</ele><time>2026-03-29T16:50:31.944Z</time></trkpt><trkpt lat="43.76520797313044" lon="11.307698593824036"><ele>55.0</ele><time>2026-03-29T16:50:32.944Z</time></trkpt><trkpt lat="43.76519448658597" lon="11.307863528592888"><ele>55.0</ele><time>2026-03-29T16:50:33.944Z</time></trkpt><trkpt lat="43.76516899241155" lon="11.30800892435709"><ele>55.0</ele><time>2026-03-29T16:50:34.944Z</time></trkpt><trkpt lat="43.76514798824876" lon="11.308146726580599"><ele>55.0</ele><time>2026-03-29T16:50:35.943Z</time></trkpt><trkpt lat="43.765139924139035" lon="11.308258604899619"><ele>55.0</ele><time>2026-03-29T16:50:36.943Z</time></trkpt><trkpt lat="43.765089635364966" lon="11.308345982224331"><ele>55.0</ele><time>2026-03-29T16:50:37.943Z</time></trkpt><trkpt lat="43.76507553998165" lon="11.308466859989656"><ele>55.0</ele><time>2026-03-29T16:50:39.943Z</time></trkpt><trkpt lat="43.76506434834328" lon="11.308562836109893"><ele>55.0</ele><time>2026-03-29T16:50:44.943Z</time></trkpt><trkpt lat="43.76504720496364" lon="11.308709852559417"><ele>55.0</ele><time>2026-03-29T16:50:46.943Z</time></trkpt><trkpt lat="43.76503071225662" lon="11.308857179640459"><ele>55.0</ele><time>2026-03-29T16:50:47.943Z</time></trkpt><trkpt lat="43.765005703338964" lon="11.309074585228679"><ele>55.0</ele><time>2026-03-29T16:50:48.943Z</time></trkpt><trkpt lat="43.76501750847585" lon="11.309349338650414"><ele>55.0</ele><time>2026-03-29T16:50:49.943Z</time></trkpt><trkpt lat="43.76498224133488" lon="11.309677310936674"><ele>55.0</ele><time>2026-03-29T16:50:50.943Z</time></trkpt><trkpt lat="43.76494813695022" lon="11.310028241708352"><ele>55.0</ele><time>2026-03-29T16:50:51.943Z</time></trkpt><trkpt lat="43.76491386909167" lon="11.310391998888633"><ele>55.0</ele><time>2026-03-29T16:50:52.943Z</time></trkpt><trkpt lat="43.76487835987223" lon="11.310758349602876"><ele>55.0</ele><time>2026-03-29T16:50:53.943Z</time></trkpt><trkpt lat="43.76485484826198" lon="11.311090614452365"><ele>55.0</ele><time>2026-03-29T16:50:54.943Z</time></trkpt><trkpt lat="43.76486225371119" lon="11.311424483988814"><ele>55.0</ele><time>2026-03-29T16:50:55.943Z</time></trkpt><trkpt lat="43.7648872110068" lon="11.311753252309263"><ele>55.0</ele><time>2026-03-29T16:50:56.943Z</time></trkpt><trkpt lat="43.76493069854496" lon="11.312084353028448"><ele>55.0</ele><time>2026-03-29T16:50:57.943Z</time></trkpt><trkpt lat="43.76498552670687" lon="11.31243211030212"><ele>55.0</ele><time>2026-03-29T16:50:58.943Z</time></trkpt><trkpt lat="43.76502760888452" lon="11.31275978266337"><ele>54.5</ele><time>2026-03-29T16:50:59.943Z</time></trkpt><trkpt lat="43.765077862562606" lon="11.313113164085632"><ele>54.0</ele><time>2026-03-29T16:51:00.943Z</time></trkpt><trkpt lat="43.76512183974389" lon="11.313451547612699"><ele>54.0</ele><time>2026-03-29T16:51:01.943Z</time></trkpt><trkpt lat="43.765163887729365" lon="11.313803854302366"><ele>54.0</ele><time>2026-03-29T16:51:02.943Z</time></trkpt><trkpt lat="43.76520424826536" lon="11.314115792296015"><ele>54.0</ele><time>2026-03-29T16:51:03.943Z</time></trkpt><trkpt lat="43.7652499806813" lon="11.314394138266042"><ele>54.0</ele><time>2026-03-29T16:51:04.943Z</time></trkpt><trkpt lat="43.765306267347874" lon="11.314641018766109"><ele>54.0</ele><time>2026-03-29T16:51:05.943Z</time></trkpt><trkpt lat="43.76538411038936" lon="11.31487796941138"><ele>54.0</ele><time>2026-03-29T16:51:06.943Z</time></trkpt><trkpt lat="43.7655059217143" lon="11.315111472326642"><ele>54.0</ele><time>2026-03-29T16:51:07.943Z</time></trkpt><trkpt lat="43.76565073684993" lon="11.315330926955122"><ele>54.0</ele><time>2026-03-29T16:51:08.943Z</time></trkpt><trkpt lat="43.765803016891994" lon="11.315535790401107"><ele>54.5</ele><time>2026-03-29T16:51:09.943Z</time></trkpt><trkpt lat="43.765963987620644" lon="11.31575728094186"><ele>55.0</ele><time>2026-03-29T16:51:10.943Z</time></trkpt><trkpt lat="43.766141993497484" lon="11.316007121660185"><ele>55.33333333333333</ele><time>2026-03-29T16:51:11.943Z</time></trkpt><trkpt lat="43.76630927770489" lon="11.3162437260561"><ele>55.66666666666667</ele><time>2026-03-29T16:51:12.943Z</time></trkpt><trkpt lat="43.76644818798971" lon="11.316441061950517"><ele>56.0</ele><time>2026-03-29T16:51:13.943Z</time></trkpt><trkpt lat="43.76657606472632" lon="11.31663314374883"><ele>56.0</ele><time>2026-03-29T16:51:14.943Z</time></trkpt><trkpt lat="43.76667167489691" lon="11.316847944818411"><ele>56.0</ele><time>2026-03-29T16:51:15.943Z</time></trkpt><trkpt lat="43.76675767202295" lon="11.31703436414617"><ele>56.0</ele><time>2026-03-29T16:51:16.943Z</time></trkpt><trkpt lat="43.76681434376527" lon="11.317227889054953"><ele>56.333333333333336</ele><time>2026-03-29T16:51:17.943Z</time></trkpt><trkpt lat="43.766854879445184" lon="11.317422448726212"><ele>56.66666666666667</ele><time>2026-03-29T16:51:18.943Z</time></trkpt><trkpt lat="43.766907778125315" lon="11.317632831336965"><ele>57.0</ele><time>2026-03-29T16:51:19.943Z</time></trkpt><trkpt lat="43.766956871508064" lon="11.317834939206906"><ele>57.33333333333333</ele><time>2026-03-29T16:51:20.943Z</time></trkpt><trkpt lat="43.7670178807493" lon="11.318032043855405"><ele>57.666666666666664</ele><time>2026-03-29T16:51:21.943Z</time></trkpt><trkpt lat="43.76708677638696" lon="11.318224805245139"><ele>58.0</ele><time>2026-03-29T16:51:22.943Z</time></trkpt><trkpt lat="43.76716611301482" lon="11.318416178626563"><ele>58.0</ele><time>2026-03-29T16:51:23.943Z</time></trkpt><trkpt lat="43.76726030355338" lon="11.318588088013042"><ele>58.0</ele><time>2026-03-29T16:51:24.943Z</time></trkpt><trkpt lat="43.76736259463681" lon="11.318761817216663"><ele>58.0</ele><time>2026-03-29T16:51:25.943Z</time></trkpt><trkpt lat="43.7674742485025" lon="11.318951587630323"><ele>58.0</ele><time>2026-03-29T16:51:26.943Z</time></trkpt><trkpt lat="43.76758482896331" lon="11.31916417734649"><ele>58.0</ele><time>2026-03-29T16:51:27.943Z</time></trkpt><trkpt lat="43.76769600023856" lon="11.319392313860897"><ele>58.0</ele><time>2026-03-29T16:51:28.943Z</time></trkpt><trkpt lat="43.76780084905735" lon="11.319610590761355"><ele>58.33333333333333</ele><time>2026-03-29T16:51:29.943Z</time></trkpt><trkpt lat="43.767900981612954" lon="11.319809938585841"><ele>58.66666666666667</ele><time>2026-03-29T16:51:30.943Z</time></trkpt><trkpt lat="43.767987433043274" lon="11.319988344722281"><ele>59.0</ele><time>2026-03-29T16:51:31.943Z</time></trkpt><trkpt lat="43.76807493082099" lon="11.320159660348887"><ele>59.0</ele><time>2026-03-29T16:51:32.943Z</time></trkpt><trkpt lat="43.76815406904183" lon="11.320313823869094"><ele>59.0</ele><time>2026-03-29T16:51:33.943Z</time></trkpt><trkpt lat="43.768221812360494" lon="11.320459846124738"><ele>59.0</ele><time>2026-03-29T16:51:34.943Z</time></trkpt><trkpt lat="43.76826644185661" lon="11.320592498387429"><ele>59.0</ele><time>2026-03-29T16:51:35.943Z</time></trkpt><trkpt lat="43.76831508677097" lon="11.32071046586003"><ele>59.0</ele><time>2026-03-29T16:51:36.943Z</time></trkpt><trkpt lat="43.7683640655155" lon="11.32083485341611"><ele>59.00000000000001</ele><time>2026-03-29T16:51:37.943Z</time></trkpt><trkpt lat="43.76840845555662" lon="11.320961022249628"><ele>59.00000000000001</ele><time>2026-03-29T16:51:38.942Z</time></trkpt><trkpt lat="43.768466189664565" lon="11.3210952178073"><ele>59.0</ele><time>2026-03-29T16:51:39.941Z</time></trkpt><trkpt lat="43.76850152688863" lon="11.321225977137109"><ele>59.0</ele><time>2026-03-29T16:51:40.94Z</time></trkpt><trkpt lat="43.768609622937106" lon="11.321337472810757"><ele>59.5</ele><time>2026-03-29T16:51:41.94Z</time></trkpt><trkpt lat="43.768702717084224" lon="11.321458421070991"><ele>60.0</ele><time>2026-03-29T16:51:42.939Z</time></trkpt><trkpt lat="43.768792327108635" lon="11.321594522244075"><ele>60.5</ele><time>2026-03-29T16:51:43.938Z</time></trkpt><trkpt lat="43.76887759190683" lon="11.321749239896805"><ele>61.0</ele><time>2026-03-29T16:51:44.938Z</time></trkpt><trkpt lat="43.76892366891843" lon="11.321948040106673"><ele>61.0</ele><time>2026-03-29T16:51:45.937Z</time></trkpt><trkpt lat="43.768988425067754" lon="11.32213376353184"><ele>61.0</ele><time>2026-03-29T16:51:46.936Z</time></trkpt><trkpt lat="43.76904965394886" lon="11.322330492727"><ele>61.0</ele><time>2026-03-29T16:51:47.936Z</time></trkpt><trkpt lat="43.76913834507306" lon="11.322523721820808"><ele>61.33333333333333</ele><time>2026-03-29T16:51:48.937Z</time></trkpt><trkpt lat="43.769177120018526" lon="11.322746158467437"><ele>61.66666666666667</ele><time>2026-03-29T16:51:49.938Z</time></trkpt><trkpt lat="43.76920561519438" lon="11.322971617242247"><ele>62.0</ele><time>2026-03-29T16:51:50.938Z</time></trkpt><trkpt lat="43.76922686149917" lon="11.323210328145528"><ele>62.0</ele><time>2026-03-29T16:51:51.937Z</time></trkpt><trkpt lat="43.769247347847795" lon="11.323455954463629"><ele>62.0</ele><time>2026-03-29T16:51:52.937Z</time></trkpt><trkpt lat="43.769259559032406" lon="11.323706899311043"><ele>62.0</ele><time>2026-03-29T16:51:53.936Z</time></trkpt><trkpt lat="43.769264230096056" lon="11.32398472997459"><ele>62.0</ele><time>2026-03-29T16:51:54.936Z</time></trkpt><trkpt lat="43.769265575732256" lon="11.324281333280892"><ele>62.0</ele><time>2026-03-29T16:51:55.935Z</time></trkpt><trkpt lat="43.76927585507921" lon="11.324589727669217"><ele>62.0</ele><time>2026-03-29T16:51:56.935Z</time></trkpt><trkpt lat="43.76928726277732" lon="11.324906021506365"><ele>62.0</ele><time>2026-03-29T16:51:57.935Z</time></trkpt><trkpt lat="43.7692990129389" lon="11.325202662828714"><ele>62.0</ele><time>2026-03-29T16:51:58.934Z</time></trkpt><trkpt lat="43.769304609705884" lon="11.325508764391524"><ele>62.0</ele><time>2026-03-29T16:51:59.934Z</time></trkpt><trkpt lat="43.769311613465" lon="11.325833098104816"><ele>62.0</ele><time>2026-03-29T16:52:00.934Z</time></trkpt><trkpt lat="43.769335692746175" lon="11.326144780069923"><ele>62.0</ele><time>2026-03-29T16:52:01.934Z</time></trkpt><trkpt lat="43.769357271865914" lon="11.326455089316278"><ele>65.33333333333334</ele><time>2026-03-29T16:52:02.934Z</time></trkpt><trkpt lat="43.769393648481845" lon="11.326723117195534"><ele>68.66666666666667</ele><time>2026-03-29T16:52:03.934Z</time></trkpt><trkpt lat="43.769431838755594" lon="11.326983845982145"><ele>72.0</ele><time>2026-03-29T16:52:04.933Z</time></trkpt><trkpt lat="43.76945116757638" lon="11.327206576749228"><ele>72.33333333333333</ele><time>2026-03-29T16:52:05.933Z</time></trkpt><trkpt lat="43.76945607879559" lon="11.327432491151923"><ele>72.66666666666666</ele><time>2026-03-29T16:52:06.933Z</time></trkpt><trkpt lat="43.76945324773358" lon="11.327650095211107"><ele>73.0</ele><time>2026-03-29T16:52:07.933Z</time></trkpt><trkpt lat="43.76943721373301" lon="11.327872220659208"><ele>74.33333333333333</ele><time>2026-03-29T16:52:08.933Z</time></trkpt><trkpt lat="43.76941666143545" lon="11.328092497578218"><ele>75.66666666666667</ele><time>2026-03-29T16:52:09.933Z</time></trkpt><trkpt lat="43.76939268340461" lon="11.328316992261708"><ele>77.0</ele><time>2026-03-29T16:52:10.932Z</time></trkpt><trkpt lat="43.769386957773925" lon="11.32854752548015"><ele>77.0</ele><time>2026-03-29T16:52:11.932Z</time></trkpt><trkpt lat="43.7693953487315" lon="11.32878551702841"><ele>77.0</ele><time>2026-03-29T16:52:12.932Z</time></trkpt><trkpt lat="43.769422334637724" lon="11.329013195149255"><ele>77.0</ele><time>2026-03-29T16:52:13.932Z</time></trkpt><trkpt lat="43.76947658160884" lon="11.329254586033953"><ele>77.0</ele><time>2026-03-29T16:52:14.932Z</time></trkpt><trkpt lat="43.76953659845972" lon="11.329480649450453"><ele>77.0</ele><time>2026-03-29T16:52:15.932Z</time></trkpt><trkpt lat="43.76957828700507" lon="11.329688402872785"><ele>77.0</ele><time>2026-03-29T16:52:16.932Z</time></trkpt><trkpt lat="43.7696274699292" lon="11.329902412617372"><ele>76.33333333333334</ele><time>2026-03-29T16:52:17.932Z</time></trkpt><trkpt lat="43.769694048916314" lon="11.330125016048571"><ele>75.66666666666667</ele><time>2026-03-29T16:52:18.932Z</time></trkpt><trkpt lat="43.769784704631995" lon="11.330344449143194"><ele>75.0</ele><time>2026-03-29T16:52:19.932Z</time></trkpt><trkpt lat="43.76982507531801" lon="11.330634116412746"><ele>72.5</ele><time>2026-03-29T16:52:20.932Z</time></trkpt><trkpt lat="43.769934051522725" lon="11.330911819091712"><ele>70.0</ele><time>2026-03-29T16:52:21.931Z</time></trkpt><trkpt lat="43.770049380018534" lon="11.331202539395454"><ele>67.66666666666666</ele><time>2026-03-29T16:52:22.931Z</time></trkpt><trkpt lat="43.77015103020865" lon="11.331488776059512"><ele>65.33333333333333</ele><time>2026-03-29T16:52:23.931Z</time></trkpt><trkpt lat="43.77024025029299" lon="11.331766010744953"><ele>63.0</ele><time>2026-03-29T16:52:24.931Z</time></trkpt><trkpt lat="43.77032058988889" lon="11.332017191605962"><ele>67.0</ele><time>2026-03-29T16:52:25.931Z</time></trkpt><trkpt lat="43.77039711322931" lon="11.332255624018362"><ele>71.0</ele><time>2026-03-29T16:52:26.931Z</time></trkpt><trkpt lat="43.77046631124011" lon="11.332482498492006"><ele>75.0</ele><time>2026-03-29T16:52:27.931Z</time></trkpt><trkpt lat="43.77051711535013" lon="11.332698207250129"><ele>75.0</ele><time>2026-03-29T16:52:28.931Z</time></trkpt><trkpt lat="43.77060267883099" lon="11.332905299751644"><ele>75.0</ele><time>2026-03-29T16:52:29.931Z</time></trkpt><trkpt lat="43.7706179374557" lon="11.333155844461375"><ele>75.0</ele><time>2026-03-29T16:52:30.931Z</time></trkpt><trkpt lat="43.770639238611295" lon="11.333403713992066"><ele>74.33333333333333</ele><time>2026-03-29T16:52:31.931Z</time></trkpt><trkpt lat="43.77065289694928" lon="11.333647983999535"><ele>73.66666666666666</ele><time>2026-03-29T16:52:32.931Z</time></trkpt><trkpt lat="43.7706639227925" lon="11.333854314248514"><ele>73.0</ele><time>2026-03-29T16:52:33.931Z</time></trkpt><trkpt lat="43.77066467638487" lon="11.334027224558984"><ele>73.0</ele><time>2026-03-29T16:52:34.931Z</time></trkpt><trkpt lat="43.77065716839633" lon="11.334201478911872"><ele>73.0</ele><time>2026-03-29T16:52:35.931Z</time></trkpt><trkpt lat="43.77063780725549" lon="11.334384990909673"><ele>73.0</ele><time>2026-03-29T16:52:36.931Z</time></trkpt><trkpt lat="43.770609930271135" lon="11.334567390351795"><ele>73.0</ele><time>2026-03-29T16:52:37.931Z</time></trkpt><trkpt lat="43.77058650996364" lon="11.334770365205507"><ele>75.33333333333333</ele><time>2026-03-29T16:52:38.931Z</time></trkpt><trkpt lat="43.77056434874578" lon="11.334994444779792"><ele>77.66666666666667</ele><time>2026-03-29T16:52:39.931Z</time></trkpt><trkpt lat="43.770541170389706" lon="11.33524609874601"><ele>80.0</ele><time>2026-03-29T16:52:40.931Z</time></trkpt><trkpt lat="43.77051284371648" lon="11.33553248133594"><ele>81.33333333333334</ele><time>2026-03-29T16:52:41.931Z</time></trkpt><trkpt lat="43.77047368517635" lon="11.335835235060136"><ele>82.66666666666667</ele><time>2026-03-29T16:52:42.931Z</time></trkpt><trkpt lat="43.7704285616042" lon="11.336132595916764"><ele>84.0</ele><time>2026-03-29T16:52:43.931Z</time></trkpt><trkpt lat="43.77038671817936" lon="11.336438491377928"><ele>85.33333333333333</ele><time>2026-03-29T16:52:44.931Z</time></trkpt><trkpt lat="43.770349861282995" lon="11.336725464422212"><ele>86.66666666666666</ele><time>2026-03-29T16:52:45.93Z</time></trkpt><trkpt lat="43.7703129246378" lon="11.337015831464026"><ele>88.0</ele><time>2026-03-29T16:52:46.93Z</time></trkpt><trkpt lat="43.77027477724865" lon="11.337325020959566"><ele>82.66666666666666</ele><time>2026-03-29T16:52:47.93Z</time></trkpt><trkpt lat="43.77018920117071" lon="11.337595710622875"><ele>77.33333333333333</ele><time>2026-03-29T16:52:48.93Z</time></trkpt><trkpt lat="43.77015517134368" lon="11.337872152204936"><ele>72.0</ele><time>2026-03-29T16:52:49.93Z</time></trkpt><trkpt lat="43.77012632534868" lon="11.338126029180088"><ele>72.0</ele><time>2026-03-29T16:52:50.93Z</time></trkpt><trkpt lat="43.77010689162454" lon="11.338361510757597"><ele>72.0</ele><time>2026-03-29T16:52:51.93Z</time></trkpt><trkpt lat="43.7700803518141" lon="11.338580559225477"><ele>72.0</ele><time>2026-03-29T16:52:52.93Z</time></trkpt><trkpt lat="43.770033182020974" lon="11.338781392000053"><ele>71.66666666666667</ele><time>2026-03-29T16:52:53.93Z</time></trkpt><trkpt lat="43.76998617841556" lon="11.338987805815917"><ele>71.33333333333334</ele><time>2026-03-29T16:52:54.93Z</time></trkpt><trkpt lat="43.76995131017512" lon="11.339202596835083"><ele>71.0</ele><time>2026-03-29T16:52:55.93Z</time></trkpt><trkpt lat="43.769921745207185" lon="11.339402262605494"><ele>71.0</ele><time>2026-03-29T16:52:56.93Z</time></trkpt><trkpt lat="43.76992755117432" lon="11.339589388485269"><ele>71.0</ele><time>2026-03-29T16:52:57.93Z</time></trkpt><trkpt lat="43.76991212582174" lon="11.339718408783769"><ele>71.0</ele><time>2026-03-29T16:52:58.93Z</time></trkpt><trkpt lat="43.769896937621226" lon="11.339827136977512"><ele>71.0</ele><time>2026-03-29T16:52:59.93Z</time></trkpt><trkpt lat="43.76985708630726" lon="11.339908883206524"><ele>71.0</ele><time>2026-03-29T16:53:00.93Z</time></trkpt><trkpt lat="43.769847496447355" lon="11.339999607985202"><ele>71.0</ele><time>2026-03-29T16:53:03.93Z</time></trkpt><trkpt lat="43.769838201357885" lon="11.340099926943306"><ele>70.5</ele><time>2026-03-29T16:53:30.93Z</time></trkpt><trkpt lat="43.769823590974994" lon="11.340257611765447"><ele>70.0</ele><time>2026-03-29T16:53:32.93Z</time></trkpt><trkpt lat="43.76981576951713" lon="11.34038707181561"><ele>69.5</ele><time>2026-03-29T16:53:33.93Z</time></trkpt><trkpt lat="43.76980973272333" lon="11.340582699153732"><ele>69.0</ele><time>2026-03-29T16:53:34.93Z</time></trkpt><trkpt lat="43.769806725448404" lon="11.340817471591667"><ele>69.0</ele><time>2026-03-29T16:53:35.93Z</time></trkpt><trkpt lat="43.76981073171967" lon="11.341037125246729"><ele>69.0</ele><time>2026-03-29T16:53:36.93Z</time></trkpt><trkpt lat="43.76982076006109" lon="11.341264255244726"><ele>69.0</ele><time>2026-03-29T16:53:37.93Z</time></trkpt><trkpt lat="43.76984193040806" lon="11.34152823784561"><ele>69.0</ele><time>2026-03-29T16:53:38.93Z</time></trkpt><trkpt lat="43.76987503201462" lon="11.34180579895828"><ele>69.0</ele><time>2026-03-29T16:53:39.93Z</time></trkpt><trkpt lat="43.76992196130358" lon="11.342111916948825"><ele>69.0</ele><time>2026-03-29T16:53:40.93Z</time></trkpt><trkpt lat="43.76999165593917" lon="11.342427138307308"><ele>69.5</ele><time>2026-03-29T16:53:41.929Z</time></trkpt><trkpt lat="43.77006744020705" lon="11.34273050647255"><ele>70.0</ele><time>2026-03-29T16:53:42.929Z</time></trkpt><trkpt lat="43.770164299551055" lon="11.343048226905987"><ele>71.5</ele><time>2026-03-29T16:53:43.929Z</time></trkpt><trkpt lat="43.77025012554733" lon="11.343358704151774"><ele>73.0</ele><time>2026-03-29T16:53:44.929Z</time></trkpt><trkpt lat="43.770356623254145" lon="11.34366635526104"><ele>72.33333333333333</ele><time>2026-03-29T16:53:45.929Z</time></trkpt><trkpt lat="43.77045112046666" lon="11.343942987128022"><ele>71.66666666666667</ele><time>2026-03-29T16:53:46.929Z</time></trkpt><trkpt lat="43.77054598349003" lon="11.34422068984373"><ele>71.0</ele><time>2026-03-29T16:53:47.929Z</time></trkpt><trkpt lat="43.770668512215195" lon="11.344446163870678"><ele>71.0</ele><time>2026-03-29T16:53:48.929Z</time></trkpt><trkpt lat="43.770745026037865" lon="11.344685828891265"><ele>71.0</ele><time>2026-03-29T16:53:49.929Z</time></trkpt><trkpt lat="43.77081215871225" lon="11.344915521716468"><ele>71.0</ele><time>2026-03-29T16:53:50.929Z</time></trkpt><trkpt lat="43.770895153678296" lon="11.34513729135423"><ele>70.0</ele><time>2026-03-29T16:53:51.929Z</time></trkpt><trkpt lat="43.770965252350976" lon="11.34533055912775"><ele>69.0</ele><time>2026-03-29T16:53:52.929Z</time></trkpt><trkpt lat="43.77100798379249" lon="11.345524447442543"><ele>68.0</ele><time>2026-03-29T16:53:53.932Z</time></trkpt><trkpt lat="43.771055352159586" lon="11.345698265332965"><ele>67.0</ele><time>2026-03-29T16:53:54.932Z</time></trkpt><trkpt lat="43.7710839455866" lon="11.345894361587524"><ele>69.2</ele><time>2026-03-29T16:53:55.932Z</time></trkpt><trkpt lat="43.77112364507786" lon="11.346052410978155"><ele>71.4</ele><time>2026-03-29T16:53:56.932Z</time></trkpt><trkpt lat="43.771143218873604" lon="11.346188791200664"><ele>73.6</ele><time>2026-03-29T16:53:57.932Z</time></trkpt><trkpt lat="43.77116637324089" lon="11.346301742806835"><ele>75.8</ele><time>2026-03-29T16:53:58.932Z</time></trkpt><trkpt lat="43.77118571138093" lon="11.346410553404004"><ele>78.0</ele><time>2026-03-29T16:53:59.931Z</time></trkpt><trkpt lat="43.77121318958225" lon="11.346512450398452"><ele>78.0</ele><time>2026-03-29T16:54:00.931Z</time></trkpt><trkpt lat="43.77122668534213" lon="11.346603804003195"><ele>78.0</ele><time>2026-03-29T16:54:01.931Z</time></trkpt><trkpt lat="43.77123393316121" lon="11.346714703003787"><ele>78.0</ele><time>2026-03-29T16:54:02.932Z</time></trkpt><trkpt lat="43.77124487060089" lon="11.346834605639105"><ele>78.0</ele><time>2026-03-29T16:54:03.932Z</time></trkpt><trkpt lat="43.771254135657884" lon="11.346969367375198"><ele>78.0</ele><time>2026-03-29T16:54:04.932Z</time></trkpt><trkpt lat="43.7712667512459" lon="11.347091259948442"><ele>78.0</ele><time>2026-03-29T16:54:05.932Z</time></trkpt><trkpt lat="43.771273905284986" lon="11.34721639069467"><ele>77.2</ele><time>2026-03-29T16:54:06.931Z</time></trkpt><trkpt lat="43.77128202650977" lon="11.347334443732173"><ele>76.4</ele><time>2026-03-29T16:54:07.931Z</time></trkpt><trkpt lat="43.7712914594692" lon="11.347465834630905"><ele>75.60000000000001</ele><time>2026-03-29T16:54:08.931Z</time></trkpt><trkpt lat="43.7713006716119" lon="11.347602201205891"><ele>74.8</ele><time>2026-03-29T16:54:09.931Z</time></trkpt><trkpt lat="43.771317277229464" lon="11.347743863386322"><ele>74.0</ele><time>2026-03-29T16:54:10.931Z</time></trkpt><trkpt lat="43.77131367804552" lon="11.34789969235195"><ele>72.5</ele><time>2026-03-29T16:54:11.931Z</time></trkpt><trkpt lat="43.77134145223757" lon="11.348050594795538"><ele>71.0</ele><time>2026-03-29T16:54:12.931Z</time></trkpt><trkpt lat="43.77135704619105" lon="11.34821249263813"><ele>69.5</ele><time>2026-03-29T16:54:13.931Z</time></trkpt><trkpt lat="43.77138909908917" lon="11.348369586692627"><ele>68.0</ele><time>2026-03-29T16:54:14.931Z</time></trkpt><trkpt lat="43.771427515686604" lon="11.348531342268124"><ele>68.0</ele><time>2026-03-29T16:54:15.931Z</time></trkpt><trkpt lat="43.771415311258494" lon="11.348697062874054"><ele>68.0</ele><time>2026-03-29T16:54:16.931Z</time></trkpt><trkpt lat="43.77145252153314" lon="11.34883902888723"><ele>68.0</ele><time>2026-03-29T16:54:17.931Z</time></trkpt><trkpt lat="43.77149476275465" lon="11.348959918064285"><ele>68.0</ele><time>2026-03-29T16:54:18.931Z</time></trkpt><trkpt lat="43.771545271520885" lon="11.349078869662732"><ele>68.0</ele><time>2026-03-29T16:54:19.931Z</time></trkpt><trkpt lat="43.77160022604477" lon="11.3491842191954"><ele>67.4</ele><time>2026-03-29T16:54:20.931Z</time></trkpt><trkpt lat="43.77165656126149" lon="11.349292014213647"><ele>66.8</ele><time>2026-03-29T16:54:21.931Z</time></trkpt><trkpt lat="43.771725798075806" lon="11.349398635654738"><ele>66.2</ele><time>2026-03-29T16:54:22.931Z</time></trkpt><trkpt lat="43.77179149244359" lon="11.349533706344744"><ele>65.6</ele><time>2026-03-29T16:54:23.931Z</time></trkpt><trkpt lat="43.77186687818192" lon="11.349674696856932"><ele>65.0</ele><time>2026-03-29T16:54:24.931Z</time></trkpt><trkpt lat="43.77193826510747" lon="11.34981845058137"><ele>67.66666666666667</ele><time>2026-03-29T16:54:25.931Z</time></trkpt><trkpt lat="43.77202214389929" lon="11.349971465108176"><ele>70.33333333333333</ele><time>2026-03-29T16:54:26.931Z</time></trkpt><trkpt lat="43.77210467439618" lon="11.350138354777668"><ele>73.0</ele><time>2026-03-29T16:54:27.931Z</time></trkpt><trkpt lat="43.77216730184877" lon="11.350357529599062"><ele>73.0</ele><time>2026-03-29T16:54:28.931Z</time></trkpt><trkpt lat="43.77224958387585" lon="11.350521705434002"><ele>73.0</ele><time>2026-03-29T16:54:29.931Z</time></trkpt><trkpt lat="43.77232525386221" lon="11.350678154639885"><ele>73.0</ele><time>2026-03-29T16:54:30.931Z</time></trkpt><trkpt lat="43.77240624170153" lon="11.350845056955787"><ele>73.0</ele><time>2026-03-29T16:54:31.931Z</time></trkpt><trkpt lat="43.77249380500816" lon="11.351010758358749"><ele>73.25</ele><time>2026-03-29T16:54:32.931Z</time></trkpt><trkpt lat="43.77257271424927" lon="11.351175985039946"><ele>73.5</ele><time>2026-03-29T16:54:33.931Z</time></trkpt><trkpt lat="43.77264910142857" lon="11.35132087562634"><ele>73.75</ele><time>2026-03-29T16:54:34.931Z</time></trkpt><trkpt lat="43.772718985234356" lon="11.351465117901114"><ele>74.0</ele><time>2026-03-29T16:54:35.931Z</time></trkpt><trkpt lat="43.772782373333186" lon="11.35162011803132"><ele>74.0</ele><time>2026-03-29T16:54:36.931Z</time></trkpt><trkpt lat="43.77283512554819" lon="11.351772049518898"><ele>74.0</ele><time>2026-03-29T16:54:37.931Z</time></trkpt><trkpt lat="43.77288743578607" lon="11.351933142324484"><ele>74.0</ele><time>2026-03-29T16:54:38.931Z</time></trkpt><trkpt lat="43.772930879618734" lon="11.352110679342704"><ele>74.0</ele><time>2026-03-29T16:54:39.931Z</time></trkpt><trkpt lat="43.77295275649867" lon="11.352285129999194"><ele>72.5</ele><time>2026-03-29T16:54:40.931Z</time></trkpt><trkpt lat="43.77293848914159" lon="11.352466726409457"><ele>71.0</ele><time>2026-03-29T16:54:41.931Z</time></trkpt><trkpt lat="43.772934231453966" lon="11.352643933210967"><ele>69.5</ele><time>2026-03-29T16:54:42.931Z</time></trkpt><trkpt lat="43.772950398462456" lon="11.352833707693838"><ele>68.0</ele><time>2026-03-29T16:54:43.931Z</time></trkpt><trkpt lat="43.772993966103385" lon="11.353023131742995"><ele>67.33333333333334</ele><time>2026-03-29T16:54:44.931Z</time></trkpt><trkpt lat="43.773052550878596" lon="11.35321461976752"><ele>66.66666666666667</ele><time>2026-03-29T16:54:45.931Z</time></trkpt><trkpt lat="43.773118360101485" lon="11.353427109582933"><ele>66.0</ele><time>2026-03-29T16:54:46.931Z</time></trkpt><trkpt lat="43.77318304299749" lon="11.35365889772958"><ele>65.66666666666667</ele><time>2026-03-29T16:54:47.931Z</time></trkpt><trkpt lat="43.7732398536776" lon="11.353889363478322"><ele>65.33333333333334</ele><time>2026-03-29T16:54:48.931Z</time></trkpt><trkpt lat="43.773294956541" lon="11.354130755995294"><ele>65.0</ele><time>2026-03-29T16:54:49.931Z</time></trkpt><trkpt lat="43.77334839659481" lon="11.354365255803794"><ele>65.0</ele><time>2026-03-29T16:54:50.931Z</time></trkpt><trkpt lat="43.77340359955343" lon="11.354608382904095"><ele>65.0</ele><time>2026-03-29T16:54:51.931Z</time></trkpt><trkpt lat="43.77346896441844" lon="11.354826348621994"><ele>65.0</ele><time>2026-03-29T16:54:52.931Z</time></trkpt><trkpt lat="43.77352235236987" lon="11.355051072190166"><ele>67.0</ele><time>2026-03-29T16:54:53.931Z</time></trkpt><trkpt lat="43.77357010538051" lon="11.355257227176129"><ele>69.0</ele><time>2026-03-29T16:54:54.931Z</time></trkpt><trkpt lat="43.77362641933932" lon="11.355465397326789"><ele>71.0</ele><time>2026-03-29T16:54:55.931Z</time></trkpt><trkpt lat="43.77367141609518" lon="11.355654811442076"><ele>71.0</ele><time>2026-03-29T16:54:56.931Z</time></trkpt><trkpt lat="43.77372312045751" lon="11.355829791332013"><ele>71.0</ele><time>2026-03-29T16:54:57.931Z</time></trkpt><trkpt lat="43.77379568446686" lon="11.355988899651665"><ele>71.0</ele><time>2026-03-29T16:54:58.931Z</time></trkpt><trkpt lat="43.77385785475424" lon="11.356153775899287"><ele>71.0</ele><time>2026-03-29T16:54:59.931Z</time></trkpt><trkpt lat="43.77392627279057" lon="11.356322681992829"><ele>71.0</ele><time>2026-03-29T16:55:00.931Z</time></trkpt><trkpt lat="43.77399703800339" lon="11.356489892084646"><ele>71.0</ele><time>2026-03-29T16:55:01.931Z</time></trkpt><trkpt lat="43.77407577319776" lon="11.356671710162658"><ele>71.0</ele><time>2026-03-29T16:55:02.931Z</time></trkpt><trkpt lat="43.77415597099354" lon="11.35685296027473"><ele>71.0</ele><time>2026-03-29T16:55:03.931Z</time></trkpt><trkpt lat="43.77425355533148" lon="11.357025654517257"><ele>70.33333333333334</ele><time>2026-03-29T16:55:04.931Z</time></trkpt><trkpt lat="43.77434555972248" lon="11.357210919097314"><ele>69.66666666666667</ele><time>2026-03-29T16:55:05.931Z</time></trkpt><trkpt lat="43.77445098063946" lon="11.357373376415948"><ele>69.0</ele><time>2026-03-29T16:55:06.93Z</time></trkpt><trkpt lat="43.77457552094571" lon="11.357548276080713"><ele>70.33333333333333</ele><time>2026-03-29T16:55:07.93Z</time></trkpt><trkpt lat="43.77472179211195" lon="11.357737903535439"><ele>71.66666666666666</ele><time>2026-03-29T16:55:08.93Z</time></trkpt><trkpt lat="43.77489645176698" lon="11.357939689392692"><ele>73.0</ele><time>2026-03-29T16:55:09.93Z</time></trkpt><trkpt lat="43.775105591059194" lon="11.358163472988577"><ele>75.33333333333333</ele><time>2026-03-29T16:55:10.93Z</time></trkpt><trkpt lat="43.77529094088022" lon="11.358360609453587"><ele>77.66666666666667</ele><time>2026-03-29T16:55:11.93Z</time></trkpt><trkpt lat="43.775445857172535" lon="11.358539873868862"><ele>80.0</ele><time>2026-03-29T16:55:12.93Z</time></trkpt><trkpt lat="43.775593162063906" lon="11.358706603749736"><ele>78.25</ele><time>2026-03-29T16:55:13.93Z</time></trkpt><trkpt lat="43.775698875162774" lon="11.358888392394247"><ele>76.5</ele><time>2026-03-29T16:55:14.93Z</time></trkpt><trkpt lat="43.77579179762965" lon="11.359021903041024"><ele>74.75</ele><time>2026-03-29T16:55:15.93Z</time></trkpt><trkpt lat="43.77589553710289" lon="11.359141439940924"><ele>73.0</ele><time>2026-03-29T16:55:16.93Z</time></trkpt><trkpt lat="43.77597861340413" lon="11.359256716348911"><ele>72.8</ele><time>2026-03-29T16:55:17.93Z</time></trkpt><trkpt lat="43.776061853341716" lon="11.359390573705602"><ele>72.6</ele><time>2026-03-29T16:55:18.93Z</time></trkpt><trkpt lat="43.77613630241324" lon="11.35945933778226"><ele>72.4</ele><time>2026-03-29T16:55:19.93Z</time></trkpt><trkpt lat="43.776239546758774" lon="11.359511807929072"><ele>72.2</ele><time>2026-03-29T16:55:20.93Z</time></trkpt><trkpt lat="43.776340716820606" lon="11.359516561160564"><ele>72.0</ele><time>2026-03-29T16:55:21.93Z</time></trkpt><trkpt lat="43.77644849261658" lon="11.35947600024865"><ele>72.0</ele><time>2026-03-29T16:55:22.93Z</time></trkpt><trkpt lat="43.776683960059806" lon="11.359350720208473"><ele>72.0</ele><time>2026-03-29T16:55:24.93Z</time></trkpt><trkpt lat="43.77683763815842" lon="11.359319109020436"><ele>72.0</ele><time>2026-03-29T16:55:25.93Z</time></trkpt><trkpt lat="43.776971587254" lon="11.359267505610047"><ele>71.0</ele><time>2026-03-29T16:55:26.93Z</time></trkpt><trkpt lat="43.777115082733836" lon="11.359217955461625"><ele>70.0</ele><time>2026-03-29T16:55:27.93Z</time></trkpt><trkpt lat="43.77726000524555" lon="11.359184886135727"><ele>69.0</ele><time>2026-03-29T16:55:28.93Z</time></trkpt><trkpt lat="43.77741036662073" lon="11.359177728312403"><ele>68.0</ele><time>2026-03-29T16:55:29.93Z</time></trkpt><trkpt lat="43.77754811461189" lon="11.359174074371838"><ele>68.0</ele><time>2026-03-29T16:55:30.93Z</time></trkpt><trkpt lat="43.77768747380727" lon="11.359177573969973"><ele>68.0</ele><time>2026-03-29T16:55:31.93Z</time></trkpt><trkpt lat="43.777826522119355" lon="11.359188893844037"><ele>68.0</ele><time>2026-03-29T16:55:32.93Z</time></trkpt><trkpt lat="43.777969736898314" lon="11.35920221423905"><ele>68.0</ele><time>2026-03-29T16:55:33.93Z</time></trkpt><trkpt lat="43.778115078186566" lon="11.359214229482294"><ele>68.0</ele><time>2026-03-29T16:55:34.93Z</time></trkpt><trkpt lat="43.77826244762066" lon="11.359220507815975"><ele>68.0</ele><time>2026-03-29T16:55:35.93Z</time></trkpt><trkpt lat="43.778401743746734" lon="11.359223121054276"><ele>68.0</ele><time>2026-03-29T16:55:36.93Z</time></trkpt><trkpt lat="43.77853605914553" lon="11.35927457034771"><ele>68.0</ele><time>2026-03-29T16:55:37.93Z</time></trkpt><trkpt lat="43.77866853564962" lon="11.359284688133949"><ele>67.75</ele><time>2026-03-29T16:55:38.93Z</time></trkpt><trkpt lat="43.77879888007048" lon="11.359292873578395"><ele>67.5</ele><time>2026-03-29T16:55:39.93Z</time></trkpt><trkpt lat="43.7789241000443" lon="11.359301752367836"><ele>67.25</ele><time>2026-03-29T16:55:40.93Z</time></trkpt><trkpt lat="43.779048120941496" lon="11.35931102020169"><ele>67.0</ele><time>2026-03-29T16:55:41.93Z</time></trkpt><trkpt lat="43.77917347199442" lon="11.359317382946355"><ele>67.0</ele><time>2026-03-29T16:55:42.93Z</time></trkpt><trkpt lat="43.779300115020426" lon="11.359328392464986"><ele>67.0</ele><time>2026-03-29T16:55:43.93Z</time></trkpt><trkpt lat="43.77942416401912" lon="11.359335955231744"><ele>67.0</ele><time>2026-03-29T16:55:44.93Z</time></trkpt><trkpt lat="43.77955778981519" lon="11.35934526707343"><ele>67.0</ele><time>2026-03-29T16:55:45.93Z</time></trkpt><trkpt lat="43.77968238712698" lon="11.359348994185128"><ele>67.0</ele><time>2026-03-29T16:55:46.93Z</time></trkpt><trkpt lat="43.77979378254968" lon="11.359349671327978"><ele>67.0</ele><time>2026-03-29T16:55:47.93Z</time></trkpt><trkpt lat="43.77989948131947" lon="11.359345936142494"><ele>67.0</ele><time>2026-03-29T16:55:48.93Z</time></trkpt><trkpt lat="43.78000716746426" lon="11.35933934164706"><ele>67.0</ele><time>2026-03-29T16:55:49.93Z</time></trkpt><trkpt lat="43.78011403392782" lon="11.359328263618538"><ele>67.0</ele><time>2026-03-29T16:55:50.93Z</time></trkpt><trkpt lat="43.780221463418336" lon="11.359288305648612"><ele>66.5</ele><time>2026-03-29T16:55:51.93Z</time></trkpt><trkpt lat="43.78033680013654" lon="11.359238314030417"><ele>66.0</ele><time>2026-03-29T16:55:52.93Z</time></trkpt><trkpt lat="43.78045663952956" lon="11.359163112046843"><ele>65.5</ele><time>2026-03-29T16:55:53.93Z</time></trkpt><trkpt lat="43.780580431014045" lon="11.359107876500701"><ele>65.0</ele><time>2026-03-29T16:55:54.93Z</time></trkpt><trkpt lat="43.78071892422135" lon="11.359121878798247"><ele>65.0</ele><time>2026-03-29T16:55:55.93Z</time></trkpt><trkpt lat="43.780834808969416" lon="11.359084293820647"><ele>65.0</ele><time>2026-03-29T16:55:56.93Z</time></trkpt><trkpt lat="43.7809436975763" lon="11.359062469300927"><ele>65.0</ele><time>2026-03-29T16:55:57.93Z</time></trkpt><trkpt lat="43.78105396369322" lon="11.359056304277093"><ele>65.0</ele><time>2026-03-29T16:55:58.93Z</time></trkpt><trkpt lat="43.78116927707925" lon="11.359059707313262"><ele>65.5</ele><time>2026-03-29T16:55:59.932Z</time></trkpt><trkpt lat="43.781291439467275" lon="11.359076870799486"><ele>66.0</ele><time>2026-03-29T16:56:00.933Z</time></trkpt><trkpt lat="43.78141433021122" lon="11.359081156306445"><ele>66.5</ele><time>2026-03-29T16:56:01.933Z</time></trkpt><trkpt lat="43.78153402834254" lon="11.35914231091562"><ele>67.0</ele><time>2026-03-29T16:56:02.932Z</time></trkpt><trkpt lat="43.781657906249585" lon="11.35915619092495"><ele>67.0</ele><time>2026-03-29T16:56:03.933Z</time></trkpt><trkpt lat="43.781764324915386" lon="11.359170250387201"><ele>67.0</ele><time>2026-03-29T16:56:04.933Z</time></trkpt><trkpt lat="43.78187184686465" lon="11.359186950739367"><ele>67.0</ele><time>2026-03-29T16:56:05.932Z</time></trkpt><trkpt lat="43.781975021021694" lon="11.359198478424856"><ele>67.0</ele><time>2026-03-29T16:56:06.932Z</time></trkpt><trkpt lat="43.78207291190222" lon="11.35920360430473"><ele>67.0</ele><time>2026-03-29T16:56:07.932Z</time></trkpt><trkpt lat="43.78216788132527" lon="11.35921178506241"><ele>67.2</ele><time>2026-03-29T16:56:08.932Z</time></trkpt><trkpt lat="43.78227049333211" lon="11.359214455798059"><ele>67.4</ele><time>2026-03-29T16:56:09.933Z</time></trkpt><trkpt lat="43.782369176139895" lon="11.359226510112608"><ele>67.6</ele><time>2026-03-29T16:56:10.933Z</time></trkpt><trkpt lat="43.7824717820644" lon="11.359241067844808"><ele>67.8</ele><time>2026-03-29T16:56:11.933Z</time></trkpt><trkpt lat="43.78257550850686" lon="11.35925072313594"><ele>68.0</ele><time>2026-03-29T16:56:12.932Z</time></trkpt><trkpt lat="43.78268005101827" lon="11.359267896540334"><ele>68.8</ele><time>2026-03-29T16:56:13.932Z</time></trkpt><trkpt lat="43.7827849992423" lon="11.359291054341828"><ele>69.6</ele><time>2026-03-29T16:56:14.932Z</time></trkpt><trkpt lat="43.78289144070304" lon="11.35932593626404"><ele>70.4</ele><time>2026-03-29T16:56:15.932Z</time></trkpt><trkpt lat="43.78298374435598" lon="11.359398769705358"><ele>71.2</ele><time>2026-03-29T16:56:16.932Z</time></trkpt><trkpt lat="43.783071516881975" lon="11.359501461662973"><ele>72.0</ele><time>2026-03-29T16:56:17.932Z</time></trkpt><trkpt lat="43.78315265628495" lon="11.359631022027726"><ele>71.5</ele><time>2026-03-29T16:56:18.932Z</time></trkpt><trkpt lat="43.783234468701025" lon="11.35973196289469"><ele>71.0</ele><time>2026-03-29T16:56:19.932Z</time></trkpt><trkpt lat="43.783332220483324" lon="11.359852569895258"><ele>70.5</ele><time>2026-03-29T16:56:20.932Z</time></trkpt><trkpt lat="43.783420056386035" lon="11.359961043162432"><ele>70.0</ele><time>2026-03-29T16:56:21.932Z</time></trkpt><trkpt lat="43.783535266507656" lon="11.360072055181066"><ele>70.0</ele><time>2026-03-29T16:56:22.932Z</time></trkpt><trkpt lat="43.783637298522805" lon="11.360198110796595"><ele>70.0</ele><time>2026-03-29T16:56:23.932Z</time></trkpt><trkpt lat="43.783688731242805" lon="11.360290458895477"><ele>70.0</ele><time>2026-03-29T16:56:24.932Z</time></trkpt><trkpt lat="43.783764475262586" lon="11.360383195606675"><ele>70.0</ele><time>2026-03-29T16:56:25.932Z</time></trkpt><trkpt lat="43.78383481687221" lon="11.36047141535408"><ele>70.0</ele><time>2026-03-29T16:56:26.932Z</time></trkpt><trkpt lat="43.783908335202526" lon="11.36056418700434"><ele>69.83333333333333</ele><time>2026-03-29T16:56:27.932Z</time></trkpt><trkpt lat="43.78399701229985" lon="11.360675721913093"><ele>69.66666666666666</ele><time>2026-03-29T16:56:28.932Z</time></trkpt><trkpt lat="43.78406725031639" lon="11.360763756061965"><ele>69.5</ele><time>2026-03-29T16:56:29.932Z</time></trkpt><trkpt lat="43.78413403592935" lon="11.360843359893442"><ele>69.33333333333333</ele><time>2026-03-29T16:56:30.932Z</time></trkpt><trkpt lat="43.784199891196096" lon="11.360890705896939"><ele>69.16666666666667</ele><time>2026-03-29T16:56:31.932Z</time></trkpt><trkpt lat="43.78423832924731" lon="11.360965906864923"><ele>69.0</ele><time>2026-03-29T16:56:32.932Z</time></trkpt><trkpt lat="43.78429078076375" lon="11.361027505878878"><ele>69.0</ele><time>2026-03-29T16:56:33.932Z</time></trkpt><trkpt lat="43.78434543340824" lon="11.361091690562455"><ele>69.0</ele><time>2026-03-29T16:56:34.932Z</time></trkpt><trkpt lat="43.78440079554272" lon="11.361156711690697"><ele>69.0</ele><time>2026-03-29T16:56:35.932Z</time></trkpt><trkpt lat="43.78444332235886" lon="11.361239996464018"><ele>69.0</ele><time>2026-03-29T16:56:36.932Z</time></trkpt><trkpt lat="43.78448690929451" lon="11.361337255477064"><ele>69.0</ele><time>2026-03-29T16:56:37.932Z</time></trkpt><trkpt lat="43.78452769372675" lon="11.361448417504096"><ele>69.0</ele><time>2026-03-29T16:56:38.932Z</time></trkpt><trkpt lat="43.78456649450976" lon="11.361572944197047"><ele>70.2</ele><time>2026-03-29T16:56:39.932Z</time></trkpt><trkpt lat="43.784604629478466" lon="11.36170595813689"><ele>71.4</ele><time>2026-03-29T16:56:40.932Z</time></trkpt><trkpt lat="43.784636470432524" lon="11.361837422294403"><ele>72.6</ele><time>2026-03-29T16:56:41.932Z</time></trkpt><trkpt lat="43.78465545004426" lon="11.361962389593755"><ele>73.8</ele><time>2026-03-29T16:56:42.932Z</time></trkpt><trkpt lat="43.784662832408245" lon="11.362071802977399"><ele>75.0</ele><time>2026-03-29T16:56:43.932Z</time></trkpt><trkpt lat="43.78466334973564" lon="11.362186655360942"><ele>74.6</ele><time>2026-03-29T16:56:44.932Z</time></trkpt><trkpt lat="43.784659644074054" lon="11.362302126752404"><ele>74.2</ele><time>2026-03-29T16:56:45.932Z</time></trkpt><trkpt lat="43.78465338339417" lon="11.362446767763064"><ele>73.8</ele><time>2026-03-29T16:56:46.932Z</time></trkpt><trkpt lat="43.78464673751907" lon="11.362611609349116"><ele>73.4</ele><time>2026-03-29T16:56:47.932Z</time></trkpt><trkpt lat="43.78464007396511" lon="11.362784203917807"><ele>73.0</ele><time>2026-03-29T16:56:48.932Z</time></trkpt><trkpt lat="43.78463401125493" lon="11.362941236249581"><ele>72.8</ele><time>2026-03-29T16:56:49.932Z</time></trkpt><trkpt lat="43.784628927451756" lon="11.363072913243606"><ele>72.6</ele><time>2026-03-29T16:56:50.932Z</time></trkpt><trkpt lat="43.78462401091692" lon="11.363191953274914"><ele>72.4</ele><time>2026-03-29T16:56:51.932Z</time></trkpt><trkpt lat="43.784618086274655" lon="11.363331209261844"><ele>72.2</ele><time>2026-03-29T16:56:52.932Z</time></trkpt><trkpt lat="43.78461133256443" lon="11.363489951732676"><ele>72.0</ele><time>2026-03-29T16:56:53.931Z</time></trkpt><trkpt lat="43.7846212198003" lon="11.363628250817353"><ele>72.0</ele><time>2026-03-29T16:56:54.931Z</time></trkpt><trkpt lat="43.784597429483014" lon="11.363782887106552"><ele>72.0</ele><time>2026-03-29T16:56:55.931Z</time></trkpt><trkpt lat="43.784584056667335" lon="11.363931652476703"><ele>72.0</ele><time>2026-03-29T16:56:56.931Z</time></trkpt><trkpt lat="43.78457698251795" lon="11.364060741436125"><ele>72.0</ele><time>2026-03-29T16:56:57.931Z</time></trkpt><trkpt lat="43.78455639960176" lon="11.36420438012165"><ele>72.0</ele><time>2026-03-29T16:56:58.931Z</time></trkpt><trkpt lat="43.78451670977007" lon="11.364334424158217"><ele>71.8</ele><time>2026-03-29T16:56:59.931Z</time></trkpt><trkpt lat="43.784495110715206" lon="11.364487387198297"><ele>71.6</ele><time>2026-03-29T16:57:00.931Z</time></trkpt><trkpt lat="43.784458407437896" lon="11.364606298721935"><ele>71.39999999999999</ele><time>2026-03-29T16:57:01.931Z</time></trkpt><trkpt lat="43.78443219821293" lon="11.364724837927342"><ele>71.2</ele><time>2026-03-29T16:57:02.931Z</time></trkpt><trkpt lat="43.78440105131201" lon="11.364865709832667"><ele>71.0</ele><time>2026-03-29T16:57:03.931Z</time></trkpt><trkpt lat="43.78434439908494" lon="11.365032245808587"><ele>70.2</ele><time>2026-03-29T16:57:04.931Z</time></trkpt><trkpt lat="43.78430422395164" lon="11.365202504166176"><ele>69.39999999999999</ele><time>2026-03-29T16:57:05.931Z</time></trkpt><trkpt lat="43.78428401003537" lon="11.36537561484277"><ele>68.6</ele><time>2026-03-29T16:57:06.931Z</time></trkpt><trkpt lat="43.784269731768354" lon="11.36549505911813"><ele>67.8</ele><time>2026-03-29T16:57:07.931Z</time></trkpt><trkpt lat="43.78423836390536" lon="11.365605396705918"><ele>67.0</ele><time>2026-03-29T16:57:08.931Z</time></trkpt><trkpt lat="43.78425506901646" lon="11.365699687456907"><ele>67.0</ele><time>2026-03-29T16:57:09.931Z</time></trkpt><trkpt lat="43.78430202482038" lon="11.36579459706968"><ele>67.0</ele><time>2026-03-29T16:57:11.931Z</time></trkpt><trkpt lat="43.7843759286383" lon="11.365788787228"><ele>67.0</ele><time>2026-03-29T16:57:13.931Z</time></trkpt><trkpt lat="43.784373090883555" lon="11.365929448885979"><ele>67.0</ele><time>2026-03-29T16:57:14.931Z</time></trkpt><trkpt lat="43.78435423195772" lon="11.366067142423661"><ele>67.0</ele><time>2026-03-29T16:57:16.931Z</time></trkpt><trkpt lat="43.78433204184475" lon="11.366166222215162"><ele>67.0</ele><time>2026-03-29T16:57:17.931Z</time></trkpt><trkpt lat="43.7843335876538" lon="11.36631616213037"><ele>68.6</ele><time>2026-03-29T16:57:19.931Z</time></trkpt><trkpt lat="43.78446185113297" lon="11.366401142205849"><ele>70.2</ele><time>2026-03-29T16:57:22.931Z</time></trkpt><trkpt lat="43.78452633283776" lon="11.366435046359546"><ele>71.8</ele><time>2026-03-29T16:57:23.931Z</time></trkpt><trkpt lat="43.784614202406075" lon="11.366416286298525"><ele>73.4</ele><time>2026-03-29T16:57:25.931Z</time></trkpt><trkpt lat="43.784669014562375" lon="11.3665112770304"><ele>75.0</ele><time>2026-03-29T16:57:27.931Z</time></trkpt><trkpt lat="43.78466068202397" lon="11.366610958664312"><ele>75.0</ele><time>2026-03-29T16:57:29.931Z</time></trkpt><trkpt lat="43.78477460562027" lon="11.366610072407312"><ele>75.0</ele><time>2026-03-29T17:06:33.604Z</time></trkpt><trkpt lat="43.78473059356315" lon="11.36667742009989"><ele>75.0</ele><time>2026-03-29T17:12:06.935Z</time></trkpt><trkpt lat="43.78479040597291" lon="11.366706433644618"><ele>75.0</ele><time>2026-03-29T17:41:52.092Z</time></trkpt><trkpt lat="43.78485129143431" lon="11.366738962625437"><ele>75.0</ele><time>2026-03-29T17:41:58.945Z</time></trkpt><trkpt lat="43.78473239293746" lon="11.366658625613702"><ele>75.0</ele><time>2026-03-29T17:48:43.942Z</time></trkpt></trkseg></trk></gpx>